<?xml version="1.0" encoding="UTF-8" standalone="no" ?>
<gpx xmlns="http://www.topografix.com/GPX/1/1" xmlns:xsi="http://www.w3.org/2001/XMLSchema-instance" xsi:schemaLocation="http://www.topografix.com/GPX/1/1 http://www.topografix.com/GPX/1/1/gpx.xsd" version="1.1" creator="VisuGPX - https://www.visugpx.com">
  <metadata>
    <name>Marche ESF du 10/04/2022</name>
    <desc><![CDATA[Agréable journée avec une équipe ESF très sympatique]]></desc>
  </metadata>
  <trk>
    <name><![CDATA[20220410_095744.gpx]]></name>
    <trkseg>
      <trkpt lat="47.26993" lon="-1.55212">
        <ele>81</ele>
        <time>2022-04-10T08:08:12Z</time>
      </trkpt>
      <trkpt lat="47.26993" lon="-1.55211">
        <ele>80</ele>
        <time>2022-04-10T08:08:13Z</time>
      </trkpt>
      <trkpt lat="47.26992" lon="-1.5521">
        <ele>79</ele>
        <time>2022-04-10T08:08:15Z</time>
      </trkpt>
      <trkpt lat="47.26991" lon="-1.5521">
        <ele>79</ele>
        <time>2022-04-10T08:08:17Z</time>
      </trkpt>
      <trkpt lat="47.26989" lon="-1.5521">
        <ele>78</ele>
        <time>2022-04-10T08:08:19Z</time>
      </trkpt>
      <trkpt lat="47.26988" lon="-1.55209">
        <ele>79</ele>
        <time>2022-04-10T08:08:21Z</time>
      </trkpt>
      <trkpt lat="47.26986" lon="-1.55209">
        <ele>78</ele>
        <time>2022-04-10T08:08:23Z</time>
      </trkpt>
      <trkpt lat="47.26986" lon="-1.55208">
        <ele>77</ele>
        <time>2022-04-10T08:08:24Z</time>
      </trkpt>
      <trkpt lat="47.26986" lon="-1.55208">
        <ele>77</ele>
        <time>2022-04-10T08:08:25Z</time>
      </trkpt>
      <trkpt lat="47.26984" lon="-1.55208">
        <ele>76</ele>
        <time>2022-04-10T08:08:26Z</time>
      </trkpt>
      <trkpt lat="47.26983" lon="-1.55209">
        <ele>76</ele>
        <time>2022-04-10T08:08:27Z</time>
      </trkpt>
      <trkpt lat="47.26983" lon="-1.5521">
        <ele>76</ele>
        <time>2022-04-10T08:08:28Z</time>
      </trkpt>
      <trkpt lat="47.26982" lon="-1.55211">
        <ele>77</ele>
        <time>2022-04-10T08:08:29Z</time>
      </trkpt>
      <trkpt lat="47.26981" lon="-1.55212">
        <ele>77</ele>
        <time>2022-04-10T08:08:30Z</time>
      </trkpt>
      <trkpt lat="47.2698" lon="-1.55212">
        <ele>76</ele>
        <time>2022-04-10T08:08:31Z</time>
      </trkpt>
      <trkpt lat="47.26978" lon="-1.55212">
        <ele>77</ele>
        <time>2022-04-10T08:08:32Z</time>
      </trkpt>
      <trkpt lat="47.26977" lon="-1.55212">
        <ele>77</ele>
        <time>2022-04-10T08:08:33Z</time>
      </trkpt>
      <trkpt lat="47.26975" lon="-1.55212">
        <ele>77</ele>
        <time>2022-04-10T08:08:35Z</time>
      </trkpt>
      <trkpt lat="47.26973" lon="-1.55213">
        <ele>77</ele>
        <time>2022-04-10T08:08:37Z</time>
      </trkpt>
      <trkpt lat="47.26972" lon="-1.55213">
        <ele>76</ele>
        <time>2022-04-10T08:08:38Z</time>
      </trkpt>
      <trkpt lat="47.26971" lon="-1.55213">
        <ele>76</ele>
        <time>2022-04-10T08:08:39Z</time>
      </trkpt>
      <trkpt lat="47.26971" lon="-1.55213">
        <ele>77</ele>
        <time>2022-04-10T08:08:40Z</time>
      </trkpt>
      <trkpt lat="47.26971" lon="-1.55213">
        <ele>77</ele>
        <time>2022-04-10T08:08:41Z</time>
      </trkpt>
      <trkpt lat="47.26971" lon="-1.55213">
        <ele>77</ele>
        <time>2022-04-10T08:08:42Z</time>
      </trkpt>
      <trkpt lat="47.26971" lon="-1.55213">
        <ele>77</ele>
        <time>2022-04-10T08:08:42Z</time>
      </trkpt>
      <trkpt lat="47.26969" lon="-1.55212">
        <ele>77</ele>
        <time>2022-04-10T08:08:48Z</time>
      </trkpt>
      <trkpt lat="47.26969" lon="-1.55213">
        <ele>77</ele>
        <time>2022-04-10T08:08:49Z</time>
      </trkpt>
      <trkpt lat="47.26968" lon="-1.55213">
        <ele>78</ele>
        <time>2022-04-10T08:08:50Z</time>
      </trkpt>
      <trkpt lat="47.26967" lon="-1.55213">
        <ele>79</ele>
        <time>2022-04-10T08:08:51Z</time>
      </trkpt>
      <trkpt lat="47.26966" lon="-1.55212">
        <ele>79</ele>
        <time>2022-04-10T08:08:52Z</time>
      </trkpt>
      <trkpt lat="47.26965" lon="-1.55212">
        <ele>79</ele>
        <time>2022-04-10T08:08:53Z</time>
      </trkpt>
      <trkpt lat="47.26964" lon="-1.55211">
        <ele>79</ele>
        <time>2022-04-10T08:08:54Z</time>
      </trkpt>
      <trkpt lat="47.26963" lon="-1.55211">
        <ele>80</ele>
        <time>2022-04-10T08:08:55Z</time>
      </trkpt>
      <trkpt lat="47.26962" lon="-1.55209">
        <ele>79</ele>
        <time>2022-04-10T08:08:56Z</time>
      </trkpt>
      <trkpt lat="47.26961" lon="-1.55208">
        <ele>79</ele>
        <time>2022-04-10T08:08:57Z</time>
      </trkpt>
      <trkpt lat="47.2696" lon="-1.55207">
        <ele>80</ele>
        <time>2022-04-10T08:08:58Z</time>
      </trkpt>
      <trkpt lat="47.26959" lon="-1.55206">
        <ele>80</ele>
        <time>2022-04-10T08:08:59Z</time>
      </trkpt>
      <trkpt lat="47.26959" lon="-1.55205">
        <ele>80</ele>
        <time>2022-04-10T08:09:00Z</time>
      </trkpt>
      <trkpt lat="47.26958" lon="-1.55203">
        <ele>81</ele>
        <time>2022-04-10T08:09:01Z</time>
      </trkpt>
      <trkpt lat="47.26957" lon="-1.55202">
        <ele>81</ele>
        <time>2022-04-10T08:09:02Z</time>
      </trkpt>
      <trkpt lat="47.26957" lon="-1.552">
        <ele>81</ele>
        <time>2022-04-10T08:09:03Z</time>
      </trkpt>
      <trkpt lat="47.26956" lon="-1.55199">
        <ele>82</ele>
        <time>2022-04-10T08:09:04Z</time>
      </trkpt>
      <trkpt lat="47.26955" lon="-1.55197">
        <ele>82</ele>
        <time>2022-04-10T08:09:05Z</time>
      </trkpt>
      <trkpt lat="47.26955" lon="-1.55196">
        <ele>82</ele>
        <time>2022-04-10T08:09:06Z</time>
      </trkpt>
      <trkpt lat="47.26955" lon="-1.55194">
        <ele>83</ele>
        <time>2022-04-10T08:09:07Z</time>
      </trkpt>
      <trkpt lat="47.26954" lon="-1.55192">
        <ele>83</ele>
        <time>2022-04-10T08:09:08Z</time>
      </trkpt>
      <trkpt lat="47.26954" lon="-1.55191">
        <ele>83</ele>
        <time>2022-04-10T08:09:09Z</time>
      </trkpt>
      <trkpt lat="47.26953" lon="-1.55189">
        <ele>83</ele>
        <time>2022-04-10T08:09:10Z</time>
      </trkpt>
      <trkpt lat="47.26952" lon="-1.55188">
        <ele>83</ele>
        <time>2022-04-10T08:09:11Z</time>
      </trkpt>
      <trkpt lat="47.26952" lon="-1.55186">
        <ele>83</ele>
        <time>2022-04-10T08:09:12Z</time>
      </trkpt>
      <trkpt lat="47.26952" lon="-1.55184">
        <ele>83</ele>
        <time>2022-04-10T08:09:13Z</time>
      </trkpt>
      <trkpt lat="47.26951" lon="-1.55182">
        <ele>83</ele>
        <time>2022-04-10T08:09:14Z</time>
      </trkpt>
      <trkpt lat="47.2695" lon="-1.55181">
        <ele>84</ele>
        <time>2022-04-10T08:09:15Z</time>
      </trkpt>
      <trkpt lat="47.2695" lon="-1.55179">
        <ele>83</ele>
        <time>2022-04-10T08:09:16Z</time>
      </trkpt>
      <trkpt lat="47.26949" lon="-1.55178">
        <ele>83</ele>
        <time>2022-04-10T08:09:17Z</time>
      </trkpt>
      <trkpt lat="47.26949" lon="-1.55176">
        <ele>83</ele>
        <time>2022-04-10T08:09:18Z</time>
      </trkpt>
      <trkpt lat="47.26949" lon="-1.55174">
        <ele>83</ele>
        <time>2022-04-10T08:09:19Z</time>
      </trkpt>
      <trkpt lat="47.26948" lon="-1.5517">
        <ele>82</ele>
        <time>2022-04-10T08:09:21Z</time>
      </trkpt>
      <trkpt lat="47.26948" lon="-1.55166">
        <ele>82</ele>
        <time>2022-04-10T08:09:23Z</time>
      </trkpt>
      <trkpt lat="47.26948" lon="-1.55165">
        <ele>82</ele>
        <time>2022-04-10T08:09:24Z</time>
      </trkpt>
      <trkpt lat="47.26947" lon="-1.55164">
        <ele>82</ele>
        <time>2022-04-10T08:09:25Z</time>
      </trkpt>
      <trkpt lat="47.26947" lon="-1.55163">
        <ele>82</ele>
        <time>2022-04-10T08:09:26Z</time>
      </trkpt>
      <trkpt lat="47.26946" lon="-1.55161">
        <ele>83</ele>
        <time>2022-04-10T08:09:27Z</time>
      </trkpt>
      <trkpt lat="47.26946" lon="-1.55159">
        <ele>83</ele>
        <time>2022-04-10T08:09:28Z</time>
      </trkpt>
      <trkpt lat="47.26946" lon="-1.55158">
        <ele>83</ele>
        <time>2022-04-10T08:09:29Z</time>
      </trkpt>
      <trkpt lat="47.26945" lon="-1.55157">
        <ele>83</ele>
        <time>2022-04-10T08:09:30Z</time>
      </trkpt>
      <trkpt lat="47.26944" lon="-1.55156">
        <ele>83</ele>
        <time>2022-04-10T08:09:31Z</time>
      </trkpt>
      <trkpt lat="47.26944" lon="-1.55155">
        <ele>84</ele>
        <time>2022-04-10T08:09:32Z</time>
      </trkpt>
      <trkpt lat="47.26943" lon="-1.55153">
        <ele>83</ele>
        <time>2022-04-10T08:09:33Z</time>
      </trkpt>
      <trkpt lat="47.26943" lon="-1.55151">
        <ele>83</ele>
        <time>2022-04-10T08:09:34Z</time>
      </trkpt>
      <trkpt lat="47.26943" lon="-1.5515">
        <ele>83</ele>
        <time>2022-04-10T08:09:35Z</time>
      </trkpt>
      <trkpt lat="47.26942" lon="-1.55148">
        <ele>84</ele>
        <time>2022-04-10T08:09:36Z</time>
      </trkpt>
      <trkpt lat="47.26942" lon="-1.55147">
        <ele>84</ele>
        <time>2022-04-10T08:09:37Z</time>
      </trkpt>
      <trkpt lat="47.26942" lon="-1.55145">
        <ele>83</ele>
        <time>2022-04-10T08:09:38Z</time>
      </trkpt>
      <trkpt lat="47.26941" lon="-1.55144">
        <ele>83</ele>
        <time>2022-04-10T08:09:39Z</time>
      </trkpt>
      <trkpt lat="47.26941" lon="-1.55142">
        <ele>84</ele>
        <time>2022-04-10T08:09:40Z</time>
      </trkpt>
      <trkpt lat="47.26941" lon="-1.5514">
        <ele>84</ele>
        <time>2022-04-10T08:09:41Z</time>
      </trkpt>
      <trkpt lat="47.2694" lon="-1.55138">
        <ele>84</ele>
        <time>2022-04-10T08:09:42Z</time>
      </trkpt>
      <trkpt lat="47.2694" lon="-1.55136">
        <ele>84</ele>
        <time>2022-04-10T08:09:43Z</time>
      </trkpt>
      <trkpt lat="47.26939" lon="-1.55135">
        <ele>83</ele>
        <time>2022-04-10T08:09:44Z</time>
      </trkpt>
      <trkpt lat="47.26939" lon="-1.55133">
        <ele>83</ele>
        <time>2022-04-10T08:09:45Z</time>
      </trkpt>
      <trkpt lat="47.26939" lon="-1.55132">
        <ele>83</ele>
        <time>2022-04-10T08:09:46Z</time>
      </trkpt>
      <trkpt lat="47.26939" lon="-1.5513">
        <ele>84</ele>
        <time>2022-04-10T08:09:47Z</time>
      </trkpt>
      <trkpt lat="47.26938" lon="-1.55129">
        <ele>84</ele>
        <time>2022-04-10T08:09:48Z</time>
      </trkpt>
      <trkpt lat="47.26938" lon="-1.55127">
        <ele>84</ele>
        <time>2022-04-10T08:09:49Z</time>
      </trkpt>
      <trkpt lat="47.26938" lon="-1.55126">
        <ele>83</ele>
        <time>2022-04-10T08:09:50Z</time>
      </trkpt>
      <trkpt lat="47.26938" lon="-1.55124">
        <ele>83</ele>
        <time>2022-04-10T08:09:51Z</time>
      </trkpt>
      <trkpt lat="47.26938" lon="-1.55122">
        <ele>83</ele>
        <time>2022-04-10T08:09:52Z</time>
      </trkpt>
      <trkpt lat="47.26938" lon="-1.5512">
        <ele>83</ele>
        <time>2022-04-10T08:09:53Z</time>
      </trkpt>
      <trkpt lat="47.26937" lon="-1.55118">
        <ele>83</ele>
        <time>2022-04-10T08:09:54Z</time>
      </trkpt>
      <trkpt lat="47.26937" lon="-1.55116">
        <ele>83</ele>
        <time>2022-04-10T08:09:55Z</time>
      </trkpt>
      <trkpt lat="47.26936" lon="-1.55114">
        <ele>82</ele>
        <time>2022-04-10T08:09:56Z</time>
      </trkpt>
      <trkpt lat="47.26936" lon="-1.55112">
        <ele>82</ele>
        <time>2022-04-10T08:09:57Z</time>
      </trkpt>
      <trkpt lat="47.26935" lon="-1.5511">
        <ele>81</ele>
        <time>2022-04-10T08:09:59Z</time>
      </trkpt>
      <trkpt lat="47.26935" lon="-1.55109">
        <ele>82</ele>
        <time>2022-04-10T08:10:00Z</time>
      </trkpt>
      <trkpt lat="47.26934" lon="-1.55108">
        <ele>82</ele>
        <time>2022-04-10T08:10:01Z</time>
      </trkpt>
      <trkpt lat="47.26934" lon="-1.55106">
        <ele>83</ele>
        <time>2022-04-10T08:10:02Z</time>
      </trkpt>
      <trkpt lat="47.26934" lon="-1.55105">
        <ele>82</ele>
        <time>2022-04-10T08:10:03Z</time>
      </trkpt>
      <trkpt lat="47.26934" lon="-1.55102">
        <ele>81</ele>
        <time>2022-04-10T08:10:04Z</time>
      </trkpt>
      <trkpt lat="47.26934" lon="-1.55099">
        <ele>80</ele>
        <time>2022-04-10T08:10:05Z</time>
      </trkpt>
      <trkpt lat="47.26934" lon="-1.55096">
        <ele>78</ele>
        <time>2022-04-10T08:10:07Z</time>
      </trkpt>
      <trkpt lat="47.26934" lon="-1.55095">
        <ele>78</ele>
        <time>2022-04-10T08:10:08Z</time>
      </trkpt>
      <trkpt lat="47.26934" lon="-1.55095">
        <ele>78</ele>
        <time>2022-04-10T08:10:09Z</time>
      </trkpt>
      <trkpt lat="47.26934" lon="-1.55094">
        <ele>77</ele>
        <time>2022-04-10T08:10:10Z</time>
      </trkpt>
      <trkpt lat="47.26934" lon="-1.55092">
        <ele>77</ele>
        <time>2022-04-10T08:10:11Z</time>
      </trkpt>
      <trkpt lat="47.26934" lon="-1.55092">
        <ele>76</ele>
        <time>2022-04-10T08:10:12Z</time>
      </trkpt>
      <trkpt lat="47.26934" lon="-1.5509">
        <ele>77</ele>
        <time>2022-04-10T08:10:13Z</time>
      </trkpt>
      <trkpt lat="47.26933" lon="-1.55088">
        <ele>77</ele>
        <time>2022-04-10T08:10:14Z</time>
      </trkpt>
      <trkpt lat="47.26932" lon="-1.55086">
        <ele>76</ele>
        <time>2022-04-10T08:10:16Z</time>
      </trkpt>
      <trkpt lat="47.26932" lon="-1.55084">
        <ele>75</ele>
        <time>2022-04-10T08:10:17Z</time>
      </trkpt>
      <trkpt lat="47.26932" lon="-1.55083">
        <ele>76</ele>
        <time>2022-04-10T08:10:18Z</time>
      </trkpt>
      <trkpt lat="47.26931" lon="-1.55079">
        <ele>76</ele>
        <time>2022-04-10T08:10:20Z</time>
      </trkpt>
      <trkpt lat="47.26931" lon="-1.55077">
        <ele>76</ele>
        <time>2022-04-10T08:10:21Z</time>
      </trkpt>
      <trkpt lat="47.26931" lon="-1.55076">
        <ele>77</ele>
        <time>2022-04-10T08:10:22Z</time>
      </trkpt>
      <trkpt lat="47.2693" lon="-1.55074">
        <ele>77</ele>
        <time>2022-04-10T08:10:23Z</time>
      </trkpt>
      <trkpt lat="47.2693" lon="-1.55073">
        <ele>77</ele>
        <time>2022-04-10T08:10:24Z</time>
      </trkpt>
      <trkpt lat="47.26929" lon="-1.55071">
        <ele>77</ele>
        <time>2022-04-10T08:10:25Z</time>
      </trkpt>
      <trkpt lat="47.26928" lon="-1.5507">
        <ele>77</ele>
        <time>2022-04-10T08:10:26Z</time>
      </trkpt>
      <trkpt lat="47.26928" lon="-1.55068">
        <ele>77</ele>
        <time>2022-04-10T08:10:27Z</time>
      </trkpt>
      <trkpt lat="47.26927" lon="-1.55066">
        <ele>77</ele>
        <time>2022-04-10T08:10:28Z</time>
      </trkpt>
      <trkpt lat="47.26927" lon="-1.55065">
        <ele>77</ele>
        <time>2022-04-10T08:10:29Z</time>
      </trkpt>
      <trkpt lat="47.26926" lon="-1.55063">
        <ele>77</ele>
        <time>2022-04-10T08:10:30Z</time>
      </trkpt>
      <trkpt lat="47.26925" lon="-1.55062">
        <ele>77</ele>
        <time>2022-04-10T08:10:31Z</time>
      </trkpt>
      <trkpt lat="47.26925" lon="-1.55061">
        <ele>78</ele>
        <time>2022-04-10T08:10:32Z</time>
      </trkpt>
      <trkpt lat="47.26924" lon="-1.5506">
        <ele>78</ele>
        <time>2022-04-10T08:10:33Z</time>
      </trkpt>
      <trkpt lat="47.26924" lon="-1.55058">
        <ele>78</ele>
        <time>2022-04-10T08:10:34Z</time>
      </trkpt>
      <trkpt lat="47.26924" lon="-1.55056">
        <ele>77</ele>
        <time>2022-04-10T08:10:35Z</time>
      </trkpt>
      <trkpt lat="47.26923" lon="-1.55054">
        <ele>78</ele>
        <time>2022-04-10T08:10:36Z</time>
      </trkpt>
      <trkpt lat="47.26923" lon="-1.55053">
        <ele>78</ele>
        <time>2022-04-10T08:10:37Z</time>
      </trkpt>
      <trkpt lat="47.26923" lon="-1.55051">
        <ele>78</ele>
        <time>2022-04-10T08:10:38Z</time>
      </trkpt>
      <trkpt lat="47.26922" lon="-1.55049">
        <ele>78</ele>
        <time>2022-04-10T08:10:39Z</time>
      </trkpt>
      <trkpt lat="47.26922" lon="-1.55048">
        <ele>77</ele>
        <time>2022-04-10T08:10:40Z</time>
      </trkpt>
      <trkpt lat="47.26921" lon="-1.55046">
        <ele>77</ele>
        <time>2022-04-10T08:10:41Z</time>
      </trkpt>
      <trkpt lat="47.26921" lon="-1.55044">
        <ele>77</ele>
        <time>2022-04-10T08:10:42Z</time>
      </trkpt>
      <trkpt lat="47.2692" lon="-1.55042">
        <ele>76</ele>
        <time>2022-04-10T08:10:43Z</time>
      </trkpt>
      <trkpt lat="47.2692" lon="-1.5504">
        <ele>76</ele>
        <time>2022-04-10T08:10:44Z</time>
      </trkpt>
      <trkpt lat="47.2692" lon="-1.55038">
        <ele>76</ele>
        <time>2022-04-10T08:10:45Z</time>
      </trkpt>
      <trkpt lat="47.26919" lon="-1.55036">
        <ele>76</ele>
        <time>2022-04-10T08:10:46Z</time>
      </trkpt>
      <trkpt lat="47.26918" lon="-1.55034">
        <ele>76</ele>
        <time>2022-04-10T08:10:47Z</time>
      </trkpt>
      <trkpt lat="47.26918" lon="-1.55033">
        <ele>75</ele>
        <time>2022-04-10T08:10:48Z</time>
      </trkpt>
      <trkpt lat="47.26918" lon="-1.55031">
        <ele>76</ele>
        <time>2022-04-10T08:10:49Z</time>
      </trkpt>
      <trkpt lat="47.26917" lon="-1.5503">
        <ele>76</ele>
        <time>2022-04-10T08:10:50Z</time>
      </trkpt>
      <trkpt lat="47.26917" lon="-1.55028">
        <ele>77</ele>
        <time>2022-04-10T08:10:51Z</time>
      </trkpt>
      <trkpt lat="47.26917" lon="-1.55027">
        <ele>77</ele>
        <time>2022-04-10T08:10:52Z</time>
      </trkpt>
      <trkpt lat="47.26916" lon="-1.55026">
        <ele>77</ele>
        <time>2022-04-10T08:10:53Z</time>
      </trkpt>
      <trkpt lat="47.26916" lon="-1.55024">
        <ele>78</ele>
        <time>2022-04-10T08:10:54Z</time>
      </trkpt>
      <trkpt lat="47.26915" lon="-1.55022">
        <ele>77</ele>
        <time>2022-04-10T08:10:55Z</time>
      </trkpt>
      <trkpt lat="47.26915" lon="-1.55021">
        <ele>77</ele>
        <time>2022-04-10T08:10:56Z</time>
      </trkpt>
      <trkpt lat="47.26915" lon="-1.55019">
        <ele>77</ele>
        <time>2022-04-10T08:10:57Z</time>
      </trkpt>
      <trkpt lat="47.26914" lon="-1.55018">
        <ele>77</ele>
        <time>2022-04-10T08:10:58Z</time>
      </trkpt>
      <trkpt lat="47.26914" lon="-1.55016">
        <ele>77</ele>
        <time>2022-04-10T08:10:59Z</time>
      </trkpt>
      <trkpt lat="47.26914" lon="-1.55014">
        <ele>76</ele>
        <time>2022-04-10T08:11:00Z</time>
      </trkpt>
      <trkpt lat="47.26914" lon="-1.55012">
        <ele>76</ele>
        <time>2022-04-10T08:11:01Z</time>
      </trkpt>
      <trkpt lat="47.26914" lon="-1.5501">
        <ele>76</ele>
        <time>2022-04-10T08:11:02Z</time>
      </trkpt>
      <trkpt lat="47.26914" lon="-1.55009">
        <ele>76</ele>
        <time>2022-04-10T08:11:03Z</time>
      </trkpt>
      <trkpt lat="47.26914" lon="-1.55007">
        <ele>76</ele>
        <time>2022-04-10T08:11:04Z</time>
      </trkpt>
      <trkpt lat="47.26913" lon="-1.55005">
        <ele>76</ele>
        <time>2022-04-10T08:11:05Z</time>
      </trkpt>
      <trkpt lat="47.26912" lon="-1.55003">
        <ele>76</ele>
        <time>2022-04-10T08:11:06Z</time>
      </trkpt>
      <trkpt lat="47.26912" lon="-1.55002">
        <ele>77</ele>
        <time>2022-04-10T08:11:07Z</time>
      </trkpt>
      <trkpt lat="47.26912" lon="-1.55">
        <ele>77</ele>
        <time>2022-04-10T08:11:08Z</time>
      </trkpt>
      <trkpt lat="47.26912" lon="-1.54998">
        <ele>76</ele>
        <time>2022-04-10T08:11:09Z</time>
      </trkpt>
      <trkpt lat="47.26911" lon="-1.54997">
        <ele>77</ele>
        <time>2022-04-10T08:11:10Z</time>
      </trkpt>
      <trkpt lat="47.26911" lon="-1.54995">
        <ele>77</ele>
        <time>2022-04-10T08:11:11Z</time>
      </trkpt>
      <trkpt lat="47.26911" lon="-1.54993">
        <ele>77</ele>
        <time>2022-04-10T08:11:12Z</time>
      </trkpt>
      <trkpt lat="47.26911" lon="-1.54991">
        <ele>76</ele>
        <time>2022-04-10T08:11:13Z</time>
      </trkpt>
      <trkpt lat="47.2691" lon="-1.5499">
        <ele>76</ele>
        <time>2022-04-10T08:11:14Z</time>
      </trkpt>
      <trkpt lat="47.2691" lon="-1.54988">
        <ele>76</ele>
        <time>2022-04-10T08:11:15Z</time>
      </trkpt>
      <trkpt lat="47.2691" lon="-1.54986">
        <ele>75</ele>
        <time>2022-04-10T08:11:16Z</time>
      </trkpt>
      <trkpt lat="47.2691" lon="-1.54985">
        <ele>75</ele>
        <time>2022-04-10T08:11:17Z</time>
      </trkpt>
      <trkpt lat="47.2691" lon="-1.54983">
        <ele>75</ele>
        <time>2022-04-10T08:11:18Z</time>
      </trkpt>
      <trkpt lat="47.2691" lon="-1.54982">
        <ele>75</ele>
        <time>2022-04-10T08:11:19Z</time>
      </trkpt>
      <trkpt lat="47.2691" lon="-1.5498">
        <ele>76</ele>
        <time>2022-04-10T08:11:20Z</time>
      </trkpt>
      <trkpt lat="47.2691" lon="-1.54979">
        <ele>76</ele>
        <time>2022-04-10T08:11:21Z</time>
      </trkpt>
      <trkpt lat="47.26911" lon="-1.54978">
        <ele>76</ele>
        <time>2022-04-10T08:11:22Z</time>
      </trkpt>
      <trkpt lat="47.26911" lon="-1.54977">
        <ele>76</ele>
        <time>2022-04-10T08:11:23Z</time>
      </trkpt>
      <trkpt lat="47.26911" lon="-1.54976">
        <ele>76</ele>
        <time>2022-04-10T08:11:24Z</time>
      </trkpt>
      <trkpt lat="47.26911" lon="-1.54975">
        <ele>77</ele>
        <time>2022-04-10T08:11:25Z</time>
      </trkpt>
      <trkpt lat="47.26911" lon="-1.54973">
        <ele>77</ele>
        <time>2022-04-10T08:11:26Z</time>
      </trkpt>
      <trkpt lat="47.26912" lon="-1.54973">
        <ele>77</ele>
        <time>2022-04-10T08:11:27Z</time>
      </trkpt>
      <trkpt lat="47.26912" lon="-1.54972">
        <ele>77</ele>
        <time>2022-04-10T08:11:28Z</time>
      </trkpt>
      <trkpt lat="47.26913" lon="-1.54971">
        <ele>78</ele>
        <time>2022-04-10T08:11:29Z</time>
      </trkpt>
      <trkpt lat="47.26913" lon="-1.5497">
        <ele>78</ele>
        <time>2022-04-10T08:11:30Z</time>
      </trkpt>
      <trkpt lat="47.26914" lon="-1.54969">
        <ele>79</ele>
        <time>2022-04-10T08:11:31Z</time>
      </trkpt>
      <trkpt lat="47.26914" lon="-1.54968">
        <ele>79</ele>
        <time>2022-04-10T08:11:32Z</time>
      </trkpt>
      <trkpt lat="47.26914" lon="-1.54966">
        <ele>79</ele>
        <time>2022-04-10T08:11:33Z</time>
      </trkpt>
      <trkpt lat="47.26914" lon="-1.54965">
        <ele>79</ele>
        <time>2022-04-10T08:11:34Z</time>
      </trkpt>
      <trkpt lat="47.26915" lon="-1.54963">
        <ele>79</ele>
        <time>2022-04-10T08:11:35Z</time>
      </trkpt>
      <trkpt lat="47.26916" lon="-1.54961">
        <ele>80</ele>
        <time>2022-04-10T08:11:36Z</time>
      </trkpt>
      <trkpt lat="47.26916" lon="-1.5496">
        <ele>80</ele>
        <time>2022-04-10T08:11:37Z</time>
      </trkpt>
      <trkpt lat="47.26917" lon="-1.54959">
        <ele>80</ele>
        <time>2022-04-10T08:11:38Z</time>
      </trkpt>
      <trkpt lat="47.26917" lon="-1.54958">
        <ele>80</ele>
        <time>2022-04-10T08:11:39Z</time>
      </trkpt>
      <trkpt lat="47.26917" lon="-1.54957">
        <ele>80</ele>
        <time>2022-04-10T08:11:40Z</time>
      </trkpt>
      <trkpt lat="47.26918" lon="-1.54955">
        <ele>81</ele>
        <time>2022-04-10T08:11:41Z</time>
      </trkpt>
      <trkpt lat="47.26918" lon="-1.54954">
        <ele>81</ele>
        <time>2022-04-10T08:11:42Z</time>
      </trkpt>
      <trkpt lat="47.26918" lon="-1.54953">
        <ele>82</ele>
        <time>2022-04-10T08:11:43Z</time>
      </trkpt>
      <trkpt lat="47.26919" lon="-1.54951">
        <ele>82</ele>
        <time>2022-04-10T08:11:44Z</time>
      </trkpt>
      <trkpt lat="47.26919" lon="-1.54949">
        <ele>82</ele>
        <time>2022-04-10T08:11:45Z</time>
      </trkpt>
      <trkpt lat="47.2692" lon="-1.54948">
        <ele>82</ele>
        <time>2022-04-10T08:11:46Z</time>
      </trkpt>
      <trkpt lat="47.2692" lon="-1.54947">
        <ele>82</ele>
        <time>2022-04-10T08:11:47Z</time>
      </trkpt>
      <trkpt lat="47.2692" lon="-1.54946">
        <ele>82</ele>
        <time>2022-04-10T08:11:48Z</time>
      </trkpt>
      <trkpt lat="47.26921" lon="-1.54944">
        <ele>82</ele>
        <time>2022-04-10T08:11:49Z</time>
      </trkpt>
      <trkpt lat="47.26921" lon="-1.54943">
        <ele>82</ele>
        <time>2022-04-10T08:11:50Z</time>
      </trkpt>
      <trkpt lat="47.26922" lon="-1.54942">
        <ele>83</ele>
        <time>2022-04-10T08:11:51Z</time>
      </trkpt>
      <trkpt lat="47.26922" lon="-1.5494">
        <ele>82</ele>
        <time>2022-04-10T08:11:52Z</time>
      </trkpt>
      <trkpt lat="47.26923" lon="-1.54939">
        <ele>82</ele>
        <time>2022-04-10T08:11:53Z</time>
      </trkpt>
      <trkpt lat="47.26923" lon="-1.54938">
        <ele>82</ele>
        <time>2022-04-10T08:11:54Z</time>
      </trkpt>
      <trkpt lat="47.26923" lon="-1.54937">
        <ele>81</ele>
        <time>2022-04-10T08:11:55Z</time>
      </trkpt>
      <trkpt lat="47.26924" lon="-1.54935">
        <ele>81</ele>
        <time>2022-04-10T08:11:56Z</time>
      </trkpt>
      <trkpt lat="47.26924" lon="-1.54934">
        <ele>81</ele>
        <time>2022-04-10T08:11:57Z</time>
      </trkpt>
      <trkpt lat="47.26924" lon="-1.54933">
        <ele>81</ele>
        <time>2022-04-10T08:11:58Z</time>
      </trkpt>
      <trkpt lat="47.26924" lon="-1.54931">
        <ele>81</ele>
        <time>2022-04-10T08:11:59Z</time>
      </trkpt>
      <trkpt lat="47.26924" lon="-1.54929">
        <ele>81</ele>
        <time>2022-04-10T08:12:00Z</time>
      </trkpt>
      <trkpt lat="47.26925" lon="-1.54927">
        <ele>81</ele>
        <time>2022-04-10T08:12:01Z</time>
      </trkpt>
      <trkpt lat="47.26924" lon="-1.54925">
        <ele>82</ele>
        <time>2022-04-10T08:12:02Z</time>
      </trkpt>
      <trkpt lat="47.26925" lon="-1.54923">
        <ele>81</ele>
        <time>2022-04-10T08:12:03Z</time>
      </trkpt>
      <trkpt lat="47.26924" lon="-1.54921">
        <ele>81</ele>
        <time>2022-04-10T08:12:04Z</time>
      </trkpt>
      <trkpt lat="47.26924" lon="-1.5492">
        <ele>80</ele>
        <time>2022-04-10T08:12:05Z</time>
      </trkpt>
      <trkpt lat="47.26924" lon="-1.54918">
        <ele>80</ele>
        <time>2022-04-10T08:12:06Z</time>
      </trkpt>
      <trkpt lat="47.26925" lon="-1.54916">
        <ele>80</ele>
        <time>2022-04-10T08:12:07Z</time>
      </trkpt>
      <trkpt lat="47.26925" lon="-1.54914">
        <ele>79</ele>
        <time>2022-04-10T08:12:08Z</time>
      </trkpt>
      <trkpt lat="47.26925" lon="-1.54912">
        <ele>79</ele>
        <time>2022-04-10T08:12:09Z</time>
      </trkpt>
      <trkpt lat="47.26924" lon="-1.54911">
        <ele>79</ele>
        <time>2022-04-10T08:12:10Z</time>
      </trkpt>
      <trkpt lat="47.26924" lon="-1.5491">
        <ele>79</ele>
        <time>2022-04-10T08:12:11Z</time>
      </trkpt>
      <trkpt lat="47.26923" lon="-1.54908">
        <ele>80</ele>
        <time>2022-04-10T08:12:12Z</time>
      </trkpt>
      <trkpt lat="47.26923" lon="-1.54907">
        <ele>80</ele>
        <time>2022-04-10T08:12:13Z</time>
      </trkpt>
      <trkpt lat="47.26923" lon="-1.54906">
        <ele>79</ele>
        <time>2022-04-10T08:12:14Z</time>
      </trkpt>
      <trkpt lat="47.26923" lon="-1.54905">
        <ele>79</ele>
        <time>2022-04-10T08:12:15Z</time>
      </trkpt>
      <trkpt lat="47.26922" lon="-1.54903">
        <ele>79</ele>
        <time>2022-04-10T08:12:16Z</time>
      </trkpt>
      <trkpt lat="47.26922" lon="-1.54902">
        <ele>79</ele>
        <time>2022-04-10T08:12:17Z</time>
      </trkpt>
      <trkpt lat="47.26922" lon="-1.549">
        <ele>80</ele>
        <time>2022-04-10T08:12:18Z</time>
      </trkpt>
      <trkpt lat="47.26922" lon="-1.54899">
        <ele>80</ele>
        <time>2022-04-10T08:12:19Z</time>
      </trkpt>
      <trkpt lat="47.26921" lon="-1.54898">
        <ele>80</ele>
        <time>2022-04-10T08:12:20Z</time>
      </trkpt>
      <trkpt lat="47.2692" lon="-1.54897">
        <ele>80</ele>
        <time>2022-04-10T08:12:21Z</time>
      </trkpt>
      <trkpt lat="47.2692" lon="-1.54896">
        <ele>80</ele>
        <time>2022-04-10T08:12:22Z</time>
      </trkpt>
      <trkpt lat="47.2692" lon="-1.54894">
        <ele>80</ele>
        <time>2022-04-10T08:12:23Z</time>
      </trkpt>
      <trkpt lat="47.2692" lon="-1.54893">
        <ele>80</ele>
        <time>2022-04-10T08:12:24Z</time>
      </trkpt>
      <trkpt lat="47.2692" lon="-1.54892">
        <ele>80</ele>
        <time>2022-04-10T08:12:25Z</time>
      </trkpt>
      <trkpt lat="47.2692" lon="-1.5489">
        <ele>80</ele>
        <time>2022-04-10T08:12:26Z</time>
      </trkpt>
      <trkpt lat="47.26919" lon="-1.54889">
        <ele>80</ele>
        <time>2022-04-10T08:12:27Z</time>
      </trkpt>
      <trkpt lat="47.26919" lon="-1.54888">
        <ele>80</ele>
        <time>2022-04-10T08:12:28Z</time>
      </trkpt>
      <trkpt lat="47.26919" lon="-1.54887">
        <ele>79</ele>
        <time>2022-04-10T08:12:29Z</time>
      </trkpt>
      <trkpt lat="47.26918" lon="-1.54885">
        <ele>79</ele>
        <time>2022-04-10T08:12:30Z</time>
      </trkpt>
      <trkpt lat="47.26918" lon="-1.54884">
        <ele>79</ele>
        <time>2022-04-10T08:12:31Z</time>
      </trkpt>
      <trkpt lat="47.26918" lon="-1.54883">
        <ele>80</ele>
        <time>2022-04-10T08:12:32Z</time>
      </trkpt>
      <trkpt lat="47.26918" lon="-1.54882">
        <ele>80</ele>
        <time>2022-04-10T08:12:33Z</time>
      </trkpt>
      <trkpt lat="47.26917" lon="-1.5488">
        <ele>80</ele>
        <time>2022-04-10T08:12:34Z</time>
      </trkpt>
      <trkpt lat="47.26917" lon="-1.54879">
        <ele>80</ele>
        <time>2022-04-10T08:12:35Z</time>
      </trkpt>
      <trkpt lat="47.26917" lon="-1.54877">
        <ele>79</ele>
        <time>2022-04-10T08:12:36Z</time>
      </trkpt>
      <trkpt lat="47.26916" lon="-1.54875">
        <ele>79</ele>
        <time>2022-04-10T08:12:37Z</time>
      </trkpt>
      <trkpt lat="47.26916" lon="-1.54874">
        <ele>79</ele>
        <time>2022-04-10T08:12:38Z</time>
      </trkpt>
      <trkpt lat="47.26916" lon="-1.54873">
        <ele>79</ele>
        <time>2022-04-10T08:12:39Z</time>
      </trkpt>
      <trkpt lat="47.26916" lon="-1.54872">
        <ele>79</ele>
        <time>2022-04-10T08:12:40Z</time>
      </trkpt>
      <trkpt lat="47.26915" lon="-1.54871">
        <ele>79</ele>
        <time>2022-04-10T08:12:41Z</time>
      </trkpt>
      <trkpt lat="47.26915" lon="-1.5487">
        <ele>79</ele>
        <time>2022-04-10T08:12:42Z</time>
      </trkpt>
      <trkpt lat="47.26915" lon="-1.54869">
        <ele>79</ele>
        <time>2022-04-10T08:12:43Z</time>
      </trkpt>
      <trkpt lat="47.26915" lon="-1.54869">
        <ele>78</ele>
        <time>2022-04-10T08:12:44Z</time>
      </trkpt>
      <trkpt lat="47.26915" lon="-1.54869">
        <ele>78</ele>
        <time>2022-04-10T08:12:45Z</time>
      </trkpt>
      <trkpt lat="47.26915" lon="-1.54869">
        <ele>78</ele>
        <time>2022-04-10T08:12:46Z</time>
      </trkpt>
      <trkpt lat="47.26915" lon="-1.54865">
        <ele>79</ele>
        <time>2022-04-10T08:12:47Z</time>
      </trkpt>
      <trkpt lat="47.26915" lon="-1.54863">
        <ele>78</ele>
        <time>2022-04-10T08:12:48Z</time>
      </trkpt>
      <trkpt lat="47.26915" lon="-1.54862">
        <ele>78</ele>
        <time>2022-04-10T08:12:49Z</time>
      </trkpt>
      <trkpt lat="47.26914" lon="-1.54861">
        <ele>79</ele>
        <time>2022-04-10T08:12:50Z</time>
      </trkpt>
      <trkpt lat="47.26914" lon="-1.5486">
        <ele>79</ele>
        <time>2022-04-10T08:12:51Z</time>
      </trkpt>
      <trkpt lat="47.26914" lon="-1.54859">
        <ele>79</ele>
        <time>2022-04-10T08:12:52Z</time>
      </trkpt>
      <trkpt lat="47.26914" lon="-1.54857">
        <ele>79</ele>
        <time>2022-04-10T08:12:53Z</time>
      </trkpt>
      <trkpt lat="47.26913" lon="-1.54856">
        <ele>79</ele>
        <time>2022-04-10T08:12:54Z</time>
      </trkpt>
      <trkpt lat="47.26913" lon="-1.54854">
        <ele>79</ele>
        <time>2022-04-10T08:12:55Z</time>
      </trkpt>
      <trkpt lat="47.26913" lon="-1.54853">
        <ele>79</ele>
        <time>2022-04-10T08:12:56Z</time>
      </trkpt>
      <trkpt lat="47.26912" lon="-1.54851">
        <ele>79</ele>
        <time>2022-04-10T08:12:57Z</time>
      </trkpt>
      <trkpt lat="47.26912" lon="-1.54849">
        <ele>79</ele>
        <time>2022-04-10T08:12:58Z</time>
      </trkpt>
      <trkpt lat="47.26912" lon="-1.54847">
        <ele>79</ele>
        <time>2022-04-10T08:12:59Z</time>
      </trkpt>
      <trkpt lat="47.26912" lon="-1.54846">
        <ele>79</ele>
        <time>2022-04-10T08:13:00Z</time>
      </trkpt>
      <trkpt lat="47.26912" lon="-1.54845">
        <ele>79</ele>
        <time>2022-04-10T08:13:01Z</time>
      </trkpt>
      <trkpt lat="47.26911" lon="-1.54843">
        <ele>79</ele>
        <time>2022-04-10T08:13:02Z</time>
      </trkpt>
      <trkpt lat="47.26911" lon="-1.54841">
        <ele>79</ele>
        <time>2022-04-10T08:13:03Z</time>
      </trkpt>
      <trkpt lat="47.2691" lon="-1.5484">
        <ele>79</ele>
        <time>2022-04-10T08:13:04Z</time>
      </trkpt>
      <trkpt lat="47.2691" lon="-1.54838">
        <ele>79</ele>
        <time>2022-04-10T08:13:05Z</time>
      </trkpt>
      <trkpt lat="47.26909" lon="-1.54837">
        <ele>79</ele>
        <time>2022-04-10T08:13:06Z</time>
      </trkpt>
      <trkpt lat="47.26909" lon="-1.54835">
        <ele>79</ele>
        <time>2022-04-10T08:13:07Z</time>
      </trkpt>
      <trkpt lat="47.26909" lon="-1.54834">
        <ele>79</ele>
        <time>2022-04-10T08:13:08Z</time>
      </trkpt>
      <trkpt lat="47.26908" lon="-1.54832">
        <ele>80</ele>
        <time>2022-04-10T08:13:09Z</time>
      </trkpt>
      <trkpt lat="47.26908" lon="-1.54831">
        <ele>80</ele>
        <time>2022-04-10T08:13:10Z</time>
      </trkpt>
      <trkpt lat="47.26907" lon="-1.5483">
        <ele>80</ele>
        <time>2022-04-10T08:13:11Z</time>
      </trkpt>
      <trkpt lat="47.26907" lon="-1.54828">
        <ele>80</ele>
        <time>2022-04-10T08:13:12Z</time>
      </trkpt>
      <trkpt lat="47.26907" lon="-1.54826">
        <ele>80</ele>
        <time>2022-04-10T08:13:13Z</time>
      </trkpt>
      <trkpt lat="47.26906" lon="-1.54825">
        <ele>80</ele>
        <time>2022-04-10T08:13:14Z</time>
      </trkpt>
      <trkpt lat="47.26906" lon="-1.54823">
        <ele>80</ele>
        <time>2022-04-10T08:13:15Z</time>
      </trkpt>
      <trkpt lat="47.26906" lon="-1.54822">
        <ele>81</ele>
        <time>2022-04-10T08:13:16Z</time>
      </trkpt>
      <trkpt lat="47.26905" lon="-1.54821">
        <ele>80</ele>
        <time>2022-04-10T08:13:17Z</time>
      </trkpt>
      <trkpt lat="47.26905" lon="-1.5482">
        <ele>80</ele>
        <time>2022-04-10T08:13:18Z</time>
      </trkpt>
      <trkpt lat="47.26905" lon="-1.54818">
        <ele>80</ele>
        <time>2022-04-10T08:13:19Z</time>
      </trkpt>
      <trkpt lat="47.26904" lon="-1.54817">
        <ele>80</ele>
        <time>2022-04-10T08:13:20Z</time>
      </trkpt>
      <trkpt lat="47.26904" lon="-1.54815">
        <ele>80</ele>
        <time>2022-04-10T08:13:21Z</time>
      </trkpt>
      <trkpt lat="47.26904" lon="-1.54813">
        <ele>79</ele>
        <time>2022-04-10T08:13:22Z</time>
      </trkpt>
      <trkpt lat="47.26904" lon="-1.54812">
        <ele>79</ele>
        <time>2022-04-10T08:13:23Z</time>
      </trkpt>
      <trkpt lat="47.26903" lon="-1.5481">
        <ele>79</ele>
        <time>2022-04-10T08:13:24Z</time>
      </trkpt>
      <trkpt lat="47.26903" lon="-1.54809">
        <ele>79</ele>
        <time>2022-04-10T08:13:25Z</time>
      </trkpt>
      <trkpt lat="47.26903" lon="-1.54808">
        <ele>80</ele>
        <time>2022-04-10T08:13:26Z</time>
      </trkpt>
      <trkpt lat="47.26902" lon="-1.54806">
        <ele>80</ele>
        <time>2022-04-10T08:13:27Z</time>
      </trkpt>
      <trkpt lat="47.26902" lon="-1.54805">
        <ele>80</ele>
        <time>2022-04-10T08:13:28Z</time>
      </trkpt>
      <trkpt lat="47.26902" lon="-1.54804">
        <ele>80</ele>
        <time>2022-04-10T08:13:29Z</time>
      </trkpt>
      <trkpt lat="47.26901" lon="-1.54803">
        <ele>80</ele>
        <time>2022-04-10T08:13:30Z</time>
      </trkpt>
      <trkpt lat="47.26901" lon="-1.54803">
        <ele>80</ele>
        <time>2022-04-10T08:13:31Z</time>
      </trkpt>
      <trkpt lat="47.26901" lon="-1.54801">
        <ele>80</ele>
        <time>2022-04-10T08:13:32Z</time>
      </trkpt>
      <trkpt lat="47.26901" lon="-1.548">
        <ele>80</ele>
        <time>2022-04-10T08:13:33Z</time>
      </trkpt>
      <trkpt lat="47.26901" lon="-1.54799">
        <ele>80</ele>
        <time>2022-04-10T08:13:34Z</time>
      </trkpt>
      <trkpt lat="47.269" lon="-1.54797">
        <ele>80</ele>
        <time>2022-04-10T08:13:35Z</time>
      </trkpt>
      <trkpt lat="47.26899" lon="-1.54796">
        <ele>81</ele>
        <time>2022-04-10T08:13:36Z</time>
      </trkpt>
      <trkpt lat="47.26899" lon="-1.54795">
        <ele>81</ele>
        <time>2022-04-10T08:13:37Z</time>
      </trkpt>
      <trkpt lat="47.26899" lon="-1.54793">
        <ele>82</ele>
        <time>2022-04-10T08:13:38Z</time>
      </trkpt>
      <trkpt lat="47.26898" lon="-1.54792">
        <ele>82</ele>
        <time>2022-04-10T08:13:39Z</time>
      </trkpt>
      <trkpt lat="47.26897" lon="-1.54791">
        <ele>82</ele>
        <time>2022-04-10T08:13:40Z</time>
      </trkpt>
      <trkpt lat="47.26897" lon="-1.54789">
        <ele>82</ele>
        <time>2022-04-10T08:13:41Z</time>
      </trkpt>
      <trkpt lat="47.26896" lon="-1.54787">
        <ele>82</ele>
        <time>2022-04-10T08:13:42Z</time>
      </trkpt>
      <trkpt lat="47.26896" lon="-1.54786">
        <ele>82</ele>
        <time>2022-04-10T08:13:43Z</time>
      </trkpt>
      <trkpt lat="47.26896" lon="-1.54785">
        <ele>82</ele>
        <time>2022-04-10T08:13:44Z</time>
      </trkpt>
      <trkpt lat="47.26896" lon="-1.54784">
        <ele>82</ele>
        <time>2022-04-10T08:13:45Z</time>
      </trkpt>
      <trkpt lat="47.26896" lon="-1.54783">
        <ele>82</ele>
        <time>2022-04-10T08:13:46Z</time>
      </trkpt>
      <trkpt lat="47.26895" lon="-1.54782">
        <ele>82</ele>
        <time>2022-04-10T08:13:47Z</time>
      </trkpt>
      <trkpt lat="47.26894" lon="-1.5478">
        <ele>82</ele>
        <time>2022-04-10T08:13:48Z</time>
      </trkpt>
      <trkpt lat="47.26894" lon="-1.54779">
        <ele>82</ele>
        <time>2022-04-10T08:13:49Z</time>
      </trkpt>
      <trkpt lat="47.26894" lon="-1.54777">
        <ele>82</ele>
        <time>2022-04-10T08:13:50Z</time>
      </trkpt>
      <trkpt lat="47.26894" lon="-1.54776">
        <ele>82</ele>
        <time>2022-04-10T08:13:51Z</time>
      </trkpt>
      <trkpt lat="47.26893" lon="-1.54774">
        <ele>82</ele>
        <time>2022-04-10T08:13:52Z</time>
      </trkpt>
      <trkpt lat="47.26893" lon="-1.54772">
        <ele>83</ele>
        <time>2022-04-10T08:13:53Z</time>
      </trkpt>
      <trkpt lat="47.26893" lon="-1.54771">
        <ele>83</ele>
        <time>2022-04-10T08:13:54Z</time>
      </trkpt>
      <trkpt lat="47.26892" lon="-1.54769">
        <ele>83</ele>
        <time>2022-04-10T08:13:55Z</time>
      </trkpt>
      <trkpt lat="47.26892" lon="-1.54768">
        <ele>83</ele>
        <time>2022-04-10T08:13:56Z</time>
      </trkpt>
      <trkpt lat="47.26891" lon="-1.54766">
        <ele>84</ele>
        <time>2022-04-10T08:13:57Z</time>
      </trkpt>
      <trkpt lat="47.26891" lon="-1.54764">
        <ele>84</ele>
        <time>2022-04-10T08:13:58Z</time>
      </trkpt>
      <trkpt lat="47.26891" lon="-1.54763">
        <ele>84</ele>
        <time>2022-04-10T08:13:59Z</time>
      </trkpt>
      <trkpt lat="47.26891" lon="-1.54762">
        <ele>84</ele>
        <time>2022-04-10T08:14:00Z</time>
      </trkpt>
      <trkpt lat="47.2689" lon="-1.54761">
        <ele>84</ele>
        <time>2022-04-10T08:14:01Z</time>
      </trkpt>
      <trkpt lat="47.2689" lon="-1.54759">
        <ele>84</ele>
        <time>2022-04-10T08:14:02Z</time>
      </trkpt>
      <trkpt lat="47.2689" lon="-1.54758">
        <ele>84</ele>
        <time>2022-04-10T08:14:03Z</time>
      </trkpt>
      <trkpt lat="47.26889" lon="-1.54757">
        <ele>84</ele>
        <time>2022-04-10T08:14:04Z</time>
      </trkpt>
      <trkpt lat="47.26889" lon="-1.54756">
        <ele>83</ele>
        <time>2022-04-10T08:14:05Z</time>
      </trkpt>
      <trkpt lat="47.26889" lon="-1.54755">
        <ele>83</ele>
        <time>2022-04-10T08:14:06Z</time>
      </trkpt>
      <trkpt lat="47.26888" lon="-1.54753">
        <ele>83</ele>
        <time>2022-04-10T08:14:07Z</time>
      </trkpt>
      <trkpt lat="47.26888" lon="-1.54752">
        <ele>83</ele>
        <time>2022-04-10T08:14:08Z</time>
      </trkpt>
      <trkpt lat="47.26888" lon="-1.5475">
        <ele>82</ele>
        <time>2022-04-10T08:14:09Z</time>
      </trkpt>
      <trkpt lat="47.26888" lon="-1.5475">
        <ele>82</ele>
        <time>2022-04-10T08:14:10Z</time>
      </trkpt>
      <trkpt lat="47.26887" lon="-1.54749">
        <ele>82</ele>
        <time>2022-04-10T08:14:11Z</time>
      </trkpt>
      <trkpt lat="47.26887" lon="-1.54747">
        <ele>81</ele>
        <time>2022-04-10T08:14:12Z</time>
      </trkpt>
      <trkpt lat="47.26886" lon="-1.54746">
        <ele>81</ele>
        <time>2022-04-10T08:14:13Z</time>
      </trkpt>
      <trkpt lat="47.26885" lon="-1.54744">
        <ele>82</ele>
        <time>2022-04-10T08:14:14Z</time>
      </trkpt>
      <trkpt lat="47.26885" lon="-1.54744">
        <ele>82</ele>
        <time>2022-04-10T08:14:15Z</time>
      </trkpt>
      <trkpt lat="47.26885" lon="-1.54742">
        <ele>82</ele>
        <time>2022-04-10T08:14:16Z</time>
      </trkpt>
      <trkpt lat="47.26885" lon="-1.5474">
        <ele>82</ele>
        <time>2022-04-10T08:14:17Z</time>
      </trkpt>
      <trkpt lat="47.26885" lon="-1.54739">
        <ele>82</ele>
        <time>2022-04-10T08:14:18Z</time>
      </trkpt>
      <trkpt lat="47.26885" lon="-1.54737">
        <ele>83</ele>
        <time>2022-04-10T08:14:19Z</time>
      </trkpt>
      <trkpt lat="47.26885" lon="-1.54735">
        <ele>82</ele>
        <time>2022-04-10T08:14:20Z</time>
      </trkpt>
      <trkpt lat="47.26884" lon="-1.54733">
        <ele>82</ele>
        <time>2022-04-10T08:14:21Z</time>
      </trkpt>
      <trkpt lat="47.26884" lon="-1.54731">
        <ele>81</ele>
        <time>2022-04-10T08:14:22Z</time>
      </trkpt>
      <trkpt lat="47.26885" lon="-1.5473">
        <ele>81</ele>
        <time>2022-04-10T08:14:23Z</time>
      </trkpt>
      <trkpt lat="47.26884" lon="-1.54729">
        <ele>82</ele>
        <time>2022-04-10T08:14:24Z</time>
      </trkpt>
      <trkpt lat="47.26884" lon="-1.54728">
        <ele>82</ele>
        <time>2022-04-10T08:14:25Z</time>
      </trkpt>
      <trkpt lat="47.26884" lon="-1.54726">
        <ele>83</ele>
        <time>2022-04-10T08:14:26Z</time>
      </trkpt>
      <trkpt lat="47.26884" lon="-1.54725">
        <ele>83</ele>
        <time>2022-04-10T08:14:27Z</time>
      </trkpt>
      <trkpt lat="47.26883" lon="-1.54725">
        <ele>83</ele>
        <time>2022-04-10T08:14:28Z</time>
      </trkpt>
      <trkpt lat="47.26883" lon="-1.54724">
        <ele>83</ele>
        <time>2022-04-10T08:14:29Z</time>
      </trkpt>
      <trkpt lat="47.26883" lon="-1.54722">
        <ele>83</ele>
        <time>2022-04-10T08:14:30Z</time>
      </trkpt>
      <trkpt lat="47.26882" lon="-1.5472">
        <ele>84</ele>
        <time>2022-04-10T08:14:31Z</time>
      </trkpt>
      <trkpt lat="47.26882" lon="-1.54719">
        <ele>84</ele>
        <time>2022-04-10T08:14:32Z</time>
      </trkpt>
      <trkpt lat="47.26881" lon="-1.54718">
        <ele>84</ele>
        <time>2022-04-10T08:14:33Z</time>
      </trkpt>
      <trkpt lat="47.26881" lon="-1.54717">
        <ele>84</ele>
        <time>2022-04-10T08:14:34Z</time>
      </trkpt>
      <trkpt lat="47.26881" lon="-1.54716">
        <ele>85</ele>
        <time>2022-04-10T08:14:35Z</time>
      </trkpt>
      <trkpt lat="47.2688" lon="-1.54714">
        <ele>85</ele>
        <time>2022-04-10T08:14:36Z</time>
      </trkpt>
      <trkpt lat="47.2688" lon="-1.54713">
        <ele>86</ele>
        <time>2022-04-10T08:14:37Z</time>
      </trkpt>
      <trkpt lat="47.26879" lon="-1.54712">
        <ele>86</ele>
        <time>2022-04-10T08:14:38Z</time>
      </trkpt>
      <trkpt lat="47.26879" lon="-1.54711">
        <ele>86</ele>
        <time>2022-04-10T08:14:39Z</time>
      </trkpt>
      <trkpt lat="47.26878" lon="-1.5471">
        <ele>86</ele>
        <time>2022-04-10T08:14:40Z</time>
      </trkpt>
      <trkpt lat="47.26878" lon="-1.54708">
        <ele>86</ele>
        <time>2022-04-10T08:14:41Z</time>
      </trkpt>
      <trkpt lat="47.26877" lon="-1.54707">
        <ele>85</ele>
        <time>2022-04-10T08:14:42Z</time>
      </trkpt>
      <trkpt lat="47.26877" lon="-1.54705">
        <ele>85</ele>
        <time>2022-04-10T08:14:43Z</time>
      </trkpt>
      <trkpt lat="47.26876" lon="-1.54703">
        <ele>86</ele>
        <time>2022-04-10T08:14:44Z</time>
      </trkpt>
      <trkpt lat="47.26876" lon="-1.54703">
        <ele>86</ele>
        <time>2022-04-10T08:14:45Z</time>
      </trkpt>
      <trkpt lat="47.26876" lon="-1.54703">
        <ele>86</ele>
        <time>2022-04-10T08:14:46Z</time>
      </trkpt>
      <trkpt lat="47.26876" lon="-1.547">
        <ele>87</ele>
        <time>2022-04-10T08:14:47Z</time>
      </trkpt>
      <trkpt lat="47.26875" lon="-1.54698">
        <ele>87</ele>
        <time>2022-04-10T08:14:48Z</time>
      </trkpt>
      <trkpt lat="47.26875" lon="-1.54697">
        <ele>87</ele>
        <time>2022-04-10T08:14:49Z</time>
      </trkpt>
      <trkpt lat="47.26875" lon="-1.54695">
        <ele>87</ele>
        <time>2022-04-10T08:14:50Z</time>
      </trkpt>
      <trkpt lat="47.26874" lon="-1.54694">
        <ele>87</ele>
        <time>2022-04-10T08:14:51Z</time>
      </trkpt>
      <trkpt lat="47.26874" lon="-1.54693">
        <ele>87</ele>
        <time>2022-04-10T08:14:52Z</time>
      </trkpt>
      <trkpt lat="47.26873" lon="-1.54692">
        <ele>87</ele>
        <time>2022-04-10T08:14:53Z</time>
      </trkpt>
      <trkpt lat="47.26873" lon="-1.54691">
        <ele>86</ele>
        <time>2022-04-10T08:14:54Z</time>
      </trkpt>
      <trkpt lat="47.26873" lon="-1.54689">
        <ele>85</ele>
        <time>2022-04-10T08:14:55Z</time>
      </trkpt>
      <trkpt lat="47.26873" lon="-1.54689">
        <ele>85</ele>
        <time>2022-04-10T08:14:56Z</time>
      </trkpt>
      <trkpt lat="47.26873" lon="-1.54689">
        <ele>85</ele>
        <time>2022-04-10T08:14:57Z</time>
      </trkpt>
      <trkpt lat="47.26873" lon="-1.54685">
        <ele>84</ele>
        <time>2022-04-10T08:14:58Z</time>
      </trkpt>
      <trkpt lat="47.26873" lon="-1.54684">
        <ele>85</ele>
        <time>2022-04-10T08:14:59Z</time>
      </trkpt>
      <trkpt lat="47.26873" lon="-1.54682">
        <ele>85</ele>
        <time>2022-04-10T08:15:00Z</time>
      </trkpt>
      <trkpt lat="47.26873" lon="-1.54681">
        <ele>85</ele>
        <time>2022-04-10T08:15:01Z</time>
      </trkpt>
      <trkpt lat="47.26872" lon="-1.5468">
        <ele>85</ele>
        <time>2022-04-10T08:15:02Z</time>
      </trkpt>
      <trkpt lat="47.26872" lon="-1.54679">
        <ele>85</ele>
        <time>2022-04-10T08:15:03Z</time>
      </trkpt>
      <trkpt lat="47.26871" lon="-1.54678">
        <ele>86</ele>
        <time>2022-04-10T08:15:04Z</time>
      </trkpt>
      <trkpt lat="47.2687" lon="-1.54678">
        <ele>86</ele>
        <time>2022-04-10T08:15:05Z</time>
      </trkpt>
      <trkpt lat="47.26869" lon="-1.54677">
        <ele>87</ele>
        <time>2022-04-10T08:15:06Z</time>
      </trkpt>
      <trkpt lat="47.26868" lon="-1.54676">
        <ele>87</ele>
        <time>2022-04-10T08:15:07Z</time>
      </trkpt>
      <trkpt lat="47.26868" lon="-1.54676">
        <ele>87</ele>
        <time>2022-04-10T08:15:08Z</time>
      </trkpt>
      <trkpt lat="47.26867" lon="-1.54675">
        <ele>86</ele>
        <time>2022-04-10T08:15:09Z</time>
      </trkpt>
      <trkpt lat="47.26867" lon="-1.54674">
        <ele>86</ele>
        <time>2022-04-10T08:15:10Z</time>
      </trkpt>
      <trkpt lat="47.26866" lon="-1.54673">
        <ele>87</ele>
        <time>2022-04-10T08:15:11Z</time>
      </trkpt>
      <trkpt lat="47.26866" lon="-1.54672">
        <ele>87</ele>
        <time>2022-04-10T08:15:12Z</time>
      </trkpt>
      <trkpt lat="47.26865" lon="-1.5467">
        <ele>87</ele>
        <time>2022-04-10T08:15:13Z</time>
      </trkpt>
      <trkpt lat="47.26864" lon="-1.54669">
        <ele>86</ele>
        <time>2022-04-10T08:15:14Z</time>
      </trkpt>
      <trkpt lat="47.26864" lon="-1.54668">
        <ele>86</ele>
        <time>2022-04-10T08:15:15Z</time>
      </trkpt>
      <trkpt lat="47.26863" lon="-1.54667">
        <ele>85</ele>
        <time>2022-04-10T08:15:16Z</time>
      </trkpt>
      <trkpt lat="47.26862" lon="-1.54665">
        <ele>85</ele>
        <time>2022-04-10T08:15:17Z</time>
      </trkpt>
      <trkpt lat="47.26862" lon="-1.54664">
        <ele>84</ele>
        <time>2022-04-10T08:15:18Z</time>
      </trkpt>
      <trkpt lat="47.26861" lon="-1.54662">
        <ele>84</ele>
        <time>2022-04-10T08:15:19Z</time>
      </trkpt>
      <trkpt lat="47.2686" lon="-1.5466">
        <ele>84</ele>
        <time>2022-04-10T08:15:20Z</time>
      </trkpt>
      <trkpt lat="47.2686" lon="-1.54658">
        <ele>84</ele>
        <time>2022-04-10T08:15:21Z</time>
      </trkpt>
      <trkpt lat="47.26859" lon="-1.54657">
        <ele>83</ele>
        <time>2022-04-10T08:15:22Z</time>
      </trkpt>
      <trkpt lat="47.26858" lon="-1.54656">
        <ele>83</ele>
        <time>2022-04-10T08:15:23Z</time>
      </trkpt>
      <trkpt lat="47.26857" lon="-1.54655">
        <ele>83</ele>
        <time>2022-04-10T08:15:24Z</time>
      </trkpt>
      <trkpt lat="47.26856" lon="-1.54653">
        <ele>83</ele>
        <time>2022-04-10T08:15:25Z</time>
      </trkpt>
      <trkpt lat="47.26855" lon="-1.54651">
        <ele>84</ele>
        <time>2022-04-10T08:15:26Z</time>
      </trkpt>
      <trkpt lat="47.26855" lon="-1.5465">
        <ele>84</ele>
        <time>2022-04-10T08:15:27Z</time>
      </trkpt>
      <trkpt lat="47.26855" lon="-1.54648">
        <ele>85</ele>
        <time>2022-04-10T08:15:28Z</time>
      </trkpt>
      <trkpt lat="47.26855" lon="-1.54647">
        <ele>85</ele>
        <time>2022-04-10T08:15:29Z</time>
      </trkpt>
      <trkpt lat="47.26856" lon="-1.54645">
        <ele>85</ele>
        <time>2022-04-10T08:15:30Z</time>
      </trkpt>
      <trkpt lat="47.26856" lon="-1.54644">
        <ele>85</ele>
        <time>2022-04-10T08:15:31Z</time>
      </trkpt>
      <trkpt lat="47.26856" lon="-1.54643">
        <ele>85</ele>
        <time>2022-04-10T08:15:32Z</time>
      </trkpt>
      <trkpt lat="47.26856" lon="-1.54641">
        <ele>86</ele>
        <time>2022-04-10T08:15:33Z</time>
      </trkpt>
      <trkpt lat="47.26857" lon="-1.5464">
        <ele>86</ele>
        <time>2022-04-10T08:15:34Z</time>
      </trkpt>
      <trkpt lat="47.26857" lon="-1.54639">
        <ele>86</ele>
        <time>2022-04-10T08:15:35Z</time>
      </trkpt>
      <trkpt lat="47.26857" lon="-1.54639">
        <ele>85</ele>
        <time>2022-04-10T08:15:36Z</time>
      </trkpt>
      <trkpt lat="47.26858" lon="-1.54638">
        <ele>85</ele>
        <time>2022-04-10T08:15:37Z</time>
      </trkpt>
      <trkpt lat="47.26859" lon="-1.54637">
        <ele>85</ele>
        <time>2022-04-10T08:15:38Z</time>
      </trkpt>
      <trkpt lat="47.26859" lon="-1.54636">
        <ele>86</ele>
        <time>2022-04-10T08:15:39Z</time>
      </trkpt>
      <trkpt lat="47.26859" lon="-1.54635">
        <ele>86</ele>
        <time>2022-04-10T08:15:40Z</time>
      </trkpt>
      <trkpt lat="47.26859" lon="-1.54634">
        <ele>87</ele>
        <time>2022-04-10T08:15:41Z</time>
      </trkpt>
      <trkpt lat="47.26859" lon="-1.54633">
        <ele>87</ele>
        <time>2022-04-10T08:15:42Z</time>
      </trkpt>
      <trkpt lat="47.2686" lon="-1.54632">
        <ele>88</ele>
        <time>2022-04-10T08:15:43Z</time>
      </trkpt>
      <trkpt lat="47.2686" lon="-1.5463">
        <ele>88</ele>
        <time>2022-04-10T08:15:44Z</time>
      </trkpt>
      <trkpt lat="47.26861" lon="-1.54629">
        <ele>88</ele>
        <time>2022-04-10T08:15:45Z</time>
      </trkpt>
      <trkpt lat="47.26861" lon="-1.54627">
        <ele>87</ele>
        <time>2022-04-10T08:15:46Z</time>
      </trkpt>
      <trkpt lat="47.26861" lon="-1.54625">
        <ele>87</ele>
        <time>2022-04-10T08:15:47Z</time>
      </trkpt>
      <trkpt lat="47.26861" lon="-1.54624">
        <ele>88</ele>
        <time>2022-04-10T08:15:48Z</time>
      </trkpt>
      <trkpt lat="47.26862" lon="-1.54623">
        <ele>87</ele>
        <time>2022-04-10T08:15:49Z</time>
      </trkpt>
      <trkpt lat="47.26862" lon="-1.54621">
        <ele>87</ele>
        <time>2022-04-10T08:15:50Z</time>
      </trkpt>
      <trkpt lat="47.26863" lon="-1.5462">
        <ele>86</ele>
        <time>2022-04-10T08:15:51Z</time>
      </trkpt>
      <trkpt lat="47.26863" lon="-1.54619">
        <ele>86</ele>
        <time>2022-04-10T08:15:52Z</time>
      </trkpt>
      <trkpt lat="47.26864" lon="-1.54618">
        <ele>86</ele>
        <time>2022-04-10T08:15:53Z</time>
      </trkpt>
      <trkpt lat="47.26864" lon="-1.54616">
        <ele>86</ele>
        <time>2022-04-10T08:15:54Z</time>
      </trkpt>
      <trkpt lat="47.26864" lon="-1.54615">
        <ele>84</ele>
        <time>2022-04-10T08:15:55Z</time>
      </trkpt>
      <trkpt lat="47.26865" lon="-1.54614">
        <ele>84</ele>
        <time>2022-04-10T08:15:56Z</time>
      </trkpt>
      <trkpt lat="47.26865" lon="-1.54614">
        <ele>84</ele>
        <time>2022-04-10T08:15:57Z</time>
      </trkpt>
      <trkpt lat="47.26865" lon="-1.54614">
        <ele>84</ele>
        <time>2022-04-10T08:15:57Z</time>
      </trkpt>
      <trkpt lat="47.26867" lon="-1.54607">
        <ele>86</ele>
        <time>2022-04-10T08:16:17Z</time>
      </trkpt>
      <trkpt lat="47.26868" lon="-1.54605">
        <ele>86</ele>
        <time>2022-04-10T08:16:18Z</time>
      </trkpt>
      <trkpt lat="47.26868" lon="-1.54604">
        <ele>86</ele>
        <time>2022-04-10T08:16:19Z</time>
      </trkpt>
      <trkpt lat="47.26869" lon="-1.54603">
        <ele>87</ele>
        <time>2022-04-10T08:16:20Z</time>
      </trkpt>
      <trkpt lat="47.2687" lon="-1.54602">
        <ele>87</ele>
        <time>2022-04-10T08:16:21Z</time>
      </trkpt>
      <trkpt lat="47.2687" lon="-1.54601">
        <ele>87</ele>
        <time>2022-04-10T08:16:22Z</time>
      </trkpt>
      <trkpt lat="47.2687" lon="-1.546">
        <ele>88</ele>
        <time>2022-04-10T08:16:23Z</time>
      </trkpt>
      <trkpt lat="47.2687" lon="-1.54598">
        <ele>88</ele>
        <time>2022-04-10T08:16:24Z</time>
      </trkpt>
      <trkpt lat="47.2687" lon="-1.54597">
        <ele>89</ele>
        <time>2022-04-10T08:16:25Z</time>
      </trkpt>
      <trkpt lat="47.26871" lon="-1.54596">
        <ele>89</ele>
        <time>2022-04-10T08:16:26Z</time>
      </trkpt>
      <trkpt lat="47.2687" lon="-1.54595">
        <ele>90</ele>
        <time>2022-04-10T08:16:27Z</time>
      </trkpt>
      <trkpt lat="47.2687" lon="-1.54594">
        <ele>91</ele>
        <time>2022-04-10T08:16:28Z</time>
      </trkpt>
      <trkpt lat="47.2687" lon="-1.54592">
        <ele>91</ele>
        <time>2022-04-10T08:16:29Z</time>
      </trkpt>
      <trkpt lat="47.2687" lon="-1.54591">
        <ele>92</ele>
        <time>2022-04-10T08:16:30Z</time>
      </trkpt>
      <trkpt lat="47.26871" lon="-1.5459">
        <ele>92</ele>
        <time>2022-04-10T08:16:31Z</time>
      </trkpt>
      <trkpt lat="47.26871" lon="-1.54589">
        <ele>92</ele>
        <time>2022-04-10T08:16:32Z</time>
      </trkpt>
      <trkpt lat="47.26871" lon="-1.54588">
        <ele>91</ele>
        <time>2022-04-10T08:16:33Z</time>
      </trkpt>
      <trkpt lat="47.26872" lon="-1.54586">
        <ele>91</ele>
        <time>2022-04-10T08:16:34Z</time>
      </trkpt>
      <trkpt lat="47.26872" lon="-1.54585">
        <ele>91</ele>
        <time>2022-04-10T08:16:35Z</time>
      </trkpt>
      <trkpt lat="47.26872" lon="-1.54584">
        <ele>91</ele>
        <time>2022-04-10T08:16:36Z</time>
      </trkpt>
      <trkpt lat="47.26872" lon="-1.54582">
        <ele>91</ele>
        <time>2022-04-10T08:16:37Z</time>
      </trkpt>
      <trkpt lat="47.26872" lon="-1.54581">
        <ele>91</ele>
        <time>2022-04-10T08:16:38Z</time>
      </trkpt>
      <trkpt lat="47.26872" lon="-1.54579">
        <ele>90</ele>
        <time>2022-04-10T08:16:39Z</time>
      </trkpt>
      <trkpt lat="47.26872" lon="-1.54578">
        <ele>89</ele>
        <time>2022-04-10T08:16:40Z</time>
      </trkpt>
      <trkpt lat="47.26872" lon="-1.54576">
        <ele>89</ele>
        <time>2022-04-10T08:16:41Z</time>
      </trkpt>
      <trkpt lat="47.26872" lon="-1.54575">
        <ele>88</ele>
        <time>2022-04-10T08:16:42Z</time>
      </trkpt>
      <trkpt lat="47.26871" lon="-1.54575">
        <ele>87</ele>
        <time>2022-04-10T08:16:43Z</time>
      </trkpt>
      <trkpt lat="47.2687" lon="-1.54574">
        <ele>86</ele>
        <time>2022-04-10T08:16:44Z</time>
      </trkpt>
      <trkpt lat="47.2687" lon="-1.54574">
        <ele>85</ele>
        <time>2022-04-10T08:16:45Z</time>
      </trkpt>
      <trkpt lat="47.26869" lon="-1.54574">
        <ele>85</ele>
        <time>2022-04-10T08:16:46Z</time>
      </trkpt>
      <trkpt lat="47.26868" lon="-1.54574">
        <ele>84</ele>
        <time>2022-04-10T08:16:47Z</time>
      </trkpt>
      <trkpt lat="47.26868" lon="-1.54573">
        <ele>84</ele>
        <time>2022-04-10T08:16:48Z</time>
      </trkpt>
      <trkpt lat="47.26867" lon="-1.54572">
        <ele>84</ele>
        <time>2022-04-10T08:16:49Z</time>
      </trkpt>
      <trkpt lat="47.26866" lon="-1.54571">
        <ele>83</ele>
        <time>2022-04-10T08:16:50Z</time>
      </trkpt>
      <trkpt lat="47.26865" lon="-1.5457">
        <ele>83</ele>
        <time>2022-04-10T08:16:51Z</time>
      </trkpt>
      <trkpt lat="47.26865" lon="-1.54569">
        <ele>82</ele>
        <time>2022-04-10T08:16:52Z</time>
      </trkpt>
      <trkpt lat="47.26864" lon="-1.54569">
        <ele>82</ele>
        <time>2022-04-10T08:16:53Z</time>
      </trkpt>
      <trkpt lat="47.26863" lon="-1.54568">
        <ele>82</ele>
        <time>2022-04-10T08:16:54Z</time>
      </trkpt>
      <trkpt lat="47.26862" lon="-1.54569">
        <ele>82</ele>
        <time>2022-04-10T08:16:55Z</time>
      </trkpt>
      <trkpt lat="47.26861" lon="-1.54569">
        <ele>82</ele>
        <time>2022-04-10T08:16:56Z</time>
      </trkpt>
      <trkpt lat="47.2686" lon="-1.54569">
        <ele>81</ele>
        <time>2022-04-10T08:16:57Z</time>
      </trkpt>
      <trkpt lat="47.26859" lon="-1.54568">
        <ele>81</ele>
        <time>2022-04-10T08:16:58Z</time>
      </trkpt>
      <trkpt lat="47.26857" lon="-1.54568">
        <ele>80</ele>
        <time>2022-04-10T08:16:59Z</time>
      </trkpt>
      <trkpt lat="47.26856" lon="-1.54568">
        <ele>80</ele>
        <time>2022-04-10T08:17:00Z</time>
      </trkpt>
      <trkpt lat="47.26854" lon="-1.54568">
        <ele>80</ele>
        <time>2022-04-10T08:17:01Z</time>
      </trkpt>
      <trkpt lat="47.26853" lon="-1.54568">
        <ele>79</ele>
        <time>2022-04-10T08:17:02Z</time>
      </trkpt>
      <trkpt lat="47.26852" lon="-1.54568">
        <ele>79</ele>
        <time>2022-04-10T08:17:03Z</time>
      </trkpt>
      <trkpt lat="47.26851" lon="-1.54568">
        <ele>79</ele>
        <time>2022-04-10T08:17:04Z</time>
      </trkpt>
      <trkpt lat="47.26849" lon="-1.54568">
        <ele>79</ele>
        <time>2022-04-10T08:17:05Z</time>
      </trkpt>
      <trkpt lat="47.26848" lon="-1.54568">
        <ele>79</ele>
        <time>2022-04-10T08:17:06Z</time>
      </trkpt>
      <trkpt lat="47.26846" lon="-1.54567">
        <ele>78</ele>
        <time>2022-04-10T08:17:07Z</time>
      </trkpt>
      <trkpt lat="47.26845" lon="-1.54568">
        <ele>78</ele>
        <time>2022-04-10T08:17:08Z</time>
      </trkpt>
      <trkpt lat="47.26843" lon="-1.54567">
        <ele>78</ele>
        <time>2022-04-10T08:17:09Z</time>
      </trkpt>
      <trkpt lat="47.26842" lon="-1.54567">
        <ele>78</ele>
        <time>2022-04-10T08:17:10Z</time>
      </trkpt>
      <trkpt lat="47.26841" lon="-1.54567">
        <ele>77</ele>
        <time>2022-04-10T08:17:11Z</time>
      </trkpt>
      <trkpt lat="47.26838" lon="-1.54567">
        <ele>77</ele>
        <time>2022-04-10T08:17:13Z</time>
      </trkpt>
      <trkpt lat="47.26837" lon="-1.54567">
        <ele>77</ele>
        <time>2022-04-10T08:17:14Z</time>
      </trkpt>
      <trkpt lat="47.26836" lon="-1.54567">
        <ele>78</ele>
        <time>2022-04-10T08:17:15Z</time>
      </trkpt>
      <trkpt lat="47.26835" lon="-1.54567">
        <ele>78</ele>
        <time>2022-04-10T08:17:16Z</time>
      </trkpt>
      <trkpt lat="47.26833" lon="-1.54566">
        <ele>78</ele>
        <time>2022-04-10T08:17:17Z</time>
      </trkpt>
      <trkpt lat="47.26832" lon="-1.54565">
        <ele>78</ele>
        <time>2022-04-10T08:17:18Z</time>
      </trkpt>
      <trkpt lat="47.26831" lon="-1.54565">
        <ele>78</ele>
        <time>2022-04-10T08:17:19Z</time>
      </trkpt>
      <trkpt lat="47.2683" lon="-1.54564">
        <ele>78</ele>
        <time>2022-04-10T08:17:20Z</time>
      </trkpt>
      <trkpt lat="47.26828" lon="-1.54563">
        <ele>78</ele>
        <time>2022-04-10T08:17:21Z</time>
      </trkpt>
      <trkpt lat="47.26827" lon="-1.54563">
        <ele>78</ele>
        <time>2022-04-10T08:17:22Z</time>
      </trkpt>
      <trkpt lat="47.26826" lon="-1.54562">
        <ele>77</ele>
        <time>2022-04-10T08:17:23Z</time>
      </trkpt>
      <trkpt lat="47.26825" lon="-1.54562">
        <ele>77</ele>
        <time>2022-04-10T08:17:24Z</time>
      </trkpt>
      <trkpt lat="47.26824" lon="-1.54562">
        <ele>77</ele>
        <time>2022-04-10T08:17:25Z</time>
      </trkpt>
      <trkpt lat="47.26823" lon="-1.54561">
        <ele>77</ele>
        <time>2022-04-10T08:17:26Z</time>
      </trkpt>
      <trkpt lat="47.26822" lon="-1.54561">
        <ele>77</ele>
        <time>2022-04-10T08:17:27Z</time>
      </trkpt>
      <trkpt lat="47.26821" lon="-1.5456">
        <ele>78</ele>
        <time>2022-04-10T08:17:28Z</time>
      </trkpt>
      <trkpt lat="47.2682" lon="-1.54559">
        <ele>78</ele>
        <time>2022-04-10T08:17:29Z</time>
      </trkpt>
      <trkpt lat="47.26819" lon="-1.54558">
        <ele>79</ele>
        <time>2022-04-10T08:17:30Z</time>
      </trkpt>
      <trkpt lat="47.26819" lon="-1.54557">
        <ele>79</ele>
        <time>2022-04-10T08:17:31Z</time>
      </trkpt>
      <trkpt lat="47.26818" lon="-1.54555">
        <ele>79</ele>
        <time>2022-04-10T08:17:32Z</time>
      </trkpt>
      <trkpt lat="47.26817" lon="-1.54554">
        <ele>80</ele>
        <time>2022-04-10T08:17:33Z</time>
      </trkpt>
      <trkpt lat="47.26816" lon="-1.54553">
        <ele>80</ele>
        <time>2022-04-10T08:17:34Z</time>
      </trkpt>
      <trkpt lat="47.26815" lon="-1.54552">
        <ele>80</ele>
        <time>2022-04-10T08:17:35Z</time>
      </trkpt>
      <trkpt lat="47.26814" lon="-1.54551">
        <ele>80</ele>
        <time>2022-04-10T08:17:36Z</time>
      </trkpt>
      <trkpt lat="47.26813" lon="-1.54549">
        <ele>79</ele>
        <time>2022-04-10T08:17:37Z</time>
      </trkpt>
      <trkpt lat="47.26812" lon="-1.54548">
        <ele>79</ele>
        <time>2022-04-10T08:17:38Z</time>
      </trkpt>
      <trkpt lat="47.26811" lon="-1.54548">
        <ele>79</ele>
        <time>2022-04-10T08:17:39Z</time>
      </trkpt>
      <trkpt lat="47.26809" lon="-1.54547">
        <ele>79</ele>
        <time>2022-04-10T08:17:40Z</time>
      </trkpt>
      <trkpt lat="47.26809" lon="-1.54547">
        <ele>79</ele>
        <time>2022-04-10T08:17:41Z</time>
      </trkpt>
      <trkpt lat="47.26808" lon="-1.54546">
        <ele>79</ele>
        <time>2022-04-10T08:17:42Z</time>
      </trkpt>
      <trkpt lat="47.26807" lon="-1.54545">
        <ele>80</ele>
        <time>2022-04-10T08:17:43Z</time>
      </trkpt>
      <trkpt lat="47.26806" lon="-1.54544">
        <ele>80</ele>
        <time>2022-04-10T08:17:44Z</time>
      </trkpt>
      <trkpt lat="47.26805" lon="-1.54543">
        <ele>80</ele>
        <time>2022-04-10T08:17:45Z</time>
      </trkpt>
      <trkpt lat="47.26804" lon="-1.54542">
        <ele>80</ele>
        <time>2022-04-10T08:17:46Z</time>
      </trkpt>
      <trkpt lat="47.26802" lon="-1.54541">
        <ele>80</ele>
        <time>2022-04-10T08:17:47Z</time>
      </trkpt>
      <trkpt lat="47.26802" lon="-1.54541">
        <ele>80</ele>
        <time>2022-04-10T08:17:48Z</time>
      </trkpt>
      <trkpt lat="47.26801" lon="-1.5454">
        <ele>80</ele>
        <time>2022-04-10T08:17:49Z</time>
      </trkpt>
      <trkpt lat="47.268" lon="-1.54539">
        <ele>81</ele>
        <time>2022-04-10T08:17:50Z</time>
      </trkpt>
      <trkpt lat="47.26799" lon="-1.54538">
        <ele>80</ele>
        <time>2022-04-10T08:17:51Z</time>
      </trkpt>
      <trkpt lat="47.26799" lon="-1.54537">
        <ele>80</ele>
        <time>2022-04-10T08:17:52Z</time>
      </trkpt>
      <trkpt lat="47.26798" lon="-1.54536">
        <ele>80</ele>
        <time>2022-04-10T08:17:53Z</time>
      </trkpt>
      <trkpt lat="47.26797" lon="-1.54535">
        <ele>80</ele>
        <time>2022-04-10T08:17:54Z</time>
      </trkpt>
      <trkpt lat="47.26797" lon="-1.54534">
        <ele>80</ele>
        <time>2022-04-10T08:17:55Z</time>
      </trkpt>
      <trkpt lat="47.26796" lon="-1.54534">
        <ele>80</ele>
        <time>2022-04-10T08:17:56Z</time>
      </trkpt>
      <trkpt lat="47.26795" lon="-1.54533">
        <ele>80</ele>
        <time>2022-04-10T08:17:57Z</time>
      </trkpt>
      <trkpt lat="47.26794" lon="-1.54532">
        <ele>81</ele>
        <time>2022-04-10T08:17:58Z</time>
      </trkpt>
      <trkpt lat="47.26794" lon="-1.54531">
        <ele>81</ele>
        <time>2022-04-10T08:17:59Z</time>
      </trkpt>
      <trkpt lat="47.26793" lon="-1.5453">
        <ele>80</ele>
        <time>2022-04-10T08:18:00Z</time>
      </trkpt>
      <trkpt lat="47.26793" lon="-1.54529">
        <ele>79</ele>
        <time>2022-04-10T08:18:01Z</time>
      </trkpt>
      <trkpt lat="47.26793" lon="-1.54528">
        <ele>79</ele>
        <time>2022-04-10T08:18:02Z</time>
      </trkpt>
      <trkpt lat="47.26792" lon="-1.54527">
        <ele>79</ele>
        <time>2022-04-10T08:18:03Z</time>
      </trkpt>
      <trkpt lat="47.26791" lon="-1.54527">
        <ele>78</ele>
        <time>2022-04-10T08:18:04Z</time>
      </trkpt>
      <trkpt lat="47.2679" lon="-1.54527">
        <ele>78</ele>
        <time>2022-04-10T08:18:05Z</time>
      </trkpt>
      <trkpt lat="47.2679" lon="-1.54525">
        <ele>78</ele>
        <time>2022-04-10T08:18:06Z</time>
      </trkpt>
      <trkpt lat="47.26789" lon="-1.54524">
        <ele>78</ele>
        <time>2022-04-10T08:18:07Z</time>
      </trkpt>
      <trkpt lat="47.26788" lon="-1.54523">
        <ele>78</ele>
        <time>2022-04-10T08:18:08Z</time>
      </trkpt>
      <trkpt lat="47.26788" lon="-1.54523">
        <ele>78</ele>
        <time>2022-04-10T08:18:09Z</time>
      </trkpt>
      <trkpt lat="47.26786" lon="-1.54523">
        <ele>78</ele>
        <time>2022-04-10T08:18:10Z</time>
      </trkpt>
      <trkpt lat="47.26785" lon="-1.54521">
        <ele>77</ele>
        <time>2022-04-10T08:18:11Z</time>
      </trkpt>
      <trkpt lat="47.26785" lon="-1.54521">
        <ele>77</ele>
        <time>2022-04-10T08:18:12Z</time>
      </trkpt>
      <trkpt lat="47.26784" lon="-1.5452">
        <ele>78</ele>
        <time>2022-04-10T08:18:13Z</time>
      </trkpt>
      <trkpt lat="47.26783" lon="-1.54519">
        <ele>78</ele>
        <time>2022-04-10T08:18:14Z</time>
      </trkpt>
      <trkpt lat="47.26782" lon="-1.54517">
        <ele>78</ele>
        <time>2022-04-10T08:18:15Z</time>
      </trkpt>
      <trkpt lat="47.26781" lon="-1.54517">
        <ele>78</ele>
        <time>2022-04-10T08:18:16Z</time>
      </trkpt>
      <trkpt lat="47.2678" lon="-1.54517">
        <ele>77</ele>
        <time>2022-04-10T08:18:17Z</time>
      </trkpt>
      <trkpt lat="47.26778" lon="-1.54516">
        <ele>77</ele>
        <time>2022-04-10T08:18:18Z</time>
      </trkpt>
      <trkpt lat="47.26777" lon="-1.54514">
        <ele>77</ele>
        <time>2022-04-10T08:18:19Z</time>
      </trkpt>
      <trkpt lat="47.26776" lon="-1.54513">
        <ele>77</ele>
        <time>2022-04-10T08:18:20Z</time>
      </trkpt>
      <trkpt lat="47.26775" lon="-1.54512">
        <ele>77</ele>
        <time>2022-04-10T08:18:21Z</time>
      </trkpt>
      <trkpt lat="47.26774" lon="-1.54512">
        <ele>77</ele>
        <time>2022-04-10T08:18:22Z</time>
      </trkpt>
      <trkpt lat="47.26774" lon="-1.54512">
        <ele>78</ele>
        <time>2022-04-10T08:18:23Z</time>
      </trkpt>
      <trkpt lat="47.26774" lon="-1.54511">
        <ele>77</ele>
        <time>2022-04-10T08:18:24Z</time>
      </trkpt>
      <trkpt lat="47.26773" lon="-1.54511">
        <ele>77</ele>
        <time>2022-04-10T08:18:25Z</time>
      </trkpt>
      <trkpt lat="47.26772" lon="-1.54511">
        <ele>77</ele>
        <time>2022-04-10T08:18:26Z</time>
      </trkpt>
      <trkpt lat="47.26771" lon="-1.5451">
        <ele>77</ele>
        <time>2022-04-10T08:18:27Z</time>
      </trkpt>
      <trkpt lat="47.26769" lon="-1.5451">
        <ele>77</ele>
        <time>2022-04-10T08:18:28Z</time>
      </trkpt>
      <trkpt lat="47.26768" lon="-1.54509">
        <ele>77</ele>
        <time>2022-04-10T08:18:29Z</time>
      </trkpt>
      <trkpt lat="47.26767" lon="-1.54508">
        <ele>78</ele>
        <time>2022-04-10T08:18:30Z</time>
      </trkpt>
      <trkpt lat="47.26765" lon="-1.54507">
        <ele>78</ele>
        <time>2022-04-10T08:18:31Z</time>
      </trkpt>
      <trkpt lat="47.26764" lon="-1.54507">
        <ele>78</ele>
        <time>2022-04-10T08:18:32Z</time>
      </trkpt>
      <trkpt lat="47.26764" lon="-1.54506">
        <ele>79</ele>
        <time>2022-04-10T08:18:33Z</time>
      </trkpt>
      <trkpt lat="47.26762" lon="-1.54506">
        <ele>79</ele>
        <time>2022-04-10T08:18:34Z</time>
      </trkpt>
      <trkpt lat="47.26761" lon="-1.54505">
        <ele>79</ele>
        <time>2022-04-10T08:18:35Z</time>
      </trkpt>
      <trkpt lat="47.2676" lon="-1.54505">
        <ele>79</ele>
        <time>2022-04-10T08:18:36Z</time>
      </trkpt>
      <trkpt lat="47.26759" lon="-1.54504">
        <ele>80</ele>
        <time>2022-04-10T08:18:37Z</time>
      </trkpt>
      <trkpt lat="47.26757" lon="-1.54504">
        <ele>80</ele>
        <time>2022-04-10T08:18:38Z</time>
      </trkpt>
      <trkpt lat="47.26757" lon="-1.54503">
        <ele>80</ele>
        <time>2022-04-10T08:18:39Z</time>
      </trkpt>
      <trkpt lat="47.26757" lon="-1.54503">
        <ele>81</ele>
        <time>2022-04-10T08:18:40Z</time>
      </trkpt>
      <trkpt lat="47.26756" lon="-1.54502">
        <ele>81</ele>
        <time>2022-04-10T08:18:41Z</time>
      </trkpt>
      <trkpt lat="47.26755" lon="-1.54501">
        <ele>81</ele>
        <time>2022-04-10T08:18:42Z</time>
      </trkpt>
      <trkpt lat="47.26755" lon="-1.545">
        <ele>82</ele>
        <time>2022-04-10T08:18:43Z</time>
      </trkpt>
      <trkpt lat="47.26755" lon="-1.54498">
        <ele>82</ele>
        <time>2022-04-10T08:18:44Z</time>
      </trkpt>
      <trkpt lat="47.26754" lon="-1.54497">
        <ele>82</ele>
        <time>2022-04-10T08:18:45Z</time>
      </trkpt>
      <trkpt lat="47.26753" lon="-1.54496">
        <ele>82</ele>
        <time>2022-04-10T08:18:46Z</time>
      </trkpt>
      <trkpt lat="47.26752" lon="-1.54495">
        <ele>82</ele>
        <time>2022-04-10T08:18:47Z</time>
      </trkpt>
      <trkpt lat="47.26751" lon="-1.54494">
        <ele>82</ele>
        <time>2022-04-10T08:18:48Z</time>
      </trkpt>
      <trkpt lat="47.26751" lon="-1.54492">
        <ele>82</ele>
        <time>2022-04-10T08:18:49Z</time>
      </trkpt>
      <trkpt lat="47.2675" lon="-1.54491">
        <ele>81</ele>
        <time>2022-04-10T08:18:50Z</time>
      </trkpt>
      <trkpt lat="47.26749" lon="-1.5449">
        <ele>81</ele>
        <time>2022-04-10T08:18:51Z</time>
      </trkpt>
      <trkpt lat="47.26749" lon="-1.54489">
        <ele>80</ele>
        <time>2022-04-10T08:18:52Z</time>
      </trkpt>
      <trkpt lat="47.26748" lon="-1.54488">
        <ele>80</ele>
        <time>2022-04-10T08:18:53Z</time>
      </trkpt>
      <trkpt lat="47.26747" lon="-1.54487">
        <ele>80</ele>
        <time>2022-04-10T08:18:54Z</time>
      </trkpt>
      <trkpt lat="47.26746" lon="-1.54485">
        <ele>79</ele>
        <time>2022-04-10T08:18:55Z</time>
      </trkpt>
      <trkpt lat="47.26746" lon="-1.54483">
        <ele>80</ele>
        <time>2022-04-10T08:18:56Z</time>
      </trkpt>
      <trkpt lat="47.26745" lon="-1.54482">
        <ele>79</ele>
        <time>2022-04-10T08:18:57Z</time>
      </trkpt>
      <trkpt lat="47.26744" lon="-1.54481">
        <ele>79</ele>
        <time>2022-04-10T08:18:58Z</time>
      </trkpt>
      <trkpt lat="47.26743" lon="-1.54481">
        <ele>79</ele>
        <time>2022-04-10T08:18:59Z</time>
      </trkpt>
      <trkpt lat="47.26743" lon="-1.5448">
        <ele>79</ele>
        <time>2022-04-10T08:19:00Z</time>
      </trkpt>
      <trkpt lat="47.26742" lon="-1.5448">
        <ele>79</ele>
        <time>2022-04-10T08:19:01Z</time>
      </trkpt>
      <trkpt lat="47.26741" lon="-1.54479">
        <ele>80</ele>
        <time>2022-04-10T08:19:02Z</time>
      </trkpt>
      <trkpt lat="47.2674" lon="-1.54479">
        <ele>80</ele>
        <time>2022-04-10T08:19:03Z</time>
      </trkpt>
      <trkpt lat="47.26738" lon="-1.54478">
        <ele>80</ele>
        <time>2022-04-10T08:19:04Z</time>
      </trkpt>
      <trkpt lat="47.26737" lon="-1.54478">
        <ele>80</ele>
        <time>2022-04-10T08:19:05Z</time>
      </trkpt>
      <trkpt lat="47.26736" lon="-1.54478">
        <ele>80</ele>
        <time>2022-04-10T08:19:06Z</time>
      </trkpt>
      <trkpt lat="47.26735" lon="-1.54477">
        <ele>80</ele>
        <time>2022-04-10T08:19:07Z</time>
      </trkpt>
      <trkpt lat="47.26735" lon="-1.54477">
        <ele>80</ele>
        <time>2022-04-10T08:19:08Z</time>
      </trkpt>
      <trkpt lat="47.26734" lon="-1.54477">
        <ele>80</ele>
        <time>2022-04-10T08:19:09Z</time>
      </trkpt>
      <trkpt lat="47.26733" lon="-1.54476">
        <ele>80</ele>
        <time>2022-04-10T08:19:10Z</time>
      </trkpt>
      <trkpt lat="47.26732" lon="-1.54476">
        <ele>80</ele>
        <time>2022-04-10T08:19:11Z</time>
      </trkpt>
      <trkpt lat="47.26731" lon="-1.54476">
        <ele>80</ele>
        <time>2022-04-10T08:19:12Z</time>
      </trkpt>
      <trkpt lat="47.26731" lon="-1.54476">
        <ele>80</ele>
        <time>2022-04-10T08:19:13Z</time>
      </trkpt>
      <trkpt lat="47.2673" lon="-1.54475">
        <ele>80</ele>
        <time>2022-04-10T08:19:14Z</time>
      </trkpt>
      <trkpt lat="47.26728" lon="-1.54475">
        <ele>80</ele>
        <time>2022-04-10T08:19:15Z</time>
      </trkpt>
      <trkpt lat="47.26728" lon="-1.54474">
        <ele>80</ele>
        <time>2022-04-10T08:19:16Z</time>
      </trkpt>
      <trkpt lat="47.26727" lon="-1.54473">
        <ele>80</ele>
        <time>2022-04-10T08:19:17Z</time>
      </trkpt>
      <trkpt lat="47.26726" lon="-1.54472">
        <ele>80</ele>
        <time>2022-04-10T08:19:18Z</time>
      </trkpt>
      <trkpt lat="47.26725" lon="-1.54471">
        <ele>80</ele>
        <time>2022-04-10T08:19:19Z</time>
      </trkpt>
      <trkpt lat="47.26724" lon="-1.54471">
        <ele>80</ele>
        <time>2022-04-10T08:19:20Z</time>
      </trkpt>
      <trkpt lat="47.26723" lon="-1.5447">
        <ele>80</ele>
        <time>2022-04-10T08:19:21Z</time>
      </trkpt>
      <trkpt lat="47.26722" lon="-1.5447">
        <ele>80</ele>
        <time>2022-04-10T08:19:22Z</time>
      </trkpt>
      <trkpt lat="47.26722" lon="-1.5447">
        <ele>80</ele>
        <time>2022-04-10T08:19:23Z</time>
      </trkpt>
      <trkpt lat="47.26721" lon="-1.54469">
        <ele>79</ele>
        <time>2022-04-10T08:19:24Z</time>
      </trkpt>
      <trkpt lat="47.2672" lon="-1.54469">
        <ele>79</ele>
        <time>2022-04-10T08:19:25Z</time>
      </trkpt>
      <trkpt lat="47.26719" lon="-1.54469">
        <ele>79</ele>
        <time>2022-04-10T08:19:26Z</time>
      </trkpt>
      <trkpt lat="47.26718" lon="-1.54469">
        <ele>78</ele>
        <time>2022-04-10T08:19:27Z</time>
      </trkpt>
      <trkpt lat="47.26717" lon="-1.54468">
        <ele>78</ele>
        <time>2022-04-10T08:19:28Z</time>
      </trkpt>
      <trkpt lat="47.26715" lon="-1.54468">
        <ele>77</ele>
        <time>2022-04-10T08:19:29Z</time>
      </trkpt>
      <trkpt lat="47.26714" lon="-1.54468">
        <ele>77</ele>
        <time>2022-04-10T08:19:30Z</time>
      </trkpt>
      <trkpt lat="47.26713" lon="-1.54467">
        <ele>77</ele>
        <time>2022-04-10T08:19:31Z</time>
      </trkpt>
      <trkpt lat="47.26712" lon="-1.54467">
        <ele>77</ele>
        <time>2022-04-10T08:19:32Z</time>
      </trkpt>
      <trkpt lat="47.26711" lon="-1.54467">
        <ele>77</ele>
        <time>2022-04-10T08:19:33Z</time>
      </trkpt>
      <trkpt lat="47.2671" lon="-1.54466">
        <ele>77</ele>
        <time>2022-04-10T08:19:34Z</time>
      </trkpt>
      <trkpt lat="47.26708" lon="-1.54466">
        <ele>76</ele>
        <time>2022-04-10T08:19:35Z</time>
      </trkpt>
      <trkpt lat="47.26708" lon="-1.54466">
        <ele>76</ele>
        <time>2022-04-10T08:19:36Z</time>
      </trkpt>
      <trkpt lat="47.26706" lon="-1.54465">
        <ele>77</ele>
        <time>2022-04-10T08:19:37Z</time>
      </trkpt>
      <trkpt lat="47.26705" lon="-1.54465">
        <ele>77</ele>
        <time>2022-04-10T08:19:38Z</time>
      </trkpt>
      <trkpt lat="47.26704" lon="-1.54465">
        <ele>77</ele>
        <time>2022-04-10T08:19:39Z</time>
      </trkpt>
      <trkpt lat="47.26703" lon="-1.54466">
        <ele>77</ele>
        <time>2022-04-10T08:19:40Z</time>
      </trkpt>
      <trkpt lat="47.26701" lon="-1.54466">
        <ele>77</ele>
        <time>2022-04-10T08:19:41Z</time>
      </trkpt>
      <trkpt lat="47.267" lon="-1.54465">
        <ele>77</ele>
        <time>2022-04-10T08:19:42Z</time>
      </trkpt>
      <trkpt lat="47.26699" lon="-1.54465">
        <ele>76</ele>
        <time>2022-04-10T08:19:43Z</time>
      </trkpt>
      <trkpt lat="47.26698" lon="-1.54464">
        <ele>76</ele>
        <time>2022-04-10T08:19:44Z</time>
      </trkpt>
      <trkpt lat="47.26697" lon="-1.54463">
        <ele>76</ele>
        <time>2022-04-10T08:19:45Z</time>
      </trkpt>
      <trkpt lat="47.26696" lon="-1.54463">
        <ele>76</ele>
        <time>2022-04-10T08:19:46Z</time>
      </trkpt>
      <trkpt lat="47.26695" lon="-1.54463">
        <ele>76</ele>
        <time>2022-04-10T08:19:47Z</time>
      </trkpt>
      <trkpt lat="47.26694" lon="-1.54463">
        <ele>76</ele>
        <time>2022-04-10T08:19:48Z</time>
      </trkpt>
      <trkpt lat="47.26694" lon="-1.54462">
        <ele>76</ele>
        <time>2022-04-10T08:19:49Z</time>
      </trkpt>
      <trkpt lat="47.26692" lon="-1.54462">
        <ele>76</ele>
        <time>2022-04-10T08:19:50Z</time>
      </trkpt>
      <trkpt lat="47.26691" lon="-1.54462">
        <ele>76</ele>
        <time>2022-04-10T08:19:51Z</time>
      </trkpt>
      <trkpt lat="47.26688" lon="-1.54461">
        <ele>76</ele>
        <time>2022-04-10T08:19:53Z</time>
      </trkpt>
      <trkpt lat="47.26687" lon="-1.54461">
        <ele>76</ele>
        <time>2022-04-10T08:19:55Z</time>
      </trkpt>
      <trkpt lat="47.26685" lon="-1.54461">
        <ele>75</ele>
        <time>2022-04-10T08:19:56Z</time>
      </trkpt>
      <trkpt lat="47.26684" lon="-1.54461">
        <ele>75</ele>
        <time>2022-04-10T08:19:57Z</time>
      </trkpt>
      <trkpt lat="47.26683" lon="-1.54461">
        <ele>75</ele>
        <time>2022-04-10T08:19:58Z</time>
      </trkpt>
      <trkpt lat="47.26682" lon="-1.54461">
        <ele>75</ele>
        <time>2022-04-10T08:19:59Z</time>
      </trkpt>
      <trkpt lat="47.26681" lon="-1.54461">
        <ele>75</ele>
        <time>2022-04-10T08:20:00Z</time>
      </trkpt>
      <trkpt lat="47.2668" lon="-1.54461">
        <ele>75</ele>
        <time>2022-04-10T08:20:01Z</time>
      </trkpt>
      <trkpt lat="47.26679" lon="-1.54462">
        <ele>75</ele>
        <time>2022-04-10T08:20:02Z</time>
      </trkpt>
      <trkpt lat="47.26677" lon="-1.54461">
        <ele>76</ele>
        <time>2022-04-10T08:20:03Z</time>
      </trkpt>
      <trkpt lat="47.26677" lon="-1.54461">
        <ele>76</ele>
        <time>2022-04-10T08:20:04Z</time>
      </trkpt>
      <trkpt lat="47.26676" lon="-1.5446">
        <ele>76</ele>
        <time>2022-04-10T08:20:05Z</time>
      </trkpt>
      <trkpt lat="47.26675" lon="-1.5446">
        <ele>76</ele>
        <time>2022-04-10T08:20:06Z</time>
      </trkpt>
      <trkpt lat="47.26674" lon="-1.54459">
        <ele>75</ele>
        <time>2022-04-10T08:20:07Z</time>
      </trkpt>
      <trkpt lat="47.26673" lon="-1.54459">
        <ele>75</ele>
        <time>2022-04-10T08:20:08Z</time>
      </trkpt>
      <trkpt lat="47.26672" lon="-1.54459">
        <ele>75</ele>
        <time>2022-04-10T08:20:09Z</time>
      </trkpt>
      <trkpt lat="47.26671" lon="-1.5446">
        <ele>75</ele>
        <time>2022-04-10T08:20:10Z</time>
      </trkpt>
      <trkpt lat="47.26669" lon="-1.5446">
        <ele>75</ele>
        <time>2022-04-10T08:20:11Z</time>
      </trkpt>
      <trkpt lat="47.26668" lon="-1.54459">
        <ele>74</ele>
        <time>2022-04-10T08:20:12Z</time>
      </trkpt>
      <trkpt lat="47.26667" lon="-1.5446">
        <ele>74</ele>
        <time>2022-04-10T08:20:13Z</time>
      </trkpt>
      <trkpt lat="47.26666" lon="-1.54459">
        <ele>75</ele>
        <time>2022-04-10T08:20:14Z</time>
      </trkpt>
      <trkpt lat="47.26665" lon="-1.54459">
        <ele>75</ele>
        <time>2022-04-10T08:20:15Z</time>
      </trkpt>
      <trkpt lat="47.26664" lon="-1.5446">
        <ele>75</ele>
        <time>2022-04-10T08:20:16Z</time>
      </trkpt>
      <trkpt lat="47.26662" lon="-1.54461">
        <ele>75</ele>
        <time>2022-04-10T08:20:17Z</time>
      </trkpt>
      <trkpt lat="47.26661" lon="-1.54461">
        <ele>75</ele>
        <time>2022-04-10T08:20:18Z</time>
      </trkpt>
      <trkpt lat="47.2666" lon="-1.5446">
        <ele>75</ele>
        <time>2022-04-10T08:20:19Z</time>
      </trkpt>
      <trkpt lat="47.26659" lon="-1.54461">
        <ele>76</ele>
        <time>2022-04-10T08:20:20Z</time>
      </trkpt>
      <trkpt lat="47.26658" lon="-1.54462">
        <ele>76</ele>
        <time>2022-04-10T08:20:21Z</time>
      </trkpt>
      <trkpt lat="47.26657" lon="-1.54462">
        <ele>75</ele>
        <time>2022-04-10T08:20:22Z</time>
      </trkpt>
      <trkpt lat="47.26656" lon="-1.54462">
        <ele>76</ele>
        <time>2022-04-10T08:20:23Z</time>
      </trkpt>
      <trkpt lat="47.26655" lon="-1.54461">
        <ele>75</ele>
        <time>2022-04-10T08:20:24Z</time>
      </trkpt>
      <trkpt lat="47.26654" lon="-1.54461">
        <ele>75</ele>
        <time>2022-04-10T08:20:25Z</time>
      </trkpt>
      <trkpt lat="47.26653" lon="-1.54462">
        <ele>75</ele>
        <time>2022-04-10T08:20:26Z</time>
      </trkpt>
      <trkpt lat="47.26652" lon="-1.54462">
        <ele>75</ele>
        <time>2022-04-10T08:20:27Z</time>
      </trkpt>
      <trkpt lat="47.26651" lon="-1.54462">
        <ele>75</ele>
        <time>2022-04-10T08:20:28Z</time>
      </trkpt>
      <trkpt lat="47.26649" lon="-1.54463">
        <ele>75</ele>
        <time>2022-04-10T08:20:29Z</time>
      </trkpt>
      <trkpt lat="47.26648" lon="-1.54463">
        <ele>74</ele>
        <time>2022-04-10T08:20:30Z</time>
      </trkpt>
      <trkpt lat="47.26647" lon="-1.54463">
        <ele>74</ele>
        <time>2022-04-10T08:20:31Z</time>
      </trkpt>
      <trkpt lat="47.26646" lon="-1.54463">
        <ele>74</ele>
        <time>2022-04-10T08:20:32Z</time>
      </trkpt>
      <trkpt lat="47.26645" lon="-1.54463">
        <ele>74</ele>
        <time>2022-04-10T08:20:33Z</time>
      </trkpt>
      <trkpt lat="47.26644" lon="-1.54464">
        <ele>74</ele>
        <time>2022-04-10T08:20:34Z</time>
      </trkpt>
      <trkpt lat="47.26643" lon="-1.54464">
        <ele>74</ele>
        <time>2022-04-10T08:20:35Z</time>
      </trkpt>
      <trkpt lat="47.26642" lon="-1.54464">
        <ele>74</ele>
        <time>2022-04-10T08:20:36Z</time>
      </trkpt>
      <trkpt lat="47.2664" lon="-1.54464">
        <ele>74</ele>
        <time>2022-04-10T08:20:37Z</time>
      </trkpt>
      <trkpt lat="47.26639" lon="-1.54463">
        <ele>74</ele>
        <time>2022-04-10T08:20:38Z</time>
      </trkpt>
      <trkpt lat="47.26638" lon="-1.54464">
        <ele>74</ele>
        <time>2022-04-10T08:20:39Z</time>
      </trkpt>
      <trkpt lat="47.26637" lon="-1.54464">
        <ele>74</ele>
        <time>2022-04-10T08:20:40Z</time>
      </trkpt>
      <trkpt lat="47.26636" lon="-1.54464">
        <ele>74</ele>
        <time>2022-04-10T08:20:41Z</time>
      </trkpt>
      <trkpt lat="47.26635" lon="-1.54464">
        <ele>75</ele>
        <time>2022-04-10T08:20:42Z</time>
      </trkpt>
      <trkpt lat="47.26634" lon="-1.54465">
        <ele>75</ele>
        <time>2022-04-10T08:20:43Z</time>
      </trkpt>
      <trkpt lat="47.26633" lon="-1.54465">
        <ele>75</ele>
        <time>2022-04-10T08:20:44Z</time>
      </trkpt>
      <trkpt lat="47.26632" lon="-1.54466">
        <ele>75</ele>
        <time>2022-04-10T08:20:45Z</time>
      </trkpt>
      <trkpt lat="47.26631" lon="-1.54465">
        <ele>75</ele>
        <time>2022-04-10T08:20:46Z</time>
      </trkpt>
      <trkpt lat="47.2663" lon="-1.54465">
        <ele>75</ele>
        <time>2022-04-10T08:20:47Z</time>
      </trkpt>
      <trkpt lat="47.26629" lon="-1.54465">
        <ele>76</ele>
        <time>2022-04-10T08:20:48Z</time>
      </trkpt>
      <trkpt lat="47.26628" lon="-1.54466">
        <ele>75</ele>
        <time>2022-04-10T08:20:49Z</time>
      </trkpt>
      <trkpt lat="47.26627" lon="-1.54467">
        <ele>75</ele>
        <time>2022-04-10T08:20:50Z</time>
      </trkpt>
      <trkpt lat="47.26625" lon="-1.54467">
        <ele>75</ele>
        <time>2022-04-10T08:20:51Z</time>
      </trkpt>
      <trkpt lat="47.26624" lon="-1.54468">
        <ele>75</ele>
        <time>2022-04-10T08:20:52Z</time>
      </trkpt>
      <trkpt lat="47.26623" lon="-1.54468">
        <ele>74</ele>
        <time>2022-04-10T08:20:53Z</time>
      </trkpt>
      <trkpt lat="47.26622" lon="-1.54468">
        <ele>74</ele>
        <time>2022-04-10T08:20:54Z</time>
      </trkpt>
      <trkpt lat="47.26621" lon="-1.54469">
        <ele>74</ele>
        <time>2022-04-10T08:20:55Z</time>
      </trkpt>
      <trkpt lat="47.26619" lon="-1.54469">
        <ele>74</ele>
        <time>2022-04-10T08:20:56Z</time>
      </trkpt>
      <trkpt lat="47.26619" lon="-1.54469">
        <ele>74</ele>
        <time>2022-04-10T08:20:57Z</time>
      </trkpt>
      <trkpt lat="47.26617" lon="-1.54469">
        <ele>74</ele>
        <time>2022-04-10T08:20:58Z</time>
      </trkpt>
      <trkpt lat="47.26616" lon="-1.54468">
        <ele>74</ele>
        <time>2022-04-10T08:20:59Z</time>
      </trkpt>
      <trkpt lat="47.26614" lon="-1.54468">
        <ele>74</ele>
        <time>2022-04-10T08:21:00Z</time>
      </trkpt>
      <trkpt lat="47.26614" lon="-1.54468">
        <ele>74</ele>
        <time>2022-04-10T08:21:01Z</time>
      </trkpt>
      <trkpt lat="47.26613" lon="-1.54468">
        <ele>75</ele>
        <time>2022-04-10T08:21:02Z</time>
      </trkpt>
      <trkpt lat="47.26612" lon="-1.54469">
        <ele>75</ele>
        <time>2022-04-10T08:21:03Z</time>
      </trkpt>
      <trkpt lat="47.26611" lon="-1.54469">
        <ele>75</ele>
        <time>2022-04-10T08:21:04Z</time>
      </trkpt>
      <trkpt lat="47.26609" lon="-1.5447">
        <ele>75</ele>
        <time>2022-04-10T08:21:05Z</time>
      </trkpt>
      <trkpt lat="47.26609" lon="-1.5447">
        <ele>75</ele>
        <time>2022-04-10T08:21:06Z</time>
      </trkpt>
      <trkpt lat="47.26608" lon="-1.54471">
        <ele>74</ele>
        <time>2022-04-10T08:21:07Z</time>
      </trkpt>
      <trkpt lat="47.26607" lon="-1.5447">
        <ele>74</ele>
        <time>2022-04-10T08:21:08Z</time>
      </trkpt>
      <trkpt lat="47.26605" lon="-1.5447">
        <ele>74</ele>
        <time>2022-04-10T08:21:09Z</time>
      </trkpt>
      <trkpt lat="47.26604" lon="-1.5447">
        <ele>74</ele>
        <time>2022-04-10T08:21:10Z</time>
      </trkpt>
      <trkpt lat="47.26603" lon="-1.54469">
        <ele>75</ele>
        <time>2022-04-10T08:21:11Z</time>
      </trkpt>
      <trkpt lat="47.26601" lon="-1.54468">
        <ele>75</ele>
        <time>2022-04-10T08:21:12Z</time>
      </trkpt>
      <trkpt lat="47.266" lon="-1.54468">
        <ele>75</ele>
        <time>2022-04-10T08:21:13Z</time>
      </trkpt>
      <trkpt lat="47.26599" lon="-1.54467">
        <ele>76</ele>
        <time>2022-04-10T08:21:14Z</time>
      </trkpt>
      <trkpt lat="47.26598" lon="-1.54466">
        <ele>76</ele>
        <time>2022-04-10T08:21:15Z</time>
      </trkpt>
      <trkpt lat="47.26597" lon="-1.54466">
        <ele>76</ele>
        <time>2022-04-10T08:21:16Z</time>
      </trkpt>
      <trkpt lat="47.26596" lon="-1.54465">
        <ele>76</ele>
        <time>2022-04-10T08:21:17Z</time>
      </trkpt>
      <trkpt lat="47.26595" lon="-1.54464">
        <ele>77</ele>
        <time>2022-04-10T08:21:18Z</time>
      </trkpt>
      <trkpt lat="47.26593" lon="-1.54463">
        <ele>77</ele>
        <time>2022-04-10T08:21:19Z</time>
      </trkpt>
      <trkpt lat="47.26593" lon="-1.54462">
        <ele>78</ele>
        <time>2022-04-10T08:21:20Z</time>
      </trkpt>
      <trkpt lat="47.26592" lon="-1.54461">
        <ele>78</ele>
        <time>2022-04-10T08:21:21Z</time>
      </trkpt>
      <trkpt lat="47.26591" lon="-1.54459">
        <ele>78</ele>
        <time>2022-04-10T08:21:22Z</time>
      </trkpt>
      <trkpt lat="47.26591" lon="-1.54458">
        <ele>78</ele>
        <time>2022-04-10T08:21:23Z</time>
      </trkpt>
      <trkpt lat="47.2659" lon="-1.54457">
        <ele>78</ele>
        <time>2022-04-10T08:21:24Z</time>
      </trkpt>
      <trkpt lat="47.2659" lon="-1.54456">
        <ele>79</ele>
        <time>2022-04-10T08:21:25Z</time>
      </trkpt>
      <trkpt lat="47.26589" lon="-1.54454">
        <ele>79</ele>
        <time>2022-04-10T08:21:26Z</time>
      </trkpt>
      <trkpt lat="47.26588" lon="-1.54452">
        <ele>78</ele>
        <time>2022-04-10T08:21:27Z</time>
      </trkpt>
      <trkpt lat="47.26588" lon="-1.54452">
        <ele>78</ele>
        <time>2022-04-10T08:21:28Z</time>
      </trkpt>
      <trkpt lat="47.26587" lon="-1.5445">
        <ele>78</ele>
        <time>2022-04-10T08:21:29Z</time>
      </trkpt>
      <trkpt lat="47.26587" lon="-1.54448">
        <ele>78</ele>
        <time>2022-04-10T08:21:30Z</time>
      </trkpt>
      <trkpt lat="47.26587" lon="-1.54447">
        <ele>78</ele>
        <time>2022-04-10T08:21:31Z</time>
      </trkpt>
      <trkpt lat="47.26586" lon="-1.54445">
        <ele>78</ele>
        <time>2022-04-10T08:21:32Z</time>
      </trkpt>
      <trkpt lat="47.26586" lon="-1.54443">
        <ele>78</ele>
        <time>2022-04-10T08:21:33Z</time>
      </trkpt>
      <trkpt lat="47.26585" lon="-1.54441">
        <ele>77</ele>
        <time>2022-04-10T08:21:34Z</time>
      </trkpt>
      <trkpt lat="47.26585" lon="-1.5444">
        <ele>77</ele>
        <time>2022-04-10T08:21:35Z</time>
      </trkpt>
      <trkpt lat="47.26585" lon="-1.54439">
        <ele>77</ele>
        <time>2022-04-10T08:21:36Z</time>
      </trkpt>
      <trkpt lat="47.26584" lon="-1.54437">
        <ele>77</ele>
        <time>2022-04-10T08:21:37Z</time>
      </trkpt>
      <trkpt lat="47.26584" lon="-1.54436">
        <ele>77</ele>
        <time>2022-04-10T08:21:38Z</time>
      </trkpt>
      <trkpt lat="47.26584" lon="-1.54434">
        <ele>78</ele>
        <time>2022-04-10T08:21:39Z</time>
      </trkpt>
      <trkpt lat="47.26584" lon="-1.54432">
        <ele>78</ele>
        <time>2022-04-10T08:21:40Z</time>
      </trkpt>
      <trkpt lat="47.26583" lon="-1.54431">
        <ele>78</ele>
        <time>2022-04-10T08:21:41Z</time>
      </trkpt>
      <trkpt lat="47.26583" lon="-1.54429">
        <ele>78</ele>
        <time>2022-04-10T08:21:42Z</time>
      </trkpt>
      <trkpt lat="47.26582" lon="-1.54428">
        <ele>79</ele>
        <time>2022-04-10T08:21:43Z</time>
      </trkpt>
      <trkpt lat="47.26582" lon="-1.54427">
        <ele>79</ele>
        <time>2022-04-10T08:21:44Z</time>
      </trkpt>
      <trkpt lat="47.26582" lon="-1.54425">
        <ele>79</ele>
        <time>2022-04-10T08:21:45Z</time>
      </trkpt>
      <trkpt lat="47.26581" lon="-1.54424">
        <ele>80</ele>
        <time>2022-04-10T08:21:46Z</time>
      </trkpt>
      <trkpt lat="47.26581" lon="-1.54422">
        <ele>80</ele>
        <time>2022-04-10T08:21:47Z</time>
      </trkpt>
      <trkpt lat="47.26581" lon="-1.54421">
        <ele>80</ele>
        <time>2022-04-10T08:21:48Z</time>
      </trkpt>
      <trkpt lat="47.26581" lon="-1.5442">
        <ele>80</ele>
        <time>2022-04-10T08:21:49Z</time>
      </trkpt>
      <trkpt lat="47.26581" lon="-1.54419">
        <ele>80</ele>
        <time>2022-04-10T08:21:50Z</time>
      </trkpt>
      <trkpt lat="47.26581" lon="-1.54417">
        <ele>80</ele>
        <time>2022-04-10T08:21:51Z</time>
      </trkpt>
      <trkpt lat="47.2658" lon="-1.54415">
        <ele>80</ele>
        <time>2022-04-10T08:21:52Z</time>
      </trkpt>
      <trkpt lat="47.2658" lon="-1.54414">
        <ele>79</ele>
        <time>2022-04-10T08:21:53Z</time>
      </trkpt>
      <trkpt lat="47.2658" lon="-1.54412">
        <ele>79</ele>
        <time>2022-04-10T08:21:54Z</time>
      </trkpt>
      <trkpt lat="47.2658" lon="-1.5441">
        <ele>80</ele>
        <time>2022-04-10T08:21:55Z</time>
      </trkpt>
      <trkpt lat="47.2658" lon="-1.5441">
        <ele>80</ele>
        <time>2022-04-10T08:21:56Z</time>
      </trkpt>
      <trkpt lat="47.26579" lon="-1.54408">
        <ele>80</ele>
        <time>2022-04-10T08:21:57Z</time>
      </trkpt>
      <trkpt lat="47.26579" lon="-1.54406">
        <ele>80</ele>
        <time>2022-04-10T08:21:58Z</time>
      </trkpt>
      <trkpt lat="47.26579" lon="-1.54405">
        <ele>80</ele>
        <time>2022-04-10T08:21:59Z</time>
      </trkpt>
      <trkpt lat="47.26579" lon="-1.54403">
        <ele>79</ele>
        <time>2022-04-10T08:22:00Z</time>
      </trkpt>
      <trkpt lat="47.2658" lon="-1.54402">
        <ele>79</ele>
        <time>2022-04-10T08:22:01Z</time>
      </trkpt>
      <trkpt lat="47.2658" lon="-1.544">
        <ele>80</ele>
        <time>2022-04-10T08:22:02Z</time>
      </trkpt>
      <trkpt lat="47.2658" lon="-1.54399">
        <ele>80</ele>
        <time>2022-04-10T08:22:03Z</time>
      </trkpt>
      <trkpt lat="47.26581" lon="-1.54398">
        <ele>79</ele>
        <time>2022-04-10T08:22:04Z</time>
      </trkpt>
      <trkpt lat="47.26581" lon="-1.54397">
        <ele>80</ele>
        <time>2022-04-10T08:22:05Z</time>
      </trkpt>
      <trkpt lat="47.26581" lon="-1.54396">
        <ele>80</ele>
        <time>2022-04-10T08:22:06Z</time>
      </trkpt>
      <trkpt lat="47.26582" lon="-1.54395">
        <ele>80</ele>
        <time>2022-04-10T08:22:07Z</time>
      </trkpt>
      <trkpt lat="47.26582" lon="-1.54395">
        <ele>80</ele>
        <time>2022-04-10T08:22:08Z</time>
      </trkpt>
      <trkpt lat="47.26583" lon="-1.54393">
        <ele>80</ele>
        <time>2022-04-10T08:22:09Z</time>
      </trkpt>
      <trkpt lat="47.26584" lon="-1.54392">
        <ele>79</ele>
        <time>2022-04-10T08:22:10Z</time>
      </trkpt>
      <trkpt lat="47.26585" lon="-1.54392">
        <ele>79</ele>
        <time>2022-04-10T08:22:11Z</time>
      </trkpt>
      <trkpt lat="47.26586" lon="-1.54391">
        <ele>79</ele>
        <time>2022-04-10T08:22:12Z</time>
      </trkpt>
      <trkpt lat="47.26586" lon="-1.54391">
        <ele>79</ele>
        <time>2022-04-10T08:22:13Z</time>
      </trkpt>
      <trkpt lat="47.26587" lon="-1.5439">
        <ele>78</ele>
        <time>2022-04-10T08:22:14Z</time>
      </trkpt>
      <trkpt lat="47.26588" lon="-1.5439">
        <ele>78</ele>
        <time>2022-04-10T08:22:15Z</time>
      </trkpt>
      <trkpt lat="47.26589" lon="-1.54389">
        <ele>78</ele>
        <time>2022-04-10T08:22:16Z</time>
      </trkpt>
      <trkpt lat="47.2659" lon="-1.54388">
        <ele>78</ele>
        <time>2022-04-10T08:22:17Z</time>
      </trkpt>
      <trkpt lat="47.26591" lon="-1.54388">
        <ele>78</ele>
        <time>2022-04-10T08:22:18Z</time>
      </trkpt>
      <trkpt lat="47.26592" lon="-1.54388">
        <ele>78</ele>
        <time>2022-04-10T08:22:19Z</time>
      </trkpt>
      <trkpt lat="47.26593" lon="-1.54388">
        <ele>77</ele>
        <time>2022-04-10T08:22:20Z</time>
      </trkpt>
      <trkpt lat="47.26594" lon="-1.54388">
        <ele>77</ele>
        <time>2022-04-10T08:22:21Z</time>
      </trkpt>
      <trkpt lat="47.26594" lon="-1.54387">
        <ele>77</ele>
        <time>2022-04-10T08:22:22Z</time>
      </trkpt>
      <trkpt lat="47.26595" lon="-1.54386">
        <ele>77</ele>
        <time>2022-04-10T08:22:23Z</time>
      </trkpt>
      <trkpt lat="47.26595" lon="-1.54386">
        <ele>77</ele>
        <time>2022-04-10T08:22:24Z</time>
      </trkpt>
      <trkpt lat="47.26595" lon="-1.54386">
        <ele>77</ele>
        <time>2022-04-10T08:22:25Z</time>
      </trkpt>
      <trkpt lat="47.26597" lon="-1.54385">
        <ele>77</ele>
        <time>2022-04-10T08:22:26Z</time>
      </trkpt>
      <trkpt lat="47.26598" lon="-1.54385">
        <ele>77</ele>
        <time>2022-04-10T08:22:27Z</time>
      </trkpt>
      <trkpt lat="47.26598" lon="-1.54385">
        <ele>77</ele>
        <time>2022-04-10T08:22:28Z</time>
      </trkpt>
      <trkpt lat="47.26599" lon="-1.54385">
        <ele>77</ele>
        <time>2022-04-10T08:22:29Z</time>
      </trkpt>
      <trkpt lat="47.266" lon="-1.54385">
        <ele>77</ele>
        <time>2022-04-10T08:22:30Z</time>
      </trkpt>
      <trkpt lat="47.26601" lon="-1.54385">
        <ele>78</ele>
        <time>2022-04-10T08:22:31Z</time>
      </trkpt>
      <trkpt lat="47.26603" lon="-1.54384">
        <ele>78</ele>
        <time>2022-04-10T08:22:32Z</time>
      </trkpt>
      <trkpt lat="47.26604" lon="-1.54385">
        <ele>78</ele>
        <time>2022-04-10T08:22:33Z</time>
      </trkpt>
      <trkpt lat="47.26605" lon="-1.54385">
        <ele>78</ele>
        <time>2022-04-10T08:22:34Z</time>
      </trkpt>
      <trkpt lat="47.26607" lon="-1.54385">
        <ele>78</ele>
        <time>2022-04-10T08:22:35Z</time>
      </trkpt>
      <trkpt lat="47.26608" lon="-1.54384">
        <ele>78</ele>
        <time>2022-04-10T08:22:36Z</time>
      </trkpt>
      <trkpt lat="47.26609" lon="-1.54384">
        <ele>78</ele>
        <time>2022-04-10T08:22:37Z</time>
      </trkpt>
      <trkpt lat="47.2661" lon="-1.54383">
        <ele>78</ele>
        <time>2022-04-10T08:22:38Z</time>
      </trkpt>
      <trkpt lat="47.26611" lon="-1.54383">
        <ele>78</ele>
        <time>2022-04-10T08:22:39Z</time>
      </trkpt>
      <trkpt lat="47.26613" lon="-1.54382">
        <ele>78</ele>
        <time>2022-04-10T08:22:40Z</time>
      </trkpt>
      <trkpt lat="47.26613" lon="-1.54382">
        <ele>78</ele>
        <time>2022-04-10T08:22:41Z</time>
      </trkpt>
      <trkpt lat="47.26614" lon="-1.54382">
        <ele>78</ele>
        <time>2022-04-10T08:22:42Z</time>
      </trkpt>
      <trkpt lat="47.26615" lon="-1.54381">
        <ele>78</ele>
        <time>2022-04-10T08:22:43Z</time>
      </trkpt>
      <trkpt lat="47.26616" lon="-1.5438">
        <ele>78</ele>
        <time>2022-04-10T08:22:44Z</time>
      </trkpt>
      <trkpt lat="47.26617" lon="-1.5438">
        <ele>78</ele>
        <time>2022-04-10T08:22:45Z</time>
      </trkpt>
      <trkpt lat="47.26619" lon="-1.54379">
        <ele>79</ele>
        <time>2022-04-10T08:22:46Z</time>
      </trkpt>
      <trkpt lat="47.2662" lon="-1.54379">
        <ele>79</ele>
        <time>2022-04-10T08:22:47Z</time>
      </trkpt>
      <trkpt lat="47.26622" lon="-1.54378">
        <ele>79</ele>
        <time>2022-04-10T08:22:48Z</time>
      </trkpt>
      <trkpt lat="47.26623" lon="-1.54377">
        <ele>79</ele>
        <time>2022-04-10T08:22:49Z</time>
      </trkpt>
      <trkpt lat="47.26624" lon="-1.54376">
        <ele>79</ele>
        <time>2022-04-10T08:22:50Z</time>
      </trkpt>
      <trkpt lat="47.26625" lon="-1.54376">
        <ele>78</ele>
        <time>2022-04-10T08:22:51Z</time>
      </trkpt>
      <trkpt lat="47.26625" lon="-1.54374">
        <ele>78</ele>
        <time>2022-04-10T08:22:52Z</time>
      </trkpt>
      <trkpt lat="47.26626" lon="-1.54373">
        <ele>77</ele>
        <time>2022-04-10T08:22:53Z</time>
      </trkpt>
      <trkpt lat="47.26627" lon="-1.54371">
        <ele>78</ele>
        <time>2022-04-10T08:22:54Z</time>
      </trkpt>
      <trkpt lat="47.26628" lon="-1.5437">
        <ele>78</ele>
        <time>2022-04-10T08:22:55Z</time>
      </trkpt>
      <trkpt lat="47.26629" lon="-1.54368">
        <ele>78</ele>
        <time>2022-04-10T08:22:56Z</time>
      </trkpt>
      <trkpt lat="47.26629" lon="-1.54366">
        <ele>78</ele>
        <time>2022-04-10T08:22:57Z</time>
      </trkpt>
      <trkpt lat="47.26629" lon="-1.54365">
        <ele>78</ele>
        <time>2022-04-10T08:22:58Z</time>
      </trkpt>
      <trkpt lat="47.2663" lon="-1.54364">
        <ele>78</ele>
        <time>2022-04-10T08:22:59Z</time>
      </trkpt>
      <trkpt lat="47.2663" lon="-1.54363">
        <ele>79</ele>
        <time>2022-04-10T08:23:00Z</time>
      </trkpt>
      <trkpt lat="47.2663" lon="-1.54361">
        <ele>79</ele>
        <time>2022-04-10T08:23:01Z</time>
      </trkpt>
      <trkpt lat="47.2663" lon="-1.5436">
        <ele>79</ele>
        <time>2022-04-10T08:23:02Z</time>
      </trkpt>
      <trkpt lat="47.2663" lon="-1.54358">
        <ele>79</ele>
        <time>2022-04-10T08:23:03Z</time>
      </trkpt>
      <trkpt lat="47.26631" lon="-1.54357">
        <ele>80</ele>
        <time>2022-04-10T08:23:04Z</time>
      </trkpt>
      <trkpt lat="47.26631" lon="-1.54356">
        <ele>80</ele>
        <time>2022-04-10T08:23:05Z</time>
      </trkpt>
      <trkpt lat="47.26631" lon="-1.54354">
        <ele>80</ele>
        <time>2022-04-10T08:23:06Z</time>
      </trkpt>
      <trkpt lat="47.26632" lon="-1.54352">
        <ele>79</ele>
        <time>2022-04-10T08:23:07Z</time>
      </trkpt>
      <trkpt lat="47.26632" lon="-1.5435">
        <ele>80</ele>
        <time>2022-04-10T08:23:08Z</time>
      </trkpt>
      <trkpt lat="47.26632" lon="-1.54347">
        <ele>79</ele>
        <time>2022-04-10T08:23:09Z</time>
      </trkpt>
      <trkpt lat="47.26632" lon="-1.54346">
        <ele>79</ele>
        <time>2022-04-10T08:23:10Z</time>
      </trkpt>
      <trkpt lat="47.26632" lon="-1.54344">
        <ele>79</ele>
        <time>2022-04-10T08:23:11Z</time>
      </trkpt>
      <trkpt lat="47.26631" lon="-1.54343">
        <ele>80</ele>
        <time>2022-04-10T08:23:12Z</time>
      </trkpt>
      <trkpt lat="47.26631" lon="-1.54341">
        <ele>79</ele>
        <time>2022-04-10T08:23:13Z</time>
      </trkpt>
      <trkpt lat="47.26631" lon="-1.5434">
        <ele>79</ele>
        <time>2022-04-10T08:23:14Z</time>
      </trkpt>
      <trkpt lat="47.2663" lon="-1.54337">
        <ele>79</ele>
        <time>2022-04-10T08:23:15Z</time>
      </trkpt>
      <trkpt lat="47.2663" lon="-1.54336">
        <ele>78</ele>
        <time>2022-04-10T08:23:16Z</time>
      </trkpt>
      <trkpt lat="47.2663" lon="-1.54334">
        <ele>78</ele>
        <time>2022-04-10T08:23:17Z</time>
      </trkpt>
      <trkpt lat="47.2663" lon="-1.54332">
        <ele>77</ele>
        <time>2022-04-10T08:23:18Z</time>
      </trkpt>
      <trkpt lat="47.2663" lon="-1.54331">
        <ele>77</ele>
        <time>2022-04-10T08:23:19Z</time>
      </trkpt>
      <trkpt lat="47.2663" lon="-1.5433">
        <ele>78</ele>
        <time>2022-04-10T08:23:20Z</time>
      </trkpt>
      <trkpt lat="47.2663" lon="-1.54328">
        <ele>78</ele>
        <time>2022-04-10T08:23:21Z</time>
      </trkpt>
      <trkpt lat="47.2663" lon="-1.54327">
        <ele>78</ele>
        <time>2022-04-10T08:23:22Z</time>
      </trkpt>
      <trkpt lat="47.2663" lon="-1.54326">
        <ele>79</ele>
        <time>2022-04-10T08:23:23Z</time>
      </trkpt>
      <trkpt lat="47.26629" lon="-1.54324">
        <ele>79</ele>
        <time>2022-04-10T08:23:24Z</time>
      </trkpt>
      <trkpt lat="47.26629" lon="-1.54322">
        <ele>79</ele>
        <time>2022-04-10T08:23:25Z</time>
      </trkpt>
      <trkpt lat="47.26629" lon="-1.5432">
        <ele>79</ele>
        <time>2022-04-10T08:23:26Z</time>
      </trkpt>
      <trkpt lat="47.26629" lon="-1.54318">
        <ele>78</ele>
        <time>2022-04-10T08:23:27Z</time>
      </trkpt>
      <trkpt lat="47.26629" lon="-1.54317">
        <ele>79</ele>
        <time>2022-04-10T08:23:28Z</time>
      </trkpt>
      <trkpt lat="47.26629" lon="-1.54316">
        <ele>78</ele>
        <time>2022-04-10T08:23:29Z</time>
      </trkpt>
      <trkpt lat="47.26629" lon="-1.54315">
        <ele>78</ele>
        <time>2022-04-10T08:23:30Z</time>
      </trkpt>
      <trkpt lat="47.26629" lon="-1.54314">
        <ele>77</ele>
        <time>2022-04-10T08:23:31Z</time>
      </trkpt>
      <trkpt lat="47.26629" lon="-1.54312">
        <ele>77</ele>
        <time>2022-04-10T08:23:32Z</time>
      </trkpt>
      <trkpt lat="47.26628" lon="-1.5431">
        <ele>77</ele>
        <time>2022-04-10T08:23:33Z</time>
      </trkpt>
      <trkpt lat="47.26628" lon="-1.54309">
        <ele>77</ele>
        <time>2022-04-10T08:23:34Z</time>
      </trkpt>
      <trkpt lat="47.26628" lon="-1.54307">
        <ele>78</ele>
        <time>2022-04-10T08:23:35Z</time>
      </trkpt>
      <trkpt lat="47.26628" lon="-1.54304">
        <ele>77</ele>
        <time>2022-04-10T08:23:36Z</time>
      </trkpt>
      <trkpt lat="47.26628" lon="-1.54303">
        <ele>77</ele>
        <time>2022-04-10T08:23:37Z</time>
      </trkpt>
      <trkpt lat="47.26628" lon="-1.54302">
        <ele>78</ele>
        <time>2022-04-10T08:23:38Z</time>
      </trkpt>
      <trkpt lat="47.26628" lon="-1.543">
        <ele>78</ele>
        <time>2022-04-10T08:23:39Z</time>
      </trkpt>
      <trkpt lat="47.26628" lon="-1.54299">
        <ele>78</ele>
        <time>2022-04-10T08:23:40Z</time>
      </trkpt>
      <trkpt lat="47.26627" lon="-1.54298">
        <ele>78</ele>
        <time>2022-04-10T08:23:41Z</time>
      </trkpt>
      <trkpt lat="47.26627" lon="-1.54297">
        <ele>78</ele>
        <time>2022-04-10T08:23:42Z</time>
      </trkpt>
      <trkpt lat="47.26627" lon="-1.54296">
        <ele>78</ele>
        <time>2022-04-10T08:23:43Z</time>
      </trkpt>
      <trkpt lat="47.26628" lon="-1.54295">
        <ele>77</ele>
        <time>2022-04-10T08:23:44Z</time>
      </trkpt>
      <trkpt lat="47.26628" lon="-1.54293">
        <ele>77</ele>
        <time>2022-04-10T08:23:45Z</time>
      </trkpt>
      <trkpt lat="47.26628" lon="-1.54291">
        <ele>77</ele>
        <time>2022-04-10T08:23:46Z</time>
      </trkpt>
      <trkpt lat="47.26629" lon="-1.54289">
        <ele>77</ele>
        <time>2022-04-10T08:23:47Z</time>
      </trkpt>
      <trkpt lat="47.26629" lon="-1.54288">
        <ele>77</ele>
        <time>2022-04-10T08:23:48Z</time>
      </trkpt>
      <trkpt lat="47.26629" lon="-1.54286">
        <ele>77</ele>
        <time>2022-04-10T08:23:49Z</time>
      </trkpt>
      <trkpt lat="47.26629" lon="-1.54284">
        <ele>77</ele>
        <time>2022-04-10T08:23:50Z</time>
      </trkpt>
      <trkpt lat="47.26629" lon="-1.54282">
        <ele>77</ele>
        <time>2022-04-10T08:23:51Z</time>
      </trkpt>
      <trkpt lat="47.26629" lon="-1.5428">
        <ele>77</ele>
        <time>2022-04-10T08:23:52Z</time>
      </trkpt>
      <trkpt lat="47.26629" lon="-1.54279">
        <ele>76</ele>
        <time>2022-04-10T08:23:53Z</time>
      </trkpt>
      <trkpt lat="47.26629" lon="-1.54277">
        <ele>75</ele>
        <time>2022-04-10T08:23:54Z</time>
      </trkpt>
      <trkpt lat="47.26629" lon="-1.54277">
        <ele>75</ele>
        <time>2022-04-10T08:23:55Z</time>
      </trkpt>
      <trkpt lat="47.2663" lon="-1.54275">
        <ele>75</ele>
        <time>2022-04-10T08:23:56Z</time>
      </trkpt>
      <trkpt lat="47.2663" lon="-1.54274">
        <ele>74</ele>
        <time>2022-04-10T08:23:57Z</time>
      </trkpt>
      <trkpt lat="47.2663" lon="-1.54273">
        <ele>74</ele>
        <time>2022-04-10T08:23:58Z</time>
      </trkpt>
      <trkpt lat="47.26631" lon="-1.54272">
        <ele>74</ele>
        <time>2022-04-10T08:23:59Z</time>
      </trkpt>
      <trkpt lat="47.26631" lon="-1.54271">
        <ele>73</ele>
        <time>2022-04-10T08:24:00Z</time>
      </trkpt>
      <trkpt lat="47.26631" lon="-1.54271">
        <ele>73</ele>
        <time>2022-04-10T08:24:01Z</time>
      </trkpt>
      <trkpt lat="47.26631" lon="-1.54271">
        <ele>73</ele>
        <time>2022-04-10T08:24:02Z</time>
      </trkpt>
      <trkpt lat="47.26632" lon="-1.54267">
        <ele>74</ele>
        <time>2022-04-10T08:24:03Z</time>
      </trkpt>
      <trkpt lat="47.26632" lon="-1.54265">
        <ele>73</ele>
        <time>2022-04-10T08:24:04Z</time>
      </trkpt>
      <trkpt lat="47.26633" lon="-1.54263">
        <ele>73</ele>
        <time>2022-04-10T08:24:05Z</time>
      </trkpt>
      <trkpt lat="47.26633" lon="-1.54261">
        <ele>74</ele>
        <time>2022-04-10T08:24:06Z</time>
      </trkpt>
      <trkpt lat="47.26634" lon="-1.54259">
        <ele>74</ele>
        <time>2022-04-10T08:24:07Z</time>
      </trkpt>
      <trkpt lat="47.26634" lon="-1.54258">
        <ele>74</ele>
        <time>2022-04-10T08:24:08Z</time>
      </trkpt>
      <trkpt lat="47.26634" lon="-1.54256">
        <ele>74</ele>
        <time>2022-04-10T08:24:09Z</time>
      </trkpt>
      <trkpt lat="47.26635" lon="-1.54254">
        <ele>74</ele>
        <time>2022-04-10T08:24:10Z</time>
      </trkpt>
      <trkpt lat="47.26635" lon="-1.54252">
        <ele>74</ele>
        <time>2022-04-10T08:24:11Z</time>
      </trkpt>
      <trkpt lat="47.26636" lon="-1.5425">
        <ele>75</ele>
        <time>2022-04-10T08:24:12Z</time>
      </trkpt>
      <trkpt lat="47.26636" lon="-1.54248">
        <ele>75</ele>
        <time>2022-04-10T08:24:13Z</time>
      </trkpt>
      <trkpt lat="47.26637" lon="-1.54246">
        <ele>75</ele>
        <time>2022-04-10T08:24:14Z</time>
      </trkpt>
      <trkpt lat="47.26637" lon="-1.54245">
        <ele>75</ele>
        <time>2022-04-10T08:24:15Z</time>
      </trkpt>
      <trkpt lat="47.26637" lon="-1.54244">
        <ele>75</ele>
        <time>2022-04-10T08:24:16Z</time>
      </trkpt>
      <trkpt lat="47.26638" lon="-1.54242">
        <ele>74</ele>
        <time>2022-04-10T08:24:17Z</time>
      </trkpt>
      <trkpt lat="47.26639" lon="-1.54241">
        <ele>73</ele>
        <time>2022-04-10T08:24:18Z</time>
      </trkpt>
      <trkpt lat="47.2664" lon="-1.54239">
        <ele>73</ele>
        <time>2022-04-10T08:24:19Z</time>
      </trkpt>
      <trkpt lat="47.26642" lon="-1.54237">
        <ele>73</ele>
        <time>2022-04-10T08:24:20Z</time>
      </trkpt>
      <trkpt lat="47.26643" lon="-1.54235">
        <ele>72</ele>
        <time>2022-04-10T08:24:21Z</time>
      </trkpt>
      <trkpt lat="47.26644" lon="-1.54233">
        <ele>72</ele>
        <time>2022-04-10T08:24:22Z</time>
      </trkpt>
      <trkpt lat="47.26645" lon="-1.54231">
        <ele>72</ele>
        <time>2022-04-10T08:24:23Z</time>
      </trkpt>
      <trkpt lat="47.26645" lon="-1.54229">
        <ele>72</ele>
        <time>2022-04-10T08:24:24Z</time>
      </trkpt>
      <trkpt lat="47.26645" lon="-1.54227">
        <ele>72</ele>
        <time>2022-04-10T08:24:25Z</time>
      </trkpt>
      <trkpt lat="47.26646" lon="-1.54225">
        <ele>72</ele>
        <time>2022-04-10T08:24:26Z</time>
      </trkpt>
      <trkpt lat="47.26647" lon="-1.54223">
        <ele>72</ele>
        <time>2022-04-10T08:24:27Z</time>
      </trkpt>
      <trkpt lat="47.26647" lon="-1.54221">
        <ele>72</ele>
        <time>2022-04-10T08:24:28Z</time>
      </trkpt>
      <trkpt lat="47.26648" lon="-1.5422">
        <ele>72</ele>
        <time>2022-04-10T08:24:29Z</time>
      </trkpt>
      <trkpt lat="47.26649" lon="-1.54218">
        <ele>72</ele>
        <time>2022-04-10T08:24:30Z</time>
      </trkpt>
      <trkpt lat="47.2665" lon="-1.54217">
        <ele>73</ele>
        <time>2022-04-10T08:24:31Z</time>
      </trkpt>
      <trkpt lat="47.2665" lon="-1.54216">
        <ele>73</ele>
        <time>2022-04-10T08:24:32Z</time>
      </trkpt>
      <trkpt lat="47.26651" lon="-1.54215">
        <ele>73</ele>
        <time>2022-04-10T08:24:33Z</time>
      </trkpt>
      <trkpt lat="47.26652" lon="-1.54214">
        <ele>73</ele>
        <time>2022-04-10T08:24:34Z</time>
      </trkpt>
      <trkpt lat="47.26653" lon="-1.54213">
        <ele>73</ele>
        <time>2022-04-10T08:24:35Z</time>
      </trkpt>
      <trkpt lat="47.26653" lon="-1.54212">
        <ele>73</ele>
        <time>2022-04-10T08:24:36Z</time>
      </trkpt>
      <trkpt lat="47.26654" lon="-1.54211">
        <ele>73</ele>
        <time>2022-04-10T08:24:37Z</time>
      </trkpt>
      <trkpt lat="47.26655" lon="-1.54211">
        <ele>73</ele>
        <time>2022-04-10T08:24:38Z</time>
      </trkpt>
      <trkpt lat="47.26656" lon="-1.5421">
        <ele>74</ele>
        <time>2022-04-10T08:24:39Z</time>
      </trkpt>
      <trkpt lat="47.26656" lon="-1.54209">
        <ele>74</ele>
        <time>2022-04-10T08:24:40Z</time>
      </trkpt>
      <trkpt lat="47.26657" lon="-1.54208">
        <ele>74</ele>
        <time>2022-04-10T08:24:41Z</time>
      </trkpt>
      <trkpt lat="47.26658" lon="-1.54207">
        <ele>75</ele>
        <time>2022-04-10T08:24:42Z</time>
      </trkpt>
      <trkpt lat="47.26659" lon="-1.54206">
        <ele>75</ele>
        <time>2022-04-10T08:24:43Z</time>
      </trkpt>
      <trkpt lat="47.26659" lon="-1.54205">
        <ele>75</ele>
        <time>2022-04-10T08:24:44Z</time>
      </trkpt>
      <trkpt lat="47.2666" lon="-1.54203">
        <ele>75</ele>
        <time>2022-04-10T08:24:45Z</time>
      </trkpt>
      <trkpt lat="47.2666" lon="-1.54202">
        <ele>75</ele>
        <time>2022-04-10T08:24:46Z</time>
      </trkpt>
      <trkpt lat="47.26661" lon="-1.54201">
        <ele>75</ele>
        <time>2022-04-10T08:24:47Z</time>
      </trkpt>
      <trkpt lat="47.26661" lon="-1.54199">
        <ele>75</ele>
        <time>2022-04-10T08:24:48Z</time>
      </trkpt>
      <trkpt lat="47.26662" lon="-1.54198">
        <ele>75</ele>
        <time>2022-04-10T08:24:49Z</time>
      </trkpt>
      <trkpt lat="47.26663" lon="-1.54197">
        <ele>75</ele>
        <time>2022-04-10T08:24:50Z</time>
      </trkpt>
      <trkpt lat="47.26664" lon="-1.54196">
        <ele>75</ele>
        <time>2022-04-10T08:24:51Z</time>
      </trkpt>
      <trkpt lat="47.26665" lon="-1.54195">
        <ele>74</ele>
        <time>2022-04-10T08:24:52Z</time>
      </trkpt>
      <trkpt lat="47.26666" lon="-1.54194">
        <ele>74</ele>
        <time>2022-04-10T08:24:53Z</time>
      </trkpt>
      <trkpt lat="47.26666" lon="-1.54193">
        <ele>73</ele>
        <time>2022-04-10T08:24:54Z</time>
      </trkpt>
      <trkpt lat="47.26667" lon="-1.54192">
        <ele>72</ele>
        <time>2022-04-10T08:24:55Z</time>
      </trkpt>
      <trkpt lat="47.26667" lon="-1.54191">
        <ele>72</ele>
        <time>2022-04-10T08:24:56Z</time>
      </trkpt>
      <trkpt lat="47.26669" lon="-1.54191">
        <ele>71</ele>
        <time>2022-04-10T08:24:57Z</time>
      </trkpt>
      <trkpt lat="47.2667" lon="-1.5419">
        <ele>72</ele>
        <time>2022-04-10T08:24:58Z</time>
      </trkpt>
      <trkpt lat="47.26671" lon="-1.5419">
        <ele>72</ele>
        <time>2022-04-10T08:24:59Z</time>
      </trkpt>
      <trkpt lat="47.26671" lon="-1.54189">
        <ele>73</ele>
        <time>2022-04-10T08:25:00Z</time>
      </trkpt>
      <trkpt lat="47.26672" lon="-1.54189">
        <ele>73</ele>
        <time>2022-04-10T08:25:01Z</time>
      </trkpt>
      <trkpt lat="47.26673" lon="-1.54188">
        <ele>74</ele>
        <time>2022-04-10T08:25:02Z</time>
      </trkpt>
      <trkpt lat="47.26674" lon="-1.54187">
        <ele>75</ele>
        <time>2022-04-10T08:25:03Z</time>
      </trkpt>
      <trkpt lat="47.26674" lon="-1.54187">
        <ele>75</ele>
        <time>2022-04-10T08:25:04Z</time>
      </trkpt>
      <trkpt lat="47.26675" lon="-1.54185">
        <ele>75</ele>
        <time>2022-04-10T08:25:05Z</time>
      </trkpt>
      <trkpt lat="47.26676" lon="-1.54184">
        <ele>75</ele>
        <time>2022-04-10T08:25:06Z</time>
      </trkpt>
      <trkpt lat="47.26677" lon="-1.54183">
        <ele>75</ele>
        <time>2022-04-10T08:25:07Z</time>
      </trkpt>
      <trkpt lat="47.26677" lon="-1.54182">
        <ele>76</ele>
        <time>2022-04-10T08:25:08Z</time>
      </trkpt>
      <trkpt lat="47.26678" lon="-1.54182">
        <ele>76</ele>
        <time>2022-04-10T08:25:09Z</time>
      </trkpt>
      <trkpt lat="47.26679" lon="-1.54181">
        <ele>76</ele>
        <time>2022-04-10T08:25:10Z</time>
      </trkpt>
      <trkpt lat="47.26679" lon="-1.5418">
        <ele>76</ele>
        <time>2022-04-10T08:25:11Z</time>
      </trkpt>
      <trkpt lat="47.2668" lon="-1.54179">
        <ele>76</ele>
        <time>2022-04-10T08:25:12Z</time>
      </trkpt>
      <trkpt lat="47.2668" lon="-1.54179">
        <ele>76</ele>
        <time>2022-04-10T08:25:13Z</time>
      </trkpt>
      <trkpt lat="47.26681" lon="-1.54178">
        <ele>76</ele>
        <time>2022-04-10T08:25:14Z</time>
      </trkpt>
      <trkpt lat="47.26682" lon="-1.54177">
        <ele>77</ele>
        <time>2022-04-10T08:25:15Z</time>
      </trkpt>
      <trkpt lat="47.26683" lon="-1.54176">
        <ele>77</ele>
        <time>2022-04-10T08:25:16Z</time>
      </trkpt>
      <trkpt lat="47.26683" lon="-1.54175">
        <ele>76</ele>
        <time>2022-04-10T08:25:17Z</time>
      </trkpt>
      <trkpt lat="47.26685" lon="-1.54175">
        <ele>77</ele>
        <time>2022-04-10T08:25:18Z</time>
      </trkpt>
      <trkpt lat="47.26686" lon="-1.54174">
        <ele>76</ele>
        <time>2022-04-10T08:25:19Z</time>
      </trkpt>
      <trkpt lat="47.26687" lon="-1.54173">
        <ele>77</ele>
        <time>2022-04-10T08:25:20Z</time>
      </trkpt>
      <trkpt lat="47.26688" lon="-1.54173">
        <ele>76</ele>
        <time>2022-04-10T08:25:21Z</time>
      </trkpt>
      <trkpt lat="47.26688" lon="-1.54171">
        <ele>77</ele>
        <time>2022-04-10T08:25:22Z</time>
      </trkpt>
      <trkpt lat="47.26689" lon="-1.5417">
        <ele>76</ele>
        <time>2022-04-10T08:25:23Z</time>
      </trkpt>
      <trkpt lat="47.26689" lon="-1.54169">
        <ele>76</ele>
        <time>2022-04-10T08:25:24Z</time>
      </trkpt>
      <trkpt lat="47.26689" lon="-1.54169">
        <ele>76</ele>
        <time>2022-04-10T08:25:25Z</time>
      </trkpt>
      <trkpt lat="47.2669" lon="-1.54168">
        <ele>76</ele>
        <time>2022-04-10T08:25:26Z</time>
      </trkpt>
      <trkpt lat="47.2669" lon="-1.54168">
        <ele>76</ele>
        <time>2022-04-10T08:25:27Z</time>
      </trkpt>
      <trkpt lat="47.26691" lon="-1.54167">
        <ele>77</ele>
        <time>2022-04-10T08:25:28Z</time>
      </trkpt>
      <trkpt lat="47.26692" lon="-1.54166">
        <ele>76</ele>
        <time>2022-04-10T08:25:29Z</time>
      </trkpt>
      <trkpt lat="47.26693" lon="-1.54165">
        <ele>77</ele>
        <time>2022-04-10T08:25:30Z</time>
      </trkpt>
      <trkpt lat="47.26694" lon="-1.54163">
        <ele>77</ele>
        <time>2022-04-10T08:25:31Z</time>
      </trkpt>
      <trkpt lat="47.26695" lon="-1.54162">
        <ele>77</ele>
        <time>2022-04-10T08:25:32Z</time>
      </trkpt>
      <trkpt lat="47.26696" lon="-1.54161">
        <ele>77</ele>
        <time>2022-04-10T08:25:33Z</time>
      </trkpt>
      <trkpt lat="47.26697" lon="-1.5416">
        <ele>77</ele>
        <time>2022-04-10T08:25:34Z</time>
      </trkpt>
      <trkpt lat="47.26697" lon="-1.54158">
        <ele>77</ele>
        <time>2022-04-10T08:25:35Z</time>
      </trkpt>
      <trkpt lat="47.26698" lon="-1.54158">
        <ele>78</ele>
        <time>2022-04-10T08:25:36Z</time>
      </trkpt>
      <trkpt lat="47.26699" lon="-1.54157">
        <ele>77</ele>
        <time>2022-04-10T08:25:37Z</time>
      </trkpt>
      <trkpt lat="47.267" lon="-1.54157">
        <ele>77</ele>
        <time>2022-04-10T08:25:38Z</time>
      </trkpt>
      <trkpt lat="47.26701" lon="-1.54157">
        <ele>78</ele>
        <time>2022-04-10T08:25:39Z</time>
      </trkpt>
      <trkpt lat="47.26702" lon="-1.54157">
        <ele>77</ele>
        <time>2022-04-10T08:25:40Z</time>
      </trkpt>
      <trkpt lat="47.26702" lon="-1.54157">
        <ele>77</ele>
        <time>2022-04-10T08:25:41Z</time>
      </trkpt>
      <trkpt lat="47.26702" lon="-1.54157">
        <ele>77</ele>
        <time>2022-04-10T08:25:42Z</time>
      </trkpt>
      <trkpt lat="47.26705" lon="-1.54156">
        <ele>78</ele>
        <time>2022-04-10T08:25:43Z</time>
      </trkpt>
      <trkpt lat="47.26706" lon="-1.54155">
        <ele>78</ele>
        <time>2022-04-10T08:25:44Z</time>
      </trkpt>
      <trkpt lat="47.26707" lon="-1.54154">
        <ele>78</ele>
        <time>2022-04-10T08:25:45Z</time>
      </trkpt>
      <trkpt lat="47.26708" lon="-1.54153">
        <ele>79</ele>
        <time>2022-04-10T08:25:46Z</time>
      </trkpt>
      <trkpt lat="47.26708" lon="-1.54153">
        <ele>79</ele>
        <time>2022-04-10T08:25:47Z</time>
      </trkpt>
      <trkpt lat="47.2671" lon="-1.54151">
        <ele>79</ele>
        <time>2022-04-10T08:25:48Z</time>
      </trkpt>
      <trkpt lat="47.26711" lon="-1.5415">
        <ele>79</ele>
        <time>2022-04-10T08:25:49Z</time>
      </trkpt>
      <trkpt lat="47.26712" lon="-1.5415">
        <ele>79</ele>
        <time>2022-04-10T08:25:50Z</time>
      </trkpt>
      <trkpt lat="47.26712" lon="-1.5415">
        <ele>79</ele>
        <time>2022-04-10T08:25:51Z</time>
      </trkpt>
      <trkpt lat="47.26712" lon="-1.54149">
        <ele>79</ele>
        <time>2022-04-10T08:25:52Z</time>
      </trkpt>
      <trkpt lat="47.26713" lon="-1.54148">
        <ele>79</ele>
        <time>2022-04-10T08:25:53Z</time>
      </trkpt>
      <trkpt lat="47.26713" lon="-1.54148">
        <ele>79</ele>
        <time>2022-04-10T08:25:54Z</time>
      </trkpt>
      <trkpt lat="47.26713" lon="-1.54148">
        <ele>79</ele>
        <time>2022-04-10T08:25:55Z</time>
      </trkpt>
      <trkpt lat="47.26715" lon="-1.54144">
        <ele>78</ele>
        <time>2022-04-10T08:25:56Z</time>
      </trkpt>
      <trkpt lat="47.26715" lon="-1.54143">
        <ele>78</ele>
        <time>2022-04-10T08:25:57Z</time>
      </trkpt>
      <trkpt lat="47.26716" lon="-1.54141">
        <ele>77</ele>
        <time>2022-04-10T08:25:58Z</time>
      </trkpt>
      <trkpt lat="47.26717" lon="-1.5414">
        <ele>76</ele>
        <time>2022-04-10T08:25:59Z</time>
      </trkpt>
      <trkpt lat="47.26717" lon="-1.5414">
        <ele>76</ele>
        <time>2022-04-10T08:26:00Z</time>
      </trkpt>
      <trkpt lat="47.26719" lon="-1.54138">
        <ele>76</ele>
        <time>2022-04-10T08:26:01Z</time>
      </trkpt>
      <trkpt lat="47.2672" lon="-1.54137">
        <ele>77</ele>
        <time>2022-04-10T08:26:02Z</time>
      </trkpt>
      <trkpt lat="47.26721" lon="-1.54137">
        <ele>77</ele>
        <time>2022-04-10T08:26:03Z</time>
      </trkpt>
      <trkpt lat="47.26722" lon="-1.54136">
        <ele>76</ele>
        <time>2022-04-10T08:26:04Z</time>
      </trkpt>
      <trkpt lat="47.26723" lon="-1.54135">
        <ele>76</ele>
        <time>2022-04-10T08:26:05Z</time>
      </trkpt>
      <trkpt lat="47.26724" lon="-1.54133">
        <ele>76</ele>
        <time>2022-04-10T08:26:06Z</time>
      </trkpt>
      <trkpt lat="47.26725" lon="-1.54132">
        <ele>76</ele>
        <time>2022-04-10T08:26:07Z</time>
      </trkpt>
      <trkpt lat="47.26726" lon="-1.54131">
        <ele>76</ele>
        <time>2022-04-10T08:26:08Z</time>
      </trkpt>
      <trkpt lat="47.26727" lon="-1.54131">
        <ele>75</ele>
        <time>2022-04-10T08:26:09Z</time>
      </trkpt>
      <trkpt lat="47.26727" lon="-1.5413">
        <ele>75</ele>
        <time>2022-04-10T08:26:10Z</time>
      </trkpt>
      <trkpt lat="47.26727" lon="-1.54128">
        <ele>75</ele>
        <time>2022-04-10T08:26:11Z</time>
      </trkpt>
      <trkpt lat="47.26728" lon="-1.54127">
        <ele>74</ele>
        <time>2022-04-10T08:26:12Z</time>
      </trkpt>
      <trkpt lat="47.26728" lon="-1.54127">
        <ele>74</ele>
        <time>2022-04-10T08:26:13Z</time>
      </trkpt>
      <trkpt lat="47.26728" lon="-1.54127">
        <ele>74</ele>
        <time>2022-04-10T08:26:14Z</time>
      </trkpt>
      <trkpt lat="47.2673" lon="-1.54125">
        <ele>75</ele>
        <time>2022-04-10T08:26:15Z</time>
      </trkpt>
      <trkpt lat="47.2673" lon="-1.54124">
        <ele>75</ele>
        <time>2022-04-10T08:26:16Z</time>
      </trkpt>
      <trkpt lat="47.26731" lon="-1.54123">
        <ele>76</ele>
        <time>2022-04-10T08:26:17Z</time>
      </trkpt>
      <trkpt lat="47.26732" lon="-1.54122">
        <ele>77</ele>
        <time>2022-04-10T08:26:18Z</time>
      </trkpt>
      <trkpt lat="47.26732" lon="-1.54122">
        <ele>77</ele>
        <time>2022-04-10T08:26:19Z</time>
      </trkpt>
      <trkpt lat="47.26732" lon="-1.54122">
        <ele>77</ele>
        <time>2022-04-10T08:26:20Z</time>
      </trkpt>
      <trkpt lat="47.26734" lon="-1.54119">
        <ele>77</ele>
        <time>2022-04-10T08:26:21Z</time>
      </trkpt>
      <trkpt lat="47.26735" lon="-1.54118">
        <ele>76</ele>
        <time>2022-04-10T08:26:22Z</time>
      </trkpt>
      <trkpt lat="47.26735" lon="-1.54116">
        <ele>76</ele>
        <time>2022-04-10T08:26:23Z</time>
      </trkpt>
      <trkpt lat="47.26736" lon="-1.54114">
        <ele>76</ele>
        <time>2022-04-10T08:26:24Z</time>
      </trkpt>
      <trkpt lat="47.26736" lon="-1.54114">
        <ele>76</ele>
        <time>2022-04-10T08:26:25Z</time>
      </trkpt>
      <trkpt lat="47.26736" lon="-1.54114">
        <ele>76</ele>
        <time>2022-04-10T08:26:26Z</time>
      </trkpt>
      <trkpt lat="47.26737" lon="-1.54111">
        <ele>77</ele>
        <time>2022-04-10T08:26:27Z</time>
      </trkpt>
      <trkpt lat="47.26738" lon="-1.5411">
        <ele>77</ele>
        <time>2022-04-10T08:26:28Z</time>
      </trkpt>
      <trkpt lat="47.26738" lon="-1.5411">
        <ele>77</ele>
        <time>2022-04-10T08:26:29Z</time>
      </trkpt>
      <trkpt lat="47.2674" lon="-1.5411">
        <ele>76</ele>
        <time>2022-04-10T08:26:30Z</time>
      </trkpt>
      <trkpt lat="47.26741" lon="-1.54109">
        <ele>76</ele>
        <time>2022-04-10T08:26:31Z</time>
      </trkpt>
      <trkpt lat="47.26742" lon="-1.54109">
        <ele>76</ele>
        <time>2022-04-10T08:26:32Z</time>
      </trkpt>
      <trkpt lat="47.26744" lon="-1.54107">
        <ele>76</ele>
        <time>2022-04-10T08:26:33Z</time>
      </trkpt>
      <trkpt lat="47.26745" lon="-1.54107">
        <ele>76</ele>
        <time>2022-04-10T08:26:34Z</time>
      </trkpt>
      <trkpt lat="47.26746" lon="-1.54107">
        <ele>76</ele>
        <time>2022-04-10T08:26:35Z</time>
      </trkpt>
      <trkpt lat="47.26747" lon="-1.54106">
        <ele>75</ele>
        <time>2022-04-10T08:26:36Z</time>
      </trkpt>
      <trkpt lat="47.26748" lon="-1.54105">
        <ele>75</ele>
        <time>2022-04-10T08:26:37Z</time>
      </trkpt>
      <trkpt lat="47.26749" lon="-1.54104">
        <ele>75</ele>
        <time>2022-04-10T08:26:38Z</time>
      </trkpt>
      <trkpt lat="47.2675" lon="-1.54103">
        <ele>75</ele>
        <time>2022-04-10T08:26:39Z</time>
      </trkpt>
      <trkpt lat="47.26751" lon="-1.54102">
        <ele>75</ele>
        <time>2022-04-10T08:26:40Z</time>
      </trkpt>
      <trkpt lat="47.26752" lon="-1.54101">
        <ele>75</ele>
        <time>2022-04-10T08:26:41Z</time>
      </trkpt>
      <trkpt lat="47.26753" lon="-1.541">
        <ele>75</ele>
        <time>2022-04-10T08:26:42Z</time>
      </trkpt>
      <trkpt lat="47.26754" lon="-1.54099">
        <ele>76</ele>
        <time>2022-04-10T08:26:43Z</time>
      </trkpt>
      <trkpt lat="47.26755" lon="-1.54098">
        <ele>77</ele>
        <time>2022-04-10T08:26:44Z</time>
      </trkpt>
      <trkpt lat="47.26756" lon="-1.54097">
        <ele>77</ele>
        <time>2022-04-10T08:26:45Z</time>
      </trkpt>
      <trkpt lat="47.26756" lon="-1.54097">
        <ele>77</ele>
        <time>2022-04-10T08:26:46Z</time>
      </trkpt>
      <trkpt lat="47.26756" lon="-1.54097">
        <ele>77</ele>
        <time>2022-04-10T08:26:47Z</time>
      </trkpt>
      <trkpt lat="47.26758" lon="-1.54095">
        <ele>77</ele>
        <time>2022-04-10T08:26:48Z</time>
      </trkpt>
      <trkpt lat="47.26759" lon="-1.54094">
        <ele>77</ele>
        <time>2022-04-10T08:26:49Z</time>
      </trkpt>
      <trkpt lat="47.2676" lon="-1.54093">
        <ele>77</ele>
        <time>2022-04-10T08:26:50Z</time>
      </trkpt>
      <trkpt lat="47.26761" lon="-1.54092">
        <ele>77</ele>
        <time>2022-04-10T08:26:51Z</time>
      </trkpt>
      <trkpt lat="47.26761" lon="-1.54092">
        <ele>77</ele>
        <time>2022-04-10T08:26:52Z</time>
      </trkpt>
      <trkpt lat="47.26761" lon="-1.54092">
        <ele>77</ele>
        <time>2022-04-10T08:26:53Z</time>
      </trkpt>
      <trkpt lat="47.26763" lon="-1.54092">
        <ele>77</ele>
        <time>2022-04-10T08:26:54Z</time>
      </trkpt>
      <trkpt lat="47.26764" lon="-1.54091">
        <ele>76</ele>
        <time>2022-04-10T08:26:55Z</time>
      </trkpt>
      <trkpt lat="47.26765" lon="-1.5409">
        <ele>76</ele>
        <time>2022-04-10T08:26:56Z</time>
      </trkpt>
      <trkpt lat="47.26766" lon="-1.54089">
        <ele>76</ele>
        <time>2022-04-10T08:26:57Z</time>
      </trkpt>
      <trkpt lat="47.26767" lon="-1.54089">
        <ele>76</ele>
        <time>2022-04-10T08:26:58Z</time>
      </trkpt>
      <trkpt lat="47.26768" lon="-1.54087">
        <ele>77</ele>
        <time>2022-04-10T08:26:59Z</time>
      </trkpt>
      <trkpt lat="47.26769" lon="-1.54086">
        <ele>77</ele>
        <time>2022-04-10T08:27:00Z</time>
      </trkpt>
      <trkpt lat="47.2677" lon="-1.54085">
        <ele>77</ele>
        <time>2022-04-10T08:27:01Z</time>
      </trkpt>
      <trkpt lat="47.2677" lon="-1.54084">
        <ele>77</ele>
        <time>2022-04-10T08:27:02Z</time>
      </trkpt>
      <trkpt lat="47.2677" lon="-1.54084">
        <ele>77</ele>
        <time>2022-04-10T08:27:03Z</time>
      </trkpt>
      <trkpt lat="47.2677" lon="-1.54084">
        <ele>77</ele>
        <time>2022-04-10T08:27:04Z</time>
      </trkpt>
      <trkpt lat="47.26772" lon="-1.54081">
        <ele>77</ele>
        <time>2022-04-10T08:27:05Z</time>
      </trkpt>
      <trkpt lat="47.26773" lon="-1.54081">
        <ele>77</ele>
        <time>2022-04-10T08:27:06Z</time>
      </trkpt>
      <trkpt lat="47.26774" lon="-1.5408">
        <ele>77</ele>
        <time>2022-04-10T08:27:07Z</time>
      </trkpt>
      <trkpt lat="47.26775" lon="-1.5408">
        <ele>78</ele>
        <time>2022-04-10T08:27:08Z</time>
      </trkpt>
      <trkpt lat="47.26775" lon="-1.5408">
        <ele>78</ele>
        <time>2022-04-10T08:27:09Z</time>
      </trkpt>
      <trkpt lat="47.26776" lon="-1.54077">
        <ele>78</ele>
        <time>2022-04-10T08:27:10Z</time>
      </trkpt>
      <trkpt lat="47.26777" lon="-1.54076">
        <ele>78</ele>
        <time>2022-04-10T08:27:11Z</time>
      </trkpt>
      <trkpt lat="47.26778" lon="-1.54076">
        <ele>78</ele>
        <time>2022-04-10T08:27:12Z</time>
      </trkpt>
      <trkpt lat="47.2678" lon="-1.54075">
        <ele>78</ele>
        <time>2022-04-10T08:27:13Z</time>
      </trkpt>
      <trkpt lat="47.26781" lon="-1.54074">
        <ele>78</ele>
        <time>2022-04-10T08:27:14Z</time>
      </trkpt>
      <trkpt lat="47.26782" lon="-1.54072">
        <ele>78</ele>
        <time>2022-04-10T08:27:15Z</time>
      </trkpt>
      <trkpt lat="47.26783" lon="-1.54071">
        <ele>79</ele>
        <time>2022-04-10T08:27:16Z</time>
      </trkpt>
      <trkpt lat="47.26783" lon="-1.5407">
        <ele>78</ele>
        <time>2022-04-10T08:27:17Z</time>
      </trkpt>
      <trkpt lat="47.26784" lon="-1.54069">
        <ele>78</ele>
        <time>2022-04-10T08:27:18Z</time>
      </trkpt>
      <trkpt lat="47.26784" lon="-1.54069">
        <ele>78</ele>
        <time>2022-04-10T08:27:19Z</time>
      </trkpt>
      <trkpt lat="47.26784" lon="-1.54069">
        <ele>78</ele>
        <time>2022-04-10T08:27:20Z</time>
      </trkpt>
      <trkpt lat="47.26785" lon="-1.54066">
        <ele>77</ele>
        <time>2022-04-10T08:27:21Z</time>
      </trkpt>
      <trkpt lat="47.26786" lon="-1.54065">
        <ele>77</ele>
        <time>2022-04-10T08:27:22Z</time>
      </trkpt>
      <trkpt lat="47.26787" lon="-1.54065">
        <ele>77</ele>
        <time>2022-04-10T08:27:23Z</time>
      </trkpt>
      <trkpt lat="47.26788" lon="-1.54065">
        <ele>76</ele>
        <time>2022-04-10T08:27:24Z</time>
      </trkpt>
      <trkpt lat="47.26788" lon="-1.54065">
        <ele>76</ele>
        <time>2022-04-10T08:27:25Z</time>
      </trkpt>
      <trkpt lat="47.26788" lon="-1.54065">
        <ele>76</ele>
        <time>2022-04-10T08:27:26Z</time>
      </trkpt>
      <trkpt lat="47.2679" lon="-1.54063">
        <ele>77</ele>
        <time>2022-04-10T08:27:27Z</time>
      </trkpt>
      <trkpt lat="47.26791" lon="-1.54062">
        <ele>77</ele>
        <time>2022-04-10T08:27:28Z</time>
      </trkpt>
      <trkpt lat="47.26792" lon="-1.54062">
        <ele>77</ele>
        <time>2022-04-10T08:27:29Z</time>
      </trkpt>
      <trkpt lat="47.26793" lon="-1.54061">
        <ele>77</ele>
        <time>2022-04-10T08:27:30Z</time>
      </trkpt>
      <trkpt lat="47.26794" lon="-1.54061">
        <ele>77</ele>
        <time>2022-04-10T08:27:31Z</time>
      </trkpt>
      <trkpt lat="47.26794" lon="-1.54061">
        <ele>77</ele>
        <time>2022-04-10T08:27:32Z</time>
      </trkpt>
      <trkpt lat="47.26794" lon="-1.54061">
        <ele>77</ele>
        <time>2022-04-10T08:27:33Z</time>
      </trkpt>
      <trkpt lat="47.26797" lon="-1.54058">
        <ele>77</ele>
        <time>2022-04-10T08:27:34Z</time>
      </trkpt>
      <trkpt lat="47.26798" lon="-1.54057">
        <ele>76</ele>
        <time>2022-04-10T08:27:35Z</time>
      </trkpt>
      <trkpt lat="47.26799" lon="-1.54056">
        <ele>76</ele>
        <time>2022-04-10T08:27:36Z</time>
      </trkpt>
      <trkpt lat="47.268" lon="-1.54055">
        <ele>77</ele>
        <time>2022-04-10T08:27:37Z</time>
      </trkpt>
      <trkpt lat="47.268" lon="-1.54055">
        <ele>77</ele>
        <time>2022-04-10T08:27:38Z</time>
      </trkpt>
      <trkpt lat="47.268" lon="-1.54055">
        <ele>77</ele>
        <time>2022-04-10T08:27:39Z</time>
      </trkpt>
      <trkpt lat="47.26802" lon="-1.54053">
        <ele>77</ele>
        <time>2022-04-10T08:27:40Z</time>
      </trkpt>
      <trkpt lat="47.26803" lon="-1.54052">
        <ele>77</ele>
        <time>2022-04-10T08:27:41Z</time>
      </trkpt>
      <trkpt lat="47.26804" lon="-1.54052">
        <ele>77</ele>
        <time>2022-04-10T08:27:42Z</time>
      </trkpt>
      <trkpt lat="47.26805" lon="-1.54051">
        <ele>77</ele>
        <time>2022-04-10T08:27:43Z</time>
      </trkpt>
      <trkpt lat="47.26806" lon="-1.5405">
        <ele>78</ele>
        <time>2022-04-10T08:27:44Z</time>
      </trkpt>
      <trkpt lat="47.26807" lon="-1.54049">
        <ele>77</ele>
        <time>2022-04-10T08:27:45Z</time>
      </trkpt>
      <trkpt lat="47.26808" lon="-1.54048">
        <ele>77</ele>
        <time>2022-04-10T08:27:46Z</time>
      </trkpt>
      <trkpt lat="47.26809" lon="-1.54046">
        <ele>77</ele>
        <time>2022-04-10T08:27:47Z</time>
      </trkpt>
      <trkpt lat="47.2681" lon="-1.54046">
        <ele>77</ele>
        <time>2022-04-10T08:27:48Z</time>
      </trkpt>
      <trkpt lat="47.26811" lon="-1.54044">
        <ele>77</ele>
        <time>2022-04-10T08:27:49Z</time>
      </trkpt>
      <trkpt lat="47.26811" lon="-1.54044">
        <ele>77</ele>
        <time>2022-04-10T08:27:50Z</time>
      </trkpt>
      <trkpt lat="47.26811" lon="-1.54044">
        <ele>77</ele>
        <time>2022-04-10T08:27:51Z</time>
      </trkpt>
      <trkpt lat="47.26813" lon="-1.54042">
        <ele>77</ele>
        <time>2022-04-10T08:27:52Z</time>
      </trkpt>
      <trkpt lat="47.26814" lon="-1.54041">
        <ele>77</ele>
        <time>2022-04-10T08:27:53Z</time>
      </trkpt>
      <trkpt lat="47.26815" lon="-1.5404">
        <ele>77</ele>
        <time>2022-04-10T08:27:54Z</time>
      </trkpt>
      <trkpt lat="47.26815" lon="-1.54039">
        <ele>77</ele>
        <time>2022-04-10T08:27:55Z</time>
      </trkpt>
      <trkpt lat="47.26815" lon="-1.54039">
        <ele>77</ele>
        <time>2022-04-10T08:27:56Z</time>
      </trkpt>
      <trkpt lat="47.26815" lon="-1.54039">
        <ele>77</ele>
        <time>2022-04-10T08:27:57Z</time>
      </trkpt>
      <trkpt lat="47.26818" lon="-1.54036">
        <ele>77</ele>
        <time>2022-04-10T08:27:58Z</time>
      </trkpt>
      <trkpt lat="47.26819" lon="-1.54035">
        <ele>78</ele>
        <time>2022-04-10T08:27:59Z</time>
      </trkpt>
      <trkpt lat="47.2682" lon="-1.54034">
        <ele>78</ele>
        <time>2022-04-10T08:28:00Z</time>
      </trkpt>
      <trkpt lat="47.26821" lon="-1.54032">
        <ele>78</ele>
        <time>2022-04-10T08:28:01Z</time>
      </trkpt>
      <trkpt lat="47.26822" lon="-1.5403">
        <ele>78</ele>
        <time>2022-04-10T08:28:02Z</time>
      </trkpt>
      <trkpt lat="47.26822" lon="-1.54029">
        <ele>77</ele>
        <time>2022-04-10T08:28:03Z</time>
      </trkpt>
      <trkpt lat="47.26823" lon="-1.54028">
        <ele>76</ele>
        <time>2022-04-10T08:28:04Z</time>
      </trkpt>
      <trkpt lat="47.26825" lon="-1.54026">
        <ele>76</ele>
        <time>2022-04-10T08:28:05Z</time>
      </trkpt>
      <trkpt lat="47.26826" lon="-1.54026">
        <ele>77</ele>
        <time>2022-04-10T08:28:06Z</time>
      </trkpt>
      <trkpt lat="47.26827" lon="-1.54025">
        <ele>77</ele>
        <time>2022-04-10T08:28:07Z</time>
      </trkpt>
      <trkpt lat="47.26828" lon="-1.54024">
        <ele>76</ele>
        <time>2022-04-10T08:28:08Z</time>
      </trkpt>
      <trkpt lat="47.26829" lon="-1.54024">
        <ele>76</ele>
        <time>2022-04-10T08:28:09Z</time>
      </trkpt>
      <trkpt lat="47.2683" lon="-1.54023">
        <ele>77</ele>
        <time>2022-04-10T08:28:10Z</time>
      </trkpt>
      <trkpt lat="47.2683" lon="-1.54022">
        <ele>76</ele>
        <time>2022-04-10T08:28:11Z</time>
      </trkpt>
      <trkpt lat="47.26831" lon="-1.54021">
        <ele>76</ele>
        <time>2022-04-10T08:28:12Z</time>
      </trkpt>
      <trkpt lat="47.26831" lon="-1.5402">
        <ele>76</ele>
        <time>2022-04-10T08:28:13Z</time>
      </trkpt>
      <trkpt lat="47.26831" lon="-1.5402">
        <ele>76</ele>
        <time>2022-04-10T08:28:14Z</time>
      </trkpt>
      <trkpt lat="47.26831" lon="-1.5402">
        <ele>76</ele>
        <time>2022-04-10T08:28:15Z</time>
      </trkpt>
      <trkpt lat="47.26834" lon="-1.54018">
        <ele>76</ele>
        <time>2022-04-10T08:28:16Z</time>
      </trkpt>
      <trkpt lat="47.26835" lon="-1.54017">
        <ele>76</ele>
        <time>2022-04-10T08:28:17Z</time>
      </trkpt>
      <trkpt lat="47.26836" lon="-1.54016">
        <ele>75</ele>
        <time>2022-04-10T08:28:18Z</time>
      </trkpt>
      <trkpt lat="47.26838" lon="-1.54015">
        <ele>75</ele>
        <time>2022-04-10T08:28:19Z</time>
      </trkpt>
      <trkpt lat="47.26839" lon="-1.54014">
        <ele>75</ele>
        <time>2022-04-10T08:28:20Z</time>
      </trkpt>
      <trkpt lat="47.2684" lon="-1.54013">
        <ele>76</ele>
        <time>2022-04-10T08:28:21Z</time>
      </trkpt>
      <trkpt lat="47.2684" lon="-1.54013">
        <ele>76</ele>
        <time>2022-04-10T08:28:22Z</time>
      </trkpt>
      <trkpt lat="47.2684" lon="-1.54013">
        <ele>76</ele>
        <time>2022-04-10T08:28:23Z</time>
      </trkpt>
      <trkpt lat="47.26843" lon="-1.54011">
        <ele>76</ele>
        <time>2022-04-10T08:28:24Z</time>
      </trkpt>
      <trkpt lat="47.26843" lon="-1.54009">
        <ele>76</ele>
        <time>2022-04-10T08:28:25Z</time>
      </trkpt>
      <trkpt lat="47.26844" lon="-1.54008">
        <ele>76</ele>
        <time>2022-04-10T08:28:26Z</time>
      </trkpt>
      <trkpt lat="47.26844" lon="-1.54007">
        <ele>77</ele>
        <time>2022-04-10T08:28:27Z</time>
      </trkpt>
      <trkpt lat="47.26844" lon="-1.54007">
        <ele>77</ele>
        <time>2022-04-10T08:28:28Z</time>
      </trkpt>
      <trkpt lat="47.26844" lon="-1.54007">
        <ele>77</ele>
        <time>2022-04-10T08:28:29Z</time>
      </trkpt>
      <trkpt lat="47.26847" lon="-1.54005">
        <ele>76</ele>
        <time>2022-04-10T08:28:30Z</time>
      </trkpt>
      <trkpt lat="47.26848" lon="-1.54004">
        <ele>77</ele>
        <time>2022-04-10T08:28:31Z</time>
      </trkpt>
      <trkpt lat="47.26849" lon="-1.54003">
        <ele>77</ele>
        <time>2022-04-10T08:28:32Z</time>
      </trkpt>
      <trkpt lat="47.26849" lon="-1.54002">
        <ele>77</ele>
        <time>2022-04-10T08:28:33Z</time>
      </trkpt>
      <trkpt lat="47.26849" lon="-1.54002">
        <ele>77</ele>
        <time>2022-04-10T08:28:34Z</time>
      </trkpt>
      <trkpt lat="47.26849" lon="-1.54002">
        <ele>77</ele>
        <time>2022-04-10T08:28:35Z</time>
      </trkpt>
      <trkpt lat="47.26851" lon="-1.54001">
        <ele>78</ele>
        <time>2022-04-10T08:28:36Z</time>
      </trkpt>
      <trkpt lat="47.26852" lon="-1.54">
        <ele>78</ele>
        <time>2022-04-10T08:28:37Z</time>
      </trkpt>
      <trkpt lat="47.26853" lon="-1.53999">
        <ele>78</ele>
        <time>2022-04-10T08:28:38Z</time>
      </trkpt>
      <trkpt lat="47.26855" lon="-1.53998">
        <ele>77</ele>
        <time>2022-04-10T08:28:39Z</time>
      </trkpt>
      <trkpt lat="47.26856" lon="-1.53998">
        <ele>77</ele>
        <time>2022-04-10T08:28:40Z</time>
      </trkpt>
      <trkpt lat="47.26857" lon="-1.53997">
        <ele>77</ele>
        <time>2022-04-10T08:28:41Z</time>
      </trkpt>
      <trkpt lat="47.26858" lon="-1.53997">
        <ele>77</ele>
        <time>2022-04-10T08:28:42Z</time>
      </trkpt>
      <trkpt lat="47.26859" lon="-1.53995">
        <ele>77</ele>
        <time>2022-04-10T08:28:43Z</time>
      </trkpt>
      <trkpt lat="47.26859" lon="-1.53995">
        <ele>77</ele>
        <time>2022-04-10T08:28:44Z</time>
      </trkpt>
      <trkpt lat="47.26859" lon="-1.53995">
        <ele>77</ele>
        <time>2022-04-10T08:28:45Z</time>
      </trkpt>
      <trkpt lat="47.26861" lon="-1.53993">
        <ele>78</ele>
        <time>2022-04-10T08:28:46Z</time>
      </trkpt>
      <trkpt lat="47.26862" lon="-1.53992">
        <ele>78</ele>
        <time>2022-04-10T08:28:47Z</time>
      </trkpt>
      <trkpt lat="47.26863" lon="-1.53992">
        <ele>78</ele>
        <time>2022-04-10T08:28:48Z</time>
      </trkpt>
      <trkpt lat="47.26864" lon="-1.53991">
        <ele>78</ele>
        <time>2022-04-10T08:28:49Z</time>
      </trkpt>
      <trkpt lat="47.26864" lon="-1.53991">
        <ele>78</ele>
        <time>2022-04-10T08:28:50Z</time>
      </trkpt>
      <trkpt lat="47.26864" lon="-1.53991">
        <ele>78</ele>
        <time>2022-04-10T08:28:51Z</time>
      </trkpt>
      <trkpt lat="47.26866" lon="-1.53989">
        <ele>78</ele>
        <time>2022-04-10T08:28:52Z</time>
      </trkpt>
      <trkpt lat="47.26867" lon="-1.53988">
        <ele>78</ele>
        <time>2022-04-10T08:28:53Z</time>
      </trkpt>
      <trkpt lat="47.26867" lon="-1.53988">
        <ele>78</ele>
        <time>2022-04-10T08:28:54Z</time>
      </trkpt>
      <trkpt lat="47.26868" lon="-1.53987">
        <ele>77</ele>
        <time>2022-04-10T08:28:55Z</time>
      </trkpt>
      <trkpt lat="47.26868" lon="-1.53987">
        <ele>77</ele>
        <time>2022-04-10T08:28:56Z</time>
      </trkpt>
      <trkpt lat="47.26868" lon="-1.53987">
        <ele>77</ele>
        <time>2022-04-10T08:28:57Z</time>
      </trkpt>
      <trkpt lat="47.26871" lon="-1.53985">
        <ele>78</ele>
        <time>2022-04-10T08:28:58Z</time>
      </trkpt>
      <trkpt lat="47.26872" lon="-1.53984">
        <ele>77</ele>
        <time>2022-04-10T08:28:59Z</time>
      </trkpt>
      <trkpt lat="47.26874" lon="-1.53983">
        <ele>77</ele>
        <time>2022-04-10T08:29:00Z</time>
      </trkpt>
      <trkpt lat="47.26875" lon="-1.53982">
        <ele>78</ele>
        <time>2022-04-10T08:29:01Z</time>
      </trkpt>
      <trkpt lat="47.26876" lon="-1.53982">
        <ele>77</ele>
        <time>2022-04-10T08:29:02Z</time>
      </trkpt>
      <trkpt lat="47.26876" lon="-1.53981">
        <ele>77</ele>
        <time>2022-04-10T08:29:03Z</time>
      </trkpt>
      <trkpt lat="47.26876" lon="-1.53981">
        <ele>77</ele>
        <time>2022-04-10T08:29:04Z</time>
      </trkpt>
      <trkpt lat="47.26876" lon="-1.53981">
        <ele>77</ele>
        <time>2022-04-10T08:29:05Z</time>
      </trkpt>
      <trkpt lat="47.26878" lon="-1.5398">
        <ele>79</ele>
        <time>2022-04-10T08:29:06Z</time>
      </trkpt>
      <trkpt lat="47.2688" lon="-1.5398">
        <ele>79</ele>
        <time>2022-04-10T08:29:07Z</time>
      </trkpt>
      <trkpt lat="47.26882" lon="-1.5398">
        <ele>79</ele>
        <time>2022-04-10T08:29:08Z</time>
      </trkpt>
      <trkpt lat="47.26883" lon="-1.5398">
        <ele>79</ele>
        <time>2022-04-10T08:29:09Z</time>
      </trkpt>
      <trkpt lat="47.26883" lon="-1.5398">
        <ele>79</ele>
        <time>2022-04-10T08:29:10Z</time>
      </trkpt>
      <trkpt lat="47.26883" lon="-1.5398">
        <ele>79</ele>
        <time>2022-04-10T08:29:11Z</time>
      </trkpt>
      <trkpt lat="47.26886" lon="-1.53979">
        <ele>78</ele>
        <time>2022-04-10T08:29:12Z</time>
      </trkpt>
      <trkpt lat="47.26887" lon="-1.53979">
        <ele>79</ele>
        <time>2022-04-10T08:29:13Z</time>
      </trkpt>
      <trkpt lat="47.26888" lon="-1.53979">
        <ele>79</ele>
        <time>2022-04-10T08:29:14Z</time>
      </trkpt>
      <trkpt lat="47.26889" lon="-1.53979">
        <ele>79</ele>
        <time>2022-04-10T08:29:15Z</time>
      </trkpt>
      <trkpt lat="47.26889" lon="-1.53979">
        <ele>79</ele>
        <time>2022-04-10T08:29:16Z</time>
      </trkpt>
      <trkpt lat="47.26889" lon="-1.53979">
        <ele>79</ele>
        <time>2022-04-10T08:29:17Z</time>
      </trkpt>
      <trkpt lat="47.26893" lon="-1.53978">
        <ele>79</ele>
        <time>2022-04-10T08:29:18Z</time>
      </trkpt>
      <trkpt lat="47.26894" lon="-1.53979">
        <ele>79</ele>
        <time>2022-04-10T08:29:19Z</time>
      </trkpt>
      <trkpt lat="47.26895" lon="-1.53979">
        <ele>79</ele>
        <time>2022-04-10T08:29:20Z</time>
      </trkpt>
      <trkpt lat="47.26896" lon="-1.53978">
        <ele>80</ele>
        <time>2022-04-10T08:29:21Z</time>
      </trkpt>
      <trkpt lat="47.26897" lon="-1.53978">
        <ele>79</ele>
        <time>2022-04-10T08:29:22Z</time>
      </trkpt>
      <trkpt lat="47.26899" lon="-1.53978">
        <ele>80</ele>
        <time>2022-04-10T08:29:23Z</time>
      </trkpt>
      <trkpt lat="47.269" lon="-1.53978">
        <ele>80</ele>
        <time>2022-04-10T08:29:24Z</time>
      </trkpt>
      <trkpt lat="47.26901" lon="-1.53978">
        <ele>81</ele>
        <time>2022-04-10T08:29:25Z</time>
      </trkpt>
      <trkpt lat="47.26903" lon="-1.53977">
        <ele>81</ele>
        <time>2022-04-10T08:29:26Z</time>
      </trkpt>
      <trkpt lat="47.26904" lon="-1.53977">
        <ele>81</ele>
        <time>2022-04-10T08:29:27Z</time>
      </trkpt>
      <trkpt lat="47.26905" lon="-1.53976">
        <ele>81</ele>
        <time>2022-04-10T08:29:28Z</time>
      </trkpt>
      <trkpt lat="47.26907" lon="-1.53975">
        <ele>81</ele>
        <time>2022-04-10T08:29:29Z</time>
      </trkpt>
      <trkpt lat="47.26908" lon="-1.53974">
        <ele>81</ele>
        <time>2022-04-10T08:29:30Z</time>
      </trkpt>
      <trkpt lat="47.26908" lon="-1.53974">
        <ele>81</ele>
        <time>2022-04-10T08:29:31Z</time>
      </trkpt>
      <trkpt lat="47.2691" lon="-1.53973">
        <ele>81</ele>
        <time>2022-04-10T08:29:32Z</time>
      </trkpt>
      <trkpt lat="47.26911" lon="-1.53973">
        <ele>82</ele>
        <time>2022-04-10T08:29:33Z</time>
      </trkpt>
      <trkpt lat="47.26912" lon="-1.53973">
        <ele>82</ele>
        <time>2022-04-10T08:29:34Z</time>
      </trkpt>
      <trkpt lat="47.26914" lon="-1.53973">
        <ele>82</ele>
        <time>2022-04-10T08:29:35Z</time>
      </trkpt>
      <trkpt lat="47.26914" lon="-1.53973">
        <ele>82</ele>
        <time>2022-04-10T08:29:36Z</time>
      </trkpt>
      <trkpt lat="47.26914" lon="-1.53973">
        <ele>82</ele>
        <time>2022-04-10T08:29:37Z</time>
      </trkpt>
      <trkpt lat="47.26916" lon="-1.53972">
        <ele>81</ele>
        <time>2022-04-10T08:29:38Z</time>
      </trkpt>
      <trkpt lat="47.26917" lon="-1.53972">
        <ele>81</ele>
        <time>2022-04-10T08:29:39Z</time>
      </trkpt>
      <trkpt lat="47.26918" lon="-1.53971">
        <ele>81</ele>
        <time>2022-04-10T08:29:40Z</time>
      </trkpt>
      <trkpt lat="47.26919" lon="-1.53971">
        <ele>81</ele>
        <time>2022-04-10T08:29:41Z</time>
      </trkpt>
      <trkpt lat="47.26919" lon="-1.53971">
        <ele>81</ele>
        <time>2022-04-10T08:29:42Z</time>
      </trkpt>
      <trkpt lat="47.26919" lon="-1.53971">
        <ele>81</ele>
        <time>2022-04-10T08:29:43Z</time>
      </trkpt>
      <trkpt lat="47.26922" lon="-1.5397">
        <ele>81</ele>
        <time>2022-04-10T08:29:44Z</time>
      </trkpt>
      <trkpt lat="47.26922" lon="-1.5397">
        <ele>81</ele>
        <time>2022-04-10T08:29:45Z</time>
      </trkpt>
      <trkpt lat="47.26924" lon="-1.53969">
        <ele>81</ele>
        <time>2022-04-10T08:29:46Z</time>
      </trkpt>
      <trkpt lat="47.26924" lon="-1.53969">
        <ele>81</ele>
        <time>2022-04-10T08:29:47Z</time>
      </trkpt>
      <trkpt lat="47.26925" lon="-1.53969">
        <ele>81</ele>
        <time>2022-04-10T08:29:48Z</time>
      </trkpt>
      <trkpt lat="47.26927" lon="-1.53969">
        <ele>81</ele>
        <time>2022-04-10T08:29:49Z</time>
      </trkpt>
      <trkpt lat="47.26927" lon="-1.53969">
        <ele>81</ele>
        <time>2022-04-10T08:29:50Z</time>
      </trkpt>
      <trkpt lat="47.26927" lon="-1.53969">
        <ele>81</ele>
        <time>2022-04-10T08:29:51Z</time>
      </trkpt>
      <trkpt lat="47.2693" lon="-1.53967">
        <ele>82</ele>
        <time>2022-04-10T08:29:52Z</time>
      </trkpt>
      <trkpt lat="47.2693" lon="-1.53967">
        <ele>82</ele>
        <time>2022-04-10T08:29:53Z</time>
      </trkpt>
      <trkpt lat="47.26931" lon="-1.53966">
        <ele>82</ele>
        <time>2022-04-10T08:29:54Z</time>
      </trkpt>
      <trkpt lat="47.26931" lon="-1.53966">
        <ele>83</ele>
        <time>2022-04-10T08:29:55Z</time>
      </trkpt>
      <trkpt lat="47.26931" lon="-1.53966">
        <ele>83</ele>
        <time>2022-04-10T08:29:56Z</time>
      </trkpt>
      <trkpt lat="47.26932" lon="-1.53966">
        <ele>82</ele>
        <time>2022-04-10T08:29:57Z</time>
      </trkpt>
      <trkpt lat="47.26933" lon="-1.53966">
        <ele>81</ele>
        <time>2022-04-10T08:29:58Z</time>
      </trkpt>
      <trkpt lat="47.26934" lon="-1.53967">
        <ele>80</ele>
        <time>2022-04-10T08:29:59Z</time>
      </trkpt>
      <trkpt lat="47.26934" lon="-1.53967">
        <ele>80</ele>
        <time>2022-04-10T08:30:00Z</time>
      </trkpt>
      <trkpt lat="47.26934" lon="-1.53967">
        <ele>80</ele>
        <time>2022-04-10T08:30:01Z</time>
      </trkpt>
      <trkpt lat="47.26938" lon="-1.53967">
        <ele>80</ele>
        <time>2022-04-10T08:30:02Z</time>
      </trkpt>
      <trkpt lat="47.26939" lon="-1.53967">
        <ele>80</ele>
        <time>2022-04-10T08:30:03Z</time>
      </trkpt>
      <trkpt lat="47.26941" lon="-1.53967">
        <ele>80</ele>
        <time>2022-04-10T08:30:04Z</time>
      </trkpt>
      <trkpt lat="47.26942" lon="-1.53966">
        <ele>80</ele>
        <time>2022-04-10T08:30:05Z</time>
      </trkpt>
      <trkpt lat="47.26943" lon="-1.53965">
        <ele>80</ele>
        <time>2022-04-10T08:30:06Z</time>
      </trkpt>
      <trkpt lat="47.26944" lon="-1.53965">
        <ele>80</ele>
        <time>2022-04-10T08:30:07Z</time>
      </trkpt>
      <trkpt lat="47.26944" lon="-1.53965">
        <ele>80</ele>
        <time>2022-04-10T08:30:08Z</time>
      </trkpt>
      <trkpt lat="47.26944" lon="-1.53965">
        <ele>80</ele>
        <time>2022-04-10T08:30:09Z</time>
      </trkpt>
      <trkpt lat="47.26947" lon="-1.53963">
        <ele>80</ele>
        <time>2022-04-10T08:30:10Z</time>
      </trkpt>
      <trkpt lat="47.26949" lon="-1.53962">
        <ele>79</ele>
        <time>2022-04-10T08:30:11Z</time>
      </trkpt>
      <trkpt lat="47.2695" lon="-1.53961">
        <ele>79</ele>
        <time>2022-04-10T08:30:12Z</time>
      </trkpt>
      <trkpt lat="47.26951" lon="-1.5396">
        <ele>79</ele>
        <time>2022-04-10T08:30:13Z</time>
      </trkpt>
      <trkpt lat="47.26951" lon="-1.5396">
        <ele>79</ele>
        <time>2022-04-10T08:30:14Z</time>
      </trkpt>
      <trkpt lat="47.26951" lon="-1.5396">
        <ele>79</ele>
        <time>2022-04-10T08:30:15Z</time>
      </trkpt>
      <trkpt lat="47.26954" lon="-1.53959">
        <ele>79</ele>
        <time>2022-04-10T08:30:16Z</time>
      </trkpt>
      <trkpt lat="47.26955" lon="-1.53959">
        <ele>79</ele>
        <time>2022-04-10T08:30:17Z</time>
      </trkpt>
      <trkpt lat="47.26956" lon="-1.53959">
        <ele>79</ele>
        <time>2022-04-10T08:30:18Z</time>
      </trkpt>
      <trkpt lat="47.26958" lon="-1.53959">
        <ele>78</ele>
        <time>2022-04-10T08:30:19Z</time>
      </trkpt>
      <trkpt lat="47.2696" lon="-1.53959">
        <ele>78</ele>
        <time>2022-04-10T08:30:20Z</time>
      </trkpt>
      <trkpt lat="47.26961" lon="-1.53958">
        <ele>78</ele>
        <time>2022-04-10T08:30:21Z</time>
      </trkpt>
      <trkpt lat="47.26962" lon="-1.53957">
        <ele>78</ele>
        <time>2022-04-10T08:30:22Z</time>
      </trkpt>
      <trkpt lat="47.26963" lon="-1.53957">
        <ele>79</ele>
        <time>2022-04-10T08:30:23Z</time>
      </trkpt>
      <trkpt lat="47.26965" lon="-1.53956">
        <ele>79</ele>
        <time>2022-04-10T08:30:24Z</time>
      </trkpt>
      <trkpt lat="47.26966" lon="-1.53956">
        <ele>79</ele>
        <time>2022-04-10T08:30:25Z</time>
      </trkpt>
      <trkpt lat="47.26967" lon="-1.53956">
        <ele>78</ele>
        <time>2022-04-10T08:30:26Z</time>
      </trkpt>
      <trkpt lat="47.26968" lon="-1.53956">
        <ele>78</ele>
        <time>2022-04-10T08:30:27Z</time>
      </trkpt>
      <trkpt lat="47.26969" lon="-1.53955">
        <ele>79</ele>
        <time>2022-04-10T08:30:28Z</time>
      </trkpt>
      <trkpt lat="47.26971" lon="-1.53955">
        <ele>79</ele>
        <time>2022-04-10T08:30:29Z</time>
      </trkpt>
      <trkpt lat="47.26973" lon="-1.53956">
        <ele>79</ele>
        <time>2022-04-10T08:30:30Z</time>
      </trkpt>
      <trkpt lat="47.26975" lon="-1.53956">
        <ele>79</ele>
        <time>2022-04-10T08:30:31Z</time>
      </trkpt>
      <trkpt lat="47.26976" lon="-1.53955">
        <ele>79</ele>
        <time>2022-04-10T08:30:32Z</time>
      </trkpt>
      <trkpt lat="47.26978" lon="-1.53955">
        <ele>79</ele>
        <time>2022-04-10T08:30:33Z</time>
      </trkpt>
      <trkpt lat="47.26979" lon="-1.53955">
        <ele>78</ele>
        <time>2022-04-10T08:30:34Z</time>
      </trkpt>
      <trkpt lat="47.2698" lon="-1.53954">
        <ele>78</ele>
        <time>2022-04-10T08:30:35Z</time>
      </trkpt>
      <trkpt lat="47.26981" lon="-1.53953">
        <ele>79</ele>
        <time>2022-04-10T08:30:36Z</time>
      </trkpt>
      <trkpt lat="47.26983" lon="-1.53953">
        <ele>78</ele>
        <time>2022-04-10T08:30:37Z</time>
      </trkpt>
      <trkpt lat="47.26983" lon="-1.53953">
        <ele>78</ele>
        <time>2022-04-10T08:30:38Z</time>
      </trkpt>
      <trkpt lat="47.26983" lon="-1.53953">
        <ele>78</ele>
        <time>2022-04-10T08:30:39Z</time>
      </trkpt>
      <trkpt lat="47.26985" lon="-1.5395">
        <ele>79</ele>
        <time>2022-04-10T08:30:40Z</time>
      </trkpt>
      <trkpt lat="47.26986" lon="-1.53949">
        <ele>78</ele>
        <time>2022-04-10T08:30:41Z</time>
      </trkpt>
      <trkpt lat="47.26988" lon="-1.53949">
        <ele>78</ele>
        <time>2022-04-10T08:30:42Z</time>
      </trkpt>
      <trkpt lat="47.26988" lon="-1.53948">
        <ele>77</ele>
        <time>2022-04-10T08:30:43Z</time>
      </trkpt>
      <trkpt lat="47.26988" lon="-1.53948">
        <ele>77</ele>
        <time>2022-04-10T08:30:44Z</time>
      </trkpt>
      <trkpt lat="47.26988" lon="-1.53948">
        <ele>77</ele>
        <time>2022-04-10T08:30:45Z</time>
      </trkpt>
      <trkpt lat="47.2699" lon="-1.53945">
        <ele>76</ele>
        <time>2022-04-10T08:30:46Z</time>
      </trkpt>
      <trkpt lat="47.26991" lon="-1.53943">
        <ele>76</ele>
        <time>2022-04-10T08:30:47Z</time>
      </trkpt>
      <trkpt lat="47.26992" lon="-1.53942">
        <ele>75</ele>
        <time>2022-04-10T08:30:48Z</time>
      </trkpt>
      <trkpt lat="47.26993" lon="-1.53941">
        <ele>75</ele>
        <time>2022-04-10T08:30:49Z</time>
      </trkpt>
      <trkpt lat="47.26994" lon="-1.53941">
        <ele>74</ele>
        <time>2022-04-10T08:30:50Z</time>
      </trkpt>
      <trkpt lat="47.26996" lon="-1.5394">
        <ele>73</ele>
        <time>2022-04-10T08:30:51Z</time>
      </trkpt>
      <trkpt lat="47.26997" lon="-1.53939">
        <ele>73</ele>
        <time>2022-04-10T08:30:52Z</time>
      </trkpt>
      <trkpt lat="47.26998" lon="-1.53938">
        <ele>73</ele>
        <time>2022-04-10T08:30:53Z</time>
      </trkpt>
      <trkpt lat="47.26999" lon="-1.53938">
        <ele>73</ele>
        <time>2022-04-10T08:30:54Z</time>
      </trkpt>
      <trkpt lat="47.26999" lon="-1.53938">
        <ele>73</ele>
        <time>2022-04-10T08:30:55Z</time>
      </trkpt>
      <trkpt lat="47.26999" lon="-1.53938">
        <ele>73</ele>
        <time>2022-04-10T08:30:56Z</time>
      </trkpt>
      <trkpt lat="47.27001" lon="-1.53935">
        <ele>71</ele>
        <time>2022-04-10T08:30:57Z</time>
      </trkpt>
      <trkpt lat="47.27002" lon="-1.53934">
        <ele>71</ele>
        <time>2022-04-10T08:30:58Z</time>
      </trkpt>
      <trkpt lat="47.27003" lon="-1.53933">
        <ele>71</ele>
        <time>2022-04-10T08:30:59Z</time>
      </trkpt>
      <trkpt lat="47.27004" lon="-1.53933">
        <ele>70</ele>
        <time>2022-04-10T08:31:00Z</time>
      </trkpt>
      <trkpt lat="47.27004" lon="-1.53932">
        <ele>69</ele>
        <time>2022-04-10T08:31:01Z</time>
      </trkpt>
      <trkpt lat="47.27005" lon="-1.5393">
        <ele>68</ele>
        <time>2022-04-10T08:31:02Z</time>
      </trkpt>
      <trkpt lat="47.27005" lon="-1.5393">
        <ele>68</ele>
        <time>2022-04-10T08:31:03Z</time>
      </trkpt>
      <trkpt lat="47.27005" lon="-1.5393">
        <ele>68</ele>
        <time>2022-04-10T08:31:04Z</time>
      </trkpt>
      <trkpt lat="47.27008" lon="-1.53928">
        <ele>67</ele>
        <time>2022-04-10T08:31:05Z</time>
      </trkpt>
      <trkpt lat="47.2701" lon="-1.53927">
        <ele>67</ele>
        <time>2022-04-10T08:31:06Z</time>
      </trkpt>
      <trkpt lat="47.2701" lon="-1.53925">
        <ele>67</ele>
        <time>2022-04-10T08:31:07Z</time>
      </trkpt>
      <trkpt lat="47.27011" lon="-1.53923">
        <ele>67</ele>
        <time>2022-04-10T08:31:08Z</time>
      </trkpt>
      <trkpt lat="47.27012" lon="-1.53921">
        <ele>67</ele>
        <time>2022-04-10T08:31:09Z</time>
      </trkpt>
      <trkpt lat="47.27013" lon="-1.5392">
        <ele>66</ele>
        <time>2022-04-10T08:31:10Z</time>
      </trkpt>
      <trkpt lat="47.27014" lon="-1.53918">
        <ele>66</ele>
        <time>2022-04-10T08:31:11Z</time>
      </trkpt>
      <trkpt lat="47.27015" lon="-1.53918">
        <ele>65</ele>
        <time>2022-04-10T08:31:12Z</time>
      </trkpt>
      <trkpt lat="47.27016" lon="-1.53917">
        <ele>66</ele>
        <time>2022-04-10T08:31:13Z</time>
      </trkpt>
      <trkpt lat="47.27018" lon="-1.53915">
        <ele>66</ele>
        <time>2022-04-10T08:31:14Z</time>
      </trkpt>
      <trkpt lat="47.2702" lon="-1.53914">
        <ele>65</ele>
        <time>2022-04-10T08:31:15Z</time>
      </trkpt>
      <trkpt lat="47.27021" lon="-1.53913">
        <ele>65</ele>
        <time>2022-04-10T08:31:16Z</time>
      </trkpt>
      <trkpt lat="47.27022" lon="-1.53912">
        <ele>66</ele>
        <time>2022-04-10T08:31:17Z</time>
      </trkpt>
      <trkpt lat="47.27023" lon="-1.53911">
        <ele>67</ele>
        <time>2022-04-10T08:31:18Z</time>
      </trkpt>
      <trkpt lat="47.27023" lon="-1.5391">
        <ele>68</ele>
        <time>2022-04-10T08:31:19Z</time>
      </trkpt>
      <trkpt lat="47.27024" lon="-1.53909">
        <ele>68</ele>
        <time>2022-04-10T08:31:20Z</time>
      </trkpt>
      <trkpt lat="47.27024" lon="-1.53909">
        <ele>69</ele>
        <time>2022-04-10T08:31:21Z</time>
      </trkpt>
      <trkpt lat="47.27025" lon="-1.53907">
        <ele>70</ele>
        <time>2022-04-10T08:31:22Z</time>
      </trkpt>
      <trkpt lat="47.27026" lon="-1.53906">
        <ele>70</ele>
        <time>2022-04-10T08:31:23Z</time>
      </trkpt>
      <trkpt lat="47.27027" lon="-1.53906">
        <ele>71</ele>
        <time>2022-04-10T08:31:24Z</time>
      </trkpt>
      <trkpt lat="47.27028" lon="-1.53906">
        <ele>71</ele>
        <time>2022-04-10T08:31:25Z</time>
      </trkpt>
      <trkpt lat="47.27029" lon="-1.53905">
        <ele>72</ele>
        <time>2022-04-10T08:31:26Z</time>
      </trkpt>
      <trkpt lat="47.2703" lon="-1.53903">
        <ele>72</ele>
        <time>2022-04-10T08:31:27Z</time>
      </trkpt>
      <trkpt lat="47.2703" lon="-1.53903">
        <ele>72</ele>
        <time>2022-04-10T08:31:28Z</time>
      </trkpt>
      <trkpt lat="47.27031" lon="-1.53901">
        <ele>73</ele>
        <time>2022-04-10T08:31:29Z</time>
      </trkpt>
      <trkpt lat="47.27032" lon="-1.53899">
        <ele>73</ele>
        <time>2022-04-10T08:31:30Z</time>
      </trkpt>
      <trkpt lat="47.27033" lon="-1.53896">
        <ele>74</ele>
        <time>2022-04-10T08:31:31Z</time>
      </trkpt>
      <trkpt lat="47.27034" lon="-1.53894">
        <ele>74</ele>
        <time>2022-04-10T08:31:32Z</time>
      </trkpt>
      <trkpt lat="47.27034" lon="-1.53893">
        <ele>74</ele>
        <time>2022-04-10T08:31:33Z</time>
      </trkpt>
      <trkpt lat="47.27035" lon="-1.53891">
        <ele>73</ele>
        <time>2022-04-10T08:31:34Z</time>
      </trkpt>
      <trkpt lat="47.27036" lon="-1.53889">
        <ele>73</ele>
        <time>2022-04-10T08:31:35Z</time>
      </trkpt>
      <trkpt lat="47.27037" lon="-1.53888">
        <ele>72</ele>
        <time>2022-04-10T08:31:36Z</time>
      </trkpt>
      <trkpt lat="47.27038" lon="-1.53887">
        <ele>72</ele>
        <time>2022-04-10T08:31:37Z</time>
      </trkpt>
      <trkpt lat="47.27039" lon="-1.53886">
        <ele>72</ele>
        <time>2022-04-10T08:31:38Z</time>
      </trkpt>
      <trkpt lat="47.27039" lon="-1.53885">
        <ele>72</ele>
        <time>2022-04-10T08:31:39Z</time>
      </trkpt>
      <trkpt lat="47.27039" lon="-1.53885">
        <ele>72</ele>
        <time>2022-04-10T08:31:40Z</time>
      </trkpt>
      <trkpt lat="47.27041" lon="-1.53883">
        <ele>72</ele>
        <time>2022-04-10T08:31:41Z</time>
      </trkpt>
      <trkpt lat="47.27041" lon="-1.53882">
        <ele>71</ele>
        <time>2022-04-10T08:31:42Z</time>
      </trkpt>
      <trkpt lat="47.27042" lon="-1.5388">
        <ele>72</ele>
        <time>2022-04-10T08:31:43Z</time>
      </trkpt>
      <trkpt lat="47.27043" lon="-1.53879">
        <ele>72</ele>
        <time>2022-04-10T08:31:44Z</time>
      </trkpt>
      <trkpt lat="47.27044" lon="-1.53878">
        <ele>72</ele>
        <time>2022-04-10T08:31:45Z</time>
      </trkpt>
      <trkpt lat="47.27044" lon="-1.53878">
        <ele>72</ele>
        <time>2022-04-10T08:31:46Z</time>
      </trkpt>
      <trkpt lat="47.27044" lon="-1.53878">
        <ele>72</ele>
        <time>2022-04-10T08:31:47Z</time>
      </trkpt>
      <trkpt lat="47.27045" lon="-1.53875">
        <ele>72</ele>
        <time>2022-04-10T08:31:48Z</time>
      </trkpt>
      <trkpt lat="47.27046" lon="-1.53873">
        <ele>73</ele>
        <time>2022-04-10T08:31:49Z</time>
      </trkpt>
      <trkpt lat="47.27047" lon="-1.53872">
        <ele>73</ele>
        <time>2022-04-10T08:31:50Z</time>
      </trkpt>
      <trkpt lat="47.27048" lon="-1.5387">
        <ele>73</ele>
        <time>2022-04-10T08:31:51Z</time>
      </trkpt>
      <trkpt lat="47.27048" lon="-1.53869">
        <ele>74</ele>
        <time>2022-04-10T08:31:52Z</time>
      </trkpt>
      <trkpt lat="47.27049" lon="-1.53868">
        <ele>74</ele>
        <time>2022-04-10T08:31:53Z</time>
      </trkpt>
      <trkpt lat="47.2705" lon="-1.53867">
        <ele>75</ele>
        <time>2022-04-10T08:31:54Z</time>
      </trkpt>
      <trkpt lat="47.2705" lon="-1.53865">
        <ele>75</ele>
        <time>2022-04-10T08:31:55Z</time>
      </trkpt>
      <trkpt lat="47.27051" lon="-1.53863">
        <ele>75</ele>
        <time>2022-04-10T08:31:56Z</time>
      </trkpt>
      <trkpt lat="47.27052" lon="-1.53862">
        <ele>75</ele>
        <time>2022-04-10T08:31:57Z</time>
      </trkpt>
      <trkpt lat="47.27053" lon="-1.5386">
        <ele>75</ele>
        <time>2022-04-10T08:31:58Z</time>
      </trkpt>
      <trkpt lat="47.27054" lon="-1.53859">
        <ele>75</ele>
        <time>2022-04-10T08:31:59Z</time>
      </trkpt>
      <trkpt lat="47.27055" lon="-1.53858">
        <ele>74</ele>
        <time>2022-04-10T08:32:00Z</time>
      </trkpt>
      <trkpt lat="47.27056" lon="-1.53856">
        <ele>74</ele>
        <time>2022-04-10T08:32:01Z</time>
      </trkpt>
      <trkpt lat="47.27057" lon="-1.53855">
        <ele>74</ele>
        <time>2022-04-10T08:32:02Z</time>
      </trkpt>
      <trkpt lat="47.27057" lon="-1.53855">
        <ele>73</ele>
        <time>2022-04-10T08:32:03Z</time>
      </trkpt>
      <trkpt lat="47.27057" lon="-1.53854">
        <ele>72</ele>
        <time>2022-04-10T08:32:04Z</time>
      </trkpt>
      <trkpt lat="47.27057" lon="-1.53854">
        <ele>72</ele>
        <time>2022-04-10T08:32:05Z</time>
      </trkpt>
      <trkpt lat="47.27058" lon="-1.53852">
        <ele>72</ele>
        <time>2022-04-10T08:32:06Z</time>
      </trkpt>
      <trkpt lat="47.2706" lon="-1.53852">
        <ele>72</ele>
        <time>2022-04-10T08:32:07Z</time>
      </trkpt>
      <trkpt lat="47.27061" lon="-1.53851">
        <ele>72</ele>
        <time>2022-04-10T08:32:08Z</time>
      </trkpt>
      <trkpt lat="47.27062" lon="-1.5385">
        <ele>72</ele>
        <time>2022-04-10T08:32:09Z</time>
      </trkpt>
      <trkpt lat="47.27063" lon="-1.53849">
        <ele>72</ele>
        <time>2022-04-10T08:32:10Z</time>
      </trkpt>
      <trkpt lat="47.27063" lon="-1.53848">
        <ele>72</ele>
        <time>2022-04-10T08:32:11Z</time>
      </trkpt>
      <trkpt lat="47.27064" lon="-1.53847">
        <ele>72</ele>
        <time>2022-04-10T08:32:12Z</time>
      </trkpt>
      <trkpt lat="47.27065" lon="-1.53845">
        <ele>72</ele>
        <time>2022-04-10T08:32:13Z</time>
      </trkpt>
      <trkpt lat="47.27065" lon="-1.53844">
        <ele>72</ele>
        <time>2022-04-10T08:32:14Z</time>
      </trkpt>
      <trkpt lat="47.27065" lon="-1.53844">
        <ele>72</ele>
        <time>2022-04-10T08:32:15Z</time>
      </trkpt>
      <trkpt lat="47.27065" lon="-1.53844">
        <ele>72</ele>
        <time>2022-04-10T08:32:16Z</time>
      </trkpt>
      <trkpt lat="47.27067" lon="-1.53842">
        <ele>72</ele>
        <time>2022-04-10T08:32:17Z</time>
      </trkpt>
      <trkpt lat="47.27069" lon="-1.53841">
        <ele>72</ele>
        <time>2022-04-10T08:32:18Z</time>
      </trkpt>
      <trkpt lat="47.2707" lon="-1.5384">
        <ele>72</ele>
        <time>2022-04-10T08:32:19Z</time>
      </trkpt>
      <trkpt lat="47.27072" lon="-1.53839">
        <ele>72</ele>
        <time>2022-04-10T08:32:20Z</time>
      </trkpt>
      <trkpt lat="47.27073" lon="-1.53838">
        <ele>71</ele>
        <time>2022-04-10T08:32:21Z</time>
      </trkpt>
      <trkpt lat="47.27074" lon="-1.53837">
        <ele>71</ele>
        <time>2022-04-10T08:32:22Z</time>
      </trkpt>
      <trkpt lat="47.27076" lon="-1.53836">
        <ele>71</ele>
        <time>2022-04-10T08:32:23Z</time>
      </trkpt>
      <trkpt lat="47.27077" lon="-1.53834">
        <ele>71</ele>
        <time>2022-04-10T08:32:24Z</time>
      </trkpt>
      <trkpt lat="47.27078" lon="-1.53834">
        <ele>71</ele>
        <time>2022-04-10T08:32:25Z</time>
      </trkpt>
      <trkpt lat="47.27079" lon="-1.53833">
        <ele>71</ele>
        <time>2022-04-10T08:32:26Z</time>
      </trkpt>
      <trkpt lat="47.2708" lon="-1.53832">
        <ele>72</ele>
        <time>2022-04-10T08:32:27Z</time>
      </trkpt>
      <trkpt lat="47.27081" lon="-1.53831">
        <ele>72</ele>
        <time>2022-04-10T08:32:28Z</time>
      </trkpt>
      <trkpt lat="47.27082" lon="-1.5383">
        <ele>71</ele>
        <time>2022-04-10T08:32:29Z</time>
      </trkpt>
      <trkpt lat="47.27083" lon="-1.53829">
        <ele>72</ele>
        <time>2022-04-10T08:32:30Z</time>
      </trkpt>
      <trkpt lat="47.27084" lon="-1.53829">
        <ele>71</ele>
        <time>2022-04-10T08:32:31Z</time>
      </trkpt>
      <trkpt lat="47.27085" lon="-1.53828">
        <ele>71</ele>
        <time>2022-04-10T08:32:32Z</time>
      </trkpt>
      <trkpt lat="47.27086" lon="-1.53827">
        <ele>71</ele>
        <time>2022-04-10T08:32:33Z</time>
      </trkpt>
      <trkpt lat="47.27086" lon="-1.53826">
        <ele>71</ele>
        <time>2022-04-10T08:32:34Z</time>
      </trkpt>
      <trkpt lat="47.27087" lon="-1.53825">
        <ele>70</ele>
        <time>2022-04-10T08:32:35Z</time>
      </trkpt>
      <trkpt lat="47.27087" lon="-1.53825">
        <ele>70</ele>
        <time>2022-04-10T08:32:36Z</time>
      </trkpt>
      <trkpt lat="47.27089" lon="-1.53825">
        <ele>69</ele>
        <time>2022-04-10T08:32:37Z</time>
      </trkpt>
      <trkpt lat="47.27089" lon="-1.53824">
        <ele>70</ele>
        <time>2022-04-10T08:32:38Z</time>
      </trkpt>
      <trkpt lat="47.2709" lon="-1.53823">
        <ele>70</ele>
        <time>2022-04-10T08:32:39Z</time>
      </trkpt>
      <trkpt lat="47.27091" lon="-1.53822">
        <ele>70</ele>
        <time>2022-04-10T08:32:40Z</time>
      </trkpt>
      <trkpt lat="47.27092" lon="-1.5382">
        <ele>70</ele>
        <time>2022-04-10T08:32:41Z</time>
      </trkpt>
      <trkpt lat="47.27092" lon="-1.53818">
        <ele>70</ele>
        <time>2022-04-10T08:32:42Z</time>
      </trkpt>
      <trkpt lat="47.27093" lon="-1.53817">
        <ele>70</ele>
        <time>2022-04-10T08:32:43Z</time>
      </trkpt>
      <trkpt lat="47.27094" lon="-1.53816">
        <ele>70</ele>
        <time>2022-04-10T08:32:44Z</time>
      </trkpt>
      <trkpt lat="47.27094" lon="-1.53815">
        <ele>70</ele>
        <time>2022-04-10T08:32:45Z</time>
      </trkpt>
      <trkpt lat="47.27095" lon="-1.53813">
        <ele>70</ele>
        <time>2022-04-10T08:32:46Z</time>
      </trkpt>
      <trkpt lat="47.27096" lon="-1.53813">
        <ele>69</ele>
        <time>2022-04-10T08:32:47Z</time>
      </trkpt>
      <trkpt lat="47.27097" lon="-1.53812">
        <ele>69</ele>
        <time>2022-04-10T08:32:48Z</time>
      </trkpt>
      <trkpt lat="47.27097" lon="-1.53811">
        <ele>69</ele>
        <time>2022-04-10T08:32:49Z</time>
      </trkpt>
      <trkpt lat="47.27099" lon="-1.53811">
        <ele>69</ele>
        <time>2022-04-10T08:32:50Z</time>
      </trkpt>
      <trkpt lat="47.271" lon="-1.5381">
        <ele>69</ele>
        <time>2022-04-10T08:32:51Z</time>
      </trkpt>
      <trkpt lat="47.27101" lon="-1.53807">
        <ele>69</ele>
        <time>2022-04-10T08:32:52Z</time>
      </trkpt>
      <trkpt lat="47.27102" lon="-1.53806">
        <ele>69</ele>
        <time>2022-04-10T08:32:53Z</time>
      </trkpt>
      <trkpt lat="47.27103" lon="-1.53805">
        <ele>69</ele>
        <time>2022-04-10T08:32:54Z</time>
      </trkpt>
      <trkpt lat="47.27104" lon="-1.53804">
        <ele>68</ele>
        <time>2022-04-10T08:32:55Z</time>
      </trkpt>
      <trkpt lat="47.27105" lon="-1.53802">
        <ele>68</ele>
        <time>2022-04-10T08:32:56Z</time>
      </trkpt>
      <trkpt lat="47.27107" lon="-1.53802">
        <ele>67</ele>
        <time>2022-04-10T08:32:57Z</time>
      </trkpt>
      <trkpt lat="47.27108" lon="-1.53801">
        <ele>66</ele>
        <time>2022-04-10T08:32:58Z</time>
      </trkpt>
      <trkpt lat="47.27109" lon="-1.538">
        <ele>65</ele>
        <time>2022-04-10T08:32:59Z</time>
      </trkpt>
      <trkpt lat="47.2711" lon="-1.53798">
        <ele>65</ele>
        <time>2022-04-10T08:33:00Z</time>
      </trkpt>
      <trkpt lat="47.27112" lon="-1.53797">
        <ele>66</ele>
        <time>2022-04-10T08:33:01Z</time>
      </trkpt>
      <trkpt lat="47.27113" lon="-1.53796">
        <ele>66</ele>
        <time>2022-04-10T08:33:02Z</time>
      </trkpt>
      <trkpt lat="47.27113" lon="-1.53796">
        <ele>65</ele>
        <time>2022-04-10T08:33:03Z</time>
      </trkpt>
      <trkpt lat="47.27114" lon="-1.53795">
        <ele>66</ele>
        <time>2022-04-10T08:33:04Z</time>
      </trkpt>
      <trkpt lat="47.27114" lon="-1.53793">
        <ele>66</ele>
        <time>2022-04-10T08:33:05Z</time>
      </trkpt>
      <trkpt lat="47.27115" lon="-1.53792">
        <ele>66</ele>
        <time>2022-04-10T08:33:06Z</time>
      </trkpt>
      <trkpt lat="47.27116" lon="-1.53791">
        <ele>66</ele>
        <time>2022-04-10T08:33:07Z</time>
      </trkpt>
      <trkpt lat="47.27116" lon="-1.5379">
        <ele>66</ele>
        <time>2022-04-10T08:33:08Z</time>
      </trkpt>
      <trkpt lat="47.27117" lon="-1.53788">
        <ele>66</ele>
        <time>2022-04-10T08:33:09Z</time>
      </trkpt>
      <trkpt lat="47.27118" lon="-1.53786">
        <ele>66</ele>
        <time>2022-04-10T08:33:10Z</time>
      </trkpt>
      <trkpt lat="47.27118" lon="-1.53784">
        <ele>66</ele>
        <time>2022-04-10T08:33:11Z</time>
      </trkpt>
      <trkpt lat="47.27119" lon="-1.53783">
        <ele>67</ele>
        <time>2022-04-10T08:33:12Z</time>
      </trkpt>
      <trkpt lat="47.27119" lon="-1.53781">
        <ele>67</ele>
        <time>2022-04-10T08:33:13Z</time>
      </trkpt>
      <trkpt lat="47.2712" lon="-1.5378">
        <ele>67</ele>
        <time>2022-04-10T08:33:14Z</time>
      </trkpt>
      <trkpt lat="47.27121" lon="-1.53779">
        <ele>67</ele>
        <time>2022-04-10T08:33:15Z</time>
      </trkpt>
      <trkpt lat="47.27122" lon="-1.53778">
        <ele>67</ele>
        <time>2022-04-10T08:33:16Z</time>
      </trkpt>
      <trkpt lat="47.27123" lon="-1.53777">
        <ele>67</ele>
        <time>2022-04-10T08:33:17Z</time>
      </trkpt>
      <trkpt lat="47.27124" lon="-1.53775">
        <ele>67</ele>
        <time>2022-04-10T08:33:18Z</time>
      </trkpt>
      <trkpt lat="47.27124" lon="-1.53775">
        <ele>67</ele>
        <time>2022-04-10T08:33:19Z</time>
      </trkpt>
      <trkpt lat="47.27125" lon="-1.53774">
        <ele>68</ele>
        <time>2022-04-10T08:33:20Z</time>
      </trkpt>
      <trkpt lat="47.27126" lon="-1.53772">
        <ele>68</ele>
        <time>2022-04-10T08:33:21Z</time>
      </trkpt>
      <trkpt lat="47.27126" lon="-1.53771">
        <ele>68</ele>
        <time>2022-04-10T08:33:22Z</time>
      </trkpt>
      <trkpt lat="47.27127" lon="-1.5377">
        <ele>69</ele>
        <time>2022-04-10T08:33:23Z</time>
      </trkpt>
      <trkpt lat="47.27128" lon="-1.53769">
        <ele>69</ele>
        <time>2022-04-10T08:33:24Z</time>
      </trkpt>
      <trkpt lat="47.27128" lon="-1.53768">
        <ele>69</ele>
        <time>2022-04-10T08:33:25Z</time>
      </trkpt>
      <trkpt lat="47.27129" lon="-1.53768">
        <ele>69</ele>
        <time>2022-04-10T08:33:26Z</time>
      </trkpt>
      <trkpt lat="47.2713" lon="-1.53767">
        <ele>68</ele>
        <time>2022-04-10T08:33:27Z</time>
      </trkpt>
      <trkpt lat="47.27132" lon="-1.53767">
        <ele>67</ele>
        <time>2022-04-10T08:33:28Z</time>
      </trkpt>
      <trkpt lat="47.27133" lon="-1.53765">
        <ele>67</ele>
        <time>2022-04-10T08:33:29Z</time>
      </trkpt>
      <trkpt lat="47.27134" lon="-1.53764">
        <ele>66</ele>
        <time>2022-04-10T08:33:30Z</time>
      </trkpt>
      <trkpt lat="47.27136" lon="-1.53763">
        <ele>66</ele>
        <time>2022-04-10T08:33:31Z</time>
      </trkpt>
      <trkpt lat="47.27136" lon="-1.53763">
        <ele>65</ele>
        <time>2022-04-10T08:33:32Z</time>
      </trkpt>
      <trkpt lat="47.27137" lon="-1.53762">
        <ele>64</ele>
        <time>2022-04-10T08:33:33Z</time>
      </trkpt>
      <trkpt lat="47.27138" lon="-1.5376">
        <ele>64</ele>
        <time>2022-04-10T08:33:34Z</time>
      </trkpt>
      <trkpt lat="47.27139" lon="-1.53758">
        <ele>64</ele>
        <time>2022-04-10T08:33:35Z</time>
      </trkpt>
      <trkpt lat="47.2714" lon="-1.53757">
        <ele>63</ele>
        <time>2022-04-10T08:33:36Z</time>
      </trkpt>
      <trkpt lat="47.27141" lon="-1.53756">
        <ele>63</ele>
        <time>2022-04-10T08:33:37Z</time>
      </trkpt>
      <trkpt lat="47.27142" lon="-1.53756">
        <ele>63</ele>
        <time>2022-04-10T08:33:38Z</time>
      </trkpt>
      <trkpt lat="47.27143" lon="-1.53755">
        <ele>62</ele>
        <time>2022-04-10T08:33:39Z</time>
      </trkpt>
      <trkpt lat="47.27144" lon="-1.53754">
        <ele>62</ele>
        <time>2022-04-10T08:33:40Z</time>
      </trkpt>
      <trkpt lat="47.27145" lon="-1.53752">
        <ele>62</ele>
        <time>2022-04-10T08:33:41Z</time>
      </trkpt>
      <trkpt lat="47.27147" lon="-1.53752">
        <ele>62</ele>
        <time>2022-04-10T08:33:42Z</time>
      </trkpt>
      <trkpt lat="47.27148" lon="-1.53751">
        <ele>62</ele>
        <time>2022-04-10T08:33:43Z</time>
      </trkpt>
      <trkpt lat="47.27149" lon="-1.5375">
        <ele>62</ele>
        <time>2022-04-10T08:33:44Z</time>
      </trkpt>
      <trkpt lat="47.2715" lon="-1.53749">
        <ele>61</ele>
        <time>2022-04-10T08:33:45Z</time>
      </trkpt>
      <trkpt lat="47.27151" lon="-1.53748">
        <ele>61</ele>
        <time>2022-04-10T08:33:46Z</time>
      </trkpt>
      <trkpt lat="47.27151" lon="-1.53747">
        <ele>61</ele>
        <time>2022-04-10T08:33:47Z</time>
      </trkpt>
      <trkpt lat="47.27152" lon="-1.53746">
        <ele>61</ele>
        <time>2022-04-10T08:33:48Z</time>
      </trkpt>
      <trkpt lat="47.27152" lon="-1.53745">
        <ele>61</ele>
        <time>2022-04-10T08:33:49Z</time>
      </trkpt>
      <trkpt lat="47.27153" lon="-1.53743">
        <ele>62</ele>
        <time>2022-04-10T08:33:50Z</time>
      </trkpt>
      <trkpt lat="47.27153" lon="-1.53743">
        <ele>62</ele>
        <time>2022-04-10T08:33:50Z</time>
      </trkpt>
      <trkpt lat="47.27153" lon="-1.53743">
        <ele>61</ele>
        <time>2022-04-10T08:33:52Z</time>
      </trkpt>
      <trkpt lat="47.27154" lon="-1.53742">
        <ele>61</ele>
        <time>2022-04-10T08:33:53Z</time>
      </trkpt>
      <trkpt lat="47.27155" lon="-1.53742">
        <ele>61</ele>
        <time>2022-04-10T08:33:54Z</time>
      </trkpt>
      <trkpt lat="47.27156" lon="-1.53741">
        <ele>62</ele>
        <time>2022-04-10T08:33:55Z</time>
      </trkpt>
      <trkpt lat="47.27158" lon="-1.5374">
        <ele>62</ele>
        <time>2022-04-10T08:33:56Z</time>
      </trkpt>
      <trkpt lat="47.27159" lon="-1.5374">
        <ele>62</ele>
        <time>2022-04-10T08:33:57Z</time>
      </trkpt>
      <trkpt lat="47.27161" lon="-1.53738">
        <ele>62</ele>
        <time>2022-04-10T08:33:58Z</time>
      </trkpt>
      <trkpt lat="47.27161" lon="-1.53738">
        <ele>62</ele>
        <time>2022-04-10T08:33:58Z</time>
      </trkpt>
      <trkpt lat="47.27163" lon="-1.53737">
        <ele>62</ele>
        <time>2022-04-10T08:34:00Z</time>
      </trkpt>
      <trkpt lat="47.27164" lon="-1.53736">
        <ele>62</ele>
        <time>2022-04-10T08:34:01Z</time>
      </trkpt>
      <trkpt lat="47.27165" lon="-1.53735">
        <ele>61</ele>
        <time>2022-04-10T08:34:02Z</time>
      </trkpt>
      <trkpt lat="47.27165" lon="-1.53734">
        <ele>61</ele>
        <time>2022-04-10T08:34:03Z</time>
      </trkpt>
      <trkpt lat="47.27166" lon="-1.53733">
        <ele>62</ele>
        <time>2022-04-10T08:34:04Z</time>
      </trkpt>
      <trkpt lat="47.27167" lon="-1.53731">
        <ele>62</ele>
        <time>2022-04-10T08:34:05Z</time>
      </trkpt>
      <trkpt lat="47.27168" lon="-1.5373">
        <ele>63</ele>
        <time>2022-04-10T08:34:06Z</time>
      </trkpt>
      <trkpt lat="47.27169" lon="-1.53729">
        <ele>63</ele>
        <time>2022-04-10T08:34:07Z</time>
      </trkpt>
      <trkpt lat="47.2717" lon="-1.53727">
        <ele>63</ele>
        <time>2022-04-10T08:34:08Z</time>
      </trkpt>
      <trkpt lat="47.27171" lon="-1.53726">
        <ele>63</ele>
        <time>2022-04-10T08:34:09Z</time>
      </trkpt>
      <trkpt lat="47.27172" lon="-1.53725">
        <ele>64</ele>
        <time>2022-04-10T08:34:10Z</time>
      </trkpt>
      <trkpt lat="47.27174" lon="-1.53723">
        <ele>64</ele>
        <time>2022-04-10T08:34:11Z</time>
      </trkpt>
      <trkpt lat="47.27174" lon="-1.53723">
        <ele>64</ele>
        <time>2022-04-10T08:34:11Z</time>
      </trkpt>
      <trkpt lat="47.27175" lon="-1.53722">
        <ele>64</ele>
        <time>2022-04-10T08:34:13Z</time>
      </trkpt>
      <trkpt lat="47.27175" lon="-1.53721">
        <ele>64</ele>
        <time>2022-04-10T08:34:14Z</time>
      </trkpt>
      <trkpt lat="47.27176" lon="-1.53721">
        <ele>64</ele>
        <time>2022-04-10T08:34:15Z</time>
      </trkpt>
      <trkpt lat="47.27177" lon="-1.5372">
        <ele>64</ele>
        <time>2022-04-10T08:34:16Z</time>
      </trkpt>
      <trkpt lat="47.27178" lon="-1.53719">
        <ele>65</ele>
        <time>2022-04-10T08:34:17Z</time>
      </trkpt>
      <trkpt lat="47.27179" lon="-1.53717">
        <ele>65</ele>
        <time>2022-04-10T08:34:18Z</time>
      </trkpt>
      <trkpt lat="47.2718" lon="-1.53717">
        <ele>65</ele>
        <time>2022-04-10T08:34:19Z</time>
      </trkpt>
      <trkpt lat="47.27181" lon="-1.53716">
        <ele>65</ele>
        <time>2022-04-10T08:34:20Z</time>
      </trkpt>
      <trkpt lat="47.27182" lon="-1.53715">
        <ele>65</ele>
        <time>2022-04-10T08:34:21Z</time>
      </trkpt>
      <trkpt lat="47.27182" lon="-1.53714">
        <ele>65</ele>
        <time>2022-04-10T08:34:22Z</time>
      </trkpt>
      <trkpt lat="47.27183" lon="-1.53714">
        <ele>65</ele>
        <time>2022-04-10T08:34:23Z</time>
      </trkpt>
      <trkpt lat="47.27182" lon="-1.53714">
        <ele>65</ele>
        <time>2022-04-10T08:34:24Z</time>
      </trkpt>
      <trkpt lat="47.27183" lon="-1.53714">
        <ele>64</ele>
        <time>2022-04-10T08:34:25Z</time>
      </trkpt>
      <trkpt lat="47.27183" lon="-1.53714">
        <ele>64</ele>
        <time>2022-04-10T08:34:26Z</time>
      </trkpt>
      <trkpt lat="47.27183" lon="-1.53714">
        <ele>64</ele>
        <time>2022-04-10T08:34:26Z</time>
      </trkpt>
      <trkpt lat="47.27183" lon="-1.53714">
        <ele>64</ele>
        <time>2022-04-10T08:34:26Z</time>
      </trkpt>
      <trkpt lat="47.2719" lon="-1.53708">
        <ele>63</ele>
        <time>2022-04-10T08:35:14Z</time>
      </trkpt>
      <trkpt lat="47.27191" lon="-1.53707">
        <ele>62</ele>
        <time>2022-04-10T08:35:15Z</time>
      </trkpt>
      <trkpt lat="47.27192" lon="-1.53707">
        <ele>63</ele>
        <time>2022-04-10T08:35:16Z</time>
      </trkpt>
      <trkpt lat="47.27193" lon="-1.53707">
        <ele>63</ele>
        <time>2022-04-10T08:35:17Z</time>
      </trkpt>
      <trkpt lat="47.27194" lon="-1.53706">
        <ele>63</ele>
        <time>2022-04-10T08:35:18Z</time>
      </trkpt>
      <trkpt lat="47.27194" lon="-1.53704">
        <ele>64</ele>
        <time>2022-04-10T08:35:19Z</time>
      </trkpt>
      <trkpt lat="47.27195" lon="-1.53703">
        <ele>64</ele>
        <time>2022-04-10T08:35:20Z</time>
      </trkpt>
      <trkpt lat="47.27197" lon="-1.53703">
        <ele>64</ele>
        <time>2022-04-10T08:35:21Z</time>
      </trkpt>
      <trkpt lat="47.27197" lon="-1.53703">
        <ele>64</ele>
        <time>2022-04-10T08:35:22Z</time>
      </trkpt>
      <trkpt lat="47.27198" lon="-1.53702">
        <ele>64</ele>
        <time>2022-04-10T08:35:23Z</time>
      </trkpt>
      <trkpt lat="47.27198" lon="-1.53702">
        <ele>64</ele>
        <time>2022-04-10T08:35:24Z</time>
      </trkpt>
      <trkpt lat="47.27199" lon="-1.53702">
        <ele>64</ele>
        <time>2022-04-10T08:35:25Z</time>
      </trkpt>
      <trkpt lat="47.272" lon="-1.53701">
        <ele>64</ele>
        <time>2022-04-10T08:35:26Z</time>
      </trkpt>
      <trkpt lat="47.272" lon="-1.537">
        <ele>65</ele>
        <time>2022-04-10T08:35:27Z</time>
      </trkpt>
      <trkpt lat="47.272" lon="-1.537">
        <ele>65</ele>
        <time>2022-04-10T08:35:28Z</time>
      </trkpt>
      <trkpt lat="47.272" lon="-1.537">
        <ele>65</ele>
        <time>2022-04-10T08:35:29Z</time>
      </trkpt>
      <trkpt lat="47.272" lon="-1.537">
        <ele>65</ele>
        <time>2022-04-10T08:35:30Z</time>
      </trkpt>
      <trkpt lat="47.272" lon="-1.537">
        <ele>65</ele>
        <time>2022-04-10T08:35:31Z</time>
      </trkpt>
      <trkpt lat="47.27201" lon="-1.53698">
        <ele>65</ele>
        <time>2022-04-10T08:35:32Z</time>
      </trkpt>
      <trkpt lat="47.27202" lon="-1.53697">
        <ele>66</ele>
        <time>2022-04-10T08:35:33Z</time>
      </trkpt>
      <trkpt lat="47.27202" lon="-1.53697">
        <ele>66</ele>
        <time>2022-04-10T08:35:34Z</time>
      </trkpt>
      <trkpt lat="47.27203" lon="-1.53697">
        <ele>66</ele>
        <time>2022-04-10T08:35:35Z</time>
      </trkpt>
      <trkpt lat="47.27203" lon="-1.53697">
        <ele>66</ele>
        <time>2022-04-10T08:35:36Z</time>
      </trkpt>
      <trkpt lat="47.27203" lon="-1.53697">
        <ele>66</ele>
        <time>2022-04-10T08:35:37Z</time>
      </trkpt>
      <trkpt lat="47.27205" lon="-1.53697">
        <ele>66</ele>
        <time>2022-04-10T08:35:38Z</time>
      </trkpt>
      <trkpt lat="47.27205" lon="-1.53696">
        <ele>66</ele>
        <time>2022-04-10T08:35:39Z</time>
      </trkpt>
      <trkpt lat="47.27206" lon="-1.53696">
        <ele>66</ele>
        <time>2022-04-10T08:35:40Z</time>
      </trkpt>
      <trkpt lat="47.27206" lon="-1.53696">
        <ele>66</ele>
        <time>2022-04-10T08:35:40Z</time>
      </trkpt>
      <trkpt lat="47.27208" lon="-1.53694">
        <ele>66</ele>
        <time>2022-04-10T08:35:42Z</time>
      </trkpt>
      <trkpt lat="47.27208" lon="-1.53693">
        <ele>66</ele>
        <time>2022-04-10T08:35:43Z</time>
      </trkpt>
      <trkpt lat="47.27209" lon="-1.53693">
        <ele>66</ele>
        <time>2022-04-10T08:35:44Z</time>
      </trkpt>
      <trkpt lat="47.2721" lon="-1.53692">
        <ele>66</ele>
        <time>2022-04-10T08:35:45Z</time>
      </trkpt>
      <trkpt lat="47.27211" lon="-1.53691">
        <ele>66</ele>
        <time>2022-04-10T08:35:46Z</time>
      </trkpt>
      <trkpt lat="47.27212" lon="-1.5369">
        <ele>66</ele>
        <time>2022-04-10T08:35:47Z</time>
      </trkpt>
      <trkpt lat="47.27212" lon="-1.53689">
        <ele>67</ele>
        <time>2022-04-10T08:35:48Z</time>
      </trkpt>
      <trkpt lat="47.27213" lon="-1.53688">
        <ele>67</ele>
        <time>2022-04-10T08:35:49Z</time>
      </trkpt>
      <trkpt lat="47.27213" lon="-1.53688">
        <ele>68</ele>
        <time>2022-04-10T08:35:50Z</time>
      </trkpt>
      <trkpt lat="47.27214" lon="-1.53687">
        <ele>68</ele>
        <time>2022-04-10T08:35:51Z</time>
      </trkpt>
      <trkpt lat="47.27215" lon="-1.53686">
        <ele>68</ele>
        <time>2022-04-10T08:35:52Z</time>
      </trkpt>
      <trkpt lat="47.27216" lon="-1.53684">
        <ele>68</ele>
        <time>2022-04-10T08:35:53Z</time>
      </trkpt>
      <trkpt lat="47.27216" lon="-1.53683">
        <ele>69</ele>
        <time>2022-04-10T08:35:54Z</time>
      </trkpt>
      <trkpt lat="47.27217" lon="-1.53681">
        <ele>69</ele>
        <time>2022-04-10T08:35:55Z</time>
      </trkpt>
      <trkpt lat="47.27218" lon="-1.53681">
        <ele>70</ele>
        <time>2022-04-10T08:35:56Z</time>
      </trkpt>
      <trkpt lat="47.27218" lon="-1.5368">
        <ele>70</ele>
        <time>2022-04-10T08:35:57Z</time>
      </trkpt>
      <trkpt lat="47.27219" lon="-1.5368">
        <ele>70</ele>
        <time>2022-04-10T08:35:58Z</time>
      </trkpt>
      <trkpt lat="47.2722" lon="-1.5368">
        <ele>71</ele>
        <time>2022-04-10T08:35:59Z</time>
      </trkpt>
      <trkpt lat="47.27221" lon="-1.5368">
        <ele>71</ele>
        <time>2022-04-10T08:36:00Z</time>
      </trkpt>
      <trkpt lat="47.27221" lon="-1.53681">
        <ele>72</ele>
        <time>2022-04-10T08:36:01Z</time>
      </trkpt>
      <trkpt lat="47.27222" lon="-1.53681">
        <ele>72</ele>
        <time>2022-04-10T08:36:02Z</time>
      </trkpt>
      <trkpt lat="47.27222" lon="-1.53681">
        <ele>73</ele>
        <time>2022-04-10T08:36:03Z</time>
      </trkpt>
      <trkpt lat="47.27222" lon="-1.53681">
        <ele>72</ele>
        <time>2022-04-10T08:36:04Z</time>
      </trkpt>
      <trkpt lat="47.27223" lon="-1.53682">
        <ele>73</ele>
        <time>2022-04-10T08:36:05Z</time>
      </trkpt>
      <trkpt lat="47.27223" lon="-1.53683">
        <ele>73</ele>
        <time>2022-04-10T08:36:06Z</time>
      </trkpt>
      <trkpt lat="47.27224" lon="-1.53684">
        <ele>73</ele>
        <time>2022-04-10T08:36:07Z</time>
      </trkpt>
      <trkpt lat="47.27224" lon="-1.53684">
        <ele>73</ele>
        <time>2022-04-10T08:36:08Z</time>
      </trkpt>
      <trkpt lat="47.27224" lon="-1.53685">
        <ele>74</ele>
        <time>2022-04-10T08:36:09Z</time>
      </trkpt>
      <trkpt lat="47.27224" lon="-1.53685">
        <ele>74</ele>
        <time>2022-04-10T08:36:10Z</time>
      </trkpt>
      <trkpt lat="47.27225" lon="-1.53686">
        <ele>74</ele>
        <time>2022-04-10T08:36:11Z</time>
      </trkpt>
      <trkpt lat="47.27225" lon="-1.53687">
        <ele>75</ele>
        <time>2022-04-10T08:36:12Z</time>
      </trkpt>
      <trkpt lat="47.27225" lon="-1.53687">
        <ele>75</ele>
        <time>2022-04-10T08:36:13Z</time>
      </trkpt>
      <trkpt lat="47.27225" lon="-1.53687">
        <ele>75</ele>
        <time>2022-04-10T08:36:14Z</time>
      </trkpt>
      <trkpt lat="47.27226" lon="-1.5369">
        <ele>76</ele>
        <time>2022-04-10T08:36:15Z</time>
      </trkpt>
      <trkpt lat="47.27226" lon="-1.53691">
        <ele>77</ele>
        <time>2022-04-10T08:36:16Z</time>
      </trkpt>
      <trkpt lat="47.27227" lon="-1.53692">
        <ele>77</ele>
        <time>2022-04-10T08:36:17Z</time>
      </trkpt>
      <trkpt lat="47.27228" lon="-1.53693">
        <ele>77</ele>
        <time>2022-04-10T08:36:18Z</time>
      </trkpt>
      <trkpt lat="47.27229" lon="-1.53694">
        <ele>78</ele>
        <time>2022-04-10T08:36:19Z</time>
      </trkpt>
      <trkpt lat="47.2723" lon="-1.53695">
        <ele>78</ele>
        <time>2022-04-10T08:36:20Z</time>
      </trkpt>
      <trkpt lat="47.27231" lon="-1.53696">
        <ele>79</ele>
        <time>2022-04-10T08:36:21Z</time>
      </trkpt>
      <trkpt lat="47.27231" lon="-1.53697">
        <ele>79</ele>
        <time>2022-04-10T08:36:22Z</time>
      </trkpt>
      <trkpt lat="47.27232" lon="-1.53698">
        <ele>79</ele>
        <time>2022-04-10T08:36:23Z</time>
      </trkpt>
      <trkpt lat="47.27233" lon="-1.53699">
        <ele>78</ele>
        <time>2022-04-10T08:36:24Z</time>
      </trkpt>
      <trkpt lat="47.27234" lon="-1.537">
        <ele>78</ele>
        <time>2022-04-10T08:36:25Z</time>
      </trkpt>
      <trkpt lat="47.27234" lon="-1.53702">
        <ele>78</ele>
        <time>2022-04-10T08:36:26Z</time>
      </trkpt>
      <trkpt lat="47.27235" lon="-1.53703">
        <ele>78</ele>
        <time>2022-04-10T08:36:27Z</time>
      </trkpt>
      <trkpt lat="47.27235" lon="-1.53705">
        <ele>78</ele>
        <time>2022-04-10T08:36:28Z</time>
      </trkpt>
      <trkpt lat="47.27236" lon="-1.53706">
        <ele>78</ele>
        <time>2022-04-10T08:36:29Z</time>
      </trkpt>
      <trkpt lat="47.27236" lon="-1.53707">
        <ele>78</ele>
        <time>2022-04-10T08:36:30Z</time>
      </trkpt>
      <trkpt lat="47.27237" lon="-1.53709">
        <ele>78</ele>
        <time>2022-04-10T08:36:31Z</time>
      </trkpt>
      <trkpt lat="47.27237" lon="-1.5371">
        <ele>78</ele>
        <time>2022-04-10T08:36:32Z</time>
      </trkpt>
      <trkpt lat="47.27238" lon="-1.53712">
        <ele>78</ele>
        <time>2022-04-10T08:36:33Z</time>
      </trkpt>
      <trkpt lat="47.27239" lon="-1.53714">
        <ele>78</ele>
        <time>2022-04-10T08:36:34Z</time>
      </trkpt>
      <trkpt lat="47.27239" lon="-1.53715">
        <ele>78</ele>
        <time>2022-04-10T08:36:35Z</time>
      </trkpt>
      <trkpt lat="47.2724" lon="-1.53717">
        <ele>78</ele>
        <time>2022-04-10T08:36:36Z</time>
      </trkpt>
      <trkpt lat="47.2724" lon="-1.53718">
        <ele>79</ele>
        <time>2022-04-10T08:36:37Z</time>
      </trkpt>
      <trkpt lat="47.27241" lon="-1.5372">
        <ele>79</ele>
        <time>2022-04-10T08:36:38Z</time>
      </trkpt>
      <trkpt lat="47.27242" lon="-1.53721">
        <ele>79</ele>
        <time>2022-04-10T08:36:39Z</time>
      </trkpt>
      <trkpt lat="47.27242" lon="-1.53722">
        <ele>80</ele>
        <time>2022-04-10T08:36:40Z</time>
      </trkpt>
      <trkpt lat="47.27243" lon="-1.53722">
        <ele>80</ele>
        <time>2022-04-10T08:36:41Z</time>
      </trkpt>
      <trkpt lat="47.27243" lon="-1.53722">
        <ele>80</ele>
        <time>2022-04-10T08:36:42Z</time>
      </trkpt>
      <trkpt lat="47.27243" lon="-1.53722">
        <ele>80</ele>
        <time>2022-04-10T08:36:43Z</time>
      </trkpt>
      <trkpt lat="47.27244" lon="-1.53726">
        <ele>80</ele>
        <time>2022-04-10T08:36:44Z</time>
      </trkpt>
      <trkpt lat="47.27244" lon="-1.53727">
        <ele>80</ele>
        <time>2022-04-10T08:36:45Z</time>
      </trkpt>
      <trkpt lat="47.27245" lon="-1.53728">
        <ele>80</ele>
        <time>2022-04-10T08:36:46Z</time>
      </trkpt>
      <trkpt lat="47.27246" lon="-1.5373">
        <ele>80</ele>
        <time>2022-04-10T08:36:47Z</time>
      </trkpt>
      <trkpt lat="47.27246" lon="-1.5373">
        <ele>80</ele>
        <time>2022-04-10T08:36:48Z</time>
      </trkpt>
      <trkpt lat="47.27247" lon="-1.53732">
        <ele>80</ele>
        <time>2022-04-10T08:36:49Z</time>
      </trkpt>
      <trkpt lat="47.27248" lon="-1.53733">
        <ele>80</ele>
        <time>2022-04-10T08:36:50Z</time>
      </trkpt>
      <trkpt lat="47.27249" lon="-1.53734">
        <ele>80</ele>
        <time>2022-04-10T08:36:51Z</time>
      </trkpt>
      <trkpt lat="47.2725" lon="-1.53736">
        <ele>80</ele>
        <time>2022-04-10T08:36:52Z</time>
      </trkpt>
      <trkpt lat="47.2725" lon="-1.53737">
        <ele>80</ele>
        <time>2022-04-10T08:36:53Z</time>
      </trkpt>
      <trkpt lat="47.27251" lon="-1.53738">
        <ele>80</ele>
        <time>2022-04-10T08:36:54Z</time>
      </trkpt>
      <trkpt lat="47.27252" lon="-1.53739">
        <ele>80</ele>
        <time>2022-04-10T08:36:55Z</time>
      </trkpt>
      <trkpt lat="47.27253" lon="-1.5374">
        <ele>80</ele>
        <time>2022-04-10T08:36:56Z</time>
      </trkpt>
      <trkpt lat="47.27253" lon="-1.53742">
        <ele>80</ele>
        <time>2022-04-10T08:36:57Z</time>
      </trkpt>
      <trkpt lat="47.27254" lon="-1.53743">
        <ele>80</ele>
        <time>2022-04-10T08:36:58Z</time>
      </trkpt>
      <trkpt lat="47.27255" lon="-1.53744">
        <ele>80</ele>
        <time>2022-04-10T08:36:59Z</time>
      </trkpt>
      <trkpt lat="47.27255" lon="-1.53746">
        <ele>80</ele>
        <time>2022-04-10T08:37:00Z</time>
      </trkpt>
      <trkpt lat="47.27256" lon="-1.53747">
        <ele>81</ele>
        <time>2022-04-10T08:37:01Z</time>
      </trkpt>
      <trkpt lat="47.27257" lon="-1.53749">
        <ele>81</ele>
        <time>2022-04-10T08:37:02Z</time>
      </trkpt>
      <trkpt lat="47.27258" lon="-1.5375">
        <ele>82</ele>
        <time>2022-04-10T08:37:03Z</time>
      </trkpt>
      <trkpt lat="47.27258" lon="-1.53751">
        <ele>82</ele>
        <time>2022-04-10T08:37:04Z</time>
      </trkpt>
      <trkpt lat="47.27259" lon="-1.53752">
        <ele>82</ele>
        <time>2022-04-10T08:37:05Z</time>
      </trkpt>
      <trkpt lat="47.27259" lon="-1.53753">
        <ele>81</ele>
        <time>2022-04-10T08:37:06Z</time>
      </trkpt>
      <trkpt lat="47.2726" lon="-1.53754">
        <ele>81</ele>
        <time>2022-04-10T08:37:07Z</time>
      </trkpt>
      <trkpt lat="47.27261" lon="-1.53755">
        <ele>81</ele>
        <time>2022-04-10T08:37:08Z</time>
      </trkpt>
      <trkpt lat="47.27261" lon="-1.53756">
        <ele>81</ele>
        <time>2022-04-10T08:37:09Z</time>
      </trkpt>
      <trkpt lat="47.27262" lon="-1.53758">
        <ele>81</ele>
        <time>2022-04-10T08:37:10Z</time>
      </trkpt>
      <trkpt lat="47.27263" lon="-1.53758">
        <ele>80</ele>
        <time>2022-04-10T08:37:11Z</time>
      </trkpt>
      <trkpt lat="47.27264" lon="-1.53759">
        <ele>80</ele>
        <time>2022-04-10T08:37:12Z</time>
      </trkpt>
      <trkpt lat="47.27264" lon="-1.5376">
        <ele>80</ele>
        <time>2022-04-10T08:37:13Z</time>
      </trkpt>
      <trkpt lat="47.27265" lon="-1.53762">
        <ele>80</ele>
        <time>2022-04-10T08:37:14Z</time>
      </trkpt>
      <trkpt lat="47.27266" lon="-1.53764">
        <ele>81</ele>
        <time>2022-04-10T08:37:15Z</time>
      </trkpt>
      <trkpt lat="47.27266" lon="-1.53765">
        <ele>81</ele>
        <time>2022-04-10T08:37:16Z</time>
      </trkpt>
      <trkpt lat="47.27266" lon="-1.53767">
        <ele>81</ele>
        <time>2022-04-10T08:37:17Z</time>
      </trkpt>
      <trkpt lat="47.27267" lon="-1.53768">
        <ele>81</ele>
        <time>2022-04-10T08:37:18Z</time>
      </trkpt>
      <trkpt lat="47.27268" lon="-1.53769">
        <ele>81</ele>
        <time>2022-04-10T08:37:19Z</time>
      </trkpt>
      <trkpt lat="47.27268" lon="-1.5377">
        <ele>81</ele>
        <time>2022-04-10T08:37:20Z</time>
      </trkpt>
      <trkpt lat="47.27269" lon="-1.53771">
        <ele>81</ele>
        <time>2022-04-10T08:37:21Z</time>
      </trkpt>
      <trkpt lat="47.2727" lon="-1.53772">
        <ele>81</ele>
        <time>2022-04-10T08:37:22Z</time>
      </trkpt>
      <trkpt lat="47.27271" lon="-1.53772">
        <ele>80</ele>
        <time>2022-04-10T08:37:23Z</time>
      </trkpt>
      <trkpt lat="47.27271" lon="-1.53773">
        <ele>79</ele>
        <time>2022-04-10T08:37:24Z</time>
      </trkpt>
      <trkpt lat="47.27272" lon="-1.53774">
        <ele>79</ele>
        <time>2022-04-10T08:37:25Z</time>
      </trkpt>
      <trkpt lat="47.27272" lon="-1.53774">
        <ele>79</ele>
        <time>2022-04-10T08:37:26Z</time>
      </trkpt>
      <trkpt lat="47.27272" lon="-1.53774">
        <ele>79</ele>
        <time>2022-04-10T08:37:27Z</time>
      </trkpt>
      <trkpt lat="47.27274" lon="-1.53777">
        <ele>79</ele>
        <time>2022-04-10T08:37:28Z</time>
      </trkpt>
      <trkpt lat="47.27275" lon="-1.53777">
        <ele>79</ele>
        <time>2022-04-10T08:37:29Z</time>
      </trkpt>
      <trkpt lat="47.27276" lon="-1.53778">
        <ele>79</ele>
        <time>2022-04-10T08:37:30Z</time>
      </trkpt>
      <trkpt lat="47.27277" lon="-1.53779">
        <ele>79</ele>
        <time>2022-04-10T08:37:31Z</time>
      </trkpt>
      <trkpt lat="47.27278" lon="-1.53779">
        <ele>80</ele>
        <time>2022-04-10T08:37:32Z</time>
      </trkpt>
      <trkpt lat="47.27279" lon="-1.5378">
        <ele>80</ele>
        <time>2022-04-10T08:37:33Z</time>
      </trkpt>
      <trkpt lat="47.2728" lon="-1.5378">
        <ele>81</ele>
        <time>2022-04-10T08:37:34Z</time>
      </trkpt>
      <trkpt lat="47.2728" lon="-1.53781">
        <ele>81</ele>
        <time>2022-04-10T08:37:35Z</time>
      </trkpt>
      <trkpt lat="47.27281" lon="-1.53782">
        <ele>81</ele>
        <time>2022-04-10T08:37:36Z</time>
      </trkpt>
      <trkpt lat="47.27282" lon="-1.53782">
        <ele>81</ele>
        <time>2022-04-10T08:37:37Z</time>
      </trkpt>
      <trkpt lat="47.27282" lon="-1.53782">
        <ele>81</ele>
        <time>2022-04-10T08:37:38Z</time>
      </trkpt>
      <trkpt lat="47.27284" lon="-1.53783">
        <ele>81</ele>
        <time>2022-04-10T08:37:39Z</time>
      </trkpt>
      <trkpt lat="47.27284" lon="-1.53784">
        <ele>81</ele>
        <time>2022-04-10T08:37:40Z</time>
      </trkpt>
      <trkpt lat="47.27285" lon="-1.53784">
        <ele>81</ele>
        <time>2022-04-10T08:37:41Z</time>
      </trkpt>
      <trkpt lat="47.27287" lon="-1.53784">
        <ele>82</ele>
        <time>2022-04-10T08:37:42Z</time>
      </trkpt>
      <trkpt lat="47.27288" lon="-1.53783">
        <ele>82</ele>
        <time>2022-04-10T08:37:43Z</time>
      </trkpt>
      <trkpt lat="47.27289" lon="-1.53783">
        <ele>82</ele>
        <time>2022-04-10T08:37:44Z</time>
      </trkpt>
      <trkpt lat="47.2729" lon="-1.53783">
        <ele>82</ele>
        <time>2022-04-10T08:37:45Z</time>
      </trkpt>
      <trkpt lat="47.27292" lon="-1.53783">
        <ele>82</ele>
        <time>2022-04-10T08:37:46Z</time>
      </trkpt>
      <trkpt lat="47.27293" lon="-1.53782">
        <ele>82</ele>
        <time>2022-04-10T08:37:47Z</time>
      </trkpt>
      <trkpt lat="47.27295" lon="-1.53782">
        <ele>82</ele>
        <time>2022-04-10T08:37:48Z</time>
      </trkpt>
      <trkpt lat="47.27296" lon="-1.53782">
        <ele>82</ele>
        <time>2022-04-10T08:37:49Z</time>
      </trkpt>
      <trkpt lat="47.27296" lon="-1.53782">
        <ele>82</ele>
        <time>2022-04-10T08:37:50Z</time>
      </trkpt>
      <trkpt lat="47.27296" lon="-1.53783">
        <ele>82</ele>
        <time>2022-04-10T08:37:51Z</time>
      </trkpt>
      <trkpt lat="47.27296" lon="-1.53783">
        <ele>81</ele>
        <time>2022-04-10T08:37:52Z</time>
      </trkpt>
      <trkpt lat="47.27298" lon="-1.53783">
        <ele>81</ele>
        <time>2022-04-10T08:37:53Z</time>
      </trkpt>
      <trkpt lat="47.27299" lon="-1.53783">
        <ele>81</ele>
        <time>2022-04-10T08:37:54Z</time>
      </trkpt>
      <trkpt lat="47.273" lon="-1.53783">
        <ele>81</ele>
        <time>2022-04-10T08:37:55Z</time>
      </trkpt>
      <trkpt lat="47.27301" lon="-1.53783">
        <ele>81</ele>
        <time>2022-04-10T08:37:56Z</time>
      </trkpt>
      <trkpt lat="47.27302" lon="-1.53782">
        <ele>81</ele>
        <time>2022-04-10T08:37:57Z</time>
      </trkpt>
      <trkpt lat="47.27303" lon="-1.53782">
        <ele>81</ele>
        <time>2022-04-10T08:37:58Z</time>
      </trkpt>
      <trkpt lat="47.27305" lon="-1.53781">
        <ele>81</ele>
        <time>2022-04-10T08:37:59Z</time>
      </trkpt>
      <trkpt lat="47.27305" lon="-1.53781">
        <ele>81</ele>
        <time>2022-04-10T08:38:00Z</time>
      </trkpt>
      <trkpt lat="47.27306" lon="-1.53781">
        <ele>81</ele>
        <time>2022-04-10T08:38:01Z</time>
      </trkpt>
      <trkpt lat="47.27307" lon="-1.5378">
        <ele>80</ele>
        <time>2022-04-10T08:38:02Z</time>
      </trkpt>
      <trkpt lat="47.27308" lon="-1.5378">
        <ele>80</ele>
        <time>2022-04-10T08:38:03Z</time>
      </trkpt>
      <trkpt lat="47.27308" lon="-1.53779">
        <ele>80</ele>
        <time>2022-04-10T08:38:04Z</time>
      </trkpt>
      <trkpt lat="47.27308" lon="-1.53778">
        <ele>80</ele>
        <time>2022-04-10T08:38:05Z</time>
      </trkpt>
      <trkpt lat="47.27309" lon="-1.53777">
        <ele>80</ele>
        <time>2022-04-10T08:38:06Z</time>
      </trkpt>
      <trkpt lat="47.27309" lon="-1.53777">
        <ele>80</ele>
        <time>2022-04-10T08:38:07Z</time>
      </trkpt>
      <trkpt lat="47.27309" lon="-1.53777">
        <ele>80</ele>
        <time>2022-04-10T08:38:08Z</time>
      </trkpt>
      <trkpt lat="47.27311" lon="-1.53775">
        <ele>81</ele>
        <time>2022-04-10T08:38:09Z</time>
      </trkpt>
      <trkpt lat="47.27313" lon="-1.53773">
        <ele>82</ele>
        <time>2022-04-10T08:38:10Z</time>
      </trkpt>
      <trkpt lat="47.27314" lon="-1.53772">
        <ele>82</ele>
        <time>2022-04-10T08:38:11Z</time>
      </trkpt>
      <trkpt lat="47.27315" lon="-1.53771">
        <ele>82</ele>
        <time>2022-04-10T08:38:12Z</time>
      </trkpt>
      <trkpt lat="47.27316" lon="-1.5377">
        <ele>82</ele>
        <time>2022-04-10T08:38:13Z</time>
      </trkpt>
      <trkpt lat="47.27317" lon="-1.5377">
        <ele>82</ele>
        <time>2022-04-10T08:38:14Z</time>
      </trkpt>
      <trkpt lat="47.27318" lon="-1.53769">
        <ele>83</ele>
        <time>2022-04-10T08:38:15Z</time>
      </trkpt>
      <trkpt lat="47.27319" lon="-1.53768">
        <ele>83</ele>
        <time>2022-04-10T08:38:16Z</time>
      </trkpt>
      <trkpt lat="47.2732" lon="-1.53768">
        <ele>83</ele>
        <time>2022-04-10T08:38:17Z</time>
      </trkpt>
      <trkpt lat="47.27321" lon="-1.53767">
        <ele>82</ele>
        <time>2022-04-10T08:38:18Z</time>
      </trkpt>
      <trkpt lat="47.27322" lon="-1.53766">
        <ele>82</ele>
        <time>2022-04-10T08:38:19Z</time>
      </trkpt>
      <trkpt lat="47.27323" lon="-1.53765">
        <ele>82</ele>
        <time>2022-04-10T08:38:20Z</time>
      </trkpt>
      <trkpt lat="47.27324" lon="-1.53764">
        <ele>83</ele>
        <time>2022-04-10T08:38:21Z</time>
      </trkpt>
      <trkpt lat="47.27325" lon="-1.53764">
        <ele>82</ele>
        <time>2022-04-10T08:38:22Z</time>
      </trkpt>
      <trkpt lat="47.27326" lon="-1.53763">
        <ele>83</ele>
        <time>2022-04-10T08:38:23Z</time>
      </trkpt>
      <trkpt lat="47.27327" lon="-1.53763">
        <ele>83</ele>
        <time>2022-04-10T08:38:24Z</time>
      </trkpt>
      <trkpt lat="47.27329" lon="-1.53762">
        <ele>83</ele>
        <time>2022-04-10T08:38:25Z</time>
      </trkpt>
      <trkpt lat="47.2733" lon="-1.5376">
        <ele>83</ele>
        <time>2022-04-10T08:38:26Z</time>
      </trkpt>
      <trkpt lat="47.27332" lon="-1.53759">
        <ele>83</ele>
        <time>2022-04-10T08:38:27Z</time>
      </trkpt>
      <trkpt lat="47.27333" lon="-1.53757">
        <ele>83</ele>
        <time>2022-04-10T08:38:28Z</time>
      </trkpt>
      <trkpt lat="47.27334" lon="-1.53756">
        <ele>83</ele>
        <time>2022-04-10T08:38:29Z</time>
      </trkpt>
      <trkpt lat="47.27335" lon="-1.53755">
        <ele>83</ele>
        <time>2022-04-10T08:38:30Z</time>
      </trkpt>
      <trkpt lat="47.27337" lon="-1.53754">
        <ele>82</ele>
        <time>2022-04-10T08:38:31Z</time>
      </trkpt>
      <trkpt lat="47.27338" lon="-1.53754">
        <ele>83</ele>
        <time>2022-04-10T08:38:32Z</time>
      </trkpt>
      <trkpt lat="47.27338" lon="-1.53753">
        <ele>83</ele>
        <time>2022-04-10T08:38:33Z</time>
      </trkpt>
      <trkpt lat="47.27339" lon="-1.53752">
        <ele>84</ele>
        <time>2022-04-10T08:38:34Z</time>
      </trkpt>
      <trkpt lat="47.27339" lon="-1.53752">
        <ele>84</ele>
        <time>2022-04-10T08:38:35Z</time>
      </trkpt>
      <trkpt lat="47.27339" lon="-1.53752">
        <ele>84</ele>
        <time>2022-04-10T08:38:36Z</time>
      </trkpt>
      <trkpt lat="47.27341" lon="-1.53751">
        <ele>83</ele>
        <time>2022-04-10T08:38:37Z</time>
      </trkpt>
      <trkpt lat="47.27342" lon="-1.53751">
        <ele>83</ele>
        <time>2022-04-10T08:38:38Z</time>
      </trkpt>
      <trkpt lat="47.27343" lon="-1.53749">
        <ele>83</ele>
        <time>2022-04-10T08:38:39Z</time>
      </trkpt>
      <trkpt lat="47.27343" lon="-1.53748">
        <ele>83</ele>
        <time>2022-04-10T08:38:40Z</time>
      </trkpt>
      <trkpt lat="47.27345" lon="-1.53748">
        <ele>83</ele>
        <time>2022-04-10T08:38:41Z</time>
      </trkpt>
      <trkpt lat="47.27346" lon="-1.53748">
        <ele>84</ele>
        <time>2022-04-10T08:38:42Z</time>
      </trkpt>
      <trkpt lat="47.27347" lon="-1.53747">
        <ele>84</ele>
        <time>2022-04-10T08:38:43Z</time>
      </trkpt>
      <trkpt lat="47.27348" lon="-1.53747">
        <ele>84</ele>
        <time>2022-04-10T08:38:44Z</time>
      </trkpt>
      <trkpt lat="47.27349" lon="-1.53747">
        <ele>84</ele>
        <time>2022-04-10T08:38:45Z</time>
      </trkpt>
      <trkpt lat="47.2735" lon="-1.53747">
        <ele>84</ele>
        <time>2022-04-10T08:38:46Z</time>
      </trkpt>
      <trkpt lat="47.27351" lon="-1.53747">
        <ele>84</ele>
        <time>2022-04-10T08:38:47Z</time>
      </trkpt>
      <trkpt lat="47.27353" lon="-1.53745">
        <ele>85</ele>
        <time>2022-04-10T08:38:48Z</time>
      </trkpt>
      <trkpt lat="47.27353" lon="-1.53745">
        <ele>85</ele>
        <time>2022-04-10T08:38:49Z</time>
      </trkpt>
      <trkpt lat="47.27353" lon="-1.53744">
        <ele>85</ele>
        <time>2022-04-10T08:38:50Z</time>
      </trkpt>
      <trkpt lat="47.27353" lon="-1.53744">
        <ele>85</ele>
        <time>2022-04-10T08:38:51Z</time>
      </trkpt>
      <trkpt lat="47.27353" lon="-1.53744">
        <ele>85</ele>
        <time>2022-04-10T08:38:52Z</time>
      </trkpt>
      <trkpt lat="47.27355" lon="-1.53743">
        <ele>86</ele>
        <time>2022-04-10T08:38:53Z</time>
      </trkpt>
      <trkpt lat="47.27356" lon="-1.53743">
        <ele>86</ele>
        <time>2022-04-10T08:38:54Z</time>
      </trkpt>
      <trkpt lat="47.27358" lon="-1.53742">
        <ele>86</ele>
        <time>2022-04-10T08:38:55Z</time>
      </trkpt>
      <trkpt lat="47.27359" lon="-1.53742">
        <ele>86</ele>
        <time>2022-04-10T08:38:56Z</time>
      </trkpt>
      <trkpt lat="47.2736" lon="-1.53741">
        <ele>86</ele>
        <time>2022-04-10T08:38:57Z</time>
      </trkpt>
      <trkpt lat="47.27361" lon="-1.5374">
        <ele>86</ele>
        <time>2022-04-10T08:38:58Z</time>
      </trkpt>
      <trkpt lat="47.27362" lon="-1.5374">
        <ele>85</ele>
        <time>2022-04-10T08:38:59Z</time>
      </trkpt>
      <trkpt lat="47.27364" lon="-1.5374">
        <ele>85</ele>
        <time>2022-04-10T08:39:00Z</time>
      </trkpt>
      <trkpt lat="47.27365" lon="-1.53739">
        <ele>86</ele>
        <time>2022-04-10T08:39:01Z</time>
      </trkpt>
      <trkpt lat="47.27366" lon="-1.53739">
        <ele>86</ele>
        <time>2022-04-10T08:39:02Z</time>
      </trkpt>
      <trkpt lat="47.27367" lon="-1.53738">
        <ele>86</ele>
        <time>2022-04-10T08:39:03Z</time>
      </trkpt>
      <trkpt lat="47.27369" lon="-1.53738">
        <ele>86</ele>
        <time>2022-04-10T08:39:04Z</time>
      </trkpt>
      <trkpt lat="47.27369" lon="-1.53737">
        <ele>86</ele>
        <time>2022-04-10T08:39:05Z</time>
      </trkpt>
      <trkpt lat="47.2737" lon="-1.53736">
        <ele>86</ele>
        <time>2022-04-10T08:39:06Z</time>
      </trkpt>
      <trkpt lat="47.2737" lon="-1.53736">
        <ele>86</ele>
        <time>2022-04-10T08:39:07Z</time>
      </trkpt>
      <trkpt lat="47.2737" lon="-1.53736">
        <ele>86</ele>
        <time>2022-04-10T08:39:08Z</time>
      </trkpt>
      <trkpt lat="47.27372" lon="-1.53735">
        <ele>86</ele>
        <time>2022-04-10T08:39:09Z</time>
      </trkpt>
      <trkpt lat="47.27374" lon="-1.53735">
        <ele>86</ele>
        <time>2022-04-10T08:39:10Z</time>
      </trkpt>
      <trkpt lat="47.27375" lon="-1.53735">
        <ele>86</ele>
        <time>2022-04-10T08:39:11Z</time>
      </trkpt>
      <trkpt lat="47.27377" lon="-1.53734">
        <ele>86</ele>
        <time>2022-04-10T08:39:13Z</time>
      </trkpt>
      <trkpt lat="47.27379" lon="-1.53734">
        <ele>85</ele>
        <time>2022-04-10T08:39:14Z</time>
      </trkpt>
      <trkpt lat="47.2738" lon="-1.53732">
        <ele>85</ele>
        <time>2022-04-10T08:39:15Z</time>
      </trkpt>
      <trkpt lat="47.2738" lon="-1.53731">
        <ele>85</ele>
        <time>2022-04-10T08:39:16Z</time>
      </trkpt>
      <trkpt lat="47.27381" lon="-1.5373">
        <ele>85</ele>
        <time>2022-04-10T08:39:17Z</time>
      </trkpt>
      <trkpt lat="47.27382" lon="-1.53729">
        <ele>85</ele>
        <time>2022-04-10T08:39:18Z</time>
      </trkpt>
      <trkpt lat="47.27382" lon="-1.53728">
        <ele>85</ele>
        <time>2022-04-10T08:39:19Z</time>
      </trkpt>
      <trkpt lat="47.27383" lon="-1.53727">
        <ele>85</ele>
        <time>2022-04-10T08:39:20Z</time>
      </trkpt>
      <trkpt lat="47.27383" lon="-1.53726">
        <ele>85</ele>
        <time>2022-04-10T08:39:21Z</time>
      </trkpt>
      <trkpt lat="47.27383" lon="-1.53726">
        <ele>85</ele>
        <time>2022-04-10T08:39:22Z</time>
      </trkpt>
      <trkpt lat="47.27383" lon="-1.53726">
        <ele>85</ele>
        <time>2022-04-10T08:39:23Z</time>
      </trkpt>
      <trkpt lat="47.27385" lon="-1.53725">
        <ele>86</ele>
        <time>2022-04-10T08:39:24Z</time>
      </trkpt>
      <trkpt lat="47.27387" lon="-1.53724">
        <ele>86</ele>
        <time>2022-04-10T08:39:25Z</time>
      </trkpt>
      <trkpt lat="47.27387" lon="-1.53724">
        <ele>86</ele>
        <time>2022-04-10T08:39:26Z</time>
      </trkpt>
      <trkpt lat="47.27388" lon="-1.53723">
        <ele>86</ele>
        <time>2022-04-10T08:39:27Z</time>
      </trkpt>
      <trkpt lat="47.27389" lon="-1.53723">
        <ele>87</ele>
        <time>2022-04-10T08:39:28Z</time>
      </trkpt>
      <trkpt lat="47.27391" lon="-1.53722">
        <ele>87</ele>
        <time>2022-04-10T08:39:29Z</time>
      </trkpt>
      <trkpt lat="47.27391" lon="-1.53721">
        <ele>87</ele>
        <time>2022-04-10T08:39:30Z</time>
      </trkpt>
      <trkpt lat="47.27393" lon="-1.53721">
        <ele>86</ele>
        <time>2022-04-10T08:39:31Z</time>
      </trkpt>
      <trkpt lat="47.27394" lon="-1.53721">
        <ele>86</ele>
        <time>2022-04-10T08:39:32Z</time>
      </trkpt>
      <trkpt lat="47.27395" lon="-1.53721">
        <ele>86</ele>
        <time>2022-04-10T08:39:33Z</time>
      </trkpt>
      <trkpt lat="47.27396" lon="-1.53722">
        <ele>86</ele>
        <time>2022-04-10T08:39:34Z</time>
      </trkpt>
      <trkpt lat="47.27397" lon="-1.53722">
        <ele>86</ele>
        <time>2022-04-10T08:39:35Z</time>
      </trkpt>
      <trkpt lat="47.27398" lon="-1.53722">
        <ele>86</ele>
        <time>2022-04-10T08:39:36Z</time>
      </trkpt>
      <trkpt lat="47.27398" lon="-1.53722">
        <ele>86</ele>
        <time>2022-04-10T08:39:37Z</time>
      </trkpt>
      <trkpt lat="47.27399" lon="-1.53721">
        <ele>87</ele>
        <time>2022-04-10T08:39:38Z</time>
      </trkpt>
      <trkpt lat="47.27401" lon="-1.5372">
        <ele>87</ele>
        <time>2022-04-10T08:39:39Z</time>
      </trkpt>
      <trkpt lat="47.27401" lon="-1.53719">
        <ele>88</ele>
        <time>2022-04-10T08:39:40Z</time>
      </trkpt>
      <trkpt lat="47.27402" lon="-1.53718">
        <ele>89</ele>
        <time>2022-04-10T08:39:41Z</time>
      </trkpt>
      <trkpt lat="47.27403" lon="-1.53717">
        <ele>88</ele>
        <time>2022-04-10T08:39:42Z</time>
      </trkpt>
      <trkpt lat="47.27404" lon="-1.53715">
        <ele>88</ele>
        <time>2022-04-10T08:39:43Z</time>
      </trkpt>
      <trkpt lat="47.27406" lon="-1.53714">
        <ele>88</ele>
        <time>2022-04-10T08:39:44Z</time>
      </trkpt>
      <trkpt lat="47.27407" lon="-1.53713">
        <ele>89</ele>
        <time>2022-04-10T08:39:45Z</time>
      </trkpt>
      <trkpt lat="47.27408" lon="-1.53713">
        <ele>89</ele>
        <time>2022-04-10T08:39:46Z</time>
      </trkpt>
      <trkpt lat="47.27409" lon="-1.53712">
        <ele>90</ele>
        <time>2022-04-10T08:39:47Z</time>
      </trkpt>
      <trkpt lat="47.2741" lon="-1.53712">
        <ele>90</ele>
        <time>2022-04-10T08:39:48Z</time>
      </trkpt>
      <trkpt lat="47.27411" lon="-1.53711">
        <ele>89</ele>
        <time>2022-04-10T08:39:49Z</time>
      </trkpt>
      <trkpt lat="47.27412" lon="-1.53711">
        <ele>88</ele>
        <time>2022-04-10T08:39:50Z</time>
      </trkpt>
      <trkpt lat="47.27414" lon="-1.5371">
        <ele>88</ele>
        <time>2022-04-10T08:39:51Z</time>
      </trkpt>
      <trkpt lat="47.27415" lon="-1.5371">
        <ele>88</ele>
        <time>2022-04-10T08:39:52Z</time>
      </trkpt>
      <trkpt lat="47.27415" lon="-1.53709">
        <ele>88</ele>
        <time>2022-04-10T08:39:53Z</time>
      </trkpt>
      <trkpt lat="47.27416" lon="-1.53709">
        <ele>88</ele>
        <time>2022-04-10T08:39:54Z</time>
      </trkpt>
      <trkpt lat="47.27417" lon="-1.53708">
        <ele>88</ele>
        <time>2022-04-10T08:39:55Z</time>
      </trkpt>
      <trkpt lat="47.27418" lon="-1.53707">
        <ele>88</ele>
        <time>2022-04-10T08:39:56Z</time>
      </trkpt>
      <trkpt lat="47.27418" lon="-1.53706">
        <ele>88</ele>
        <time>2022-04-10T08:39:57Z</time>
      </trkpt>
      <trkpt lat="47.27419" lon="-1.53705">
        <ele>88</ele>
        <time>2022-04-10T08:39:58Z</time>
      </trkpt>
      <trkpt lat="47.27419" lon="-1.53705">
        <ele>88</ele>
        <time>2022-04-10T08:39:59Z</time>
      </trkpt>
      <trkpt lat="47.27419" lon="-1.53705">
        <ele>88</ele>
        <time>2022-04-10T08:40:00Z</time>
      </trkpt>
      <trkpt lat="47.27421" lon="-1.53704">
        <ele>88</ele>
        <time>2022-04-10T08:40:01Z</time>
      </trkpt>
      <trkpt lat="47.27422" lon="-1.53705">
        <ele>87</ele>
        <time>2022-04-10T08:40:02Z</time>
      </trkpt>
      <trkpt lat="47.27424" lon="-1.53703">
        <ele>88</ele>
        <time>2022-04-10T08:40:03Z</time>
      </trkpt>
      <trkpt lat="47.27425" lon="-1.53703">
        <ele>88</ele>
        <time>2022-04-10T08:40:04Z</time>
      </trkpt>
      <trkpt lat="47.27426" lon="-1.53702">
        <ele>88</ele>
        <time>2022-04-10T08:40:05Z</time>
      </trkpt>
      <trkpt lat="47.27426" lon="-1.53702">
        <ele>88</ele>
        <time>2022-04-10T08:40:06Z</time>
      </trkpt>
      <trkpt lat="47.27428" lon="-1.537">
        <ele>89</ele>
        <time>2022-04-10T08:40:07Z</time>
      </trkpt>
      <trkpt lat="47.27429" lon="-1.53698">
        <ele>89</ele>
        <time>2022-04-10T08:40:08Z</time>
      </trkpt>
      <trkpt lat="47.2743" lon="-1.53697">
        <ele>89</ele>
        <time>2022-04-10T08:40:09Z</time>
      </trkpt>
      <trkpt lat="47.27432" lon="-1.53696">
        <ele>90</ele>
        <time>2022-04-10T08:40:10Z</time>
      </trkpt>
      <trkpt lat="47.27432" lon="-1.53695">
        <ele>90</ele>
        <time>2022-04-10T08:40:11Z</time>
      </trkpt>
      <trkpt lat="47.27433" lon="-1.53694">
        <ele>89</ele>
        <time>2022-04-10T08:40:12Z</time>
      </trkpt>
      <trkpt lat="47.27434" lon="-1.53694">
        <ele>89</ele>
        <time>2022-04-10T08:40:13Z</time>
      </trkpt>
      <trkpt lat="47.27435" lon="-1.53694">
        <ele>88</ele>
        <time>2022-04-10T08:40:14Z</time>
      </trkpt>
      <trkpt lat="47.27436" lon="-1.53693">
        <ele>88</ele>
        <time>2022-04-10T08:40:15Z</time>
      </trkpt>
      <trkpt lat="47.27436" lon="-1.53693">
        <ele>88</ele>
        <time>2022-04-10T08:40:16Z</time>
      </trkpt>
      <trkpt lat="47.27436" lon="-1.53693">
        <ele>88</ele>
        <time>2022-04-10T08:40:17Z</time>
      </trkpt>
      <trkpt lat="47.27439" lon="-1.53692">
        <ele>88</ele>
        <time>2022-04-10T08:40:18Z</time>
      </trkpt>
      <trkpt lat="47.2744" lon="-1.53692">
        <ele>88</ele>
        <time>2022-04-10T08:40:19Z</time>
      </trkpt>
      <trkpt lat="47.27442" lon="-1.5369">
        <ele>88</ele>
        <time>2022-04-10T08:40:20Z</time>
      </trkpt>
      <trkpt lat="47.27443" lon="-1.5369">
        <ele>88</ele>
        <time>2022-04-10T08:40:21Z</time>
      </trkpt>
      <trkpt lat="47.27445" lon="-1.5369">
        <ele>87</ele>
        <time>2022-04-10T08:40:22Z</time>
      </trkpt>
      <trkpt lat="47.27445" lon="-1.5369">
        <ele>87</ele>
        <time>2022-04-10T08:40:23Z</time>
      </trkpt>
      <trkpt lat="47.27445" lon="-1.5369">
        <ele>87</ele>
        <time>2022-04-10T08:40:24Z</time>
      </trkpt>
      <trkpt lat="47.27447" lon="-1.53688">
        <ele>85</ele>
        <time>2022-04-10T08:40:25Z</time>
      </trkpt>
      <trkpt lat="47.27448" lon="-1.53687">
        <ele>84</ele>
        <time>2022-04-10T08:40:26Z</time>
      </trkpt>
      <trkpt lat="47.27449" lon="-1.53686">
        <ele>83</ele>
        <time>2022-04-10T08:40:27Z</time>
      </trkpt>
      <trkpt lat="47.27449" lon="-1.53685">
        <ele>82</ele>
        <time>2022-04-10T08:40:28Z</time>
      </trkpt>
      <trkpt lat="47.27449" lon="-1.53685">
        <ele>82</ele>
        <time>2022-04-10T08:40:29Z</time>
      </trkpt>
      <trkpt lat="47.27449" lon="-1.53685">
        <ele>82</ele>
        <time>2022-04-10T08:40:30Z</time>
      </trkpt>
      <trkpt lat="47.27451" lon="-1.53681">
        <ele>80</ele>
        <time>2022-04-10T08:40:31Z</time>
      </trkpt>
      <trkpt lat="47.27451" lon="-1.5368">
        <ele>79</ele>
        <time>2022-04-10T08:40:32Z</time>
      </trkpt>
      <trkpt lat="47.27452" lon="-1.53678">
        <ele>79</ele>
        <time>2022-04-10T08:40:33Z</time>
      </trkpt>
      <trkpt lat="47.27453" lon="-1.53676">
        <ele>78</ele>
        <time>2022-04-10T08:40:34Z</time>
      </trkpt>
      <trkpt lat="47.27454" lon="-1.53675">
        <ele>78</ele>
        <time>2022-04-10T08:40:35Z</time>
      </trkpt>
      <trkpt lat="47.27454" lon="-1.53674">
        <ele>78</ele>
        <time>2022-04-10T08:40:36Z</time>
      </trkpt>
      <trkpt lat="47.27454" lon="-1.53674">
        <ele>78</ele>
        <time>2022-04-10T08:40:37Z</time>
      </trkpt>
      <trkpt lat="47.27454" lon="-1.53674">
        <ele>78</ele>
        <time>2022-04-10T08:40:38Z</time>
      </trkpt>
      <trkpt lat="47.27455" lon="-1.5367">
        <ele>79</ele>
        <time>2022-04-10T08:40:39Z</time>
      </trkpt>
      <trkpt lat="47.27456" lon="-1.53669">
        <ele>79</ele>
        <time>2022-04-10T08:40:40Z</time>
      </trkpt>
      <trkpt lat="47.27456" lon="-1.53668">
        <ele>79</ele>
        <time>2022-04-10T08:40:41Z</time>
      </trkpt>
      <trkpt lat="47.27456" lon="-1.53665">
        <ele>79</ele>
        <time>2022-04-10T08:40:42Z</time>
      </trkpt>
      <trkpt lat="47.27456" lon="-1.53664">
        <ele>79</ele>
        <time>2022-04-10T08:40:43Z</time>
      </trkpt>
      <trkpt lat="47.27456" lon="-1.53663">
        <ele>79</ele>
        <time>2022-04-10T08:40:44Z</time>
      </trkpt>
      <trkpt lat="47.27456" lon="-1.53662">
        <ele>79</ele>
        <time>2022-04-10T08:40:45Z</time>
      </trkpt>
      <trkpt lat="47.27456" lon="-1.53661">
        <ele>79</ele>
        <time>2022-04-10T08:40:46Z</time>
      </trkpt>
      <trkpt lat="47.27457" lon="-1.53659">
        <ele>79</ele>
        <time>2022-04-10T08:40:47Z</time>
      </trkpt>
      <trkpt lat="47.27457" lon="-1.53658">
        <ele>79</ele>
        <time>2022-04-10T08:40:48Z</time>
      </trkpt>
      <trkpt lat="47.27457" lon="-1.53656">
        <ele>79</ele>
        <time>2022-04-10T08:40:49Z</time>
      </trkpt>
      <trkpt lat="47.27457" lon="-1.53654">
        <ele>79</ele>
        <time>2022-04-10T08:40:50Z</time>
      </trkpt>
      <trkpt lat="47.27457" lon="-1.53653">
        <ele>78</ele>
        <time>2022-04-10T08:40:51Z</time>
      </trkpt>
      <trkpt lat="47.27457" lon="-1.53651">
        <ele>78</ele>
        <time>2022-04-10T08:40:52Z</time>
      </trkpt>
      <trkpt lat="47.27457" lon="-1.5365">
        <ele>78</ele>
        <time>2022-04-10T08:40:53Z</time>
      </trkpt>
      <trkpt lat="47.27457" lon="-1.53648">
        <ele>77</ele>
        <time>2022-04-10T08:40:54Z</time>
      </trkpt>
      <trkpt lat="47.27457" lon="-1.53647">
        <ele>77</ele>
        <time>2022-04-10T08:40:55Z</time>
      </trkpt>
      <trkpt lat="47.27457" lon="-1.53645">
        <ele>77</ele>
        <time>2022-04-10T08:40:56Z</time>
      </trkpt>
      <trkpt lat="47.27457" lon="-1.53644">
        <ele>77</ele>
        <time>2022-04-10T08:40:57Z</time>
      </trkpt>
      <trkpt lat="47.27457" lon="-1.53643">
        <ele>77</ele>
        <time>2022-04-10T08:40:58Z</time>
      </trkpt>
      <trkpt lat="47.27457" lon="-1.53643">
        <ele>77</ele>
        <time>2022-04-10T08:40:59Z</time>
      </trkpt>
      <trkpt lat="47.27457" lon="-1.53643">
        <ele>77</ele>
        <time>2022-04-10T08:41:00Z</time>
      </trkpt>
      <trkpt lat="47.27457" lon="-1.53639">
        <ele>77</ele>
        <time>2022-04-10T08:41:01Z</time>
      </trkpt>
      <trkpt lat="47.27457" lon="-1.53638">
        <ele>77</ele>
        <time>2022-04-10T08:41:02Z</time>
      </trkpt>
      <trkpt lat="47.27457" lon="-1.53637">
        <ele>77</ele>
        <time>2022-04-10T08:41:03Z</time>
      </trkpt>
      <trkpt lat="47.27457" lon="-1.53636">
        <ele>78</ele>
        <time>2022-04-10T08:41:04Z</time>
      </trkpt>
      <trkpt lat="47.27457" lon="-1.53636">
        <ele>78</ele>
        <time>2022-04-10T08:41:05Z</time>
      </trkpt>
      <trkpt lat="47.27457" lon="-1.53636">
        <ele>78</ele>
        <time>2022-04-10T08:41:06Z</time>
      </trkpt>
      <trkpt lat="47.27458" lon="-1.53633">
        <ele>78</ele>
        <time>2022-04-10T08:41:07Z</time>
      </trkpt>
      <trkpt lat="47.27458" lon="-1.53631">
        <ele>78</ele>
        <time>2022-04-10T08:41:08Z</time>
      </trkpt>
      <trkpt lat="47.27458" lon="-1.5363">
        <ele>79</ele>
        <time>2022-04-10T08:41:09Z</time>
      </trkpt>
      <trkpt lat="47.27458" lon="-1.53628">
        <ele>79</ele>
        <time>2022-04-10T08:41:10Z</time>
      </trkpt>
      <trkpt lat="47.27458" lon="-1.53627">
        <ele>79</ele>
        <time>2022-04-10T08:41:11Z</time>
      </trkpt>
      <trkpt lat="47.27458" lon="-1.53625">
        <ele>79</ele>
        <time>2022-04-10T08:41:12Z</time>
      </trkpt>
      <trkpt lat="47.27458" lon="-1.53622">
        <ele>79</ele>
        <time>2022-04-10T08:41:13Z</time>
      </trkpt>
      <trkpt lat="47.27457" lon="-1.5362">
        <ele>79</ele>
        <time>2022-04-10T08:41:14Z</time>
      </trkpt>
      <trkpt lat="47.27457" lon="-1.53618">
        <ele>79</ele>
        <time>2022-04-10T08:41:15Z</time>
      </trkpt>
      <trkpt lat="47.27458" lon="-1.53617">
        <ele>79</ele>
        <time>2022-04-10T08:41:16Z</time>
      </trkpt>
      <trkpt lat="47.27458" lon="-1.53615">
        <ele>79</ele>
        <time>2022-04-10T08:41:17Z</time>
      </trkpt>
      <trkpt lat="47.27459" lon="-1.53614">
        <ele>79</ele>
        <time>2022-04-10T08:41:18Z</time>
      </trkpt>
      <trkpt lat="47.27459" lon="-1.53614">
        <ele>79</ele>
        <time>2022-04-10T08:41:19Z</time>
      </trkpt>
      <trkpt lat="47.27459" lon="-1.53614">
        <ele>79</ele>
        <time>2022-04-10T08:41:20Z</time>
      </trkpt>
      <trkpt lat="47.27459" lon="-1.53612">
        <ele>78</ele>
        <time>2022-04-10T08:41:21Z</time>
      </trkpt>
      <trkpt lat="47.27459" lon="-1.53611">
        <ele>78</ele>
        <time>2022-04-10T08:41:22Z</time>
      </trkpt>
      <trkpt lat="47.27459" lon="-1.53609">
        <ele>77</ele>
        <time>2022-04-10T08:41:23Z</time>
      </trkpt>
      <trkpt lat="47.27459" lon="-1.53608">
        <ele>77</ele>
        <time>2022-04-10T08:41:24Z</time>
      </trkpt>
      <trkpt lat="47.27459" lon="-1.53608">
        <ele>77</ele>
        <time>2022-04-10T08:41:25Z</time>
      </trkpt>
      <trkpt lat="47.27459" lon="-1.53608">
        <ele>77</ele>
        <time>2022-04-10T08:41:26Z</time>
      </trkpt>
      <trkpt lat="47.27459" lon="-1.53603">
        <ele>78</ele>
        <time>2022-04-10T08:41:27Z</time>
      </trkpt>
      <trkpt lat="47.27459" lon="-1.53601">
        <ele>78</ele>
        <time>2022-04-10T08:41:28Z</time>
      </trkpt>
      <trkpt lat="47.27458" lon="-1.53599">
        <ele>78</ele>
        <time>2022-04-10T08:41:29Z</time>
      </trkpt>
      <trkpt lat="47.27458" lon="-1.53597">
        <ele>77</ele>
        <time>2022-04-10T08:41:30Z</time>
      </trkpt>
      <trkpt lat="47.27458" lon="-1.53597">
        <ele>77</ele>
        <time>2022-04-10T08:41:31Z</time>
      </trkpt>
      <trkpt lat="47.27458" lon="-1.53597">
        <ele>77</ele>
        <time>2022-04-10T08:41:32Z</time>
      </trkpt>
      <trkpt lat="47.27458" lon="-1.53592">
        <ele>77</ele>
        <time>2022-04-10T08:41:33Z</time>
      </trkpt>
      <trkpt lat="47.27458" lon="-1.53591">
        <ele>77</ele>
        <time>2022-04-10T08:41:34Z</time>
      </trkpt>
      <trkpt lat="47.27459" lon="-1.5359">
        <ele>77</ele>
        <time>2022-04-10T08:41:35Z</time>
      </trkpt>
      <trkpt lat="47.27458" lon="-1.53588">
        <ele>77</ele>
        <time>2022-04-10T08:41:36Z</time>
      </trkpt>
      <trkpt lat="47.27458" lon="-1.53588">
        <ele>77</ele>
        <time>2022-04-10T08:41:37Z</time>
      </trkpt>
      <trkpt lat="47.27458" lon="-1.53588">
        <ele>77</ele>
        <time>2022-04-10T08:41:38Z</time>
      </trkpt>
      <trkpt lat="47.27458" lon="-1.53588">
        <ele>77</ele>
        <time>2022-04-10T08:41:39Z</time>
      </trkpt>
      <trkpt lat="47.27458" lon="-1.53588">
        <ele>77</ele>
        <time>2022-04-10T08:41:40Z</time>
      </trkpt>
      <trkpt lat="47.27458" lon="-1.53588">
        <ele>77</ele>
        <time>2022-04-10T08:41:41Z</time>
      </trkpt>
      <trkpt lat="47.27458" lon="-1.53582">
        <ele>77</ele>
        <time>2022-04-10T08:41:42Z</time>
      </trkpt>
      <trkpt lat="47.27459" lon="-1.5358">
        <ele>77</ele>
        <time>2022-04-10T08:41:43Z</time>
      </trkpt>
      <trkpt lat="47.27459" lon="-1.53579">
        <ele>78</ele>
        <time>2022-04-10T08:41:44Z</time>
      </trkpt>
      <trkpt lat="47.27459" lon="-1.53576">
        <ele>79</ele>
        <time>2022-04-10T08:41:45Z</time>
      </trkpt>
      <trkpt lat="47.27459" lon="-1.53576">
        <ele>79</ele>
        <time>2022-04-10T08:41:46Z</time>
      </trkpt>
      <trkpt lat="47.27459" lon="-1.53576">
        <ele>79</ele>
        <time>2022-04-10T08:41:47Z</time>
      </trkpt>
      <trkpt lat="47.2746" lon="-1.53572">
        <ele>80</ele>
        <time>2022-04-10T08:41:48Z</time>
      </trkpt>
      <trkpt lat="47.2746" lon="-1.5357">
        <ele>81</ele>
        <time>2022-04-10T08:41:49Z</time>
      </trkpt>
      <trkpt lat="47.27461" lon="-1.53567">
        <ele>81</ele>
        <time>2022-04-10T08:41:50Z</time>
      </trkpt>
      <trkpt lat="47.27461" lon="-1.53565">
        <ele>82</ele>
        <time>2022-04-10T08:41:51Z</time>
      </trkpt>
      <trkpt lat="47.27461" lon="-1.53563">
        <ele>82</ele>
        <time>2022-04-10T08:41:52Z</time>
      </trkpt>
      <trkpt lat="47.27461" lon="-1.53562">
        <ele>82</ele>
        <time>2022-04-10T08:41:53Z</time>
      </trkpt>
      <trkpt lat="47.27461" lon="-1.5356">
        <ele>82</ele>
        <time>2022-04-10T08:41:54Z</time>
      </trkpt>
      <trkpt lat="47.27461" lon="-1.53558">
        <ele>82</ele>
        <time>2022-04-10T08:41:55Z</time>
      </trkpt>
      <trkpt lat="47.27461" lon="-1.53558">
        <ele>82</ele>
        <time>2022-04-10T08:41:56Z</time>
      </trkpt>
      <trkpt lat="47.27461" lon="-1.53558">
        <ele>82</ele>
        <time>2022-04-10T08:41:57Z</time>
      </trkpt>
      <trkpt lat="47.27462" lon="-1.53554">
        <ele>83</ele>
        <time>2022-04-10T08:41:58Z</time>
      </trkpt>
      <trkpt lat="47.27462" lon="-1.53552">
        <ele>82</ele>
        <time>2022-04-10T08:41:59Z</time>
      </trkpt>
      <trkpt lat="47.27462" lon="-1.53551">
        <ele>82</ele>
        <time>2022-04-10T08:42:00Z</time>
      </trkpt>
      <trkpt lat="47.27462" lon="-1.53548">
        <ele>81</ele>
        <time>2022-04-10T08:42:01Z</time>
      </trkpt>
      <trkpt lat="47.27462" lon="-1.53548">
        <ele>81</ele>
        <time>2022-04-10T08:42:02Z</time>
      </trkpt>
      <trkpt lat="47.27462" lon="-1.53548">
        <ele>81</ele>
        <time>2022-04-10T08:42:03Z</time>
      </trkpt>
      <trkpt lat="47.27462" lon="-1.53543">
        <ele>81</ele>
        <time>2022-04-10T08:42:04Z</time>
      </trkpt>
      <trkpt lat="47.27463" lon="-1.53542">
        <ele>82</ele>
        <time>2022-04-10T08:42:05Z</time>
      </trkpt>
      <trkpt lat="47.27463" lon="-1.5354">
        <ele>82</ele>
        <time>2022-04-10T08:42:06Z</time>
      </trkpt>
      <trkpt lat="47.27464" lon="-1.53538">
        <ele>81</ele>
        <time>2022-04-10T08:42:07Z</time>
      </trkpt>
      <trkpt lat="47.27464" lon="-1.53536">
        <ele>82</ele>
        <time>2022-04-10T08:42:08Z</time>
      </trkpt>
      <trkpt lat="47.27464" lon="-1.53536">
        <ele>82</ele>
        <time>2022-04-10T08:42:09Z</time>
      </trkpt>
      <trkpt lat="47.27464" lon="-1.53536">
        <ele>82</ele>
        <time>2022-04-10T08:42:10Z</time>
      </trkpt>
      <trkpt lat="47.27464" lon="-1.53532">
        <ele>81</ele>
        <time>2022-04-10T08:42:11Z</time>
      </trkpt>
      <trkpt lat="47.27464" lon="-1.5353">
        <ele>82</ele>
        <time>2022-04-10T08:42:12Z</time>
      </trkpt>
      <trkpt lat="47.27464" lon="-1.53528">
        <ele>82</ele>
        <time>2022-04-10T08:42:13Z</time>
      </trkpt>
      <trkpt lat="47.27464" lon="-1.53526">
        <ele>82</ele>
        <time>2022-04-10T08:42:14Z</time>
      </trkpt>
      <trkpt lat="47.27464" lon="-1.53524">
        <ele>81</ele>
        <time>2022-04-10T08:42:15Z</time>
      </trkpt>
      <trkpt lat="47.27464" lon="-1.53522">
        <ele>81</ele>
        <time>2022-04-10T08:42:16Z</time>
      </trkpt>
      <trkpt lat="47.27464" lon="-1.53521">
        <ele>80</ele>
        <time>2022-04-10T08:42:17Z</time>
      </trkpt>
      <trkpt lat="47.27464" lon="-1.53519">
        <ele>80</ele>
        <time>2022-04-10T08:42:18Z</time>
      </trkpt>
      <trkpt lat="47.27464" lon="-1.53518">
        <ele>80</ele>
        <time>2022-04-10T08:42:19Z</time>
      </trkpt>
      <trkpt lat="47.27464" lon="-1.53518">
        <ele>80</ele>
        <time>2022-04-10T08:42:20Z</time>
      </trkpt>
      <trkpt lat="47.27464" lon="-1.53518">
        <ele>80</ele>
        <time>2022-04-10T08:42:21Z</time>
      </trkpt>
      <trkpt lat="47.27464" lon="-1.53514">
        <ele>80</ele>
        <time>2022-04-10T08:42:22Z</time>
      </trkpt>
      <trkpt lat="47.27464" lon="-1.53513">
        <ele>79</ele>
        <time>2022-04-10T08:42:23Z</time>
      </trkpt>
      <trkpt lat="47.27464" lon="-1.53511">
        <ele>79</ele>
        <time>2022-04-10T08:42:24Z</time>
      </trkpt>
      <trkpt lat="47.27464" lon="-1.53509">
        <ele>78</ele>
        <time>2022-04-10T08:42:25Z</time>
      </trkpt>
      <trkpt lat="47.27464" lon="-1.53508">
        <ele>78</ele>
        <time>2022-04-10T08:42:26Z</time>
      </trkpt>
      <trkpt lat="47.27464" lon="-1.53506">
        <ele>77</ele>
        <time>2022-04-10T08:42:27Z</time>
      </trkpt>
      <trkpt lat="47.27465" lon="-1.53504">
        <ele>78</ele>
        <time>2022-04-10T08:42:28Z</time>
      </trkpt>
      <trkpt lat="47.27465" lon="-1.53504">
        <ele>78</ele>
        <time>2022-04-10T08:42:29Z</time>
      </trkpt>
      <trkpt lat="47.27465" lon="-1.53504">
        <ele>78</ele>
        <time>2022-04-10T08:42:30Z</time>
      </trkpt>
      <trkpt lat="47.27465" lon="-1.535">
        <ele>77</ele>
        <time>2022-04-10T08:42:31Z</time>
      </trkpt>
      <trkpt lat="47.27465" lon="-1.53499">
        <ele>77</ele>
        <time>2022-04-10T08:42:32Z</time>
      </trkpt>
      <trkpt lat="47.27465" lon="-1.53497">
        <ele>76</ele>
        <time>2022-04-10T08:42:33Z</time>
      </trkpt>
      <trkpt lat="47.27465" lon="-1.53496">
        <ele>76</ele>
        <time>2022-04-10T08:42:34Z</time>
      </trkpt>
      <trkpt lat="47.27465" lon="-1.53496">
        <ele>76</ele>
        <time>2022-04-10T08:42:35Z</time>
      </trkpt>
      <trkpt lat="47.27465" lon="-1.53496">
        <ele>76</ele>
        <time>2022-04-10T08:42:36Z</time>
      </trkpt>
      <trkpt lat="47.27466" lon="-1.53491">
        <ele>77</ele>
        <time>2022-04-10T08:42:37Z</time>
      </trkpt>
      <trkpt lat="47.27467" lon="-1.53489">
        <ele>78</ele>
        <time>2022-04-10T08:42:38Z</time>
      </trkpt>
      <trkpt lat="47.27466" lon="-1.53487">
        <ele>78</ele>
        <time>2022-04-10T08:42:39Z</time>
      </trkpt>
      <trkpt lat="47.27467" lon="-1.53486">
        <ele>77</ele>
        <time>2022-04-10T08:42:40Z</time>
      </trkpt>
      <trkpt lat="47.27467" lon="-1.53484">
        <ele>78</ele>
        <time>2022-04-10T08:42:41Z</time>
      </trkpt>
      <trkpt lat="47.27467" lon="-1.53483">
        <ele>78</ele>
        <time>2022-04-10T08:42:42Z</time>
      </trkpt>
      <trkpt lat="47.27467" lon="-1.53481">
        <ele>79</ele>
        <time>2022-04-10T08:42:43Z</time>
      </trkpt>
      <trkpt lat="47.27467" lon="-1.53478">
        <ele>79</ele>
        <time>2022-04-10T08:42:44Z</time>
      </trkpt>
      <trkpt lat="47.27467" lon="-1.53476">
        <ele>80</ele>
        <time>2022-04-10T08:42:45Z</time>
      </trkpt>
      <trkpt lat="47.27467" lon="-1.53474">
        <ele>80</ele>
        <time>2022-04-10T08:42:46Z</time>
      </trkpt>
      <trkpt lat="47.27467" lon="-1.53473">
        <ele>80</ele>
        <time>2022-04-10T08:42:47Z</time>
      </trkpt>
      <trkpt lat="47.27467" lon="-1.53471">
        <ele>80</ele>
        <time>2022-04-10T08:42:48Z</time>
      </trkpt>
      <trkpt lat="47.27466" lon="-1.53469">
        <ele>80</ele>
        <time>2022-04-10T08:42:49Z</time>
      </trkpt>
      <trkpt lat="47.27466" lon="-1.53467">
        <ele>80</ele>
        <time>2022-04-10T08:42:50Z</time>
      </trkpt>
      <trkpt lat="47.27466" lon="-1.53466">
        <ele>80</ele>
        <time>2022-04-10T08:42:51Z</time>
      </trkpt>
      <trkpt lat="47.27465" lon="-1.53465">
        <ele>80</ele>
        <time>2022-04-10T08:42:52Z</time>
      </trkpt>
      <trkpt lat="47.27465" lon="-1.53464">
        <ele>80</ele>
        <time>2022-04-10T08:42:53Z</time>
      </trkpt>
      <trkpt lat="47.27465" lon="-1.53464">
        <ele>80</ele>
        <time>2022-04-10T08:42:54Z</time>
      </trkpt>
      <trkpt lat="47.27465" lon="-1.53464">
        <ele>80</ele>
        <time>2022-04-10T08:42:55Z</time>
      </trkpt>
      <trkpt lat="47.27464" lon="-1.53462">
        <ele>78</ele>
        <time>2022-04-10T08:42:56Z</time>
      </trkpt>
      <trkpt lat="47.27464" lon="-1.53461">
        <ele>77</ele>
        <time>2022-04-10T08:42:57Z</time>
      </trkpt>
      <trkpt lat="47.27464" lon="-1.5346">
        <ele>77</ele>
        <time>2022-04-10T08:42:58Z</time>
      </trkpt>
      <trkpt lat="47.27464" lon="-1.53458">
        <ele>78</ele>
        <time>2022-04-10T08:42:59Z</time>
      </trkpt>
      <trkpt lat="47.27464" lon="-1.53458">
        <ele>78</ele>
        <time>2022-04-10T08:43:00Z</time>
      </trkpt>
      <trkpt lat="47.27464" lon="-1.53458">
        <ele>78</ele>
        <time>2022-04-10T08:43:01Z</time>
      </trkpt>
      <trkpt lat="47.27463" lon="-1.53454">
        <ele>78</ele>
        <time>2022-04-10T08:43:02Z</time>
      </trkpt>
      <trkpt lat="47.27464" lon="-1.53452">
        <ele>79</ele>
        <time>2022-04-10T08:43:03Z</time>
      </trkpt>
      <trkpt lat="47.27464" lon="-1.5345">
        <ele>79</ele>
        <time>2022-04-10T08:43:04Z</time>
      </trkpt>
      <trkpt lat="47.27464" lon="-1.53448">
        <ele>80</ele>
        <time>2022-04-10T08:43:05Z</time>
      </trkpt>
      <trkpt lat="47.27464" lon="-1.53447">
        <ele>80</ele>
        <time>2022-04-10T08:43:06Z</time>
      </trkpt>
      <trkpt lat="47.27464" lon="-1.53446">
        <ele>80</ele>
        <time>2022-04-10T08:43:07Z</time>
      </trkpt>
      <trkpt lat="47.27464" lon="-1.53446">
        <ele>80</ele>
        <time>2022-04-10T08:43:08Z</time>
      </trkpt>
      <trkpt lat="47.27464" lon="-1.53446">
        <ele>80</ele>
        <time>2022-04-10T08:43:09Z</time>
      </trkpt>
      <trkpt lat="47.27464" lon="-1.53443">
        <ele>80</ele>
        <time>2022-04-10T08:43:10Z</time>
      </trkpt>
      <trkpt lat="47.27464" lon="-1.53441">
        <ele>80</ele>
        <time>2022-04-10T08:43:11Z</time>
      </trkpt>
      <trkpt lat="47.27464" lon="-1.5344">
        <ele>81</ele>
        <time>2022-04-10T08:43:12Z</time>
      </trkpt>
      <trkpt lat="47.27465" lon="-1.53439">
        <ele>81</ele>
        <time>2022-04-10T08:43:13Z</time>
      </trkpt>
      <trkpt lat="47.27465" lon="-1.53439">
        <ele>81</ele>
        <time>2022-04-10T08:43:14Z</time>
      </trkpt>
      <trkpt lat="47.27465" lon="-1.53439">
        <ele>81</ele>
        <time>2022-04-10T08:43:15Z</time>
      </trkpt>
      <trkpt lat="47.27465" lon="-1.53439">
        <ele>81</ele>
        <time>2022-04-10T08:43:16Z</time>
      </trkpt>
      <trkpt lat="47.27465" lon="-1.53439">
        <ele>81</ele>
        <time>2022-04-10T08:43:17Z</time>
      </trkpt>
      <trkpt lat="47.27465" lon="-1.53439">
        <ele>81</ele>
        <time>2022-04-10T08:43:18Z</time>
      </trkpt>
      <trkpt lat="47.27467" lon="-1.53434">
        <ele>82</ele>
        <time>2022-04-10T08:43:19Z</time>
      </trkpt>
      <trkpt lat="47.27467" lon="-1.53433">
        <ele>82</ele>
        <time>2022-04-10T08:43:20Z</time>
      </trkpt>
      <trkpt lat="47.27468" lon="-1.53432">
        <ele>82</ele>
        <time>2022-04-10T08:43:21Z</time>
      </trkpt>
      <trkpt lat="47.27469" lon="-1.53431">
        <ele>82</ele>
        <time>2022-04-10T08:43:22Z</time>
      </trkpt>
      <trkpt lat="47.2747" lon="-1.53431">
        <ele>81</ele>
        <time>2022-04-10T08:43:23Z</time>
      </trkpt>
      <trkpt lat="47.2747" lon="-1.5343">
        <ele>80</ele>
        <time>2022-04-10T08:43:24Z</time>
      </trkpt>
      <trkpt lat="47.27471" lon="-1.53429">
        <ele>80</ele>
        <time>2022-04-10T08:43:25Z</time>
      </trkpt>
      <trkpt lat="47.27472" lon="-1.53429">
        <ele>79</ele>
        <time>2022-04-10T08:43:26Z</time>
      </trkpt>
      <trkpt lat="47.27472" lon="-1.53429">
        <ele>79</ele>
        <time>2022-04-10T08:43:27Z</time>
      </trkpt>
      <trkpt lat="47.27472" lon="-1.53429">
        <ele>79</ele>
        <time>2022-04-10T08:43:28Z</time>
      </trkpt>
      <trkpt lat="47.27474" lon="-1.53427">
        <ele>77</ele>
        <time>2022-04-10T08:43:29Z</time>
      </trkpt>
      <trkpt lat="47.27475" lon="-1.53427">
        <ele>76</ele>
        <time>2022-04-10T08:43:30Z</time>
      </trkpt>
      <trkpt lat="47.27476" lon="-1.53426">
        <ele>75</ele>
        <time>2022-04-10T08:43:31Z</time>
      </trkpt>
      <trkpt lat="47.27476" lon="-1.53426">
        <ele>75</ele>
        <time>2022-04-10T08:43:32Z</time>
      </trkpt>
      <trkpt lat="47.27476" lon="-1.53426">
        <ele>75</ele>
        <time>2022-04-10T08:43:33Z</time>
      </trkpt>
      <trkpt lat="47.27476" lon="-1.53426">
        <ele>75</ele>
        <time>2022-04-10T08:43:34Z</time>
      </trkpt>
      <trkpt lat="47.27478" lon="-1.53422">
        <ele>73</ele>
        <time>2022-04-10T08:43:35Z</time>
      </trkpt>
      <trkpt lat="47.27478" lon="-1.53422">
        <ele>73</ele>
        <time>2022-04-10T08:43:36Z</time>
      </trkpt>
      <trkpt lat="47.27479" lon="-1.53421">
        <ele>72</ele>
        <time>2022-04-10T08:43:37Z</time>
      </trkpt>
      <trkpt lat="47.2748" lon="-1.5342">
        <ele>71</ele>
        <time>2022-04-10T08:43:38Z</time>
      </trkpt>
      <trkpt lat="47.27481" lon="-1.53418">
        <ele>70</ele>
        <time>2022-04-10T08:43:39Z</time>
      </trkpt>
      <trkpt lat="47.27482" lon="-1.53416">
        <ele>70</ele>
        <time>2022-04-10T08:43:40Z</time>
      </trkpt>
      <trkpt lat="47.27482" lon="-1.53414">
        <ele>69</ele>
        <time>2022-04-10T08:43:41Z</time>
      </trkpt>
      <trkpt lat="47.27482" lon="-1.53414">
        <ele>69</ele>
        <time>2022-04-10T08:43:42Z</time>
      </trkpt>
      <trkpt lat="47.27482" lon="-1.53414">
        <ele>69</ele>
        <time>2022-04-10T08:43:43Z</time>
      </trkpt>
      <trkpt lat="47.27483" lon="-1.53412">
        <ele>69</ele>
        <time>2022-04-10T08:43:44Z</time>
      </trkpt>
      <trkpt lat="47.27483" lon="-1.53412">
        <ele>68</ele>
        <time>2022-04-10T08:43:45Z</time>
      </trkpt>
      <trkpt lat="47.27483" lon="-1.5341">
        <ele>68</ele>
        <time>2022-04-10T08:43:46Z</time>
      </trkpt>
      <trkpt lat="47.27484" lon="-1.53409">
        <ele>69</ele>
        <time>2022-04-10T08:43:47Z</time>
      </trkpt>
      <trkpt lat="47.27484" lon="-1.53409">
        <ele>69</ele>
        <time>2022-04-10T08:43:48Z</time>
      </trkpt>
      <trkpt lat="47.27484" lon="-1.53409">
        <ele>69</ele>
        <time>2022-04-10T08:43:49Z</time>
      </trkpt>
      <trkpt lat="47.27485" lon="-1.53406">
        <ele>69</ele>
        <time>2022-04-10T08:43:50Z</time>
      </trkpt>
      <trkpt lat="47.27485" lon="-1.53404">
        <ele>68</ele>
        <time>2022-04-10T08:43:51Z</time>
      </trkpt>
      <trkpt lat="47.27486" lon="-1.53402">
        <ele>69</ele>
        <time>2022-04-10T08:43:52Z</time>
      </trkpt>
      <trkpt lat="47.27486" lon="-1.534">
        <ele>69</ele>
        <time>2022-04-10T08:43:53Z</time>
      </trkpt>
      <trkpt lat="47.27486" lon="-1.53398">
        <ele>69</ele>
        <time>2022-04-10T08:43:54Z</time>
      </trkpt>
      <trkpt lat="47.27487" lon="-1.53397">
        <ele>68</ele>
        <time>2022-04-10T08:43:55Z</time>
      </trkpt>
      <trkpt lat="47.27488" lon="-1.53395">
        <ele>67</ele>
        <time>2022-04-10T08:43:56Z</time>
      </trkpt>
      <trkpt lat="47.27488" lon="-1.53395">
        <ele>67</ele>
        <time>2022-04-10T08:43:57Z</time>
      </trkpt>
      <trkpt lat="47.27488" lon="-1.53395">
        <ele>67</ele>
        <time>2022-04-10T08:43:58Z</time>
      </trkpt>
      <trkpt lat="47.27488" lon="-1.53395">
        <ele>67</ele>
        <time>2022-04-10T08:43:59Z</time>
      </trkpt>
      <trkpt lat="47.27488" lon="-1.53395">
        <ele>67</ele>
        <time>2022-04-10T08:44:00Z</time>
      </trkpt>
      <trkpt lat="47.27488" lon="-1.53391">
        <ele>67</ele>
        <time>2022-04-10T08:44:01Z</time>
      </trkpt>
      <trkpt lat="47.27489" lon="-1.53389">
        <ele>66</ele>
        <time>2022-04-10T08:44:02Z</time>
      </trkpt>
      <trkpt lat="47.27489" lon="-1.53388">
        <ele>66</ele>
        <time>2022-04-10T08:44:03Z</time>
      </trkpt>
      <trkpt lat="47.2749" lon="-1.53386">
        <ele>67</ele>
        <time>2022-04-10T08:44:04Z</time>
      </trkpt>
      <trkpt lat="47.2749" lon="-1.53384">
        <ele>67</ele>
        <time>2022-04-10T08:44:05Z</time>
      </trkpt>
      <trkpt lat="47.2749" lon="-1.53382">
        <ele>68</ele>
        <time>2022-04-10T08:44:06Z</time>
      </trkpt>
      <trkpt lat="47.2749" lon="-1.53381">
        <ele>69</ele>
        <time>2022-04-10T08:44:07Z</time>
      </trkpt>
      <trkpt lat="47.27491" lon="-1.5338">
        <ele>69</ele>
        <time>2022-04-10T08:44:08Z</time>
      </trkpt>
      <trkpt lat="47.27491" lon="-1.53378">
        <ele>69</ele>
        <time>2022-04-10T08:44:09Z</time>
      </trkpt>
      <trkpt lat="47.27492" lon="-1.53376">
        <ele>70</ele>
        <time>2022-04-10T08:44:10Z</time>
      </trkpt>
      <trkpt lat="47.27492" lon="-1.53374">
        <ele>70</ele>
        <time>2022-04-10T08:44:11Z</time>
      </trkpt>
      <trkpt lat="47.27492" lon="-1.53374">
        <ele>70</ele>
        <time>2022-04-10T08:44:12Z</time>
      </trkpt>
      <trkpt lat="47.27492" lon="-1.53372">
        <ele>71</ele>
        <time>2022-04-10T08:44:13Z</time>
      </trkpt>
      <trkpt lat="47.27493" lon="-1.5337">
        <ele>71</ele>
        <time>2022-04-10T08:44:14Z</time>
      </trkpt>
      <trkpt lat="47.27493" lon="-1.53368">
        <ele>72</ele>
        <time>2022-04-10T08:44:15Z</time>
      </trkpt>
      <trkpt lat="47.27493" lon="-1.53366">
        <ele>72</ele>
        <time>2022-04-10T08:44:16Z</time>
      </trkpt>
      <trkpt lat="47.27493" lon="-1.53364">
        <ele>73</ele>
        <time>2022-04-10T08:44:17Z</time>
      </trkpt>
      <trkpt lat="47.27493" lon="-1.53362">
        <ele>74</ele>
        <time>2022-04-10T08:44:18Z</time>
      </trkpt>
      <trkpt lat="47.27493" lon="-1.53361">
        <ele>74</ele>
        <time>2022-04-10T08:44:19Z</time>
      </trkpt>
      <trkpt lat="47.27493" lon="-1.5336">
        <ele>74</ele>
        <time>2022-04-10T08:44:20Z</time>
      </trkpt>
      <trkpt lat="47.27493" lon="-1.53358">
        <ele>75</ele>
        <time>2022-04-10T08:44:21Z</time>
      </trkpt>
      <trkpt lat="47.27494" lon="-1.53357">
        <ele>75</ele>
        <time>2022-04-10T08:44:22Z</time>
      </trkpt>
      <trkpt lat="47.27494" lon="-1.53356">
        <ele>75</ele>
        <time>2022-04-10T08:44:23Z</time>
      </trkpt>
      <trkpt lat="47.27494" lon="-1.53355">
        <ele>76</ele>
        <time>2022-04-10T08:44:24Z</time>
      </trkpt>
      <trkpt lat="47.27494" lon="-1.53355">
        <ele>77</ele>
        <time>2022-04-10T08:44:25Z</time>
      </trkpt>
      <trkpt lat="47.27494" lon="-1.53354">
        <ele>77</ele>
        <time>2022-04-10T08:44:26Z</time>
      </trkpt>
      <trkpt lat="47.27494" lon="-1.53352">
        <ele>78</ele>
        <time>2022-04-10T08:44:27Z</time>
      </trkpt>
      <trkpt lat="47.27494" lon="-1.53351">
        <ele>78</ele>
        <time>2022-04-10T08:44:28Z</time>
      </trkpt>
      <trkpt lat="47.27494" lon="-1.53351">
        <ele>78</ele>
        <time>2022-04-10T08:44:29Z</time>
      </trkpt>
      <trkpt lat="47.27494" lon="-1.53351">
        <ele>78</ele>
        <time>2022-04-10T08:44:30Z</time>
      </trkpt>
      <trkpt lat="47.27494" lon="-1.53348">
        <ele>78</ele>
        <time>2022-04-10T08:44:31Z</time>
      </trkpt>
      <trkpt lat="47.27494" lon="-1.53347">
        <ele>79</ele>
        <time>2022-04-10T08:44:32Z</time>
      </trkpt>
      <trkpt lat="47.27494" lon="-1.53346">
        <ele>79</ele>
        <time>2022-04-10T08:44:33Z</time>
      </trkpt>
      <trkpt lat="47.27494" lon="-1.53345">
        <ele>79</ele>
        <time>2022-04-10T08:44:34Z</time>
      </trkpt>
      <trkpt lat="47.27494" lon="-1.53345">
        <ele>79</ele>
        <time>2022-04-10T08:44:35Z</time>
      </trkpt>
      <trkpt lat="47.27494" lon="-1.53345">
        <ele>79</ele>
        <time>2022-04-10T08:44:36Z</time>
      </trkpt>
      <trkpt lat="47.27494" lon="-1.53341">
        <ele>80</ele>
        <time>2022-04-10T08:44:37Z</time>
      </trkpt>
      <trkpt lat="47.27494" lon="-1.5334">
        <ele>81</ele>
        <time>2022-04-10T08:44:38Z</time>
      </trkpt>
      <trkpt lat="47.27494" lon="-1.53338">
        <ele>82</ele>
        <time>2022-04-10T08:44:39Z</time>
      </trkpt>
      <trkpt lat="47.27494" lon="-1.53337">
        <ele>82</ele>
        <time>2022-04-10T08:44:40Z</time>
      </trkpt>
      <trkpt lat="47.27494" lon="-1.53337">
        <ele>82</ele>
        <time>2022-04-10T08:44:41Z</time>
      </trkpt>
      <trkpt lat="47.27494" lon="-1.53337">
        <ele>82</ele>
        <time>2022-04-10T08:44:42Z</time>
      </trkpt>
      <trkpt lat="47.27495" lon="-1.53332">
        <ele>82</ele>
        <time>2022-04-10T08:44:43Z</time>
      </trkpt>
      <trkpt lat="47.27495" lon="-1.53331">
        <ele>82</ele>
        <time>2022-04-10T08:44:44Z</time>
      </trkpt>
      <trkpt lat="47.27495" lon="-1.53329">
        <ele>83</ele>
        <time>2022-04-10T08:44:45Z</time>
      </trkpt>
      <trkpt lat="47.27495" lon="-1.53327">
        <ele>82</ele>
        <time>2022-04-10T08:44:46Z</time>
      </trkpt>
      <trkpt lat="47.27495" lon="-1.53327">
        <ele>82</ele>
        <time>2022-04-10T08:44:47Z</time>
      </trkpt>
      <trkpt lat="47.27495" lon="-1.53327">
        <ele>82</ele>
        <time>2022-04-10T08:44:48Z</time>
      </trkpt>
      <trkpt lat="47.27496" lon="-1.53323">
        <ele>83</ele>
        <time>2022-04-10T08:44:49Z</time>
      </trkpt>
      <trkpt lat="47.27496" lon="-1.53321">
        <ele>83</ele>
        <time>2022-04-10T08:44:50Z</time>
      </trkpt>
      <trkpt lat="47.27496" lon="-1.53319">
        <ele>83</ele>
        <time>2022-04-10T08:44:51Z</time>
      </trkpt>
      <trkpt lat="47.27496" lon="-1.53317">
        <ele>82</ele>
        <time>2022-04-10T08:44:52Z</time>
      </trkpt>
      <trkpt lat="47.27496" lon="-1.53317">
        <ele>82</ele>
        <time>2022-04-10T08:44:53Z</time>
      </trkpt>
      <trkpt lat="47.27496" lon="-1.53317">
        <ele>82</ele>
        <time>2022-04-10T08:44:54Z</time>
      </trkpt>
      <trkpt lat="47.27498" lon="-1.53313">
        <ele>82</ele>
        <time>2022-04-10T08:44:55Z</time>
      </trkpt>
      <trkpt lat="47.27498" lon="-1.53312">
        <ele>82</ele>
        <time>2022-04-10T08:44:56Z</time>
      </trkpt>
      <trkpt lat="47.27498" lon="-1.53311">
        <ele>83</ele>
        <time>2022-04-10T08:44:57Z</time>
      </trkpt>
      <trkpt lat="47.27498" lon="-1.5331">
        <ele>83</ele>
        <time>2022-04-10T08:44:58Z</time>
      </trkpt>
      <trkpt lat="47.27498" lon="-1.5331">
        <ele>83</ele>
        <time>2022-04-10T08:44:59Z</time>
      </trkpt>
      <trkpt lat="47.27498" lon="-1.5331">
        <ele>83</ele>
        <time>2022-04-10T08:45:00Z</time>
      </trkpt>
      <trkpt lat="47.27498" lon="-1.53306">
        <ele>83</ele>
        <time>2022-04-10T08:45:01Z</time>
      </trkpt>
      <trkpt lat="47.27498" lon="-1.53304">
        <ele>84</ele>
        <time>2022-04-10T08:45:02Z</time>
      </trkpt>
      <trkpt lat="47.27498" lon="-1.53303">
        <ele>84</ele>
        <time>2022-04-10T08:45:03Z</time>
      </trkpt>
      <trkpt lat="47.27498" lon="-1.53301">
        <ele>85</ele>
        <time>2022-04-10T08:45:04Z</time>
      </trkpt>
      <trkpt lat="47.27498" lon="-1.53301">
        <ele>85</ele>
        <time>2022-04-10T08:45:05Z</time>
      </trkpt>
      <trkpt lat="47.27498" lon="-1.53301">
        <ele>85</ele>
        <time>2022-04-10T08:45:06Z</time>
      </trkpt>
      <trkpt lat="47.27499" lon="-1.53297">
        <ele>87</ele>
        <time>2022-04-10T08:45:07Z</time>
      </trkpt>
      <trkpt lat="47.27498" lon="-1.53294">
        <ele>88</ele>
        <time>2022-04-10T08:45:08Z</time>
      </trkpt>
      <trkpt lat="47.27499" lon="-1.53293">
        <ele>88</ele>
        <time>2022-04-10T08:45:09Z</time>
      </trkpt>
      <trkpt lat="47.27499" lon="-1.53292">
        <ele>88</ele>
        <time>2022-04-10T08:45:10Z</time>
      </trkpt>
      <trkpt lat="47.27499" lon="-1.53292">
        <ele>88</ele>
        <time>2022-04-10T08:45:11Z</time>
      </trkpt>
      <trkpt lat="47.27499" lon="-1.53292">
        <ele>88</ele>
        <time>2022-04-10T08:45:12Z</time>
      </trkpt>
      <trkpt lat="47.27499" lon="-1.53287">
        <ele>88</ele>
        <time>2022-04-10T08:45:13Z</time>
      </trkpt>
      <trkpt lat="47.27499" lon="-1.53285">
        <ele>89</ele>
        <time>2022-04-10T08:45:14Z</time>
      </trkpt>
      <trkpt lat="47.27499" lon="-1.53284">
        <ele>89</ele>
        <time>2022-04-10T08:45:15Z</time>
      </trkpt>
      <trkpt lat="47.275" lon="-1.53283">
        <ele>89</ele>
        <time>2022-04-10T08:45:16Z</time>
      </trkpt>
      <trkpt lat="47.27501" lon="-1.53281">
        <ele>90</ele>
        <time>2022-04-10T08:45:17Z</time>
      </trkpt>
      <trkpt lat="47.27501" lon="-1.53279">
        <ele>90</ele>
        <time>2022-04-10T08:45:18Z</time>
      </trkpt>
      <trkpt lat="47.27501" lon="-1.53276">
        <ele>90</ele>
        <time>2022-04-10T08:45:19Z</time>
      </trkpt>
      <trkpt lat="47.27502" lon="-1.53275">
        <ele>89</ele>
        <time>2022-04-10T08:45:20Z</time>
      </trkpt>
      <trkpt lat="47.27502" lon="-1.53273">
        <ele>90</ele>
        <time>2022-04-10T08:45:21Z</time>
      </trkpt>
      <trkpt lat="47.27502" lon="-1.53272">
        <ele>90</ele>
        <time>2022-04-10T08:45:22Z</time>
      </trkpt>
      <trkpt lat="47.27502" lon="-1.53272">
        <ele>90</ele>
        <time>2022-04-10T08:45:23Z</time>
      </trkpt>
      <trkpt lat="47.27502" lon="-1.53272">
        <ele>90</ele>
        <time>2022-04-10T08:45:24Z</time>
      </trkpt>
      <trkpt lat="47.27502" lon="-1.53267">
        <ele>90</ele>
        <time>2022-04-10T08:45:25Z</time>
      </trkpt>
      <trkpt lat="47.27502" lon="-1.53265">
        <ele>89</ele>
        <time>2022-04-10T08:45:26Z</time>
      </trkpt>
      <trkpt lat="47.27503" lon="-1.53263">
        <ele>88</ele>
        <time>2022-04-10T08:45:27Z</time>
      </trkpt>
      <trkpt lat="47.27503" lon="-1.53262">
        <ele>88</ele>
        <time>2022-04-10T08:45:28Z</time>
      </trkpt>
      <trkpt lat="47.27503" lon="-1.53262">
        <ele>88</ele>
        <time>2022-04-10T08:45:29Z</time>
      </trkpt>
      <trkpt lat="47.27503" lon="-1.53262">
        <ele>88</ele>
        <time>2022-04-10T08:45:30Z</time>
      </trkpt>
      <trkpt lat="47.27504" lon="-1.53257">
        <ele>89</ele>
        <time>2022-04-10T08:45:31Z</time>
      </trkpt>
      <trkpt lat="47.27504" lon="-1.53256">
        <ele>88</ele>
        <time>2022-04-10T08:45:32Z</time>
      </trkpt>
      <trkpt lat="47.27504" lon="-1.53254">
        <ele>88</ele>
        <time>2022-04-10T08:45:33Z</time>
      </trkpt>
      <trkpt lat="47.27504" lon="-1.53254">
        <ele>88</ele>
        <time>2022-04-10T08:45:34Z</time>
      </trkpt>
      <trkpt lat="47.27504" lon="-1.53254">
        <ele>88</ele>
        <time>2022-04-10T08:45:35Z</time>
      </trkpt>
      <trkpt lat="47.27504" lon="-1.53254">
        <ele>88</ele>
        <time>2022-04-10T08:45:36Z</time>
      </trkpt>
      <trkpt lat="47.27505" lon="-1.53249">
        <ele>88</ele>
        <time>2022-04-10T08:45:37Z</time>
      </trkpt>
      <trkpt lat="47.27504" lon="-1.53248">
        <ele>88</ele>
        <time>2022-04-10T08:45:38Z</time>
      </trkpt>
      <trkpt lat="47.27504" lon="-1.53246">
        <ele>88</ele>
        <time>2022-04-10T08:45:39Z</time>
      </trkpt>
      <trkpt lat="47.27504" lon="-1.53244">
        <ele>87</ele>
        <time>2022-04-10T08:45:40Z</time>
      </trkpt>
      <trkpt lat="47.27504" lon="-1.53244">
        <ele>87</ele>
        <time>2022-04-10T08:45:41Z</time>
      </trkpt>
      <trkpt lat="47.27504" lon="-1.53244">
        <ele>87</ele>
        <time>2022-04-10T08:45:42Z</time>
      </trkpt>
      <trkpt lat="47.27504" lon="-1.53238">
        <ele>87</ele>
        <time>2022-04-10T08:45:43Z</time>
      </trkpt>
      <trkpt lat="47.27504" lon="-1.53236">
        <ele>87</ele>
        <time>2022-04-10T08:45:44Z</time>
      </trkpt>
      <trkpt lat="47.27504" lon="-1.53235">
        <ele>87</ele>
        <time>2022-04-10T08:45:45Z</time>
      </trkpt>
      <trkpt lat="47.27504" lon="-1.53233">
        <ele>87</ele>
        <time>2022-04-10T08:45:46Z</time>
      </trkpt>
      <trkpt lat="47.27504" lon="-1.53233">
        <ele>87</ele>
        <time>2022-04-10T08:45:47Z</time>
      </trkpt>
      <trkpt lat="47.27504" lon="-1.53233">
        <ele>87</ele>
        <time>2022-04-10T08:45:48Z</time>
      </trkpt>
      <trkpt lat="47.27505" lon="-1.53229">
        <ele>88</ele>
        <time>2022-04-10T08:45:49Z</time>
      </trkpt>
      <trkpt lat="47.27505" lon="-1.53227">
        <ele>88</ele>
        <time>2022-04-10T08:45:50Z</time>
      </trkpt>
      <trkpt lat="47.27505" lon="-1.53225">
        <ele>87</ele>
        <time>2022-04-10T08:45:51Z</time>
      </trkpt>
      <trkpt lat="47.27506" lon="-1.53223">
        <ele>87</ele>
        <time>2022-04-10T08:45:52Z</time>
      </trkpt>
      <trkpt lat="47.27506" lon="-1.53223">
        <ele>87</ele>
        <time>2022-04-10T08:45:53Z</time>
      </trkpt>
      <trkpt lat="47.27506" lon="-1.53223">
        <ele>87</ele>
        <time>2022-04-10T08:45:54Z</time>
      </trkpt>
      <trkpt lat="47.27506" lon="-1.53219">
        <ele>86</ele>
        <time>2022-04-10T08:45:55Z</time>
      </trkpt>
      <trkpt lat="47.27506" lon="-1.53216">
        <ele>86</ele>
        <time>2022-04-10T08:45:56Z</time>
      </trkpt>
      <trkpt lat="47.27506" lon="-1.53214">
        <ele>85</ele>
        <time>2022-04-10T08:45:57Z</time>
      </trkpt>
      <trkpt lat="47.27506" lon="-1.53213">
        <ele>85</ele>
        <time>2022-04-10T08:45:58Z</time>
      </trkpt>
      <trkpt lat="47.27506" lon="-1.53211">
        <ele>85</ele>
        <time>2022-04-10T08:45:59Z</time>
      </trkpt>
      <trkpt lat="47.27506" lon="-1.53209">
        <ele>86</ele>
        <time>2022-04-10T08:46:00Z</time>
      </trkpt>
      <trkpt lat="47.27506" lon="-1.53206">
        <ele>85</ele>
        <time>2022-04-10T08:46:01Z</time>
      </trkpt>
      <trkpt lat="47.27506" lon="-1.53204">
        <ele>85</ele>
        <time>2022-04-10T08:46:02Z</time>
      </trkpt>
      <trkpt lat="47.27506" lon="-1.53202">
        <ele>85</ele>
        <time>2022-04-10T08:46:03Z</time>
      </trkpt>
      <trkpt lat="47.27507" lon="-1.53199">
        <ele>85</ele>
        <time>2022-04-10T08:46:04Z</time>
      </trkpt>
      <trkpt lat="47.27507" lon="-1.53197">
        <ele>85</ele>
        <time>2022-04-10T08:46:05Z</time>
      </trkpt>
      <trkpt lat="47.27506" lon="-1.53195">
        <ele>85</ele>
        <time>2022-04-10T08:46:06Z</time>
      </trkpt>
      <trkpt lat="47.27506" lon="-1.53193">
        <ele>85</ele>
        <time>2022-04-10T08:46:07Z</time>
      </trkpt>
      <trkpt lat="47.27506" lon="-1.53192">
        <ele>85</ele>
        <time>2022-04-10T08:46:08Z</time>
      </trkpt>
      <trkpt lat="47.27507" lon="-1.5319">
        <ele>85</ele>
        <time>2022-04-10T08:46:09Z</time>
      </trkpt>
      <trkpt lat="47.27507" lon="-1.53189">
        <ele>85</ele>
        <time>2022-04-10T08:46:10Z</time>
      </trkpt>
      <trkpt lat="47.27507" lon="-1.53187">
        <ele>84</ele>
        <time>2022-04-10T08:46:11Z</time>
      </trkpt>
      <trkpt lat="47.27507" lon="-1.53185">
        <ele>84</ele>
        <time>2022-04-10T08:46:12Z</time>
      </trkpt>
      <trkpt lat="47.27507" lon="-1.53183">
        <ele>84</ele>
        <time>2022-04-10T08:46:13Z</time>
      </trkpt>
      <trkpt lat="47.27507" lon="-1.53182">
        <ele>84</ele>
        <time>2022-04-10T08:46:14Z</time>
      </trkpt>
      <trkpt lat="47.27507" lon="-1.53181">
        <ele>83</ele>
        <time>2022-04-10T08:46:15Z</time>
      </trkpt>
      <trkpt lat="47.27507" lon="-1.53181">
        <ele>83</ele>
        <time>2022-04-10T08:46:16Z</time>
      </trkpt>
      <trkpt lat="47.27507" lon="-1.53181">
        <ele>83</ele>
        <time>2022-04-10T08:46:17Z</time>
      </trkpt>
      <trkpt lat="47.27507" lon="-1.53177">
        <ele>83</ele>
        <time>2022-04-10T08:46:18Z</time>
      </trkpt>
      <trkpt lat="47.27507" lon="-1.53174">
        <ele>83</ele>
        <time>2022-04-10T08:46:19Z</time>
      </trkpt>
      <trkpt lat="47.27508" lon="-1.53172">
        <ele>83</ele>
        <time>2022-04-10T08:46:20Z</time>
      </trkpt>
      <trkpt lat="47.27508" lon="-1.5317">
        <ele>83</ele>
        <time>2022-04-10T08:46:21Z</time>
      </trkpt>
      <trkpt lat="47.27508" lon="-1.53168">
        <ele>83</ele>
        <time>2022-04-10T08:46:22Z</time>
      </trkpt>
      <trkpt lat="47.27508" lon="-1.53166">
        <ele>82</ele>
        <time>2022-04-10T08:46:23Z</time>
      </trkpt>
      <trkpt lat="47.27508" lon="-1.53164">
        <ele>82</ele>
        <time>2022-04-10T08:46:24Z</time>
      </trkpt>
      <trkpt lat="47.27508" lon="-1.53162">
        <ele>81</ele>
        <time>2022-04-10T08:46:25Z</time>
      </trkpt>
      <trkpt lat="47.27508" lon="-1.5316">
        <ele>81</ele>
        <time>2022-04-10T08:46:26Z</time>
      </trkpt>
      <trkpt lat="47.27509" lon="-1.53159">
        <ele>81</ele>
        <time>2022-04-10T08:46:27Z</time>
      </trkpt>
      <trkpt lat="47.27509" lon="-1.53158">
        <ele>80</ele>
        <time>2022-04-10T08:46:28Z</time>
      </trkpt>
      <trkpt lat="47.27509" lon="-1.53156">
        <ele>80</ele>
        <time>2022-04-10T08:46:29Z</time>
      </trkpt>
      <trkpt lat="47.27509" lon="-1.53154">
        <ele>81</ele>
        <time>2022-04-10T08:46:30Z</time>
      </trkpt>
      <trkpt lat="47.27509" lon="-1.53153">
        <ele>81</ele>
        <time>2022-04-10T08:46:31Z</time>
      </trkpt>
      <trkpt lat="47.27509" lon="-1.53151">
        <ele>81</ele>
        <time>2022-04-10T08:46:32Z</time>
      </trkpt>
      <trkpt lat="47.27509" lon="-1.5315">
        <ele>80</ele>
        <time>2022-04-10T08:46:33Z</time>
      </trkpt>
      <trkpt lat="47.27509" lon="-1.53148">
        <ele>80</ele>
        <time>2022-04-10T08:46:34Z</time>
      </trkpt>
      <trkpt lat="47.27509" lon="-1.53147">
        <ele>80</ele>
        <time>2022-04-10T08:46:35Z</time>
      </trkpt>
      <trkpt lat="47.27509" lon="-1.53145">
        <ele>80</ele>
        <time>2022-04-10T08:46:36Z</time>
      </trkpt>
      <trkpt lat="47.27509" lon="-1.53143">
        <ele>81</ele>
        <time>2022-04-10T08:46:37Z</time>
      </trkpt>
      <trkpt lat="47.27509" lon="-1.53142">
        <ele>81</ele>
        <time>2022-04-10T08:46:38Z</time>
      </trkpt>
      <trkpt lat="47.27509" lon="-1.5314">
        <ele>81</ele>
        <time>2022-04-10T08:46:39Z</time>
      </trkpt>
      <trkpt lat="47.27508" lon="-1.53139">
        <ele>80</ele>
        <time>2022-04-10T08:46:40Z</time>
      </trkpt>
      <trkpt lat="47.27509" lon="-1.53138">
        <ele>80</ele>
        <time>2022-04-10T08:46:41Z</time>
      </trkpt>
      <trkpt lat="47.27509" lon="-1.53138">
        <ele>80</ele>
        <time>2022-04-10T08:46:42Z</time>
      </trkpt>
      <trkpt lat="47.27509" lon="-1.53138">
        <ele>80</ele>
        <time>2022-04-10T08:46:43Z</time>
      </trkpt>
      <trkpt lat="47.27508" lon="-1.53135">
        <ele>79</ele>
        <time>2022-04-10T08:46:44Z</time>
      </trkpt>
      <trkpt lat="47.27507" lon="-1.53134">
        <ele>79</ele>
        <time>2022-04-10T08:46:45Z</time>
      </trkpt>
      <trkpt lat="47.27507" lon="-1.53133">
        <ele>79</ele>
        <time>2022-04-10T08:46:46Z</time>
      </trkpt>
      <trkpt lat="47.27507" lon="-1.53132">
        <ele>79</ele>
        <time>2022-04-10T08:46:47Z</time>
      </trkpt>
      <trkpt lat="47.27506" lon="-1.53131">
        <ele>80</ele>
        <time>2022-04-10T08:46:48Z</time>
      </trkpt>
      <trkpt lat="47.27506" lon="-1.5313">
        <ele>80</ele>
        <time>2022-04-10T08:46:49Z</time>
      </trkpt>
      <trkpt lat="47.27506" lon="-1.53129">
        <ele>80</ele>
        <time>2022-04-10T08:46:50Z</time>
      </trkpt>
      <trkpt lat="47.27506" lon="-1.53128">
        <ele>79</ele>
        <time>2022-04-10T08:46:51Z</time>
      </trkpt>
      <trkpt lat="47.27506" lon="-1.53127">
        <ele>79</ele>
        <time>2022-04-10T08:46:52Z</time>
      </trkpt>
      <trkpt lat="47.27506" lon="-1.53127">
        <ele>79</ele>
        <time>2022-04-10T08:46:53Z</time>
      </trkpt>
      <trkpt lat="47.27506" lon="-1.53127">
        <ele>79</ele>
        <time>2022-04-10T08:46:54Z</time>
      </trkpt>
      <trkpt lat="47.27506" lon="-1.53124">
        <ele>79</ele>
        <time>2022-04-10T08:46:55Z</time>
      </trkpt>
      <trkpt lat="47.27505" lon="-1.53122">
        <ele>79</ele>
        <time>2022-04-10T08:46:56Z</time>
      </trkpt>
      <trkpt lat="47.27505" lon="-1.53121">
        <ele>79</ele>
        <time>2022-04-10T08:46:57Z</time>
      </trkpt>
      <trkpt lat="47.27505" lon="-1.5312">
        <ele>79</ele>
        <time>2022-04-10T08:46:58Z</time>
      </trkpt>
      <trkpt lat="47.27505" lon="-1.5312">
        <ele>79</ele>
        <time>2022-04-10T08:46:59Z</time>
      </trkpt>
      <trkpt lat="47.27505" lon="-1.5312">
        <ele>79</ele>
        <time>2022-04-10T08:47:00Z</time>
      </trkpt>
      <trkpt lat="47.27506" lon="-1.53117">
        <ele>78</ele>
        <time>2022-04-10T08:47:01Z</time>
      </trkpt>
      <trkpt lat="47.27505" lon="-1.53115">
        <ele>78</ele>
        <time>2022-04-10T08:47:02Z</time>
      </trkpt>
      <trkpt lat="47.27505" lon="-1.53112">
        <ele>77</ele>
        <time>2022-04-10T08:47:03Z</time>
      </trkpt>
      <trkpt lat="47.27505" lon="-1.53111">
        <ele>77</ele>
        <time>2022-04-10T08:47:04Z</time>
      </trkpt>
      <trkpt lat="47.27506" lon="-1.53109">
        <ele>77</ele>
        <time>2022-04-10T08:47:05Z</time>
      </trkpt>
      <trkpt lat="47.27506" lon="-1.53107">
        <ele>76</ele>
        <time>2022-04-10T08:47:06Z</time>
      </trkpt>
      <trkpt lat="47.27506" lon="-1.53107">
        <ele>76</ele>
        <time>2022-04-10T08:47:07Z</time>
      </trkpt>
      <trkpt lat="47.27506" lon="-1.53107">
        <ele>76</ele>
        <time>2022-04-10T08:47:08Z</time>
      </trkpt>
      <trkpt lat="47.27507" lon="-1.53103">
        <ele>76</ele>
        <time>2022-04-10T08:47:09Z</time>
      </trkpt>
      <trkpt lat="47.27508" lon="-1.531">
        <ele>76</ele>
        <time>2022-04-10T08:47:10Z</time>
      </trkpt>
      <trkpt lat="47.27508" lon="-1.53099">
        <ele>76</ele>
        <time>2022-04-10T08:47:11Z</time>
      </trkpt>
      <trkpt lat="47.27508" lon="-1.53097">
        <ele>75</ele>
        <time>2022-04-10T08:47:12Z</time>
      </trkpt>
      <trkpt lat="47.27508" lon="-1.53097">
        <ele>75</ele>
        <time>2022-04-10T08:47:13Z</time>
      </trkpt>
      <trkpt lat="47.27508" lon="-1.53097">
        <ele>75</ele>
        <time>2022-04-10T08:47:14Z</time>
      </trkpt>
      <trkpt lat="47.27509" lon="-1.53093">
        <ele>75</ele>
        <time>2022-04-10T08:47:15Z</time>
      </trkpt>
      <trkpt lat="47.27509" lon="-1.53091">
        <ele>75</ele>
        <time>2022-04-10T08:47:16Z</time>
      </trkpt>
      <trkpt lat="47.27509" lon="-1.53091">
        <ele>74</ele>
        <time>2022-04-10T08:47:17Z</time>
      </trkpt>
      <trkpt lat="47.27509" lon="-1.53089">
        <ele>74</ele>
        <time>2022-04-10T08:47:18Z</time>
      </trkpt>
      <trkpt lat="47.27509" lon="-1.53089">
        <ele>74</ele>
        <time>2022-04-10T08:47:19Z</time>
      </trkpt>
      <trkpt lat="47.27509" lon="-1.53089">
        <ele>74</ele>
        <time>2022-04-10T08:47:20Z</time>
      </trkpt>
      <trkpt lat="47.2751" lon="-1.53085">
        <ele>73</ele>
        <time>2022-04-10T08:47:21Z</time>
      </trkpt>
      <trkpt lat="47.2751" lon="-1.53084">
        <ele>72</ele>
        <time>2022-04-10T08:47:22Z</time>
      </trkpt>
      <trkpt lat="47.2751" lon="-1.53083">
        <ele>71</ele>
        <time>2022-04-10T08:47:23Z</time>
      </trkpt>
      <trkpt lat="47.27511" lon="-1.53082">
        <ele>71</ele>
        <time>2022-04-10T08:47:24Z</time>
      </trkpt>
      <trkpt lat="47.27511" lon="-1.53082">
        <ele>71</ele>
        <time>2022-04-10T08:47:25Z</time>
      </trkpt>
      <trkpt lat="47.27511" lon="-1.53082">
        <ele>71</ele>
        <time>2022-04-10T08:47:26Z</time>
      </trkpt>
      <trkpt lat="47.27511" lon="-1.5308">
        <ele>70</ele>
        <time>2022-04-10T08:47:27Z</time>
      </trkpt>
      <trkpt lat="47.27511" lon="-1.53079">
        <ele>70</ele>
        <time>2022-04-10T08:47:28Z</time>
      </trkpt>
      <trkpt lat="47.27512" lon="-1.53079">
        <ele>69</ele>
        <time>2022-04-10T08:47:29Z</time>
      </trkpt>
      <trkpt lat="47.27512" lon="-1.53079">
        <ele>70</ele>
        <time>2022-04-10T08:47:30Z</time>
      </trkpt>
      <trkpt lat="47.27513" lon="-1.5308">
        <ele>69</ele>
        <time>2022-04-10T08:47:31Z</time>
      </trkpt>
      <trkpt lat="47.27513" lon="-1.5308">
        <ele>69</ele>
        <time>2022-04-10T08:47:32Z</time>
      </trkpt>
      <trkpt lat="47.27513" lon="-1.5308">
        <ele>69</ele>
        <time>2022-04-10T08:47:33Z</time>
      </trkpt>
      <trkpt lat="47.27515" lon="-1.5308">
        <ele>70</ele>
        <time>2022-04-10T08:47:34Z</time>
      </trkpt>
      <trkpt lat="47.27516" lon="-1.53079">
        <ele>70</ele>
        <time>2022-04-10T08:47:35Z</time>
      </trkpt>
      <trkpt lat="47.27517" lon="-1.53079">
        <ele>70</ele>
        <time>2022-04-10T08:47:36Z</time>
      </trkpt>
      <trkpt lat="47.27518" lon="-1.53079">
        <ele>70</ele>
        <time>2022-04-10T08:47:37Z</time>
      </trkpt>
      <trkpt lat="47.27519" lon="-1.53079">
        <ele>70</ele>
        <time>2022-04-10T08:47:38Z</time>
      </trkpt>
      <trkpt lat="47.2752" lon="-1.53078">
        <ele>70</ele>
        <time>2022-04-10T08:47:39Z</time>
      </trkpt>
      <trkpt lat="47.27521" lon="-1.53079">
        <ele>70</ele>
        <time>2022-04-10T08:47:40Z</time>
      </trkpt>
      <trkpt lat="47.27522" lon="-1.53079">
        <ele>71</ele>
        <time>2022-04-10T08:47:41Z</time>
      </trkpt>
      <trkpt lat="47.27524" lon="-1.53078">
        <ele>72</ele>
        <time>2022-04-10T08:47:42Z</time>
      </trkpt>
      <trkpt lat="47.27525" lon="-1.53077">
        <ele>73</ele>
        <time>2022-04-10T08:47:43Z</time>
      </trkpt>
      <trkpt lat="47.27525" lon="-1.53076">
        <ele>74</ele>
        <time>2022-04-10T08:47:44Z</time>
      </trkpt>
      <trkpt lat="47.27526" lon="-1.53075">
        <ele>74</ele>
        <time>2022-04-10T08:47:45Z</time>
      </trkpt>
      <trkpt lat="47.27528" lon="-1.53073">
        <ele>73</ele>
        <time>2022-04-10T08:47:46Z</time>
      </trkpt>
      <trkpt lat="47.27529" lon="-1.53071">
        <ele>74</ele>
        <time>2022-04-10T08:47:47Z</time>
      </trkpt>
      <trkpt lat="47.27529" lon="-1.53071">
        <ele>74</ele>
        <time>2022-04-10T08:47:48Z</time>
      </trkpt>
      <trkpt lat="47.27531" lon="-1.53067">
        <ele>73</ele>
        <time>2022-04-10T08:47:49Z</time>
      </trkpt>
      <trkpt lat="47.27534" lon="-1.53066">
        <ele>72</ele>
        <time>2022-04-10T08:47:50Z</time>
      </trkpt>
      <trkpt lat="47.27535" lon="-1.53065">
        <ele>72</ele>
        <time>2022-04-10T08:47:51Z</time>
      </trkpt>
      <trkpt lat="47.27536" lon="-1.53063">
        <ele>71</ele>
        <time>2022-04-10T08:47:52Z</time>
      </trkpt>
      <trkpt lat="47.27538" lon="-1.53062">
        <ele>71</ele>
        <time>2022-04-10T08:47:53Z</time>
      </trkpt>
      <trkpt lat="47.27539" lon="-1.53062">
        <ele>70</ele>
        <time>2022-04-10T08:47:54Z</time>
      </trkpt>
      <trkpt lat="47.2754" lon="-1.53061">
        <ele>70</ele>
        <time>2022-04-10T08:47:55Z</time>
      </trkpt>
      <trkpt lat="47.27542" lon="-1.53059">
        <ele>70</ele>
        <time>2022-04-10T08:47:56Z</time>
      </trkpt>
      <trkpt lat="47.27544" lon="-1.53058">
        <ele>70</ele>
        <time>2022-04-10T08:47:57Z</time>
      </trkpt>
      <trkpt lat="47.27546" lon="-1.53057">
        <ele>70</ele>
        <time>2022-04-10T08:47:58Z</time>
      </trkpt>
      <trkpt lat="47.27548" lon="-1.53057">
        <ele>69</ele>
        <time>2022-04-10T08:47:59Z</time>
      </trkpt>
      <trkpt lat="47.27548" lon="-1.53056">
        <ele>69</ele>
        <time>2022-04-10T08:48:00Z</time>
      </trkpt>
      <trkpt lat="47.27549" lon="-1.53055">
        <ele>69</ele>
        <time>2022-04-10T08:48:01Z</time>
      </trkpt>
      <trkpt lat="47.27549" lon="-1.53055">
        <ele>69</ele>
        <time>2022-04-10T08:48:02Z</time>
      </trkpt>
      <trkpt lat="47.27549" lon="-1.53055">
        <ele>69</ele>
        <time>2022-04-10T08:48:03Z</time>
      </trkpt>
      <trkpt lat="47.27551" lon="-1.53054">
        <ele>69</ele>
        <time>2022-04-10T08:48:04Z</time>
      </trkpt>
      <trkpt lat="47.27553" lon="-1.53053">
        <ele>69</ele>
        <time>2022-04-10T08:48:05Z</time>
      </trkpt>
      <trkpt lat="47.27554" lon="-1.53053">
        <ele>69</ele>
        <time>2022-04-10T08:48:06Z</time>
      </trkpt>
      <trkpt lat="47.27555" lon="-1.53053">
        <ele>69</ele>
        <time>2022-04-10T08:48:07Z</time>
      </trkpt>
      <trkpt lat="47.27556" lon="-1.53053">
        <ele>69</ele>
        <time>2022-04-10T08:48:08Z</time>
      </trkpt>
      <trkpt lat="47.27557" lon="-1.53053">
        <ele>69</ele>
        <time>2022-04-10T08:48:09Z</time>
      </trkpt>
      <trkpt lat="47.27558" lon="-1.53052">
        <ele>69</ele>
        <time>2022-04-10T08:48:10Z</time>
      </trkpt>
      <trkpt lat="47.27558" lon="-1.53052">
        <ele>69</ele>
        <time>2022-04-10T08:48:11Z</time>
      </trkpt>
      <trkpt lat="47.27558" lon="-1.53052">
        <ele>69</ele>
        <time>2022-04-10T08:48:12Z</time>
      </trkpt>
      <trkpt lat="47.27562" lon="-1.53052">
        <ele>70</ele>
        <time>2022-04-10T08:48:13Z</time>
      </trkpt>
      <trkpt lat="47.27563" lon="-1.53052">
        <ele>71</ele>
        <time>2022-04-10T08:48:14Z</time>
      </trkpt>
      <trkpt lat="47.27564" lon="-1.53052">
        <ele>71</ele>
        <time>2022-04-10T08:48:15Z</time>
      </trkpt>
      <trkpt lat="47.27565" lon="-1.53053">
        <ele>72</ele>
        <time>2022-04-10T08:48:16Z</time>
      </trkpt>
      <trkpt lat="47.27566" lon="-1.53054">
        <ele>72</ele>
        <time>2022-04-10T08:48:17Z</time>
      </trkpt>
      <trkpt lat="47.27568" lon="-1.53054">
        <ele>72</ele>
        <time>2022-04-10T08:48:18Z</time>
      </trkpt>
      <trkpt lat="47.27569" lon="-1.53055">
        <ele>73</ele>
        <time>2022-04-10T08:48:19Z</time>
      </trkpt>
      <trkpt lat="47.2757" lon="-1.53056">
        <ele>73</ele>
        <time>2022-04-10T08:48:20Z</time>
      </trkpt>
      <trkpt lat="47.27572" lon="-1.53057">
        <ele>73</ele>
        <time>2022-04-10T08:48:21Z</time>
      </trkpt>
      <trkpt lat="47.27573" lon="-1.53058">
        <ele>73</ele>
        <time>2022-04-10T08:48:22Z</time>
      </trkpt>
      <trkpt lat="47.27574" lon="-1.53059">
        <ele>73</ele>
        <time>2022-04-10T08:48:23Z</time>
      </trkpt>
      <trkpt lat="47.27575" lon="-1.5306">
        <ele>74</ele>
        <time>2022-04-10T08:48:24Z</time>
      </trkpt>
      <trkpt lat="47.27575" lon="-1.53061">
        <ele>74</ele>
        <time>2022-04-10T08:48:25Z</time>
      </trkpt>
      <trkpt lat="47.27576" lon="-1.53062">
        <ele>74</ele>
        <time>2022-04-10T08:48:26Z</time>
      </trkpt>
      <trkpt lat="47.27577" lon="-1.53063">
        <ele>74</ele>
        <time>2022-04-10T08:48:27Z</time>
      </trkpt>
      <trkpt lat="47.27578" lon="-1.53065">
        <ele>74</ele>
        <time>2022-04-10T08:48:28Z</time>
      </trkpt>
      <trkpt lat="47.27578" lon="-1.53065">
        <ele>74</ele>
        <time>2022-04-10T08:48:29Z</time>
      </trkpt>
      <trkpt lat="47.27578" lon="-1.53065">
        <ele>74</ele>
        <time>2022-04-10T08:48:30Z</time>
      </trkpt>
      <trkpt lat="47.27579" lon="-1.53069">
        <ele>74</ele>
        <time>2022-04-10T08:48:31Z</time>
      </trkpt>
      <trkpt lat="47.2758" lon="-1.53071">
        <ele>74</ele>
        <time>2022-04-10T08:48:32Z</time>
      </trkpt>
      <trkpt lat="47.27581" lon="-1.53072">
        <ele>73</ele>
        <time>2022-04-10T08:48:33Z</time>
      </trkpt>
      <trkpt lat="47.27582" lon="-1.53073">
        <ele>72</ele>
        <time>2022-04-10T08:48:34Z</time>
      </trkpt>
      <trkpt lat="47.27583" lon="-1.53075">
        <ele>72</ele>
        <time>2022-04-10T08:48:35Z</time>
      </trkpt>
      <trkpt lat="47.27583" lon="-1.53076">
        <ele>72</ele>
        <time>2022-04-10T08:48:36Z</time>
      </trkpt>
      <trkpt lat="47.27584" lon="-1.53077">
        <ele>72</ele>
        <time>2022-04-10T08:48:37Z</time>
      </trkpt>
      <trkpt lat="47.27584" lon="-1.53077">
        <ele>72</ele>
        <time>2022-04-10T08:48:38Z</time>
      </trkpt>
      <trkpt lat="47.27584" lon="-1.53077">
        <ele>72</ele>
        <time>2022-04-10T08:48:39Z</time>
      </trkpt>
      <trkpt lat="47.27586" lon="-1.5308">
        <ele>71</ele>
        <time>2022-04-10T08:48:40Z</time>
      </trkpt>
      <trkpt lat="47.27587" lon="-1.53081">
        <ele>71</ele>
        <time>2022-04-10T08:48:41Z</time>
      </trkpt>
      <trkpt lat="47.27588" lon="-1.53082">
        <ele>71</ele>
        <time>2022-04-10T08:48:42Z</time>
      </trkpt>
      <trkpt lat="47.27589" lon="-1.53083">
        <ele>71</ele>
        <time>2022-04-10T08:48:43Z</time>
      </trkpt>
      <trkpt lat="47.27589" lon="-1.53083">
        <ele>71</ele>
        <time>2022-04-10T08:48:44Z</time>
      </trkpt>
      <trkpt lat="47.27589" lon="-1.53083">
        <ele>71</ele>
        <time>2022-04-10T08:48:45Z</time>
      </trkpt>
      <trkpt lat="47.27591" lon="-1.53086">
        <ele>72</ele>
        <time>2022-04-10T08:48:46Z</time>
      </trkpt>
      <trkpt lat="47.27591" lon="-1.53087">
        <ele>72</ele>
        <time>2022-04-10T08:48:47Z</time>
      </trkpt>
      <trkpt lat="47.27592" lon="-1.53087">
        <ele>71</ele>
        <time>2022-04-10T08:48:48Z</time>
      </trkpt>
      <trkpt lat="47.27592" lon="-1.53089">
        <ele>71</ele>
        <time>2022-04-10T08:48:49Z</time>
      </trkpt>
      <trkpt lat="47.27592" lon="-1.53089">
        <ele>71</ele>
        <time>2022-04-10T08:48:50Z</time>
      </trkpt>
      <trkpt lat="47.27592" lon="-1.53089">
        <ele>71</ele>
        <time>2022-04-10T08:48:51Z</time>
      </trkpt>
      <trkpt lat="47.27593" lon="-1.53093">
        <ele>71</ele>
        <time>2022-04-10T08:48:52Z</time>
      </trkpt>
      <trkpt lat="47.27593" lon="-1.53095">
        <ele>71</ele>
        <time>2022-04-10T08:48:53Z</time>
      </trkpt>
      <trkpt lat="47.27593" lon="-1.53096">
        <ele>70</ele>
        <time>2022-04-10T08:48:54Z</time>
      </trkpt>
      <trkpt lat="47.27593" lon="-1.53097">
        <ele>70</ele>
        <time>2022-04-10T08:48:55Z</time>
      </trkpt>
      <trkpt lat="47.27593" lon="-1.53097">
        <ele>70</ele>
        <time>2022-04-10T08:48:56Z</time>
      </trkpt>
      <trkpt lat="47.27593" lon="-1.53097">
        <ele>70</ele>
        <time>2022-04-10T08:48:57Z</time>
      </trkpt>
      <trkpt lat="47.27594" lon="-1.531">
        <ele>71</ele>
        <time>2022-04-10T08:48:58Z</time>
      </trkpt>
      <trkpt lat="47.27594" lon="-1.53101">
        <ele>72</ele>
        <time>2022-04-10T08:48:59Z</time>
      </trkpt>
      <trkpt lat="47.27594" lon="-1.53103">
        <ele>72</ele>
        <time>2022-04-10T08:49:00Z</time>
      </trkpt>
      <trkpt lat="47.27594" lon="-1.53104">
        <ele>72</ele>
        <time>2022-04-10T08:49:01Z</time>
      </trkpt>
      <trkpt lat="47.27594" lon="-1.53104">
        <ele>72</ele>
        <time>2022-04-10T08:49:02Z</time>
      </trkpt>
      <trkpt lat="47.27594" lon="-1.53104">
        <ele>72</ele>
        <time>2022-04-10T08:49:03Z</time>
      </trkpt>
      <trkpt lat="47.27594" lon="-1.53108">
        <ele>73</ele>
        <time>2022-04-10T08:49:04Z</time>
      </trkpt>
      <trkpt lat="47.27595" lon="-1.53109">
        <ele>73</ele>
        <time>2022-04-10T08:49:05Z</time>
      </trkpt>
      <trkpt lat="47.27596" lon="-1.5311">
        <ele>73</ele>
        <time>2022-04-10T08:49:06Z</time>
      </trkpt>
      <trkpt lat="47.27596" lon="-1.53112">
        <ele>73</ele>
        <time>2022-04-10T08:49:07Z</time>
      </trkpt>
      <trkpt lat="47.27596" lon="-1.53112">
        <ele>73</ele>
        <time>2022-04-10T08:49:08Z</time>
      </trkpt>
      <trkpt lat="47.27596" lon="-1.53112">
        <ele>73</ele>
        <time>2022-04-10T08:49:09Z</time>
      </trkpt>
      <trkpt lat="47.27597" lon="-1.53116">
        <ele>74</ele>
        <time>2022-04-10T08:49:10Z</time>
      </trkpt>
      <trkpt lat="47.27597" lon="-1.53118">
        <ele>74</ele>
        <time>2022-04-10T08:49:11Z</time>
      </trkpt>
      <trkpt lat="47.27597" lon="-1.53119">
        <ele>74</ele>
        <time>2022-04-10T08:49:12Z</time>
      </trkpt>
      <trkpt lat="47.27598" lon="-1.5312">
        <ele>74</ele>
        <time>2022-04-10T08:49:13Z</time>
      </trkpt>
      <trkpt lat="47.27598" lon="-1.5312">
        <ele>74</ele>
        <time>2022-04-10T08:49:14Z</time>
      </trkpt>
      <trkpt lat="47.27598" lon="-1.5312">
        <ele>74</ele>
        <time>2022-04-10T08:49:15Z</time>
      </trkpt>
      <trkpt lat="47.27598" lon="-1.53123">
        <ele>75</ele>
        <time>2022-04-10T08:49:16Z</time>
      </trkpt>
      <trkpt lat="47.27599" lon="-1.53125">
        <ele>75</ele>
        <time>2022-04-10T08:49:17Z</time>
      </trkpt>
      <trkpt lat="47.27599" lon="-1.53128">
        <ele>75</ele>
        <time>2022-04-10T08:49:18Z</time>
      </trkpt>
      <trkpt lat="47.27599" lon="-1.5313">
        <ele>75</ele>
        <time>2022-04-10T08:49:19Z</time>
      </trkpt>
      <trkpt lat="47.276" lon="-1.53132">
        <ele>75</ele>
        <time>2022-04-10T08:49:20Z</time>
      </trkpt>
      <trkpt lat="47.276" lon="-1.53135">
        <ele>76</ele>
        <time>2022-04-10T08:49:21Z</time>
      </trkpt>
      <trkpt lat="47.27601" lon="-1.53137">
        <ele>76</ele>
        <time>2022-04-10T08:49:22Z</time>
      </trkpt>
      <trkpt lat="47.27601" lon="-1.53139">
        <ele>75</ele>
        <time>2022-04-10T08:49:23Z</time>
      </trkpt>
      <trkpt lat="47.27601" lon="-1.53141">
        <ele>75</ele>
        <time>2022-04-10T08:49:24Z</time>
      </trkpt>
      <trkpt lat="47.27602" lon="-1.53143">
        <ele>75</ele>
        <time>2022-04-10T08:49:25Z</time>
      </trkpt>
      <trkpt lat="47.27602" lon="-1.53143">
        <ele>75</ele>
        <time>2022-04-10T08:49:26Z</time>
      </trkpt>
      <trkpt lat="47.27602" lon="-1.53143">
        <ele>75</ele>
        <time>2022-04-10T08:49:27Z</time>
      </trkpt>
      <trkpt lat="47.27604" lon="-1.53146">
        <ele>75</ele>
        <time>2022-04-10T08:49:28Z</time>
      </trkpt>
      <trkpt lat="47.27604" lon="-1.53147">
        <ele>76</ele>
        <time>2022-04-10T08:49:29Z</time>
      </trkpt>
      <trkpt lat="47.27605" lon="-1.53148">
        <ele>76</ele>
        <time>2022-04-10T08:49:30Z</time>
      </trkpt>
      <trkpt lat="47.27605" lon="-1.5315">
        <ele>76</ele>
        <time>2022-04-10T08:49:31Z</time>
      </trkpt>
      <trkpt lat="47.27605" lon="-1.5315">
        <ele>76</ele>
        <time>2022-04-10T08:49:32Z</time>
      </trkpt>
      <trkpt lat="47.27605" lon="-1.5315">
        <ele>76</ele>
        <time>2022-04-10T08:49:33Z</time>
      </trkpt>
      <trkpt lat="47.27606" lon="-1.53154">
        <ele>75</ele>
        <time>2022-04-10T08:49:34Z</time>
      </trkpt>
      <trkpt lat="47.27607" lon="-1.53155">
        <ele>75</ele>
        <time>2022-04-10T08:49:35Z</time>
      </trkpt>
      <trkpt lat="47.27607" lon="-1.53157">
        <ele>75</ele>
        <time>2022-04-10T08:49:36Z</time>
      </trkpt>
      <trkpt lat="47.27607" lon="-1.53158">
        <ele>75</ele>
        <time>2022-04-10T08:49:37Z</time>
      </trkpt>
      <trkpt lat="47.27607" lon="-1.53158">
        <ele>75</ele>
        <time>2022-04-10T08:49:38Z</time>
      </trkpt>
      <trkpt lat="47.27607" lon="-1.53158">
        <ele>75</ele>
        <time>2022-04-10T08:49:39Z</time>
      </trkpt>
      <trkpt lat="47.27609" lon="-1.53162">
        <ele>74</ele>
        <time>2022-04-10T08:49:40Z</time>
      </trkpt>
      <trkpt lat="47.27608" lon="-1.53163">
        <ele>73</ele>
        <time>2022-04-10T08:49:41Z</time>
      </trkpt>
      <trkpt lat="47.27608" lon="-1.53165">
        <ele>73</ele>
        <time>2022-04-10T08:49:42Z</time>
      </trkpt>
      <trkpt lat="47.27608" lon="-1.53166">
        <ele>73</ele>
        <time>2022-04-10T08:49:43Z</time>
      </trkpt>
      <trkpt lat="47.27608" lon="-1.53168">
        <ele>73</ele>
        <time>2022-04-10T08:49:44Z</time>
      </trkpt>
      <trkpt lat="47.27609" lon="-1.53169">
        <ele>72</ele>
        <time>2022-04-10T08:49:45Z</time>
      </trkpt>
      <trkpt lat="47.27609" lon="-1.53169">
        <ele>72</ele>
        <time>2022-04-10T08:49:46Z</time>
      </trkpt>
      <trkpt lat="47.27609" lon="-1.53169">
        <ele>72</ele>
        <time>2022-04-10T08:49:47Z</time>
      </trkpt>
      <trkpt lat="47.2761" lon="-1.53171">
        <ele>72</ele>
        <time>2022-04-10T08:49:48Z</time>
      </trkpt>
      <trkpt lat="47.2761" lon="-1.53172">
        <ele>71</ele>
        <time>2022-04-10T08:49:49Z</time>
      </trkpt>
      <trkpt lat="47.27611" lon="-1.53174">
        <ele>72</ele>
        <time>2022-04-10T08:49:50Z</time>
      </trkpt>
      <trkpt lat="47.27612" lon="-1.53176">
        <ele>72</ele>
        <time>2022-04-10T08:49:51Z</time>
      </trkpt>
      <trkpt lat="47.27613" lon="-1.53178">
        <ele>72</ele>
        <time>2022-04-10T08:49:52Z</time>
      </trkpt>
      <trkpt lat="47.27613" lon="-1.5318">
        <ele>72</ele>
        <time>2022-04-10T08:49:53Z</time>
      </trkpt>
      <trkpt lat="47.27613" lon="-1.5318">
        <ele>72</ele>
        <time>2022-04-10T08:49:54Z</time>
      </trkpt>
      <trkpt lat="47.27613" lon="-1.5318">
        <ele>72</ele>
        <time>2022-04-10T08:49:55Z</time>
      </trkpt>
      <trkpt lat="47.27615" lon="-1.53186">
        <ele>72</ele>
        <time>2022-04-10T08:49:56Z</time>
      </trkpt>
      <trkpt lat="47.27615" lon="-1.53187">
        <ele>72</ele>
        <time>2022-04-10T08:49:57Z</time>
      </trkpt>
      <trkpt lat="47.27615" lon="-1.53189">
        <ele>71</ele>
        <time>2022-04-10T08:49:58Z</time>
      </trkpt>
      <trkpt lat="47.27615" lon="-1.5319">
        <ele>72</ele>
        <time>2022-04-10T08:49:59Z</time>
      </trkpt>
      <trkpt lat="47.27615" lon="-1.5319">
        <ele>72</ele>
        <time>2022-04-10T08:50:00Z</time>
      </trkpt>
      <trkpt lat="47.27615" lon="-1.5319">
        <ele>72</ele>
        <time>2022-04-10T08:50:01Z</time>
      </trkpt>
      <trkpt lat="47.27616" lon="-1.53195">
        <ele>71</ele>
        <time>2022-04-10T08:50:02Z</time>
      </trkpt>
      <trkpt lat="47.27616" lon="-1.53197">
        <ele>70</ele>
        <time>2022-04-10T08:50:03Z</time>
      </trkpt>
      <trkpt lat="47.27617" lon="-1.53199">
        <ele>69</ele>
        <time>2022-04-10T08:50:04Z</time>
      </trkpt>
      <trkpt lat="47.27618" lon="-1.532">
        <ele>69</ele>
        <time>2022-04-10T08:50:05Z</time>
      </trkpt>
      <trkpt lat="47.27618" lon="-1.53202">
        <ele>69</ele>
        <time>2022-04-10T08:50:06Z</time>
      </trkpt>
      <trkpt lat="47.27619" lon="-1.53203">
        <ele>70</ele>
        <time>2022-04-10T08:50:07Z</time>
      </trkpt>
      <trkpt lat="47.27619" lon="-1.53203">
        <ele>70</ele>
        <time>2022-04-10T08:50:08Z</time>
      </trkpt>
      <trkpt lat="47.27619" lon="-1.53203">
        <ele>70</ele>
        <time>2022-04-10T08:50:09Z</time>
      </trkpt>
      <trkpt lat="47.27621" lon="-1.53207">
        <ele>69</ele>
        <time>2022-04-10T08:50:10Z</time>
      </trkpt>
      <trkpt lat="47.27622" lon="-1.53208">
        <ele>69</ele>
        <time>2022-04-10T08:50:11Z</time>
      </trkpt>
      <trkpt lat="47.27623" lon="-1.53208">
        <ele>69</ele>
        <time>2022-04-10T08:50:12Z</time>
      </trkpt>
      <trkpt lat="47.27623" lon="-1.53209">
        <ele>69</ele>
        <time>2022-04-10T08:50:13Z</time>
      </trkpt>
      <trkpt lat="47.27624" lon="-1.5321">
        <ele>69</ele>
        <time>2022-04-10T08:50:14Z</time>
      </trkpt>
      <trkpt lat="47.27624" lon="-1.53211">
        <ele>70</ele>
        <time>2022-04-10T08:50:15Z</time>
      </trkpt>
      <trkpt lat="47.27624" lon="-1.53213">
        <ele>70</ele>
        <time>2022-04-10T08:50:16Z</time>
      </trkpt>
      <trkpt lat="47.27625" lon="-1.53215">
        <ele>69</ele>
        <time>2022-04-10T08:50:17Z</time>
      </trkpt>
      <trkpt lat="47.27625" lon="-1.53217">
        <ele>69</ele>
        <time>2022-04-10T08:50:18Z</time>
      </trkpt>
      <trkpt lat="47.27624" lon="-1.53219">
        <ele>68</ele>
        <time>2022-04-10T08:50:19Z</time>
      </trkpt>
      <trkpt lat="47.27624" lon="-1.53221">
        <ele>68</ele>
        <time>2022-04-10T08:50:20Z</time>
      </trkpt>
      <trkpt lat="47.27625" lon="-1.53223">
        <ele>68</ele>
        <time>2022-04-10T08:50:21Z</time>
      </trkpt>
      <trkpt lat="47.27625" lon="-1.53224">
        <ele>69</ele>
        <time>2022-04-10T08:50:22Z</time>
      </trkpt>
      <trkpt lat="47.27625" lon="-1.53226">
        <ele>69</ele>
        <time>2022-04-10T08:50:23Z</time>
      </trkpt>
      <trkpt lat="47.27625" lon="-1.53226">
        <ele>69</ele>
        <time>2022-04-10T08:50:24Z</time>
      </trkpt>
      <trkpt lat="47.27625" lon="-1.53226">
        <ele>69</ele>
        <time>2022-04-10T08:50:25Z</time>
      </trkpt>
      <trkpt lat="47.27626" lon="-1.53228">
        <ele>71</ele>
        <time>2022-04-10T08:50:26Z</time>
      </trkpt>
      <trkpt lat="47.27626" lon="-1.53229">
        <ele>70</ele>
        <time>2022-04-10T08:50:27Z</time>
      </trkpt>
      <trkpt lat="47.27627" lon="-1.53231">
        <ele>70</ele>
        <time>2022-04-10T08:50:28Z</time>
      </trkpt>
      <trkpt lat="47.27628" lon="-1.53232">
        <ele>70</ele>
        <time>2022-04-10T08:50:29Z</time>
      </trkpt>
      <trkpt lat="47.27628" lon="-1.53233">
        <ele>71</ele>
        <time>2022-04-10T08:50:30Z</time>
      </trkpt>
      <trkpt lat="47.27628" lon="-1.53235">
        <ele>71</ele>
        <time>2022-04-10T08:50:31Z</time>
      </trkpt>
      <trkpt lat="47.27628" lon="-1.53235">
        <ele>71</ele>
        <time>2022-04-10T08:50:32Z</time>
      </trkpt>
      <trkpt lat="47.27628" lon="-1.53235">
        <ele>71</ele>
        <time>2022-04-10T08:50:33Z</time>
      </trkpt>
      <trkpt lat="47.27629" lon="-1.53239">
        <ele>73</ele>
        <time>2022-04-10T08:50:34Z</time>
      </trkpt>
      <trkpt lat="47.27629" lon="-1.5324">
        <ele>73</ele>
        <time>2022-04-10T08:50:35Z</time>
      </trkpt>
      <trkpt lat="47.2763" lon="-1.53241">
        <ele>74</ele>
        <time>2022-04-10T08:50:36Z</time>
      </trkpt>
      <trkpt lat="47.27629" lon="-1.53242">
        <ele>75</ele>
        <time>2022-04-10T08:50:37Z</time>
      </trkpt>
      <trkpt lat="47.27629" lon="-1.53242">
        <ele>75</ele>
        <time>2022-04-10T08:50:38Z</time>
      </trkpt>
      <trkpt lat="47.27629" lon="-1.53242">
        <ele>75</ele>
        <time>2022-04-10T08:50:39Z</time>
      </trkpt>
      <trkpt lat="47.27629" lon="-1.53245">
        <ele>76</ele>
        <time>2022-04-10T08:50:40Z</time>
      </trkpt>
      <trkpt lat="47.27629" lon="-1.53247">
        <ele>76</ele>
        <time>2022-04-10T08:50:41Z</time>
      </trkpt>
      <trkpt lat="47.27629" lon="-1.53249">
        <ele>76</ele>
        <time>2022-04-10T08:50:42Z</time>
      </trkpt>
      <trkpt lat="47.27629" lon="-1.53249">
        <ele>77</ele>
        <time>2022-04-10T08:50:43Z</time>
      </trkpt>
      <trkpt lat="47.2763" lon="-1.53251">
        <ele>77</ele>
        <time>2022-04-10T08:50:44Z</time>
      </trkpt>
      <trkpt lat="47.2763" lon="-1.53252">
        <ele>77</ele>
        <time>2022-04-10T08:50:45Z</time>
      </trkpt>
      <trkpt lat="47.2763" lon="-1.53252">
        <ele>77</ele>
        <time>2022-04-10T08:50:46Z</time>
      </trkpt>
      <trkpt lat="47.2763" lon="-1.53252">
        <ele>77</ele>
        <time>2022-04-10T08:50:47Z</time>
      </trkpt>
      <trkpt lat="47.2763" lon="-1.53256">
        <ele>77</ele>
        <time>2022-04-10T08:50:48Z</time>
      </trkpt>
      <trkpt lat="47.2763" lon="-1.53258">
        <ele>77</ele>
        <time>2022-04-10T08:50:49Z</time>
      </trkpt>
      <trkpt lat="47.27629" lon="-1.5326">
        <ele>77</ele>
        <time>2022-04-10T08:50:50Z</time>
      </trkpt>
      <trkpt lat="47.2763" lon="-1.53262">
        <ele>78</ele>
        <time>2022-04-10T08:50:51Z</time>
      </trkpt>
      <trkpt lat="47.2763" lon="-1.53262">
        <ele>78</ele>
        <time>2022-04-10T08:50:52Z</time>
      </trkpt>
      <trkpt lat="47.2763" lon="-1.53264">
        <ele>79</ele>
        <time>2022-04-10T08:50:53Z</time>
      </trkpt>
      <trkpt lat="47.2763" lon="-1.53266">
        <ele>79</ele>
        <time>2022-04-10T08:50:54Z</time>
      </trkpt>
      <trkpt lat="47.2763" lon="-1.53268">
        <ele>78</ele>
        <time>2022-04-10T08:50:55Z</time>
      </trkpt>
      <trkpt lat="47.2763" lon="-1.53269">
        <ele>79</ele>
        <time>2022-04-10T08:50:56Z</time>
      </trkpt>
      <trkpt lat="47.2763" lon="-1.53269">
        <ele>79</ele>
        <time>2022-04-10T08:50:57Z</time>
      </trkpt>
      <trkpt lat="47.2763" lon="-1.53269">
        <ele>79</ele>
        <time>2022-04-10T08:50:58Z</time>
      </trkpt>
      <trkpt lat="47.27631" lon="-1.53274">
        <ele>80</ele>
        <time>2022-04-10T08:50:59Z</time>
      </trkpt>
      <trkpt lat="47.27631" lon="-1.53275">
        <ele>80</ele>
        <time>2022-04-10T08:51:00Z</time>
      </trkpt>
      <trkpt lat="47.27631" lon="-1.53276">
        <ele>79</ele>
        <time>2022-04-10T08:51:01Z</time>
      </trkpt>
      <trkpt lat="47.27631" lon="-1.53278">
        <ele>79</ele>
        <time>2022-04-10T08:51:02Z</time>
      </trkpt>
      <trkpt lat="47.27631" lon="-1.53278">
        <ele>79</ele>
        <time>2022-04-10T08:51:03Z</time>
      </trkpt>
      <trkpt lat="47.27631" lon="-1.53278">
        <ele>79</ele>
        <time>2022-04-10T08:51:04Z</time>
      </trkpt>
      <trkpt lat="47.2763" lon="-1.53281">
        <ele>80</ele>
        <time>2022-04-10T08:51:05Z</time>
      </trkpt>
      <trkpt lat="47.2763" lon="-1.53283">
        <ele>80</ele>
        <time>2022-04-10T08:51:06Z</time>
      </trkpt>
      <trkpt lat="47.2763" lon="-1.53284">
        <ele>80</ele>
        <time>2022-04-10T08:51:07Z</time>
      </trkpt>
      <trkpt lat="47.2763" lon="-1.53285">
        <ele>80</ele>
        <time>2022-04-10T08:51:08Z</time>
      </trkpt>
      <trkpt lat="47.2763" lon="-1.53285">
        <ele>80</ele>
        <time>2022-04-10T08:51:09Z</time>
      </trkpt>
      <trkpt lat="47.2763" lon="-1.53285">
        <ele>80</ele>
        <time>2022-04-10T08:51:10Z</time>
      </trkpt>
      <trkpt lat="47.2763" lon="-1.5329">
        <ele>80</ele>
        <time>2022-04-10T08:51:11Z</time>
      </trkpt>
      <trkpt lat="47.2763" lon="-1.53292">
        <ele>79</ele>
        <time>2022-04-10T08:51:12Z</time>
      </trkpt>
      <trkpt lat="47.2763" lon="-1.53293">
        <ele>79</ele>
        <time>2022-04-10T08:51:13Z</time>
      </trkpt>
      <trkpt lat="47.2763" lon="-1.53295">
        <ele>80</ele>
        <time>2022-04-10T08:51:14Z</time>
      </trkpt>
      <trkpt lat="47.2763" lon="-1.53295">
        <ele>80</ele>
        <time>2022-04-10T08:51:15Z</time>
      </trkpt>
      <trkpt lat="47.2763" lon="-1.53295">
        <ele>80</ele>
        <time>2022-04-10T08:51:16Z</time>
      </trkpt>
      <trkpt lat="47.2763" lon="-1.53299">
        <ele>79</ele>
        <time>2022-04-10T08:51:17Z</time>
      </trkpt>
      <trkpt lat="47.2763" lon="-1.533">
        <ele>79</ele>
        <time>2022-04-10T08:51:18Z</time>
      </trkpt>
      <trkpt lat="47.2763" lon="-1.53302">
        <ele>79</ele>
        <time>2022-04-10T08:51:19Z</time>
      </trkpt>
      <trkpt lat="47.2763" lon="-1.53304">
        <ele>79</ele>
        <time>2022-04-10T08:51:20Z</time>
      </trkpt>
      <trkpt lat="47.2763" lon="-1.53304">
        <ele>79</ele>
        <time>2022-04-10T08:51:21Z</time>
      </trkpt>
      <trkpt lat="47.2763" lon="-1.53304">
        <ele>79</ele>
        <time>2022-04-10T08:51:22Z</time>
      </trkpt>
      <trkpt lat="47.27629" lon="-1.53308">
        <ele>80</ele>
        <time>2022-04-10T08:51:23Z</time>
      </trkpt>
      <trkpt lat="47.27629" lon="-1.5331">
        <ele>80</ele>
        <time>2022-04-10T08:51:24Z</time>
      </trkpt>
      <trkpt lat="47.27628" lon="-1.53311">
        <ele>80</ele>
        <time>2022-04-10T08:51:25Z</time>
      </trkpt>
      <trkpt lat="47.27628" lon="-1.53313">
        <ele>81</ele>
        <time>2022-04-10T08:51:26Z</time>
      </trkpt>
      <trkpt lat="47.27628" lon="-1.53313">
        <ele>81</ele>
        <time>2022-04-10T08:51:27Z</time>
      </trkpt>
      <trkpt lat="47.27628" lon="-1.53313">
        <ele>81</ele>
        <time>2022-04-10T08:51:28Z</time>
      </trkpt>
      <trkpt lat="47.27628" lon="-1.53318">
        <ele>82</ele>
        <time>2022-04-10T08:51:29Z</time>
      </trkpt>
      <trkpt lat="47.27627" lon="-1.5332">
        <ele>83</ele>
        <time>2022-04-10T08:51:30Z</time>
      </trkpt>
      <trkpt lat="47.27627" lon="-1.53322">
        <ele>83</ele>
        <time>2022-04-10T08:51:31Z</time>
      </trkpt>
      <trkpt lat="47.27626" lon="-1.53324">
        <ele>83</ele>
        <time>2022-04-10T08:51:32Z</time>
      </trkpt>
      <trkpt lat="47.27626" lon="-1.53324">
        <ele>83</ele>
        <time>2022-04-10T08:51:33Z</time>
      </trkpt>
      <trkpt lat="47.27626" lon="-1.53324">
        <ele>83</ele>
        <time>2022-04-10T08:51:34Z</time>
      </trkpt>
      <trkpt lat="47.27625" lon="-1.53328">
        <ele>83</ele>
        <time>2022-04-10T08:51:35Z</time>
      </trkpt>
      <trkpt lat="47.27625" lon="-1.5333">
        <ele>84</ele>
        <time>2022-04-10T08:51:36Z</time>
      </trkpt>
      <trkpt lat="47.27624" lon="-1.53332">
        <ele>84</ele>
        <time>2022-04-10T08:51:37Z</time>
      </trkpt>
      <trkpt lat="47.27624" lon="-1.53334">
        <ele>84</ele>
        <time>2022-04-10T08:51:38Z</time>
      </trkpt>
      <trkpt lat="47.27624" lon="-1.53334">
        <ele>84</ele>
        <time>2022-04-10T08:51:39Z</time>
      </trkpt>
      <trkpt lat="47.27624" lon="-1.53334">
        <ele>84</ele>
        <time>2022-04-10T08:51:40Z</time>
      </trkpt>
      <trkpt lat="47.27624" lon="-1.53339">
        <ele>84</ele>
        <time>2022-04-10T08:51:41Z</time>
      </trkpt>
      <trkpt lat="47.27624" lon="-1.53341">
        <ele>85</ele>
        <time>2022-04-10T08:51:42Z</time>
      </trkpt>
      <trkpt lat="47.27623" lon="-1.53343">
        <ele>85</ele>
        <time>2022-04-10T08:51:43Z</time>
      </trkpt>
      <trkpt lat="47.27624" lon="-1.53345">
        <ele>85</ele>
        <time>2022-04-10T08:51:44Z</time>
      </trkpt>
      <trkpt lat="47.27624" lon="-1.53347">
        <ele>85</ele>
        <time>2022-04-10T08:51:45Z</time>
      </trkpt>
      <trkpt lat="47.27625" lon="-1.53348">
        <ele>86</ele>
        <time>2022-04-10T08:51:46Z</time>
      </trkpt>
      <trkpt lat="47.27625" lon="-1.53348">
        <ele>86</ele>
        <time>2022-04-10T08:51:47Z</time>
      </trkpt>
      <trkpt lat="47.27625" lon="-1.53348">
        <ele>86</ele>
        <time>2022-04-10T08:51:48Z</time>
      </trkpt>
      <trkpt lat="47.27626" lon="-1.5335">
        <ele>87</ele>
        <time>2022-04-10T08:51:49Z</time>
      </trkpt>
      <trkpt lat="47.27626" lon="-1.5335">
        <ele>88</ele>
        <time>2022-04-10T08:51:50Z</time>
      </trkpt>
      <trkpt lat="47.27626" lon="-1.53351">
        <ele>88</ele>
        <time>2022-04-10T08:51:51Z</time>
      </trkpt>
      <trkpt lat="47.27626" lon="-1.53353">
        <ele>87</ele>
        <time>2022-04-10T08:51:52Z</time>
      </trkpt>
      <trkpt lat="47.27627" lon="-1.53354">
        <ele>87</ele>
        <time>2022-04-10T08:51:53Z</time>
      </trkpt>
      <trkpt lat="47.27627" lon="-1.53354">
        <ele>87</ele>
        <time>2022-04-10T08:51:54Z</time>
      </trkpt>
      <trkpt lat="47.27627" lon="-1.53358">
        <ele>87</ele>
        <time>2022-04-10T08:51:55Z</time>
      </trkpt>
      <trkpt lat="47.27627" lon="-1.5336">
        <ele>88</ele>
        <time>2022-04-10T08:51:56Z</time>
      </trkpt>
      <trkpt lat="47.27627" lon="-1.53361">
        <ele>88</ele>
        <time>2022-04-10T08:51:57Z</time>
      </trkpt>
      <trkpt lat="47.27628" lon="-1.53363">
        <ele>87</ele>
        <time>2022-04-10T08:51:58Z</time>
      </trkpt>
      <trkpt lat="47.27628" lon="-1.53363">
        <ele>87</ele>
        <time>2022-04-10T08:51:59Z</time>
      </trkpt>
      <trkpt lat="47.27628" lon="-1.53363">
        <ele>87</ele>
        <time>2022-04-10T08:52:00Z</time>
      </trkpt>
      <trkpt lat="47.27629" lon="-1.53366">
        <ele>87</ele>
        <time>2022-04-10T08:52:01Z</time>
      </trkpt>
      <trkpt lat="47.27629" lon="-1.53368">
        <ele>87</ele>
        <time>2022-04-10T08:52:02Z</time>
      </trkpt>
      <trkpt lat="47.2763" lon="-1.53369">
        <ele>87</ele>
        <time>2022-04-10T08:52:03Z</time>
      </trkpt>
      <trkpt lat="47.2763" lon="-1.53371">
        <ele>87</ele>
        <time>2022-04-10T08:52:04Z</time>
      </trkpt>
      <trkpt lat="47.2763" lon="-1.53371">
        <ele>87</ele>
        <time>2022-04-10T08:52:05Z</time>
      </trkpt>
      <trkpt lat="47.2763" lon="-1.53371">
        <ele>87</ele>
        <time>2022-04-10T08:52:06Z</time>
      </trkpt>
      <trkpt lat="47.2763" lon="-1.53375">
        <ele>87</ele>
        <time>2022-04-10T08:52:07Z</time>
      </trkpt>
      <trkpt lat="47.2763" lon="-1.53377">
        <ele>87</ele>
        <time>2022-04-10T08:52:08Z</time>
      </trkpt>
      <trkpt lat="47.2763" lon="-1.53378">
        <ele>87</ele>
        <time>2022-04-10T08:52:09Z</time>
      </trkpt>
      <trkpt lat="47.27631" lon="-1.53379">
        <ele>86</ele>
        <time>2022-04-10T08:52:10Z</time>
      </trkpt>
      <trkpt lat="47.27631" lon="-1.53379">
        <ele>86</ele>
        <time>2022-04-10T08:52:11Z</time>
      </trkpt>
      <trkpt lat="47.27631" lon="-1.53379">
        <ele>86</ele>
        <time>2022-04-10T08:52:12Z</time>
      </trkpt>
      <trkpt lat="47.27631" lon="-1.53382">
        <ele>85</ele>
        <time>2022-04-10T08:52:13Z</time>
      </trkpt>
      <trkpt lat="47.27631" lon="-1.53384">
        <ele>85</ele>
        <time>2022-04-10T08:52:14Z</time>
      </trkpt>
      <trkpt lat="47.27631" lon="-1.53386">
        <ele>85</ele>
        <time>2022-04-10T08:52:15Z</time>
      </trkpt>
      <trkpt lat="47.27631" lon="-1.53388">
        <ele>85</ele>
        <time>2022-04-10T08:52:16Z</time>
      </trkpt>
      <trkpt lat="47.27631" lon="-1.5339">
        <ele>85</ele>
        <time>2022-04-10T08:52:17Z</time>
      </trkpt>
      <trkpt lat="47.27631" lon="-1.5339">
        <ele>85</ele>
        <time>2022-04-10T08:52:18Z</time>
      </trkpt>
      <trkpt lat="47.27631" lon="-1.5339">
        <ele>85</ele>
        <time>2022-04-10T08:52:20Z</time>
      </trkpt>
      <trkpt lat="47.27633" lon="-1.53394">
        <ele>86</ele>
        <time>2022-04-10T08:52:21Z</time>
      </trkpt>
      <trkpt lat="47.27633" lon="-1.53397">
        <ele>86</ele>
        <time>2022-04-10T08:52:22Z</time>
      </trkpt>
      <trkpt lat="47.27633" lon="-1.53399">
        <ele>86</ele>
        <time>2022-04-10T08:52:23Z</time>
      </trkpt>
      <trkpt lat="47.27633" lon="-1.53401">
        <ele>86</ele>
        <time>2022-04-10T08:52:24Z</time>
      </trkpt>
      <trkpt lat="47.27633" lon="-1.53401">
        <ele>86</ele>
        <time>2022-04-10T08:52:25Z</time>
      </trkpt>
      <trkpt lat="47.27633" lon="-1.53401">
        <ele>86</ele>
        <time>2022-04-10T08:52:26Z</time>
      </trkpt>
      <trkpt lat="47.27633" lon="-1.53406">
        <ele>85</ele>
        <time>2022-04-10T08:52:27Z</time>
      </trkpt>
      <trkpt lat="47.27633" lon="-1.53407">
        <ele>85</ele>
        <time>2022-04-10T08:52:28Z</time>
      </trkpt>
      <trkpt lat="47.27634" lon="-1.53409">
        <ele>85</ele>
        <time>2022-04-10T08:52:29Z</time>
      </trkpt>
      <trkpt lat="47.27634" lon="-1.5341">
        <ele>85</ele>
        <time>2022-04-10T08:52:30Z</time>
      </trkpt>
      <trkpt lat="47.27634" lon="-1.53411">
        <ele>85</ele>
        <time>2022-04-10T08:52:31Z</time>
      </trkpt>
      <trkpt lat="47.27634" lon="-1.53411">
        <ele>85</ele>
        <time>2022-04-10T08:52:32Z</time>
      </trkpt>
      <trkpt lat="47.27634" lon="-1.53411">
        <ele>85</ele>
        <time>2022-04-10T08:52:33Z</time>
      </trkpt>
      <trkpt lat="47.27636" lon="-1.53415">
        <ele>87</ele>
        <time>2022-04-10T08:52:34Z</time>
      </trkpt>
      <trkpt lat="47.27636" lon="-1.53416">
        <ele>87</ele>
        <time>2022-04-10T08:52:35Z</time>
      </trkpt>
      <trkpt lat="47.27636" lon="-1.53418">
        <ele>87</ele>
        <time>2022-04-10T08:52:36Z</time>
      </trkpt>
      <trkpt lat="47.27637" lon="-1.53419">
        <ele>87</ele>
        <time>2022-04-10T08:52:37Z</time>
      </trkpt>
      <trkpt lat="47.27638" lon="-1.53421">
        <ele>87</ele>
        <time>2022-04-10T08:52:38Z</time>
      </trkpt>
      <trkpt lat="47.27639" lon="-1.53423">
        <ele>86</ele>
        <time>2022-04-10T08:52:39Z</time>
      </trkpt>
      <trkpt lat="47.27639" lon="-1.53424">
        <ele>86</ele>
        <time>2022-04-10T08:52:40Z</time>
      </trkpt>
      <trkpt lat="47.27639" lon="-1.53424">
        <ele>86</ele>
        <time>2022-04-10T08:52:41Z</time>
      </trkpt>
      <trkpt lat="47.27639" lon="-1.53424">
        <ele>86</ele>
        <time>2022-04-10T08:52:42Z</time>
      </trkpt>
      <trkpt lat="47.2764" lon="-1.53428">
        <ele>86</ele>
        <time>2022-04-10T08:52:43Z</time>
      </trkpt>
      <trkpt lat="47.2764" lon="-1.5343">
        <ele>86</ele>
        <time>2022-04-10T08:52:44Z</time>
      </trkpt>
      <trkpt lat="47.27641" lon="-1.53432">
        <ele>86</ele>
        <time>2022-04-10T08:52:45Z</time>
      </trkpt>
      <trkpt lat="47.27641" lon="-1.53434">
        <ele>86</ele>
        <time>2022-04-10T08:52:46Z</time>
      </trkpt>
      <trkpt lat="47.27642" lon="-1.53436">
        <ele>86</ele>
        <time>2022-04-10T08:52:47Z</time>
      </trkpt>
      <trkpt lat="47.27642" lon="-1.53437">
        <ele>87</ele>
        <time>2022-04-10T08:52:48Z</time>
      </trkpt>
      <trkpt lat="47.27642" lon="-1.53439">
        <ele>87</ele>
        <time>2022-04-10T08:52:49Z</time>
      </trkpt>
      <trkpt lat="47.27642" lon="-1.5344">
        <ele>87</ele>
        <time>2022-04-10T08:52:50Z</time>
      </trkpt>
      <trkpt lat="47.27642" lon="-1.5344">
        <ele>87</ele>
        <time>2022-04-10T08:52:51Z</time>
      </trkpt>
      <trkpt lat="47.27642" lon="-1.5344">
        <ele>87</ele>
        <time>2022-04-10T08:52:52Z</time>
      </trkpt>
      <trkpt lat="47.27643" lon="-1.53445">
        <ele>89</ele>
        <time>2022-04-10T08:52:53Z</time>
      </trkpt>
      <trkpt lat="47.27643" lon="-1.53447">
        <ele>89</ele>
        <time>2022-04-10T08:52:54Z</time>
      </trkpt>
      <trkpt lat="47.27643" lon="-1.53448">
        <ele>88</ele>
        <time>2022-04-10T08:52:55Z</time>
      </trkpt>
      <trkpt lat="47.27643" lon="-1.5345">
        <ele>88</ele>
        <time>2022-04-10T08:52:56Z</time>
      </trkpt>
      <trkpt lat="47.27643" lon="-1.5345">
        <ele>88</ele>
        <time>2022-04-10T08:52:57Z</time>
      </trkpt>
      <trkpt lat="47.27643" lon="-1.5345">
        <ele>88</ele>
        <time>2022-04-10T08:52:58Z</time>
      </trkpt>
      <trkpt lat="47.27644" lon="-1.53454">
        <ele>87</ele>
        <time>2022-04-10T08:52:59Z</time>
      </trkpt>
      <trkpt lat="47.27645" lon="-1.53456">
        <ele>87</ele>
        <time>2022-04-10T08:53:00Z</time>
      </trkpt>
      <trkpt lat="47.27645" lon="-1.53458">
        <ele>87</ele>
        <time>2022-04-10T08:53:01Z</time>
      </trkpt>
      <trkpt lat="47.27646" lon="-1.5346">
        <ele>87</ele>
        <time>2022-04-10T08:53:02Z</time>
      </trkpt>
      <trkpt lat="47.27646" lon="-1.5346">
        <ele>87</ele>
        <time>2022-04-10T08:53:03Z</time>
      </trkpt>
      <trkpt lat="47.27646" lon="-1.5346">
        <ele>87</ele>
        <time>2022-04-10T08:53:04Z</time>
      </trkpt>
      <trkpt lat="47.27646" lon="-1.53464">
        <ele>87</ele>
        <time>2022-04-10T08:53:05Z</time>
      </trkpt>
      <trkpt lat="47.27646" lon="-1.53466">
        <ele>87</ele>
        <time>2022-04-10T08:53:06Z</time>
      </trkpt>
      <trkpt lat="47.27646" lon="-1.53468">
        <ele>87</ele>
        <time>2022-04-10T08:53:07Z</time>
      </trkpt>
      <trkpt lat="47.27646" lon="-1.5347">
        <ele>87</ele>
        <time>2022-04-10T08:53:08Z</time>
      </trkpt>
      <trkpt lat="47.27646" lon="-1.5347">
        <ele>87</ele>
        <time>2022-04-10T08:53:09Z</time>
      </trkpt>
      <trkpt lat="47.27646" lon="-1.5347">
        <ele>87</ele>
        <time>2022-04-10T08:53:10Z</time>
      </trkpt>
      <trkpt lat="47.27646" lon="-1.53475">
        <ele>87</ele>
        <time>2022-04-10T08:53:11Z</time>
      </trkpt>
      <trkpt lat="47.27646" lon="-1.53477">
        <ele>87</ele>
        <time>2022-04-10T08:53:12Z</time>
      </trkpt>
      <trkpt lat="47.27646" lon="-1.53479">
        <ele>87</ele>
        <time>2022-04-10T08:53:13Z</time>
      </trkpt>
      <trkpt lat="47.27647" lon="-1.53481">
        <ele>86</ele>
        <time>2022-04-10T08:53:14Z</time>
      </trkpt>
      <trkpt lat="47.27647" lon="-1.53481">
        <ele>86</ele>
        <time>2022-04-10T08:53:15Z</time>
      </trkpt>
      <trkpt lat="47.27647" lon="-1.53481">
        <ele>86</ele>
        <time>2022-04-10T08:53:16Z</time>
      </trkpt>
      <trkpt lat="47.27647" lon="-1.53486">
        <ele>86</ele>
        <time>2022-04-10T08:53:17Z</time>
      </trkpt>
      <trkpt lat="47.27647" lon="-1.53487">
        <ele>86</ele>
        <time>2022-04-10T08:53:18Z</time>
      </trkpt>
      <trkpt lat="47.27647" lon="-1.53489">
        <ele>86</ele>
        <time>2022-04-10T08:53:19Z</time>
      </trkpt>
      <trkpt lat="47.27647" lon="-1.53491">
        <ele>87</ele>
        <time>2022-04-10T08:53:20Z</time>
      </trkpt>
      <trkpt lat="47.27646" lon="-1.53493">
        <ele>86</ele>
        <time>2022-04-10T08:53:21Z</time>
      </trkpt>
      <trkpt lat="47.27646" lon="-1.53494">
        <ele>86</ele>
        <time>2022-04-10T08:53:22Z</time>
      </trkpt>
      <trkpt lat="47.27646" lon="-1.53496">
        <ele>87</ele>
        <time>2022-04-10T08:53:23Z</time>
      </trkpt>
      <trkpt lat="47.27646" lon="-1.53498">
        <ele>87</ele>
        <time>2022-04-10T08:53:24Z</time>
      </trkpt>
      <trkpt lat="47.27647" lon="-1.53499">
        <ele>87</ele>
        <time>2022-04-10T08:53:25Z</time>
      </trkpt>
      <trkpt lat="47.27647" lon="-1.53501">
        <ele>87</ele>
        <time>2022-04-10T08:53:26Z</time>
      </trkpt>
      <trkpt lat="47.27647" lon="-1.53501">
        <ele>87</ele>
        <time>2022-04-10T08:53:27Z</time>
      </trkpt>
      <trkpt lat="47.27647" lon="-1.53501">
        <ele>87</ele>
        <time>2022-04-10T08:53:28Z</time>
      </trkpt>
      <trkpt lat="47.27648" lon="-1.53505">
        <ele>87</ele>
        <time>2022-04-10T08:53:29Z</time>
      </trkpt>
      <trkpt lat="47.27649" lon="-1.53506">
        <ele>87</ele>
        <time>2022-04-10T08:53:30Z</time>
      </trkpt>
      <trkpt lat="47.27649" lon="-1.53508">
        <ele>87</ele>
        <time>2022-04-10T08:53:31Z</time>
      </trkpt>
      <trkpt lat="47.2765" lon="-1.5351">
        <ele>86</ele>
        <time>2022-04-10T08:53:32Z</time>
      </trkpt>
      <trkpt lat="47.2765" lon="-1.5351">
        <ele>86</ele>
        <time>2022-04-10T08:53:33Z</time>
      </trkpt>
      <trkpt lat="47.2765" lon="-1.5351">
        <ele>86</ele>
        <time>2022-04-10T08:53:34Z</time>
      </trkpt>
      <trkpt lat="47.27651" lon="-1.53514">
        <ele>86</ele>
        <time>2022-04-10T08:53:35Z</time>
      </trkpt>
      <trkpt lat="47.27651" lon="-1.53516">
        <ele>86</ele>
        <time>2022-04-10T08:53:36Z</time>
      </trkpt>
      <trkpt lat="47.27651" lon="-1.53518">
        <ele>85</ele>
        <time>2022-04-10T08:53:37Z</time>
      </trkpt>
      <trkpt lat="47.27651" lon="-1.5352">
        <ele>85</ele>
        <time>2022-04-10T08:53:38Z</time>
      </trkpt>
      <trkpt lat="47.27651" lon="-1.5352">
        <ele>85</ele>
        <time>2022-04-10T08:53:39Z</time>
      </trkpt>
      <trkpt lat="47.27651" lon="-1.5352">
        <ele>85</ele>
        <time>2022-04-10T08:53:40Z</time>
      </trkpt>
      <trkpt lat="47.27651" lon="-1.53524">
        <ele>83</ele>
        <time>2022-04-10T08:53:41Z</time>
      </trkpt>
      <trkpt lat="47.27651" lon="-1.53526">
        <ele>83</ele>
        <time>2022-04-10T08:53:42Z</time>
      </trkpt>
      <trkpt lat="47.27651" lon="-1.53528">
        <ele>84</ele>
        <time>2022-04-10T08:53:43Z</time>
      </trkpt>
      <trkpt lat="47.27651" lon="-1.53529">
        <ele>84</ele>
        <time>2022-04-10T08:53:44Z</time>
      </trkpt>
      <trkpt lat="47.27651" lon="-1.53529">
        <ele>84</ele>
        <time>2022-04-10T08:53:45Z</time>
      </trkpt>
      <trkpt lat="47.27651" lon="-1.53529">
        <ele>84</ele>
        <time>2022-04-10T08:53:46Z</time>
      </trkpt>
      <trkpt lat="47.27652" lon="-1.53532">
        <ele>84</ele>
        <time>2022-04-10T08:53:47Z</time>
      </trkpt>
      <trkpt lat="47.27652" lon="-1.53534">
        <ele>85</ele>
        <time>2022-04-10T08:53:48Z</time>
      </trkpt>
      <trkpt lat="47.27652" lon="-1.53536">
        <ele>85</ele>
        <time>2022-04-10T08:53:49Z</time>
      </trkpt>
      <trkpt lat="47.27652" lon="-1.53537">
        <ele>84</ele>
        <time>2022-04-10T08:53:50Z</time>
      </trkpt>
      <trkpt lat="47.27652" lon="-1.53537">
        <ele>84</ele>
        <time>2022-04-10T08:53:51Z</time>
      </trkpt>
      <trkpt lat="47.27652" lon="-1.53537">
        <ele>84</ele>
        <time>2022-04-10T08:53:52Z</time>
      </trkpt>
      <trkpt lat="47.27652" lon="-1.53542">
        <ele>84</ele>
        <time>2022-04-10T08:53:53Z</time>
      </trkpt>
      <trkpt lat="47.27652" lon="-1.53544">
        <ele>84</ele>
        <time>2022-04-10T08:53:54Z</time>
      </trkpt>
      <trkpt lat="47.27653" lon="-1.53546">
        <ele>84</ele>
        <time>2022-04-10T08:53:55Z</time>
      </trkpt>
      <trkpt lat="47.27652" lon="-1.53548">
        <ele>85</ele>
        <time>2022-04-10T08:53:56Z</time>
      </trkpt>
      <trkpt lat="47.27652" lon="-1.53548">
        <ele>85</ele>
        <time>2022-04-10T08:53:57Z</time>
      </trkpt>
      <trkpt lat="47.27652" lon="-1.53548">
        <ele>85</ele>
        <time>2022-04-10T08:53:58Z</time>
      </trkpt>
      <trkpt lat="47.27653" lon="-1.53552">
        <ele>85</ele>
        <time>2022-04-10T08:53:59Z</time>
      </trkpt>
      <trkpt lat="47.27654" lon="-1.53554">
        <ele>84</ele>
        <time>2022-04-10T08:54:00Z</time>
      </trkpt>
      <trkpt lat="47.27654" lon="-1.53556">
        <ele>84</ele>
        <time>2022-04-10T08:54:01Z</time>
      </trkpt>
      <trkpt lat="47.27654" lon="-1.53558">
        <ele>85</ele>
        <time>2022-04-10T08:54:02Z</time>
      </trkpt>
      <trkpt lat="47.27655" lon="-1.5356">
        <ele>84</ele>
        <time>2022-04-10T08:54:03Z</time>
      </trkpt>
      <trkpt lat="47.27655" lon="-1.53561">
        <ele>85</ele>
        <time>2022-04-10T08:54:04Z</time>
      </trkpt>
      <trkpt lat="47.27656" lon="-1.53562">
        <ele>84</ele>
        <time>2022-04-10T08:54:05Z</time>
      </trkpt>
      <trkpt lat="47.27656" lon="-1.53564">
        <ele>84</ele>
        <time>2022-04-10T08:54:06Z</time>
      </trkpt>
      <trkpt lat="47.27656" lon="-1.53566">
        <ele>83</ele>
        <time>2022-04-10T08:54:07Z</time>
      </trkpt>
      <trkpt lat="47.27656" lon="-1.53566">
        <ele>83</ele>
        <time>2022-04-10T08:54:08Z</time>
      </trkpt>
      <trkpt lat="47.27656" lon="-1.53566">
        <ele>83</ele>
        <time>2022-04-10T08:54:09Z</time>
      </trkpt>
      <trkpt lat="47.27657" lon="-1.53569">
        <ele>83</ele>
        <time>2022-04-10T08:54:10Z</time>
      </trkpt>
      <trkpt lat="47.27658" lon="-1.53569">
        <ele>83</ele>
        <time>2022-04-10T08:54:11Z</time>
      </trkpt>
      <trkpt lat="47.27658" lon="-1.5357">
        <ele>82</ele>
        <time>2022-04-10T08:54:12Z</time>
      </trkpt>
      <trkpt lat="47.27659" lon="-1.53571">
        <ele>81</ele>
        <time>2022-04-10T08:54:13Z</time>
      </trkpt>
      <trkpt lat="47.27659" lon="-1.53571">
        <ele>81</ele>
        <time>2022-04-10T08:54:14Z</time>
      </trkpt>
      <trkpt lat="47.27659" lon="-1.53571">
        <ele>81</ele>
        <time>2022-04-10T08:54:15Z</time>
      </trkpt>
      <trkpt lat="47.27659" lon="-1.53571">
        <ele>81</ele>
        <time>2022-04-10T08:54:16Z</time>
      </trkpt>
      <trkpt lat="47.27659" lon="-1.53571">
        <ele>81</ele>
        <time>2022-04-10T08:54:17Z</time>
      </trkpt>
      <trkpt lat="47.27659" lon="-1.53571">
        <ele>81</ele>
        <time>2022-04-10T08:54:18Z</time>
      </trkpt>
      <trkpt lat="47.2766" lon="-1.53571">
        <ele>82</ele>
        <time>2022-04-10T08:54:19Z</time>
      </trkpt>
      <trkpt lat="47.27661" lon="-1.53571">
        <ele>81</ele>
        <time>2022-04-10T08:54:20Z</time>
      </trkpt>
      <trkpt lat="47.27662" lon="-1.53571">
        <ele>81</ele>
        <time>2022-04-10T08:54:21Z</time>
      </trkpt>
      <trkpt lat="47.27663" lon="-1.53571">
        <ele>80</ele>
        <time>2022-04-10T08:54:22Z</time>
      </trkpt>
      <trkpt lat="47.27664" lon="-1.53571">
        <ele>80</ele>
        <time>2022-04-10T08:54:23Z</time>
      </trkpt>
      <trkpt lat="47.27664" lon="-1.5357">
        <ele>80</ele>
        <time>2022-04-10T08:54:24Z</time>
      </trkpt>
      <trkpt lat="47.27665" lon="-1.5357">
        <ele>80</ele>
        <time>2022-04-10T08:54:25Z</time>
      </trkpt>
      <trkpt lat="47.27665" lon="-1.5357">
        <ele>80</ele>
        <time>2022-04-10T08:54:26Z</time>
      </trkpt>
      <trkpt lat="47.27665" lon="-1.5357">
        <ele>80</ele>
        <time>2022-04-10T08:54:27Z</time>
      </trkpt>
      <trkpt lat="47.27667" lon="-1.53569">
        <ele>80</ele>
        <time>2022-04-10T08:54:28Z</time>
      </trkpt>
      <trkpt lat="47.27667" lon="-1.53568">
        <ele>80</ele>
        <time>2022-04-10T08:54:29Z</time>
      </trkpt>
      <trkpt lat="47.27668" lon="-1.53569">
        <ele>80</ele>
        <time>2022-04-10T08:54:30Z</time>
      </trkpt>
      <trkpt lat="47.27668" lon="-1.53569">
        <ele>80</ele>
        <time>2022-04-10T08:54:31Z</time>
      </trkpt>
      <trkpt lat="47.27668" lon="-1.53569">
        <ele>80</ele>
        <time>2022-04-10T08:54:32Z</time>
      </trkpt>
      <trkpt lat="47.27668" lon="-1.53569">
        <ele>80</ele>
        <time>2022-04-10T08:54:33Z</time>
      </trkpt>
      <trkpt lat="47.2767" lon="-1.5357">
        <ele>78</ele>
        <time>2022-04-10T08:54:34Z</time>
      </trkpt>
      <trkpt lat="47.27671" lon="-1.5357">
        <ele>77</ele>
        <time>2022-04-10T08:54:35Z</time>
      </trkpt>
      <trkpt lat="47.27672" lon="-1.5357">
        <ele>77</ele>
        <time>2022-04-10T08:54:36Z</time>
      </trkpt>
      <trkpt lat="47.27673" lon="-1.5357">
        <ele>76</ele>
        <time>2022-04-10T08:54:37Z</time>
      </trkpt>
      <trkpt lat="47.27674" lon="-1.5357">
        <ele>76</ele>
        <time>2022-04-10T08:54:38Z</time>
      </trkpt>
      <trkpt lat="47.27675" lon="-1.53571">
        <ele>75</ele>
        <time>2022-04-10T08:54:39Z</time>
      </trkpt>
      <trkpt lat="47.27677" lon="-1.53571">
        <ele>75</ele>
        <time>2022-04-10T08:54:40Z</time>
      </trkpt>
      <trkpt lat="47.27679" lon="-1.53572">
        <ele>74</ele>
        <time>2022-04-10T08:54:41Z</time>
      </trkpt>
      <trkpt lat="47.2768" lon="-1.53572">
        <ele>74</ele>
        <time>2022-04-10T08:54:42Z</time>
      </trkpt>
      <trkpt lat="47.27681" lon="-1.53572">
        <ele>74</ele>
        <time>2022-04-10T08:54:43Z</time>
      </trkpt>
      <trkpt lat="47.27682" lon="-1.53572">
        <ele>73</ele>
        <time>2022-04-10T08:54:44Z</time>
      </trkpt>
      <trkpt lat="47.27683" lon="-1.53571">
        <ele>72</ele>
        <time>2022-04-10T08:54:45Z</time>
      </trkpt>
      <trkpt lat="47.27684" lon="-1.53571">
        <ele>72</ele>
        <time>2022-04-10T08:54:46Z</time>
      </trkpt>
      <trkpt lat="47.27686" lon="-1.5357">
        <ele>72</ele>
        <time>2022-04-10T08:54:47Z</time>
      </trkpt>
      <trkpt lat="47.27686" lon="-1.5357">
        <ele>72</ele>
        <time>2022-04-10T08:54:48Z</time>
      </trkpt>
      <trkpt lat="47.27686" lon="-1.53569">
        <ele>72</ele>
        <time>2022-04-10T08:54:49Z</time>
      </trkpt>
      <trkpt lat="47.27686" lon="-1.53568">
        <ele>72</ele>
        <time>2022-04-10T08:54:50Z</time>
      </trkpt>
      <trkpt lat="47.27687" lon="-1.53567">
        <ele>72</ele>
        <time>2022-04-10T08:54:51Z</time>
      </trkpt>
      <trkpt lat="47.27688" lon="-1.53566">
        <ele>73</ele>
        <time>2022-04-10T08:54:52Z</time>
      </trkpt>
      <trkpt lat="47.27689" lon="-1.53565">
        <ele>73</ele>
        <time>2022-04-10T08:54:53Z</time>
      </trkpt>
      <trkpt lat="47.27689" lon="-1.53565">
        <ele>73</ele>
        <time>2022-04-10T08:54:54Z</time>
      </trkpt>
      <trkpt lat="47.27689" lon="-1.53565">
        <ele>73</ele>
        <time>2022-04-10T08:54:55Z</time>
      </trkpt>
      <trkpt lat="47.27691" lon="-1.53565">
        <ele>71</ele>
        <time>2022-04-10T08:54:56Z</time>
      </trkpt>
      <trkpt lat="47.27692" lon="-1.53564">
        <ele>71</ele>
        <time>2022-04-10T08:54:57Z</time>
      </trkpt>
      <trkpt lat="47.27693" lon="-1.53564">
        <ele>71</ele>
        <time>2022-04-10T08:54:58Z</time>
      </trkpt>
      <trkpt lat="47.27694" lon="-1.53563">
        <ele>71</ele>
        <time>2022-04-10T08:54:59Z</time>
      </trkpt>
      <trkpt lat="47.27694" lon="-1.53563">
        <ele>71</ele>
        <time>2022-04-10T08:55:00Z</time>
      </trkpt>
      <trkpt lat="47.27694" lon="-1.53563">
        <ele>71</ele>
        <time>2022-04-10T08:55:01Z</time>
      </trkpt>
      <trkpt lat="47.27697" lon="-1.53564">
        <ele>68</ele>
        <time>2022-04-10T08:55:02Z</time>
      </trkpt>
      <trkpt lat="47.27696" lon="-1.53564">
        <ele>68</ele>
        <time>2022-04-10T08:55:03Z</time>
      </trkpt>
      <trkpt lat="47.27696" lon="-1.53564">
        <ele>68</ele>
        <time>2022-04-10T08:55:03Z</time>
      </trkpt>
      <trkpt lat="47.27707" lon="-1.53563">
        <ele>58</ele>
        <time>2022-04-10T08:56:20Z</time>
      </trkpt>
      <trkpt lat="47.27707" lon="-1.53563">
        <ele>58</ele>
        <time>2022-04-10T08:56:21Z</time>
      </trkpt>
      <trkpt lat="47.27707" lon="-1.53563">
        <ele>58</ele>
        <time>2022-04-10T08:56:22Z</time>
      </trkpt>
      <trkpt lat="47.27708" lon="-1.53564">
        <ele>58</ele>
        <time>2022-04-10T08:56:23Z</time>
      </trkpt>
      <trkpt lat="47.27709" lon="-1.53564">
        <ele>58</ele>
        <time>2022-04-10T08:56:24Z</time>
      </trkpt>
      <trkpt lat="47.27709" lon="-1.53565">
        <ele>59</ele>
        <time>2022-04-10T08:56:25Z</time>
      </trkpt>
      <trkpt lat="47.2771" lon="-1.53565">
        <ele>59</ele>
        <time>2022-04-10T08:56:26Z</time>
      </trkpt>
      <trkpt lat="47.27711" lon="-1.53565">
        <ele>59</ele>
        <time>2022-04-10T08:56:27Z</time>
      </trkpt>
      <trkpt lat="47.27711" lon="-1.53565">
        <ele>59</ele>
        <time>2022-04-10T08:56:28Z</time>
      </trkpt>
      <trkpt lat="47.27711" lon="-1.53565">
        <ele>59</ele>
        <time>2022-04-10T08:56:29Z</time>
      </trkpt>
      <trkpt lat="47.27712" lon="-1.53565">
        <ele>59</ele>
        <time>2022-04-10T08:56:30Z</time>
      </trkpt>
      <trkpt lat="47.27712" lon="-1.53565">
        <ele>59</ele>
        <time>2022-04-10T08:56:31Z</time>
      </trkpt>
      <trkpt lat="47.27712" lon="-1.53565">
        <ele>59</ele>
        <time>2022-04-10T08:56:32Z</time>
      </trkpt>
      <trkpt lat="47.27713" lon="-1.53564">
        <ele>60</ele>
        <time>2022-04-10T08:56:33Z</time>
      </trkpt>
      <trkpt lat="47.27713" lon="-1.53563">
        <ele>60</ele>
        <time>2022-04-10T08:56:34Z</time>
      </trkpt>
      <trkpt lat="47.27715" lon="-1.53563">
        <ele>61</ele>
        <time>2022-04-10T08:56:35Z</time>
      </trkpt>
      <trkpt lat="47.27715" lon="-1.53563">
        <ele>62</ele>
        <time>2022-04-10T08:56:36Z</time>
      </trkpt>
      <trkpt lat="47.27715" lon="-1.53563">
        <ele>62</ele>
        <time>2022-04-10T08:56:37Z</time>
      </trkpt>
      <trkpt lat="47.27715" lon="-1.53563">
        <ele>62</ele>
        <time>2022-04-10T08:56:38Z</time>
      </trkpt>
      <trkpt lat="47.27717" lon="-1.53562">
        <ele>64</ele>
        <time>2022-04-10T08:56:39Z</time>
      </trkpt>
      <trkpt lat="47.27718" lon="-1.53562">
        <ele>64</ele>
        <time>2022-04-10T08:56:40Z</time>
      </trkpt>
      <trkpt lat="47.27718" lon="-1.53563">
        <ele>64</ele>
        <time>2022-04-10T08:56:41Z</time>
      </trkpt>
      <trkpt lat="47.27719" lon="-1.53564">
        <ele>64</ele>
        <time>2022-04-10T08:56:42Z</time>
      </trkpt>
      <trkpt lat="47.27719" lon="-1.53564">
        <ele>64</ele>
        <time>2022-04-10T08:56:43Z</time>
      </trkpt>
      <trkpt lat="47.27719" lon="-1.53564">
        <ele>64</ele>
        <time>2022-04-10T08:56:44Z</time>
      </trkpt>
      <trkpt lat="47.27721" lon="-1.53566">
        <ele>65</ele>
        <time>2022-04-10T08:56:45Z</time>
      </trkpt>
      <trkpt lat="47.27721" lon="-1.53566">
        <ele>65</ele>
        <time>2022-04-10T08:56:46Z</time>
      </trkpt>
      <trkpt lat="47.27721" lon="-1.53567">
        <ele>66</ele>
        <time>2022-04-10T08:56:47Z</time>
      </trkpt>
      <trkpt lat="47.27722" lon="-1.53568">
        <ele>66</ele>
        <time>2022-04-10T08:56:48Z</time>
      </trkpt>
      <trkpt lat="47.27723" lon="-1.53569">
        <ele>66</ele>
        <time>2022-04-10T08:56:49Z</time>
      </trkpt>
      <trkpt lat="47.27723" lon="-1.5357">
        <ele>67</ele>
        <time>2022-04-10T08:56:50Z</time>
      </trkpt>
      <trkpt lat="47.27724" lon="-1.53572">
        <ele>68</ele>
        <time>2022-04-10T08:56:51Z</time>
      </trkpt>
      <trkpt lat="47.27724" lon="-1.53572">
        <ele>68</ele>
        <time>2022-04-10T08:56:52Z</time>
      </trkpt>
      <trkpt lat="47.27725" lon="-1.53573">
        <ele>69</ele>
        <time>2022-04-10T08:56:53Z</time>
      </trkpt>
      <trkpt lat="47.27726" lon="-1.53574">
        <ele>70</ele>
        <time>2022-04-10T08:56:54Z</time>
      </trkpt>
      <trkpt lat="47.27726" lon="-1.53575">
        <ele>70</ele>
        <time>2022-04-10T08:56:55Z</time>
      </trkpt>
      <trkpt lat="47.27726" lon="-1.53576">
        <ele>70</ele>
        <time>2022-04-10T08:56:56Z</time>
      </trkpt>
      <trkpt lat="47.27727" lon="-1.53578">
        <ele>71</ele>
        <time>2022-04-10T08:56:57Z</time>
      </trkpt>
      <trkpt lat="47.27727" lon="-1.53579">
        <ele>72</ele>
        <time>2022-04-10T08:56:58Z</time>
      </trkpt>
      <trkpt lat="47.27727" lon="-1.5358">
        <ele>72</ele>
        <time>2022-04-10T08:56:59Z</time>
      </trkpt>
      <trkpt lat="47.27727" lon="-1.5358">
        <ele>72</ele>
        <time>2022-04-10T08:57:00Z</time>
      </trkpt>
      <trkpt lat="47.27728" lon="-1.53582">
        <ele>73</ele>
        <time>2022-04-10T08:57:01Z</time>
      </trkpt>
      <trkpt lat="47.27728" lon="-1.53583">
        <ele>73</ele>
        <time>2022-04-10T08:57:02Z</time>
      </trkpt>
      <trkpt lat="47.27729" lon="-1.53585">
        <ele>73</ele>
        <time>2022-04-10T08:57:03Z</time>
      </trkpt>
      <trkpt lat="47.27729" lon="-1.53586">
        <ele>74</ele>
        <time>2022-04-10T08:57:04Z</time>
      </trkpt>
      <trkpt lat="47.27729" lon="-1.53588">
        <ele>75</ele>
        <time>2022-04-10T08:57:05Z</time>
      </trkpt>
      <trkpt lat="47.27729" lon="-1.5359">
        <ele>75</ele>
        <time>2022-04-10T08:57:06Z</time>
      </trkpt>
      <trkpt lat="47.27729" lon="-1.5359">
        <ele>75</ele>
        <time>2022-04-10T08:57:07Z</time>
      </trkpt>
      <trkpt lat="47.27729" lon="-1.5359">
        <ele>75</ele>
        <time>2022-04-10T08:57:08Z</time>
      </trkpt>
      <trkpt lat="47.27731" lon="-1.53594">
        <ele>74</ele>
        <time>2022-04-10T08:57:09Z</time>
      </trkpt>
      <trkpt lat="47.27731" lon="-1.53595">
        <ele>74</ele>
        <time>2022-04-10T08:57:10Z</time>
      </trkpt>
      <trkpt lat="47.27731" lon="-1.53596">
        <ele>75</ele>
        <time>2022-04-10T08:57:11Z</time>
      </trkpt>
      <trkpt lat="47.27731" lon="-1.53597">
        <ele>75</ele>
        <time>2022-04-10T08:57:12Z</time>
      </trkpt>
      <trkpt lat="47.27731" lon="-1.53597">
        <ele>75</ele>
        <time>2022-04-10T08:57:13Z</time>
      </trkpt>
      <trkpt lat="47.27731" lon="-1.53597">
        <ele>75</ele>
        <time>2022-04-10T08:57:14Z</time>
      </trkpt>
      <trkpt lat="47.27732" lon="-1.536">
        <ele>76</ele>
        <time>2022-04-10T08:57:15Z</time>
      </trkpt>
      <trkpt lat="47.27733" lon="-1.53601">
        <ele>77</ele>
        <time>2022-04-10T08:57:16Z</time>
      </trkpt>
      <trkpt lat="47.27733" lon="-1.53602">
        <ele>77</ele>
        <time>2022-04-10T08:57:17Z</time>
      </trkpt>
      <trkpt lat="47.27733" lon="-1.53603">
        <ele>77</ele>
        <time>2022-04-10T08:57:18Z</time>
      </trkpt>
      <trkpt lat="47.27733" lon="-1.53603">
        <ele>77</ele>
        <time>2022-04-10T08:57:19Z</time>
      </trkpt>
      <trkpt lat="47.27733" lon="-1.53603">
        <ele>77</ele>
        <time>2022-04-10T08:57:20Z</time>
      </trkpt>
      <trkpt lat="47.27734" lon="-1.53606">
        <ele>77</ele>
        <time>2022-04-10T08:57:21Z</time>
      </trkpt>
      <trkpt lat="47.27734" lon="-1.53607">
        <ele>78</ele>
        <time>2022-04-10T08:57:22Z</time>
      </trkpt>
      <trkpt lat="47.27734" lon="-1.53607">
        <ele>78</ele>
        <time>2022-04-10T08:57:23Z</time>
      </trkpt>
      <trkpt lat="47.27735" lon="-1.53608">
        <ele>78</ele>
        <time>2022-04-10T08:57:24Z</time>
      </trkpt>
      <trkpt lat="47.27735" lon="-1.53608">
        <ele>78</ele>
        <time>2022-04-10T08:57:25Z</time>
      </trkpt>
      <trkpt lat="47.27735" lon="-1.53608">
        <ele>78</ele>
        <time>2022-04-10T08:57:26Z</time>
      </trkpt>
      <trkpt lat="47.27736" lon="-1.53611">
        <ele>79</ele>
        <time>2022-04-10T08:57:27Z</time>
      </trkpt>
      <trkpt lat="47.27736" lon="-1.53613">
        <ele>79</ele>
        <time>2022-04-10T08:57:28Z</time>
      </trkpt>
      <trkpt lat="47.27736" lon="-1.53614">
        <ele>79</ele>
        <time>2022-04-10T08:57:29Z</time>
      </trkpt>
      <trkpt lat="47.27736" lon="-1.53616">
        <ele>79</ele>
        <time>2022-04-10T08:57:30Z</time>
      </trkpt>
      <trkpt lat="47.27736" lon="-1.53618">
        <ele>79</ele>
        <time>2022-04-10T08:57:31Z</time>
      </trkpt>
      <trkpt lat="47.27737" lon="-1.5362">
        <ele>79</ele>
        <time>2022-04-10T08:57:32Z</time>
      </trkpt>
      <trkpt lat="47.27737" lon="-1.53621">
        <ele>79</ele>
        <time>2022-04-10T08:57:33Z</time>
      </trkpt>
      <trkpt lat="47.27737" lon="-1.53624">
        <ele>79</ele>
        <time>2022-04-10T08:57:34Z</time>
      </trkpt>
      <trkpt lat="47.27737" lon="-1.53624">
        <ele>79</ele>
        <time>2022-04-10T08:57:35Z</time>
      </trkpt>
      <trkpt lat="47.27738" lon="-1.53626">
        <ele>79</ele>
        <time>2022-04-10T08:57:36Z</time>
      </trkpt>
      <trkpt lat="47.27738" lon="-1.53627">
        <ele>78</ele>
        <time>2022-04-10T08:57:37Z</time>
      </trkpt>
      <trkpt lat="47.27738" lon="-1.53628">
        <ele>78</ele>
        <time>2022-04-10T08:57:38Z</time>
      </trkpt>
      <trkpt lat="47.27738" lon="-1.53628">
        <ele>78</ele>
        <time>2022-04-10T08:57:39Z</time>
      </trkpt>
      <trkpt lat="47.27738" lon="-1.53628">
        <ele>78</ele>
        <time>2022-04-10T08:57:40Z</time>
      </trkpt>
      <trkpt lat="47.27739" lon="-1.5363">
        <ele>79</ele>
        <time>2022-04-10T08:57:41Z</time>
      </trkpt>
      <trkpt lat="47.2774" lon="-1.53631">
        <ele>79</ele>
        <time>2022-04-10T08:57:42Z</time>
      </trkpt>
      <trkpt lat="47.2774" lon="-1.53633">
        <ele>79</ele>
        <time>2022-04-10T08:57:43Z</time>
      </trkpt>
      <trkpt lat="47.27741" lon="-1.53634">
        <ele>79</ele>
        <time>2022-04-10T08:57:44Z</time>
      </trkpt>
      <trkpt lat="47.27741" lon="-1.53634">
        <ele>79</ele>
        <time>2022-04-10T08:57:45Z</time>
      </trkpt>
      <trkpt lat="47.27741" lon="-1.53634">
        <ele>79</ele>
        <time>2022-04-10T08:57:46Z</time>
      </trkpt>
      <trkpt lat="47.27742" lon="-1.53636">
        <ele>80</ele>
        <time>2022-04-10T08:57:47Z</time>
      </trkpt>
      <trkpt lat="47.27742" lon="-1.53638">
        <ele>79</ele>
        <time>2022-04-10T08:57:48Z</time>
      </trkpt>
      <trkpt lat="47.27743" lon="-1.53638">
        <ele>79</ele>
        <time>2022-04-10T08:57:49Z</time>
      </trkpt>
      <trkpt lat="47.27743" lon="-1.53639">
        <ele>79</ele>
        <time>2022-04-10T08:57:50Z</time>
      </trkpt>
      <trkpt lat="47.27743" lon="-1.53639">
        <ele>79</ele>
        <time>2022-04-10T08:57:51Z</time>
      </trkpt>
      <trkpt lat="47.27743" lon="-1.53639">
        <ele>79</ele>
        <time>2022-04-10T08:57:52Z</time>
      </trkpt>
      <trkpt lat="47.27745" lon="-1.53642">
        <ele>79</ele>
        <time>2022-04-10T08:57:53Z</time>
      </trkpt>
      <trkpt lat="47.27745" lon="-1.53643">
        <ele>79</ele>
        <time>2022-04-10T08:57:54Z</time>
      </trkpt>
      <trkpt lat="47.27747" lon="-1.53645">
        <ele>80</ele>
        <time>2022-04-10T08:57:55Z</time>
      </trkpt>
      <trkpt lat="47.27747" lon="-1.53646">
        <ele>80</ele>
        <time>2022-04-10T08:57:56Z</time>
      </trkpt>
      <trkpt lat="47.27749" lon="-1.53647">
        <ele>80</ele>
        <time>2022-04-10T08:57:57Z</time>
      </trkpt>
      <trkpt lat="47.27749" lon="-1.53649">
        <ele>81</ele>
        <time>2022-04-10T08:57:58Z</time>
      </trkpt>
      <trkpt lat="47.2775" lon="-1.5365">
        <ele>81</ele>
        <time>2022-04-10T08:57:59Z</time>
      </trkpt>
      <trkpt lat="47.2775" lon="-1.53651">
        <ele>81</ele>
        <time>2022-04-10T08:58:00Z</time>
      </trkpt>
      <trkpt lat="47.27751" lon="-1.53651">
        <ele>81</ele>
        <time>2022-04-10T08:58:01Z</time>
      </trkpt>
      <trkpt lat="47.27752" lon="-1.53653">
        <ele>81</ele>
        <time>2022-04-10T08:58:02Z</time>
      </trkpt>
      <trkpt lat="47.27752" lon="-1.53653">
        <ele>81</ele>
        <time>2022-04-10T08:58:03Z</time>
      </trkpt>
      <trkpt lat="47.27753" lon="-1.53655">
        <ele>80</ele>
        <time>2022-04-10T08:58:04Z</time>
      </trkpt>
      <trkpt lat="47.27755" lon="-1.53656">
        <ele>79</ele>
        <time>2022-04-10T08:58:05Z</time>
      </trkpt>
      <trkpt lat="47.27755" lon="-1.53657">
        <ele>79</ele>
        <time>2022-04-10T08:58:06Z</time>
      </trkpt>
      <trkpt lat="47.27756" lon="-1.53658">
        <ele>79</ele>
        <time>2022-04-10T08:58:07Z</time>
      </trkpt>
      <trkpt lat="47.27757" lon="-1.53659">
        <ele>79</ele>
        <time>2022-04-10T08:58:08Z</time>
      </trkpt>
      <trkpt lat="47.27757" lon="-1.53659">
        <ele>78</ele>
        <time>2022-04-10T08:58:09Z</time>
      </trkpt>
      <trkpt lat="47.27758" lon="-1.5366">
        <ele>78</ele>
        <time>2022-04-10T08:58:10Z</time>
      </trkpt>
      <trkpt lat="47.27759" lon="-1.53661">
        <ele>78</ele>
        <time>2022-04-10T08:58:11Z</time>
      </trkpt>
      <trkpt lat="47.2776" lon="-1.53662">
        <ele>79</ele>
        <time>2022-04-10T08:58:12Z</time>
      </trkpt>
      <trkpt lat="47.2776" lon="-1.53662">
        <ele>79</ele>
        <time>2022-04-10T08:58:13Z</time>
      </trkpt>
      <trkpt lat="47.2776" lon="-1.53662">
        <ele>79</ele>
        <time>2022-04-10T08:58:14Z</time>
      </trkpt>
      <trkpt lat="47.27762" lon="-1.53664">
        <ele>79</ele>
        <time>2022-04-10T08:58:15Z</time>
      </trkpt>
      <trkpt lat="47.27763" lon="-1.53665">
        <ele>79</ele>
        <time>2022-04-10T08:58:16Z</time>
      </trkpt>
      <trkpt lat="47.27764" lon="-1.53667">
        <ele>79</ele>
        <time>2022-04-10T08:58:17Z</time>
      </trkpt>
      <trkpt lat="47.27765" lon="-1.53668">
        <ele>79</ele>
        <time>2022-04-10T08:58:18Z</time>
      </trkpt>
      <trkpt lat="47.27766" lon="-1.53669">
        <ele>79</ele>
        <time>2022-04-10T08:58:19Z</time>
      </trkpt>
      <trkpt lat="47.27767" lon="-1.53671">
        <ele>79</ele>
        <time>2022-04-10T08:58:20Z</time>
      </trkpt>
      <trkpt lat="47.27768" lon="-1.53672">
        <ele>79</ele>
        <time>2022-04-10T08:58:21Z</time>
      </trkpt>
      <trkpt lat="47.27768" lon="-1.53672">
        <ele>79</ele>
        <time>2022-04-10T08:58:22Z</time>
      </trkpt>
      <trkpt lat="47.27768" lon="-1.53672">
        <ele>79</ele>
        <time>2022-04-10T08:58:23Z</time>
      </trkpt>
      <trkpt lat="47.27769" lon="-1.53674">
        <ele>79</ele>
        <time>2022-04-10T08:58:24Z</time>
      </trkpt>
      <trkpt lat="47.2777" lon="-1.53675">
        <ele>79</ele>
        <time>2022-04-10T08:58:25Z</time>
      </trkpt>
      <trkpt lat="47.2777" lon="-1.53676">
        <ele>78</ele>
        <time>2022-04-10T08:58:26Z</time>
      </trkpt>
      <trkpt lat="47.27771" lon="-1.53676">
        <ele>79</ele>
        <time>2022-04-10T08:58:27Z</time>
      </trkpt>
      <trkpt lat="47.27771" lon="-1.53676">
        <ele>79</ele>
        <time>2022-04-10T08:58:28Z</time>
      </trkpt>
      <trkpt lat="47.27771" lon="-1.53676">
        <ele>79</ele>
        <time>2022-04-10T08:58:29Z</time>
      </trkpt>
      <trkpt lat="47.27773" lon="-1.53678">
        <ele>79</ele>
        <time>2022-04-10T08:58:30Z</time>
      </trkpt>
      <trkpt lat="47.27774" lon="-1.53679">
        <ele>79</ele>
        <time>2022-04-10T08:58:31Z</time>
      </trkpt>
      <trkpt lat="47.27775" lon="-1.5368">
        <ele>79</ele>
        <time>2022-04-10T08:58:32Z</time>
      </trkpt>
      <trkpt lat="47.27776" lon="-1.53681">
        <ele>80</ele>
        <time>2022-04-10T08:58:33Z</time>
      </trkpt>
      <trkpt lat="47.27777" lon="-1.53682">
        <ele>80</ele>
        <time>2022-04-10T08:58:34Z</time>
      </trkpt>
      <trkpt lat="47.27778" lon="-1.53683">
        <ele>80</ele>
        <time>2022-04-10T08:58:35Z</time>
      </trkpt>
      <trkpt lat="47.27779" lon="-1.53684">
        <ele>80</ele>
        <time>2022-04-10T08:58:36Z</time>
      </trkpt>
      <trkpt lat="47.2778" lon="-1.53685">
        <ele>79</ele>
        <time>2022-04-10T08:58:37Z</time>
      </trkpt>
      <trkpt lat="47.27781" lon="-1.53686">
        <ele>79</ele>
        <time>2022-04-10T08:58:38Z</time>
      </trkpt>
      <trkpt lat="47.27781" lon="-1.53686">
        <ele>79</ele>
        <time>2022-04-10T08:58:39Z</time>
      </trkpt>
      <trkpt lat="47.27781" lon="-1.53686">
        <ele>79</ele>
        <time>2022-04-10T08:58:40Z</time>
      </trkpt>
      <trkpt lat="47.27784" lon="-1.53688">
        <ele>79</ele>
        <time>2022-04-10T08:58:41Z</time>
      </trkpt>
      <trkpt lat="47.27784" lon="-1.53688">
        <ele>78</ele>
        <time>2022-04-10T08:58:42Z</time>
      </trkpt>
      <trkpt lat="47.27786" lon="-1.53689">
        <ele>78</ele>
        <time>2022-04-10T08:58:43Z</time>
      </trkpt>
      <trkpt lat="47.27787" lon="-1.53689">
        <ele>78</ele>
        <time>2022-04-10T08:58:44Z</time>
      </trkpt>
      <trkpt lat="47.27787" lon="-1.53689">
        <ele>78</ele>
        <time>2022-04-10T08:58:45Z</time>
      </trkpt>
      <trkpt lat="47.27789" lon="-1.5369">
        <ele>78</ele>
        <time>2022-04-10T08:58:46Z</time>
      </trkpt>
      <trkpt lat="47.2779" lon="-1.5369">
        <ele>78</ele>
        <time>2022-04-10T08:58:47Z</time>
      </trkpt>
      <trkpt lat="47.27791" lon="-1.5369">
        <ele>78</ele>
        <time>2022-04-10T08:58:48Z</time>
      </trkpt>
      <trkpt lat="47.27792" lon="-1.53691">
        <ele>79</ele>
        <time>2022-04-10T08:58:49Z</time>
      </trkpt>
      <trkpt lat="47.27794" lon="-1.53692">
        <ele>78</ele>
        <time>2022-04-10T08:58:50Z</time>
      </trkpt>
      <trkpt lat="47.27795" lon="-1.53693">
        <ele>78</ele>
        <time>2022-04-10T08:58:51Z</time>
      </trkpt>
      <trkpt lat="47.27797" lon="-1.53693">
        <ele>78</ele>
        <time>2022-04-10T08:58:52Z</time>
      </trkpt>
      <trkpt lat="47.27798" lon="-1.53693">
        <ele>77</ele>
        <time>2022-04-10T08:58:53Z</time>
      </trkpt>
      <trkpt lat="47.27799" lon="-1.53693">
        <ele>77</ele>
        <time>2022-04-10T08:58:54Z</time>
      </trkpt>
      <trkpt lat="47.27801" lon="-1.53693">
        <ele>77</ele>
        <time>2022-04-10T08:58:55Z</time>
      </trkpt>
      <trkpt lat="47.27802" lon="-1.53694">
        <ele>76</ele>
        <time>2022-04-10T08:58:56Z</time>
      </trkpt>
      <trkpt lat="47.27804" lon="-1.53694">
        <ele>75</ele>
        <time>2022-04-10T08:58:57Z</time>
      </trkpt>
      <trkpt lat="47.27806" lon="-1.53694">
        <ele>75</ele>
        <time>2022-04-10T08:58:58Z</time>
      </trkpt>
      <trkpt lat="47.27807" lon="-1.53693">
        <ele>75</ele>
        <time>2022-04-10T08:58:59Z</time>
      </trkpt>
      <trkpt lat="47.27808" lon="-1.53694">
        <ele>75</ele>
        <time>2022-04-10T08:59:00Z</time>
      </trkpt>
      <trkpt lat="47.2781" lon="-1.53694">
        <ele>75</ele>
        <time>2022-04-10T08:59:01Z</time>
      </trkpt>
      <trkpt lat="47.27811" lon="-1.53695">
        <ele>74</ele>
        <time>2022-04-10T08:59:02Z</time>
      </trkpt>
      <trkpt lat="47.27813" lon="-1.53695">
        <ele>74</ele>
        <time>2022-04-10T08:59:03Z</time>
      </trkpt>
      <trkpt lat="47.27814" lon="-1.53695">
        <ele>73</ele>
        <time>2022-04-10T08:59:04Z</time>
      </trkpt>
      <trkpt lat="47.27815" lon="-1.53696">
        <ele>73</ele>
        <time>2022-04-10T08:59:05Z</time>
      </trkpt>
      <trkpt lat="47.27817" lon="-1.53696">
        <ele>73</ele>
        <time>2022-04-10T08:59:06Z</time>
      </trkpt>
      <trkpt lat="47.27818" lon="-1.53697">
        <ele>73</ele>
        <time>2022-04-10T08:59:07Z</time>
      </trkpt>
      <trkpt lat="47.27819" lon="-1.53698">
        <ele>73</ele>
        <time>2022-04-10T08:59:08Z</time>
      </trkpt>
      <trkpt lat="47.27821" lon="-1.53699">
        <ele>73</ele>
        <time>2022-04-10T08:59:09Z</time>
      </trkpt>
      <trkpt lat="47.27822" lon="-1.537">
        <ele>73</ele>
        <time>2022-04-10T08:59:10Z</time>
      </trkpt>
      <trkpt lat="47.27823" lon="-1.53701">
        <ele>73</ele>
        <time>2022-04-10T08:59:11Z</time>
      </trkpt>
      <trkpt lat="47.27824" lon="-1.53701">
        <ele>73</ele>
        <time>2022-04-10T08:59:12Z</time>
      </trkpt>
      <trkpt lat="47.27826" lon="-1.53702">
        <ele>72</ele>
        <time>2022-04-10T08:59:13Z</time>
      </trkpt>
      <trkpt lat="47.27827" lon="-1.53702">
        <ele>72</ele>
        <time>2022-04-10T08:59:14Z</time>
      </trkpt>
      <trkpt lat="47.27828" lon="-1.53703">
        <ele>73</ele>
        <time>2022-04-10T08:59:15Z</time>
      </trkpt>
      <trkpt lat="47.27829" lon="-1.53703">
        <ele>73</ele>
        <time>2022-04-10T08:59:16Z</time>
      </trkpt>
      <trkpt lat="47.2783" lon="-1.53703">
        <ele>73</ele>
        <time>2022-04-10T08:59:17Z</time>
      </trkpt>
      <trkpt lat="47.27831" lon="-1.53703">
        <ele>72</ele>
        <time>2022-04-10T08:59:18Z</time>
      </trkpt>
      <trkpt lat="47.27832" lon="-1.53703">
        <ele>71</ele>
        <time>2022-04-10T08:59:19Z</time>
      </trkpt>
      <trkpt lat="47.27834" lon="-1.53703">
        <ele>71</ele>
        <time>2022-04-10T08:59:20Z</time>
      </trkpt>
      <trkpt lat="47.27835" lon="-1.53704">
        <ele>71</ele>
        <time>2022-04-10T08:59:21Z</time>
      </trkpt>
      <trkpt lat="47.27836" lon="-1.53704">
        <ele>71</ele>
        <time>2022-04-10T08:59:22Z</time>
      </trkpt>
      <trkpt lat="47.27838" lon="-1.53704">
        <ele>71</ele>
        <time>2022-04-10T08:59:23Z</time>
      </trkpt>
      <trkpt lat="47.27839" lon="-1.53704">
        <ele>71</ele>
        <time>2022-04-10T08:59:24Z</time>
      </trkpt>
      <trkpt lat="47.2784" lon="-1.53704">
        <ele>71</ele>
        <time>2022-04-10T08:59:25Z</time>
      </trkpt>
      <trkpt lat="47.27841" lon="-1.53704">
        <ele>71</ele>
        <time>2022-04-10T08:59:26Z</time>
      </trkpt>
      <trkpt lat="47.27842" lon="-1.53704">
        <ele>71</ele>
        <time>2022-04-10T08:59:27Z</time>
      </trkpt>
      <trkpt lat="47.27844" lon="-1.53705">
        <ele>71</ele>
        <time>2022-04-10T08:59:28Z</time>
      </trkpt>
      <trkpt lat="47.27845" lon="-1.53705">
        <ele>72</ele>
        <time>2022-04-10T08:59:29Z</time>
      </trkpt>
      <trkpt lat="47.27846" lon="-1.53705">
        <ele>72</ele>
        <time>2022-04-10T08:59:30Z</time>
      </trkpt>
      <trkpt lat="47.27847" lon="-1.53705">
        <ele>71</ele>
        <time>2022-04-10T08:59:31Z</time>
      </trkpt>
      <trkpt lat="47.27848" lon="-1.53706">
        <ele>72</ele>
        <time>2022-04-10T08:59:32Z</time>
      </trkpt>
      <trkpt lat="47.27849" lon="-1.53706">
        <ele>71</ele>
        <time>2022-04-10T08:59:33Z</time>
      </trkpt>
      <trkpt lat="47.2785" lon="-1.53707">
        <ele>71</ele>
        <time>2022-04-10T08:59:34Z</time>
      </trkpt>
      <trkpt lat="47.27851" lon="-1.53706">
        <ele>71</ele>
        <time>2022-04-10T08:59:35Z</time>
      </trkpt>
      <trkpt lat="47.27852" lon="-1.53707">
        <ele>71</ele>
        <time>2022-04-10T08:59:36Z</time>
      </trkpt>
      <trkpt lat="47.27853" lon="-1.53707">
        <ele>70</ele>
        <time>2022-04-10T08:59:37Z</time>
      </trkpt>
      <trkpt lat="47.27854" lon="-1.53707">
        <ele>70</ele>
        <time>2022-04-10T08:59:38Z</time>
      </trkpt>
      <trkpt lat="47.27855" lon="-1.53707">
        <ele>70</ele>
        <time>2022-04-10T08:59:39Z</time>
      </trkpt>
      <trkpt lat="47.27856" lon="-1.53708">
        <ele>70</ele>
        <time>2022-04-10T08:59:40Z</time>
      </trkpt>
      <trkpt lat="47.27857" lon="-1.53708">
        <ele>69</ele>
        <time>2022-04-10T08:59:41Z</time>
      </trkpt>
      <trkpt lat="47.27858" lon="-1.53707">
        <ele>69</ele>
        <time>2022-04-10T08:59:42Z</time>
      </trkpt>
      <trkpt lat="47.2786" lon="-1.53707">
        <ele>70</ele>
        <time>2022-04-10T08:59:43Z</time>
      </trkpt>
      <trkpt lat="47.2786" lon="-1.53706">
        <ele>69</ele>
        <time>2022-04-10T08:59:44Z</time>
      </trkpt>
      <trkpt lat="47.27861" lon="-1.53706">
        <ele>69</ele>
        <time>2022-04-10T08:59:45Z</time>
      </trkpt>
      <trkpt lat="47.27862" lon="-1.53706">
        <ele>69</ele>
        <time>2022-04-10T08:59:46Z</time>
      </trkpt>
      <trkpt lat="47.27864" lon="-1.53706">
        <ele>69</ele>
        <time>2022-04-10T08:59:47Z</time>
      </trkpt>
      <trkpt lat="47.27865" lon="-1.53706">
        <ele>69</ele>
        <time>2022-04-10T08:59:48Z</time>
      </trkpt>
      <trkpt lat="47.27866" lon="-1.53706">
        <ele>70</ele>
        <time>2022-04-10T08:59:49Z</time>
      </trkpt>
      <trkpt lat="47.27868" lon="-1.53706">
        <ele>70</ele>
        <time>2022-04-10T08:59:50Z</time>
      </trkpt>
      <trkpt lat="47.27869" lon="-1.53706">
        <ele>70</ele>
        <time>2022-04-10T08:59:51Z</time>
      </trkpt>
      <trkpt lat="47.2787" lon="-1.53706">
        <ele>69</ele>
        <time>2022-04-10T08:59:52Z</time>
      </trkpt>
      <trkpt lat="47.27872" lon="-1.53707">
        <ele>69</ele>
        <time>2022-04-10T08:59:53Z</time>
      </trkpt>
      <trkpt lat="47.27873" lon="-1.53707">
        <ele>68</ele>
        <time>2022-04-10T08:59:54Z</time>
      </trkpt>
      <trkpt lat="47.27874" lon="-1.53707">
        <ele>68</ele>
        <time>2022-04-10T08:59:55Z</time>
      </trkpt>
      <trkpt lat="47.27875" lon="-1.53707">
        <ele>67</ele>
        <time>2022-04-10T08:59:56Z</time>
      </trkpt>
      <trkpt lat="47.27876" lon="-1.53707">
        <ele>68</ele>
        <time>2022-04-10T08:59:57Z</time>
      </trkpt>
      <trkpt lat="47.27877" lon="-1.53707">
        <ele>68</ele>
        <time>2022-04-10T08:59:58Z</time>
      </trkpt>
      <trkpt lat="47.27878" lon="-1.53707">
        <ele>67</ele>
        <time>2022-04-10T08:59:59Z</time>
      </trkpt>
      <trkpt lat="47.27879" lon="-1.53707">
        <ele>68</ele>
        <time>2022-04-10T09:00:00Z</time>
      </trkpt>
      <trkpt lat="47.27881" lon="-1.53708">
        <ele>68</ele>
        <time>2022-04-10T09:00:01Z</time>
      </trkpt>
      <trkpt lat="47.27882" lon="-1.53708">
        <ele>68</ele>
        <time>2022-04-10T09:00:02Z</time>
      </trkpt>
      <trkpt lat="47.27883" lon="-1.53708">
        <ele>68</ele>
        <time>2022-04-10T09:00:03Z</time>
      </trkpt>
      <trkpt lat="47.27884" lon="-1.53708">
        <ele>68</ele>
        <time>2022-04-10T09:00:04Z</time>
      </trkpt>
      <trkpt lat="47.27885" lon="-1.53709">
        <ele>68</ele>
        <time>2022-04-10T09:00:05Z</time>
      </trkpt>
      <trkpt lat="47.27887" lon="-1.53708">
        <ele>67</ele>
        <time>2022-04-10T09:00:06Z</time>
      </trkpt>
      <trkpt lat="47.27888" lon="-1.53708">
        <ele>68</ele>
        <time>2022-04-10T09:00:07Z</time>
      </trkpt>
      <trkpt lat="47.27889" lon="-1.53708">
        <ele>68</ele>
        <time>2022-04-10T09:00:08Z</time>
      </trkpt>
      <trkpt lat="47.2789" lon="-1.53708">
        <ele>68</ele>
        <time>2022-04-10T09:00:09Z</time>
      </trkpt>
      <trkpt lat="47.27891" lon="-1.53708">
        <ele>68</ele>
        <time>2022-04-10T09:00:10Z</time>
      </trkpt>
      <trkpt lat="47.27892" lon="-1.53708">
        <ele>67</ele>
        <time>2022-04-10T09:00:11Z</time>
      </trkpt>
      <trkpt lat="47.27893" lon="-1.53708">
        <ele>67</ele>
        <time>2022-04-10T09:00:12Z</time>
      </trkpt>
      <trkpt lat="47.27894" lon="-1.53709">
        <ele>67</ele>
        <time>2022-04-10T09:00:13Z</time>
      </trkpt>
      <trkpt lat="47.27896" lon="-1.53709">
        <ele>68</ele>
        <time>2022-04-10T09:00:14Z</time>
      </trkpt>
      <trkpt lat="47.27897" lon="-1.53709">
        <ele>67</ele>
        <time>2022-04-10T09:00:15Z</time>
      </trkpt>
      <trkpt lat="47.27898" lon="-1.53709">
        <ele>68</ele>
        <time>2022-04-10T09:00:16Z</time>
      </trkpt>
      <trkpt lat="47.27899" lon="-1.53709">
        <ele>68</ele>
        <time>2022-04-10T09:00:17Z</time>
      </trkpt>
      <trkpt lat="47.279" lon="-1.53709">
        <ele>68</ele>
        <time>2022-04-10T09:00:18Z</time>
      </trkpt>
      <trkpt lat="47.27901" lon="-1.53709">
        <ele>68</ele>
        <time>2022-04-10T09:00:19Z</time>
      </trkpt>
      <trkpt lat="47.27902" lon="-1.53709">
        <ele>68</ele>
        <time>2022-04-10T09:00:20Z</time>
      </trkpt>
      <trkpt lat="47.27903" lon="-1.53709">
        <ele>68</ele>
        <time>2022-04-10T09:00:21Z</time>
      </trkpt>
      <trkpt lat="47.27904" lon="-1.53709">
        <ele>69</ele>
        <time>2022-04-10T09:00:22Z</time>
      </trkpt>
      <trkpt lat="47.27905" lon="-1.53709">
        <ele>69</ele>
        <time>2022-04-10T09:00:23Z</time>
      </trkpt>
      <trkpt lat="47.27906" lon="-1.53709">
        <ele>70</ele>
        <time>2022-04-10T09:00:24Z</time>
      </trkpt>
      <trkpt lat="47.27908" lon="-1.53709">
        <ele>70</ele>
        <time>2022-04-10T09:00:25Z</time>
      </trkpt>
      <trkpt lat="47.27909" lon="-1.53709">
        <ele>70</ele>
        <time>2022-04-10T09:00:26Z</time>
      </trkpt>
      <trkpt lat="47.2791" lon="-1.53709">
        <ele>71</ele>
        <time>2022-04-10T09:00:27Z</time>
      </trkpt>
      <trkpt lat="47.2791" lon="-1.53708">
        <ele>71</ele>
        <time>2022-04-10T09:00:28Z</time>
      </trkpt>
      <trkpt lat="47.27911" lon="-1.53709">
        <ele>71</ele>
        <time>2022-04-10T09:00:29Z</time>
      </trkpt>
      <trkpt lat="47.27913" lon="-1.53709">
        <ele>71</ele>
        <time>2022-04-10T09:00:30Z</time>
      </trkpt>
      <trkpt lat="47.27914" lon="-1.53709">
        <ele>71</ele>
        <time>2022-04-10T09:00:31Z</time>
      </trkpt>
      <trkpt lat="47.27915" lon="-1.5371">
        <ele>72</ele>
        <time>2022-04-10T09:00:32Z</time>
      </trkpt>
      <trkpt lat="47.27917" lon="-1.53711">
        <ele>72</ele>
        <time>2022-04-10T09:00:33Z</time>
      </trkpt>
      <trkpt lat="47.27918" lon="-1.53711">
        <ele>72</ele>
        <time>2022-04-10T09:00:34Z</time>
      </trkpt>
      <trkpt lat="47.27919" lon="-1.53711">
        <ele>72</ele>
        <time>2022-04-10T09:00:35Z</time>
      </trkpt>
      <trkpt lat="47.2792" lon="-1.53711">
        <ele>72</ele>
        <time>2022-04-10T09:00:36Z</time>
      </trkpt>
      <trkpt lat="47.27921" lon="-1.53712">
        <ele>72</ele>
        <time>2022-04-10T09:00:37Z</time>
      </trkpt>
      <trkpt lat="47.27922" lon="-1.53712">
        <ele>72</ele>
        <time>2022-04-10T09:00:38Z</time>
      </trkpt>
      <trkpt lat="47.27923" lon="-1.53712">
        <ele>72</ele>
        <time>2022-04-10T09:00:39Z</time>
      </trkpt>
      <trkpt lat="47.27924" lon="-1.53712">
        <ele>73</ele>
        <time>2022-04-10T09:00:40Z</time>
      </trkpt>
      <trkpt lat="47.27925" lon="-1.53712">
        <ele>73</ele>
        <time>2022-04-10T09:00:41Z</time>
      </trkpt>
      <trkpt lat="47.27926" lon="-1.53712">
        <ele>73</ele>
        <time>2022-04-10T09:00:42Z</time>
      </trkpt>
      <trkpt lat="47.27927" lon="-1.53713">
        <ele>73</ele>
        <time>2022-04-10T09:00:43Z</time>
      </trkpt>
      <trkpt lat="47.27928" lon="-1.53714">
        <ele>73</ele>
        <time>2022-04-10T09:00:44Z</time>
      </trkpt>
      <trkpt lat="47.27929" lon="-1.53714">
        <ele>73</ele>
        <time>2022-04-10T09:00:45Z</time>
      </trkpt>
      <trkpt lat="47.27929" lon="-1.53714">
        <ele>74</ele>
        <time>2022-04-10T09:00:46Z</time>
      </trkpt>
      <trkpt lat="47.2793" lon="-1.53714">
        <ele>74</ele>
        <time>2022-04-10T09:00:47Z</time>
      </trkpt>
      <trkpt lat="47.27931" lon="-1.53714">
        <ele>74</ele>
        <time>2022-04-10T09:00:48Z</time>
      </trkpt>
      <trkpt lat="47.27931" lon="-1.53714">
        <ele>74</ele>
        <time>2022-04-10T09:00:49Z</time>
      </trkpt>
      <trkpt lat="47.27932" lon="-1.53714">
        <ele>74</ele>
        <time>2022-04-10T09:00:50Z</time>
      </trkpt>
      <trkpt lat="47.27933" lon="-1.53713">
        <ele>74</ele>
        <time>2022-04-10T09:00:51Z</time>
      </trkpt>
      <trkpt lat="47.27934" lon="-1.53713">
        <ele>74</ele>
        <time>2022-04-10T09:00:52Z</time>
      </trkpt>
      <trkpt lat="47.27935" lon="-1.53713">
        <ele>74</ele>
        <time>2022-04-10T09:00:53Z</time>
      </trkpt>
      <trkpt lat="47.27936" lon="-1.53712">
        <ele>74</ele>
        <time>2022-04-10T09:00:54Z</time>
      </trkpt>
      <trkpt lat="47.27937" lon="-1.53713">
        <ele>74</ele>
        <time>2022-04-10T09:00:55Z</time>
      </trkpt>
      <trkpt lat="47.27939" lon="-1.53712">
        <ele>73</ele>
        <time>2022-04-10T09:00:56Z</time>
      </trkpt>
      <trkpt lat="47.2794" lon="-1.53712">
        <ele>73</ele>
        <time>2022-04-10T09:00:57Z</time>
      </trkpt>
      <trkpt lat="47.27941" lon="-1.53712">
        <ele>72</ele>
        <time>2022-04-10T09:00:58Z</time>
      </trkpt>
      <trkpt lat="47.27942" lon="-1.53712">
        <ele>72</ele>
        <time>2022-04-10T09:00:59Z</time>
      </trkpt>
      <trkpt lat="47.27944" lon="-1.53711">
        <ele>72</ele>
        <time>2022-04-10T09:01:00Z</time>
      </trkpt>
      <trkpt lat="47.27945" lon="-1.53712">
        <ele>72</ele>
        <time>2022-04-10T09:01:01Z</time>
      </trkpt>
      <trkpt lat="47.27946" lon="-1.53713">
        <ele>72</ele>
        <time>2022-04-10T09:01:02Z</time>
      </trkpt>
      <trkpt lat="47.27947" lon="-1.53712">
        <ele>72</ele>
        <time>2022-04-10T09:01:03Z</time>
      </trkpt>
      <trkpt lat="47.27948" lon="-1.53712">
        <ele>71</ele>
        <time>2022-04-10T09:01:04Z</time>
      </trkpt>
      <trkpt lat="47.2795" lon="-1.53713">
        <ele>70</ele>
        <time>2022-04-10T09:01:05Z</time>
      </trkpt>
      <trkpt lat="47.27952" lon="-1.53713">
        <ele>69</ele>
        <time>2022-04-10T09:01:06Z</time>
      </trkpt>
      <trkpt lat="47.27953" lon="-1.53713">
        <ele>70</ele>
        <time>2022-04-10T09:01:07Z</time>
      </trkpt>
      <trkpt lat="47.27954" lon="-1.53712">
        <ele>70</ele>
        <time>2022-04-10T09:01:08Z</time>
      </trkpt>
      <trkpt lat="47.27955" lon="-1.53711">
        <ele>70</ele>
        <time>2022-04-10T09:01:09Z</time>
      </trkpt>
      <trkpt lat="47.27956" lon="-1.53711">
        <ele>70</ele>
        <time>2022-04-10T09:01:10Z</time>
      </trkpt>
      <trkpt lat="47.27957" lon="-1.5371">
        <ele>71</ele>
        <time>2022-04-10T09:01:11Z</time>
      </trkpt>
      <trkpt lat="47.27958" lon="-1.5371">
        <ele>71</ele>
        <time>2022-04-10T09:01:12Z</time>
      </trkpt>
      <trkpt lat="47.27959" lon="-1.53709">
        <ele>71</ele>
        <time>2022-04-10T09:01:13Z</time>
      </trkpt>
      <trkpt lat="47.2796" lon="-1.53709">
        <ele>71</ele>
        <time>2022-04-10T09:01:14Z</time>
      </trkpt>
      <trkpt lat="47.27961" lon="-1.53709">
        <ele>71</ele>
        <time>2022-04-10T09:01:15Z</time>
      </trkpt>
      <trkpt lat="47.27963" lon="-1.53709">
        <ele>71</ele>
        <time>2022-04-10T09:01:16Z</time>
      </trkpt>
      <trkpt lat="47.27964" lon="-1.53709">
        <ele>71</ele>
        <time>2022-04-10T09:01:17Z</time>
      </trkpt>
      <trkpt lat="47.27965" lon="-1.53709">
        <ele>71</ele>
        <time>2022-04-10T09:01:18Z</time>
      </trkpt>
      <trkpt lat="47.27967" lon="-1.53708">
        <ele>72</ele>
        <time>2022-04-10T09:01:19Z</time>
      </trkpt>
      <trkpt lat="47.27968" lon="-1.53708">
        <ele>72</ele>
        <time>2022-04-10T09:01:20Z</time>
      </trkpt>
      <trkpt lat="47.27969" lon="-1.53708">
        <ele>72</ele>
        <time>2022-04-10T09:01:21Z</time>
      </trkpt>
      <trkpt lat="47.27971" lon="-1.53708">
        <ele>72</ele>
        <time>2022-04-10T09:01:22Z</time>
      </trkpt>
      <trkpt lat="47.27972" lon="-1.53707">
        <ele>72</ele>
        <time>2022-04-10T09:01:23Z</time>
      </trkpt>
      <trkpt lat="47.27972" lon="-1.53707">
        <ele>72</ele>
        <time>2022-04-10T09:01:24Z</time>
      </trkpt>
      <trkpt lat="47.27974" lon="-1.53707">
        <ele>72</ele>
        <time>2022-04-10T09:01:25Z</time>
      </trkpt>
      <trkpt lat="47.27975" lon="-1.53707">
        <ele>73</ele>
        <time>2022-04-10T09:01:26Z</time>
      </trkpt>
      <trkpt lat="47.27977" lon="-1.53707">
        <ele>72</ele>
        <time>2022-04-10T09:01:27Z</time>
      </trkpt>
      <trkpt lat="47.27977" lon="-1.53706">
        <ele>72</ele>
        <time>2022-04-10T09:01:28Z</time>
      </trkpt>
      <trkpt lat="47.27979" lon="-1.53706">
        <ele>72</ele>
        <time>2022-04-10T09:01:29Z</time>
      </trkpt>
      <trkpt lat="47.2798" lon="-1.53705">
        <ele>72</ele>
        <time>2022-04-10T09:01:30Z</time>
      </trkpt>
      <trkpt lat="47.2798" lon="-1.53705">
        <ele>72</ele>
        <time>2022-04-10T09:01:31Z</time>
      </trkpt>
      <trkpt lat="47.27982" lon="-1.53705">
        <ele>73</ele>
        <time>2022-04-10T09:01:32Z</time>
      </trkpt>
      <trkpt lat="47.27983" lon="-1.53704">
        <ele>73</ele>
        <time>2022-04-10T09:01:33Z</time>
      </trkpt>
      <trkpt lat="47.27984" lon="-1.53704">
        <ele>73</ele>
        <time>2022-04-10T09:01:34Z</time>
      </trkpt>
      <trkpt lat="47.27985" lon="-1.53704">
        <ele>73</ele>
        <time>2022-04-10T09:01:35Z</time>
      </trkpt>
      <trkpt lat="47.27987" lon="-1.53704">
        <ele>73</ele>
        <time>2022-04-10T09:01:36Z</time>
      </trkpt>
      <trkpt lat="47.27988" lon="-1.53704">
        <ele>74</ele>
        <time>2022-04-10T09:01:37Z</time>
      </trkpt>
      <trkpt lat="47.27988" lon="-1.53703">
        <ele>75</ele>
        <time>2022-04-10T09:01:38Z</time>
      </trkpt>
      <trkpt lat="47.2799" lon="-1.53703">
        <ele>74</ele>
        <time>2022-04-10T09:01:39Z</time>
      </trkpt>
      <trkpt lat="47.27991" lon="-1.53703">
        <ele>75</ele>
        <time>2022-04-10T09:01:40Z</time>
      </trkpt>
      <trkpt lat="47.27992" lon="-1.53703">
        <ele>75</ele>
        <time>2022-04-10T09:01:41Z</time>
      </trkpt>
      <trkpt lat="47.27993" lon="-1.53702">
        <ele>74</ele>
        <time>2022-04-10T09:01:42Z</time>
      </trkpt>
      <trkpt lat="47.27995" lon="-1.53702">
        <ele>74</ele>
        <time>2022-04-10T09:01:43Z</time>
      </trkpt>
      <trkpt lat="47.27996" lon="-1.53702">
        <ele>74</ele>
        <time>2022-04-10T09:01:44Z</time>
      </trkpt>
      <trkpt lat="47.27997" lon="-1.53702">
        <ele>74</ele>
        <time>2022-04-10T09:01:45Z</time>
      </trkpt>
      <trkpt lat="47.27998" lon="-1.53702">
        <ele>74</ele>
        <time>2022-04-10T09:01:46Z</time>
      </trkpt>
      <trkpt lat="47.28" lon="-1.53702">
        <ele>74</ele>
        <time>2022-04-10T09:01:47Z</time>
      </trkpt>
      <trkpt lat="47.28001" lon="-1.53702">
        <ele>74</ele>
        <time>2022-04-10T09:01:48Z</time>
      </trkpt>
      <trkpt lat="47.28003" lon="-1.53702">
        <ele>74</ele>
        <time>2022-04-10T09:01:49Z</time>
      </trkpt>
      <trkpt lat="47.28004" lon="-1.53701">
        <ele>74</ele>
        <time>2022-04-10T09:01:50Z</time>
      </trkpt>
      <trkpt lat="47.28005" lon="-1.53701">
        <ele>75</ele>
        <time>2022-04-10T09:01:51Z</time>
      </trkpt>
      <trkpt lat="47.28006" lon="-1.53701">
        <ele>75</ele>
        <time>2022-04-10T09:01:52Z</time>
      </trkpt>
      <trkpt lat="47.28007" lon="-1.53701">
        <ele>75</ele>
        <time>2022-04-10T09:01:53Z</time>
      </trkpt>
      <trkpt lat="47.28008" lon="-1.537">
        <ele>75</ele>
        <time>2022-04-10T09:01:54Z</time>
      </trkpt>
      <trkpt lat="47.28009" lon="-1.537">
        <ele>75</ele>
        <time>2022-04-10T09:01:55Z</time>
      </trkpt>
      <trkpt lat="47.2801" lon="-1.537">
        <ele>75</ele>
        <time>2022-04-10T09:01:56Z</time>
      </trkpt>
      <trkpt lat="47.28011" lon="-1.537">
        <ele>75</ele>
        <time>2022-04-10T09:01:57Z</time>
      </trkpt>
      <trkpt lat="47.28012" lon="-1.537">
        <ele>74</ele>
        <time>2022-04-10T09:01:58Z</time>
      </trkpt>
      <trkpt lat="47.28013" lon="-1.537">
        <ele>74</ele>
        <time>2022-04-10T09:01:59Z</time>
      </trkpt>
      <trkpt lat="47.28014" lon="-1.537">
        <ele>74</ele>
        <time>2022-04-10T09:02:00Z</time>
      </trkpt>
      <trkpt lat="47.28016" lon="-1.53699">
        <ele>74</ele>
        <time>2022-04-10T09:02:01Z</time>
      </trkpt>
      <trkpt lat="47.28016" lon="-1.53699">
        <ele>74</ele>
        <time>2022-04-10T09:02:02Z</time>
      </trkpt>
      <trkpt lat="47.28017" lon="-1.53699">
        <ele>74</ele>
        <time>2022-04-10T09:02:03Z</time>
      </trkpt>
      <trkpt lat="47.28019" lon="-1.53699">
        <ele>74</ele>
        <time>2022-04-10T09:02:04Z</time>
      </trkpt>
      <trkpt lat="47.2802" lon="-1.53699">
        <ele>74</ele>
        <time>2022-04-10T09:02:05Z</time>
      </trkpt>
      <trkpt lat="47.28021" lon="-1.53698">
        <ele>73</ele>
        <time>2022-04-10T09:02:06Z</time>
      </trkpt>
      <trkpt lat="47.28022" lon="-1.53698">
        <ele>73</ele>
        <time>2022-04-10T09:02:07Z</time>
      </trkpt>
      <trkpt lat="47.28023" lon="-1.53698">
        <ele>73</ele>
        <time>2022-04-10T09:02:08Z</time>
      </trkpt>
      <trkpt lat="47.28024" lon="-1.53697">
        <ele>73</ele>
        <time>2022-04-10T09:02:09Z</time>
      </trkpt>
      <trkpt lat="47.28025" lon="-1.53697">
        <ele>73</ele>
        <time>2022-04-10T09:02:10Z</time>
      </trkpt>
      <trkpt lat="47.28026" lon="-1.53697">
        <ele>73</ele>
        <time>2022-04-10T09:02:11Z</time>
      </trkpt>
      <trkpt lat="47.28027" lon="-1.53696">
        <ele>73</ele>
        <time>2022-04-10T09:02:12Z</time>
      </trkpt>
      <trkpt lat="47.28029" lon="-1.53695">
        <ele>74</ele>
        <time>2022-04-10T09:02:13Z</time>
      </trkpt>
      <trkpt lat="47.2803" lon="-1.53695">
        <ele>73</ele>
        <time>2022-04-10T09:02:14Z</time>
      </trkpt>
      <trkpt lat="47.2803" lon="-1.53695">
        <ele>74</ele>
        <time>2022-04-10T09:02:15Z</time>
      </trkpt>
      <trkpt lat="47.28031" lon="-1.53694">
        <ele>74</ele>
        <time>2022-04-10T09:02:16Z</time>
      </trkpt>
      <trkpt lat="47.28032" lon="-1.53694">
        <ele>74</ele>
        <time>2022-04-10T09:02:17Z</time>
      </trkpt>
      <trkpt lat="47.28033" lon="-1.53693">
        <ele>75</ele>
        <time>2022-04-10T09:02:18Z</time>
      </trkpt>
      <trkpt lat="47.28034" lon="-1.53693">
        <ele>75</ele>
        <time>2022-04-10T09:02:19Z</time>
      </trkpt>
      <trkpt lat="47.28035" lon="-1.53693">
        <ele>75</ele>
        <time>2022-04-10T09:02:20Z</time>
      </trkpt>
      <trkpt lat="47.28036" lon="-1.53693">
        <ele>75</ele>
        <time>2022-04-10T09:02:21Z</time>
      </trkpt>
      <trkpt lat="47.28037" lon="-1.53692">
        <ele>75</ele>
        <time>2022-04-10T09:02:22Z</time>
      </trkpt>
      <trkpt lat="47.28038" lon="-1.53692">
        <ele>75</ele>
        <time>2022-04-10T09:02:23Z</time>
      </trkpt>
      <trkpt lat="47.28039" lon="-1.53692">
        <ele>75</ele>
        <time>2022-04-10T09:02:24Z</time>
      </trkpt>
      <trkpt lat="47.2804" lon="-1.53692">
        <ele>75</ele>
        <time>2022-04-10T09:02:25Z</time>
      </trkpt>
      <trkpt lat="47.28041" lon="-1.53692">
        <ele>74</ele>
        <time>2022-04-10T09:02:26Z</time>
      </trkpt>
      <trkpt lat="47.28042" lon="-1.53692">
        <ele>74</ele>
        <time>2022-04-10T09:02:27Z</time>
      </trkpt>
      <trkpt lat="47.28043" lon="-1.53692">
        <ele>74</ele>
        <time>2022-04-10T09:02:28Z</time>
      </trkpt>
      <trkpt lat="47.28045" lon="-1.53692">
        <ele>75</ele>
        <time>2022-04-10T09:02:29Z</time>
      </trkpt>
      <trkpt lat="47.28046" lon="-1.53692">
        <ele>74</ele>
        <time>2022-04-10T09:02:30Z</time>
      </trkpt>
      <trkpt lat="47.28047" lon="-1.53692">
        <ele>74</ele>
        <time>2022-04-10T09:02:31Z</time>
      </trkpt>
      <trkpt lat="47.28048" lon="-1.53692">
        <ele>74</ele>
        <time>2022-04-10T09:02:32Z</time>
      </trkpt>
      <trkpt lat="47.28049" lon="-1.53692">
        <ele>74</ele>
        <time>2022-04-10T09:02:33Z</time>
      </trkpt>
      <trkpt lat="47.2805" lon="-1.53693">
        <ele>74</ele>
        <time>2022-04-10T09:02:34Z</time>
      </trkpt>
      <trkpt lat="47.28051" lon="-1.53693">
        <ele>74</ele>
        <time>2022-04-10T09:02:35Z</time>
      </trkpt>
      <trkpt lat="47.28052" lon="-1.53693">
        <ele>74</ele>
        <time>2022-04-10T09:02:36Z</time>
      </trkpt>
      <trkpt lat="47.28053" lon="-1.53693">
        <ele>74</ele>
        <time>2022-04-10T09:02:37Z</time>
      </trkpt>
      <trkpt lat="47.28054" lon="-1.53693">
        <ele>74</ele>
        <time>2022-04-10T09:02:38Z</time>
      </trkpt>
      <trkpt lat="47.28055" lon="-1.53694">
        <ele>74</ele>
        <time>2022-04-10T09:02:39Z</time>
      </trkpt>
      <trkpt lat="47.28056" lon="-1.53694">
        <ele>74</ele>
        <time>2022-04-10T09:02:40Z</time>
      </trkpt>
      <trkpt lat="47.28057" lon="-1.53694">
        <ele>74</ele>
        <time>2022-04-10T09:02:41Z</time>
      </trkpt>
      <trkpt lat="47.28058" lon="-1.53694">
        <ele>75</ele>
        <time>2022-04-10T09:02:42Z</time>
      </trkpt>
      <trkpt lat="47.28059" lon="-1.53694">
        <ele>75</ele>
        <time>2022-04-10T09:02:43Z</time>
      </trkpt>
      <trkpt lat="47.2806" lon="-1.53695">
        <ele>75</ele>
        <time>2022-04-10T09:02:44Z</time>
      </trkpt>
      <trkpt lat="47.28061" lon="-1.53695">
        <ele>75</ele>
        <time>2022-04-10T09:02:45Z</time>
      </trkpt>
      <trkpt lat="47.28062" lon="-1.53696">
        <ele>76</ele>
        <time>2022-04-10T09:02:46Z</time>
      </trkpt>
      <trkpt lat="47.28063" lon="-1.53696">
        <ele>76</ele>
        <time>2022-04-10T09:02:47Z</time>
      </trkpt>
      <trkpt lat="47.28064" lon="-1.53697">
        <ele>76</ele>
        <time>2022-04-10T09:02:48Z</time>
      </trkpt>
      <trkpt lat="47.28065" lon="-1.53698">
        <ele>76</ele>
        <time>2022-04-10T09:02:49Z</time>
      </trkpt>
      <trkpt lat="47.28066" lon="-1.53698">
        <ele>76</ele>
        <time>2022-04-10T09:02:50Z</time>
      </trkpt>
      <trkpt lat="47.28067" lon="-1.537">
        <ele>76</ele>
        <time>2022-04-10T09:02:51Z</time>
      </trkpt>
      <trkpt lat="47.28068" lon="-1.53701">
        <ele>76</ele>
        <time>2022-04-10T09:02:52Z</time>
      </trkpt>
      <trkpt lat="47.28069" lon="-1.53702">
        <ele>76</ele>
        <time>2022-04-10T09:02:53Z</time>
      </trkpt>
      <trkpt lat="47.28069" lon="-1.53703">
        <ele>76</ele>
        <time>2022-04-10T09:02:54Z</time>
      </trkpt>
      <trkpt lat="47.2807" lon="-1.53704">
        <ele>76</ele>
        <time>2022-04-10T09:02:55Z</time>
      </trkpt>
      <trkpt lat="47.28071" lon="-1.53705">
        <ele>76</ele>
        <time>2022-04-10T09:02:56Z</time>
      </trkpt>
      <trkpt lat="47.28072" lon="-1.53706">
        <ele>77</ele>
        <time>2022-04-10T09:02:57Z</time>
      </trkpt>
      <trkpt lat="47.28073" lon="-1.53706">
        <ele>77</ele>
        <time>2022-04-10T09:02:58Z</time>
      </trkpt>
      <trkpt lat="47.28074" lon="-1.53707">
        <ele>76</ele>
        <time>2022-04-10T09:02:59Z</time>
      </trkpt>
      <trkpt lat="47.28075" lon="-1.53707">
        <ele>76</ele>
        <time>2022-04-10T09:03:00Z</time>
      </trkpt>
      <trkpt lat="47.28076" lon="-1.53708">
        <ele>76</ele>
        <time>2022-04-10T09:03:01Z</time>
      </trkpt>
      <trkpt lat="47.28077" lon="-1.53709">
        <ele>75</ele>
        <time>2022-04-10T09:03:02Z</time>
      </trkpt>
      <trkpt lat="47.28078" lon="-1.5371">
        <ele>75</ele>
        <time>2022-04-10T09:03:03Z</time>
      </trkpt>
      <trkpt lat="47.28079" lon="-1.53711">
        <ele>75</ele>
        <time>2022-04-10T09:03:04Z</time>
      </trkpt>
      <trkpt lat="47.2808" lon="-1.53711">
        <ele>75</ele>
        <time>2022-04-10T09:03:05Z</time>
      </trkpt>
      <trkpt lat="47.2808" lon="-1.53712">
        <ele>75</ele>
        <time>2022-04-10T09:03:06Z</time>
      </trkpt>
      <trkpt lat="47.28082" lon="-1.53714">
        <ele>75</ele>
        <time>2022-04-10T09:03:07Z</time>
      </trkpt>
      <trkpt lat="47.28082" lon="-1.53715">
        <ele>75</ele>
        <time>2022-04-10T09:03:08Z</time>
      </trkpt>
      <trkpt lat="47.28083" lon="-1.53715">
        <ele>75</ele>
        <time>2022-04-10T09:03:09Z</time>
      </trkpt>
      <trkpt lat="47.28084" lon="-1.53716">
        <ele>75</ele>
        <time>2022-04-10T09:03:10Z</time>
      </trkpt>
      <trkpt lat="47.28085" lon="-1.53717">
        <ele>75</ele>
        <time>2022-04-10T09:03:11Z</time>
      </trkpt>
      <trkpt lat="47.28086" lon="-1.53718">
        <ele>76</ele>
        <time>2022-04-10T09:03:12Z</time>
      </trkpt>
      <trkpt lat="47.28087" lon="-1.53719">
        <ele>76</ele>
        <time>2022-04-10T09:03:13Z</time>
      </trkpt>
      <trkpt lat="47.28088" lon="-1.53719">
        <ele>75</ele>
        <time>2022-04-10T09:03:14Z</time>
      </trkpt>
      <trkpt lat="47.28089" lon="-1.5372">
        <ele>75</ele>
        <time>2022-04-10T09:03:15Z</time>
      </trkpt>
      <trkpt lat="47.2809" lon="-1.53722">
        <ele>75</ele>
        <time>2022-04-10T09:03:16Z</time>
      </trkpt>
      <trkpt lat="47.28091" lon="-1.53723">
        <ele>76</ele>
        <time>2022-04-10T09:03:17Z</time>
      </trkpt>
      <trkpt lat="47.28093" lon="-1.53724">
        <ele>75</ele>
        <time>2022-04-10T09:03:18Z</time>
      </trkpt>
      <trkpt lat="47.28093" lon="-1.53725">
        <ele>76</ele>
        <time>2022-04-10T09:03:19Z</time>
      </trkpt>
      <trkpt lat="47.28094" lon="-1.53725">
        <ele>76</ele>
        <time>2022-04-10T09:03:20Z</time>
      </trkpt>
      <trkpt lat="47.28095" lon="-1.53726">
        <ele>76</ele>
        <time>2022-04-10T09:03:21Z</time>
      </trkpt>
      <trkpt lat="47.28096" lon="-1.53727">
        <ele>76</ele>
        <time>2022-04-10T09:03:22Z</time>
      </trkpt>
      <trkpt lat="47.28097" lon="-1.53729">
        <ele>75</ele>
        <time>2022-04-10T09:03:23Z</time>
      </trkpt>
      <trkpt lat="47.28098" lon="-1.53729">
        <ele>76</ele>
        <time>2022-04-10T09:03:24Z</time>
      </trkpt>
      <trkpt lat="47.28099" lon="-1.5373">
        <ele>75</ele>
        <time>2022-04-10T09:03:25Z</time>
      </trkpt>
      <trkpt lat="47.281" lon="-1.53731">
        <ele>76</ele>
        <time>2022-04-10T09:03:26Z</time>
      </trkpt>
      <trkpt lat="47.28101" lon="-1.53732">
        <ele>75</ele>
        <time>2022-04-10T09:03:27Z</time>
      </trkpt>
      <trkpt lat="47.28103" lon="-1.53733">
        <ele>75</ele>
        <time>2022-04-10T09:03:28Z</time>
      </trkpt>
      <trkpt lat="47.28104" lon="-1.53735">
        <ele>75</ele>
        <time>2022-04-10T09:03:29Z</time>
      </trkpt>
      <trkpt lat="47.28104" lon="-1.53736">
        <ele>75</ele>
        <time>2022-04-10T09:03:30Z</time>
      </trkpt>
      <trkpt lat="47.28106" lon="-1.53737">
        <ele>75</ele>
        <time>2022-04-10T09:03:31Z</time>
      </trkpt>
      <trkpt lat="47.28107" lon="-1.53738">
        <ele>75</ele>
        <time>2022-04-10T09:03:32Z</time>
      </trkpt>
      <trkpt lat="47.28108" lon="-1.53739">
        <ele>75</ele>
        <time>2022-04-10T09:03:33Z</time>
      </trkpt>
      <trkpt lat="47.28108" lon="-1.5374">
        <ele>75</ele>
        <time>2022-04-10T09:03:34Z</time>
      </trkpt>
      <trkpt lat="47.28109" lon="-1.5374">
        <ele>75</ele>
        <time>2022-04-10T09:03:35Z</time>
      </trkpt>
      <trkpt lat="47.2811" lon="-1.53742">
        <ele>75</ele>
        <time>2022-04-10T09:03:36Z</time>
      </trkpt>
      <trkpt lat="47.28111" lon="-1.53743">
        <ele>75</ele>
        <time>2022-04-10T09:03:37Z</time>
      </trkpt>
      <trkpt lat="47.28112" lon="-1.53743">
        <ele>75</ele>
        <time>2022-04-10T09:03:38Z</time>
      </trkpt>
      <trkpt lat="47.28114" lon="-1.53744">
        <ele>75</ele>
        <time>2022-04-10T09:03:39Z</time>
      </trkpt>
      <trkpt lat="47.28115" lon="-1.53744">
        <ele>75</ele>
        <time>2022-04-10T09:03:40Z</time>
      </trkpt>
      <trkpt lat="47.28116" lon="-1.53745">
        <ele>75</ele>
        <time>2022-04-10T09:03:41Z</time>
      </trkpt>
      <trkpt lat="47.28117" lon="-1.53745">
        <ele>75</ele>
        <time>2022-04-10T09:03:42Z</time>
      </trkpt>
      <trkpt lat="47.28117" lon="-1.53746">
        <ele>75</ele>
        <time>2022-04-10T09:03:43Z</time>
      </trkpt>
      <trkpt lat="47.28118" lon="-1.53747">
        <ele>75</ele>
        <time>2022-04-10T09:03:44Z</time>
      </trkpt>
      <trkpt lat="47.28119" lon="-1.53748">
        <ele>75</ele>
        <time>2022-04-10T09:03:45Z</time>
      </trkpt>
      <trkpt lat="47.2812" lon="-1.53749">
        <ele>75</ele>
        <time>2022-04-10T09:03:46Z</time>
      </trkpt>
      <trkpt lat="47.2812" lon="-1.53749">
        <ele>75</ele>
        <time>2022-04-10T09:03:47Z</time>
      </trkpt>
      <trkpt lat="47.28121" lon="-1.5375">
        <ele>75</ele>
        <time>2022-04-10T09:03:48Z</time>
      </trkpt>
      <trkpt lat="47.28122" lon="-1.53751">
        <ele>75</ele>
        <time>2022-04-10T09:03:49Z</time>
      </trkpt>
      <trkpt lat="47.28123" lon="-1.53752">
        <ele>74</ele>
        <time>2022-04-10T09:03:50Z</time>
      </trkpt>
      <trkpt lat="47.28124" lon="-1.53753">
        <ele>74</ele>
        <time>2022-04-10T09:03:51Z</time>
      </trkpt>
      <trkpt lat="47.28124" lon="-1.53754">
        <ele>74</ele>
        <time>2022-04-10T09:03:52Z</time>
      </trkpt>
      <trkpt lat="47.28125" lon="-1.53754">
        <ele>75</ele>
        <time>2022-04-10T09:03:53Z</time>
      </trkpt>
      <trkpt lat="47.28126" lon="-1.53755">
        <ele>75</ele>
        <time>2022-04-10T09:03:54Z</time>
      </trkpt>
      <trkpt lat="47.28127" lon="-1.53755">
        <ele>76</ele>
        <time>2022-04-10T09:03:55Z</time>
      </trkpt>
      <trkpt lat="47.28127" lon="-1.53756">
        <ele>76</ele>
        <time>2022-04-10T09:03:56Z</time>
      </trkpt>
      <trkpt lat="47.28128" lon="-1.53756">
        <ele>76</ele>
        <time>2022-04-10T09:03:57Z</time>
      </trkpt>
      <trkpt lat="47.28129" lon="-1.53757">
        <ele>76</ele>
        <time>2022-04-10T09:03:58Z</time>
      </trkpt>
      <trkpt lat="47.2813" lon="-1.53758">
        <ele>77</ele>
        <time>2022-04-10T09:03:59Z</time>
      </trkpt>
      <trkpt lat="47.2813" lon="-1.53759">
        <ele>77</ele>
        <time>2022-04-10T09:04:00Z</time>
      </trkpt>
      <trkpt lat="47.28132" lon="-1.53759">
        <ele>77</ele>
        <time>2022-04-10T09:04:01Z</time>
      </trkpt>
      <trkpt lat="47.28133" lon="-1.5376">
        <ele>77</ele>
        <time>2022-04-10T09:04:02Z</time>
      </trkpt>
      <trkpt lat="47.28133" lon="-1.5376">
        <ele>77</ele>
        <time>2022-04-10T09:04:03Z</time>
      </trkpt>
      <trkpt lat="47.28134" lon="-1.53761">
        <ele>78</ele>
        <time>2022-04-10T09:04:04Z</time>
      </trkpt>
      <trkpt lat="47.28135" lon="-1.53763">
        <ele>78</ele>
        <time>2022-04-10T09:04:05Z</time>
      </trkpt>
      <trkpt lat="47.28136" lon="-1.53764">
        <ele>78</ele>
        <time>2022-04-10T09:04:06Z</time>
      </trkpt>
      <trkpt lat="47.28138" lon="-1.53764">
        <ele>78</ele>
        <time>2022-04-10T09:04:07Z</time>
      </trkpt>
      <trkpt lat="47.28139" lon="-1.53765">
        <ele>77</ele>
        <time>2022-04-10T09:04:08Z</time>
      </trkpt>
      <trkpt lat="47.2814" lon="-1.53765">
        <ele>77</ele>
        <time>2022-04-10T09:04:09Z</time>
      </trkpt>
      <trkpt lat="47.28141" lon="-1.53765">
        <ele>77</ele>
        <time>2022-04-10T09:04:10Z</time>
      </trkpt>
      <trkpt lat="47.28142" lon="-1.53765">
        <ele>77</ele>
        <time>2022-04-10T09:04:11Z</time>
      </trkpt>
      <trkpt lat="47.28142" lon="-1.53764">
        <ele>77</ele>
        <time>2022-04-10T09:04:12Z</time>
      </trkpt>
      <trkpt lat="47.28143" lon="-1.53764">
        <ele>77</ele>
        <time>2022-04-10T09:04:13Z</time>
      </trkpt>
      <trkpt lat="47.28143" lon="-1.53763">
        <ele>77</ele>
        <time>2022-04-10T09:04:14Z</time>
      </trkpt>
      <trkpt lat="47.28143" lon="-1.53763">
        <ele>76</ele>
        <time>2022-04-10T09:04:15Z</time>
      </trkpt>
      <trkpt lat="47.28144" lon="-1.53763">
        <ele>76</ele>
        <time>2022-04-10T09:04:16Z</time>
      </trkpt>
      <trkpt lat="47.28145" lon="-1.53763">
        <ele>76</ele>
        <time>2022-04-10T09:04:17Z</time>
      </trkpt>
      <trkpt lat="47.28146" lon="-1.53762">
        <ele>77</ele>
        <time>2022-04-10T09:04:18Z</time>
      </trkpt>
      <trkpt lat="47.28147" lon="-1.53762">
        <ele>77</ele>
        <time>2022-04-10T09:04:19Z</time>
      </trkpt>
      <trkpt lat="47.28148" lon="-1.53763">
        <ele>76</ele>
        <time>2022-04-10T09:04:20Z</time>
      </trkpt>
      <trkpt lat="47.28148" lon="-1.53763">
        <ele>76</ele>
        <time>2022-04-10T09:04:21Z</time>
      </trkpt>
      <trkpt lat="47.28149" lon="-1.53764">
        <ele>76</ele>
        <time>2022-04-10T09:04:22Z</time>
      </trkpt>
      <trkpt lat="47.28149" lon="-1.53765">
        <ele>77</ele>
        <time>2022-04-10T09:04:23Z</time>
      </trkpt>
      <trkpt lat="47.2815" lon="-1.53766">
        <ele>77</ele>
        <time>2022-04-10T09:04:24Z</time>
      </trkpt>
      <trkpt lat="47.2815" lon="-1.53767">
        <ele>77</ele>
        <time>2022-04-10T09:04:25Z</time>
      </trkpt>
      <trkpt lat="47.28149" lon="-1.53767">
        <ele>78</ele>
        <time>2022-04-10T09:04:26Z</time>
      </trkpt>
      <trkpt lat="47.28149" lon="-1.53767">
        <ele>78</ele>
        <time>2022-04-10T09:04:27Z</time>
      </trkpt>
      <trkpt lat="47.2815" lon="-1.53768">
        <ele>79</ele>
        <time>2022-04-10T09:04:28Z</time>
      </trkpt>
      <trkpt lat="47.2815" lon="-1.53769">
        <ele>79</ele>
        <time>2022-04-10T09:04:29Z</time>
      </trkpt>
      <trkpt lat="47.2815" lon="-1.5377">
        <ele>79</ele>
        <time>2022-04-10T09:04:30Z</time>
      </trkpt>
      <trkpt lat="47.2815" lon="-1.53771">
        <ele>79</ele>
        <time>2022-04-10T09:04:31Z</time>
      </trkpt>
      <trkpt lat="47.2815" lon="-1.53772">
        <ele>80</ele>
        <time>2022-04-10T09:04:32Z</time>
      </trkpt>
      <trkpt lat="47.2815" lon="-1.53773">
        <ele>80</ele>
        <time>2022-04-10T09:04:33Z</time>
      </trkpt>
      <trkpt lat="47.2815" lon="-1.53774">
        <ele>80</ele>
        <time>2022-04-10T09:04:34Z</time>
      </trkpt>
      <trkpt lat="47.2815" lon="-1.53774">
        <ele>80</ele>
        <time>2022-04-10T09:04:35Z</time>
      </trkpt>
      <trkpt lat="47.28151" lon="-1.53778">
        <ele>80</ele>
        <time>2022-04-10T09:04:36Z</time>
      </trkpt>
      <trkpt lat="47.28151" lon="-1.53779">
        <ele>81</ele>
        <time>2022-04-10T09:04:37Z</time>
      </trkpt>
      <trkpt lat="47.28152" lon="-1.5378">
        <ele>81</ele>
        <time>2022-04-10T09:04:38Z</time>
      </trkpt>
      <trkpt lat="47.28153" lon="-1.53782">
        <ele>81</ele>
        <time>2022-04-10T09:04:39Z</time>
      </trkpt>
      <trkpt lat="47.28153" lon="-1.53783">
        <ele>81</ele>
        <time>2022-04-10T09:04:40Z</time>
      </trkpt>
      <trkpt lat="47.28154" lon="-1.53784">
        <ele>81</ele>
        <time>2022-04-10T09:04:41Z</time>
      </trkpt>
      <trkpt lat="47.28154" lon="-1.53786">
        <ele>81</ele>
        <time>2022-04-10T09:04:42Z</time>
      </trkpt>
      <trkpt lat="47.28154" lon="-1.53786">
        <ele>81</ele>
        <time>2022-04-10T09:04:43Z</time>
      </trkpt>
      <trkpt lat="47.28154" lon="-1.53787">
        <ele>82</ele>
        <time>2022-04-10T09:04:44Z</time>
      </trkpt>
      <trkpt lat="47.28154" lon="-1.53787">
        <ele>82</ele>
        <time>2022-04-10T09:04:45Z</time>
      </trkpt>
      <trkpt lat="47.28155" lon="-1.5379">
        <ele>82</ele>
        <time>2022-04-10T09:04:46Z</time>
      </trkpt>
      <trkpt lat="47.28156" lon="-1.53791">
        <ele>82</ele>
        <time>2022-04-10T09:04:47Z</time>
      </trkpt>
      <trkpt lat="47.28156" lon="-1.53793">
        <ele>83</ele>
        <time>2022-04-10T09:04:48Z</time>
      </trkpt>
      <trkpt lat="47.28156" lon="-1.53794">
        <ele>83</ele>
        <time>2022-04-10T09:04:49Z</time>
      </trkpt>
      <trkpt lat="47.28157" lon="-1.53795">
        <ele>83</ele>
        <time>2022-04-10T09:04:50Z</time>
      </trkpt>
      <trkpt lat="47.28157" lon="-1.53796">
        <ele>83</ele>
        <time>2022-04-10T09:04:51Z</time>
      </trkpt>
      <trkpt lat="47.28158" lon="-1.53798">
        <ele>83</ele>
        <time>2022-04-10T09:04:52Z</time>
      </trkpt>
      <trkpt lat="47.28158" lon="-1.538">
        <ele>83</ele>
        <time>2022-04-10T09:04:53Z</time>
      </trkpt>
      <trkpt lat="47.28159" lon="-1.53801">
        <ele>83</ele>
        <time>2022-04-10T09:04:54Z</time>
      </trkpt>
      <trkpt lat="47.28159" lon="-1.53802">
        <ele>83</ele>
        <time>2022-04-10T09:04:55Z</time>
      </trkpt>
      <trkpt lat="47.28159" lon="-1.53803">
        <ele>83</ele>
        <time>2022-04-10T09:04:56Z</time>
      </trkpt>
      <trkpt lat="47.28159" lon="-1.53805">
        <ele>83</ele>
        <time>2022-04-10T09:04:57Z</time>
      </trkpt>
      <trkpt lat="47.2816" lon="-1.53807">
        <ele>83</ele>
        <time>2022-04-10T09:04:58Z</time>
      </trkpt>
      <trkpt lat="47.28161" lon="-1.53809">
        <ele>83</ele>
        <time>2022-04-10T09:04:59Z</time>
      </trkpt>
      <trkpt lat="47.28161" lon="-1.5381">
        <ele>84</ele>
        <time>2022-04-10T09:05:00Z</time>
      </trkpt>
      <trkpt lat="47.28161" lon="-1.53812">
        <ele>84</ele>
        <time>2022-04-10T09:05:01Z</time>
      </trkpt>
      <trkpt lat="47.28162" lon="-1.53813">
        <ele>84</ele>
        <time>2022-04-10T09:05:02Z</time>
      </trkpt>
      <trkpt lat="47.28162" lon="-1.53814">
        <ele>84</ele>
        <time>2022-04-10T09:05:03Z</time>
      </trkpt>
      <trkpt lat="47.28162" lon="-1.53816">
        <ele>84</ele>
        <time>2022-04-10T09:05:04Z</time>
      </trkpt>
      <trkpt lat="47.28162" lon="-1.53818">
        <ele>84</ele>
        <time>2022-04-10T09:05:05Z</time>
      </trkpt>
      <trkpt lat="47.28162" lon="-1.5382">
        <ele>84</ele>
        <time>2022-04-10T09:05:06Z</time>
      </trkpt>
      <trkpt lat="47.28162" lon="-1.53821">
        <ele>84</ele>
        <time>2022-04-10T09:05:07Z</time>
      </trkpt>
      <trkpt lat="47.28162" lon="-1.53821">
        <ele>84</ele>
        <time>2022-04-10T09:05:08Z</time>
      </trkpt>
      <trkpt lat="47.28162" lon="-1.53821">
        <ele>84</ele>
        <time>2022-04-10T09:05:09Z</time>
      </trkpt>
      <trkpt lat="47.28163" lon="-1.53825">
        <ele>84</ele>
        <time>2022-04-10T09:05:10Z</time>
      </trkpt>
      <trkpt lat="47.28164" lon="-1.53828">
        <ele>85</ele>
        <time>2022-04-10T09:05:11Z</time>
      </trkpt>
      <trkpt lat="47.28165" lon="-1.53829">
        <ele>84</ele>
        <time>2022-04-10T09:05:12Z</time>
      </trkpt>
      <trkpt lat="47.28165" lon="-1.53831">
        <ele>85</ele>
        <time>2022-04-10T09:05:13Z</time>
      </trkpt>
      <trkpt lat="47.28165" lon="-1.53831">
        <ele>85</ele>
        <time>2022-04-10T09:05:14Z</time>
      </trkpt>
      <trkpt lat="47.28165" lon="-1.53831">
        <ele>85</ele>
        <time>2022-04-10T09:05:15Z</time>
      </trkpt>
      <trkpt lat="47.28164" lon="-1.53834">
        <ele>85</ele>
        <time>2022-04-10T09:05:16Z</time>
      </trkpt>
      <trkpt lat="47.28164" lon="-1.53836">
        <ele>85</ele>
        <time>2022-04-10T09:05:17Z</time>
      </trkpt>
      <trkpt lat="47.28165" lon="-1.53838">
        <ele>85</ele>
        <time>2022-04-10T09:05:18Z</time>
      </trkpt>
      <trkpt lat="47.28165" lon="-1.5384">
        <ele>85</ele>
        <time>2022-04-10T09:05:19Z</time>
      </trkpt>
      <trkpt lat="47.28165" lon="-1.53843">
        <ele>85</ele>
        <time>2022-04-10T09:05:20Z</time>
      </trkpt>
      <trkpt lat="47.28165" lon="-1.53845">
        <ele>85</ele>
        <time>2022-04-10T09:05:21Z</time>
      </trkpt>
      <trkpt lat="47.28166" lon="-1.53847">
        <ele>84</ele>
        <time>2022-04-10T09:05:22Z</time>
      </trkpt>
      <trkpt lat="47.28167" lon="-1.53847">
        <ele>84</ele>
        <time>2022-04-10T09:05:23Z</time>
      </trkpt>
      <trkpt lat="47.28167" lon="-1.53848">
        <ele>85</ele>
        <time>2022-04-10T09:05:24Z</time>
      </trkpt>
      <trkpt lat="47.28167" lon="-1.53848">
        <ele>85</ele>
        <time>2022-04-10T09:05:25Z</time>
      </trkpt>
      <trkpt lat="47.28167" lon="-1.53848">
        <ele>85</ele>
        <time>2022-04-10T09:05:26Z</time>
      </trkpt>
      <trkpt lat="47.28168" lon="-1.5385">
        <ele>84</ele>
        <time>2022-04-10T09:05:27Z</time>
      </trkpt>
      <trkpt lat="47.28169" lon="-1.53851">
        <ele>84</ele>
        <time>2022-04-10T09:05:28Z</time>
      </trkpt>
      <trkpt lat="47.28169" lon="-1.53853">
        <ele>84</ele>
        <time>2022-04-10T09:05:29Z</time>
      </trkpt>
      <trkpt lat="47.28169" lon="-1.53855">
        <ele>84</ele>
        <time>2022-04-10T09:05:30Z</time>
      </trkpt>
      <trkpt lat="47.28169" lon="-1.53856">
        <ele>84</ele>
        <time>2022-04-10T09:05:31Z</time>
      </trkpt>
      <trkpt lat="47.2817" lon="-1.53858">
        <ele>84</ele>
        <time>2022-04-10T09:05:32Z</time>
      </trkpt>
      <trkpt lat="47.2817" lon="-1.53858">
        <ele>84</ele>
        <time>2022-04-10T09:05:33Z</time>
      </trkpt>
      <trkpt lat="47.2817" lon="-1.5386">
        <ele>84</ele>
        <time>2022-04-10T09:05:34Z</time>
      </trkpt>
      <trkpt lat="47.2817" lon="-1.53863">
        <ele>83</ele>
        <time>2022-04-10T09:05:35Z</time>
      </trkpt>
      <trkpt lat="47.28171" lon="-1.53866">
        <ele>83</ele>
        <time>2022-04-10T09:05:36Z</time>
      </trkpt>
      <trkpt lat="47.28172" lon="-1.53868">
        <ele>82</ele>
        <time>2022-04-10T09:05:37Z</time>
      </trkpt>
      <trkpt lat="47.28172" lon="-1.53869">
        <ele>82</ele>
        <time>2022-04-10T09:05:38Z</time>
      </trkpt>
      <trkpt lat="47.28173" lon="-1.53871">
        <ele>81</ele>
        <time>2022-04-10T09:05:39Z</time>
      </trkpt>
      <trkpt lat="47.28173" lon="-1.53872">
        <ele>82</ele>
        <time>2022-04-10T09:05:40Z</time>
      </trkpt>
      <trkpt lat="47.28173" lon="-1.53872">
        <ele>82</ele>
        <time>2022-04-10T09:05:41Z</time>
      </trkpt>
      <trkpt lat="47.28173" lon="-1.53872">
        <ele>82</ele>
        <time>2022-04-10T09:05:42Z</time>
      </trkpt>
      <trkpt lat="47.28175" lon="-1.53876">
        <ele>81</ele>
        <time>2022-04-10T09:05:43Z</time>
      </trkpt>
      <trkpt lat="47.28175" lon="-1.53878">
        <ele>81</ele>
        <time>2022-04-10T09:05:44Z</time>
      </trkpt>
      <trkpt lat="47.28176" lon="-1.53879">
        <ele>82</ele>
        <time>2022-04-10T09:05:45Z</time>
      </trkpt>
      <trkpt lat="47.28177" lon="-1.53882">
        <ele>82</ele>
        <time>2022-04-10T09:05:46Z</time>
      </trkpt>
      <trkpt lat="47.28177" lon="-1.53883">
        <ele>81</ele>
        <time>2022-04-10T09:05:47Z</time>
      </trkpt>
      <trkpt lat="47.28177" lon="-1.53885">
        <ele>81</ele>
        <time>2022-04-10T09:05:48Z</time>
      </trkpt>
      <trkpt lat="47.28178" lon="-1.53886">
        <ele>81</ele>
        <time>2022-04-10T09:05:49Z</time>
      </trkpt>
      <trkpt lat="47.28178" lon="-1.53888">
        <ele>81</ele>
        <time>2022-04-10T09:05:50Z</time>
      </trkpt>
      <trkpt lat="47.28179" lon="-1.5389">
        <ele>81</ele>
        <time>2022-04-10T09:05:51Z</time>
      </trkpt>
      <trkpt lat="47.28179" lon="-1.53892">
        <ele>81</ele>
        <time>2022-04-10T09:05:52Z</time>
      </trkpt>
      <trkpt lat="47.2818" lon="-1.53894">
        <ele>81</ele>
        <time>2022-04-10T09:05:53Z</time>
      </trkpt>
      <trkpt lat="47.2818" lon="-1.53896">
        <ele>81</ele>
        <time>2022-04-10T09:05:54Z</time>
      </trkpt>
      <trkpt lat="47.28181" lon="-1.53898">
        <ele>81</ele>
        <time>2022-04-10T09:05:55Z</time>
      </trkpt>
      <trkpt lat="47.28182" lon="-1.53898">
        <ele>81</ele>
        <time>2022-04-10T09:05:56Z</time>
      </trkpt>
      <trkpt lat="47.28182" lon="-1.539">
        <ele>81</ele>
        <time>2022-04-10T09:05:57Z</time>
      </trkpt>
      <trkpt lat="47.28182" lon="-1.53902">
        <ele>81</ele>
        <time>2022-04-10T09:05:58Z</time>
      </trkpt>
      <trkpt lat="47.28183" lon="-1.53903">
        <ele>82</ele>
        <time>2022-04-10T09:05:59Z</time>
      </trkpt>
      <trkpt lat="47.28183" lon="-1.53905">
        <ele>81</ele>
        <time>2022-04-10T09:06:00Z</time>
      </trkpt>
      <trkpt lat="47.28183" lon="-1.53907">
        <ele>82</ele>
        <time>2022-04-10T09:06:01Z</time>
      </trkpt>
      <trkpt lat="47.28183" lon="-1.53909">
        <ele>82</ele>
        <time>2022-04-10T09:06:02Z</time>
      </trkpt>
      <trkpt lat="47.28183" lon="-1.53911">
        <ele>83</ele>
        <time>2022-04-10T09:06:03Z</time>
      </trkpt>
      <trkpt lat="47.28183" lon="-1.53914">
        <ele>83</ele>
        <time>2022-04-10T09:06:04Z</time>
      </trkpt>
      <trkpt lat="47.28184" lon="-1.53916">
        <ele>83</ele>
        <time>2022-04-10T09:06:05Z</time>
      </trkpt>
      <trkpt lat="47.28184" lon="-1.53918">
        <ele>83</ele>
        <time>2022-04-10T09:06:06Z</time>
      </trkpt>
      <trkpt lat="47.28185" lon="-1.5392">
        <ele>83</ele>
        <time>2022-04-10T09:06:07Z</time>
      </trkpt>
      <trkpt lat="47.28186" lon="-1.53921">
        <ele>83</ele>
        <time>2022-04-10T09:06:08Z</time>
      </trkpt>
      <trkpt lat="47.28186" lon="-1.53923">
        <ele>83</ele>
        <time>2022-04-10T09:06:09Z</time>
      </trkpt>
      <trkpt lat="47.28187" lon="-1.53925">
        <ele>83</ele>
        <time>2022-04-10T09:06:10Z</time>
      </trkpt>
      <trkpt lat="47.28187" lon="-1.53926">
        <ele>83</ele>
        <time>2022-04-10T09:06:11Z</time>
      </trkpt>
      <trkpt lat="47.28188" lon="-1.53928">
        <ele>83</ele>
        <time>2022-04-10T09:06:12Z</time>
      </trkpt>
      <trkpt lat="47.28188" lon="-1.5393">
        <ele>82</ele>
        <time>2022-04-10T09:06:13Z</time>
      </trkpt>
      <trkpt lat="47.28189" lon="-1.53932">
        <ele>81</ele>
        <time>2022-04-10T09:06:14Z</time>
      </trkpt>
      <trkpt lat="47.2819" lon="-1.53933">
        <ele>81</ele>
        <time>2022-04-10T09:06:15Z</time>
      </trkpt>
      <trkpt lat="47.2819" lon="-1.53934">
        <ele>81</ele>
        <time>2022-04-10T09:06:16Z</time>
      </trkpt>
      <trkpt lat="47.2819" lon="-1.53936">
        <ele>81</ele>
        <time>2022-04-10T09:06:17Z</time>
      </trkpt>
      <trkpt lat="47.28191" lon="-1.53938">
        <ele>80</ele>
        <time>2022-04-10T09:06:18Z</time>
      </trkpt>
      <trkpt lat="47.28191" lon="-1.5394">
        <ele>80</ele>
        <time>2022-04-10T09:06:19Z</time>
      </trkpt>
      <trkpt lat="47.28191" lon="-1.53941">
        <ele>80</ele>
        <time>2022-04-10T09:06:20Z</time>
      </trkpt>
      <trkpt lat="47.28192" lon="-1.53942">
        <ele>79</ele>
        <time>2022-04-10T09:06:21Z</time>
      </trkpt>
      <trkpt lat="47.28192" lon="-1.53943">
        <ele>78</ele>
        <time>2022-04-10T09:06:22Z</time>
      </trkpt>
      <trkpt lat="47.28193" lon="-1.53944">
        <ele>78</ele>
        <time>2022-04-10T09:06:23Z</time>
      </trkpt>
      <trkpt lat="47.28193" lon="-1.53946">
        <ele>77</ele>
        <time>2022-04-10T09:06:24Z</time>
      </trkpt>
      <trkpt lat="47.28194" lon="-1.53948">
        <ele>76</ele>
        <time>2022-04-10T09:06:25Z</time>
      </trkpt>
      <trkpt lat="47.28194" lon="-1.53949">
        <ele>77</ele>
        <time>2022-04-10T09:06:26Z</time>
      </trkpt>
      <trkpt lat="47.28194" lon="-1.53951">
        <ele>77</ele>
        <time>2022-04-10T09:06:27Z</time>
      </trkpt>
      <trkpt lat="47.28194" lon="-1.53953">
        <ele>77</ele>
        <time>2022-04-10T09:06:28Z</time>
      </trkpt>
      <trkpt lat="47.28195" lon="-1.53954">
        <ele>78</ele>
        <time>2022-04-10T09:06:29Z</time>
      </trkpt>
      <trkpt lat="47.28196" lon="-1.53955">
        <ele>78</ele>
        <time>2022-04-10T09:06:30Z</time>
      </trkpt>
      <trkpt lat="47.28196" lon="-1.53957">
        <ele>78</ele>
        <time>2022-04-10T09:06:31Z</time>
      </trkpt>
      <trkpt lat="47.28197" lon="-1.53958">
        <ele>78</ele>
        <time>2022-04-10T09:06:32Z</time>
      </trkpt>
      <trkpt lat="47.28198" lon="-1.5396">
        <ele>78</ele>
        <time>2022-04-10T09:06:33Z</time>
      </trkpt>
      <trkpt lat="47.28198" lon="-1.5396">
        <ele>78</ele>
        <time>2022-04-10T09:06:34Z</time>
      </trkpt>
      <trkpt lat="47.28198" lon="-1.53961">
        <ele>78</ele>
        <time>2022-04-10T09:06:35Z</time>
      </trkpt>
      <trkpt lat="47.28198" lon="-1.53962">
        <ele>79</ele>
        <time>2022-04-10T09:06:36Z</time>
      </trkpt>
      <trkpt lat="47.28198" lon="-1.53963">
        <ele>79</ele>
        <time>2022-04-10T09:06:37Z</time>
      </trkpt>
      <trkpt lat="47.28198" lon="-1.53964">
        <ele>79</ele>
        <time>2022-04-10T09:06:38Z</time>
      </trkpt>
      <trkpt lat="47.28199" lon="-1.53965">
        <ele>79</ele>
        <time>2022-04-10T09:06:39Z</time>
      </trkpt>
      <trkpt lat="47.28198" lon="-1.53967">
        <ele>79</ele>
        <time>2022-04-10T09:06:40Z</time>
      </trkpt>
      <trkpt lat="47.28199" lon="-1.53968">
        <ele>80</ele>
        <time>2022-04-10T09:06:41Z</time>
      </trkpt>
      <trkpt lat="47.28199" lon="-1.5397">
        <ele>80</ele>
        <time>2022-04-10T09:06:42Z</time>
      </trkpt>
      <trkpt lat="47.28199" lon="-1.53971">
        <ele>80</ele>
        <time>2022-04-10T09:06:43Z</time>
      </trkpt>
      <trkpt lat="47.28199" lon="-1.53973">
        <ele>80</ele>
        <time>2022-04-10T09:06:44Z</time>
      </trkpt>
      <trkpt lat="47.28199" lon="-1.53974">
        <ele>81</ele>
        <time>2022-04-10T09:06:45Z</time>
      </trkpt>
      <trkpt lat="47.28199" lon="-1.53976">
        <ele>81</ele>
        <time>2022-04-10T09:06:46Z</time>
      </trkpt>
      <trkpt lat="47.282" lon="-1.53978">
        <ele>81</ele>
        <time>2022-04-10T09:06:47Z</time>
      </trkpt>
      <trkpt lat="47.282" lon="-1.53979">
        <ele>81</ele>
        <time>2022-04-10T09:06:48Z</time>
      </trkpt>
      <trkpt lat="47.282" lon="-1.53981">
        <ele>81</ele>
        <time>2022-04-10T09:06:49Z</time>
      </trkpt>
      <trkpt lat="47.282" lon="-1.53983">
        <ele>81</ele>
        <time>2022-04-10T09:06:50Z</time>
      </trkpt>
      <trkpt lat="47.282" lon="-1.53984">
        <ele>81</ele>
        <time>2022-04-10T09:06:51Z</time>
      </trkpt>
      <trkpt lat="47.282" lon="-1.53986">
        <ele>81</ele>
        <time>2022-04-10T09:06:52Z</time>
      </trkpt>
      <trkpt lat="47.282" lon="-1.53987">
        <ele>80</ele>
        <time>2022-04-10T09:06:53Z</time>
      </trkpt>
      <trkpt lat="47.282" lon="-1.53989">
        <ele>80</ele>
        <time>2022-04-10T09:06:54Z</time>
      </trkpt>
      <trkpt lat="47.28201" lon="-1.5399">
        <ele>80</ele>
        <time>2022-04-10T09:06:55Z</time>
      </trkpt>
      <trkpt lat="47.28201" lon="-1.53992">
        <ele>80</ele>
        <time>2022-04-10T09:06:56Z</time>
      </trkpt>
      <trkpt lat="47.28201" lon="-1.53994">
        <ele>79</ele>
        <time>2022-04-10T09:06:57Z</time>
      </trkpt>
      <trkpt lat="47.28201" lon="-1.53995">
        <ele>79</ele>
        <time>2022-04-10T09:06:58Z</time>
      </trkpt>
      <trkpt lat="47.28201" lon="-1.53996">
        <ele>79</ele>
        <time>2022-04-10T09:06:59Z</time>
      </trkpt>
      <trkpt lat="47.28202" lon="-1.53997">
        <ele>79</ele>
        <time>2022-04-10T09:07:00Z</time>
      </trkpt>
      <trkpt lat="47.28202" lon="-1.53999">
        <ele>79</ele>
        <time>2022-04-10T09:07:01Z</time>
      </trkpt>
      <trkpt lat="47.28202" lon="-1.53999">
        <ele>79</ele>
        <time>2022-04-10T09:07:02Z</time>
      </trkpt>
      <trkpt lat="47.28202" lon="-1.54001">
        <ele>79</ele>
        <time>2022-04-10T09:07:03Z</time>
      </trkpt>
      <trkpt lat="47.28202" lon="-1.54002">
        <ele>79</ele>
        <time>2022-04-10T09:07:04Z</time>
      </trkpt>
      <trkpt lat="47.28202" lon="-1.54005">
        <ele>79</ele>
        <time>2022-04-10T09:07:05Z</time>
      </trkpt>
      <trkpt lat="47.28202" lon="-1.54007">
        <ele>79</ele>
        <time>2022-04-10T09:07:06Z</time>
      </trkpt>
      <trkpt lat="47.28202" lon="-1.54007">
        <ele>79</ele>
        <time>2022-04-10T09:07:07Z</time>
      </trkpt>
      <trkpt lat="47.28202" lon="-1.54008">
        <ele>80</ele>
        <time>2022-04-10T09:07:08Z</time>
      </trkpt>
      <trkpt lat="47.28203" lon="-1.5401">
        <ele>80</ele>
        <time>2022-04-10T09:07:09Z</time>
      </trkpt>
      <trkpt lat="47.28203" lon="-1.54012">
        <ele>80</ele>
        <time>2022-04-10T09:07:10Z</time>
      </trkpt>
      <trkpt lat="47.28203" lon="-1.54013">
        <ele>80</ele>
        <time>2022-04-10T09:07:11Z</time>
      </trkpt>
      <trkpt lat="47.28204" lon="-1.54014">
        <ele>80</ele>
        <time>2022-04-10T09:07:12Z</time>
      </trkpt>
      <trkpt lat="47.28204" lon="-1.54016">
        <ele>80</ele>
        <time>2022-04-10T09:07:13Z</time>
      </trkpt>
      <trkpt lat="47.28204" lon="-1.54017">
        <ele>81</ele>
        <time>2022-04-10T09:07:14Z</time>
      </trkpt>
      <trkpt lat="47.28204" lon="-1.54018">
        <ele>81</ele>
        <time>2022-04-10T09:07:15Z</time>
      </trkpt>
      <trkpt lat="47.28204" lon="-1.5402">
        <ele>81</ele>
        <time>2022-04-10T09:07:16Z</time>
      </trkpt>
      <trkpt lat="47.28204" lon="-1.54021">
        <ele>81</ele>
        <time>2022-04-10T09:07:17Z</time>
      </trkpt>
      <trkpt lat="47.28204" lon="-1.54023">
        <ele>81</ele>
        <time>2022-04-10T09:07:18Z</time>
      </trkpt>
      <trkpt lat="47.28204" lon="-1.54024">
        <ele>81</ele>
        <time>2022-04-10T09:07:19Z</time>
      </trkpt>
      <trkpt lat="47.28204" lon="-1.54026">
        <ele>81</ele>
        <time>2022-04-10T09:07:20Z</time>
      </trkpt>
      <trkpt lat="47.28204" lon="-1.54027">
        <ele>81</ele>
        <time>2022-04-10T09:07:21Z</time>
      </trkpt>
      <trkpt lat="47.28204" lon="-1.54029">
        <ele>81</ele>
        <time>2022-04-10T09:07:22Z</time>
      </trkpt>
      <trkpt lat="47.28204" lon="-1.54031">
        <ele>82</ele>
        <time>2022-04-10T09:07:23Z</time>
      </trkpt>
      <trkpt lat="47.28204" lon="-1.54032">
        <ele>82</ele>
        <time>2022-04-10T09:07:24Z</time>
      </trkpt>
      <trkpt lat="47.28204" lon="-1.54033">
        <ele>82</ele>
        <time>2022-04-10T09:07:25Z</time>
      </trkpt>
      <trkpt lat="47.28204" lon="-1.54034">
        <ele>82</ele>
        <time>2022-04-10T09:07:26Z</time>
      </trkpt>
      <trkpt lat="47.28204" lon="-1.54035">
        <ele>82</ele>
        <time>2022-04-10T09:07:27Z</time>
      </trkpt>
      <trkpt lat="47.28204" lon="-1.54036">
        <ele>82</ele>
        <time>2022-04-10T09:07:28Z</time>
      </trkpt>
      <trkpt lat="47.28205" lon="-1.54038">
        <ele>82</ele>
        <time>2022-04-10T09:07:29Z</time>
      </trkpt>
      <trkpt lat="47.28204" lon="-1.5404">
        <ele>83</ele>
        <time>2022-04-10T09:07:30Z</time>
      </trkpt>
      <trkpt lat="47.28205" lon="-1.54041">
        <ele>83</ele>
        <time>2022-04-10T09:07:31Z</time>
      </trkpt>
      <trkpt lat="47.28205" lon="-1.54043">
        <ele>83</ele>
        <time>2022-04-10T09:07:32Z</time>
      </trkpt>
      <trkpt lat="47.28206" lon="-1.54044">
        <ele>83</ele>
        <time>2022-04-10T09:07:33Z</time>
      </trkpt>
      <trkpt lat="47.28206" lon="-1.54046">
        <ele>83</ele>
        <time>2022-04-10T09:07:34Z</time>
      </trkpt>
      <trkpt lat="47.28206" lon="-1.54048">
        <ele>84</ele>
        <time>2022-04-10T09:07:35Z</time>
      </trkpt>
      <trkpt lat="47.28206" lon="-1.5405">
        <ele>84</ele>
        <time>2022-04-10T09:07:36Z</time>
      </trkpt>
      <trkpt lat="47.28206" lon="-1.54051">
        <ele>84</ele>
        <time>2022-04-10T09:07:37Z</time>
      </trkpt>
      <trkpt lat="47.28206" lon="-1.54053">
        <ele>85</ele>
        <time>2022-04-10T09:07:38Z</time>
      </trkpt>
      <trkpt lat="47.28206" lon="-1.54055">
        <ele>86</ele>
        <time>2022-04-10T09:07:39Z</time>
      </trkpt>
      <trkpt lat="47.28206" lon="-1.54057">
        <ele>86</ele>
        <time>2022-04-10T09:07:40Z</time>
      </trkpt>
      <trkpt lat="47.28206" lon="-1.54058">
        <ele>86</ele>
        <time>2022-04-10T09:07:41Z</time>
      </trkpt>
      <trkpt lat="47.28206" lon="-1.54059">
        <ele>85</ele>
        <time>2022-04-10T09:07:42Z</time>
      </trkpt>
      <trkpt lat="47.28206" lon="-1.54061">
        <ele>85</ele>
        <time>2022-04-10T09:07:43Z</time>
      </trkpt>
      <trkpt lat="47.28206" lon="-1.54061">
        <ele>85</ele>
        <time>2022-04-10T09:07:44Z</time>
      </trkpt>
      <trkpt lat="47.28206" lon="-1.54061">
        <ele>85</ele>
        <time>2022-04-10T09:07:45Z</time>
      </trkpt>
      <trkpt lat="47.28206" lon="-1.54064">
        <ele>87</ele>
        <time>2022-04-10T09:07:46Z</time>
      </trkpt>
      <trkpt lat="47.28206" lon="-1.54065">
        <ele>88</ele>
        <time>2022-04-10T09:07:47Z</time>
      </trkpt>
      <trkpt lat="47.28206" lon="-1.54067">
        <ele>89</ele>
        <time>2022-04-10T09:07:48Z</time>
      </trkpt>
      <trkpt lat="47.28206" lon="-1.54068">
        <ele>89</ele>
        <time>2022-04-10T09:07:49Z</time>
      </trkpt>
      <trkpt lat="47.28206" lon="-1.5407">
        <ele>90</ele>
        <time>2022-04-10T09:07:50Z</time>
      </trkpt>
      <trkpt lat="47.28206" lon="-1.54071">
        <ele>90</ele>
        <time>2022-04-10T09:07:51Z</time>
      </trkpt>
      <trkpt lat="47.28207" lon="-1.54072">
        <ele>90</ele>
        <time>2022-04-10T09:07:52Z</time>
      </trkpt>
      <trkpt lat="47.28207" lon="-1.54073">
        <ele>90</ele>
        <time>2022-04-10T09:07:53Z</time>
      </trkpt>
      <trkpt lat="47.28208" lon="-1.54075">
        <ele>90</ele>
        <time>2022-04-10T09:07:54Z</time>
      </trkpt>
      <trkpt lat="47.28209" lon="-1.54077">
        <ele>90</ele>
        <time>2022-04-10T09:07:55Z</time>
      </trkpt>
      <trkpt lat="47.28209" lon="-1.54079">
        <ele>90</ele>
        <time>2022-04-10T09:07:56Z</time>
      </trkpt>
      <trkpt lat="47.28209" lon="-1.5408">
        <ele>90</ele>
        <time>2022-04-10T09:07:57Z</time>
      </trkpt>
      <trkpt lat="47.28209" lon="-1.54082">
        <ele>90</ele>
        <time>2022-04-10T09:07:58Z</time>
      </trkpt>
      <trkpt lat="47.28209" lon="-1.54085">
        <ele>90</ele>
        <time>2022-04-10T09:07:59Z</time>
      </trkpt>
      <trkpt lat="47.28209" lon="-1.54087">
        <ele>90</ele>
        <time>2022-04-10T09:08:00Z</time>
      </trkpt>
      <trkpt lat="47.28209" lon="-1.54087">
        <ele>90</ele>
        <time>2022-04-10T09:08:01Z</time>
      </trkpt>
      <trkpt lat="47.28209" lon="-1.54087">
        <ele>90</ele>
        <time>2022-04-10T09:08:02Z</time>
      </trkpt>
      <trkpt lat="47.28209" lon="-1.54091">
        <ele>89</ele>
        <time>2022-04-10T09:08:03Z</time>
      </trkpt>
      <trkpt lat="47.28209" lon="-1.54092">
        <ele>89</ele>
        <time>2022-04-10T09:08:04Z</time>
      </trkpt>
      <trkpt lat="47.2821" lon="-1.54095">
        <ele>89</ele>
        <time>2022-04-10T09:08:05Z</time>
      </trkpt>
      <trkpt lat="47.2821" lon="-1.54096">
        <ele>89</ele>
        <time>2022-04-10T09:08:06Z</time>
      </trkpt>
      <trkpt lat="47.2821" lon="-1.54096">
        <ele>89</ele>
        <time>2022-04-10T09:08:07Z</time>
      </trkpt>
      <trkpt lat="47.28209" lon="-1.54098">
        <ele>87</ele>
        <time>2022-04-10T09:08:08Z</time>
      </trkpt>
      <trkpt lat="47.28209" lon="-1.54098">
        <ele>87</ele>
        <time>2022-04-10T09:08:08Z</time>
      </trkpt>
      <trkpt lat="47.28209" lon="-1.54104">
        <ele>89</ele>
        <time>2022-04-10T09:08:14Z</time>
      </trkpt>
      <trkpt lat="47.28209" lon="-1.54104">
        <ele>89</ele>
        <time>2022-04-10T09:08:15Z</time>
      </trkpt>
      <trkpt lat="47.2821" lon="-1.5411">
        <ele>89</ele>
        <time>2022-04-10T09:08:16Z</time>
      </trkpt>
      <trkpt lat="47.2821" lon="-1.54112">
        <ele>89</ele>
        <time>2022-04-10T09:08:17Z</time>
      </trkpt>
      <trkpt lat="47.2821" lon="-1.54112">
        <ele>89</ele>
        <time>2022-04-10T09:08:18Z</time>
      </trkpt>
      <trkpt lat="47.2821" lon="-1.54112">
        <ele>89</ele>
        <time>2022-04-10T09:08:19Z</time>
      </trkpt>
      <trkpt lat="47.2821" lon="-1.54112">
        <ele>89</ele>
        <time>2022-04-10T09:08:20Z</time>
      </trkpt>
      <trkpt lat="47.2821" lon="-1.54112">
        <ele>89</ele>
        <time>2022-04-10T09:08:20Z</time>
      </trkpt>
      <trkpt lat="47.2821" lon="-1.54112">
        <ele>89</ele>
        <time>2022-04-10T09:08:20Z</time>
      </trkpt>
      <trkpt lat="47.28212" lon="-1.54126">
        <ele>84</ele>
        <time>2022-04-10T09:08:40Z</time>
      </trkpt>
      <trkpt lat="47.28212" lon="-1.54126">
        <ele>84</ele>
        <time>2022-04-10T09:08:41Z</time>
      </trkpt>
      <trkpt lat="47.28213" lon="-1.54128">
        <ele>84</ele>
        <time>2022-04-10T09:08:42Z</time>
      </trkpt>
      <trkpt lat="47.28213" lon="-1.54128">
        <ele>84</ele>
        <time>2022-04-10T09:08:43Z</time>
      </trkpt>
      <trkpt lat="47.28214" lon="-1.5413">
        <ele>84</ele>
        <time>2022-04-10T09:08:44Z</time>
      </trkpt>
      <trkpt lat="47.28215" lon="-1.54131">
        <ele>83</ele>
        <time>2022-04-10T09:08:45Z</time>
      </trkpt>
      <trkpt lat="47.28216" lon="-1.54132">
        <ele>84</ele>
        <time>2022-04-10T09:08:46Z</time>
      </trkpt>
      <trkpt lat="47.28217" lon="-1.54132">
        <ele>84</ele>
        <time>2022-04-10T09:08:47Z</time>
      </trkpt>
      <trkpt lat="47.28218" lon="-1.54133">
        <ele>84</ele>
        <time>2022-04-10T09:08:48Z</time>
      </trkpt>
      <trkpt lat="47.28219" lon="-1.54133">
        <ele>84</ele>
        <time>2022-04-10T09:08:49Z</time>
      </trkpt>
      <trkpt lat="47.28221" lon="-1.54134">
        <ele>83</ele>
        <time>2022-04-10T09:08:50Z</time>
      </trkpt>
      <trkpt lat="47.28222" lon="-1.54134">
        <ele>83</ele>
        <time>2022-04-10T09:08:51Z</time>
      </trkpt>
      <trkpt lat="47.28222" lon="-1.54135">
        <ele>82</ele>
        <time>2022-04-10T09:08:52Z</time>
      </trkpt>
      <trkpt lat="47.28223" lon="-1.54134">
        <ele>83</ele>
        <time>2022-04-10T09:08:53Z</time>
      </trkpt>
      <trkpt lat="47.28223" lon="-1.54133">
        <ele>82</ele>
        <time>2022-04-10T09:08:54Z</time>
      </trkpt>
      <trkpt lat="47.28223" lon="-1.54132">
        <ele>82</ele>
        <time>2022-04-10T09:08:55Z</time>
      </trkpt>
      <trkpt lat="47.28225" lon="-1.54132">
        <ele>82</ele>
        <time>2022-04-10T09:08:56Z</time>
      </trkpt>
      <trkpt lat="47.28225" lon="-1.54132">
        <ele>82</ele>
        <time>2022-04-10T09:08:57Z</time>
      </trkpt>
      <trkpt lat="47.28225" lon="-1.54132">
        <ele>82</ele>
        <time>2022-04-10T09:08:58Z</time>
      </trkpt>
      <trkpt lat="47.28227" lon="-1.54132">
        <ele>83</ele>
        <time>2022-04-10T09:08:59Z</time>
      </trkpt>
      <trkpt lat="47.28228" lon="-1.54131">
        <ele>84</ele>
        <time>2022-04-10T09:09:00Z</time>
      </trkpt>
      <trkpt lat="47.28229" lon="-1.5413">
        <ele>83</ele>
        <time>2022-04-10T09:09:01Z</time>
      </trkpt>
      <trkpt lat="47.28229" lon="-1.5413">
        <ele>83</ele>
        <time>2022-04-10T09:09:02Z</time>
      </trkpt>
      <trkpt lat="47.28229" lon="-1.5413">
        <ele>83</ele>
        <time>2022-04-10T09:09:03Z</time>
      </trkpt>
      <trkpt lat="47.28229" lon="-1.5413">
        <ele>83</ele>
        <time>2022-04-10T09:09:04Z</time>
      </trkpt>
      <trkpt lat="47.28232" lon="-1.54128">
        <ele>83</ele>
        <time>2022-04-10T09:09:05Z</time>
      </trkpt>
      <trkpt lat="47.28233" lon="-1.54127">
        <ele>82</ele>
        <time>2022-04-10T09:09:06Z</time>
      </trkpt>
      <trkpt lat="47.28234" lon="-1.54127">
        <ele>82</ele>
        <time>2022-04-10T09:09:07Z</time>
      </trkpt>
      <trkpt lat="47.28235" lon="-1.54125">
        <ele>82</ele>
        <time>2022-04-10T09:09:08Z</time>
      </trkpt>
      <trkpt lat="47.28236" lon="-1.54125">
        <ele>82</ele>
        <time>2022-04-10T09:09:09Z</time>
      </trkpt>
      <trkpt lat="47.28237" lon="-1.54124">
        <ele>82</ele>
        <time>2022-04-10T09:09:10Z</time>
      </trkpt>
      <trkpt lat="47.28237" lon="-1.54124">
        <ele>82</ele>
        <time>2022-04-10T09:09:11Z</time>
      </trkpt>
      <trkpt lat="47.28237" lon="-1.54124">
        <ele>82</ele>
        <time>2022-04-10T09:09:12Z</time>
      </trkpt>
      <trkpt lat="47.28238" lon="-1.54122">
        <ele>82</ele>
        <time>2022-04-10T09:09:13Z</time>
      </trkpt>
      <trkpt lat="47.28239" lon="-1.54121">
        <ele>82</ele>
        <time>2022-04-10T09:09:14Z</time>
      </trkpt>
      <trkpt lat="47.28239" lon="-1.54121">
        <ele>82</ele>
        <time>2022-04-10T09:09:15Z</time>
      </trkpt>
      <trkpt lat="47.28241" lon="-1.5412">
        <ele>82</ele>
        <time>2022-04-10T09:09:16Z</time>
      </trkpt>
      <trkpt lat="47.28241" lon="-1.54119">
        <ele>81</ele>
        <time>2022-04-10T09:09:17Z</time>
      </trkpt>
      <trkpt lat="47.28242" lon="-1.54118">
        <ele>81</ele>
        <time>2022-04-10T09:09:18Z</time>
      </trkpt>
      <trkpt lat="47.28243" lon="-1.54118">
        <ele>82</ele>
        <time>2022-04-10T09:09:19Z</time>
      </trkpt>
      <trkpt lat="47.28243" lon="-1.54118">
        <ele>82</ele>
        <time>2022-04-10T09:09:20Z</time>
      </trkpt>
      <trkpt lat="47.28243" lon="-1.54118">
        <ele>82</ele>
        <time>2022-04-10T09:09:21Z</time>
      </trkpt>
      <trkpt lat="47.28246" lon="-1.54118">
        <ele>81</ele>
        <time>2022-04-10T09:09:22Z</time>
      </trkpt>
      <trkpt lat="47.28248" lon="-1.54118">
        <ele>81</ele>
        <time>2022-04-10T09:09:23Z</time>
      </trkpt>
      <trkpt lat="47.28249" lon="-1.54117">
        <ele>82</ele>
        <time>2022-04-10T09:09:24Z</time>
      </trkpt>
      <trkpt lat="47.2825" lon="-1.54117">
        <ele>81</ele>
        <time>2022-04-10T09:09:25Z</time>
      </trkpt>
      <trkpt lat="47.28251" lon="-1.54115">
        <ele>81</ele>
        <time>2022-04-10T09:09:26Z</time>
      </trkpt>
      <trkpt lat="47.28252" lon="-1.54115">
        <ele>80</ele>
        <time>2022-04-10T09:09:27Z</time>
      </trkpt>
      <trkpt lat="47.28253" lon="-1.54114">
        <ele>80</ele>
        <time>2022-04-10T09:09:28Z</time>
      </trkpt>
      <trkpt lat="47.28253" lon="-1.54113">
        <ele>80</ele>
        <time>2022-04-10T09:09:29Z</time>
      </trkpt>
      <trkpt lat="47.28253" lon="-1.54113">
        <ele>80</ele>
        <time>2022-04-10T09:09:30Z</time>
      </trkpt>
      <trkpt lat="47.28253" lon="-1.54113">
        <ele>80</ele>
        <time>2022-04-10T09:09:31Z</time>
      </trkpt>
      <trkpt lat="47.28256" lon="-1.54113">
        <ele>80</ele>
        <time>2022-04-10T09:09:32Z</time>
      </trkpt>
      <trkpt lat="47.28257" lon="-1.54113">
        <ele>80</ele>
        <time>2022-04-10T09:09:33Z</time>
      </trkpt>
      <trkpt lat="47.28259" lon="-1.54112">
        <ele>81</ele>
        <time>2022-04-10T09:09:34Z</time>
      </trkpt>
      <trkpt lat="47.28259" lon="-1.54111">
        <ele>81</ele>
        <time>2022-04-10T09:09:35Z</time>
      </trkpt>
      <trkpt lat="47.28261" lon="-1.5411">
        <ele>82</ele>
        <time>2022-04-10T09:09:36Z</time>
      </trkpt>
      <trkpt lat="47.28262" lon="-1.5411">
        <ele>81</ele>
        <time>2022-04-10T09:09:37Z</time>
      </trkpt>
      <trkpt lat="47.28264" lon="-1.54109">
        <ele>81</ele>
        <time>2022-04-10T09:09:38Z</time>
      </trkpt>
      <trkpt lat="47.28265" lon="-1.54108">
        <ele>80</ele>
        <time>2022-04-10T09:09:39Z</time>
      </trkpt>
      <trkpt lat="47.28265" lon="-1.54106">
        <ele>80</ele>
        <time>2022-04-10T09:09:40Z</time>
      </trkpt>
      <trkpt lat="47.28266" lon="-1.54105">
        <ele>79</ele>
        <time>2022-04-10T09:09:41Z</time>
      </trkpt>
      <trkpt lat="47.28267" lon="-1.54104">
        <ele>78</ele>
        <time>2022-04-10T09:09:42Z</time>
      </trkpt>
      <trkpt lat="47.28267" lon="-1.54103">
        <ele>79</ele>
        <time>2022-04-10T09:09:43Z</time>
      </trkpt>
      <trkpt lat="47.28269" lon="-1.54103">
        <ele>78</ele>
        <time>2022-04-10T09:09:44Z</time>
      </trkpt>
      <trkpt lat="47.2827" lon="-1.54101">
        <ele>78</ele>
        <time>2022-04-10T09:09:45Z</time>
      </trkpt>
      <trkpt lat="47.28271" lon="-1.541">
        <ele>79</ele>
        <time>2022-04-10T09:09:46Z</time>
      </trkpt>
      <trkpt lat="47.28272" lon="-1.54099">
        <ele>78</ele>
        <time>2022-04-10T09:09:47Z</time>
      </trkpt>
      <trkpt lat="47.28273" lon="-1.54098">
        <ele>78</ele>
        <time>2022-04-10T09:09:48Z</time>
      </trkpt>
      <trkpt lat="47.28274" lon="-1.54097">
        <ele>78</ele>
        <time>2022-04-10T09:09:49Z</time>
      </trkpt>
      <trkpt lat="47.28275" lon="-1.54095">
        <ele>78</ele>
        <time>2022-04-10T09:09:50Z</time>
      </trkpt>
      <trkpt lat="47.28276" lon="-1.54095">
        <ele>77</ele>
        <time>2022-04-10T09:09:51Z</time>
      </trkpt>
      <trkpt lat="47.28276" lon="-1.54093">
        <ele>77</ele>
        <time>2022-04-10T09:09:52Z</time>
      </trkpt>
      <trkpt lat="47.28277" lon="-1.54092">
        <ele>78</ele>
        <time>2022-04-10T09:09:53Z</time>
      </trkpt>
      <trkpt lat="47.28277" lon="-1.54092">
        <ele>78</ele>
        <time>2022-04-10T09:09:54Z</time>
      </trkpt>
      <trkpt lat="47.28277" lon="-1.54092">
        <ele>78</ele>
        <time>2022-04-10T09:09:55Z</time>
      </trkpt>
      <trkpt lat="47.28279" lon="-1.54089">
        <ele>78</ele>
        <time>2022-04-10T09:09:56Z</time>
      </trkpt>
      <trkpt lat="47.2828" lon="-1.54088">
        <ele>78</ele>
        <time>2022-04-10T09:09:57Z</time>
      </trkpt>
      <trkpt lat="47.28281" lon="-1.54088">
        <ele>78</ele>
        <time>2022-04-10T09:09:58Z</time>
      </trkpt>
      <trkpt lat="47.28282" lon="-1.54087">
        <ele>78</ele>
        <time>2022-04-10T09:09:59Z</time>
      </trkpt>
      <trkpt lat="47.28283" lon="-1.54086">
        <ele>79</ele>
        <time>2022-04-10T09:10:00Z</time>
      </trkpt>
      <trkpt lat="47.28284" lon="-1.54085">
        <ele>79</ele>
        <time>2022-04-10T09:10:01Z</time>
      </trkpt>
      <trkpt lat="47.28284" lon="-1.54085">
        <ele>79</ele>
        <time>2022-04-10T09:10:02Z</time>
      </trkpt>
      <trkpt lat="47.28285" lon="-1.54085">
        <ele>78</ele>
        <time>2022-04-10T09:10:03Z</time>
      </trkpt>
      <trkpt lat="47.28286" lon="-1.54085">
        <ele>78</ele>
        <time>2022-04-10T09:10:04Z</time>
      </trkpt>
      <trkpt lat="47.28286" lon="-1.54085">
        <ele>78</ele>
        <time>2022-04-10T09:10:05Z</time>
      </trkpt>
      <trkpt lat="47.28286" lon="-1.54085">
        <ele>78</ele>
        <time>2022-04-10T09:10:06Z</time>
      </trkpt>
      <trkpt lat="47.28288" lon="-1.54083">
        <ele>79</ele>
        <time>2022-04-10T09:10:07Z</time>
      </trkpt>
      <trkpt lat="47.28289" lon="-1.54082">
        <ele>79</ele>
        <time>2022-04-10T09:10:08Z</time>
      </trkpt>
      <trkpt lat="47.28291" lon="-1.54082">
        <ele>79</ele>
        <time>2022-04-10T09:10:09Z</time>
      </trkpt>
      <trkpt lat="47.28292" lon="-1.54081">
        <ele>79</ele>
        <time>2022-04-10T09:10:10Z</time>
      </trkpt>
      <trkpt lat="47.28293" lon="-1.5408">
        <ele>79</ele>
        <time>2022-04-10T09:10:11Z</time>
      </trkpt>
      <trkpt lat="47.28294" lon="-1.54079">
        <ele>80</ele>
        <time>2022-04-10T09:10:12Z</time>
      </trkpt>
      <trkpt lat="47.28295" lon="-1.54078">
        <ele>80</ele>
        <time>2022-04-10T09:10:13Z</time>
      </trkpt>
      <trkpt lat="47.28296" lon="-1.54077">
        <ele>81</ele>
        <time>2022-04-10T09:10:14Z</time>
      </trkpt>
      <trkpt lat="47.28296" lon="-1.54077">
        <ele>81</ele>
        <time>2022-04-10T09:10:15Z</time>
      </trkpt>
      <trkpt lat="47.28298" lon="-1.54076">
        <ele>81</ele>
        <time>2022-04-10T09:10:16Z</time>
      </trkpt>
      <trkpt lat="47.28299" lon="-1.54075">
        <ele>82</ele>
        <time>2022-04-10T09:10:17Z</time>
      </trkpt>
      <trkpt lat="47.283" lon="-1.54073">
        <ele>81</ele>
        <time>2022-04-10T09:10:18Z</time>
      </trkpt>
      <trkpt lat="47.28301" lon="-1.54072">
        <ele>81</ele>
        <time>2022-04-10T09:10:19Z</time>
      </trkpt>
      <trkpt lat="47.28301" lon="-1.54072">
        <ele>81</ele>
        <time>2022-04-10T09:10:20Z</time>
      </trkpt>
      <trkpt lat="47.28302" lon="-1.54071">
        <ele>82</ele>
        <time>2022-04-10T09:10:21Z</time>
      </trkpt>
      <trkpt lat="47.28303" lon="-1.54071">
        <ele>82</ele>
        <time>2022-04-10T09:10:22Z</time>
      </trkpt>
      <trkpt lat="47.28304" lon="-1.5407">
        <ele>82</ele>
        <time>2022-04-10T09:10:23Z</time>
      </trkpt>
      <trkpt lat="47.28305" lon="-1.5407">
        <ele>82</ele>
        <time>2022-04-10T09:10:24Z</time>
      </trkpt>
      <trkpt lat="47.28306" lon="-1.54069">
        <ele>82</ele>
        <time>2022-04-10T09:10:25Z</time>
      </trkpt>
      <trkpt lat="47.28307" lon="-1.54069">
        <ele>82</ele>
        <time>2022-04-10T09:10:26Z</time>
      </trkpt>
      <trkpt lat="47.28308" lon="-1.54068">
        <ele>82</ele>
        <time>2022-04-10T09:10:27Z</time>
      </trkpt>
      <trkpt lat="47.28309" lon="-1.54068">
        <ele>81</ele>
        <time>2022-04-10T09:10:28Z</time>
      </trkpt>
      <trkpt lat="47.28309" lon="-1.54068">
        <ele>81</ele>
        <time>2022-04-10T09:10:29Z</time>
      </trkpt>
      <trkpt lat="47.28312" lon="-1.54067">
        <ele>79</ele>
        <time>2022-04-10T09:10:30Z</time>
      </trkpt>
      <trkpt lat="47.28312" lon="-1.54065">
        <ele>78</ele>
        <time>2022-04-10T09:10:31Z</time>
      </trkpt>
      <trkpt lat="47.28313" lon="-1.54063">
        <ele>78</ele>
        <time>2022-04-10T09:10:32Z</time>
      </trkpt>
      <trkpt lat="47.28314" lon="-1.54062">
        <ele>77</ele>
        <time>2022-04-10T09:10:33Z</time>
      </trkpt>
      <trkpt lat="47.28315" lon="-1.54061">
        <ele>76</ele>
        <time>2022-04-10T09:10:34Z</time>
      </trkpt>
      <trkpt lat="47.28316" lon="-1.5406">
        <ele>76</ele>
        <time>2022-04-10T09:10:35Z</time>
      </trkpt>
      <trkpt lat="47.28317" lon="-1.54059">
        <ele>76</ele>
        <time>2022-04-10T09:10:36Z</time>
      </trkpt>
      <trkpt lat="47.28318" lon="-1.54058">
        <ele>76</ele>
        <time>2022-04-10T09:10:37Z</time>
      </trkpt>
      <trkpt lat="47.28318" lon="-1.54057">
        <ele>76</ele>
        <time>2022-04-10T09:10:38Z</time>
      </trkpt>
      <trkpt lat="47.2832" lon="-1.54056">
        <ele>76</ele>
        <time>2022-04-10T09:10:39Z</time>
      </trkpt>
      <trkpt lat="47.2832" lon="-1.54055">
        <ele>76</ele>
        <time>2022-04-10T09:10:40Z</time>
      </trkpt>
      <trkpt lat="47.28322" lon="-1.54055">
        <ele>77</ele>
        <time>2022-04-10T09:10:41Z</time>
      </trkpt>
      <trkpt lat="47.28322" lon="-1.54054">
        <ele>77</ele>
        <time>2022-04-10T09:10:42Z</time>
      </trkpt>
      <trkpt lat="47.28323" lon="-1.54053">
        <ele>77</ele>
        <time>2022-04-10T09:10:43Z</time>
      </trkpt>
      <trkpt lat="47.28324" lon="-1.54051">
        <ele>76</ele>
        <time>2022-04-10T09:10:44Z</time>
      </trkpt>
      <trkpt lat="47.28326" lon="-1.54051">
        <ele>76</ele>
        <time>2022-04-10T09:10:45Z</time>
      </trkpt>
      <trkpt lat="47.28326" lon="-1.5405">
        <ele>76</ele>
        <time>2022-04-10T09:10:46Z</time>
      </trkpt>
      <trkpt lat="47.28328" lon="-1.5405">
        <ele>76</ele>
        <time>2022-04-10T09:10:47Z</time>
      </trkpt>
      <trkpt lat="47.28329" lon="-1.54048">
        <ele>76</ele>
        <time>2022-04-10T09:10:48Z</time>
      </trkpt>
      <trkpt lat="47.2833" lon="-1.54048">
        <ele>77</ele>
        <time>2022-04-10T09:10:49Z</time>
      </trkpt>
      <trkpt lat="47.28332" lon="-1.54048">
        <ele>76</ele>
        <time>2022-04-10T09:10:50Z</time>
      </trkpt>
      <trkpt lat="47.28334" lon="-1.54049">
        <ele>76</ele>
        <time>2022-04-10T09:10:51Z</time>
      </trkpt>
      <trkpt lat="47.28335" lon="-1.54051">
        <ele>76</ele>
        <time>2022-04-10T09:10:52Z</time>
      </trkpt>
      <trkpt lat="47.28336" lon="-1.54052">
        <ele>76</ele>
        <time>2022-04-10T09:10:53Z</time>
      </trkpt>
      <trkpt lat="47.28338" lon="-1.54054">
        <ele>77</ele>
        <time>2022-04-10T09:10:54Z</time>
      </trkpt>
      <trkpt lat="47.28339" lon="-1.54055">
        <ele>77</ele>
        <time>2022-04-10T09:10:55Z</time>
      </trkpt>
      <trkpt lat="47.28341" lon="-1.54056">
        <ele>77</ele>
        <time>2022-04-10T09:10:56Z</time>
      </trkpt>
      <trkpt lat="47.28342" lon="-1.54057">
        <ele>77</ele>
        <time>2022-04-10T09:10:57Z</time>
      </trkpt>
      <trkpt lat="47.28343" lon="-1.54058">
        <ele>78</ele>
        <time>2022-04-10T09:10:58Z</time>
      </trkpt>
      <trkpt lat="47.28344" lon="-1.54059">
        <ele>78</ele>
        <time>2022-04-10T09:10:59Z</time>
      </trkpt>
      <trkpt lat="47.28345" lon="-1.54061">
        <ele>78</ele>
        <time>2022-04-10T09:11:00Z</time>
      </trkpt>
      <trkpt lat="47.28346" lon="-1.54063">
        <ele>78</ele>
        <time>2022-04-10T09:11:01Z</time>
      </trkpt>
      <trkpt lat="47.28347" lon="-1.54065">
        <ele>79</ele>
        <time>2022-04-10T09:11:02Z</time>
      </trkpt>
      <trkpt lat="47.28348" lon="-1.54068">
        <ele>79</ele>
        <time>2022-04-10T09:11:03Z</time>
      </trkpt>
      <trkpt lat="47.28349" lon="-1.54069">
        <ele>79</ele>
        <time>2022-04-10T09:11:04Z</time>
      </trkpt>
      <trkpt lat="47.2835" lon="-1.54071">
        <ele>80</ele>
        <time>2022-04-10T09:11:05Z</time>
      </trkpt>
      <trkpt lat="47.28352" lon="-1.54072">
        <ele>79</ele>
        <time>2022-04-10T09:11:06Z</time>
      </trkpt>
      <trkpt lat="47.28353" lon="-1.54072">
        <ele>79</ele>
        <time>2022-04-10T09:11:07Z</time>
      </trkpt>
      <trkpt lat="47.28354" lon="-1.54074">
        <ele>79</ele>
        <time>2022-04-10T09:11:08Z</time>
      </trkpt>
      <trkpt lat="47.28355" lon="-1.54074">
        <ele>80</ele>
        <time>2022-04-10T09:11:09Z</time>
      </trkpt>
      <trkpt lat="47.28356" lon="-1.54075">
        <ele>80</ele>
        <time>2022-04-10T09:11:10Z</time>
      </trkpt>
      <trkpt lat="47.28356" lon="-1.54075">
        <ele>80</ele>
        <time>2022-04-10T09:11:11Z</time>
      </trkpt>
      <trkpt lat="47.28356" lon="-1.54075">
        <ele>80</ele>
        <time>2022-04-10T09:11:12Z</time>
      </trkpt>
      <trkpt lat="47.28356" lon="-1.54075">
        <ele>80</ele>
        <time>2022-04-10T09:11:13Z</time>
      </trkpt>
      <trkpt lat="47.28356" lon="-1.54075">
        <ele>80</ele>
        <time>2022-04-10T09:11:14Z</time>
      </trkpt>
      <trkpt lat="47.28356" lon="-1.54075">
        <ele>80</ele>
        <time>2022-04-10T09:11:14Z</time>
      </trkpt>
      <trkpt lat="47.28356" lon="-1.54075">
        <ele>80</ele>
        <time>2022-04-10T09:11:14Z</time>
      </trkpt>
      <trkpt lat="47.28359" lon="-1.54078">
        <ele>81</ele>
        <time>2022-04-10T09:11:39Z</time>
      </trkpt>
      <trkpt lat="47.28359" lon="-1.54079">
        <ele>81</ele>
        <time>2022-04-10T09:11:40Z</time>
      </trkpt>
      <trkpt lat="47.28359" lon="-1.5408">
        <ele>81</ele>
        <time>2022-04-10T09:11:41Z</time>
      </trkpt>
      <trkpt lat="47.28358" lon="-1.5408">
        <ele>82</ele>
        <time>2022-04-10T09:11:42Z</time>
      </trkpt>
      <trkpt lat="47.28357" lon="-1.5408">
        <ele>82</ele>
        <time>2022-04-10T09:11:43Z</time>
      </trkpt>
      <trkpt lat="47.28356" lon="-1.5408">
        <ele>83</ele>
        <time>2022-04-10T09:11:44Z</time>
      </trkpt>
      <trkpt lat="47.28355" lon="-1.5408">
        <ele>83</ele>
        <time>2022-04-10T09:11:45Z</time>
      </trkpt>
      <trkpt lat="47.28354" lon="-1.5408">
        <ele>84</ele>
        <time>2022-04-10T09:11:46Z</time>
      </trkpt>
      <trkpt lat="47.28354" lon="-1.54079">
        <ele>85</ele>
        <time>2022-04-10T09:11:47Z</time>
      </trkpt>
      <trkpt lat="47.28353" lon="-1.54078">
        <ele>85</ele>
        <time>2022-04-10T09:11:48Z</time>
      </trkpt>
      <trkpt lat="47.28352" lon="-1.54076">
        <ele>85</ele>
        <time>2022-04-10T09:11:49Z</time>
      </trkpt>
      <trkpt lat="47.28352" lon="-1.54074">
        <ele>85</ele>
        <time>2022-04-10T09:11:50Z</time>
      </trkpt>
      <trkpt lat="47.28351" lon="-1.54073">
        <ele>85</ele>
        <time>2022-04-10T09:11:51Z</time>
      </trkpt>
      <trkpt lat="47.2835" lon="-1.54072">
        <ele>84</ele>
        <time>2022-04-10T09:11:52Z</time>
      </trkpt>
      <trkpt lat="47.2835" lon="-1.5407">
        <ele>84</ele>
        <time>2022-04-10T09:11:53Z</time>
      </trkpt>
      <trkpt lat="47.2835" lon="-1.54069">
        <ele>83</ele>
        <time>2022-04-10T09:11:54Z</time>
      </trkpt>
      <trkpt lat="47.28349" lon="-1.54067">
        <ele>83</ele>
        <time>2022-04-10T09:11:55Z</time>
      </trkpt>
      <trkpt lat="47.28348" lon="-1.54066">
        <ele>83</ele>
        <time>2022-04-10T09:11:56Z</time>
      </trkpt>
      <trkpt lat="47.28348" lon="-1.54064">
        <ele>83</ele>
        <time>2022-04-10T09:11:57Z</time>
      </trkpt>
      <trkpt lat="47.28347" lon="-1.54062">
        <ele>83</ele>
        <time>2022-04-10T09:11:58Z</time>
      </trkpt>
      <trkpt lat="47.28347" lon="-1.5406">
        <ele>82</ele>
        <time>2022-04-10T09:11:59Z</time>
      </trkpt>
      <trkpt lat="47.28346" lon="-1.54058">
        <ele>82</ele>
        <time>2022-04-10T09:12:00Z</time>
      </trkpt>
      <trkpt lat="47.28346" lon="-1.54057">
        <ele>81</ele>
        <time>2022-04-10T09:12:01Z</time>
      </trkpt>
      <trkpt lat="47.28346" lon="-1.54055">
        <ele>81</ele>
        <time>2022-04-10T09:12:02Z</time>
      </trkpt>
      <trkpt lat="47.28346" lon="-1.54053">
        <ele>81</ele>
        <time>2022-04-10T09:12:03Z</time>
      </trkpt>
      <trkpt lat="47.28346" lon="-1.54052">
        <ele>80</ele>
        <time>2022-04-10T09:12:04Z</time>
      </trkpt>
      <trkpt lat="47.28346" lon="-1.5405">
        <ele>80</ele>
        <time>2022-04-10T09:12:05Z</time>
      </trkpt>
      <trkpt lat="47.28346" lon="-1.54048">
        <ele>80</ele>
        <time>2022-04-10T09:12:06Z</time>
      </trkpt>
      <trkpt lat="47.28347" lon="-1.54047">
        <ele>80</ele>
        <time>2022-04-10T09:12:07Z</time>
      </trkpt>
      <trkpt lat="47.28347" lon="-1.54046">
        <ele>80</ele>
        <time>2022-04-10T09:12:08Z</time>
      </trkpt>
      <trkpt lat="47.28348" lon="-1.54045">
        <ele>80</ele>
        <time>2022-04-10T09:12:09Z</time>
      </trkpt>
      <trkpt lat="47.28348" lon="-1.54044">
        <ele>81</ele>
        <time>2022-04-10T09:12:10Z</time>
      </trkpt>
      <trkpt lat="47.28349" lon="-1.54043">
        <ele>80</ele>
        <time>2022-04-10T09:12:11Z</time>
      </trkpt>
      <trkpt lat="47.28349" lon="-1.54042">
        <ele>80</ele>
        <time>2022-04-10T09:12:12Z</time>
      </trkpt>
      <trkpt lat="47.2835" lon="-1.54042">
        <ele>80</ele>
        <time>2022-04-10T09:12:13Z</time>
      </trkpt>
      <trkpt lat="47.2835" lon="-1.54042">
        <ele>80</ele>
        <time>2022-04-10T09:12:14Z</time>
      </trkpt>
      <trkpt lat="47.2835" lon="-1.54042">
        <ele>80</ele>
        <time>2022-04-10T09:12:15Z</time>
      </trkpt>
      <trkpt lat="47.28351" lon="-1.5404">
        <ele>80</ele>
        <time>2022-04-10T09:12:16Z</time>
      </trkpt>
      <trkpt lat="47.28351" lon="-1.5404">
        <ele>79</ele>
        <time>2022-04-10T09:12:17Z</time>
      </trkpt>
      <trkpt lat="47.28351" lon="-1.5404">
        <ele>79</ele>
        <time>2022-04-10T09:12:18Z</time>
      </trkpt>
      <trkpt lat="47.28351" lon="-1.5404">
        <ele>79</ele>
        <time>2022-04-10T09:12:19Z</time>
      </trkpt>
      <trkpt lat="47.28351" lon="-1.5404">
        <ele>79</ele>
        <time>2022-04-10T09:12:19Z</time>
      </trkpt>
      <trkpt lat="47.28359" lon="-1.54038">
        <ele>74</ele>
        <time>2022-04-10T09:13:10Z</time>
      </trkpt>
      <trkpt lat="47.28359" lon="-1.54037">
        <ele>74</ele>
        <time>2022-04-10T09:13:11Z</time>
      </trkpt>
      <trkpt lat="47.2836" lon="-1.54036">
        <ele>74</ele>
        <time>2022-04-10T09:13:12Z</time>
      </trkpt>
      <trkpt lat="47.28361" lon="-1.54036">
        <ele>73</ele>
        <time>2022-04-10T09:13:13Z</time>
      </trkpt>
      <trkpt lat="47.28361" lon="-1.54035">
        <ele>73</ele>
        <time>2022-04-10T09:13:14Z</time>
      </trkpt>
      <trkpt lat="47.28361" lon="-1.54034">
        <ele>73</ele>
        <time>2022-04-10T09:13:15Z</time>
      </trkpt>
      <trkpt lat="47.28362" lon="-1.54033">
        <ele>73</ele>
        <time>2022-04-10T09:13:16Z</time>
      </trkpt>
      <trkpt lat="47.28362" lon="-1.54033">
        <ele>73</ele>
        <time>2022-04-10T09:13:17Z</time>
      </trkpt>
      <trkpt lat="47.28362" lon="-1.54033">
        <ele>73</ele>
        <time>2022-04-10T09:13:18Z</time>
      </trkpt>
      <trkpt lat="47.28362" lon="-1.54034">
        <ele>72</ele>
        <time>2022-04-10T09:13:19Z</time>
      </trkpt>
      <trkpt lat="47.28362" lon="-1.54034">
        <ele>72</ele>
        <time>2022-04-10T09:13:20Z</time>
      </trkpt>
      <trkpt lat="47.28362" lon="-1.54034">
        <ele>72</ele>
        <time>2022-04-10T09:13:21Z</time>
      </trkpt>
      <trkpt lat="47.28362" lon="-1.54034">
        <ele>72</ele>
        <time>2022-04-10T09:13:22Z</time>
      </trkpt>
      <trkpt lat="47.28362" lon="-1.54034">
        <ele>72</ele>
        <time>2022-04-10T09:13:22Z</time>
      </trkpt>
      <trkpt lat="47.28362" lon="-1.54037">
        <ele>75</ele>
        <time>2022-04-10T09:14:50Z</time>
      </trkpt>
      <trkpt lat="47.28362" lon="-1.54037">
        <ele>75</ele>
        <time>2022-04-10T09:14:51Z</time>
      </trkpt>
      <trkpt lat="47.28362" lon="-1.54037">
        <ele>75</ele>
        <time>2022-04-10T09:14:52Z</time>
      </trkpt>
      <trkpt lat="47.28362" lon="-1.54037">
        <ele>74</ele>
        <time>2022-04-10T09:14:53Z</time>
      </trkpt>
      <trkpt lat="47.28362" lon="-1.54037">
        <ele>74</ele>
        <time>2022-04-10T09:14:54Z</time>
      </trkpt>
      <trkpt lat="47.28362" lon="-1.54037">
        <ele>74</ele>
        <time>2022-04-10T09:14:54Z</time>
      </trkpt>
      <trkpt lat="47.28362" lon="-1.54037">
        <ele>74</ele>
        <time>2022-04-10T09:14:54Z</time>
      </trkpt>
      <trkpt lat="47.28364" lon="-1.54035">
        <ele>75</ele>
        <time>2022-04-10T09:15:45Z</time>
      </trkpt>
      <trkpt lat="47.28365" lon="-1.54034">
        <ele>75</ele>
        <time>2022-04-10T09:15:46Z</time>
      </trkpt>
      <trkpt lat="47.28365" lon="-1.54034">
        <ele>75</ele>
        <time>2022-04-10T09:15:47Z</time>
      </trkpt>
      <trkpt lat="47.28365" lon="-1.54034">
        <ele>76</ele>
        <time>2022-04-10T09:15:48Z</time>
      </trkpt>
      <trkpt lat="47.28366" lon="-1.54033">
        <ele>76</ele>
        <time>2022-04-10T09:15:49Z</time>
      </trkpt>
      <trkpt lat="47.28367" lon="-1.54033">
        <ele>76</ele>
        <time>2022-04-10T09:15:50Z</time>
      </trkpt>
      <trkpt lat="47.28367" lon="-1.54032">
        <ele>76</ele>
        <time>2022-04-10T09:15:51Z</time>
      </trkpt>
      <trkpt lat="47.28368" lon="-1.54031">
        <ele>76</ele>
        <time>2022-04-10T09:15:52Z</time>
      </trkpt>
      <trkpt lat="47.28369" lon="-1.5403">
        <ele>76</ele>
        <time>2022-04-10T09:15:53Z</time>
      </trkpt>
      <trkpt lat="47.2837" lon="-1.5403">
        <ele>77</ele>
        <time>2022-04-10T09:15:54Z</time>
      </trkpt>
      <trkpt lat="47.28371" lon="-1.5403">
        <ele>77</ele>
        <time>2022-04-10T09:15:55Z</time>
      </trkpt>
      <trkpt lat="47.28371" lon="-1.5403">
        <ele>78</ele>
        <time>2022-04-10T09:15:56Z</time>
      </trkpt>
      <trkpt lat="47.28372" lon="-1.5403">
        <ele>79</ele>
        <time>2022-04-10T09:15:57Z</time>
      </trkpt>
      <trkpt lat="47.28372" lon="-1.5403">
        <ele>79</ele>
        <time>2022-04-10T09:15:58Z</time>
      </trkpt>
      <trkpt lat="47.28372" lon="-1.5403">
        <ele>79</ele>
        <time>2022-04-10T09:15:59Z</time>
      </trkpt>
      <trkpt lat="47.28373" lon="-1.54028">
        <ele>79</ele>
        <time>2022-04-10T09:16:00Z</time>
      </trkpt>
      <trkpt lat="47.28374" lon="-1.54028">
        <ele>78</ele>
        <time>2022-04-10T09:16:01Z</time>
      </trkpt>
      <trkpt lat="47.28375" lon="-1.54027">
        <ele>78</ele>
        <time>2022-04-10T09:16:02Z</time>
      </trkpt>
      <trkpt lat="47.28376" lon="-1.54026">
        <ele>78</ele>
        <time>2022-04-10T09:16:03Z</time>
      </trkpt>
      <trkpt lat="47.28377" lon="-1.54025">
        <ele>77</ele>
        <time>2022-04-10T09:16:04Z</time>
      </trkpt>
      <trkpt lat="47.28378" lon="-1.54025">
        <ele>77</ele>
        <time>2022-04-10T09:16:05Z</time>
      </trkpt>
      <trkpt lat="47.28379" lon="-1.54024">
        <ele>77</ele>
        <time>2022-04-10T09:16:06Z</time>
      </trkpt>
      <trkpt lat="47.28381" lon="-1.54023">
        <ele>77</ele>
        <time>2022-04-10T09:16:07Z</time>
      </trkpt>
      <trkpt lat="47.28382" lon="-1.54023">
        <ele>76</ele>
        <time>2022-04-10T09:16:08Z</time>
      </trkpt>
      <trkpt lat="47.28383" lon="-1.54022">
        <ele>76</ele>
        <time>2022-04-10T09:16:09Z</time>
      </trkpt>
      <trkpt lat="47.28383" lon="-1.54022">
        <ele>75</ele>
        <time>2022-04-10T09:16:10Z</time>
      </trkpt>
      <trkpt lat="47.28384" lon="-1.54021">
        <ele>75</ele>
        <time>2022-04-10T09:16:11Z</time>
      </trkpt>
      <trkpt lat="47.28385" lon="-1.5402">
        <ele>75</ele>
        <time>2022-04-10T09:16:12Z</time>
      </trkpt>
      <trkpt lat="47.28386" lon="-1.5402">
        <ele>75</ele>
        <time>2022-04-10T09:16:13Z</time>
      </trkpt>
      <trkpt lat="47.28388" lon="-1.5402">
        <ele>74</ele>
        <time>2022-04-10T09:16:14Z</time>
      </trkpt>
      <trkpt lat="47.28389" lon="-1.54019">
        <ele>74</ele>
        <time>2022-04-10T09:16:15Z</time>
      </trkpt>
      <trkpt lat="47.2839" lon="-1.54019">
        <ele>74</ele>
        <time>2022-04-10T09:16:16Z</time>
      </trkpt>
      <trkpt lat="47.28391" lon="-1.54018">
        <ele>74</ele>
        <time>2022-04-10T09:16:17Z</time>
      </trkpt>
      <trkpt lat="47.28392" lon="-1.54017">
        <ele>74</ele>
        <time>2022-04-10T09:16:18Z</time>
      </trkpt>
      <trkpt lat="47.28392" lon="-1.54016">
        <ele>74</ele>
        <time>2022-04-10T09:16:19Z</time>
      </trkpt>
      <trkpt lat="47.28392" lon="-1.54016">
        <ele>73</ele>
        <time>2022-04-10T09:16:20Z</time>
      </trkpt>
      <trkpt lat="47.28394" lon="-1.54015">
        <ele>73</ele>
        <time>2022-04-10T09:16:21Z</time>
      </trkpt>
      <trkpt lat="47.28395" lon="-1.54014">
        <ele>73</ele>
        <time>2022-04-10T09:16:22Z</time>
      </trkpt>
      <trkpt lat="47.28395" lon="-1.54013">
        <ele>72</ele>
        <time>2022-04-10T09:16:23Z</time>
      </trkpt>
      <trkpt lat="47.28396" lon="-1.54012">
        <ele>72</ele>
        <time>2022-04-10T09:16:24Z</time>
      </trkpt>
      <trkpt lat="47.28397" lon="-1.54012">
        <ele>72</ele>
        <time>2022-04-10T09:16:25Z</time>
      </trkpt>
      <trkpt lat="47.28398" lon="-1.5401">
        <ele>72</ele>
        <time>2022-04-10T09:16:26Z</time>
      </trkpt>
      <trkpt lat="47.28399" lon="-1.54009">
        <ele>72</ele>
        <time>2022-04-10T09:16:27Z</time>
      </trkpt>
      <trkpt lat="47.284" lon="-1.54009">
        <ele>73</ele>
        <time>2022-04-10T09:16:28Z</time>
      </trkpt>
      <trkpt lat="47.28401" lon="-1.54009">
        <ele>73</ele>
        <time>2022-04-10T09:16:29Z</time>
      </trkpt>
      <trkpt lat="47.28402" lon="-1.54009">
        <ele>73</ele>
        <time>2022-04-10T09:16:30Z</time>
      </trkpt>
      <trkpt lat="47.28403" lon="-1.54007">
        <ele>74</ele>
        <time>2022-04-10T09:16:31Z</time>
      </trkpt>
      <trkpt lat="47.28404" lon="-1.54006">
        <ele>74</ele>
        <time>2022-04-10T09:16:32Z</time>
      </trkpt>
      <trkpt lat="47.28405" lon="-1.54007">
        <ele>74</ele>
        <time>2022-04-10T09:16:33Z</time>
      </trkpt>
      <trkpt lat="47.28406" lon="-1.54006">
        <ele>74</ele>
        <time>2022-04-10T09:16:34Z</time>
      </trkpt>
      <trkpt lat="47.28408" lon="-1.54005">
        <ele>74</ele>
        <time>2022-04-10T09:16:36Z</time>
      </trkpt>
      <trkpt lat="47.28409" lon="-1.54004">
        <ele>74</ele>
        <time>2022-04-10T09:16:37Z</time>
      </trkpt>
      <trkpt lat="47.2841" lon="-1.54003">
        <ele>74</ele>
        <time>2022-04-10T09:16:38Z</time>
      </trkpt>
      <trkpt lat="47.2841" lon="-1.54003">
        <ele>74</ele>
        <time>2022-04-10T09:16:39Z</time>
      </trkpt>
      <trkpt lat="47.28411" lon="-1.54002">
        <ele>75</ele>
        <time>2022-04-10T09:16:40Z</time>
      </trkpt>
      <trkpt lat="47.28412" lon="-1.54002">
        <ele>75</ele>
        <time>2022-04-10T09:16:41Z</time>
      </trkpt>
      <trkpt lat="47.28413" lon="-1.54001">
        <ele>75</ele>
        <time>2022-04-10T09:16:42Z</time>
      </trkpt>
      <trkpt lat="47.28413" lon="-1.54">
        <ele>75</ele>
        <time>2022-04-10T09:16:43Z</time>
      </trkpt>
      <trkpt lat="47.28414" lon="-1.54">
        <ele>75</ele>
        <time>2022-04-10T09:16:44Z</time>
      </trkpt>
      <trkpt lat="47.28415" lon="-1.53998">
        <ele>75</ele>
        <time>2022-04-10T09:16:45Z</time>
      </trkpt>
      <trkpt lat="47.28416" lon="-1.53997">
        <ele>75</ele>
        <time>2022-04-10T09:16:46Z</time>
      </trkpt>
      <trkpt lat="47.28417" lon="-1.53997">
        <ele>75</ele>
        <time>2022-04-10T09:16:47Z</time>
      </trkpt>
      <trkpt lat="47.28418" lon="-1.53996">
        <ele>75</ele>
        <time>2022-04-10T09:16:48Z</time>
      </trkpt>
      <trkpt lat="47.28419" lon="-1.53996">
        <ele>75</ele>
        <time>2022-04-10T09:16:49Z</time>
      </trkpt>
      <trkpt lat="47.2842" lon="-1.53995">
        <ele>75</ele>
        <time>2022-04-10T09:16:50Z</time>
      </trkpt>
      <trkpt lat="47.2842" lon="-1.53995">
        <ele>75</ele>
        <time>2022-04-10T09:16:51Z</time>
      </trkpt>
      <trkpt lat="47.28421" lon="-1.53995">
        <ele>75</ele>
        <time>2022-04-10T09:16:52Z</time>
      </trkpt>
      <trkpt lat="47.28422" lon="-1.53995">
        <ele>76</ele>
        <time>2022-04-10T09:16:53Z</time>
      </trkpt>
      <trkpt lat="47.28423" lon="-1.53994">
        <ele>76</ele>
        <time>2022-04-10T09:16:54Z</time>
      </trkpt>
      <trkpt lat="47.28424" lon="-1.53994">
        <ele>76</ele>
        <time>2022-04-10T09:16:55Z</time>
      </trkpt>
      <trkpt lat="47.28425" lon="-1.53993">
        <ele>76</ele>
        <time>2022-04-10T09:16:56Z</time>
      </trkpt>
      <trkpt lat="47.28427" lon="-1.53993">
        <ele>76</ele>
        <time>2022-04-10T09:16:57Z</time>
      </trkpt>
      <trkpt lat="47.28428" lon="-1.53992">
        <ele>76</ele>
        <time>2022-04-10T09:16:58Z</time>
      </trkpt>
      <trkpt lat="47.28428" lon="-1.53992">
        <ele>76</ele>
        <time>2022-04-10T09:16:59Z</time>
      </trkpt>
      <trkpt lat="47.28429" lon="-1.53991">
        <ele>76</ele>
        <time>2022-04-10T09:17:00Z</time>
      </trkpt>
      <trkpt lat="47.28431" lon="-1.53991">
        <ele>76</ele>
        <time>2022-04-10T09:17:01Z</time>
      </trkpt>
      <trkpt lat="47.28432" lon="-1.5399">
        <ele>77</ele>
        <time>2022-04-10T09:17:02Z</time>
      </trkpt>
      <trkpt lat="47.28433" lon="-1.53989">
        <ele>77</ele>
        <time>2022-04-10T09:17:03Z</time>
      </trkpt>
      <trkpt lat="47.28434" lon="-1.53988">
        <ele>77</ele>
        <time>2022-04-10T09:17:04Z</time>
      </trkpt>
      <trkpt lat="47.28435" lon="-1.53988">
        <ele>77</ele>
        <time>2022-04-10T09:17:05Z</time>
      </trkpt>
      <trkpt lat="47.28436" lon="-1.53987">
        <ele>77</ele>
        <time>2022-04-10T09:17:06Z</time>
      </trkpt>
      <trkpt lat="47.28437" lon="-1.53987">
        <ele>77</ele>
        <time>2022-04-10T09:17:07Z</time>
      </trkpt>
      <trkpt lat="47.28438" lon="-1.53987">
        <ele>77</ele>
        <time>2022-04-10T09:17:08Z</time>
      </trkpt>
      <trkpt lat="47.28439" lon="-1.53986">
        <ele>77</ele>
        <time>2022-04-10T09:17:09Z</time>
      </trkpt>
      <trkpt lat="47.28441" lon="-1.53986">
        <ele>77</ele>
        <time>2022-04-10T09:17:10Z</time>
      </trkpt>
      <trkpt lat="47.28441" lon="-1.53986">
        <ele>77</ele>
        <time>2022-04-10T09:17:11Z</time>
      </trkpt>
      <trkpt lat="47.28442" lon="-1.53985">
        <ele>78</ele>
        <time>2022-04-10T09:17:12Z</time>
      </trkpt>
      <trkpt lat="47.28443" lon="-1.53985">
        <ele>77</ele>
        <time>2022-04-10T09:17:13Z</time>
      </trkpt>
      <trkpt lat="47.28444" lon="-1.53984">
        <ele>77</ele>
        <time>2022-04-10T09:17:14Z</time>
      </trkpt>
      <trkpt lat="47.28445" lon="-1.53984">
        <ele>77</ele>
        <time>2022-04-10T09:17:15Z</time>
      </trkpt>
      <trkpt lat="47.28447" lon="-1.53984">
        <ele>76</ele>
        <time>2022-04-10T09:17:16Z</time>
      </trkpt>
      <trkpt lat="47.28447" lon="-1.53984">
        <ele>76</ele>
        <time>2022-04-10T09:17:16Z</time>
      </trkpt>
      <trkpt lat="47.2845" lon="-1.53982">
        <ele>76</ele>
        <time>2022-04-10T09:17:18Z</time>
      </trkpt>
      <trkpt lat="47.2845" lon="-1.53982">
        <ele>76</ele>
        <time>2022-04-10T09:17:18Z</time>
      </trkpt>
      <trkpt lat="47.2845" lon="-1.53982">
        <ele>76</ele>
        <time>2022-04-10T09:17:20Z</time>
      </trkpt>
      <trkpt lat="47.28453" lon="-1.53981">
        <ele>76</ele>
        <time>2022-04-10T09:17:21Z</time>
      </trkpt>
      <trkpt lat="47.28453" lon="-1.53981">
        <ele>76</ele>
        <time>2022-04-10T09:17:21Z</time>
      </trkpt>
      <trkpt lat="47.28454" lon="-1.53981">
        <ele>76</ele>
        <time>2022-04-10T09:17:23Z</time>
      </trkpt>
      <trkpt lat="47.28455" lon="-1.53981">
        <ele>76</ele>
        <time>2022-04-10T09:17:24Z</time>
      </trkpt>
      <trkpt lat="47.28455" lon="-1.5398">
        <ele>76</ele>
        <time>2022-04-10T09:17:25Z</time>
      </trkpt>
      <trkpt lat="47.28457" lon="-1.5398">
        <ele>76</ele>
        <time>2022-04-10T09:17:26Z</time>
      </trkpt>
      <trkpt lat="47.28458" lon="-1.53979">
        <ele>76</ele>
        <time>2022-04-10T09:17:27Z</time>
      </trkpt>
      <trkpt lat="47.28458" lon="-1.53979">
        <ele>76</ele>
        <time>2022-04-10T09:17:28Z</time>
      </trkpt>
      <trkpt lat="47.2846" lon="-1.53979">
        <ele>76</ele>
        <time>2022-04-10T09:17:29Z</time>
      </trkpt>
      <trkpt lat="47.2846" lon="-1.53978">
        <ele>76</ele>
        <time>2022-04-10T09:17:30Z</time>
      </trkpt>
      <trkpt lat="47.28462" lon="-1.53978">
        <ele>77</ele>
        <time>2022-04-10T09:17:31Z</time>
      </trkpt>
      <trkpt lat="47.28463" lon="-1.53978">
        <ele>76</ele>
        <time>2022-04-10T09:17:32Z</time>
      </trkpt>
      <trkpt lat="47.28464" lon="-1.53978">
        <ele>76</ele>
        <time>2022-04-10T09:17:33Z</time>
      </trkpt>
      <trkpt lat="47.28465" lon="-1.53977">
        <ele>76</ele>
        <time>2022-04-10T09:17:34Z</time>
      </trkpt>
      <trkpt lat="47.28466" lon="-1.53977">
        <ele>76</ele>
        <time>2022-04-10T09:17:35Z</time>
      </trkpt>
      <trkpt lat="47.28467" lon="-1.53977">
        <ele>76</ele>
        <time>2022-04-10T09:17:36Z</time>
      </trkpt>
      <trkpt lat="47.28469" lon="-1.53975">
        <ele>77</ele>
        <time>2022-04-10T09:17:37Z</time>
      </trkpt>
      <trkpt lat="47.28469" lon="-1.53975">
        <ele>77</ele>
        <time>2022-04-10T09:17:37Z</time>
      </trkpt>
      <trkpt lat="47.2847" lon="-1.53975">
        <ele>77</ele>
        <time>2022-04-10T09:17:39Z</time>
      </trkpt>
      <trkpt lat="47.28471" lon="-1.53974">
        <ele>77</ele>
        <time>2022-04-10T09:17:40Z</time>
      </trkpt>
      <trkpt lat="47.28473" lon="-1.53974">
        <ele>77</ele>
        <time>2022-04-10T09:17:41Z</time>
      </trkpt>
      <trkpt lat="47.28474" lon="-1.53973">
        <ele>77</ele>
        <time>2022-04-10T09:17:42Z</time>
      </trkpt>
      <trkpt lat="47.28475" lon="-1.53973">
        <ele>77</ele>
        <time>2022-04-10T09:17:43Z</time>
      </trkpt>
      <trkpt lat="47.28476" lon="-1.53972">
        <ele>77</ele>
        <time>2022-04-10T09:17:44Z</time>
      </trkpt>
      <trkpt lat="47.28477" lon="-1.53971">
        <ele>76</ele>
        <time>2022-04-10T09:17:45Z</time>
      </trkpt>
      <trkpt lat="47.28478" lon="-1.53971">
        <ele>77</ele>
        <time>2022-04-10T09:17:46Z</time>
      </trkpt>
      <trkpt lat="47.28479" lon="-1.5397">
        <ele>76</ele>
        <time>2022-04-10T09:17:47Z</time>
      </trkpt>
      <trkpt lat="47.28481" lon="-1.53969">
        <ele>76</ele>
        <time>2022-04-10T09:17:48Z</time>
      </trkpt>
      <trkpt lat="47.28482" lon="-1.53969">
        <ele>76</ele>
        <time>2022-04-10T09:17:49Z</time>
      </trkpt>
      <trkpt lat="47.28483" lon="-1.53969">
        <ele>76</ele>
        <time>2022-04-10T09:17:50Z</time>
      </trkpt>
      <trkpt lat="47.28484" lon="-1.53968">
        <ele>76</ele>
        <time>2022-04-10T09:17:51Z</time>
      </trkpt>
      <trkpt lat="47.28484" lon="-1.53968">
        <ele>76</ele>
        <time>2022-04-10T09:17:51Z</time>
      </trkpt>
      <trkpt lat="47.28486" lon="-1.53968">
        <ele>76</ele>
        <time>2022-04-10T09:17:53Z</time>
      </trkpt>
      <trkpt lat="47.28487" lon="-1.53967">
        <ele>77</ele>
        <time>2022-04-10T09:17:54Z</time>
      </trkpt>
      <trkpt lat="47.28488" lon="-1.53967">
        <ele>77</ele>
        <time>2022-04-10T09:17:55Z</time>
      </trkpt>
      <trkpt lat="47.28489" lon="-1.53967">
        <ele>77</ele>
        <time>2022-04-10T09:17:56Z</time>
      </trkpt>
      <trkpt lat="47.2849" lon="-1.53967">
        <ele>77</ele>
        <time>2022-04-10T09:17:57Z</time>
      </trkpt>
      <trkpt lat="47.28491" lon="-1.53967">
        <ele>77</ele>
        <time>2022-04-10T09:17:58Z</time>
      </trkpt>
      <trkpt lat="47.28492" lon="-1.53967">
        <ele>77</ele>
        <time>2022-04-10T09:17:59Z</time>
      </trkpt>
      <trkpt lat="47.28494" lon="-1.53967">
        <ele>77</ele>
        <time>2022-04-10T09:18:00Z</time>
      </trkpt>
      <trkpt lat="47.28495" lon="-1.53967">
        <ele>77</ele>
        <time>2022-04-10T09:18:01Z</time>
      </trkpt>
      <trkpt lat="47.28497" lon="-1.53966">
        <ele>77</ele>
        <time>2022-04-10T09:18:02Z</time>
      </trkpt>
      <trkpt lat="47.28498" lon="-1.53966">
        <ele>77</ele>
        <time>2022-04-10T09:18:03Z</time>
      </trkpt>
      <trkpt lat="47.28499" lon="-1.53965">
        <ele>76</ele>
        <time>2022-04-10T09:18:04Z</time>
      </trkpt>
      <trkpt lat="47.285" lon="-1.53965">
        <ele>76</ele>
        <time>2022-04-10T09:18:05Z</time>
      </trkpt>
      <trkpt lat="47.28502" lon="-1.53965">
        <ele>76</ele>
        <time>2022-04-10T09:18:06Z</time>
      </trkpt>
      <trkpt lat="47.28503" lon="-1.53964">
        <ele>76</ele>
        <time>2022-04-10T09:18:07Z</time>
      </trkpt>
      <trkpt lat="47.28503" lon="-1.53964">
        <ele>76</ele>
        <time>2022-04-10T09:18:08Z</time>
      </trkpt>
      <trkpt lat="47.28505" lon="-1.53964">
        <ele>76</ele>
        <time>2022-04-10T09:18:09Z</time>
      </trkpt>
      <trkpt lat="47.28506" lon="-1.53964">
        <ele>75</ele>
        <time>2022-04-10T09:18:10Z</time>
      </trkpt>
      <trkpt lat="47.28507" lon="-1.53964">
        <ele>75</ele>
        <time>2022-04-10T09:18:11Z</time>
      </trkpt>
      <trkpt lat="47.28508" lon="-1.53963">
        <ele>75</ele>
        <time>2022-04-10T09:18:12Z</time>
      </trkpt>
      <trkpt lat="47.2851" lon="-1.53963">
        <ele>75</ele>
        <time>2022-04-10T09:18:13Z</time>
      </trkpt>
      <trkpt lat="47.28511" lon="-1.53963">
        <ele>75</ele>
        <time>2022-04-10T09:18:14Z</time>
      </trkpt>
      <trkpt lat="47.28512" lon="-1.53963">
        <ele>75</ele>
        <time>2022-04-10T09:18:15Z</time>
      </trkpt>
      <trkpt lat="47.28513" lon="-1.53963">
        <ele>76</ele>
        <time>2022-04-10T09:18:16Z</time>
      </trkpt>
      <trkpt lat="47.28514" lon="-1.53962">
        <ele>75</ele>
        <time>2022-04-10T09:18:17Z</time>
      </trkpt>
      <trkpt lat="47.28516" lon="-1.53962">
        <ele>75</ele>
        <time>2022-04-10T09:18:18Z</time>
      </trkpt>
      <trkpt lat="47.28517" lon="-1.53961">
        <ele>75</ele>
        <time>2022-04-10T09:18:19Z</time>
      </trkpt>
      <trkpt lat="47.28518" lon="-1.53961">
        <ele>75</ele>
        <time>2022-04-10T09:18:20Z</time>
      </trkpt>
      <trkpt lat="47.28519" lon="-1.53961">
        <ele>75</ele>
        <time>2022-04-10T09:18:21Z</time>
      </trkpt>
      <trkpt lat="47.28521" lon="-1.5396">
        <ele>75</ele>
        <time>2022-04-10T09:18:22Z</time>
      </trkpt>
      <trkpt lat="47.28522" lon="-1.5396">
        <ele>75</ele>
        <time>2022-04-10T09:18:23Z</time>
      </trkpt>
      <trkpt lat="47.28524" lon="-1.53959">
        <ele>75</ele>
        <time>2022-04-10T09:18:24Z</time>
      </trkpt>
      <trkpt lat="47.28525" lon="-1.53959">
        <ele>75</ele>
        <time>2022-04-10T09:18:25Z</time>
      </trkpt>
      <trkpt lat="47.28526" lon="-1.53958">
        <ele>75</ele>
        <time>2022-04-10T09:18:26Z</time>
      </trkpt>
      <trkpt lat="47.28527" lon="-1.53958">
        <ele>75</ele>
        <time>2022-04-10T09:18:27Z</time>
      </trkpt>
      <trkpt lat="47.28528" lon="-1.53958">
        <ele>75</ele>
        <time>2022-04-10T09:18:28Z</time>
      </trkpt>
      <trkpt lat="47.28529" lon="-1.53958">
        <ele>75</ele>
        <time>2022-04-10T09:18:29Z</time>
      </trkpt>
      <trkpt lat="47.28531" lon="-1.53959">
        <ele>75</ele>
        <time>2022-04-10T09:18:30Z</time>
      </trkpt>
      <trkpt lat="47.28532" lon="-1.53958">
        <ele>75</ele>
        <time>2022-04-10T09:18:31Z</time>
      </trkpt>
      <trkpt lat="47.28533" lon="-1.53958">
        <ele>74</ele>
        <time>2022-04-10T09:18:32Z</time>
      </trkpt>
      <trkpt lat="47.28534" lon="-1.53957">
        <ele>74</ele>
        <time>2022-04-10T09:18:33Z</time>
      </trkpt>
      <trkpt lat="47.28536" lon="-1.53957">
        <ele>75</ele>
        <time>2022-04-10T09:18:34Z</time>
      </trkpt>
      <trkpt lat="47.28537" lon="-1.53957">
        <ele>75</ele>
        <time>2022-04-10T09:18:35Z</time>
      </trkpt>
      <trkpt lat="47.28538" lon="-1.53957">
        <ele>75</ele>
        <time>2022-04-10T09:18:36Z</time>
      </trkpt>
      <trkpt lat="47.28539" lon="-1.53957">
        <ele>75</ele>
        <time>2022-04-10T09:18:37Z</time>
      </trkpt>
      <trkpt lat="47.2854" lon="-1.53956">
        <ele>75</ele>
        <time>2022-04-10T09:18:38Z</time>
      </trkpt>
      <trkpt lat="47.28542" lon="-1.53955">
        <ele>75</ele>
        <time>2022-04-10T09:18:39Z</time>
      </trkpt>
      <trkpt lat="47.28544" lon="-1.53955">
        <ele>75</ele>
        <time>2022-04-10T09:18:40Z</time>
      </trkpt>
      <trkpt lat="47.28545" lon="-1.53955">
        <ele>75</ele>
        <time>2022-04-10T09:18:41Z</time>
      </trkpt>
      <trkpt lat="47.28545" lon="-1.53955">
        <ele>75</ele>
        <time>2022-04-10T09:18:41Z</time>
      </trkpt>
      <trkpt lat="47.28546" lon="-1.53954">
        <ele>75</ele>
        <time>2022-04-10T09:18:43Z</time>
      </trkpt>
      <trkpt lat="47.28547" lon="-1.53954">
        <ele>75</ele>
        <time>2022-04-10T09:18:44Z</time>
      </trkpt>
      <trkpt lat="47.28548" lon="-1.53954">
        <ele>75</ele>
        <time>2022-04-10T09:18:45Z</time>
      </trkpt>
      <trkpt lat="47.28548" lon="-1.53954">
        <ele>75</ele>
        <time>2022-04-10T09:18:45Z</time>
      </trkpt>
      <trkpt lat="47.28549" lon="-1.53954">
        <ele>75</ele>
        <time>2022-04-10T09:18:47Z</time>
      </trkpt>
      <trkpt lat="47.2855" lon="-1.53954">
        <ele>75</ele>
        <time>2022-04-10T09:18:48Z</time>
      </trkpt>
      <trkpt lat="47.28552" lon="-1.53953">
        <ele>75</ele>
        <time>2022-04-10T09:18:49Z</time>
      </trkpt>
      <trkpt lat="47.28553" lon="-1.53953">
        <ele>76</ele>
        <time>2022-04-10T09:18:50Z</time>
      </trkpt>
      <trkpt lat="47.28555" lon="-1.53953">
        <ele>76</ele>
        <time>2022-04-10T09:18:51Z</time>
      </trkpt>
      <trkpt lat="47.28555" lon="-1.53953">
        <ele>76</ele>
        <time>2022-04-10T09:18:52Z</time>
      </trkpt>
      <trkpt lat="47.28555" lon="-1.53953">
        <ele>76</ele>
        <time>2022-04-10T09:18:52Z</time>
      </trkpt>
      <trkpt lat="47.28557" lon="-1.53954">
        <ele>77</ele>
        <time>2022-04-10T09:18:54Z</time>
      </trkpt>
      <trkpt lat="47.28558" lon="-1.53953">
        <ele>77</ele>
        <time>2022-04-10T09:18:55Z</time>
      </trkpt>
      <trkpt lat="47.28559" lon="-1.53954">
        <ele>77</ele>
        <time>2022-04-10T09:18:56Z</time>
      </trkpt>
      <trkpt lat="47.2856" lon="-1.53954">
        <ele>77</ele>
        <time>2022-04-10T09:18:57Z</time>
      </trkpt>
      <trkpt lat="47.28561" lon="-1.53954">
        <ele>77</ele>
        <time>2022-04-10T09:18:58Z</time>
      </trkpt>
      <trkpt lat="47.28561" lon="-1.53954">
        <ele>77</ele>
        <time>2022-04-10T09:18:58Z</time>
      </trkpt>
      <trkpt lat="47.28563" lon="-1.53955">
        <ele>76</ele>
        <time>2022-04-10T09:19:00Z</time>
      </trkpt>
      <trkpt lat="47.28564" lon="-1.53955">
        <ele>76</ele>
        <time>2022-04-10T09:19:01Z</time>
      </trkpt>
      <trkpt lat="47.28565" lon="-1.53956">
        <ele>76</ele>
        <time>2022-04-10T09:19:02Z</time>
      </trkpt>
      <trkpt lat="47.28566" lon="-1.53956">
        <ele>76</ele>
        <time>2022-04-10T09:19:03Z</time>
      </trkpt>
      <trkpt lat="47.28568" lon="-1.53955">
        <ele>76</ele>
        <time>2022-04-10T09:19:04Z</time>
      </trkpt>
      <trkpt lat="47.28569" lon="-1.53955">
        <ele>76</ele>
        <time>2022-04-10T09:19:05Z</time>
      </trkpt>
      <trkpt lat="47.28569" lon="-1.53955">
        <ele>76</ele>
        <time>2022-04-10T09:19:06Z</time>
      </trkpt>
      <trkpt lat="47.2857" lon="-1.53956">
        <ele>75</ele>
        <time>2022-04-10T09:19:07Z</time>
      </trkpt>
      <trkpt lat="47.28571" lon="-1.53956">
        <ele>75</ele>
        <time>2022-04-10T09:19:08Z</time>
      </trkpt>
      <trkpt lat="47.28573" lon="-1.53957">
        <ele>75</ele>
        <time>2022-04-10T09:19:09Z</time>
      </trkpt>
      <trkpt lat="47.28573" lon="-1.53958">
        <ele>75</ele>
        <time>2022-04-10T09:19:10Z</time>
      </trkpt>
      <trkpt lat="47.28573" lon="-1.53958">
        <ele>75</ele>
        <time>2022-04-10T09:19:10Z</time>
      </trkpt>
      <trkpt lat="47.28576" lon="-1.53959">
        <ele>75</ele>
        <time>2022-04-10T09:19:12Z</time>
      </trkpt>
      <trkpt lat="47.28576" lon="-1.53961">
        <ele>74</ele>
        <time>2022-04-10T09:19:13Z</time>
      </trkpt>
      <trkpt lat="47.28577" lon="-1.53963">
        <ele>75</ele>
        <time>2022-04-10T09:19:14Z</time>
      </trkpt>
      <trkpt lat="47.28578" lon="-1.53964">
        <ele>75</ele>
        <time>2022-04-10T09:19:15Z</time>
      </trkpt>
      <trkpt lat="47.28578" lon="-1.53964">
        <ele>75</ele>
        <time>2022-04-10T09:19:15Z</time>
      </trkpt>
      <trkpt lat="47.28579" lon="-1.53967">
        <ele>74</ele>
        <time>2022-04-10T09:19:17Z</time>
      </trkpt>
      <trkpt lat="47.28579" lon="-1.53967">
        <ele>74</ele>
        <time>2022-04-10T09:19:18Z</time>
      </trkpt>
      <trkpt lat="47.2858" lon="-1.53968">
        <ele>74</ele>
        <time>2022-04-10T09:19:19Z</time>
      </trkpt>
      <trkpt lat="47.28581" lon="-1.53969">
        <ele>74</ele>
        <time>2022-04-10T09:19:20Z</time>
      </trkpt>
      <trkpt lat="47.28582" lon="-1.5397">
        <ele>74</ele>
        <time>2022-04-10T09:19:21Z</time>
      </trkpt>
      <trkpt lat="47.28583" lon="-1.53972">
        <ele>73</ele>
        <time>2022-04-10T09:19:22Z</time>
      </trkpt>
      <trkpt lat="47.28584" lon="-1.53972">
        <ele>73</ele>
        <time>2022-04-10T09:19:23Z</time>
      </trkpt>
      <trkpt lat="47.28584" lon="-1.53972">
        <ele>73</ele>
        <time>2022-04-10T09:19:24Z</time>
      </trkpt>
      <trkpt lat="47.28584" lon="-1.53973">
        <ele>73</ele>
        <time>2022-04-10T09:19:25Z</time>
      </trkpt>
      <trkpt lat="47.28584" lon="-1.53973">
        <ele>73</ele>
        <time>2022-04-10T09:19:25Z</time>
      </trkpt>
      <trkpt lat="47.28586" lon="-1.53975">
        <ele>73</ele>
        <time>2022-04-10T09:19:27Z</time>
      </trkpt>
      <trkpt lat="47.28587" lon="-1.53975">
        <ele>74</ele>
        <time>2022-04-10T09:19:28Z</time>
      </trkpt>
      <trkpt lat="47.28588" lon="-1.53977">
        <ele>74</ele>
        <time>2022-04-10T09:19:29Z</time>
      </trkpt>
      <trkpt lat="47.28588" lon="-1.53977">
        <ele>74</ele>
        <time>2022-04-10T09:19:29Z</time>
      </trkpt>
      <trkpt lat="47.28589" lon="-1.53979">
        <ele>74</ele>
        <time>2022-04-10T09:19:31Z</time>
      </trkpt>
      <trkpt lat="47.2859" lon="-1.53981">
        <ele>75</ele>
        <time>2022-04-10T09:19:32Z</time>
      </trkpt>
      <trkpt lat="47.28591" lon="-1.53982">
        <ele>75</ele>
        <time>2022-04-10T09:19:33Z</time>
      </trkpt>
      <trkpt lat="47.28592" lon="-1.53982">
        <ele>75</ele>
        <time>2022-04-10T09:19:34Z</time>
      </trkpt>
      <trkpt lat="47.28593" lon="-1.53983">
        <ele>76</ele>
        <time>2022-04-10T09:19:35Z</time>
      </trkpt>
      <trkpt lat="47.28594" lon="-1.53983">
        <ele>76</ele>
        <time>2022-04-10T09:19:36Z</time>
      </trkpt>
      <trkpt lat="47.28595" lon="-1.53984">
        <ele>76</ele>
        <time>2022-04-10T09:19:37Z</time>
      </trkpt>
      <trkpt lat="47.28596" lon="-1.53985">
        <ele>76</ele>
        <time>2022-04-10T09:19:38Z</time>
      </trkpt>
      <trkpt lat="47.28597" lon="-1.53986">
        <ele>77</ele>
        <time>2022-04-10T09:19:39Z</time>
      </trkpt>
      <trkpt lat="47.28598" lon="-1.53987">
        <ele>77</ele>
        <time>2022-04-10T09:19:40Z</time>
      </trkpt>
      <trkpt lat="47.28599" lon="-1.53989">
        <ele>76</ele>
        <time>2022-04-10T09:19:41Z</time>
      </trkpt>
      <trkpt lat="47.286" lon="-1.53989">
        <ele>76</ele>
        <time>2022-04-10T09:19:42Z</time>
      </trkpt>
      <trkpt lat="47.28601" lon="-1.5399">
        <ele>76</ele>
        <time>2022-04-10T09:19:43Z</time>
      </trkpt>
      <trkpt lat="47.28603" lon="-1.5399">
        <ele>76</ele>
        <time>2022-04-10T09:19:44Z</time>
      </trkpt>
      <trkpt lat="47.28603" lon="-1.53991">
        <ele>76</ele>
        <time>2022-04-10T09:19:45Z</time>
      </trkpt>
      <trkpt lat="47.28604" lon="-1.53992">
        <ele>76</ele>
        <time>2022-04-10T09:19:46Z</time>
      </trkpt>
      <trkpt lat="47.28605" lon="-1.53992">
        <ele>76</ele>
        <time>2022-04-10T09:19:47Z</time>
      </trkpt>
      <trkpt lat="47.28605" lon="-1.53993">
        <ele>76</ele>
        <time>2022-04-10T09:19:48Z</time>
      </trkpt>
      <trkpt lat="47.28606" lon="-1.53994">
        <ele>76</ele>
        <time>2022-04-10T09:19:49Z</time>
      </trkpt>
      <trkpt lat="47.28608" lon="-1.53994">
        <ele>77</ele>
        <time>2022-04-10T09:19:50Z</time>
      </trkpt>
      <trkpt lat="47.28608" lon="-1.53996">
        <ele>77</ele>
        <time>2022-04-10T09:19:51Z</time>
      </trkpt>
      <trkpt lat="47.28609" lon="-1.53997">
        <ele>76</ele>
        <time>2022-04-10T09:19:52Z</time>
      </trkpt>
      <trkpt lat="47.2861" lon="-1.53998">
        <ele>76</ele>
        <time>2022-04-10T09:19:53Z</time>
      </trkpt>
      <trkpt lat="47.28611" lon="-1.53998">
        <ele>77</ele>
        <time>2022-04-10T09:19:54Z</time>
      </trkpt>
      <trkpt lat="47.28612" lon="-1.53999">
        <ele>78</ele>
        <time>2022-04-10T09:19:55Z</time>
      </trkpt>
      <trkpt lat="47.28613" lon="-1.53999">
        <ele>78</ele>
        <time>2022-04-10T09:19:56Z</time>
      </trkpt>
      <trkpt lat="47.28613" lon="-1.54">
        <ele>78</ele>
        <time>2022-04-10T09:19:57Z</time>
      </trkpt>
      <trkpt lat="47.28614" lon="-1.54">
        <ele>79</ele>
        <time>2022-04-10T09:19:58Z</time>
      </trkpt>
      <trkpt lat="47.28615" lon="-1.54">
        <ele>79</ele>
        <time>2022-04-10T09:19:59Z</time>
      </trkpt>
      <trkpt lat="47.28616" lon="-1.54001">
        <ele>80</ele>
        <time>2022-04-10T09:20:00Z</time>
      </trkpt>
      <trkpt lat="47.28618" lon="-1.54002">
        <ele>80</ele>
        <time>2022-04-10T09:20:01Z</time>
      </trkpt>
      <trkpt lat="47.28618" lon="-1.54002">
        <ele>81</ele>
        <time>2022-04-10T09:20:02Z</time>
      </trkpt>
      <trkpt lat="47.28619" lon="-1.54003">
        <ele>81</ele>
        <time>2022-04-10T09:20:03Z</time>
      </trkpt>
      <trkpt lat="47.2862" lon="-1.54003">
        <ele>81</ele>
        <time>2022-04-10T09:20:04Z</time>
      </trkpt>
      <trkpt lat="47.28621" lon="-1.54003">
        <ele>81</ele>
        <time>2022-04-10T09:20:05Z</time>
      </trkpt>
      <trkpt lat="47.28621" lon="-1.54004">
        <ele>82</ele>
        <time>2022-04-10T09:20:06Z</time>
      </trkpt>
      <trkpt lat="47.28622" lon="-1.54005">
        <ele>83</ele>
        <time>2022-04-10T09:20:07Z</time>
      </trkpt>
      <trkpt lat="47.28623" lon="-1.54006">
        <ele>83</ele>
        <time>2022-04-10T09:20:08Z</time>
      </trkpt>
      <trkpt lat="47.28624" lon="-1.54007">
        <ele>84</ele>
        <time>2022-04-10T09:20:09Z</time>
      </trkpt>
      <trkpt lat="47.28625" lon="-1.54007">
        <ele>84</ele>
        <time>2022-04-10T09:20:10Z</time>
      </trkpt>
      <trkpt lat="47.28626" lon="-1.54008">
        <ele>84</ele>
        <time>2022-04-10T09:20:11Z</time>
      </trkpt>
      <trkpt lat="47.28627" lon="-1.54008">
        <ele>84</ele>
        <time>2022-04-10T09:20:12Z</time>
      </trkpt>
      <trkpt lat="47.28628" lon="-1.54009">
        <ele>84</ele>
        <time>2022-04-10T09:20:13Z</time>
      </trkpt>
      <trkpt lat="47.28629" lon="-1.54009">
        <ele>85</ele>
        <time>2022-04-10T09:20:14Z</time>
      </trkpt>
      <trkpt lat="47.2863" lon="-1.54009">
        <ele>85</ele>
        <time>2022-04-10T09:20:15Z</time>
      </trkpt>
      <trkpt lat="47.2863" lon="-1.5401">
        <ele>87</ele>
        <time>2022-04-10T09:20:16Z</time>
      </trkpt>
      <trkpt lat="47.28631" lon="-1.54011">
        <ele>88</ele>
        <time>2022-04-10T09:20:17Z</time>
      </trkpt>
      <trkpt lat="47.28632" lon="-1.54011">
        <ele>89</ele>
        <time>2022-04-10T09:20:18Z</time>
      </trkpt>
      <trkpt lat="47.28633" lon="-1.54012">
        <ele>89</ele>
        <time>2022-04-10T09:20:19Z</time>
      </trkpt>
      <trkpt lat="47.28634" lon="-1.54012">
        <ele>88</ele>
        <time>2022-04-10T09:20:20Z</time>
      </trkpt>
      <trkpt lat="47.28635" lon="-1.54013">
        <ele>89</ele>
        <time>2022-04-10T09:20:21Z</time>
      </trkpt>
      <trkpt lat="47.28636" lon="-1.54014">
        <ele>89</ele>
        <time>2022-04-10T09:20:22Z</time>
      </trkpt>
      <trkpt lat="47.28637" lon="-1.54015">
        <ele>89</ele>
        <time>2022-04-10T09:20:23Z</time>
      </trkpt>
      <trkpt lat="47.28639" lon="-1.54016">
        <ele>89</ele>
        <time>2022-04-10T09:20:24Z</time>
      </trkpt>
      <trkpt lat="47.2864" lon="-1.54017">
        <ele>89</ele>
        <time>2022-04-10T09:20:25Z</time>
      </trkpt>
      <trkpt lat="47.28641" lon="-1.54018">
        <ele>89</ele>
        <time>2022-04-10T09:20:26Z</time>
      </trkpt>
      <trkpt lat="47.28642" lon="-1.54018">
        <ele>89</ele>
        <time>2022-04-10T09:20:27Z</time>
      </trkpt>
      <trkpt lat="47.28643" lon="-1.54019">
        <ele>88</ele>
        <time>2022-04-10T09:20:28Z</time>
      </trkpt>
      <trkpt lat="47.28644" lon="-1.54019">
        <ele>88</ele>
        <time>2022-04-10T09:20:29Z</time>
      </trkpt>
      <trkpt lat="47.28645" lon="-1.5402">
        <ele>87</ele>
        <time>2022-04-10T09:20:30Z</time>
      </trkpt>
      <trkpt lat="47.28646" lon="-1.54021">
        <ele>87</ele>
        <time>2022-04-10T09:20:31Z</time>
      </trkpt>
      <trkpt lat="47.28647" lon="-1.54021">
        <ele>88</ele>
        <time>2022-04-10T09:20:32Z</time>
      </trkpt>
      <trkpt lat="47.28647" lon="-1.54021">
        <ele>88</ele>
        <time>2022-04-10T09:20:33Z</time>
      </trkpt>
      <trkpt lat="47.28648" lon="-1.54022">
        <ele>87</ele>
        <time>2022-04-10T09:20:34Z</time>
      </trkpt>
      <trkpt lat="47.2865" lon="-1.54022">
        <ele>86</ele>
        <time>2022-04-10T09:20:35Z</time>
      </trkpt>
      <trkpt lat="47.28651" lon="-1.54022">
        <ele>85</ele>
        <time>2022-04-10T09:20:36Z</time>
      </trkpt>
      <trkpt lat="47.28653" lon="-1.54023">
        <ele>84</ele>
        <time>2022-04-10T09:20:37Z</time>
      </trkpt>
      <trkpt lat="47.28655" lon="-1.54025">
        <ele>84</ele>
        <time>2022-04-10T09:20:38Z</time>
      </trkpt>
      <trkpt lat="47.28656" lon="-1.54026">
        <ele>83</ele>
        <time>2022-04-10T09:20:39Z</time>
      </trkpt>
      <trkpt lat="47.28657" lon="-1.54026">
        <ele>82</ele>
        <time>2022-04-10T09:20:40Z</time>
      </trkpt>
      <trkpt lat="47.28658" lon="-1.54027">
        <ele>81</ele>
        <time>2022-04-10T09:20:41Z</time>
      </trkpt>
      <trkpt lat="47.28659" lon="-1.54028">
        <ele>80</ele>
        <time>2022-04-10T09:20:42Z</time>
      </trkpt>
      <trkpt lat="47.2866" lon="-1.54028">
        <ele>80</ele>
        <time>2022-04-10T09:20:43Z</time>
      </trkpt>
      <trkpt lat="47.28662" lon="-1.54029">
        <ele>80</ele>
        <time>2022-04-10T09:20:44Z</time>
      </trkpt>
      <trkpt lat="47.28663" lon="-1.5403">
        <ele>80</ele>
        <time>2022-04-10T09:20:45Z</time>
      </trkpt>
      <trkpt lat="47.28663" lon="-1.54031">
        <ele>80</ele>
        <time>2022-04-10T09:20:46Z</time>
      </trkpt>
      <trkpt lat="47.28664" lon="-1.54031">
        <ele>81</ele>
        <time>2022-04-10T09:20:47Z</time>
      </trkpt>
      <trkpt lat="47.28665" lon="-1.54032">
        <ele>81</ele>
        <time>2022-04-10T09:20:48Z</time>
      </trkpt>
      <trkpt lat="47.28666" lon="-1.54032">
        <ele>82</ele>
        <time>2022-04-10T09:20:49Z</time>
      </trkpt>
      <trkpt lat="47.28667" lon="-1.54032">
        <ele>82</ele>
        <time>2022-04-10T09:20:50Z</time>
      </trkpt>
      <trkpt lat="47.28668" lon="-1.54033">
        <ele>82</ele>
        <time>2022-04-10T09:20:51Z</time>
      </trkpt>
      <trkpt lat="47.28669" lon="-1.54033">
        <ele>83</ele>
        <time>2022-04-10T09:20:52Z</time>
      </trkpt>
      <trkpt lat="47.2867" lon="-1.54033">
        <ele>83</ele>
        <time>2022-04-10T09:20:53Z</time>
      </trkpt>
      <trkpt lat="47.28671" lon="-1.54033">
        <ele>83</ele>
        <time>2022-04-10T09:20:54Z</time>
      </trkpt>
      <trkpt lat="47.28672" lon="-1.54033">
        <ele>83</ele>
        <time>2022-04-10T09:20:55Z</time>
      </trkpt>
      <trkpt lat="47.28672" lon="-1.54033">
        <ele>83</ele>
        <time>2022-04-10T09:20:56Z</time>
      </trkpt>
      <trkpt lat="47.28674" lon="-1.54033">
        <ele>83</ele>
        <time>2022-04-10T09:20:57Z</time>
      </trkpt>
      <trkpt lat="47.28674" lon="-1.54034">
        <ele>83</ele>
        <time>2022-04-10T09:20:58Z</time>
      </trkpt>
      <trkpt lat="47.28675" lon="-1.54034">
        <ele>83</ele>
        <time>2022-04-10T09:20:59Z</time>
      </trkpt>
      <trkpt lat="47.28676" lon="-1.54034">
        <ele>84</ele>
        <time>2022-04-10T09:21:00Z</time>
      </trkpt>
      <trkpt lat="47.28677" lon="-1.54034">
        <ele>84</ele>
        <time>2022-04-10T09:21:01Z</time>
      </trkpt>
      <trkpt lat="47.28678" lon="-1.54034">
        <ele>84</ele>
        <time>2022-04-10T09:21:02Z</time>
      </trkpt>
      <trkpt lat="47.28679" lon="-1.54035">
        <ele>84</ele>
        <time>2022-04-10T09:21:03Z</time>
      </trkpt>
      <trkpt lat="47.2868" lon="-1.54036">
        <ele>83</ele>
        <time>2022-04-10T09:21:04Z</time>
      </trkpt>
      <trkpt lat="47.28681" lon="-1.54036">
        <ele>83</ele>
        <time>2022-04-10T09:21:05Z</time>
      </trkpt>
      <trkpt lat="47.28682" lon="-1.54037">
        <ele>83</ele>
        <time>2022-04-10T09:21:06Z</time>
      </trkpt>
      <trkpt lat="47.28683" lon="-1.54037">
        <ele>83</ele>
        <time>2022-04-10T09:21:07Z</time>
      </trkpt>
      <trkpt lat="47.28684" lon="-1.54038">
        <ele>84</ele>
        <time>2022-04-10T09:21:08Z</time>
      </trkpt>
      <trkpt lat="47.28686" lon="-1.54038">
        <ele>84</ele>
        <time>2022-04-10T09:21:09Z</time>
      </trkpt>
      <trkpt lat="47.28686" lon="-1.54038">
        <ele>84</ele>
        <time>2022-04-10T09:21:10Z</time>
      </trkpt>
      <trkpt lat="47.28687" lon="-1.54039">
        <ele>84</ele>
        <time>2022-04-10T09:21:11Z</time>
      </trkpt>
      <trkpt lat="47.28688" lon="-1.54039">
        <ele>84</ele>
        <time>2022-04-10T09:21:12Z</time>
      </trkpt>
      <trkpt lat="47.2869" lon="-1.5404">
        <ele>84</ele>
        <time>2022-04-10T09:21:13Z</time>
      </trkpt>
      <trkpt lat="47.28691" lon="-1.5404">
        <ele>83</ele>
        <time>2022-04-10T09:21:14Z</time>
      </trkpt>
      <trkpt lat="47.28692" lon="-1.5404">
        <ele>83</ele>
        <time>2022-04-10T09:21:15Z</time>
      </trkpt>
      <trkpt lat="47.28693" lon="-1.54041">
        <ele>83</ele>
        <time>2022-04-10T09:21:16Z</time>
      </trkpt>
      <trkpt lat="47.28694" lon="-1.54041">
        <ele>83</ele>
        <time>2022-04-10T09:21:17Z</time>
      </trkpt>
      <trkpt lat="47.28695" lon="-1.54042">
        <ele>82</ele>
        <time>2022-04-10T09:21:18Z</time>
      </trkpt>
      <trkpt lat="47.28696" lon="-1.54042">
        <ele>83</ele>
        <time>2022-04-10T09:21:19Z</time>
      </trkpt>
      <trkpt lat="47.28697" lon="-1.54043">
        <ele>82</ele>
        <time>2022-04-10T09:21:20Z</time>
      </trkpt>
      <trkpt lat="47.28698" lon="-1.54044">
        <ele>82</ele>
        <time>2022-04-10T09:21:21Z</time>
      </trkpt>
      <trkpt lat="47.287" lon="-1.54045">
        <ele>82</ele>
        <time>2022-04-10T09:21:22Z</time>
      </trkpt>
      <trkpt lat="47.28701" lon="-1.54045">
        <ele>82</ele>
        <time>2022-04-10T09:21:23Z</time>
      </trkpt>
      <trkpt lat="47.28702" lon="-1.54045">
        <ele>83</ele>
        <time>2022-04-10T09:21:24Z</time>
      </trkpt>
      <trkpt lat="47.28703" lon="-1.54045">
        <ele>83</ele>
        <time>2022-04-10T09:21:25Z</time>
      </trkpt>
      <trkpt lat="47.28705" lon="-1.54045">
        <ele>83</ele>
        <time>2022-04-10T09:21:26Z</time>
      </trkpt>
      <trkpt lat="47.28706" lon="-1.54046">
        <ele>83</ele>
        <time>2022-04-10T09:21:27Z</time>
      </trkpt>
      <trkpt lat="47.28708" lon="-1.54047">
        <ele>82</ele>
        <time>2022-04-10T09:21:28Z</time>
      </trkpt>
      <trkpt lat="47.28709" lon="-1.54048">
        <ele>82</ele>
        <time>2022-04-10T09:21:29Z</time>
      </trkpt>
      <trkpt lat="47.28711" lon="-1.54049">
        <ele>82</ele>
        <time>2022-04-10T09:21:30Z</time>
      </trkpt>
      <trkpt lat="47.28712" lon="-1.54049">
        <ele>83</ele>
        <time>2022-04-10T09:21:31Z</time>
      </trkpt>
      <trkpt lat="47.28712" lon="-1.5405">
        <ele>85</ele>
        <time>2022-04-10T09:21:32Z</time>
      </trkpt>
      <trkpt lat="47.28713" lon="-1.54051">
        <ele>86</ele>
        <time>2022-04-10T09:21:33Z</time>
      </trkpt>
      <trkpt lat="47.28714" lon="-1.54051">
        <ele>86</ele>
        <time>2022-04-10T09:21:34Z</time>
      </trkpt>
      <trkpt lat="47.28714" lon="-1.54052">
        <ele>85</ele>
        <time>2022-04-10T09:21:35Z</time>
      </trkpt>
      <trkpt lat="47.28715" lon="-1.54053">
        <ele>84</ele>
        <time>2022-04-10T09:21:36Z</time>
      </trkpt>
      <trkpt lat="47.28715" lon="-1.54053">
        <ele>84</ele>
        <time>2022-04-10T09:21:37Z</time>
      </trkpt>
      <trkpt lat="47.28717" lon="-1.54055">
        <ele>83</ele>
        <time>2022-04-10T09:21:38Z</time>
      </trkpt>
      <trkpt lat="47.28717" lon="-1.54056">
        <ele>83</ele>
        <time>2022-04-10T09:21:39Z</time>
      </trkpt>
      <trkpt lat="47.28719" lon="-1.54057">
        <ele>82</ele>
        <time>2022-04-10T09:21:40Z</time>
      </trkpt>
      <trkpt lat="47.2872" lon="-1.54057">
        <ele>82</ele>
        <time>2022-04-10T09:21:41Z</time>
      </trkpt>
      <trkpt lat="47.28721" lon="-1.54057">
        <ele>82</ele>
        <time>2022-04-10T09:21:42Z</time>
      </trkpt>
      <trkpt lat="47.28722" lon="-1.54057">
        <ele>82</ele>
        <time>2022-04-10T09:21:43Z</time>
      </trkpt>
      <trkpt lat="47.28723" lon="-1.54057">
        <ele>82</ele>
        <time>2022-04-10T09:21:44Z</time>
      </trkpt>
      <trkpt lat="47.28723" lon="-1.54057">
        <ele>82</ele>
        <time>2022-04-10T09:21:45Z</time>
      </trkpt>
      <trkpt lat="47.28724" lon="-1.54057">
        <ele>82</ele>
        <time>2022-04-10T09:21:46Z</time>
      </trkpt>
      <trkpt lat="47.28725" lon="-1.54058">
        <ele>82</ele>
        <time>2022-04-10T09:21:47Z</time>
      </trkpt>
      <trkpt lat="47.28727" lon="-1.54058">
        <ele>81</ele>
        <time>2022-04-10T09:21:48Z</time>
      </trkpt>
      <trkpt lat="47.28728" lon="-1.54058">
        <ele>82</ele>
        <time>2022-04-10T09:21:49Z</time>
      </trkpt>
      <trkpt lat="47.2873" lon="-1.54058">
        <ele>82</ele>
        <time>2022-04-10T09:21:50Z</time>
      </trkpt>
      <trkpt lat="47.2873" lon="-1.54059">
        <ele>82</ele>
        <time>2022-04-10T09:21:51Z</time>
      </trkpt>
      <trkpt lat="47.28732" lon="-1.54059">
        <ele>82</ele>
        <time>2022-04-10T09:21:52Z</time>
      </trkpt>
      <trkpt lat="47.28732" lon="-1.5406">
        <ele>82</ele>
        <time>2022-04-10T09:21:53Z</time>
      </trkpt>
      <trkpt lat="47.28733" lon="-1.5406">
        <ele>82</ele>
        <time>2022-04-10T09:21:54Z</time>
      </trkpt>
      <trkpt lat="47.28734" lon="-1.54061">
        <ele>82</ele>
        <time>2022-04-10T09:21:55Z</time>
      </trkpt>
      <trkpt lat="47.28735" lon="-1.54061">
        <ele>83</ele>
        <time>2022-04-10T09:21:56Z</time>
      </trkpt>
      <trkpt lat="47.28736" lon="-1.54061">
        <ele>83</ele>
        <time>2022-04-10T09:21:57Z</time>
      </trkpt>
      <trkpt lat="47.28737" lon="-1.54062">
        <ele>83</ele>
        <time>2022-04-10T09:21:58Z</time>
      </trkpt>
      <trkpt lat="47.28738" lon="-1.54063">
        <ele>83</ele>
        <time>2022-04-10T09:21:59Z</time>
      </trkpt>
      <trkpt lat="47.2874" lon="-1.54063">
        <ele>83</ele>
        <time>2022-04-10T09:22:00Z</time>
      </trkpt>
      <trkpt lat="47.28741" lon="-1.54063">
        <ele>84</ele>
        <time>2022-04-10T09:22:01Z</time>
      </trkpt>
      <trkpt lat="47.28742" lon="-1.54064">
        <ele>84</ele>
        <time>2022-04-10T09:22:02Z</time>
      </trkpt>
      <trkpt lat="47.28743" lon="-1.54064">
        <ele>84</ele>
        <time>2022-04-10T09:22:03Z</time>
      </trkpt>
      <trkpt lat="47.28745" lon="-1.54065">
        <ele>84</ele>
        <time>2022-04-10T09:22:04Z</time>
      </trkpt>
      <trkpt lat="47.28745" lon="-1.54066">
        <ele>84</ele>
        <time>2022-04-10T09:22:05Z</time>
      </trkpt>
      <trkpt lat="47.28747" lon="-1.54065">
        <ele>84</ele>
        <time>2022-04-10T09:22:06Z</time>
      </trkpt>
      <trkpt lat="47.28748" lon="-1.54066">
        <ele>85</ele>
        <time>2022-04-10T09:22:07Z</time>
      </trkpt>
      <trkpt lat="47.28749" lon="-1.54066">
        <ele>85</ele>
        <time>2022-04-10T09:22:08Z</time>
      </trkpt>
      <trkpt lat="47.2875" lon="-1.54067">
        <ele>85</ele>
        <time>2022-04-10T09:22:09Z</time>
      </trkpt>
      <trkpt lat="47.28751" lon="-1.54068">
        <ele>85</ele>
        <time>2022-04-10T09:22:10Z</time>
      </trkpt>
      <trkpt lat="47.28752" lon="-1.54068">
        <ele>85</ele>
        <time>2022-04-10T09:22:11Z</time>
      </trkpt>
      <trkpt lat="47.28753" lon="-1.54069">
        <ele>85</ele>
        <time>2022-04-10T09:22:12Z</time>
      </trkpt>
      <trkpt lat="47.28754" lon="-1.54069">
        <ele>85</ele>
        <time>2022-04-10T09:22:13Z</time>
      </trkpt>
      <trkpt lat="47.28755" lon="-1.54069">
        <ele>84</ele>
        <time>2022-04-10T09:22:14Z</time>
      </trkpt>
      <trkpt lat="47.28756" lon="-1.54071">
        <ele>84</ele>
        <time>2022-04-10T09:22:15Z</time>
      </trkpt>
      <trkpt lat="47.28758" lon="-1.54071">
        <ele>84</ele>
        <time>2022-04-10T09:22:16Z</time>
      </trkpt>
      <trkpt lat="47.28759" lon="-1.54072">
        <ele>84</ele>
        <time>2022-04-10T09:22:17Z</time>
      </trkpt>
      <trkpt lat="47.2876" lon="-1.54072">
        <ele>84</ele>
        <time>2022-04-10T09:22:18Z</time>
      </trkpt>
      <trkpt lat="47.28761" lon="-1.54073">
        <ele>84</ele>
        <time>2022-04-10T09:22:19Z</time>
      </trkpt>
      <trkpt lat="47.28762" lon="-1.54074">
        <ele>84</ele>
        <time>2022-04-10T09:22:20Z</time>
      </trkpt>
      <trkpt lat="47.28763" lon="-1.54074">
        <ele>84</ele>
        <time>2022-04-10T09:22:21Z</time>
      </trkpt>
      <trkpt lat="47.28764" lon="-1.54074">
        <ele>84</ele>
        <time>2022-04-10T09:22:22Z</time>
      </trkpt>
      <trkpt lat="47.28766" lon="-1.54075">
        <ele>83</ele>
        <time>2022-04-10T09:22:23Z</time>
      </trkpt>
      <trkpt lat="47.28767" lon="-1.54076">
        <ele>83</ele>
        <time>2022-04-10T09:22:24Z</time>
      </trkpt>
      <trkpt lat="47.28768" lon="-1.54077">
        <ele>83</ele>
        <time>2022-04-10T09:22:25Z</time>
      </trkpt>
      <trkpt lat="47.28769" lon="-1.54077">
        <ele>83</ele>
        <time>2022-04-10T09:22:26Z</time>
      </trkpt>
      <trkpt lat="47.2877" lon="-1.54077">
        <ele>82</ele>
        <time>2022-04-10T09:22:27Z</time>
      </trkpt>
      <trkpt lat="47.28771" lon="-1.54078">
        <ele>83</ele>
        <time>2022-04-10T09:22:28Z</time>
      </trkpt>
      <trkpt lat="47.28772" lon="-1.54078">
        <ele>83</ele>
        <time>2022-04-10T09:22:29Z</time>
      </trkpt>
      <trkpt lat="47.28774" lon="-1.54079">
        <ele>83</ele>
        <time>2022-04-10T09:22:30Z</time>
      </trkpt>
      <trkpt lat="47.28775" lon="-1.5408">
        <ele>83</ele>
        <time>2022-04-10T09:22:31Z</time>
      </trkpt>
      <trkpt lat="47.28777" lon="-1.5408">
        <ele>83</ele>
        <time>2022-04-10T09:22:32Z</time>
      </trkpt>
      <trkpt lat="47.28778" lon="-1.54081">
        <ele>83</ele>
        <time>2022-04-10T09:22:33Z</time>
      </trkpt>
      <trkpt lat="47.28779" lon="-1.54081">
        <ele>83</ele>
        <time>2022-04-10T09:22:34Z</time>
      </trkpt>
      <trkpt lat="47.2878" lon="-1.54082">
        <ele>83</ele>
        <time>2022-04-10T09:22:35Z</time>
      </trkpt>
      <trkpt lat="47.28781" lon="-1.54082">
        <ele>83</ele>
        <time>2022-04-10T09:22:36Z</time>
      </trkpt>
      <trkpt lat="47.28782" lon="-1.54083">
        <ele>82</ele>
        <time>2022-04-10T09:22:37Z</time>
      </trkpt>
      <trkpt lat="47.28783" lon="-1.54083">
        <ele>82</ele>
        <time>2022-04-10T09:22:38Z</time>
      </trkpt>
      <trkpt lat="47.28784" lon="-1.54084">
        <ele>81</ele>
        <time>2022-04-10T09:22:39Z</time>
      </trkpt>
      <trkpt lat="47.28786" lon="-1.54084">
        <ele>80</ele>
        <time>2022-04-10T09:22:40Z</time>
      </trkpt>
      <trkpt lat="47.28787" lon="-1.54084">
        <ele>80</ele>
        <time>2022-04-10T09:22:41Z</time>
      </trkpt>
      <trkpt lat="47.28789" lon="-1.54084">
        <ele>80</ele>
        <time>2022-04-10T09:22:42Z</time>
      </trkpt>
      <trkpt lat="47.2879" lon="-1.54084">
        <ele>80</ele>
        <time>2022-04-10T09:22:43Z</time>
      </trkpt>
      <trkpt lat="47.28792" lon="-1.54084">
        <ele>79</ele>
        <time>2022-04-10T09:22:44Z</time>
      </trkpt>
      <trkpt lat="47.28794" lon="-1.54084">
        <ele>79</ele>
        <time>2022-04-10T09:22:45Z</time>
      </trkpt>
      <trkpt lat="47.28795" lon="-1.54084">
        <ele>79</ele>
        <time>2022-04-10T09:22:46Z</time>
      </trkpt>
      <trkpt lat="47.28796" lon="-1.54084">
        <ele>79</ele>
        <time>2022-04-10T09:22:47Z</time>
      </trkpt>
      <trkpt lat="47.28798" lon="-1.54084">
        <ele>79</ele>
        <time>2022-04-10T09:22:48Z</time>
      </trkpt>
      <trkpt lat="47.28799" lon="-1.54084">
        <ele>79</ele>
        <time>2022-04-10T09:22:49Z</time>
      </trkpt>
      <trkpt lat="47.288" lon="-1.54083">
        <ele>79</ele>
        <time>2022-04-10T09:22:50Z</time>
      </trkpt>
      <trkpt lat="47.28801" lon="-1.54083">
        <ele>80</ele>
        <time>2022-04-10T09:22:51Z</time>
      </trkpt>
      <trkpt lat="47.28803" lon="-1.54083">
        <ele>80</ele>
        <time>2022-04-10T09:22:52Z</time>
      </trkpt>
      <trkpt lat="47.28804" lon="-1.54083">
        <ele>80</ele>
        <time>2022-04-10T09:22:53Z</time>
      </trkpt>
      <trkpt lat="47.28804" lon="-1.54082">
        <ele>79</ele>
        <time>2022-04-10T09:22:54Z</time>
      </trkpt>
      <trkpt lat="47.28806" lon="-1.54081">
        <ele>79</ele>
        <time>2022-04-10T09:22:55Z</time>
      </trkpt>
      <trkpt lat="47.28807" lon="-1.54082">
        <ele>79</ele>
        <time>2022-04-10T09:22:56Z</time>
      </trkpt>
      <trkpt lat="47.28808" lon="-1.54082">
        <ele>79</ele>
        <time>2022-04-10T09:22:57Z</time>
      </trkpt>
      <trkpt lat="47.28809" lon="-1.54082">
        <ele>79</ele>
        <time>2022-04-10T09:22:58Z</time>
      </trkpt>
      <trkpt lat="47.2881" lon="-1.54082">
        <ele>79</ele>
        <time>2022-04-10T09:22:59Z</time>
      </trkpt>
      <trkpt lat="47.28811" lon="-1.54082">
        <ele>79</ele>
        <time>2022-04-10T09:23:00Z</time>
      </trkpt>
      <trkpt lat="47.28812" lon="-1.54081">
        <ele>78</ele>
        <time>2022-04-10T09:23:01Z</time>
      </trkpt>
      <trkpt lat="47.28813" lon="-1.54082">
        <ele>77</ele>
        <time>2022-04-10T09:23:02Z</time>
      </trkpt>
      <trkpt lat="47.28814" lon="-1.54081">
        <ele>77</ele>
        <time>2022-04-10T09:23:03Z</time>
      </trkpt>
      <trkpt lat="47.28815" lon="-1.54081">
        <ele>77</ele>
        <time>2022-04-10T09:23:04Z</time>
      </trkpt>
      <trkpt lat="47.28816" lon="-1.54081">
        <ele>76</ele>
        <time>2022-04-10T09:23:05Z</time>
      </trkpt>
      <trkpt lat="47.28817" lon="-1.54081">
        <ele>76</ele>
        <time>2022-04-10T09:23:06Z</time>
      </trkpt>
      <trkpt lat="47.28817" lon="-1.54081">
        <ele>76</ele>
        <time>2022-04-10T09:23:07Z</time>
      </trkpt>
      <trkpt lat="47.28818" lon="-1.5408">
        <ele>76</ele>
        <time>2022-04-10T09:23:08Z</time>
      </trkpt>
      <trkpt lat="47.28819" lon="-1.5408">
        <ele>77</ele>
        <time>2022-04-10T09:23:09Z</time>
      </trkpt>
      <trkpt lat="47.28819" lon="-1.5408">
        <ele>77</ele>
        <time>2022-04-10T09:23:10Z</time>
      </trkpt>
      <trkpt lat="47.2882" lon="-1.5408">
        <ele>76</ele>
        <time>2022-04-10T09:23:11Z</time>
      </trkpt>
      <trkpt lat="47.28821" lon="-1.5408">
        <ele>75</ele>
        <time>2022-04-10T09:23:12Z</time>
      </trkpt>
      <trkpt lat="47.28821" lon="-1.5408">
        <ele>76</ele>
        <time>2022-04-10T09:23:13Z</time>
      </trkpt>
      <trkpt lat="47.28821" lon="-1.54079">
        <ele>75</ele>
        <time>2022-04-10T09:23:14Z</time>
      </trkpt>
      <trkpt lat="47.28821" lon="-1.54079">
        <ele>75</ele>
        <time>2022-04-10T09:23:14Z</time>
      </trkpt>
      <trkpt lat="47.28821" lon="-1.54079">
        <ele>75</ele>
        <time>2022-04-10T09:23:14Z</time>
      </trkpt>
      <trkpt lat="47.28825" lon="-1.54077">
        <ele>73</ele>
        <time>2022-04-10T09:23:35Z</time>
      </trkpt>
      <trkpt lat="47.28825" lon="-1.54075">
        <ele>73</ele>
        <time>2022-04-10T09:23:36Z</time>
      </trkpt>
      <trkpt lat="47.28825" lon="-1.54074">
        <ele>73</ele>
        <time>2022-04-10T09:23:37Z</time>
      </trkpt>
      <trkpt lat="47.28825" lon="-1.54072">
        <ele>73</ele>
        <time>2022-04-10T09:23:38Z</time>
      </trkpt>
      <trkpt lat="47.28825" lon="-1.54071">
        <ele>73</ele>
        <time>2022-04-10T09:23:39Z</time>
      </trkpt>
      <trkpt lat="47.28825" lon="-1.5407">
        <ele>72</ele>
        <time>2022-04-10T09:23:40Z</time>
      </trkpt>
      <trkpt lat="47.28826" lon="-1.54068">
        <ele>72</ele>
        <time>2022-04-10T09:23:41Z</time>
      </trkpt>
      <trkpt lat="47.28826" lon="-1.54067">
        <ele>72</ele>
        <time>2022-04-10T09:23:42Z</time>
      </trkpt>
      <trkpt lat="47.28826" lon="-1.54065">
        <ele>73</ele>
        <time>2022-04-10T09:23:43Z</time>
      </trkpt>
      <trkpt lat="47.28826" lon="-1.54064">
        <ele>73</ele>
        <time>2022-04-10T09:23:44Z</time>
      </trkpt>
      <trkpt lat="47.28826" lon="-1.54063">
        <ele>73</ele>
        <time>2022-04-10T09:23:45Z</time>
      </trkpt>
      <trkpt lat="47.28827" lon="-1.54062">
        <ele>73</ele>
        <time>2022-04-10T09:23:46Z</time>
      </trkpt>
      <trkpt lat="47.28827" lon="-1.5406">
        <ele>72</ele>
        <time>2022-04-10T09:23:47Z</time>
      </trkpt>
      <trkpt lat="47.28827" lon="-1.5406">
        <ele>73</ele>
        <time>2022-04-10T09:23:48Z</time>
      </trkpt>
      <trkpt lat="47.28827" lon="-1.5406">
        <ele>73</ele>
        <time>2022-04-10T09:23:49Z</time>
      </trkpt>
      <trkpt lat="47.28827" lon="-1.5406">
        <ele>73</ele>
        <time>2022-04-10T09:23:50Z</time>
      </trkpt>
      <trkpt lat="47.28827" lon="-1.5406">
        <ele>73</ele>
        <time>2022-04-10T09:23:51Z</time>
      </trkpt>
      <trkpt lat="47.28827" lon="-1.54058">
        <ele>73</ele>
        <time>2022-04-10T09:23:52Z</time>
      </trkpt>
      <trkpt lat="47.28827" lon="-1.54056">
        <ele>73</ele>
        <time>2022-04-10T09:23:53Z</time>
      </trkpt>
      <trkpt lat="47.28827" lon="-1.54055">
        <ele>72</ele>
        <time>2022-04-10T09:23:54Z</time>
      </trkpt>
      <trkpt lat="47.28827" lon="-1.54053">
        <ele>73</ele>
        <time>2022-04-10T09:23:55Z</time>
      </trkpt>
      <trkpt lat="47.28827" lon="-1.5405">
        <ele>72</ele>
        <time>2022-04-10T09:23:56Z</time>
      </trkpt>
      <trkpt lat="47.28827" lon="-1.54048">
        <ele>73</ele>
        <time>2022-04-10T09:23:57Z</time>
      </trkpt>
      <trkpt lat="47.28828" lon="-1.54046">
        <ele>73</ele>
        <time>2022-04-10T09:23:58Z</time>
      </trkpt>
      <trkpt lat="47.28828" lon="-1.54043">
        <ele>73</ele>
        <time>2022-04-10T09:23:59Z</time>
      </trkpt>
      <trkpt lat="47.28828" lon="-1.54041">
        <ele>73</ele>
        <time>2022-04-10T09:24:00Z</time>
      </trkpt>
      <trkpt lat="47.28828" lon="-1.5404">
        <ele>73</ele>
        <time>2022-04-10T09:24:01Z</time>
      </trkpt>
      <trkpt lat="47.28829" lon="-1.54039">
        <ele>72</ele>
        <time>2022-04-10T09:24:02Z</time>
      </trkpt>
      <trkpt lat="47.2883" lon="-1.54037">
        <ele>73</ele>
        <time>2022-04-10T09:24:03Z</time>
      </trkpt>
      <trkpt lat="47.2883" lon="-1.54037">
        <ele>73</ele>
        <time>2022-04-10T09:24:04Z</time>
      </trkpt>
      <trkpt lat="47.2883" lon="-1.54035">
        <ele>73</ele>
        <time>2022-04-10T09:24:05Z</time>
      </trkpt>
      <trkpt lat="47.2883" lon="-1.54034">
        <ele>73</ele>
        <time>2022-04-10T09:24:06Z</time>
      </trkpt>
      <trkpt lat="47.2883" lon="-1.54034">
        <ele>73</ele>
        <time>2022-04-10T09:24:07Z</time>
      </trkpt>
      <trkpt lat="47.2883" lon="-1.54034">
        <ele>73</ele>
        <time>2022-04-10T09:24:08Z</time>
      </trkpt>
      <trkpt lat="47.28831" lon="-1.5403">
        <ele>73</ele>
        <time>2022-04-10T09:24:09Z</time>
      </trkpt>
      <trkpt lat="47.28831" lon="-1.54028">
        <ele>73</ele>
        <time>2022-04-10T09:24:10Z</time>
      </trkpt>
      <trkpt lat="47.28832" lon="-1.54027">
        <ele>73</ele>
        <time>2022-04-10T09:24:11Z</time>
      </trkpt>
      <trkpt lat="47.28832" lon="-1.54024">
        <ele>72</ele>
        <time>2022-04-10T09:24:12Z</time>
      </trkpt>
      <trkpt lat="47.28832" lon="-1.54022">
        <ele>72</ele>
        <time>2022-04-10T09:24:13Z</time>
      </trkpt>
      <trkpt lat="47.28832" lon="-1.5402">
        <ele>72</ele>
        <time>2022-04-10T09:24:14Z</time>
      </trkpt>
      <trkpt lat="47.28832" lon="-1.54018">
        <ele>72</ele>
        <time>2022-04-10T09:24:15Z</time>
      </trkpt>
      <trkpt lat="47.28832" lon="-1.54017">
        <ele>72</ele>
        <time>2022-04-10T09:24:16Z</time>
      </trkpt>
      <trkpt lat="47.28832" lon="-1.54017">
        <ele>72</ele>
        <time>2022-04-10T09:24:17Z</time>
      </trkpt>
      <trkpt lat="47.28832" lon="-1.54017">
        <ele>72</ele>
        <time>2022-04-10T09:24:18Z</time>
      </trkpt>
      <trkpt lat="47.28832" lon="-1.54014">
        <ele>71</ele>
        <time>2022-04-10T09:24:19Z</time>
      </trkpt>
      <trkpt lat="47.28833" lon="-1.54012">
        <ele>72</ele>
        <time>2022-04-10T09:24:20Z</time>
      </trkpt>
      <trkpt lat="47.28833" lon="-1.5401">
        <ele>72</ele>
        <time>2022-04-10T09:24:21Z</time>
      </trkpt>
      <trkpt lat="47.28833" lon="-1.54008">
        <ele>71</ele>
        <time>2022-04-10T09:24:22Z</time>
      </trkpt>
      <trkpt lat="47.28833" lon="-1.54006">
        <ele>72</ele>
        <time>2022-04-10T09:24:23Z</time>
      </trkpt>
      <trkpt lat="47.28833" lon="-1.54004">
        <ele>71</ele>
        <time>2022-04-10T09:24:24Z</time>
      </trkpt>
      <trkpt lat="47.28833" lon="-1.54002">
        <ele>71</ele>
        <time>2022-04-10T09:24:25Z</time>
      </trkpt>
      <trkpt lat="47.28833" lon="-1.54">
        <ele>71</ele>
        <time>2022-04-10T09:24:26Z</time>
      </trkpt>
      <trkpt lat="47.28833" lon="-1.53999">
        <ele>71</ele>
        <time>2022-04-10T09:24:27Z</time>
      </trkpt>
      <trkpt lat="47.28833" lon="-1.53997">
        <ele>70</ele>
        <time>2022-04-10T09:24:28Z</time>
      </trkpt>
      <trkpt lat="47.28834" lon="-1.53994">
        <ele>71</ele>
        <time>2022-04-10T09:24:29Z</time>
      </trkpt>
      <trkpt lat="47.28833" lon="-1.53993">
        <ele>70</ele>
        <time>2022-04-10T09:24:30Z</time>
      </trkpt>
      <trkpt lat="47.28834" lon="-1.53991">
        <ele>70</ele>
        <time>2022-04-10T09:24:31Z</time>
      </trkpt>
      <trkpt lat="47.28834" lon="-1.53989">
        <ele>70</ele>
        <time>2022-04-10T09:24:32Z</time>
      </trkpt>
      <trkpt lat="47.28834" lon="-1.53988">
        <ele>70</ele>
        <time>2022-04-10T09:24:33Z</time>
      </trkpt>
      <trkpt lat="47.28834" lon="-1.53987">
        <ele>70</ele>
        <time>2022-04-10T09:24:34Z</time>
      </trkpt>
      <trkpt lat="47.28834" lon="-1.53985">
        <ele>70</ele>
        <time>2022-04-10T09:24:35Z</time>
      </trkpt>
      <trkpt lat="47.28834" lon="-1.53984">
        <ele>70</ele>
        <time>2022-04-10T09:24:36Z</time>
      </trkpt>
      <trkpt lat="47.28834" lon="-1.53982">
        <ele>70</ele>
        <time>2022-04-10T09:24:37Z</time>
      </trkpt>
      <trkpt lat="47.28834" lon="-1.53981">
        <ele>69</ele>
        <time>2022-04-10T09:24:38Z</time>
      </trkpt>
      <trkpt lat="47.28835" lon="-1.53979">
        <ele>70</ele>
        <time>2022-04-10T09:24:39Z</time>
      </trkpt>
      <trkpt lat="47.28835" lon="-1.53978">
        <ele>70</ele>
        <time>2022-04-10T09:24:40Z</time>
      </trkpt>
      <trkpt lat="47.28836" lon="-1.53976">
        <ele>69</ele>
        <time>2022-04-10T09:24:41Z</time>
      </trkpt>
      <trkpt lat="47.28836" lon="-1.53975">
        <ele>69</ele>
        <time>2022-04-10T09:24:42Z</time>
      </trkpt>
      <trkpt lat="47.28836" lon="-1.53973">
        <ele>69</ele>
        <time>2022-04-10T09:24:43Z</time>
      </trkpt>
      <trkpt lat="47.28836" lon="-1.53972">
        <ele>69</ele>
        <time>2022-04-10T09:24:44Z</time>
      </trkpt>
      <trkpt lat="47.28838" lon="-1.5397">
        <ele>69</ele>
        <time>2022-04-10T09:24:45Z</time>
      </trkpt>
      <trkpt lat="47.28838" lon="-1.53968">
        <ele>69</ele>
        <time>2022-04-10T09:24:46Z</time>
      </trkpt>
      <trkpt lat="47.28838" lon="-1.53967">
        <ele>69</ele>
        <time>2022-04-10T09:24:47Z</time>
      </trkpt>
      <trkpt lat="47.28839" lon="-1.53965">
        <ele>68</ele>
        <time>2022-04-10T09:24:48Z</time>
      </trkpt>
      <trkpt lat="47.28839" lon="-1.53963">
        <ele>69</ele>
        <time>2022-04-10T09:24:49Z</time>
      </trkpt>
      <trkpt lat="47.28839" lon="-1.53961">
        <ele>69</ele>
        <time>2022-04-10T09:24:50Z</time>
      </trkpt>
      <trkpt lat="47.28839" lon="-1.5396">
        <ele>69</ele>
        <time>2022-04-10T09:24:51Z</time>
      </trkpt>
      <trkpt lat="47.2884" lon="-1.53958">
        <ele>69</ele>
        <time>2022-04-10T09:24:52Z</time>
      </trkpt>
      <trkpt lat="47.2884" lon="-1.53955">
        <ele>69</ele>
        <time>2022-04-10T09:24:53Z</time>
      </trkpt>
      <trkpt lat="47.2884" lon="-1.53955">
        <ele>69</ele>
        <time>2022-04-10T09:24:54Z</time>
      </trkpt>
      <trkpt lat="47.2884" lon="-1.53955">
        <ele>69</ele>
        <time>2022-04-10T09:24:55Z</time>
      </trkpt>
      <trkpt lat="47.2884" lon="-1.53951">
        <ele>70</ele>
        <time>2022-04-10T09:24:56Z</time>
      </trkpt>
      <trkpt lat="47.28841" lon="-1.53949">
        <ele>71</ele>
        <time>2022-04-10T09:24:57Z</time>
      </trkpt>
      <trkpt lat="47.28841" lon="-1.53947">
        <ele>71</ele>
        <time>2022-04-10T09:24:58Z</time>
      </trkpt>
      <trkpt lat="47.28841" lon="-1.53945">
        <ele>72</ele>
        <time>2022-04-10T09:24:59Z</time>
      </trkpt>
      <trkpt lat="47.28841" lon="-1.53943">
        <ele>72</ele>
        <time>2022-04-10T09:25:00Z</time>
      </trkpt>
      <trkpt lat="47.28842" lon="-1.53943">
        <ele>72</ele>
        <time>2022-04-10T09:25:01Z</time>
      </trkpt>
      <trkpt lat="47.28843" lon="-1.53941">
        <ele>71</ele>
        <time>2022-04-10T09:25:02Z</time>
      </trkpt>
      <trkpt lat="47.28843" lon="-1.53939">
        <ele>71</ele>
        <time>2022-04-10T09:25:03Z</time>
      </trkpt>
      <trkpt lat="47.28844" lon="-1.53937">
        <ele>71</ele>
        <time>2022-04-10T09:25:04Z</time>
      </trkpt>
      <trkpt lat="47.28845" lon="-1.53937">
        <ele>70</ele>
        <time>2022-04-10T09:25:05Z</time>
      </trkpt>
      <trkpt lat="47.28845" lon="-1.53936">
        <ele>70</ele>
        <time>2022-04-10T09:25:06Z</time>
      </trkpt>
      <trkpt lat="47.28845" lon="-1.53935">
        <ele>70</ele>
        <time>2022-04-10T09:25:07Z</time>
      </trkpt>
      <trkpt lat="47.28846" lon="-1.53935">
        <ele>70</ele>
        <time>2022-04-10T09:25:08Z</time>
      </trkpt>
      <trkpt lat="47.28847" lon="-1.53934">
        <ele>70</ele>
        <time>2022-04-10T09:25:09Z</time>
      </trkpt>
      <trkpt lat="47.28848" lon="-1.53932">
        <ele>70</ele>
        <time>2022-04-10T09:25:10Z</time>
      </trkpt>
      <trkpt lat="47.28848" lon="-1.53932">
        <ele>70</ele>
        <time>2022-04-10T09:25:11Z</time>
      </trkpt>
      <trkpt lat="47.28849" lon="-1.53931">
        <ele>70</ele>
        <time>2022-04-10T09:25:12Z</time>
      </trkpt>
      <trkpt lat="47.28849" lon="-1.53929">
        <ele>70</ele>
        <time>2022-04-10T09:25:13Z</time>
      </trkpt>
      <trkpt lat="47.2885" lon="-1.53928">
        <ele>70</ele>
        <time>2022-04-10T09:25:14Z</time>
      </trkpt>
      <trkpt lat="47.2885" lon="-1.53927">
        <ele>70</ele>
        <time>2022-04-10T09:25:15Z</time>
      </trkpt>
      <trkpt lat="47.28851" lon="-1.53926">
        <ele>71</ele>
        <time>2022-04-10T09:25:16Z</time>
      </trkpt>
      <trkpt lat="47.28851" lon="-1.53925">
        <ele>71</ele>
        <time>2022-04-10T09:25:17Z</time>
      </trkpt>
      <trkpt lat="47.28851" lon="-1.53923">
        <ele>70</ele>
        <time>2022-04-10T09:25:18Z</time>
      </trkpt>
      <trkpt lat="47.28852" lon="-1.53922">
        <ele>70</ele>
        <time>2022-04-10T09:25:19Z</time>
      </trkpt>
      <trkpt lat="47.28852" lon="-1.53921">
        <ele>70</ele>
        <time>2022-04-10T09:25:20Z</time>
      </trkpt>
      <trkpt lat="47.28853" lon="-1.53919">
        <ele>69</ele>
        <time>2022-04-10T09:25:21Z</time>
      </trkpt>
      <trkpt lat="47.28853" lon="-1.53917">
        <ele>69</ele>
        <time>2022-04-10T09:25:22Z</time>
      </trkpt>
      <trkpt lat="47.28854" lon="-1.53916">
        <ele>68</ele>
        <time>2022-04-10T09:25:23Z</time>
      </trkpt>
      <trkpt lat="47.28854" lon="-1.53915">
        <ele>68</ele>
        <time>2022-04-10T09:25:24Z</time>
      </trkpt>
      <trkpt lat="47.28855" lon="-1.53914">
        <ele>68</ele>
        <time>2022-04-10T09:25:25Z</time>
      </trkpt>
      <trkpt lat="47.28856" lon="-1.53913">
        <ele>68</ele>
        <time>2022-04-10T09:25:26Z</time>
      </trkpt>
      <trkpt lat="47.28857" lon="-1.53912">
        <ele>68</ele>
        <time>2022-04-10T09:25:27Z</time>
      </trkpt>
      <trkpt lat="47.28858" lon="-1.53911">
        <ele>68</ele>
        <time>2022-04-10T09:25:28Z</time>
      </trkpt>
      <trkpt lat="47.28859" lon="-1.53911">
        <ele>68</ele>
        <time>2022-04-10T09:25:29Z</time>
      </trkpt>
      <trkpt lat="47.28859" lon="-1.53909">
        <ele>67</ele>
        <time>2022-04-10T09:25:30Z</time>
      </trkpt>
      <trkpt lat="47.28859" lon="-1.53908">
        <ele>68</ele>
        <time>2022-04-10T09:25:31Z</time>
      </trkpt>
      <trkpt lat="47.2886" lon="-1.53907">
        <ele>68</ele>
        <time>2022-04-10T09:25:32Z</time>
      </trkpt>
      <trkpt lat="47.2886" lon="-1.53907">
        <ele>68</ele>
        <time>2022-04-10T09:25:33Z</time>
      </trkpt>
      <trkpt lat="47.2886" lon="-1.53907">
        <ele>68</ele>
        <time>2022-04-10T09:25:34Z</time>
      </trkpt>
      <trkpt lat="47.28861" lon="-1.53903">
        <ele>69</ele>
        <time>2022-04-10T09:25:35Z</time>
      </trkpt>
      <trkpt lat="47.28861" lon="-1.53901">
        <ele>69</ele>
        <time>2022-04-10T09:25:36Z</time>
      </trkpt>
      <trkpt lat="47.28862" lon="-1.53899">
        <ele>69</ele>
        <time>2022-04-10T09:25:37Z</time>
      </trkpt>
      <trkpt lat="47.28862" lon="-1.53897">
        <ele>68</ele>
        <time>2022-04-10T09:25:38Z</time>
      </trkpt>
      <trkpt lat="47.28863" lon="-1.53896">
        <ele>68</ele>
        <time>2022-04-10T09:25:39Z</time>
      </trkpt>
      <trkpt lat="47.28864" lon="-1.53893">
        <ele>68</ele>
        <time>2022-04-10T09:25:40Z</time>
      </trkpt>
      <trkpt lat="47.28865" lon="-1.53892">
        <ele>69</ele>
        <time>2022-04-10T09:25:41Z</time>
      </trkpt>
      <trkpt lat="47.28865" lon="-1.5389">
        <ele>69</ele>
        <time>2022-04-10T09:25:42Z</time>
      </trkpt>
      <trkpt lat="47.28867" lon="-1.53889">
        <ele>69</ele>
        <time>2022-04-10T09:25:43Z</time>
      </trkpt>
      <trkpt lat="47.28867" lon="-1.53887">
        <ele>68</ele>
        <time>2022-04-10T09:25:44Z</time>
      </trkpt>
      <trkpt lat="47.28867" lon="-1.53886">
        <ele>68</ele>
        <time>2022-04-10T09:25:45Z</time>
      </trkpt>
      <trkpt lat="47.28867" lon="-1.53884">
        <ele>68</ele>
        <time>2022-04-10T09:25:46Z</time>
      </trkpt>
      <trkpt lat="47.28868" lon="-1.53882">
        <ele>67</ele>
        <time>2022-04-10T09:25:47Z</time>
      </trkpt>
      <trkpt lat="47.28869" lon="-1.53881">
        <ele>67</ele>
        <time>2022-04-10T09:25:48Z</time>
      </trkpt>
      <trkpt lat="47.28869" lon="-1.53879">
        <ele>68</ele>
        <time>2022-04-10T09:25:49Z</time>
      </trkpt>
      <trkpt lat="47.2887" lon="-1.53877">
        <ele>68</ele>
        <time>2022-04-10T09:25:50Z</time>
      </trkpt>
      <trkpt lat="47.2887" lon="-1.53875">
        <ele>69</ele>
        <time>2022-04-10T09:25:51Z</time>
      </trkpt>
      <trkpt lat="47.2887" lon="-1.53874">
        <ele>69</ele>
        <time>2022-04-10T09:25:52Z</time>
      </trkpt>
      <trkpt lat="47.28871" lon="-1.53872">
        <ele>69</ele>
        <time>2022-04-10T09:25:53Z</time>
      </trkpt>
      <trkpt lat="47.28871" lon="-1.53871">
        <ele>69</ele>
        <time>2022-04-10T09:25:54Z</time>
      </trkpt>
      <trkpt lat="47.28872" lon="-1.53869">
        <ele>68</ele>
        <time>2022-04-10T09:25:55Z</time>
      </trkpt>
      <trkpt lat="47.28873" lon="-1.53868">
        <ele>68</ele>
        <time>2022-04-10T09:25:56Z</time>
      </trkpt>
      <trkpt lat="47.28873" lon="-1.53866">
        <ele>68</ele>
        <time>2022-04-10T09:25:57Z</time>
      </trkpt>
      <trkpt lat="47.28874" lon="-1.53865">
        <ele>68</ele>
        <time>2022-04-10T09:25:58Z</time>
      </trkpt>
      <trkpt lat="47.28875" lon="-1.53863">
        <ele>68</ele>
        <time>2022-04-10T09:25:59Z</time>
      </trkpt>
      <trkpt lat="47.28876" lon="-1.53862">
        <ele>68</ele>
        <time>2022-04-10T09:26:00Z</time>
      </trkpt>
      <trkpt lat="47.28876" lon="-1.53861">
        <ele>68</ele>
        <time>2022-04-10T09:26:01Z</time>
      </trkpt>
      <trkpt lat="47.28877" lon="-1.5386">
        <ele>67</ele>
        <time>2022-04-10T09:26:02Z</time>
      </trkpt>
      <trkpt lat="47.28877" lon="-1.53859">
        <ele>68</ele>
        <time>2022-04-10T09:26:03Z</time>
      </trkpt>
      <trkpt lat="47.28877" lon="-1.53857">
        <ele>68</ele>
        <time>2022-04-10T09:26:04Z</time>
      </trkpt>
      <trkpt lat="47.28878" lon="-1.53855">
        <ele>68</ele>
        <time>2022-04-10T09:26:05Z</time>
      </trkpt>
      <trkpt lat="47.28878" lon="-1.53854">
        <ele>68</ele>
        <time>2022-04-10T09:26:06Z</time>
      </trkpt>
      <trkpt lat="47.28879" lon="-1.53853">
        <ele>67</ele>
        <time>2022-04-10T09:26:07Z</time>
      </trkpt>
      <trkpt lat="47.2888" lon="-1.53852">
        <ele>67</ele>
        <time>2022-04-10T09:26:08Z</time>
      </trkpt>
      <trkpt lat="47.2888" lon="-1.53851">
        <ele>67</ele>
        <time>2022-04-10T09:26:09Z</time>
      </trkpt>
      <trkpt lat="47.2888" lon="-1.5385">
        <ele>67</ele>
        <time>2022-04-10T09:26:10Z</time>
      </trkpt>
      <trkpt lat="47.2888" lon="-1.53848">
        <ele>67</ele>
        <time>2022-04-10T09:26:11Z</time>
      </trkpt>
      <trkpt lat="47.28881" lon="-1.53847">
        <ele>67</ele>
        <time>2022-04-10T09:26:12Z</time>
      </trkpt>
      <trkpt lat="47.28881" lon="-1.53845">
        <ele>67</ele>
        <time>2022-04-10T09:26:13Z</time>
      </trkpt>
      <trkpt lat="47.28882" lon="-1.53844">
        <ele>67</ele>
        <time>2022-04-10T09:26:14Z</time>
      </trkpt>
      <trkpt lat="47.28883" lon="-1.53842">
        <ele>68</ele>
        <time>2022-04-10T09:26:15Z</time>
      </trkpt>
      <trkpt lat="47.28883" lon="-1.5384">
        <ele>68</ele>
        <time>2022-04-10T09:26:16Z</time>
      </trkpt>
      <trkpt lat="47.28883" lon="-1.53839">
        <ele>68</ele>
        <time>2022-04-10T09:26:17Z</time>
      </trkpt>
      <trkpt lat="47.28885" lon="-1.53838">
        <ele>68</ele>
        <time>2022-04-10T09:26:18Z</time>
      </trkpt>
      <trkpt lat="47.28885" lon="-1.53836">
        <ele>67</ele>
        <time>2022-04-10T09:26:19Z</time>
      </trkpt>
      <trkpt lat="47.28886" lon="-1.53834">
        <ele>67</ele>
        <time>2022-04-10T09:26:20Z</time>
      </trkpt>
      <trkpt lat="47.28886" lon="-1.53832">
        <ele>67</ele>
        <time>2022-04-10T09:26:21Z</time>
      </trkpt>
      <trkpt lat="47.28886" lon="-1.53831">
        <ele>67</ele>
        <time>2022-04-10T09:26:22Z</time>
      </trkpt>
      <trkpt lat="47.28887" lon="-1.53829">
        <ele>66</ele>
        <time>2022-04-10T09:26:23Z</time>
      </trkpt>
      <trkpt lat="47.28888" lon="-1.53828">
        <ele>66</ele>
        <time>2022-04-10T09:26:24Z</time>
      </trkpt>
      <trkpt lat="47.28888" lon="-1.53827">
        <ele>65</ele>
        <time>2022-04-10T09:26:25Z</time>
      </trkpt>
      <trkpt lat="47.28889" lon="-1.53826">
        <ele>65</ele>
        <time>2022-04-10T09:26:26Z</time>
      </trkpt>
      <trkpt lat="47.28889" lon="-1.53824">
        <ele>65</ele>
        <time>2022-04-10T09:26:27Z</time>
      </trkpt>
      <trkpt lat="47.2889" lon="-1.53823">
        <ele>65</ele>
        <time>2022-04-10T09:26:28Z</time>
      </trkpt>
      <trkpt lat="47.2889" lon="-1.53821">
        <ele>65</ele>
        <time>2022-04-10T09:26:29Z</time>
      </trkpt>
      <trkpt lat="47.28891" lon="-1.53819">
        <ele>65</ele>
        <time>2022-04-10T09:26:30Z</time>
      </trkpt>
      <trkpt lat="47.28891" lon="-1.53818">
        <ele>65</ele>
        <time>2022-04-10T09:26:31Z</time>
      </trkpt>
      <trkpt lat="47.28891" lon="-1.53816">
        <ele>64</ele>
        <time>2022-04-10T09:26:32Z</time>
      </trkpt>
      <trkpt lat="47.28892" lon="-1.53815">
        <ele>65</ele>
        <time>2022-04-10T09:26:33Z</time>
      </trkpt>
      <trkpt lat="47.28893" lon="-1.53813">
        <ele>65</ele>
        <time>2022-04-10T09:26:34Z</time>
      </trkpt>
      <trkpt lat="47.28893" lon="-1.53812">
        <ele>65</ele>
        <time>2022-04-10T09:26:35Z</time>
      </trkpt>
      <trkpt lat="47.28893" lon="-1.53811">
        <ele>65</ele>
        <time>2022-04-10T09:26:36Z</time>
      </trkpt>
      <trkpt lat="47.28893" lon="-1.5381">
        <ele>65</ele>
        <time>2022-04-10T09:26:37Z</time>
      </trkpt>
      <trkpt lat="47.28894" lon="-1.53809">
        <ele>65</ele>
        <time>2022-04-10T09:26:38Z</time>
      </trkpt>
      <trkpt lat="47.28893" lon="-1.53808">
        <ele>66</ele>
        <time>2022-04-10T09:26:39Z</time>
      </trkpt>
      <trkpt lat="47.28893" lon="-1.53807">
        <ele>65</ele>
        <time>2022-04-10T09:26:40Z</time>
      </trkpt>
      <trkpt lat="47.28893" lon="-1.53805">
        <ele>66</ele>
        <time>2022-04-10T09:26:41Z</time>
      </trkpt>
      <trkpt lat="47.28893" lon="-1.53804">
        <ele>66</ele>
        <time>2022-04-10T09:26:42Z</time>
      </trkpt>
      <trkpt lat="47.28893" lon="-1.53802">
        <ele>65</ele>
        <time>2022-04-10T09:26:43Z</time>
      </trkpt>
      <trkpt lat="47.28893" lon="-1.53801">
        <ele>66</ele>
        <time>2022-04-10T09:26:44Z</time>
      </trkpt>
      <trkpt lat="47.28892" lon="-1.53799">
        <ele>66</ele>
        <time>2022-04-10T09:26:45Z</time>
      </trkpt>
      <trkpt lat="47.28893" lon="-1.53797">
        <ele>66</ele>
        <time>2022-04-10T09:26:46Z</time>
      </trkpt>
      <trkpt lat="47.28893" lon="-1.53795">
        <ele>66</ele>
        <time>2022-04-10T09:26:47Z</time>
      </trkpt>
      <trkpt lat="47.28894" lon="-1.53793">
        <ele>66</ele>
        <time>2022-04-10T09:26:48Z</time>
      </trkpt>
      <trkpt lat="47.28895" lon="-1.53792">
        <ele>66</ele>
        <time>2022-04-10T09:26:49Z</time>
      </trkpt>
      <trkpt lat="47.28896" lon="-1.53791">
        <ele>66</ele>
        <time>2022-04-10T09:26:50Z</time>
      </trkpt>
      <trkpt lat="47.28896" lon="-1.53789">
        <ele>67</ele>
        <time>2022-04-10T09:26:51Z</time>
      </trkpt>
      <trkpt lat="47.28897" lon="-1.53788">
        <ele>67</ele>
        <time>2022-04-10T09:26:52Z</time>
      </trkpt>
      <trkpt lat="47.28897" lon="-1.53786">
        <ele>67</ele>
        <time>2022-04-10T09:26:53Z</time>
      </trkpt>
      <trkpt lat="47.28898" lon="-1.53785">
        <ele>67</ele>
        <time>2022-04-10T09:26:54Z</time>
      </trkpt>
      <trkpt lat="47.28899" lon="-1.53784">
        <ele>67</ele>
        <time>2022-04-10T09:26:55Z</time>
      </trkpt>
      <trkpt lat="47.28899" lon="-1.53783">
        <ele>67</ele>
        <time>2022-04-10T09:26:56Z</time>
      </trkpt>
      <trkpt lat="47.289" lon="-1.53782">
        <ele>67</ele>
        <time>2022-04-10T09:26:57Z</time>
      </trkpt>
      <trkpt lat="47.28901" lon="-1.5378">
        <ele>67</ele>
        <time>2022-04-10T09:26:58Z</time>
      </trkpt>
      <trkpt lat="47.28901" lon="-1.53779">
        <ele>66</ele>
        <time>2022-04-10T09:26:59Z</time>
      </trkpt>
      <trkpt lat="47.28901" lon="-1.53778">
        <ele>67</ele>
        <time>2022-04-10T09:27:00Z</time>
      </trkpt>
      <trkpt lat="47.28901" lon="-1.53776">
        <ele>67</ele>
        <time>2022-04-10T09:27:01Z</time>
      </trkpt>
      <trkpt lat="47.28901" lon="-1.53775">
        <ele>66</ele>
        <time>2022-04-10T09:27:02Z</time>
      </trkpt>
      <trkpt lat="47.28902" lon="-1.53774">
        <ele>67</ele>
        <time>2022-04-10T09:27:03Z</time>
      </trkpt>
      <trkpt lat="47.28903" lon="-1.53773">
        <ele>67</ele>
        <time>2022-04-10T09:27:04Z</time>
      </trkpt>
      <trkpt lat="47.28904" lon="-1.53772">
        <ele>67</ele>
        <time>2022-04-10T09:27:05Z</time>
      </trkpt>
      <trkpt lat="47.28905" lon="-1.53771">
        <ele>68</ele>
        <time>2022-04-10T09:27:06Z</time>
      </trkpt>
      <trkpt lat="47.28906" lon="-1.5377">
        <ele>69</ele>
        <time>2022-04-10T09:27:07Z</time>
      </trkpt>
      <trkpt lat="47.28907" lon="-1.53768">
        <ele>69</ele>
        <time>2022-04-10T09:27:08Z</time>
      </trkpt>
      <trkpt lat="47.28907" lon="-1.53767">
        <ele>70</ele>
        <time>2022-04-10T09:27:09Z</time>
      </trkpt>
      <trkpt lat="47.28908" lon="-1.53766">
        <ele>70</ele>
        <time>2022-04-10T09:27:10Z</time>
      </trkpt>
      <trkpt lat="47.28909" lon="-1.53765">
        <ele>69</ele>
        <time>2022-04-10T09:27:11Z</time>
      </trkpt>
      <trkpt lat="47.28909" lon="-1.53764">
        <ele>69</ele>
        <time>2022-04-10T09:27:12Z</time>
      </trkpt>
      <trkpt lat="47.28909" lon="-1.53762">
        <ele>69</ele>
        <time>2022-04-10T09:27:13Z</time>
      </trkpt>
      <trkpt lat="47.2891" lon="-1.5376">
        <ele>68</ele>
        <time>2022-04-10T09:27:14Z</time>
      </trkpt>
      <trkpt lat="47.2891" lon="-1.53759">
        <ele>68</ele>
        <time>2022-04-10T09:27:15Z</time>
      </trkpt>
      <trkpt lat="47.28911" lon="-1.53758">
        <ele>68</ele>
        <time>2022-04-10T09:27:16Z</time>
      </trkpt>
      <trkpt lat="47.28911" lon="-1.53757">
        <ele>68</ele>
        <time>2022-04-10T09:27:17Z</time>
      </trkpt>
      <trkpt lat="47.28911" lon="-1.53757">
        <ele>68</ele>
        <time>2022-04-10T09:27:18Z</time>
      </trkpt>
      <trkpt lat="47.28912" lon="-1.53757">
        <ele>68</ele>
        <time>2022-04-10T09:27:19Z</time>
      </trkpt>
      <trkpt lat="47.28912" lon="-1.53756">
        <ele>68</ele>
        <time>2022-04-10T09:27:20Z</time>
      </trkpt>
      <trkpt lat="47.28912" lon="-1.53755">
        <ele>68</ele>
        <time>2022-04-10T09:27:21Z</time>
      </trkpt>
      <trkpt lat="47.28913" lon="-1.53754">
        <ele>68</ele>
        <time>2022-04-10T09:27:22Z</time>
      </trkpt>
      <trkpt lat="47.28914" lon="-1.53752">
        <ele>68</ele>
        <time>2022-04-10T09:27:23Z</time>
      </trkpt>
      <trkpt lat="47.28914" lon="-1.5375">
        <ele>68</ele>
        <time>2022-04-10T09:27:24Z</time>
      </trkpt>
      <trkpt lat="47.28915" lon="-1.53749">
        <ele>68</ele>
        <time>2022-04-10T09:27:25Z</time>
      </trkpt>
      <trkpt lat="47.28915" lon="-1.53747">
        <ele>68</ele>
        <time>2022-04-10T09:27:26Z</time>
      </trkpt>
      <trkpt lat="47.28915" lon="-1.53746">
        <ele>67</ele>
        <time>2022-04-10T09:27:27Z</time>
      </trkpt>
      <trkpt lat="47.28916" lon="-1.53746">
        <ele>67</ele>
        <time>2022-04-10T09:27:28Z</time>
      </trkpt>
      <trkpt lat="47.28916" lon="-1.53744">
        <ele>67</ele>
        <time>2022-04-10T09:27:29Z</time>
      </trkpt>
      <trkpt lat="47.28916" lon="-1.53744">
        <ele>67</ele>
        <time>2022-04-10T09:27:30Z</time>
      </trkpt>
      <trkpt lat="47.28916" lon="-1.53744">
        <ele>67</ele>
        <time>2022-04-10T09:27:31Z</time>
      </trkpt>
      <trkpt lat="47.28917" lon="-1.5374">
        <ele>67</ele>
        <time>2022-04-10T09:27:32Z</time>
      </trkpt>
      <trkpt lat="47.28917" lon="-1.53739">
        <ele>67</ele>
        <time>2022-04-10T09:27:33Z</time>
      </trkpt>
      <trkpt lat="47.28918" lon="-1.53736">
        <ele>67</ele>
        <time>2022-04-10T09:27:34Z</time>
      </trkpt>
      <trkpt lat="47.28918" lon="-1.53735">
        <ele>67</ele>
        <time>2022-04-10T09:27:35Z</time>
      </trkpt>
      <trkpt lat="47.28919" lon="-1.53733">
        <ele>68</ele>
        <time>2022-04-10T09:27:36Z</time>
      </trkpt>
      <trkpt lat="47.28919" lon="-1.53731">
        <ele>68</ele>
        <time>2022-04-10T09:27:37Z</time>
      </trkpt>
      <trkpt lat="47.28919" lon="-1.53731">
        <ele>68</ele>
        <time>2022-04-10T09:27:38Z</time>
      </trkpt>
      <trkpt lat="47.28919" lon="-1.53731">
        <ele>68</ele>
        <time>2022-04-10T09:27:39Z</time>
      </trkpt>
      <trkpt lat="47.2892" lon="-1.53728">
        <ele>69</ele>
        <time>2022-04-10T09:27:40Z</time>
      </trkpt>
      <trkpt lat="47.2892" lon="-1.53727">
        <ele>69</ele>
        <time>2022-04-10T09:27:41Z</time>
      </trkpt>
      <trkpt lat="47.28921" lon="-1.53727">
        <ele>70</ele>
        <time>2022-04-10T09:27:42Z</time>
      </trkpt>
      <trkpt lat="47.28922" lon="-1.53726">
        <ele>70</ele>
        <time>2022-04-10T09:27:43Z</time>
      </trkpt>
      <trkpt lat="47.28922" lon="-1.53725">
        <ele>70</ele>
        <time>2022-04-10T09:27:44Z</time>
      </trkpt>
      <trkpt lat="47.28922" lon="-1.53724">
        <ele>70</ele>
        <time>2022-04-10T09:27:45Z</time>
      </trkpt>
      <trkpt lat="47.28923" lon="-1.53722">
        <ele>70</ele>
        <time>2022-04-10T09:27:46Z</time>
      </trkpt>
      <trkpt lat="47.28923" lon="-1.5372">
        <ele>70</ele>
        <time>2022-04-10T09:27:47Z</time>
      </trkpt>
      <trkpt lat="47.28924" lon="-1.53719">
        <ele>71</ele>
        <time>2022-04-10T09:27:48Z</time>
      </trkpt>
      <trkpt lat="47.28924" lon="-1.53717">
        <ele>72</ele>
        <time>2022-04-10T09:27:49Z</time>
      </trkpt>
      <trkpt lat="47.28925" lon="-1.53715">
        <ele>71</ele>
        <time>2022-04-10T09:27:50Z</time>
      </trkpt>
      <trkpt lat="47.28925" lon="-1.53713">
        <ele>71</ele>
        <time>2022-04-10T09:27:51Z</time>
      </trkpt>
      <trkpt lat="47.28926" lon="-1.53712">
        <ele>71</ele>
        <time>2022-04-10T09:27:52Z</time>
      </trkpt>
      <trkpt lat="47.28926" lon="-1.53711">
        <ele>71</ele>
        <time>2022-04-10T09:27:53Z</time>
      </trkpt>
      <trkpt lat="47.28926" lon="-1.53711">
        <ele>71</ele>
        <time>2022-04-10T09:27:54Z</time>
      </trkpt>
      <trkpt lat="47.28926" lon="-1.53711">
        <ele>71</ele>
        <time>2022-04-10T09:27:55Z</time>
      </trkpt>
      <trkpt lat="47.28928" lon="-1.53707">
        <ele>72</ele>
        <time>2022-04-10T09:27:56Z</time>
      </trkpt>
      <trkpt lat="47.28928" lon="-1.53705">
        <ele>73</ele>
        <time>2022-04-10T09:27:57Z</time>
      </trkpt>
      <trkpt lat="47.28929" lon="-1.53704">
        <ele>74</ele>
        <time>2022-04-10T09:27:58Z</time>
      </trkpt>
      <trkpt lat="47.2893" lon="-1.53702">
        <ele>73</ele>
        <time>2022-04-10T09:27:59Z</time>
      </trkpt>
      <trkpt lat="47.2893" lon="-1.537">
        <ele>72</ele>
        <time>2022-04-10T09:28:00Z</time>
      </trkpt>
      <trkpt lat="47.28931" lon="-1.53698">
        <ele>72</ele>
        <time>2022-04-10T09:28:01Z</time>
      </trkpt>
      <trkpt lat="47.28931" lon="-1.53696">
        <ele>72</ele>
        <time>2022-04-10T09:28:02Z</time>
      </trkpt>
      <trkpt lat="47.28931" lon="-1.53694">
        <ele>72</ele>
        <time>2022-04-10T09:28:03Z</time>
      </trkpt>
      <trkpt lat="47.28932" lon="-1.53693">
        <ele>72</ele>
        <time>2022-04-10T09:28:04Z</time>
      </trkpt>
      <trkpt lat="47.28933" lon="-1.53692">
        <ele>72</ele>
        <time>2022-04-10T09:28:05Z</time>
      </trkpt>
      <trkpt lat="47.28933" lon="-1.53692">
        <ele>72</ele>
        <time>2022-04-10T09:28:06Z</time>
      </trkpt>
      <trkpt lat="47.28933" lon="-1.53692">
        <ele>72</ele>
        <time>2022-04-10T09:28:07Z</time>
      </trkpt>
      <trkpt lat="47.28934" lon="-1.53688">
        <ele>71</ele>
        <time>2022-04-10T09:28:08Z</time>
      </trkpt>
      <trkpt lat="47.28934" lon="-1.53687">
        <ele>71</ele>
        <time>2022-04-10T09:28:09Z</time>
      </trkpt>
      <trkpt lat="47.28935" lon="-1.53685">
        <ele>71</ele>
        <time>2022-04-10T09:28:10Z</time>
      </trkpt>
      <trkpt lat="47.28936" lon="-1.53683">
        <ele>71</ele>
        <time>2022-04-10T09:28:11Z</time>
      </trkpt>
      <trkpt lat="47.28936" lon="-1.53681">
        <ele>71</ele>
        <time>2022-04-10T09:28:12Z</time>
      </trkpt>
      <trkpt lat="47.28937" lon="-1.5368">
        <ele>71</ele>
        <time>2022-04-10T09:28:13Z</time>
      </trkpt>
      <trkpt lat="47.28937" lon="-1.53678">
        <ele>71</ele>
        <time>2022-04-10T09:28:14Z</time>
      </trkpt>
      <trkpt lat="47.28937" lon="-1.53678">
        <ele>71</ele>
        <time>2022-04-10T09:28:15Z</time>
      </trkpt>
      <trkpt lat="47.28937" lon="-1.53678">
        <ele>71</ele>
        <time>2022-04-10T09:28:16Z</time>
      </trkpt>
      <trkpt lat="47.28938" lon="-1.53675">
        <ele>71</ele>
        <time>2022-04-10T09:28:17Z</time>
      </trkpt>
      <trkpt lat="47.28939" lon="-1.53673">
        <ele>72</ele>
        <time>2022-04-10T09:28:18Z</time>
      </trkpt>
      <trkpt lat="47.2894" lon="-1.53672">
        <ele>72</ele>
        <time>2022-04-10T09:28:19Z</time>
      </trkpt>
      <trkpt lat="47.28941" lon="-1.53671">
        <ele>72</ele>
        <time>2022-04-10T09:28:20Z</time>
      </trkpt>
      <trkpt lat="47.28942" lon="-1.53671">
        <ele>72</ele>
        <time>2022-04-10T09:28:21Z</time>
      </trkpt>
      <trkpt lat="47.28942" lon="-1.5367">
        <ele>72</ele>
        <time>2022-04-10T09:28:22Z</time>
      </trkpt>
      <trkpt lat="47.28943" lon="-1.53669">
        <ele>72</ele>
        <time>2022-04-10T09:28:23Z</time>
      </trkpt>
      <trkpt lat="47.28943" lon="-1.53669">
        <ele>71</ele>
        <time>2022-04-10T09:28:24Z</time>
      </trkpt>
      <trkpt lat="47.28944" lon="-1.53668">
        <ele>71</ele>
        <time>2022-04-10T09:28:25Z</time>
      </trkpt>
      <trkpt lat="47.28945" lon="-1.53668">
        <ele>71</ele>
        <time>2022-04-10T09:28:26Z</time>
      </trkpt>
      <trkpt lat="47.28946" lon="-1.53668">
        <ele>71</ele>
        <time>2022-04-10T09:28:27Z</time>
      </trkpt>
      <trkpt lat="47.28946" lon="-1.53668">
        <ele>71</ele>
        <time>2022-04-10T09:28:28Z</time>
      </trkpt>
      <trkpt lat="47.28946" lon="-1.53668">
        <ele>71</ele>
        <time>2022-04-10T09:28:29Z</time>
      </trkpt>
      <trkpt lat="47.28949" lon="-1.53669">
        <ele>71</ele>
        <time>2022-04-10T09:28:30Z</time>
      </trkpt>
      <trkpt lat="47.28949" lon="-1.53669">
        <ele>71</ele>
        <time>2022-04-10T09:28:31Z</time>
      </trkpt>
      <trkpt lat="47.2895" lon="-1.53669">
        <ele>71</ele>
        <time>2022-04-10T09:28:32Z</time>
      </trkpt>
      <trkpt lat="47.28951" lon="-1.53669">
        <ele>70</ele>
        <time>2022-04-10T09:28:33Z</time>
      </trkpt>
      <trkpt lat="47.28951" lon="-1.53669">
        <ele>70</ele>
        <time>2022-04-10T09:28:34Z</time>
      </trkpt>
      <trkpt lat="47.28951" lon="-1.53669">
        <ele>70</ele>
        <time>2022-04-10T09:28:35Z</time>
      </trkpt>
      <trkpt lat="47.28953" lon="-1.53668">
        <ele>70</ele>
        <time>2022-04-10T09:28:36Z</time>
      </trkpt>
      <trkpt lat="47.28955" lon="-1.53669">
        <ele>70</ele>
        <time>2022-04-10T09:28:37Z</time>
      </trkpt>
      <trkpt lat="47.28956" lon="-1.53668">
        <ele>70</ele>
        <time>2022-04-10T09:28:38Z</time>
      </trkpt>
      <trkpt lat="47.28957" lon="-1.53669">
        <ele>70</ele>
        <time>2022-04-10T09:28:39Z</time>
      </trkpt>
      <trkpt lat="47.28958" lon="-1.53669">
        <ele>71</ele>
        <time>2022-04-10T09:28:40Z</time>
      </trkpt>
      <trkpt lat="47.28959" lon="-1.53669">
        <ele>70</ele>
        <time>2022-04-10T09:28:41Z</time>
      </trkpt>
      <trkpt lat="47.2896" lon="-1.5367">
        <ele>69</ele>
        <time>2022-04-10T09:28:42Z</time>
      </trkpt>
      <trkpt lat="47.28962" lon="-1.5367">
        <ele>69</ele>
        <time>2022-04-10T09:28:43Z</time>
      </trkpt>
      <trkpt lat="47.28963" lon="-1.5367">
        <ele>69</ele>
        <time>2022-04-10T09:28:44Z</time>
      </trkpt>
      <trkpt lat="47.28965" lon="-1.53671">
        <ele>69</ele>
        <time>2022-04-10T09:28:45Z</time>
      </trkpt>
      <trkpt lat="47.28967" lon="-1.53671">
        <ele>68</ele>
        <time>2022-04-10T09:28:46Z</time>
      </trkpt>
      <trkpt lat="47.28968" lon="-1.53671">
        <ele>68</ele>
        <time>2022-04-10T09:28:47Z</time>
      </trkpt>
      <trkpt lat="47.2897" lon="-1.53672">
        <ele>67</ele>
        <time>2022-04-10T09:28:48Z</time>
      </trkpt>
      <trkpt lat="47.28972" lon="-1.53672">
        <ele>66</ele>
        <time>2022-04-10T09:28:49Z</time>
      </trkpt>
      <trkpt lat="47.28973" lon="-1.53673">
        <ele>66</ele>
        <time>2022-04-10T09:28:50Z</time>
      </trkpt>
      <trkpt lat="47.28975" lon="-1.53673">
        <ele>66</ele>
        <time>2022-04-10T09:28:51Z</time>
      </trkpt>
      <trkpt lat="47.28976" lon="-1.53673">
        <ele>65</ele>
        <time>2022-04-10T09:28:52Z</time>
      </trkpt>
      <trkpt lat="47.28978" lon="-1.53674">
        <ele>65</ele>
        <time>2022-04-10T09:28:53Z</time>
      </trkpt>
      <trkpt lat="47.28979" lon="-1.53674">
        <ele>64</ele>
        <time>2022-04-10T09:28:54Z</time>
      </trkpt>
      <trkpt lat="47.2898" lon="-1.53674">
        <ele>64</ele>
        <time>2022-04-10T09:28:55Z</time>
      </trkpt>
      <trkpt lat="47.28981" lon="-1.53674">
        <ele>63</ele>
        <time>2022-04-10T09:28:56Z</time>
      </trkpt>
      <trkpt lat="47.28982" lon="-1.53674">
        <ele>63</ele>
        <time>2022-04-10T09:28:57Z</time>
      </trkpt>
      <trkpt lat="47.28984" lon="-1.53674">
        <ele>63</ele>
        <time>2022-04-10T09:28:58Z</time>
      </trkpt>
      <trkpt lat="47.28985" lon="-1.53674">
        <ele>63</ele>
        <time>2022-04-10T09:28:59Z</time>
      </trkpt>
      <trkpt lat="47.28986" lon="-1.53674">
        <ele>62</ele>
        <time>2022-04-10T09:29:00Z</time>
      </trkpt>
      <trkpt lat="47.28988" lon="-1.53674">
        <ele>62</ele>
        <time>2022-04-10T09:29:01Z</time>
      </trkpt>
      <trkpt lat="47.28989" lon="-1.53673">
        <ele>62</ele>
        <time>2022-04-10T09:29:02Z</time>
      </trkpt>
      <trkpt lat="47.28989" lon="-1.53673">
        <ele>62</ele>
        <time>2022-04-10T09:29:03Z</time>
      </trkpt>
      <trkpt lat="47.28991" lon="-1.53673">
        <ele>63</ele>
        <time>2022-04-10T09:29:04Z</time>
      </trkpt>
      <trkpt lat="47.28993" lon="-1.53672">
        <ele>63</ele>
        <time>2022-04-10T09:29:05Z</time>
      </trkpt>
      <trkpt lat="47.28994" lon="-1.53671">
        <ele>63</ele>
        <time>2022-04-10T09:29:06Z</time>
      </trkpt>
      <trkpt lat="47.28996" lon="-1.5367">
        <ele>63</ele>
        <time>2022-04-10T09:29:07Z</time>
      </trkpt>
      <trkpt lat="47.28997" lon="-1.5367">
        <ele>63</ele>
        <time>2022-04-10T09:29:08Z</time>
      </trkpt>
      <trkpt lat="47.28998" lon="-1.53669">
        <ele>64</ele>
        <time>2022-04-10T09:29:09Z</time>
      </trkpt>
      <trkpt lat="47.28998" lon="-1.53669">
        <ele>64</ele>
        <time>2022-04-10T09:29:10Z</time>
      </trkpt>
      <trkpt lat="47.28999" lon="-1.53668">
        <ele>64</ele>
        <time>2022-04-10T09:29:11Z</time>
      </trkpt>
      <trkpt lat="47.29" lon="-1.53667">
        <ele>64</ele>
        <time>2022-04-10T09:29:12Z</time>
      </trkpt>
      <trkpt lat="47.29001" lon="-1.53666">
        <ele>64</ele>
        <time>2022-04-10T09:29:13Z</time>
      </trkpt>
      <trkpt lat="47.29002" lon="-1.53665">
        <ele>63</ele>
        <time>2022-04-10T09:29:14Z</time>
      </trkpt>
      <trkpt lat="47.29003" lon="-1.53664">
        <ele>63</ele>
        <time>2022-04-10T09:29:15Z</time>
      </trkpt>
      <trkpt lat="47.29004" lon="-1.53663">
        <ele>63</ele>
        <time>2022-04-10T09:29:16Z</time>
      </trkpt>
      <trkpt lat="47.29004" lon="-1.53662">
        <ele>63</ele>
        <time>2022-04-10T09:29:17Z</time>
      </trkpt>
      <trkpt lat="47.29005" lon="-1.53661">
        <ele>63</ele>
        <time>2022-04-10T09:29:18Z</time>
      </trkpt>
      <trkpt lat="47.29007" lon="-1.5366">
        <ele>63</ele>
        <time>2022-04-10T09:29:19Z</time>
      </trkpt>
      <trkpt lat="47.29008" lon="-1.53659">
        <ele>64</ele>
        <time>2022-04-10T09:29:20Z</time>
      </trkpt>
      <trkpt lat="47.2901" lon="-1.53659">
        <ele>64</ele>
        <time>2022-04-10T09:29:21Z</time>
      </trkpt>
      <trkpt lat="47.29011" lon="-1.53658">
        <ele>64</ele>
        <time>2022-04-10T09:29:22Z</time>
      </trkpt>
      <trkpt lat="47.29012" lon="-1.53658">
        <ele>64</ele>
        <time>2022-04-10T09:29:23Z</time>
      </trkpt>
      <trkpt lat="47.29012" lon="-1.53658">
        <ele>65</ele>
        <time>2022-04-10T09:29:24Z</time>
      </trkpt>
      <trkpt lat="47.29013" lon="-1.53657">
        <ele>65</ele>
        <time>2022-04-10T09:29:25Z</time>
      </trkpt>
      <trkpt lat="47.29014" lon="-1.53656">
        <ele>66</ele>
        <time>2022-04-10T09:29:26Z</time>
      </trkpt>
      <trkpt lat="47.29015" lon="-1.53655">
        <ele>66</ele>
        <time>2022-04-10T09:29:27Z</time>
      </trkpt>
      <trkpt lat="47.29016" lon="-1.53654">
        <ele>67</ele>
        <time>2022-04-10T09:29:28Z</time>
      </trkpt>
      <trkpt lat="47.29017" lon="-1.53654">
        <ele>67</ele>
        <time>2022-04-10T09:29:29Z</time>
      </trkpt>
      <trkpt lat="47.29018" lon="-1.53653">
        <ele>67</ele>
        <time>2022-04-10T09:29:30Z</time>
      </trkpt>
      <trkpt lat="47.29019" lon="-1.53652">
        <ele>66</ele>
        <time>2022-04-10T09:29:31Z</time>
      </trkpt>
      <trkpt lat="47.2902" lon="-1.53652">
        <ele>67</ele>
        <time>2022-04-10T09:29:32Z</time>
      </trkpt>
      <trkpt lat="47.29021" lon="-1.53652">
        <ele>67</ele>
        <time>2022-04-10T09:29:33Z</time>
      </trkpt>
      <trkpt lat="47.29022" lon="-1.53652">
        <ele>67</ele>
        <time>2022-04-10T09:29:34Z</time>
      </trkpt>
      <trkpt lat="47.29023" lon="-1.53652">
        <ele>67</ele>
        <time>2022-04-10T09:29:35Z</time>
      </trkpt>
      <trkpt lat="47.29023" lon="-1.53651">
        <ele>67</ele>
        <time>2022-04-10T09:29:36Z</time>
      </trkpt>
      <trkpt lat="47.29025" lon="-1.53652">
        <ele>68</ele>
        <time>2022-04-10T09:29:37Z</time>
      </trkpt>
      <trkpt lat="47.29026" lon="-1.53653">
        <ele>69</ele>
        <time>2022-04-10T09:29:38Z</time>
      </trkpt>
      <trkpt lat="47.29027" lon="-1.53654">
        <ele>69</ele>
        <time>2022-04-10T09:29:39Z</time>
      </trkpt>
      <trkpt lat="47.29028" lon="-1.53654">
        <ele>69</ele>
        <time>2022-04-10T09:29:40Z</time>
      </trkpt>
      <trkpt lat="47.29029" lon="-1.53655">
        <ele>69</ele>
        <time>2022-04-10T09:29:41Z</time>
      </trkpt>
      <trkpt lat="47.2903" lon="-1.53655">
        <ele>69</ele>
        <time>2022-04-10T09:29:42Z</time>
      </trkpt>
      <trkpt lat="47.29031" lon="-1.53656">
        <ele>69</ele>
        <time>2022-04-10T09:29:43Z</time>
      </trkpt>
      <trkpt lat="47.29031" lon="-1.53656">
        <ele>69</ele>
        <time>2022-04-10T09:29:44Z</time>
      </trkpt>
      <trkpt lat="47.29033" lon="-1.53657">
        <ele>69</ele>
        <time>2022-04-10T09:29:45Z</time>
      </trkpt>
      <trkpt lat="47.29034" lon="-1.53656">
        <ele>68</ele>
        <time>2022-04-10T09:29:46Z</time>
      </trkpt>
      <trkpt lat="47.29035" lon="-1.53657">
        <ele>68</ele>
        <time>2022-04-10T09:29:47Z</time>
      </trkpt>
      <trkpt lat="47.29036" lon="-1.53657">
        <ele>68</ele>
        <time>2022-04-10T09:29:48Z</time>
      </trkpt>
      <trkpt lat="47.29037" lon="-1.53658">
        <ele>68</ele>
        <time>2022-04-10T09:29:49Z</time>
      </trkpt>
      <trkpt lat="47.29039" lon="-1.53659">
        <ele>68</ele>
        <time>2022-04-10T09:29:50Z</time>
      </trkpt>
      <trkpt lat="47.29039" lon="-1.5366">
        <ele>68</ele>
        <time>2022-04-10T09:29:51Z</time>
      </trkpt>
      <trkpt lat="47.29041" lon="-1.5366">
        <ele>68</ele>
        <time>2022-04-10T09:29:52Z</time>
      </trkpt>
      <trkpt lat="47.29041" lon="-1.53661">
        <ele>68</ele>
        <time>2022-04-10T09:29:53Z</time>
      </trkpt>
      <trkpt lat="47.29042" lon="-1.53663">
        <ele>68</ele>
        <time>2022-04-10T09:29:54Z</time>
      </trkpt>
      <trkpt lat="47.29042" lon="-1.53663">
        <ele>68</ele>
        <time>2022-04-10T09:29:55Z</time>
      </trkpt>
      <trkpt lat="47.29043" lon="-1.53664">
        <ele>68</ele>
        <time>2022-04-10T09:29:56Z</time>
      </trkpt>
      <trkpt lat="47.29044" lon="-1.53666">
        <ele>68</ele>
        <time>2022-04-10T09:29:57Z</time>
      </trkpt>
      <trkpt lat="47.29045" lon="-1.53666">
        <ele>69</ele>
        <time>2022-04-10T09:29:58Z</time>
      </trkpt>
      <trkpt lat="47.29046" lon="-1.53667">
        <ele>69</ele>
        <time>2022-04-10T09:29:59Z</time>
      </trkpt>
      <trkpt lat="47.29047" lon="-1.53668">
        <ele>69</ele>
        <time>2022-04-10T09:30:00Z</time>
      </trkpt>
      <trkpt lat="47.29048" lon="-1.5367">
        <ele>69</ele>
        <time>2022-04-10T09:30:01Z</time>
      </trkpt>
      <trkpt lat="47.29049" lon="-1.5367">
        <ele>68</ele>
        <time>2022-04-10T09:30:02Z</time>
      </trkpt>
      <trkpt lat="47.2905" lon="-1.5367">
        <ele>68</ele>
        <time>2022-04-10T09:30:03Z</time>
      </trkpt>
      <trkpt lat="47.2905" lon="-1.53671">
        <ele>69</ele>
        <time>2022-04-10T09:30:04Z</time>
      </trkpt>
      <trkpt lat="47.29052" lon="-1.53673">
        <ele>69</ele>
        <time>2022-04-10T09:30:05Z</time>
      </trkpt>
      <trkpt lat="47.29053" lon="-1.53674">
        <ele>68</ele>
        <time>2022-04-10T09:30:06Z</time>
      </trkpt>
      <trkpt lat="47.29054" lon="-1.53675">
        <ele>68</ele>
        <time>2022-04-10T09:30:07Z</time>
      </trkpt>
      <trkpt lat="47.29055" lon="-1.53675">
        <ele>68</ele>
        <time>2022-04-10T09:30:08Z</time>
      </trkpt>
      <trkpt lat="47.29055" lon="-1.53677">
        <ele>68</ele>
        <time>2022-04-10T09:30:09Z</time>
      </trkpt>
      <trkpt lat="47.29057" lon="-1.53677">
        <ele>68</ele>
        <time>2022-04-10T09:30:10Z</time>
      </trkpt>
      <trkpt lat="47.29057" lon="-1.53678">
        <ele>68</ele>
        <time>2022-04-10T09:30:11Z</time>
      </trkpt>
      <trkpt lat="47.29059" lon="-1.53679">
        <ele>68</ele>
        <time>2022-04-10T09:30:12Z</time>
      </trkpt>
      <trkpt lat="47.29059" lon="-1.5368">
        <ele>68</ele>
        <time>2022-04-10T09:30:13Z</time>
      </trkpt>
      <trkpt lat="47.2906" lon="-1.53681">
        <ele>67</ele>
        <time>2022-04-10T09:30:14Z</time>
      </trkpt>
      <trkpt lat="47.29061" lon="-1.53682">
        <ele>68</ele>
        <time>2022-04-10T09:30:15Z</time>
      </trkpt>
      <trkpt lat="47.29062" lon="-1.53681">
        <ele>68</ele>
        <time>2022-04-10T09:30:16Z</time>
      </trkpt>
      <trkpt lat="47.29063" lon="-1.53681">
        <ele>68</ele>
        <time>2022-04-10T09:30:17Z</time>
      </trkpt>
      <trkpt lat="47.29064" lon="-1.53681">
        <ele>67</ele>
        <time>2022-04-10T09:30:18Z</time>
      </trkpt>
      <trkpt lat="47.29065" lon="-1.53682">
        <ele>67</ele>
        <time>2022-04-10T09:30:19Z</time>
      </trkpt>
      <trkpt lat="47.29067" lon="-1.53682">
        <ele>67</ele>
        <time>2022-04-10T09:30:20Z</time>
      </trkpt>
      <trkpt lat="47.29068" lon="-1.53683">
        <ele>67</ele>
        <time>2022-04-10T09:30:21Z</time>
      </trkpt>
      <trkpt lat="47.29068" lon="-1.53683">
        <ele>67</ele>
        <time>2022-04-10T09:30:22Z</time>
      </trkpt>
      <trkpt lat="47.29069" lon="-1.53684">
        <ele>67</ele>
        <time>2022-04-10T09:30:23Z</time>
      </trkpt>
      <trkpt lat="47.2907" lon="-1.53685">
        <ele>68</ele>
        <time>2022-04-10T09:30:24Z</time>
      </trkpt>
      <trkpt lat="47.2907" lon="-1.53685">
        <ele>68</ele>
        <time>2022-04-10T09:30:25Z</time>
      </trkpt>
      <trkpt lat="47.2907" lon="-1.53685">
        <ele>68</ele>
        <time>2022-04-10T09:30:26Z</time>
      </trkpt>
      <trkpt lat="47.29072" lon="-1.53686">
        <ele>68</ele>
        <time>2022-04-10T09:30:27Z</time>
      </trkpt>
      <trkpt lat="47.29074" lon="-1.53687">
        <ele>68</ele>
        <time>2022-04-10T09:30:28Z</time>
      </trkpt>
      <trkpt lat="47.29075" lon="-1.53687">
        <ele>68</ele>
        <time>2022-04-10T09:30:29Z</time>
      </trkpt>
      <trkpt lat="47.29075" lon="-1.53688">
        <ele>67</ele>
        <time>2022-04-10T09:30:30Z</time>
      </trkpt>
      <trkpt lat="47.29075" lon="-1.53688">
        <ele>67</ele>
        <time>2022-04-10T09:30:31Z</time>
      </trkpt>
      <trkpt lat="47.29075" lon="-1.53688">
        <ele>67</ele>
        <time>2022-04-10T09:30:32Z</time>
      </trkpt>
      <trkpt lat="47.29077" lon="-1.53691">
        <ele>67</ele>
        <time>2022-04-10T09:30:33Z</time>
      </trkpt>
      <trkpt lat="47.29078" lon="-1.53691">
        <ele>67</ele>
        <time>2022-04-10T09:30:34Z</time>
      </trkpt>
      <trkpt lat="47.29079" lon="-1.53691">
        <ele>67</ele>
        <time>2022-04-10T09:30:35Z</time>
      </trkpt>
      <trkpt lat="47.29081" lon="-1.53692">
        <ele>67</ele>
        <time>2022-04-10T09:30:36Z</time>
      </trkpt>
      <trkpt lat="47.29081" lon="-1.53692">
        <ele>66</ele>
        <time>2022-04-10T09:30:37Z</time>
      </trkpt>
      <trkpt lat="47.29083" lon="-1.53693">
        <ele>67</ele>
        <time>2022-04-10T09:30:38Z</time>
      </trkpt>
      <trkpt lat="47.29084" lon="-1.53694">
        <ele>68</ele>
        <time>2022-04-10T09:30:39Z</time>
      </trkpt>
      <trkpt lat="47.29084" lon="-1.53694">
        <ele>68</ele>
        <time>2022-04-10T09:30:40Z</time>
      </trkpt>
      <trkpt lat="47.29086" lon="-1.53695">
        <ele>69</ele>
        <time>2022-04-10T09:30:41Z</time>
      </trkpt>
      <trkpt lat="47.29086" lon="-1.53694">
        <ele>69</ele>
        <time>2022-04-10T09:30:42Z</time>
      </trkpt>
      <trkpt lat="47.29086" lon="-1.53694">
        <ele>69</ele>
        <time>2022-04-10T09:30:43Z</time>
      </trkpt>
      <trkpt lat="47.29088" lon="-1.53695">
        <ele>69</ele>
        <time>2022-04-10T09:30:44Z</time>
      </trkpt>
      <trkpt lat="47.29089" lon="-1.53695">
        <ele>69</ele>
        <time>2022-04-10T09:30:45Z</time>
      </trkpt>
      <trkpt lat="47.29091" lon="-1.53696">
        <ele>69</ele>
        <time>2022-04-10T09:30:46Z</time>
      </trkpt>
      <trkpt lat="47.29092" lon="-1.53696">
        <ele>70</ele>
        <time>2022-04-10T09:30:47Z</time>
      </trkpt>
      <trkpt lat="47.29093" lon="-1.53697">
        <ele>71</ele>
        <time>2022-04-10T09:30:48Z</time>
      </trkpt>
      <trkpt lat="47.29094" lon="-1.53697">
        <ele>72</ele>
        <time>2022-04-10T09:30:49Z</time>
      </trkpt>
      <trkpt lat="47.29095" lon="-1.53698">
        <ele>72</ele>
        <time>2022-04-10T09:30:50Z</time>
      </trkpt>
      <trkpt lat="47.29096" lon="-1.53699">
        <ele>72</ele>
        <time>2022-04-10T09:30:51Z</time>
      </trkpt>
      <trkpt lat="47.29097" lon="-1.537">
        <ele>73</ele>
        <time>2022-04-10T09:30:52Z</time>
      </trkpt>
      <trkpt lat="47.29098" lon="-1.53701">
        <ele>73</ele>
        <time>2022-04-10T09:30:53Z</time>
      </trkpt>
      <trkpt lat="47.29099" lon="-1.53702">
        <ele>73</ele>
        <time>2022-04-10T09:30:54Z</time>
      </trkpt>
      <trkpt lat="47.291" lon="-1.53702">
        <ele>74</ele>
        <time>2022-04-10T09:30:55Z</time>
      </trkpt>
      <trkpt lat="47.29101" lon="-1.53703">
        <ele>73</ele>
        <time>2022-04-10T09:30:56Z</time>
      </trkpt>
      <trkpt lat="47.29102" lon="-1.53703">
        <ele>74</ele>
        <time>2022-04-10T09:30:57Z</time>
      </trkpt>
      <trkpt lat="47.29103" lon="-1.53704">
        <ele>74</ele>
        <time>2022-04-10T09:30:58Z</time>
      </trkpt>
      <trkpt lat="47.29104" lon="-1.53704">
        <ele>74</ele>
        <time>2022-04-10T09:30:59Z</time>
      </trkpt>
      <trkpt lat="47.29105" lon="-1.53706">
        <ele>74</ele>
        <time>2022-04-10T09:31:00Z</time>
      </trkpt>
      <trkpt lat="47.29106" lon="-1.53706">
        <ele>74</ele>
        <time>2022-04-10T09:31:01Z</time>
      </trkpt>
      <trkpt lat="47.29107" lon="-1.53707">
        <ele>73</ele>
        <time>2022-04-10T09:31:02Z</time>
      </trkpt>
      <trkpt lat="47.29107" lon="-1.53708">
        <ele>74</ele>
        <time>2022-04-10T09:31:03Z</time>
      </trkpt>
      <trkpt lat="47.29108" lon="-1.53708">
        <ele>74</ele>
        <time>2022-04-10T09:31:04Z</time>
      </trkpt>
      <trkpt lat="47.2911" lon="-1.53709">
        <ele>75</ele>
        <time>2022-04-10T09:31:05Z</time>
      </trkpt>
      <trkpt lat="47.2911" lon="-1.53709">
        <ele>75</ele>
        <time>2022-04-10T09:31:06Z</time>
      </trkpt>
      <trkpt lat="47.29111" lon="-1.53709">
        <ele>75</ele>
        <time>2022-04-10T09:31:07Z</time>
      </trkpt>
      <trkpt lat="47.29111" lon="-1.53709">
        <ele>75</ele>
        <time>2022-04-10T09:31:08Z</time>
      </trkpt>
      <trkpt lat="47.29111" lon="-1.53709">
        <ele>75</ele>
        <time>2022-04-10T09:31:09Z</time>
      </trkpt>
      <trkpt lat="47.29114" lon="-1.5371">
        <ele>76</ele>
        <time>2022-04-10T09:31:10Z</time>
      </trkpt>
      <trkpt lat="47.29115" lon="-1.53711">
        <ele>76</ele>
        <time>2022-04-10T09:31:11Z</time>
      </trkpt>
      <trkpt lat="47.29116" lon="-1.53712">
        <ele>76</ele>
        <time>2022-04-10T09:31:12Z</time>
      </trkpt>
      <trkpt lat="47.29117" lon="-1.53713">
        <ele>76</ele>
        <time>2022-04-10T09:31:13Z</time>
      </trkpt>
      <trkpt lat="47.29118" lon="-1.53714">
        <ele>77</ele>
        <time>2022-04-10T09:31:14Z</time>
      </trkpt>
      <trkpt lat="47.29119" lon="-1.53714">
        <ele>77</ele>
        <time>2022-04-10T09:31:15Z</time>
      </trkpt>
      <trkpt lat="47.2912" lon="-1.53715">
        <ele>77</ele>
        <time>2022-04-10T09:31:16Z</time>
      </trkpt>
      <trkpt lat="47.2912" lon="-1.53716">
        <ele>78</ele>
        <time>2022-04-10T09:31:17Z</time>
      </trkpt>
      <trkpt lat="47.2912" lon="-1.53716">
        <ele>78</ele>
        <time>2022-04-10T09:31:18Z</time>
      </trkpt>
      <trkpt lat="47.2912" lon="-1.53717">
        <ele>78</ele>
        <time>2022-04-10T09:31:19Z</time>
      </trkpt>
      <trkpt lat="47.29121" lon="-1.53718">
        <ele>79</ele>
        <time>2022-04-10T09:31:20Z</time>
      </trkpt>
      <trkpt lat="47.29121" lon="-1.53718">
        <ele>79</ele>
        <time>2022-04-10T09:31:21Z</time>
      </trkpt>
      <trkpt lat="47.29121" lon="-1.53718">
        <ele>79</ele>
        <time>2022-04-10T09:31:22Z</time>
      </trkpt>
      <trkpt lat="47.29123" lon="-1.5372">
        <ele>78</ele>
        <time>2022-04-10T09:31:23Z</time>
      </trkpt>
      <trkpt lat="47.29124" lon="-1.53722">
        <ele>78</ele>
        <time>2022-04-10T09:31:24Z</time>
      </trkpt>
      <trkpt lat="47.29125" lon="-1.53722">
        <ele>78</ele>
        <time>2022-04-10T09:31:25Z</time>
      </trkpt>
      <trkpt lat="47.29126" lon="-1.53724">
        <ele>79</ele>
        <time>2022-04-10T09:31:26Z</time>
      </trkpt>
      <trkpt lat="47.29126" lon="-1.53725">
        <ele>79</ele>
        <time>2022-04-10T09:31:27Z</time>
      </trkpt>
      <trkpt lat="47.29128" lon="-1.53727">
        <ele>78</ele>
        <time>2022-04-10T09:31:28Z</time>
      </trkpt>
      <trkpt lat="47.29129" lon="-1.53728">
        <ele>78</ele>
        <time>2022-04-10T09:31:29Z</time>
      </trkpt>
      <trkpt lat="47.2913" lon="-1.53729">
        <ele>78</ele>
        <time>2022-04-10T09:31:30Z</time>
      </trkpt>
      <trkpt lat="47.29131" lon="-1.5373">
        <ele>78</ele>
        <time>2022-04-10T09:31:31Z</time>
      </trkpt>
      <trkpt lat="47.29131" lon="-1.5373">
        <ele>78</ele>
        <time>2022-04-10T09:31:32Z</time>
      </trkpt>
      <trkpt lat="47.29133" lon="-1.53732">
        <ele>78</ele>
        <time>2022-04-10T09:31:33Z</time>
      </trkpt>
      <trkpt lat="47.29134" lon="-1.53733">
        <ele>77</ele>
        <time>2022-04-10T09:31:34Z</time>
      </trkpt>
      <trkpt lat="47.29135" lon="-1.53734">
        <ele>77</ele>
        <time>2022-04-10T09:31:35Z</time>
      </trkpt>
      <trkpt lat="47.29136" lon="-1.53736">
        <ele>76</ele>
        <time>2022-04-10T09:31:36Z</time>
      </trkpt>
      <trkpt lat="47.29137" lon="-1.53736">
        <ele>76</ele>
        <time>2022-04-10T09:31:37Z</time>
      </trkpt>
      <trkpt lat="47.29139" lon="-1.53738">
        <ele>76</ele>
        <time>2022-04-10T09:31:38Z</time>
      </trkpt>
      <trkpt lat="47.2914" lon="-1.5374">
        <ele>76</ele>
        <time>2022-04-10T09:31:39Z</time>
      </trkpt>
      <trkpt lat="47.29141" lon="-1.53742">
        <ele>75</ele>
        <time>2022-04-10T09:31:40Z</time>
      </trkpt>
      <trkpt lat="47.29142" lon="-1.53743">
        <ele>74</ele>
        <time>2022-04-10T09:31:41Z</time>
      </trkpt>
      <trkpt lat="47.29144" lon="-1.53745">
        <ele>74</ele>
        <time>2022-04-10T09:31:42Z</time>
      </trkpt>
      <trkpt lat="47.29145" lon="-1.53745">
        <ele>73</ele>
        <time>2022-04-10T09:31:43Z</time>
      </trkpt>
      <trkpt lat="47.29147" lon="-1.53745">
        <ele>73</ele>
        <time>2022-04-10T09:31:44Z</time>
      </trkpt>
      <trkpt lat="47.29148" lon="-1.53744">
        <ele>73</ele>
        <time>2022-04-10T09:31:45Z</time>
      </trkpt>
      <trkpt lat="47.29148" lon="-1.53744">
        <ele>73</ele>
        <time>2022-04-10T09:31:46Z</time>
      </trkpt>
      <trkpt lat="47.29149" lon="-1.53743">
        <ele>72</ele>
        <time>2022-04-10T09:31:47Z</time>
      </trkpt>
      <trkpt lat="47.2915" lon="-1.53741">
        <ele>72</ele>
        <time>2022-04-10T09:31:48Z</time>
      </trkpt>
      <trkpt lat="47.29152" lon="-1.53741">
        <ele>71</ele>
        <time>2022-04-10T09:31:49Z</time>
      </trkpt>
      <trkpt lat="47.29153" lon="-1.53741">
        <ele>71</ele>
        <time>2022-04-10T09:31:50Z</time>
      </trkpt>
      <trkpt lat="47.29153" lon="-1.5374">
        <ele>71</ele>
        <time>2022-04-10T09:31:51Z</time>
      </trkpt>
      <trkpt lat="47.29154" lon="-1.5374">
        <ele>71</ele>
        <time>2022-04-10T09:31:52Z</time>
      </trkpt>
      <trkpt lat="47.29154" lon="-1.53739">
        <ele>71</ele>
        <time>2022-04-10T09:31:53Z</time>
      </trkpt>
      <trkpt lat="47.29154" lon="-1.53739">
        <ele>71</ele>
        <time>2022-04-10T09:31:54Z</time>
      </trkpt>
      <trkpt lat="47.29154" lon="-1.53739">
        <ele>71</ele>
        <time>2022-04-10T09:31:55Z</time>
      </trkpt>
      <trkpt lat="47.29157" lon="-1.53736">
        <ele>72</ele>
        <time>2022-04-10T09:31:56Z</time>
      </trkpt>
      <trkpt lat="47.29157" lon="-1.53736">
        <ele>71</ele>
        <time>2022-04-10T09:31:57Z</time>
      </trkpt>
      <trkpt lat="47.29158" lon="-1.53736">
        <ele>71</ele>
        <time>2022-04-10T09:31:58Z</time>
      </trkpt>
      <trkpt lat="47.29159" lon="-1.53736">
        <ele>70</ele>
        <time>2022-04-10T09:31:59Z</time>
      </trkpt>
      <trkpt lat="47.29159" lon="-1.53736">
        <ele>70</ele>
        <time>2022-04-10T09:32:00Z</time>
      </trkpt>
      <trkpt lat="47.29159" lon="-1.53736">
        <ele>70</ele>
        <time>2022-04-10T09:32:01Z</time>
      </trkpt>
      <trkpt lat="47.29161" lon="-1.53735">
        <ele>70</ele>
        <time>2022-04-10T09:32:02Z</time>
      </trkpt>
      <trkpt lat="47.29163" lon="-1.53737">
        <ele>69</ele>
        <time>2022-04-10T09:32:03Z</time>
      </trkpt>
      <trkpt lat="47.29164" lon="-1.53737">
        <ele>69</ele>
        <time>2022-04-10T09:32:04Z</time>
      </trkpt>
      <trkpt lat="47.29165" lon="-1.53737">
        <ele>69</ele>
        <time>2022-04-10T09:32:05Z</time>
      </trkpt>
      <trkpt lat="47.29166" lon="-1.53736">
        <ele>69</ele>
        <time>2022-04-10T09:32:06Z</time>
      </trkpt>
      <trkpt lat="47.29167" lon="-1.53735">
        <ele>69</ele>
        <time>2022-04-10T09:32:07Z</time>
      </trkpt>
      <trkpt lat="47.29168" lon="-1.53736">
        <ele>69</ele>
        <time>2022-04-10T09:32:08Z</time>
      </trkpt>
      <trkpt lat="47.29169" lon="-1.53735">
        <ele>69</ele>
        <time>2022-04-10T09:32:09Z</time>
      </trkpt>
      <trkpt lat="47.2917" lon="-1.53736">
        <ele>69</ele>
        <time>2022-04-10T09:32:10Z</time>
      </trkpt>
      <trkpt lat="47.29172" lon="-1.53736">
        <ele>69</ele>
        <time>2022-04-10T09:32:11Z</time>
      </trkpt>
      <trkpt lat="47.29173" lon="-1.53737">
        <ele>69</ele>
        <time>2022-04-10T09:32:12Z</time>
      </trkpt>
      <trkpt lat="47.29173" lon="-1.53737">
        <ele>70</ele>
        <time>2022-04-10T09:32:13Z</time>
      </trkpt>
      <trkpt lat="47.29173" lon="-1.53737">
        <ele>70</ele>
        <time>2022-04-10T09:32:14Z</time>
      </trkpt>
      <trkpt lat="47.29173" lon="-1.53737">
        <ele>70</ele>
        <time>2022-04-10T09:32:15Z</time>
      </trkpt>
      <trkpt lat="47.29176" lon="-1.53739">
        <ele>70</ele>
        <time>2022-04-10T09:32:16Z</time>
      </trkpt>
      <trkpt lat="47.29176" lon="-1.5374">
        <ele>70</ele>
        <time>2022-04-10T09:32:17Z</time>
      </trkpt>
      <trkpt lat="47.29178" lon="-1.5374">
        <ele>71</ele>
        <time>2022-04-10T09:32:18Z</time>
      </trkpt>
      <trkpt lat="47.29178" lon="-1.53741">
        <ele>71</ele>
        <time>2022-04-10T09:32:19Z</time>
      </trkpt>
      <trkpt lat="47.29179" lon="-1.53741">
        <ele>70</ele>
        <time>2022-04-10T09:32:20Z</time>
      </trkpt>
      <trkpt lat="47.29179" lon="-1.53741">
        <ele>70</ele>
        <time>2022-04-10T09:32:21Z</time>
      </trkpt>
      <trkpt lat="47.29179" lon="-1.53741">
        <ele>70</ele>
        <time>2022-04-10T09:32:22Z</time>
      </trkpt>
      <trkpt lat="47.29181" lon="-1.53743">
        <ele>71</ele>
        <time>2022-04-10T09:32:23Z</time>
      </trkpt>
      <trkpt lat="47.29182" lon="-1.53744">
        <ele>71</ele>
        <time>2022-04-10T09:32:24Z</time>
      </trkpt>
      <trkpt lat="47.29183" lon="-1.53746">
        <ele>71</ele>
        <time>2022-04-10T09:32:25Z</time>
      </trkpt>
      <trkpt lat="47.29184" lon="-1.53746">
        <ele>70</ele>
        <time>2022-04-10T09:32:26Z</time>
      </trkpt>
      <trkpt lat="47.29185" lon="-1.53747">
        <ele>70</ele>
        <time>2022-04-10T09:32:27Z</time>
      </trkpt>
      <trkpt lat="47.29185" lon="-1.53747">
        <ele>70</ele>
        <time>2022-04-10T09:32:28Z</time>
      </trkpt>
      <trkpt lat="47.29187" lon="-1.5375">
        <ele>69</ele>
        <time>2022-04-10T09:32:29Z</time>
      </trkpt>
      <trkpt lat="47.29188" lon="-1.53751">
        <ele>69</ele>
        <time>2022-04-10T09:32:30Z</time>
      </trkpt>
      <trkpt lat="47.29189" lon="-1.53752">
        <ele>70</ele>
        <time>2022-04-10T09:32:31Z</time>
      </trkpt>
      <trkpt lat="47.2919" lon="-1.53754">
        <ele>70</ele>
        <time>2022-04-10T09:32:32Z</time>
      </trkpt>
      <trkpt lat="47.29191" lon="-1.53755">
        <ele>70</ele>
        <time>2022-04-10T09:32:33Z</time>
      </trkpt>
      <trkpt lat="47.29192" lon="-1.53756">
        <ele>70</ele>
        <time>2022-04-10T09:32:34Z</time>
      </trkpt>
      <trkpt lat="47.29193" lon="-1.53757">
        <ele>69</ele>
        <time>2022-04-10T09:32:35Z</time>
      </trkpt>
      <trkpt lat="47.29194" lon="-1.53758">
        <ele>70</ele>
        <time>2022-04-10T09:32:36Z</time>
      </trkpt>
      <trkpt lat="47.29195" lon="-1.53758">
        <ele>70</ele>
        <time>2022-04-10T09:32:37Z</time>
      </trkpt>
      <trkpt lat="47.29196" lon="-1.53758">
        <ele>70</ele>
        <time>2022-04-10T09:32:38Z</time>
      </trkpt>
      <trkpt lat="47.29196" lon="-1.53758">
        <ele>70</ele>
        <time>2022-04-10T09:32:39Z</time>
      </trkpt>
      <trkpt lat="47.29197" lon="-1.53757">
        <ele>69</ele>
        <time>2022-04-10T09:32:40Z</time>
      </trkpt>
      <trkpt lat="47.29197" lon="-1.53757">
        <ele>69</ele>
        <time>2022-04-10T09:32:41Z</time>
      </trkpt>
      <trkpt lat="47.29198" lon="-1.53757">
        <ele>70</ele>
        <time>2022-04-10T09:32:42Z</time>
      </trkpt>
      <trkpt lat="47.29199" lon="-1.53756">
        <ele>70</ele>
        <time>2022-04-10T09:32:43Z</time>
      </trkpt>
      <trkpt lat="47.29199" lon="-1.53756">
        <ele>70</ele>
        <time>2022-04-10T09:32:44Z</time>
      </trkpt>
      <trkpt lat="47.29199" lon="-1.53756">
        <ele>70</ele>
        <time>2022-04-10T09:32:45Z</time>
      </trkpt>
      <trkpt lat="47.292" lon="-1.53756">
        <ele>70</ele>
        <time>2022-04-10T09:32:46Z</time>
      </trkpt>
      <trkpt lat="47.292" lon="-1.53756">
        <ele>70</ele>
        <time>2022-04-10T09:32:47Z</time>
      </trkpt>
      <trkpt lat="47.292" lon="-1.53756">
        <ele>70</ele>
        <time>2022-04-10T09:32:48Z</time>
      </trkpt>
      <trkpt lat="47.29201" lon="-1.53755">
        <ele>70</ele>
        <time>2022-04-10T09:32:49Z</time>
      </trkpt>
      <trkpt lat="47.29201" lon="-1.53755">
        <ele>70</ele>
        <time>2022-04-10T09:32:50Z</time>
      </trkpt>
      <trkpt lat="47.29201" lon="-1.53755">
        <ele>70</ele>
        <time>2022-04-10T09:32:51Z</time>
      </trkpt>
      <trkpt lat="47.29203" lon="-1.53754">
        <ele>68</ele>
        <time>2022-04-10T09:32:52Z</time>
      </trkpt>
      <trkpt lat="47.29204" lon="-1.53754">
        <ele>67</ele>
        <time>2022-04-10T09:32:53Z</time>
      </trkpt>
      <trkpt lat="47.29205" lon="-1.53753">
        <ele>67</ele>
        <time>2022-04-10T09:32:54Z</time>
      </trkpt>
      <trkpt lat="47.29205" lon="-1.53752">
        <ele>66</ele>
        <time>2022-04-10T09:32:55Z</time>
      </trkpt>
      <trkpt lat="47.29205" lon="-1.53752">
        <ele>66</ele>
        <time>2022-04-10T09:32:56Z</time>
      </trkpt>
      <trkpt lat="47.29205" lon="-1.53751">
        <ele>64</ele>
        <time>2022-04-10T09:32:57Z</time>
      </trkpt>
      <trkpt lat="47.29206" lon="-1.53751">
        <ele>64</ele>
        <time>2022-04-10T09:32:58Z</time>
      </trkpt>
      <trkpt lat="47.29206" lon="-1.53751">
        <ele>64</ele>
        <time>2022-04-10T09:32:59Z</time>
      </trkpt>
      <trkpt lat="47.29207" lon="-1.53751">
        <ele>64</ele>
        <time>2022-04-10T09:33:00Z</time>
      </trkpt>
      <trkpt lat="47.29207" lon="-1.5375">
        <ele>64</ele>
        <time>2022-04-10T09:33:01Z</time>
      </trkpt>
      <trkpt lat="47.29208" lon="-1.5375">
        <ele>64</ele>
        <time>2022-04-10T09:33:02Z</time>
      </trkpt>
      <trkpt lat="47.29208" lon="-1.5375">
        <ele>64</ele>
        <time>2022-04-10T09:33:03Z</time>
      </trkpt>
      <trkpt lat="47.29208" lon="-1.5375">
        <ele>64</ele>
        <time>2022-04-10T09:33:04Z</time>
      </trkpt>
      <trkpt lat="47.29209" lon="-1.53748">
        <ele>64</ele>
        <time>2022-04-10T09:33:05Z</time>
      </trkpt>
      <trkpt lat="47.2921" lon="-1.53746">
        <ele>64</ele>
        <time>2022-04-10T09:33:06Z</time>
      </trkpt>
      <trkpt lat="47.29211" lon="-1.53745">
        <ele>64</ele>
        <time>2022-04-10T09:33:07Z</time>
      </trkpt>
      <trkpt lat="47.29212" lon="-1.53743">
        <ele>64</ele>
        <time>2022-04-10T09:33:08Z</time>
      </trkpt>
      <trkpt lat="47.29213" lon="-1.53741">
        <ele>65</ele>
        <time>2022-04-10T09:33:09Z</time>
      </trkpt>
      <trkpt lat="47.29215" lon="-1.5374">
        <ele>64</ele>
        <time>2022-04-10T09:33:10Z</time>
      </trkpt>
      <trkpt lat="47.29216" lon="-1.53738">
        <ele>64</ele>
        <time>2022-04-10T09:33:11Z</time>
      </trkpt>
      <trkpt lat="47.29217" lon="-1.53737">
        <ele>64</ele>
        <time>2022-04-10T09:33:12Z</time>
      </trkpt>
      <trkpt lat="47.29218" lon="-1.53736">
        <ele>63</ele>
        <time>2022-04-10T09:33:13Z</time>
      </trkpt>
      <trkpt lat="47.29219" lon="-1.53734">
        <ele>63</ele>
        <time>2022-04-10T09:33:14Z</time>
      </trkpt>
      <trkpt lat="47.2922" lon="-1.53733">
        <ele>63</ele>
        <time>2022-04-10T09:33:15Z</time>
      </trkpt>
      <trkpt lat="47.29221" lon="-1.53731">
        <ele>64</ele>
        <time>2022-04-10T09:33:16Z</time>
      </trkpt>
      <trkpt lat="47.29222" lon="-1.5373">
        <ele>64</ele>
        <time>2022-04-10T09:33:17Z</time>
      </trkpt>
      <trkpt lat="47.29222" lon="-1.53729">
        <ele>64</ele>
        <time>2022-04-10T09:33:18Z</time>
      </trkpt>
      <trkpt lat="47.29223" lon="-1.53728">
        <ele>64</ele>
        <time>2022-04-10T09:33:19Z</time>
      </trkpt>
      <trkpt lat="47.29223" lon="-1.53728">
        <ele>64</ele>
        <time>2022-04-10T09:33:20Z</time>
      </trkpt>
      <trkpt lat="47.29223" lon="-1.53728">
        <ele>64</ele>
        <time>2022-04-10T09:33:21Z</time>
      </trkpt>
      <trkpt lat="47.29225" lon="-1.53725">
        <ele>64</ele>
        <time>2022-04-10T09:33:22Z</time>
      </trkpt>
      <trkpt lat="47.29226" lon="-1.53723">
        <ele>64</ele>
        <time>2022-04-10T09:33:23Z</time>
      </trkpt>
      <trkpt lat="47.29227" lon="-1.53722">
        <ele>64</ele>
        <time>2022-04-10T09:33:24Z</time>
      </trkpt>
      <trkpt lat="47.29228" lon="-1.53721">
        <ele>65</ele>
        <time>2022-04-10T09:33:25Z</time>
      </trkpt>
      <trkpt lat="47.29229" lon="-1.53719">
        <ele>65</ele>
        <time>2022-04-10T09:33:26Z</time>
      </trkpt>
      <trkpt lat="47.29229" lon="-1.53718">
        <ele>65</ele>
        <time>2022-04-10T09:33:27Z</time>
      </trkpt>
      <trkpt lat="47.29229" lon="-1.53717">
        <ele>65</ele>
        <time>2022-04-10T09:33:28Z</time>
      </trkpt>
      <trkpt lat="47.29229" lon="-1.53717">
        <ele>65</ele>
        <time>2022-04-10T09:33:29Z</time>
      </trkpt>
      <trkpt lat="47.29229" lon="-1.53717">
        <ele>65</ele>
        <time>2022-04-10T09:33:30Z</time>
      </trkpt>
      <trkpt lat="47.29231" lon="-1.53714">
        <ele>64</ele>
        <time>2022-04-10T09:33:31Z</time>
      </trkpt>
      <trkpt lat="47.29232" lon="-1.53713">
        <ele>64</ele>
        <time>2022-04-10T09:33:32Z</time>
      </trkpt>
      <trkpt lat="47.29234" lon="-1.53712">
        <ele>65</ele>
        <time>2022-04-10T09:33:33Z</time>
      </trkpt>
      <trkpt lat="47.29235" lon="-1.53711">
        <ele>64</ele>
        <time>2022-04-10T09:33:34Z</time>
      </trkpt>
      <trkpt lat="47.29236" lon="-1.5371">
        <ele>64</ele>
        <time>2022-04-10T09:33:35Z</time>
      </trkpt>
      <trkpt lat="47.29236" lon="-1.53709">
        <ele>64</ele>
        <time>2022-04-10T09:33:36Z</time>
      </trkpt>
      <trkpt lat="47.29237" lon="-1.53708">
        <ele>63</ele>
        <time>2022-04-10T09:33:37Z</time>
      </trkpt>
      <trkpt lat="47.29239" lon="-1.53707">
        <ele>63</ele>
        <time>2022-04-10T09:33:38Z</time>
      </trkpt>
      <trkpt lat="47.2924" lon="-1.53705">
        <ele>63</ele>
        <time>2022-04-10T09:33:39Z</time>
      </trkpt>
      <trkpt lat="47.29241" lon="-1.53704">
        <ele>63</ele>
        <time>2022-04-10T09:33:40Z</time>
      </trkpt>
      <trkpt lat="47.29243" lon="-1.53702">
        <ele>64</ele>
        <time>2022-04-10T09:33:41Z</time>
      </trkpt>
      <trkpt lat="47.29244" lon="-1.53701">
        <ele>64</ele>
        <time>2022-04-10T09:33:42Z</time>
      </trkpt>
      <trkpt lat="47.29245" lon="-1.537">
        <ele>64</ele>
        <time>2022-04-10T09:33:43Z</time>
      </trkpt>
      <trkpt lat="47.29245" lon="-1.53699">
        <ele>64</ele>
        <time>2022-04-10T09:33:44Z</time>
      </trkpt>
      <trkpt lat="47.29246" lon="-1.53697">
        <ele>64</ele>
        <time>2022-04-10T09:33:45Z</time>
      </trkpt>
      <trkpt lat="47.29247" lon="-1.53696">
        <ele>63</ele>
        <time>2022-04-10T09:33:46Z</time>
      </trkpt>
      <trkpt lat="47.29247" lon="-1.53695">
        <ele>62</ele>
        <time>2022-04-10T09:33:47Z</time>
      </trkpt>
      <trkpt lat="47.29248" lon="-1.53694">
        <ele>62</ele>
        <time>2022-04-10T09:33:48Z</time>
      </trkpt>
      <trkpt lat="47.29249" lon="-1.53692">
        <ele>62</ele>
        <time>2022-04-10T09:33:49Z</time>
      </trkpt>
      <trkpt lat="47.2925" lon="-1.53691">
        <ele>62</ele>
        <time>2022-04-10T09:33:50Z</time>
      </trkpt>
      <trkpt lat="47.29251" lon="-1.53691">
        <ele>62</ele>
        <time>2022-04-10T09:33:51Z</time>
      </trkpt>
      <trkpt lat="47.29252" lon="-1.5369">
        <ele>62</ele>
        <time>2022-04-10T09:33:52Z</time>
      </trkpt>
      <trkpt lat="47.29253" lon="-1.53689">
        <ele>61</ele>
        <time>2022-04-10T09:33:53Z</time>
      </trkpt>
      <trkpt lat="47.29254" lon="-1.53688">
        <ele>61</ele>
        <time>2022-04-10T09:33:54Z</time>
      </trkpt>
      <trkpt lat="47.29255" lon="-1.53686">
        <ele>61</ele>
        <time>2022-04-10T09:33:55Z</time>
      </trkpt>
      <trkpt lat="47.29255" lon="-1.53685">
        <ele>61</ele>
        <time>2022-04-10T09:33:56Z</time>
      </trkpt>
      <trkpt lat="47.29255" lon="-1.53685">
        <ele>61</ele>
        <time>2022-04-10T09:33:57Z</time>
      </trkpt>
      <trkpt lat="47.29256" lon="-1.53684">
        <ele>60</ele>
        <time>2022-04-10T09:33:58Z</time>
      </trkpt>
      <trkpt lat="47.29256" lon="-1.53682">
        <ele>60</ele>
        <time>2022-04-10T09:33:59Z</time>
      </trkpt>
      <trkpt lat="47.29256" lon="-1.5368">
        <ele>59</ele>
        <time>2022-04-10T09:34:00Z</time>
      </trkpt>
      <trkpt lat="47.29256" lon="-1.53678">
        <ele>59</ele>
        <time>2022-04-10T09:34:01Z</time>
      </trkpt>
      <trkpt lat="47.29256" lon="-1.53676">
        <ele>59</ele>
        <time>2022-04-10T09:34:02Z</time>
      </trkpt>
      <trkpt lat="47.29256" lon="-1.53675">
        <ele>58</ele>
        <time>2022-04-10T09:34:03Z</time>
      </trkpt>
      <trkpt lat="47.29256" lon="-1.53674">
        <ele>58</ele>
        <time>2022-04-10T09:34:04Z</time>
      </trkpt>
      <trkpt lat="47.29255" lon="-1.53672">
        <ele>57</ele>
        <time>2022-04-10T09:34:05Z</time>
      </trkpt>
      <trkpt lat="47.29255" lon="-1.53672">
        <ele>57</ele>
        <time>2022-04-10T09:34:06Z</time>
      </trkpt>
      <trkpt lat="47.29255" lon="-1.53672">
        <ele>56</ele>
        <time>2022-04-10T09:34:07Z</time>
      </trkpt>
      <trkpt lat="47.29255" lon="-1.53671">
        <ele>56</ele>
        <time>2022-04-10T09:34:08Z</time>
      </trkpt>
      <trkpt lat="47.29255" lon="-1.5367">
        <ele>56</ele>
        <time>2022-04-10T09:34:09Z</time>
      </trkpt>
      <trkpt lat="47.29254" lon="-1.53669">
        <ele>56</ele>
        <time>2022-04-10T09:34:10Z</time>
      </trkpt>
      <trkpt lat="47.29253" lon="-1.53668">
        <ele>56</ele>
        <time>2022-04-10T09:34:11Z</time>
      </trkpt>
      <trkpt lat="47.29253" lon="-1.53668">
        <ele>56</ele>
        <time>2022-04-10T09:34:12Z</time>
      </trkpt>
      <trkpt lat="47.29252" lon="-1.53666">
        <ele>55</ele>
        <time>2022-04-10T09:34:13Z</time>
      </trkpt>
      <trkpt lat="47.29252" lon="-1.53666">
        <ele>54</ele>
        <time>2022-04-10T09:34:14Z</time>
      </trkpt>
      <trkpt lat="47.29252" lon="-1.53666">
        <ele>54</ele>
        <time>2022-04-10T09:34:15Z</time>
      </trkpt>
      <trkpt lat="47.29251" lon="-1.53665">
        <ele>54</ele>
        <time>2022-04-10T09:34:16Z</time>
      </trkpt>
      <trkpt lat="47.2925" lon="-1.53665">
        <ele>54</ele>
        <time>2022-04-10T09:34:17Z</time>
      </trkpt>
      <trkpt lat="47.2925" lon="-1.53665">
        <ele>53</ele>
        <time>2022-04-10T09:34:18Z</time>
      </trkpt>
      <trkpt lat="47.29249" lon="-1.53665">
        <ele>53</ele>
        <time>2022-04-10T09:34:19Z</time>
      </trkpt>
      <trkpt lat="47.29248" lon="-1.53664">
        <ele>52</ele>
        <time>2022-04-10T09:34:20Z</time>
      </trkpt>
      <trkpt lat="47.29248" lon="-1.53664">
        <ele>52</ele>
        <time>2022-04-10T09:34:21Z</time>
      </trkpt>
      <trkpt lat="47.29247" lon="-1.53663">
        <ele>52</ele>
        <time>2022-04-10T09:34:22Z</time>
      </trkpt>
      <trkpt lat="47.29247" lon="-1.53663">
        <ele>52</ele>
        <time>2022-04-10T09:34:23Z</time>
      </trkpt>
      <trkpt lat="47.29247" lon="-1.53662">
        <ele>52</ele>
        <time>2022-04-10T09:34:24Z</time>
      </trkpt>
      <trkpt lat="47.29247" lon="-1.53662">
        <ele>52</ele>
        <time>2022-04-10T09:34:25Z</time>
      </trkpt>
      <trkpt lat="47.29247" lon="-1.53662">
        <ele>52</ele>
        <time>2022-04-10T09:34:26Z</time>
      </trkpt>
      <trkpt lat="47.29246" lon="-1.5366">
        <ele>51</ele>
        <time>2022-04-10T09:34:27Z</time>
      </trkpt>
      <trkpt lat="47.29245" lon="-1.5366">
        <ele>51</ele>
        <time>2022-04-10T09:34:28Z</time>
      </trkpt>
      <trkpt lat="47.29245" lon="-1.5366">
        <ele>51</ele>
        <time>2022-04-10T09:34:29Z</time>
      </trkpt>
      <trkpt lat="47.29245" lon="-1.5366">
        <ele>50</ele>
        <time>2022-04-10T09:34:30Z</time>
      </trkpt>
      <trkpt lat="47.29245" lon="-1.5366">
        <ele>50</ele>
        <time>2022-04-10T09:34:31Z</time>
      </trkpt>
      <trkpt lat="47.29245" lon="-1.5366">
        <ele>50</ele>
        <time>2022-04-10T09:34:31Z</time>
      </trkpt>
      <trkpt lat="47.29244" lon="-1.53656">
        <ele>54</ele>
        <time>2022-04-10T09:38:31Z</time>
      </trkpt>
      <trkpt lat="47.29244" lon="-1.53657">
        <ele>53</ele>
        <time>2022-04-10T09:38:32Z</time>
      </trkpt>
      <trkpt lat="47.29244" lon="-1.53657">
        <ele>54</ele>
        <time>2022-04-10T09:38:33Z</time>
      </trkpt>
      <trkpt lat="47.29244" lon="-1.53657">
        <ele>54</ele>
        <time>2022-04-10T09:38:34Z</time>
      </trkpt>
      <trkpt lat="47.29244" lon="-1.53656">
        <ele>54</ele>
        <time>2022-04-10T09:38:35Z</time>
      </trkpt>
      <trkpt lat="47.29244" lon="-1.53656">
        <ele>54</ele>
        <time>2022-04-10T09:38:35Z</time>
      </trkpt>
      <trkpt lat="47.29244" lon="-1.53656">
        <ele>54</ele>
        <time>2022-04-10T09:38:35Z</time>
      </trkpt>
      <trkpt lat="47.29256" lon="-1.53667">
        <ele>51</ele>
        <time>2022-04-10T09:42:23Z</time>
      </trkpt>
      <trkpt lat="47.29256" lon="-1.53668">
        <ele>51</ele>
        <time>2022-04-10T09:42:24Z</time>
      </trkpt>
      <trkpt lat="47.29257" lon="-1.53668">
        <ele>51</ele>
        <time>2022-04-10T09:42:25Z</time>
      </trkpt>
      <trkpt lat="47.29257" lon="-1.53668">
        <ele>51</ele>
        <time>2022-04-10T09:42:26Z</time>
      </trkpt>
      <trkpt lat="47.29258" lon="-1.53669">
        <ele>51</ele>
        <time>2022-04-10T09:42:27Z</time>
      </trkpt>
      <trkpt lat="47.29258" lon="-1.53669">
        <ele>51</ele>
        <time>2022-04-10T09:42:28Z</time>
      </trkpt>
      <trkpt lat="47.29259" lon="-1.5367">
        <ele>51</ele>
        <time>2022-04-10T09:42:29Z</time>
      </trkpt>
      <trkpt lat="47.29259" lon="-1.5367">
        <ele>52</ele>
        <time>2022-04-10T09:42:30Z</time>
      </trkpt>
      <trkpt lat="47.29259" lon="-1.5367">
        <ele>52</ele>
        <time>2022-04-10T09:42:31Z</time>
      </trkpt>
      <trkpt lat="47.2926" lon="-1.53671">
        <ele>52</ele>
        <time>2022-04-10T09:42:32Z</time>
      </trkpt>
      <trkpt lat="47.2926" lon="-1.53672">
        <ele>51</ele>
        <time>2022-04-10T09:42:33Z</time>
      </trkpt>
      <trkpt lat="47.29261" lon="-1.53672">
        <ele>51</ele>
        <time>2022-04-10T09:42:34Z</time>
      </trkpt>
      <trkpt lat="47.29261" lon="-1.53673">
        <ele>51</ele>
        <time>2022-04-10T09:42:35Z</time>
      </trkpt>
      <trkpt lat="47.29261" lon="-1.53674">
        <ele>51</ele>
        <time>2022-04-10T09:42:36Z</time>
      </trkpt>
      <trkpt lat="47.29262" lon="-1.53674">
        <ele>51</ele>
        <time>2022-04-10T09:42:37Z</time>
      </trkpt>
      <trkpt lat="47.29262" lon="-1.53674">
        <ele>51</ele>
        <time>2022-04-10T09:42:38Z</time>
      </trkpt>
      <trkpt lat="47.29263" lon="-1.53675">
        <ele>52</ele>
        <time>2022-04-10T09:42:39Z</time>
      </trkpt>
      <trkpt lat="47.29263" lon="-1.53675">
        <ele>51</ele>
        <time>2022-04-10T09:42:40Z</time>
      </trkpt>
      <trkpt lat="47.29264" lon="-1.53676">
        <ele>51</ele>
        <time>2022-04-10T09:42:41Z</time>
      </trkpt>
      <trkpt lat="47.29265" lon="-1.53676">
        <ele>51</ele>
        <time>2022-04-10T09:42:42Z</time>
      </trkpt>
      <trkpt lat="47.29265" lon="-1.53676">
        <ele>51</ele>
        <time>2022-04-10T09:42:43Z</time>
      </trkpt>
      <trkpt lat="47.29266" lon="-1.53677">
        <ele>51</ele>
        <time>2022-04-10T09:42:44Z</time>
      </trkpt>
      <trkpt lat="47.29266" lon="-1.53678">
        <ele>51</ele>
        <time>2022-04-10T09:42:45Z</time>
      </trkpt>
      <trkpt lat="47.29267" lon="-1.53678">
        <ele>52</ele>
        <time>2022-04-10T09:42:46Z</time>
      </trkpt>
      <trkpt lat="47.29268" lon="-1.53678">
        <ele>52</ele>
        <time>2022-04-10T09:42:47Z</time>
      </trkpt>
      <trkpt lat="47.29269" lon="-1.53679">
        <ele>51</ele>
        <time>2022-04-10T09:42:48Z</time>
      </trkpt>
      <trkpt lat="47.29269" lon="-1.5368">
        <ele>51</ele>
        <time>2022-04-10T09:42:49Z</time>
      </trkpt>
      <trkpt lat="47.2927" lon="-1.53681">
        <ele>51</ele>
        <time>2022-04-10T09:42:50Z</time>
      </trkpt>
      <trkpt lat="47.29271" lon="-1.53681">
        <ele>51</ele>
        <time>2022-04-10T09:42:51Z</time>
      </trkpt>
      <trkpt lat="47.29271" lon="-1.53682">
        <ele>51</ele>
        <time>2022-04-10T09:42:52Z</time>
      </trkpt>
      <trkpt lat="47.29272" lon="-1.53682">
        <ele>52</ele>
        <time>2022-04-10T09:42:53Z</time>
      </trkpt>
      <trkpt lat="47.29273" lon="-1.53682">
        <ele>52</ele>
        <time>2022-04-10T09:42:54Z</time>
      </trkpt>
      <trkpt lat="47.29274" lon="-1.53683">
        <ele>52</ele>
        <time>2022-04-10T09:42:55Z</time>
      </trkpt>
      <trkpt lat="47.29274" lon="-1.53684">
        <ele>52</ele>
        <time>2022-04-10T09:42:56Z</time>
      </trkpt>
      <trkpt lat="47.29275" lon="-1.53685">
        <ele>53</ele>
        <time>2022-04-10T09:42:57Z</time>
      </trkpt>
      <trkpt lat="47.29276" lon="-1.53686">
        <ele>53</ele>
        <time>2022-04-10T09:42:58Z</time>
      </trkpt>
      <trkpt lat="47.29277" lon="-1.53687">
        <ele>52</ele>
        <time>2022-04-10T09:42:59Z</time>
      </trkpt>
      <trkpt lat="47.29278" lon="-1.53688">
        <ele>52</ele>
        <time>2022-04-10T09:43:00Z</time>
      </trkpt>
      <trkpt lat="47.29278" lon="-1.53689">
        <ele>52</ele>
        <time>2022-04-10T09:43:01Z</time>
      </trkpt>
      <trkpt lat="47.29279" lon="-1.5369">
        <ele>53</ele>
        <time>2022-04-10T09:43:02Z</time>
      </trkpt>
      <trkpt lat="47.2928" lon="-1.53691">
        <ele>53</ele>
        <time>2022-04-10T09:43:03Z</time>
      </trkpt>
      <trkpt lat="47.29281" lon="-1.53692">
        <ele>53</ele>
        <time>2022-04-10T09:43:04Z</time>
      </trkpt>
      <trkpt lat="47.29282" lon="-1.53693">
        <ele>53</ele>
        <time>2022-04-10T09:43:05Z</time>
      </trkpt>
      <trkpt lat="47.29282" lon="-1.53694">
        <ele>53</ele>
        <time>2022-04-10T09:43:06Z</time>
      </trkpt>
      <trkpt lat="47.29283" lon="-1.53695">
        <ele>54</ele>
        <time>2022-04-10T09:43:07Z</time>
      </trkpt>
      <trkpt lat="47.29283" lon="-1.53696">
        <ele>54</ele>
        <time>2022-04-10T09:43:08Z</time>
      </trkpt>
      <trkpt lat="47.29284" lon="-1.53697">
        <ele>53</ele>
        <time>2022-04-10T09:43:09Z</time>
      </trkpt>
      <trkpt lat="47.29285" lon="-1.53698">
        <ele>53</ele>
        <time>2022-04-10T09:43:10Z</time>
      </trkpt>
      <trkpt lat="47.29285" lon="-1.53699">
        <ele>53</ele>
        <time>2022-04-10T09:43:11Z</time>
      </trkpt>
      <trkpt lat="47.29286" lon="-1.53701">
        <ele>54</ele>
        <time>2022-04-10T09:43:12Z</time>
      </trkpt>
      <trkpt lat="47.29287" lon="-1.53702">
        <ele>53</ele>
        <time>2022-04-10T09:43:13Z</time>
      </trkpt>
      <trkpt lat="47.29288" lon="-1.53703">
        <ele>53</ele>
        <time>2022-04-10T09:43:14Z</time>
      </trkpt>
      <trkpt lat="47.29288" lon="-1.53704">
        <ele>53</ele>
        <time>2022-04-10T09:43:15Z</time>
      </trkpt>
      <trkpt lat="47.29289" lon="-1.53705">
        <ele>54</ele>
        <time>2022-04-10T09:43:16Z</time>
      </trkpt>
      <trkpt lat="47.29289" lon="-1.53706">
        <ele>54</ele>
        <time>2022-04-10T09:43:17Z</time>
      </trkpt>
      <trkpt lat="47.29289" lon="-1.53707">
        <ele>54</ele>
        <time>2022-04-10T09:43:18Z</time>
      </trkpt>
      <trkpt lat="47.2929" lon="-1.53708">
        <ele>54</ele>
        <time>2022-04-10T09:43:19Z</time>
      </trkpt>
      <trkpt lat="47.2929" lon="-1.53709">
        <ele>53</ele>
        <time>2022-04-10T09:43:20Z</time>
      </trkpt>
      <trkpt lat="47.2929" lon="-1.5371">
        <ele>53</ele>
        <time>2022-04-10T09:43:21Z</time>
      </trkpt>
      <trkpt lat="47.29291" lon="-1.53711">
        <ele>53</ele>
        <time>2022-04-10T09:43:22Z</time>
      </trkpt>
      <trkpt lat="47.29292" lon="-1.53713">
        <ele>53</ele>
        <time>2022-04-10T09:43:23Z</time>
      </trkpt>
      <trkpt lat="47.29292" lon="-1.53715">
        <ele>54</ele>
        <time>2022-04-10T09:43:24Z</time>
      </trkpt>
      <trkpt lat="47.29293" lon="-1.53716">
        <ele>54</ele>
        <time>2022-04-10T09:43:25Z</time>
      </trkpt>
      <trkpt lat="47.29293" lon="-1.53717">
        <ele>53</ele>
        <time>2022-04-10T09:43:26Z</time>
      </trkpt>
      <trkpt lat="47.29293" lon="-1.53718">
        <ele>53</ele>
        <time>2022-04-10T09:43:27Z</time>
      </trkpt>
      <trkpt lat="47.29294" lon="-1.53719">
        <ele>53</ele>
        <time>2022-04-10T09:43:28Z</time>
      </trkpt>
      <trkpt lat="47.29295" lon="-1.5372">
        <ele>53</ele>
        <time>2022-04-10T09:43:29Z</time>
      </trkpt>
      <trkpt lat="47.29295" lon="-1.5372">
        <ele>54</ele>
        <time>2022-04-10T09:43:30Z</time>
      </trkpt>
      <trkpt lat="47.29295" lon="-1.53721">
        <ele>54</ele>
        <time>2022-04-10T09:43:31Z</time>
      </trkpt>
      <trkpt lat="47.29295" lon="-1.53723">
        <ele>54</ele>
        <time>2022-04-10T09:43:32Z</time>
      </trkpt>
      <trkpt lat="47.29296" lon="-1.53724">
        <ele>54</ele>
        <time>2022-04-10T09:43:33Z</time>
      </trkpt>
      <trkpt lat="47.29296" lon="-1.53725">
        <ele>54</ele>
        <time>2022-04-10T09:43:34Z</time>
      </trkpt>
      <trkpt lat="47.29297" lon="-1.53727">
        <ele>54</ele>
        <time>2022-04-10T09:43:35Z</time>
      </trkpt>
      <trkpt lat="47.29297" lon="-1.53728">
        <ele>55</ele>
        <time>2022-04-10T09:43:36Z</time>
      </trkpt>
      <trkpt lat="47.29298" lon="-1.5373">
        <ele>55</ele>
        <time>2022-04-10T09:43:37Z</time>
      </trkpt>
      <trkpt lat="47.29298" lon="-1.53731">
        <ele>55</ele>
        <time>2022-04-10T09:43:38Z</time>
      </trkpt>
      <trkpt lat="47.29298" lon="-1.53732">
        <ele>55</ele>
        <time>2022-04-10T09:43:39Z</time>
      </trkpt>
      <trkpt lat="47.29299" lon="-1.53733">
        <ele>55</ele>
        <time>2022-04-10T09:43:40Z</time>
      </trkpt>
      <trkpt lat="47.293" lon="-1.53734">
        <ele>55</ele>
        <time>2022-04-10T09:43:41Z</time>
      </trkpt>
      <trkpt lat="47.293" lon="-1.53736">
        <ele>55</ele>
        <time>2022-04-10T09:43:42Z</time>
      </trkpt>
      <trkpt lat="47.293" lon="-1.53736">
        <ele>55</ele>
        <time>2022-04-10T09:43:43Z</time>
      </trkpt>
      <trkpt lat="47.293" lon="-1.53738">
        <ele>56</ele>
        <time>2022-04-10T09:43:44Z</time>
      </trkpt>
      <trkpt lat="47.29301" lon="-1.53738">
        <ele>55</ele>
        <time>2022-04-10T09:43:45Z</time>
      </trkpt>
      <trkpt lat="47.29301" lon="-1.53739">
        <ele>55</ele>
        <time>2022-04-10T09:43:46Z</time>
      </trkpt>
      <trkpt lat="47.29302" lon="-1.53741">
        <ele>55</ele>
        <time>2022-04-10T09:43:47Z</time>
      </trkpt>
      <trkpt lat="47.29302" lon="-1.53742">
        <ele>55</ele>
        <time>2022-04-10T09:43:48Z</time>
      </trkpt>
      <trkpt lat="47.29303" lon="-1.53743">
        <ele>56</ele>
        <time>2022-04-10T09:43:49Z</time>
      </trkpt>
      <trkpt lat="47.29303" lon="-1.53744">
        <ele>56</ele>
        <time>2022-04-10T09:43:50Z</time>
      </trkpt>
      <trkpt lat="47.29303" lon="-1.53745">
        <ele>56</ele>
        <time>2022-04-10T09:43:51Z</time>
      </trkpt>
      <trkpt lat="47.29304" lon="-1.53746">
        <ele>56</ele>
        <time>2022-04-10T09:43:52Z</time>
      </trkpt>
      <trkpt lat="47.29305" lon="-1.53748">
        <ele>56</ele>
        <time>2022-04-10T09:43:53Z</time>
      </trkpt>
      <trkpt lat="47.29305" lon="-1.5375">
        <ele>56</ele>
        <time>2022-04-10T09:43:54Z</time>
      </trkpt>
      <trkpt lat="47.29305" lon="-1.53751">
        <ele>56</ele>
        <time>2022-04-10T09:43:55Z</time>
      </trkpt>
      <trkpt lat="47.29306" lon="-1.53753">
        <ele>56</ele>
        <time>2022-04-10T09:43:56Z</time>
      </trkpt>
      <trkpt lat="47.29306" lon="-1.53754">
        <ele>57</ele>
        <time>2022-04-10T09:43:57Z</time>
      </trkpt>
      <trkpt lat="47.29306" lon="-1.53755">
        <ele>57</ele>
        <time>2022-04-10T09:43:58Z</time>
      </trkpt>
      <trkpt lat="47.29306" lon="-1.53756">
        <ele>57</ele>
        <time>2022-04-10T09:43:59Z</time>
      </trkpt>
      <trkpt lat="47.29307" lon="-1.53758">
        <ele>57</ele>
        <time>2022-04-10T09:44:00Z</time>
      </trkpt>
      <trkpt lat="47.29308" lon="-1.53759">
        <ele>57</ele>
        <time>2022-04-10T09:44:01Z</time>
      </trkpt>
      <trkpt lat="47.29308" lon="-1.5376">
        <ele>57</ele>
        <time>2022-04-10T09:44:02Z</time>
      </trkpt>
      <trkpt lat="47.29308" lon="-1.53762">
        <ele>57</ele>
        <time>2022-04-10T09:44:03Z</time>
      </trkpt>
      <trkpt lat="47.29309" lon="-1.53763">
        <ele>57</ele>
        <time>2022-04-10T09:44:04Z</time>
      </trkpt>
      <trkpt lat="47.29309" lon="-1.53764">
        <ele>57</ele>
        <time>2022-04-10T09:44:05Z</time>
      </trkpt>
      <trkpt lat="47.2931" lon="-1.53765">
        <ele>57</ele>
        <time>2022-04-10T09:44:06Z</time>
      </trkpt>
      <trkpt lat="47.2931" lon="-1.53766">
        <ele>56</ele>
        <time>2022-04-10T09:44:07Z</time>
      </trkpt>
      <trkpt lat="47.2931" lon="-1.53768">
        <ele>56</ele>
        <time>2022-04-10T09:44:08Z</time>
      </trkpt>
      <trkpt lat="47.2931" lon="-1.53769">
        <ele>56</ele>
        <time>2022-04-10T09:44:09Z</time>
      </trkpt>
      <trkpt lat="47.29311" lon="-1.5377">
        <ele>57</ele>
        <time>2022-04-10T09:44:10Z</time>
      </trkpt>
      <trkpt lat="47.29311" lon="-1.53772">
        <ele>57</ele>
        <time>2022-04-10T09:44:11Z</time>
      </trkpt>
      <trkpt lat="47.29311" lon="-1.53774">
        <ele>57</ele>
        <time>2022-04-10T09:44:12Z</time>
      </trkpt>
      <trkpt lat="47.29312" lon="-1.53775">
        <ele>57</ele>
        <time>2022-04-10T09:44:13Z</time>
      </trkpt>
      <trkpt lat="47.29313" lon="-1.53777">
        <ele>56</ele>
        <time>2022-04-10T09:44:14Z</time>
      </trkpt>
      <trkpt lat="47.29313" lon="-1.53779">
        <ele>57</ele>
        <time>2022-04-10T09:44:15Z</time>
      </trkpt>
      <trkpt lat="47.29312" lon="-1.5378">
        <ele>57</ele>
        <time>2022-04-10T09:44:16Z</time>
      </trkpt>
      <trkpt lat="47.29312" lon="-1.53782">
        <ele>57</ele>
        <time>2022-04-10T09:44:17Z</time>
      </trkpt>
      <trkpt lat="47.29313" lon="-1.53783">
        <ele>57</ele>
        <time>2022-04-10T09:44:18Z</time>
      </trkpt>
      <trkpt lat="47.29312" lon="-1.53784">
        <ele>57</ele>
        <time>2022-04-10T09:44:19Z</time>
      </trkpt>
      <trkpt lat="47.29312" lon="-1.53786">
        <ele>57</ele>
        <time>2022-04-10T09:44:20Z</time>
      </trkpt>
      <trkpt lat="47.29312" lon="-1.53787">
        <ele>57</ele>
        <time>2022-04-10T09:44:21Z</time>
      </trkpt>
      <trkpt lat="47.29312" lon="-1.53789">
        <ele>58</ele>
        <time>2022-04-10T09:44:22Z</time>
      </trkpt>
      <trkpt lat="47.29312" lon="-1.53791">
        <ele>58</ele>
        <time>2022-04-10T09:44:23Z</time>
      </trkpt>
      <trkpt lat="47.29312" lon="-1.53793">
        <ele>58</ele>
        <time>2022-04-10T09:44:24Z</time>
      </trkpt>
      <trkpt lat="47.29312" lon="-1.53794">
        <ele>58</ele>
        <time>2022-04-10T09:44:25Z</time>
      </trkpt>
      <trkpt lat="47.29312" lon="-1.53796">
        <ele>58</ele>
        <time>2022-04-10T09:44:26Z</time>
      </trkpt>
      <trkpt lat="47.29312" lon="-1.53797">
        <ele>57</ele>
        <time>2022-04-10T09:44:27Z</time>
      </trkpt>
      <trkpt lat="47.29313" lon="-1.53799">
        <ele>57</ele>
        <time>2022-04-10T09:44:28Z</time>
      </trkpt>
      <trkpt lat="47.29313" lon="-1.538">
        <ele>57</ele>
        <time>2022-04-10T09:44:29Z</time>
      </trkpt>
      <trkpt lat="47.29313" lon="-1.53802">
        <ele>57</ele>
        <time>2022-04-10T09:44:30Z</time>
      </trkpt>
      <trkpt lat="47.29313" lon="-1.53804">
        <ele>57</ele>
        <time>2022-04-10T09:44:31Z</time>
      </trkpt>
      <trkpt lat="47.29313" lon="-1.53805">
        <ele>57</ele>
        <time>2022-04-10T09:44:32Z</time>
      </trkpt>
      <trkpt lat="47.29313" lon="-1.53807">
        <ele>58</ele>
        <time>2022-04-10T09:44:33Z</time>
      </trkpt>
      <trkpt lat="47.29313" lon="-1.53808">
        <ele>58</ele>
        <time>2022-04-10T09:44:34Z</time>
      </trkpt>
      <trkpt lat="47.29313" lon="-1.53809">
        <ele>58</ele>
        <time>2022-04-10T09:44:35Z</time>
      </trkpt>
      <trkpt lat="47.29313" lon="-1.53811">
        <ele>58</ele>
        <time>2022-04-10T09:44:36Z</time>
      </trkpt>
      <trkpt lat="47.29313" lon="-1.53813">
        <ele>58</ele>
        <time>2022-04-10T09:44:37Z</time>
      </trkpt>
      <trkpt lat="47.29313" lon="-1.53814">
        <ele>58</ele>
        <time>2022-04-10T09:44:38Z</time>
      </trkpt>
      <trkpt lat="47.29313" lon="-1.53816">
        <ele>58</ele>
        <time>2022-04-10T09:44:39Z</time>
      </trkpt>
      <trkpt lat="47.29313" lon="-1.53817">
        <ele>58</ele>
        <time>2022-04-10T09:44:40Z</time>
      </trkpt>
      <trkpt lat="47.29313" lon="-1.53818">
        <ele>58</ele>
        <time>2022-04-10T09:44:41Z</time>
      </trkpt>
      <trkpt lat="47.29313" lon="-1.53819">
        <ele>58</ele>
        <time>2022-04-10T09:44:42Z</time>
      </trkpt>
      <trkpt lat="47.29314" lon="-1.5382">
        <ele>58</ele>
        <time>2022-04-10T09:44:43Z</time>
      </trkpt>
      <trkpt lat="47.29314" lon="-1.53821">
        <ele>58</ele>
        <time>2022-04-10T09:44:44Z</time>
      </trkpt>
      <trkpt lat="47.29314" lon="-1.53822">
        <ele>58</ele>
        <time>2022-04-10T09:44:45Z</time>
      </trkpt>
      <trkpt lat="47.29315" lon="-1.53824">
        <ele>58</ele>
        <time>2022-04-10T09:44:46Z</time>
      </trkpt>
      <trkpt lat="47.29315" lon="-1.53825">
        <ele>57</ele>
        <time>2022-04-10T09:44:47Z</time>
      </trkpt>
      <trkpt lat="47.29315" lon="-1.53827">
        <ele>57</ele>
        <time>2022-04-10T09:44:48Z</time>
      </trkpt>
      <trkpt lat="47.29315" lon="-1.53828">
        <ele>57</ele>
        <time>2022-04-10T09:44:49Z</time>
      </trkpt>
      <trkpt lat="47.29315" lon="-1.53829">
        <ele>57</ele>
        <time>2022-04-10T09:44:50Z</time>
      </trkpt>
      <trkpt lat="47.29316" lon="-1.53831">
        <ele>56</ele>
        <time>2022-04-10T09:44:51Z</time>
      </trkpt>
      <trkpt lat="47.29316" lon="-1.53832">
        <ele>56</ele>
        <time>2022-04-10T09:44:52Z</time>
      </trkpt>
      <trkpt lat="47.29316" lon="-1.53834">
        <ele>56</ele>
        <time>2022-04-10T09:44:53Z</time>
      </trkpt>
      <trkpt lat="47.29316" lon="-1.53836">
        <ele>56</ele>
        <time>2022-04-10T09:44:54Z</time>
      </trkpt>
      <trkpt lat="47.29316" lon="-1.53837">
        <ele>56</ele>
        <time>2022-04-10T09:44:55Z</time>
      </trkpt>
      <trkpt lat="47.29316" lon="-1.53839">
        <ele>56</ele>
        <time>2022-04-10T09:44:56Z</time>
      </trkpt>
      <trkpt lat="47.29316" lon="-1.53841">
        <ele>56</ele>
        <time>2022-04-10T09:44:57Z</time>
      </trkpt>
      <trkpt lat="47.29316" lon="-1.53843">
        <ele>56</ele>
        <time>2022-04-10T09:44:58Z</time>
      </trkpt>
      <trkpt lat="47.29316" lon="-1.53845">
        <ele>55</ele>
        <time>2022-04-10T09:44:59Z</time>
      </trkpt>
      <trkpt lat="47.29316" lon="-1.53846">
        <ele>55</ele>
        <time>2022-04-10T09:45:00Z</time>
      </trkpt>
      <trkpt lat="47.29316" lon="-1.53847">
        <ele>55</ele>
        <time>2022-04-10T09:45:01Z</time>
      </trkpt>
      <trkpt lat="47.29316" lon="-1.53848">
        <ele>55</ele>
        <time>2022-04-10T09:45:02Z</time>
      </trkpt>
      <trkpt lat="47.29317" lon="-1.53849">
        <ele>55</ele>
        <time>2022-04-10T09:45:03Z</time>
      </trkpt>
      <trkpt lat="47.29317" lon="-1.5385">
        <ele>55</ele>
        <time>2022-04-10T09:45:04Z</time>
      </trkpt>
      <trkpt lat="47.29317" lon="-1.5385">
        <ele>55</ele>
        <time>2022-04-10T09:45:05Z</time>
      </trkpt>
      <trkpt lat="47.29317" lon="-1.5385">
        <ele>55</ele>
        <time>2022-04-10T09:45:06Z</time>
      </trkpt>
      <trkpt lat="47.29317" lon="-1.53853">
        <ele>55</ele>
        <time>2022-04-10T09:45:07Z</time>
      </trkpt>
      <trkpt lat="47.29317" lon="-1.53854">
        <ele>56</ele>
        <time>2022-04-10T09:45:08Z</time>
      </trkpt>
      <trkpt lat="47.29316" lon="-1.53855">
        <ele>56</ele>
        <time>2022-04-10T09:45:09Z</time>
      </trkpt>
      <trkpt lat="47.29316" lon="-1.53856">
        <ele>57</ele>
        <time>2022-04-10T09:45:10Z</time>
      </trkpt>
      <trkpt lat="47.29316" lon="-1.53856">
        <ele>57</ele>
        <time>2022-04-10T09:45:11Z</time>
      </trkpt>
      <trkpt lat="47.29316" lon="-1.53856">
        <ele>57</ele>
        <time>2022-04-10T09:45:12Z</time>
      </trkpt>
      <trkpt lat="47.29316" lon="-1.5386">
        <ele>57</ele>
        <time>2022-04-10T09:45:13Z</time>
      </trkpt>
      <trkpt lat="47.29316" lon="-1.53863">
        <ele>57</ele>
        <time>2022-04-10T09:45:14Z</time>
      </trkpt>
      <trkpt lat="47.29316" lon="-1.53865">
        <ele>58</ele>
        <time>2022-04-10T09:45:15Z</time>
      </trkpt>
      <trkpt lat="47.29316" lon="-1.53866">
        <ele>58</ele>
        <time>2022-04-10T09:45:16Z</time>
      </trkpt>
      <trkpt lat="47.29316" lon="-1.53867">
        <ele>58</ele>
        <time>2022-04-10T09:45:17Z</time>
      </trkpt>
      <trkpt lat="47.29316" lon="-1.53868">
        <ele>58</ele>
        <time>2022-04-10T09:45:18Z</time>
      </trkpt>
      <trkpt lat="47.29316" lon="-1.53869">
        <ele>57</ele>
        <time>2022-04-10T09:45:19Z</time>
      </trkpt>
      <trkpt lat="47.29316" lon="-1.53869">
        <ele>57</ele>
        <time>2022-04-10T09:45:20Z</time>
      </trkpt>
      <trkpt lat="47.29316" lon="-1.53869">
        <ele>57</ele>
        <time>2022-04-10T09:45:21Z</time>
      </trkpt>
      <trkpt lat="47.29316" lon="-1.53873">
        <ele>56</ele>
        <time>2022-04-10T09:45:22Z</time>
      </trkpt>
      <trkpt lat="47.29316" lon="-1.53875">
        <ele>57</ele>
        <time>2022-04-10T09:45:23Z</time>
      </trkpt>
      <trkpt lat="47.29317" lon="-1.53877">
        <ele>56</ele>
        <time>2022-04-10T09:45:24Z</time>
      </trkpt>
      <trkpt lat="47.29317" lon="-1.53879">
        <ele>57</ele>
        <time>2022-04-10T09:45:25Z</time>
      </trkpt>
      <trkpt lat="47.29318" lon="-1.53882">
        <ele>56</ele>
        <time>2022-04-10T09:45:26Z</time>
      </trkpt>
      <trkpt lat="47.29318" lon="-1.53885">
        <ele>55</ele>
        <time>2022-04-10T09:45:27Z</time>
      </trkpt>
      <trkpt lat="47.29318" lon="-1.53887">
        <ele>55</ele>
        <time>2022-04-10T09:45:28Z</time>
      </trkpt>
      <trkpt lat="47.29318" lon="-1.53889">
        <ele>56</ele>
        <time>2022-04-10T09:45:29Z</time>
      </trkpt>
      <trkpt lat="47.29318" lon="-1.53892">
        <ele>55</ele>
        <time>2022-04-10T09:45:30Z</time>
      </trkpt>
      <trkpt lat="47.29318" lon="-1.53894">
        <ele>55</ele>
        <time>2022-04-10T09:45:31Z</time>
      </trkpt>
      <trkpt lat="47.29319" lon="-1.53896">
        <ele>54</ele>
        <time>2022-04-10T09:45:32Z</time>
      </trkpt>
      <trkpt lat="47.29319" lon="-1.53897">
        <ele>54</ele>
        <time>2022-04-10T09:45:33Z</time>
      </trkpt>
      <trkpt lat="47.29319" lon="-1.53898">
        <ele>55</ele>
        <time>2022-04-10T09:45:34Z</time>
      </trkpt>
      <trkpt lat="47.29319" lon="-1.53899">
        <ele>55</ele>
        <time>2022-04-10T09:45:35Z</time>
      </trkpt>
      <trkpt lat="47.29319" lon="-1.53899">
        <ele>55</ele>
        <time>2022-04-10T09:45:36Z</time>
      </trkpt>
      <trkpt lat="47.29319" lon="-1.53899">
        <ele>55</ele>
        <time>2022-04-10T09:45:37Z</time>
      </trkpt>
      <trkpt lat="47.29319" lon="-1.53903">
        <ele>55</ele>
        <time>2022-04-10T09:45:38Z</time>
      </trkpt>
      <trkpt lat="47.29318" lon="-1.53905">
        <ele>55</ele>
        <time>2022-04-10T09:45:39Z</time>
      </trkpt>
      <trkpt lat="47.29318" lon="-1.53906">
        <ele>54</ele>
        <time>2022-04-10T09:45:40Z</time>
      </trkpt>
      <trkpt lat="47.29319" lon="-1.53909">
        <ele>55</ele>
        <time>2022-04-10T09:45:41Z</time>
      </trkpt>
      <trkpt lat="47.29319" lon="-1.53912">
        <ele>54</ele>
        <time>2022-04-10T09:45:42Z</time>
      </trkpt>
      <trkpt lat="47.29318" lon="-1.53913">
        <ele>54</ele>
        <time>2022-04-10T09:45:43Z</time>
      </trkpt>
      <trkpt lat="47.29318" lon="-1.53915">
        <ele>54</ele>
        <time>2022-04-10T09:45:44Z</time>
      </trkpt>
      <trkpt lat="47.29318" lon="-1.53915">
        <ele>54</ele>
        <time>2022-04-10T09:45:45Z</time>
      </trkpt>
      <trkpt lat="47.29318" lon="-1.53916">
        <ele>55</ele>
        <time>2022-04-10T09:45:46Z</time>
      </trkpt>
      <trkpt lat="47.29317" lon="-1.53917">
        <ele>54</ele>
        <time>2022-04-10T09:45:47Z</time>
      </trkpt>
      <trkpt lat="47.29317" lon="-1.53918">
        <ele>55</ele>
        <time>2022-04-10T09:45:48Z</time>
      </trkpt>
      <trkpt lat="47.29318" lon="-1.5392">
        <ele>55</ele>
        <time>2022-04-10T09:45:49Z</time>
      </trkpt>
      <trkpt lat="47.29318" lon="-1.5392">
        <ele>55</ele>
        <time>2022-04-10T09:45:50Z</time>
      </trkpt>
      <trkpt lat="47.29318" lon="-1.5392">
        <ele>55</ele>
        <time>2022-04-10T09:45:51Z</time>
      </trkpt>
      <trkpt lat="47.29317" lon="-1.53923">
        <ele>55</ele>
        <time>2022-04-10T09:45:52Z</time>
      </trkpt>
      <trkpt lat="47.29317" lon="-1.53925">
        <ele>55</ele>
        <time>2022-04-10T09:45:53Z</time>
      </trkpt>
      <trkpt lat="47.29317" lon="-1.53926">
        <ele>55</ele>
        <time>2022-04-10T09:45:54Z</time>
      </trkpt>
      <trkpt lat="47.29316" lon="-1.53928">
        <ele>56</ele>
        <time>2022-04-10T09:45:55Z</time>
      </trkpt>
      <trkpt lat="47.29316" lon="-1.53929">
        <ele>56</ele>
        <time>2022-04-10T09:45:56Z</time>
      </trkpt>
      <trkpt lat="47.29316" lon="-1.53931">
        <ele>56</ele>
        <time>2022-04-10T09:45:57Z</time>
      </trkpt>
      <trkpt lat="47.29316" lon="-1.53931">
        <ele>56</ele>
        <time>2022-04-10T09:45:58Z</time>
      </trkpt>
      <trkpt lat="47.29316" lon="-1.53931">
        <ele>56</ele>
        <time>2022-04-10T09:45:59Z</time>
      </trkpt>
      <trkpt lat="47.29314" lon="-1.53933">
        <ele>56</ele>
        <time>2022-04-10T09:46:00Z</time>
      </trkpt>
      <trkpt lat="47.29314" lon="-1.53935">
        <ele>57</ele>
        <time>2022-04-10T09:46:01Z</time>
      </trkpt>
      <trkpt lat="47.29314" lon="-1.53936">
        <ele>57</ele>
        <time>2022-04-10T09:46:02Z</time>
      </trkpt>
      <trkpt lat="47.29313" lon="-1.53937">
        <ele>57</ele>
        <time>2022-04-10T09:46:03Z</time>
      </trkpt>
      <trkpt lat="47.29313" lon="-1.53939">
        <ele>56</ele>
        <time>2022-04-10T09:46:04Z</time>
      </trkpt>
      <trkpt lat="47.29313" lon="-1.53939">
        <ele>56</ele>
        <time>2022-04-10T09:46:05Z</time>
      </trkpt>
      <trkpt lat="47.29313" lon="-1.53939">
        <ele>56</ele>
        <time>2022-04-10T09:46:06Z</time>
      </trkpt>
      <trkpt lat="47.29313" lon="-1.53939">
        <ele>56</ele>
        <time>2022-04-10T09:46:07Z</time>
      </trkpt>
      <trkpt lat="47.29313" lon="-1.53939">
        <ele>56</ele>
        <time>2022-04-10T09:46:08Z</time>
      </trkpt>
      <trkpt lat="47.29313" lon="-1.53939">
        <ele>56</ele>
        <time>2022-04-10T09:46:09Z</time>
      </trkpt>
      <trkpt lat="47.29311" lon="-1.53944">
        <ele>56</ele>
        <time>2022-04-10T09:46:10Z</time>
      </trkpt>
      <trkpt lat="47.29311" lon="-1.53946">
        <ele>56</ele>
        <time>2022-04-10T09:46:11Z</time>
      </trkpt>
      <trkpt lat="47.2931" lon="-1.53947">
        <ele>56</ele>
        <time>2022-04-10T09:46:12Z</time>
      </trkpt>
      <trkpt lat="47.29309" lon="-1.53948">
        <ele>56</ele>
        <time>2022-04-10T09:46:13Z</time>
      </trkpt>
      <trkpt lat="47.29308" lon="-1.53949">
        <ele>57</ele>
        <time>2022-04-10T09:46:14Z</time>
      </trkpt>
      <trkpt lat="47.29307" lon="-1.53951">
        <ele>57</ele>
        <time>2022-04-10T09:46:15Z</time>
      </trkpt>
      <trkpt lat="47.29306" lon="-1.53952">
        <ele>58</ele>
        <time>2022-04-10T09:46:16Z</time>
      </trkpt>
      <trkpt lat="47.29306" lon="-1.53953">
        <ele>58</ele>
        <time>2022-04-10T09:46:17Z</time>
      </trkpt>
      <trkpt lat="47.29305" lon="-1.53955">
        <ele>57</ele>
        <time>2022-04-10T09:46:18Z</time>
      </trkpt>
      <trkpt lat="47.29305" lon="-1.53955">
        <ele>57</ele>
        <time>2022-04-10T09:46:19Z</time>
      </trkpt>
      <trkpt lat="47.29305" lon="-1.53955">
        <ele>57</ele>
        <time>2022-04-10T09:46:20Z</time>
      </trkpt>
      <trkpt lat="47.29304" lon="-1.53958">
        <ele>57</ele>
        <time>2022-04-10T09:46:21Z</time>
      </trkpt>
      <trkpt lat="47.29303" lon="-1.5396">
        <ele>57</ele>
        <time>2022-04-10T09:46:22Z</time>
      </trkpt>
      <trkpt lat="47.29303" lon="-1.5396">
        <ele>56</ele>
        <time>2022-04-10T09:46:23Z</time>
      </trkpt>
      <trkpt lat="47.29303" lon="-1.53962">
        <ele>56</ele>
        <time>2022-04-10T09:46:24Z</time>
      </trkpt>
      <trkpt lat="47.29303" lon="-1.53962">
        <ele>56</ele>
        <time>2022-04-10T09:46:25Z</time>
      </trkpt>
      <trkpt lat="47.29303" lon="-1.53962">
        <ele>56</ele>
        <time>2022-04-10T09:46:26Z</time>
      </trkpt>
      <trkpt lat="47.29302" lon="-1.53964">
        <ele>56</ele>
        <time>2022-04-10T09:46:27Z</time>
      </trkpt>
      <trkpt lat="47.29301" lon="-1.53965">
        <ele>55</ele>
        <time>2022-04-10T09:46:28Z</time>
      </trkpt>
      <trkpt lat="47.29301" lon="-1.53966">
        <ele>55</ele>
        <time>2022-04-10T09:46:29Z</time>
      </trkpt>
      <trkpt lat="47.293" lon="-1.53968">
        <ele>55</ele>
        <time>2022-04-10T09:46:30Z</time>
      </trkpt>
      <trkpt lat="47.293" lon="-1.53968">
        <ele>55</ele>
        <time>2022-04-10T09:46:31Z</time>
      </trkpt>
      <trkpt lat="47.293" lon="-1.53968">
        <ele>55</ele>
        <time>2022-04-10T09:46:32Z</time>
      </trkpt>
      <trkpt lat="47.29298" lon="-1.5397">
        <ele>54</ele>
        <time>2022-04-10T09:46:33Z</time>
      </trkpt>
      <trkpt lat="47.29297" lon="-1.53971">
        <ele>54</ele>
        <time>2022-04-10T09:46:34Z</time>
      </trkpt>
      <trkpt lat="47.29297" lon="-1.53972">
        <ele>54</ele>
        <time>2022-04-10T09:46:35Z</time>
      </trkpt>
      <trkpt lat="47.29296" lon="-1.53972">
        <ele>54</ele>
        <time>2022-04-10T09:46:36Z</time>
      </trkpt>
      <trkpt lat="47.29296" lon="-1.53972">
        <ele>54</ele>
        <time>2022-04-10T09:46:37Z</time>
      </trkpt>
      <trkpt lat="47.29296" lon="-1.53972">
        <ele>54</ele>
        <time>2022-04-10T09:46:38Z</time>
      </trkpt>
      <trkpt lat="47.29293" lon="-1.53975">
        <ele>55</ele>
        <time>2022-04-10T09:46:39Z</time>
      </trkpt>
      <trkpt lat="47.29292" lon="-1.53976">
        <ele>55</ele>
        <time>2022-04-10T09:46:40Z</time>
      </trkpt>
      <trkpt lat="47.29291" lon="-1.53977">
        <ele>55</ele>
        <time>2022-04-10T09:46:41Z</time>
      </trkpt>
      <trkpt lat="47.2929" lon="-1.53978">
        <ele>56</ele>
        <time>2022-04-10T09:46:42Z</time>
      </trkpt>
      <trkpt lat="47.29289" lon="-1.53979">
        <ele>56</ele>
        <time>2022-04-10T09:46:43Z</time>
      </trkpt>
      <trkpt lat="47.29287" lon="-1.5398">
        <ele>57</ele>
        <time>2022-04-10T09:46:44Z</time>
      </trkpt>
      <trkpt lat="47.29286" lon="-1.53981">
        <ele>57</ele>
        <time>2022-04-10T09:46:45Z</time>
      </trkpt>
      <trkpt lat="47.29285" lon="-1.53981">
        <ele>57</ele>
        <time>2022-04-10T09:46:46Z</time>
      </trkpt>
      <trkpt lat="47.29284" lon="-1.53981">
        <ele>57</ele>
        <time>2022-04-10T09:46:47Z</time>
      </trkpt>
      <trkpt lat="47.29283" lon="-1.53982">
        <ele>57</ele>
        <time>2022-04-10T09:46:48Z</time>
      </trkpt>
      <trkpt lat="47.29282" lon="-1.53983">
        <ele>57</ele>
        <time>2022-04-10T09:46:49Z</time>
      </trkpt>
      <trkpt lat="47.29282" lon="-1.53983">
        <ele>57</ele>
        <time>2022-04-10T09:46:50Z</time>
      </trkpt>
      <trkpt lat="47.29282" lon="-1.53983">
        <ele>57</ele>
        <time>2022-04-10T09:46:51Z</time>
      </trkpt>
      <trkpt lat="47.29281" lon="-1.53984">
        <ele>58</ele>
        <time>2022-04-10T09:46:52Z</time>
      </trkpt>
      <trkpt lat="47.2928" lon="-1.53984">
        <ele>57</ele>
        <time>2022-04-10T09:46:53Z</time>
      </trkpt>
      <trkpt lat="47.29279" lon="-1.53984">
        <ele>58</ele>
        <time>2022-04-10T09:46:54Z</time>
      </trkpt>
      <trkpt lat="47.29278" lon="-1.53985">
        <ele>58</ele>
        <time>2022-04-10T09:46:55Z</time>
      </trkpt>
      <trkpt lat="47.29277" lon="-1.53986">
        <ele>59</ele>
        <time>2022-04-10T09:46:56Z</time>
      </trkpt>
      <trkpt lat="47.29276" lon="-1.53986">
        <ele>59</ele>
        <time>2022-04-10T09:46:57Z</time>
      </trkpt>
      <trkpt lat="47.29275" lon="-1.53987">
        <ele>59</ele>
        <time>2022-04-10T09:46:58Z</time>
      </trkpt>
      <trkpt lat="47.29274" lon="-1.53988">
        <ele>59</ele>
        <time>2022-04-10T09:46:59Z</time>
      </trkpt>
      <trkpt lat="47.29273" lon="-1.53988">
        <ele>59</ele>
        <time>2022-04-10T09:47:00Z</time>
      </trkpt>
      <trkpt lat="47.29271" lon="-1.53989">
        <ele>58</ele>
        <time>2022-04-10T09:47:01Z</time>
      </trkpt>
      <trkpt lat="47.2927" lon="-1.5399">
        <ele>59</ele>
        <time>2022-04-10T09:47:02Z</time>
      </trkpt>
      <trkpt lat="47.29269" lon="-1.5399">
        <ele>58</ele>
        <time>2022-04-10T09:47:03Z</time>
      </trkpt>
      <trkpt lat="47.29268" lon="-1.53991">
        <ele>59</ele>
        <time>2022-04-10T09:47:04Z</time>
      </trkpt>
      <trkpt lat="47.29267" lon="-1.53991">
        <ele>58</ele>
        <time>2022-04-10T09:47:05Z</time>
      </trkpt>
      <trkpt lat="47.29266" lon="-1.53992">
        <ele>59</ele>
        <time>2022-04-10T09:47:06Z</time>
      </trkpt>
      <trkpt lat="47.29265" lon="-1.53992">
        <ele>58</ele>
        <time>2022-04-10T09:47:07Z</time>
      </trkpt>
      <trkpt lat="47.29263" lon="-1.53992">
        <ele>58</ele>
        <time>2022-04-10T09:47:08Z</time>
      </trkpt>
      <trkpt lat="47.29263" lon="-1.53993">
        <ele>57</ele>
        <time>2022-04-10T09:47:09Z</time>
      </trkpt>
      <trkpt lat="47.29261" lon="-1.53994">
        <ele>57</ele>
        <time>2022-04-10T09:47:10Z</time>
      </trkpt>
      <trkpt lat="47.29261" lon="-1.53995">
        <ele>57</ele>
        <time>2022-04-10T09:47:11Z</time>
      </trkpt>
      <trkpt lat="47.2926" lon="-1.53996">
        <ele>57</ele>
        <time>2022-04-10T09:47:12Z</time>
      </trkpt>
      <trkpt lat="47.29259" lon="-1.53998">
        <ele>57</ele>
        <time>2022-04-10T09:47:13Z</time>
      </trkpt>
      <trkpt lat="47.29258" lon="-1.53998">
        <ele>57</ele>
        <time>2022-04-10T09:47:14Z</time>
      </trkpt>
      <trkpt lat="47.29257" lon="-1.53999">
        <ele>57</ele>
        <time>2022-04-10T09:47:15Z</time>
      </trkpt>
      <trkpt lat="47.29256" lon="-1.53999">
        <ele>57</ele>
        <time>2022-04-10T09:47:16Z</time>
      </trkpt>
      <trkpt lat="47.29255" lon="-1.53999">
        <ele>57</ele>
        <time>2022-04-10T09:47:17Z</time>
      </trkpt>
      <trkpt lat="47.29255" lon="-1.54">
        <ele>57</ele>
        <time>2022-04-10T09:47:18Z</time>
      </trkpt>
      <trkpt lat="47.29254" lon="-1.54001">
        <ele>57</ele>
        <time>2022-04-10T09:47:19Z</time>
      </trkpt>
      <trkpt lat="47.29253" lon="-1.54001">
        <ele>57</ele>
        <time>2022-04-10T09:47:20Z</time>
      </trkpt>
      <trkpt lat="47.29252" lon="-1.54003">
        <ele>58</ele>
        <time>2022-04-10T09:47:21Z</time>
      </trkpt>
      <trkpt lat="47.29252" lon="-1.54003">
        <ele>58</ele>
        <time>2022-04-10T09:47:22Z</time>
      </trkpt>
      <trkpt lat="47.29251" lon="-1.54003">
        <ele>58</ele>
        <time>2022-04-10T09:47:23Z</time>
      </trkpt>
      <trkpt lat="47.29251" lon="-1.54003">
        <ele>57</ele>
        <time>2022-04-10T09:47:24Z</time>
      </trkpt>
      <trkpt lat="47.2925" lon="-1.54003">
        <ele>58</ele>
        <time>2022-04-10T09:47:25Z</time>
      </trkpt>
      <trkpt lat="47.2925" lon="-1.54003">
        <ele>58</ele>
        <time>2022-04-10T09:47:26Z</time>
      </trkpt>
      <trkpt lat="47.29249" lon="-1.54004">
        <ele>57</ele>
        <time>2022-04-10T09:47:27Z</time>
      </trkpt>
      <trkpt lat="47.29248" lon="-1.54005">
        <ele>58</ele>
        <time>2022-04-10T09:47:28Z</time>
      </trkpt>
      <trkpt lat="47.29248" lon="-1.54005">
        <ele>58</ele>
        <time>2022-04-10T09:47:29Z</time>
      </trkpt>
      <trkpt lat="47.29248" lon="-1.54006">
        <ele>58</ele>
        <time>2022-04-10T09:47:30Z</time>
      </trkpt>
      <trkpt lat="47.29247" lon="-1.54007">
        <ele>59</ele>
        <time>2022-04-10T09:47:31Z</time>
      </trkpt>
      <trkpt lat="47.29247" lon="-1.54008">
        <ele>59</ele>
        <time>2022-04-10T09:47:32Z</time>
      </trkpt>
      <trkpt lat="47.29245" lon="-1.54009">
        <ele>60</ele>
        <time>2022-04-10T09:47:33Z</time>
      </trkpt>
      <trkpt lat="47.29244" lon="-1.54009">
        <ele>59</ele>
        <time>2022-04-10T09:47:34Z</time>
      </trkpt>
      <trkpt lat="47.29244" lon="-1.5401">
        <ele>59</ele>
        <time>2022-04-10T09:47:35Z</time>
      </trkpt>
      <trkpt lat="47.29243" lon="-1.54011">
        <ele>59</ele>
        <time>2022-04-10T09:47:36Z</time>
      </trkpt>
      <trkpt lat="47.29242" lon="-1.54012">
        <ele>59</ele>
        <time>2022-04-10T09:47:37Z</time>
      </trkpt>
      <trkpt lat="47.29242" lon="-1.54012">
        <ele>59</ele>
        <time>2022-04-10T09:47:38Z</time>
      </trkpt>
      <trkpt lat="47.29242" lon="-1.54012">
        <ele>59</ele>
        <time>2022-04-10T09:47:39Z</time>
      </trkpt>
      <trkpt lat="47.29241" lon="-1.54014">
        <ele>59</ele>
        <time>2022-04-10T09:47:40Z</time>
      </trkpt>
      <trkpt lat="47.2924" lon="-1.54014">
        <ele>59</ele>
        <time>2022-04-10T09:47:41Z</time>
      </trkpt>
      <trkpt lat="47.29239" lon="-1.54015">
        <ele>58</ele>
        <time>2022-04-10T09:47:42Z</time>
      </trkpt>
      <trkpt lat="47.29238" lon="-1.54016">
        <ele>58</ele>
        <time>2022-04-10T09:47:43Z</time>
      </trkpt>
      <trkpt lat="47.29237" lon="-1.54016">
        <ele>58</ele>
        <time>2022-04-10T09:47:44Z</time>
      </trkpt>
      <trkpt lat="47.29237" lon="-1.54017">
        <ele>57</ele>
        <time>2022-04-10T09:47:45Z</time>
      </trkpt>
      <trkpt lat="47.29237" lon="-1.54017">
        <ele>57</ele>
        <time>2022-04-10T09:47:46Z</time>
      </trkpt>
      <trkpt lat="47.29237" lon="-1.54017">
        <ele>57</ele>
        <time>2022-04-10T09:47:47Z</time>
      </trkpt>
      <trkpt lat="47.29236" lon="-1.5402">
        <ele>58</ele>
        <time>2022-04-10T09:47:48Z</time>
      </trkpt>
      <trkpt lat="47.29235" lon="-1.54021">
        <ele>59</ele>
        <time>2022-04-10T09:47:49Z</time>
      </trkpt>
      <trkpt lat="47.29234" lon="-1.54022">
        <ele>59</ele>
        <time>2022-04-10T09:47:50Z</time>
      </trkpt>
      <trkpt lat="47.29233" lon="-1.54023">
        <ele>60</ele>
        <time>2022-04-10T09:47:51Z</time>
      </trkpt>
      <trkpt lat="47.29233" lon="-1.54023">
        <ele>60</ele>
        <time>2022-04-10T09:47:52Z</time>
      </trkpt>
      <trkpt lat="47.29233" lon="-1.54023">
        <ele>60</ele>
        <time>2022-04-10T09:47:53Z</time>
      </trkpt>
      <trkpt lat="47.29231" lon="-1.54024">
        <ele>59</ele>
        <time>2022-04-10T09:47:54Z</time>
      </trkpt>
      <trkpt lat="47.2923" lon="-1.54025">
        <ele>59</ele>
        <time>2022-04-10T09:47:55Z</time>
      </trkpt>
      <trkpt lat="47.2923" lon="-1.54025">
        <ele>59</ele>
        <time>2022-04-10T09:47:56Z</time>
      </trkpt>
      <trkpt lat="47.29229" lon="-1.54025">
        <ele>59</ele>
        <time>2022-04-10T09:47:57Z</time>
      </trkpt>
      <trkpt lat="47.29229" lon="-1.54025">
        <ele>59</ele>
        <time>2022-04-10T09:47:58Z</time>
      </trkpt>
      <trkpt lat="47.29229" lon="-1.54025">
        <ele>59</ele>
        <time>2022-04-10T09:47:59Z</time>
      </trkpt>
      <trkpt lat="47.29226" lon="-1.54026">
        <ele>58</ele>
        <time>2022-04-10T09:48:00Z</time>
      </trkpt>
      <trkpt lat="47.29225" lon="-1.54026">
        <ele>58</ele>
        <time>2022-04-10T09:48:01Z</time>
      </trkpt>
      <trkpt lat="47.29224" lon="-1.54026">
        <ele>57</ele>
        <time>2022-04-10T09:48:02Z</time>
      </trkpt>
      <trkpt lat="47.29223" lon="-1.54027">
        <ele>57</ele>
        <time>2022-04-10T09:48:03Z</time>
      </trkpt>
      <trkpt lat="47.29223" lon="-1.54027">
        <ele>57</ele>
        <time>2022-04-10T09:48:04Z</time>
      </trkpt>
      <trkpt lat="47.29223" lon="-1.54027">
        <ele>57</ele>
        <time>2022-04-10T09:48:05Z</time>
      </trkpt>
      <trkpt lat="47.29221" lon="-1.5403">
        <ele>57</ele>
        <time>2022-04-10T09:48:06Z</time>
      </trkpt>
      <trkpt lat="47.29219" lon="-1.54031">
        <ele>57</ele>
        <time>2022-04-10T09:48:07Z</time>
      </trkpt>
      <trkpt lat="47.29218" lon="-1.54031">
        <ele>57</ele>
        <time>2022-04-10T09:48:08Z</time>
      </trkpt>
      <trkpt lat="47.29218" lon="-1.54032">
        <ele>57</ele>
        <time>2022-04-10T09:48:09Z</time>
      </trkpt>
      <trkpt lat="47.29218" lon="-1.54032">
        <ele>57</ele>
        <time>2022-04-10T09:48:10Z</time>
      </trkpt>
      <trkpt lat="47.29218" lon="-1.54032">
        <ele>57</ele>
        <time>2022-04-10T09:48:11Z</time>
      </trkpt>
      <trkpt lat="47.29216" lon="-1.54036">
        <ele>58</ele>
        <time>2022-04-10T09:48:12Z</time>
      </trkpt>
      <trkpt lat="47.29215" lon="-1.54037">
        <ele>58</ele>
        <time>2022-04-10T09:48:13Z</time>
      </trkpt>
      <trkpt lat="47.29214" lon="-1.54039">
        <ele>58</ele>
        <time>2022-04-10T09:48:14Z</time>
      </trkpt>
      <trkpt lat="47.29213" lon="-1.5404">
        <ele>58</ele>
        <time>2022-04-10T09:48:15Z</time>
      </trkpt>
      <trkpt lat="47.29213" lon="-1.5404">
        <ele>58</ele>
        <time>2022-04-10T09:48:16Z</time>
      </trkpt>
      <trkpt lat="47.29213" lon="-1.5404">
        <ele>58</ele>
        <time>2022-04-10T09:48:17Z</time>
      </trkpt>
      <trkpt lat="47.29211" lon="-1.54043">
        <ele>59</ele>
        <time>2022-04-10T09:48:18Z</time>
      </trkpt>
      <trkpt lat="47.29211" lon="-1.54043">
        <ele>58</ele>
        <time>2022-04-10T09:48:19Z</time>
      </trkpt>
      <trkpt lat="47.2921" lon="-1.54044">
        <ele>58</ele>
        <time>2022-04-10T09:48:20Z</time>
      </trkpt>
      <trkpt lat="47.29209" lon="-1.54045">
        <ele>57</ele>
        <time>2022-04-10T09:48:21Z</time>
      </trkpt>
      <trkpt lat="47.29209" lon="-1.54045">
        <ele>57</ele>
        <time>2022-04-10T09:48:22Z</time>
      </trkpt>
      <trkpt lat="47.29207" lon="-1.54047">
        <ele>58</ele>
        <time>2022-04-10T09:48:23Z</time>
      </trkpt>
      <trkpt lat="47.29205" lon="-1.54048">
        <ele>58</ele>
        <time>2022-04-10T09:48:24Z</time>
      </trkpt>
      <trkpt lat="47.29204" lon="-1.54049">
        <ele>57</ele>
        <time>2022-04-10T09:48:25Z</time>
      </trkpt>
      <trkpt lat="47.29203" lon="-1.5405">
        <ele>57</ele>
        <time>2022-04-10T09:48:26Z</time>
      </trkpt>
      <trkpt lat="47.29202" lon="-1.5405">
        <ele>57</ele>
        <time>2022-04-10T09:48:27Z</time>
      </trkpt>
      <trkpt lat="47.29201" lon="-1.5405">
        <ele>56</ele>
        <time>2022-04-10T09:48:28Z</time>
      </trkpt>
      <trkpt lat="47.292" lon="-1.5405">
        <ele>56</ele>
        <time>2022-04-10T09:48:29Z</time>
      </trkpt>
      <trkpt lat="47.29199" lon="-1.54051">
        <ele>56</ele>
        <time>2022-04-10T09:48:30Z</time>
      </trkpt>
      <trkpt lat="47.29197" lon="-1.54052">
        <ele>55</ele>
        <time>2022-04-10T09:48:31Z</time>
      </trkpt>
      <trkpt lat="47.29195" lon="-1.54052">
        <ele>55</ele>
        <time>2022-04-10T09:48:32Z</time>
      </trkpt>
      <trkpt lat="47.29194" lon="-1.54053">
        <ele>55</ele>
        <time>2022-04-10T09:48:33Z</time>
      </trkpt>
      <trkpt lat="47.29192" lon="-1.54054">
        <ele>55</ele>
        <time>2022-04-10T09:48:34Z</time>
      </trkpt>
      <trkpt lat="47.2919" lon="-1.54054">
        <ele>55</ele>
        <time>2022-04-10T09:48:35Z</time>
      </trkpt>
      <trkpt lat="47.2919" lon="-1.54055">
        <ele>56</ele>
        <time>2022-04-10T09:48:36Z</time>
      </trkpt>
      <trkpt lat="47.29189" lon="-1.54055">
        <ele>56</ele>
        <time>2022-04-10T09:48:37Z</time>
      </trkpt>
      <trkpt lat="47.29187" lon="-1.54056">
        <ele>56</ele>
        <time>2022-04-10T09:48:38Z</time>
      </trkpt>
      <trkpt lat="47.29186" lon="-1.54056">
        <ele>56</ele>
        <time>2022-04-10T09:48:39Z</time>
      </trkpt>
      <trkpt lat="47.29185" lon="-1.54056">
        <ele>55</ele>
        <time>2022-04-10T09:48:40Z</time>
      </trkpt>
      <trkpt lat="47.29183" lon="-1.54056">
        <ele>56</ele>
        <time>2022-04-10T09:48:41Z</time>
      </trkpt>
      <trkpt lat="47.29183" lon="-1.54056">
        <ele>56</ele>
        <time>2022-04-10T09:48:42Z</time>
      </trkpt>
      <trkpt lat="47.29183" lon="-1.54056">
        <ele>56</ele>
        <time>2022-04-10T09:48:43Z</time>
      </trkpt>
      <trkpt lat="47.2918" lon="-1.54055">
        <ele>55</ele>
        <time>2022-04-10T09:48:44Z</time>
      </trkpt>
      <trkpt lat="47.29179" lon="-1.54056">
        <ele>55</ele>
        <time>2022-04-10T09:48:45Z</time>
      </trkpt>
      <trkpt lat="47.29177" lon="-1.54056">
        <ele>55</ele>
        <time>2022-04-10T09:48:46Z</time>
      </trkpt>
      <trkpt lat="47.29176" lon="-1.54057">
        <ele>55</ele>
        <time>2022-04-10T09:48:47Z</time>
      </trkpt>
      <trkpt lat="47.29175" lon="-1.54059">
        <ele>55</ele>
        <time>2022-04-10T09:48:48Z</time>
      </trkpt>
      <trkpt lat="47.29173" lon="-1.5406">
        <ele>55</ele>
        <time>2022-04-10T09:48:49Z</time>
      </trkpt>
      <trkpt lat="47.29172" lon="-1.5406">
        <ele>55</ele>
        <time>2022-04-10T09:48:50Z</time>
      </trkpt>
      <trkpt lat="47.29171" lon="-1.54062">
        <ele>54</ele>
        <time>2022-04-10T09:48:51Z</time>
      </trkpt>
      <trkpt lat="47.2917" lon="-1.54062">
        <ele>54</ele>
        <time>2022-04-10T09:48:52Z</time>
      </trkpt>
      <trkpt lat="47.29169" lon="-1.54063">
        <ele>53</ele>
        <time>2022-04-10T09:48:53Z</time>
      </trkpt>
      <trkpt lat="47.29168" lon="-1.54063">
        <ele>53</ele>
        <time>2022-04-10T09:48:54Z</time>
      </trkpt>
      <trkpt lat="47.29168" lon="-1.54063">
        <ele>53</ele>
        <time>2022-04-10T09:48:55Z</time>
      </trkpt>
      <trkpt lat="47.29167" lon="-1.54064">
        <ele>53</ele>
        <time>2022-04-10T09:48:56Z</time>
      </trkpt>
      <trkpt lat="47.29166" lon="-1.54065">
        <ele>53</ele>
        <time>2022-04-10T09:48:57Z</time>
      </trkpt>
      <trkpt lat="47.29165" lon="-1.54066">
        <ele>53</ele>
        <time>2022-04-10T09:48:58Z</time>
      </trkpt>
      <trkpt lat="47.29165" lon="-1.54067">
        <ele>54</ele>
        <time>2022-04-10T09:48:59Z</time>
      </trkpt>
      <trkpt lat="47.29164" lon="-1.54067">
        <ele>54</ele>
        <time>2022-04-10T09:49:00Z</time>
      </trkpt>
      <trkpt lat="47.29163" lon="-1.54068">
        <ele>53</ele>
        <time>2022-04-10T09:49:01Z</time>
      </trkpt>
      <trkpt lat="47.29162" lon="-1.54069">
        <ele>53</ele>
        <time>2022-04-10T09:49:02Z</time>
      </trkpt>
      <trkpt lat="47.29162" lon="-1.5407">
        <ele>53</ele>
        <time>2022-04-10T09:49:03Z</time>
      </trkpt>
      <trkpt lat="47.29161" lon="-1.5407">
        <ele>53</ele>
        <time>2022-04-10T09:49:04Z</time>
      </trkpt>
      <trkpt lat="47.2916" lon="-1.54071">
        <ele>53</ele>
        <time>2022-04-10T09:49:05Z</time>
      </trkpt>
      <trkpt lat="47.29159" lon="-1.54072">
        <ele>54</ele>
        <time>2022-04-10T09:49:06Z</time>
      </trkpt>
      <trkpt lat="47.29157" lon="-1.54074">
        <ele>54</ele>
        <time>2022-04-10T09:49:07Z</time>
      </trkpt>
      <trkpt lat="47.29156" lon="-1.54074">
        <ele>54</ele>
        <time>2022-04-10T09:49:08Z</time>
      </trkpt>
      <trkpt lat="47.29155" lon="-1.54075">
        <ele>54</ele>
        <time>2022-04-10T09:49:09Z</time>
      </trkpt>
      <trkpt lat="47.29154" lon="-1.54075">
        <ele>54</ele>
        <time>2022-04-10T09:49:10Z</time>
      </trkpt>
      <trkpt lat="47.29153" lon="-1.54077">
        <ele>54</ele>
        <time>2022-04-10T09:49:11Z</time>
      </trkpt>
      <trkpt lat="47.29152" lon="-1.54077">
        <ele>54</ele>
        <time>2022-04-10T09:49:12Z</time>
      </trkpt>
      <trkpt lat="47.2915" lon="-1.54078">
        <ele>54</ele>
        <time>2022-04-10T09:49:13Z</time>
      </trkpt>
      <trkpt lat="47.29149" lon="-1.54078">
        <ele>54</ele>
        <time>2022-04-10T09:49:14Z</time>
      </trkpt>
      <trkpt lat="47.29149" lon="-1.54078">
        <ele>55</ele>
        <time>2022-04-10T09:49:15Z</time>
      </trkpt>
      <trkpt lat="47.29148" lon="-1.54079">
        <ele>55</ele>
        <time>2022-04-10T09:49:16Z</time>
      </trkpt>
      <trkpt lat="47.29148" lon="-1.54079">
        <ele>55</ele>
        <time>2022-04-10T09:49:17Z</time>
      </trkpt>
      <trkpt lat="47.29146" lon="-1.54081">
        <ele>56</ele>
        <time>2022-04-10T09:49:18Z</time>
      </trkpt>
      <trkpt lat="47.29145" lon="-1.54082">
        <ele>56</ele>
        <time>2022-04-10T09:49:19Z</time>
      </trkpt>
      <trkpt lat="47.29144" lon="-1.54083">
        <ele>56</ele>
        <time>2022-04-10T09:49:20Z</time>
      </trkpt>
      <trkpt lat="47.29143" lon="-1.54083">
        <ele>56</ele>
        <time>2022-04-10T09:49:21Z</time>
      </trkpt>
      <trkpt lat="47.29142" lon="-1.54084">
        <ele>56</ele>
        <time>2022-04-10T09:49:22Z</time>
      </trkpt>
      <trkpt lat="47.29141" lon="-1.54084">
        <ele>57</ele>
        <time>2022-04-10T09:49:23Z</time>
      </trkpt>
      <trkpt lat="47.29139" lon="-1.54084">
        <ele>57</ele>
        <time>2022-04-10T09:49:24Z</time>
      </trkpt>
      <trkpt lat="47.29138" lon="-1.54086">
        <ele>56</ele>
        <time>2022-04-10T09:49:25Z</time>
      </trkpt>
      <trkpt lat="47.29137" lon="-1.54086">
        <ele>56</ele>
        <time>2022-04-10T09:49:26Z</time>
      </trkpt>
      <trkpt lat="47.29136" lon="-1.54087">
        <ele>56</ele>
        <time>2022-04-10T09:49:27Z</time>
      </trkpt>
      <trkpt lat="47.29136" lon="-1.54087">
        <ele>56</ele>
        <time>2022-04-10T09:49:28Z</time>
      </trkpt>
      <trkpt lat="47.29136" lon="-1.54087">
        <ele>56</ele>
        <time>2022-04-10T09:49:29Z</time>
      </trkpt>
      <trkpt lat="47.29135" lon="-1.5409">
        <ele>56</ele>
        <time>2022-04-10T09:49:30Z</time>
      </trkpt>
      <trkpt lat="47.29134" lon="-1.5409">
        <ele>56</ele>
        <time>2022-04-10T09:49:31Z</time>
      </trkpt>
      <trkpt lat="47.29133" lon="-1.54091">
        <ele>56</ele>
        <time>2022-04-10T09:49:32Z</time>
      </trkpt>
      <trkpt lat="47.29132" lon="-1.54091">
        <ele>56</ele>
        <time>2022-04-10T09:49:33Z</time>
      </trkpt>
      <trkpt lat="47.29132" lon="-1.54091">
        <ele>56</ele>
        <time>2022-04-10T09:49:34Z</time>
      </trkpt>
      <trkpt lat="47.29132" lon="-1.54091">
        <ele>56</ele>
        <time>2022-04-10T09:49:35Z</time>
      </trkpt>
      <trkpt lat="47.2913" lon="-1.54093">
        <ele>56</ele>
        <time>2022-04-10T09:49:36Z</time>
      </trkpt>
      <trkpt lat="47.29129" lon="-1.54094">
        <ele>56</ele>
        <time>2022-04-10T09:49:37Z</time>
      </trkpt>
      <trkpt lat="47.29129" lon="-1.54094">
        <ele>56</ele>
        <time>2022-04-10T09:49:38Z</time>
      </trkpt>
      <trkpt lat="47.29128" lon="-1.54095">
        <ele>56</ele>
        <time>2022-04-10T09:49:39Z</time>
      </trkpt>
      <trkpt lat="47.29128" lon="-1.54095">
        <ele>56</ele>
        <time>2022-04-10T09:49:40Z</time>
      </trkpt>
      <trkpt lat="47.29128" lon="-1.54095">
        <ele>56</ele>
        <time>2022-04-10T09:49:41Z</time>
      </trkpt>
      <trkpt lat="47.29125" lon="-1.54097">
        <ele>57</ele>
        <time>2022-04-10T09:49:42Z</time>
      </trkpt>
      <trkpt lat="47.29124" lon="-1.54098">
        <ele>57</ele>
        <time>2022-04-10T09:49:43Z</time>
      </trkpt>
      <trkpt lat="47.29123" lon="-1.54099">
        <ele>58</ele>
        <time>2022-04-10T09:49:44Z</time>
      </trkpt>
      <trkpt lat="47.29122" lon="-1.541">
        <ele>57</ele>
        <time>2022-04-10T09:49:45Z</time>
      </trkpt>
      <trkpt lat="47.29121" lon="-1.54101">
        <ele>57</ele>
        <time>2022-04-10T09:49:46Z</time>
      </trkpt>
      <trkpt lat="47.2912" lon="-1.54102">
        <ele>58</ele>
        <time>2022-04-10T09:49:47Z</time>
      </trkpt>
      <trkpt lat="47.29119" lon="-1.54103">
        <ele>58</ele>
        <time>2022-04-10T09:49:48Z</time>
      </trkpt>
      <trkpt lat="47.29119" lon="-1.54103">
        <ele>58</ele>
        <time>2022-04-10T09:49:49Z</time>
      </trkpt>
      <trkpt lat="47.29119" lon="-1.54103">
        <ele>58</ele>
        <time>2022-04-10T09:49:50Z</time>
      </trkpt>
      <trkpt lat="47.29116" lon="-1.54105">
        <ele>57</ele>
        <time>2022-04-10T09:49:51Z</time>
      </trkpt>
      <trkpt lat="47.29115" lon="-1.54106">
        <ele>57</ele>
        <time>2022-04-10T09:49:52Z</time>
      </trkpt>
      <trkpt lat="47.29114" lon="-1.54107">
        <ele>57</ele>
        <time>2022-04-10T09:49:53Z</time>
      </trkpt>
      <trkpt lat="47.29113" lon="-1.54108">
        <ele>57</ele>
        <time>2022-04-10T09:49:54Z</time>
      </trkpt>
      <trkpt lat="47.29113" lon="-1.54109">
        <ele>57</ele>
        <time>2022-04-10T09:49:55Z</time>
      </trkpt>
      <trkpt lat="47.29112" lon="-1.54109">
        <ele>57</ele>
        <time>2022-04-10T09:49:56Z</time>
      </trkpt>
      <trkpt lat="47.2911" lon="-1.5411">
        <ele>58</ele>
        <time>2022-04-10T09:49:57Z</time>
      </trkpt>
      <trkpt lat="47.29109" lon="-1.54112">
        <ele>58</ele>
        <time>2022-04-10T09:49:58Z</time>
      </trkpt>
      <trkpt lat="47.29108" lon="-1.54112">
        <ele>58</ele>
        <time>2022-04-10T09:49:59Z</time>
      </trkpt>
      <trkpt lat="47.29107" lon="-1.54113">
        <ele>58</ele>
        <time>2022-04-10T09:50:00Z</time>
      </trkpt>
      <trkpt lat="47.29107" lon="-1.54113">
        <ele>58</ele>
        <time>2022-04-10T09:50:01Z</time>
      </trkpt>
      <trkpt lat="47.29107" lon="-1.54113">
        <ele>58</ele>
        <time>2022-04-10T09:50:02Z</time>
      </trkpt>
      <trkpt lat="47.29106" lon="-1.54115">
        <ele>59</ele>
        <time>2022-04-10T09:50:03Z</time>
      </trkpt>
      <trkpt lat="47.29105" lon="-1.54116">
        <ele>59</ele>
        <time>2022-04-10T09:50:04Z</time>
      </trkpt>
      <trkpt lat="47.29105" lon="-1.54117">
        <ele>59</ele>
        <time>2022-04-10T09:50:05Z</time>
      </trkpt>
      <trkpt lat="47.29104" lon="-1.54117">
        <ele>59</ele>
        <time>2022-04-10T09:50:06Z</time>
      </trkpt>
      <trkpt lat="47.29104" lon="-1.54117">
        <ele>59</ele>
        <time>2022-04-10T09:50:07Z</time>
      </trkpt>
      <trkpt lat="47.29104" lon="-1.54117">
        <ele>59</ele>
        <time>2022-04-10T09:50:08Z</time>
      </trkpt>
      <trkpt lat="47.29102" lon="-1.54119">
        <ele>58</ele>
        <time>2022-04-10T09:50:09Z</time>
      </trkpt>
      <trkpt lat="47.29101" lon="-1.5412">
        <ele>57</ele>
        <time>2022-04-10T09:50:10Z</time>
      </trkpt>
      <trkpt lat="47.291" lon="-1.54122">
        <ele>57</ele>
        <time>2022-04-10T09:50:11Z</time>
      </trkpt>
      <trkpt lat="47.29099" lon="-1.54123">
        <ele>57</ele>
        <time>2022-04-10T09:50:12Z</time>
      </trkpt>
      <trkpt lat="47.29099" lon="-1.54123">
        <ele>57</ele>
        <time>2022-04-10T09:50:13Z</time>
      </trkpt>
      <trkpt lat="47.29099" lon="-1.54123">
        <ele>57</ele>
        <time>2022-04-10T09:50:14Z</time>
      </trkpt>
      <trkpt lat="47.29096" lon="-1.54125">
        <ele>57</ele>
        <time>2022-04-10T09:50:15Z</time>
      </trkpt>
      <trkpt lat="47.29095" lon="-1.54126">
        <ele>58</ele>
        <time>2022-04-10T09:50:16Z</time>
      </trkpt>
      <trkpt lat="47.29094" lon="-1.54126">
        <ele>57</ele>
        <time>2022-04-10T09:50:17Z</time>
      </trkpt>
      <trkpt lat="47.29093" lon="-1.54128">
        <ele>58</ele>
        <time>2022-04-10T09:50:18Z</time>
      </trkpt>
      <trkpt lat="47.29092" lon="-1.54128">
        <ele>58</ele>
        <time>2022-04-10T09:50:19Z</time>
      </trkpt>
      <trkpt lat="47.29091" lon="-1.54129">
        <ele>58</ele>
        <time>2022-04-10T09:50:20Z</time>
      </trkpt>
      <trkpt lat="47.2909" lon="-1.5413">
        <ele>58</ele>
        <time>2022-04-10T09:50:21Z</time>
      </trkpt>
      <trkpt lat="47.2909" lon="-1.5413">
        <ele>58</ele>
        <time>2022-04-10T09:50:22Z</time>
      </trkpt>
      <trkpt lat="47.2909" lon="-1.5413">
        <ele>58</ele>
        <time>2022-04-10T09:50:23Z</time>
      </trkpt>
      <trkpt lat="47.29088" lon="-1.54132">
        <ele>59</ele>
        <time>2022-04-10T09:50:24Z</time>
      </trkpt>
      <trkpt lat="47.29087" lon="-1.54133">
        <ele>59</ele>
        <time>2022-04-10T09:50:25Z</time>
      </trkpt>
      <trkpt lat="47.29086" lon="-1.54133">
        <ele>59</ele>
        <time>2022-04-10T09:50:26Z</time>
      </trkpt>
      <trkpt lat="47.29085" lon="-1.54135">
        <ele>59</ele>
        <time>2022-04-10T09:50:27Z</time>
      </trkpt>
      <trkpt lat="47.29084" lon="-1.54136">
        <ele>60</ele>
        <time>2022-04-10T09:50:28Z</time>
      </trkpt>
      <trkpt lat="47.29083" lon="-1.54137">
        <ele>60</ele>
        <time>2022-04-10T09:50:29Z</time>
      </trkpt>
      <trkpt lat="47.29081" lon="-1.54137">
        <ele>61</ele>
        <time>2022-04-10T09:50:30Z</time>
      </trkpt>
      <trkpt lat="47.2908" lon="-1.54138">
        <ele>62</ele>
        <time>2022-04-10T09:50:31Z</time>
      </trkpt>
      <trkpt lat="47.29078" lon="-1.54139">
        <ele>61</ele>
        <time>2022-04-10T09:50:32Z</time>
      </trkpt>
      <trkpt lat="47.29076" lon="-1.54139">
        <ele>60</ele>
        <time>2022-04-10T09:50:33Z</time>
      </trkpt>
      <trkpt lat="47.29076" lon="-1.54139">
        <ele>60</ele>
        <time>2022-04-10T09:50:34Z</time>
      </trkpt>
      <trkpt lat="47.29076" lon="-1.54139">
        <ele>60</ele>
        <time>2022-04-10T09:50:35Z</time>
      </trkpt>
      <trkpt lat="47.29073" lon="-1.5414">
        <ele>59</ele>
        <time>2022-04-10T09:50:36Z</time>
      </trkpt>
      <trkpt lat="47.29071" lon="-1.5414">
        <ele>59</ele>
        <time>2022-04-10T09:50:37Z</time>
      </trkpt>
      <trkpt lat="47.2907" lon="-1.5414">
        <ele>59</ele>
        <time>2022-04-10T09:50:38Z</time>
      </trkpt>
      <trkpt lat="47.2907" lon="-1.54141">
        <ele>59</ele>
        <time>2022-04-10T09:50:39Z</time>
      </trkpt>
      <trkpt lat="47.2907" lon="-1.54141">
        <ele>59</ele>
        <time>2022-04-10T09:50:40Z</time>
      </trkpt>
      <trkpt lat="47.2907" lon="-1.54141">
        <ele>59</ele>
        <time>2022-04-10T09:50:41Z</time>
      </trkpt>
      <trkpt lat="47.29068" lon="-1.54144">
        <ele>59</ele>
        <time>2022-04-10T09:50:42Z</time>
      </trkpt>
      <trkpt lat="47.29067" lon="-1.54144">
        <ele>58</ele>
        <time>2022-04-10T09:50:43Z</time>
      </trkpt>
      <trkpt lat="47.29065" lon="-1.54145">
        <ele>58</ele>
        <time>2022-04-10T09:50:44Z</time>
      </trkpt>
      <trkpt lat="47.29064" lon="-1.54146">
        <ele>57</ele>
        <time>2022-04-10T09:50:45Z</time>
      </trkpt>
      <trkpt lat="47.29064" lon="-1.54146">
        <ele>57</ele>
        <time>2022-04-10T09:50:46Z</time>
      </trkpt>
      <trkpt lat="47.29064" lon="-1.54146">
        <ele>57</ele>
        <time>2022-04-10T09:50:47Z</time>
      </trkpt>
      <trkpt lat="47.2906" lon="-1.54147">
        <ele>56</ele>
        <time>2022-04-10T09:50:48Z</time>
      </trkpt>
      <trkpt lat="47.29059" lon="-1.54148">
        <ele>56</ele>
        <time>2022-04-10T09:50:49Z</time>
      </trkpt>
      <trkpt lat="47.29057" lon="-1.54148">
        <ele>56</ele>
        <time>2022-04-10T09:50:50Z</time>
      </trkpt>
      <trkpt lat="47.29056" lon="-1.54148">
        <ele>55</ele>
        <time>2022-04-10T09:50:51Z</time>
      </trkpt>
      <trkpt lat="47.29055" lon="-1.54148">
        <ele>55</ele>
        <time>2022-04-10T09:50:52Z</time>
      </trkpt>
      <trkpt lat="47.29055" lon="-1.54148">
        <ele>55</ele>
        <time>2022-04-10T09:50:53Z</time>
      </trkpt>
      <trkpt lat="47.29055" lon="-1.54148">
        <ele>55</ele>
        <time>2022-04-10T09:50:54Z</time>
      </trkpt>
      <trkpt lat="47.29052" lon="-1.5415">
        <ele>56</ele>
        <time>2022-04-10T09:50:55Z</time>
      </trkpt>
      <trkpt lat="47.29052" lon="-1.54151">
        <ele>56</ele>
        <time>2022-04-10T09:50:56Z</time>
      </trkpt>
      <trkpt lat="47.29051" lon="-1.54151">
        <ele>55</ele>
        <time>2022-04-10T09:50:57Z</time>
      </trkpt>
      <trkpt lat="47.2905" lon="-1.54151">
        <ele>55</ele>
        <time>2022-04-10T09:50:58Z</time>
      </trkpt>
      <trkpt lat="47.2905" lon="-1.54151">
        <ele>55</ele>
        <time>2022-04-10T09:50:59Z</time>
      </trkpt>
      <trkpt lat="47.2905" lon="-1.54151">
        <ele>55</ele>
        <time>2022-04-10T09:51:00Z</time>
      </trkpt>
      <trkpt lat="47.29049" lon="-1.54153">
        <ele>55</ele>
        <time>2022-04-10T09:51:01Z</time>
      </trkpt>
      <trkpt lat="47.29048" lon="-1.54153">
        <ele>56</ele>
        <time>2022-04-10T09:51:02Z</time>
      </trkpt>
      <trkpt lat="47.29046" lon="-1.54154">
        <ele>56</ele>
        <time>2022-04-10T09:51:03Z</time>
      </trkpt>
      <trkpt lat="47.29046" lon="-1.54155">
        <ele>56</ele>
        <time>2022-04-10T09:51:04Z</time>
      </trkpt>
      <trkpt lat="47.29046" lon="-1.54155">
        <ele>56</ele>
        <time>2022-04-10T09:51:05Z</time>
      </trkpt>
      <trkpt lat="47.29046" lon="-1.54155">
        <ele>56</ele>
        <time>2022-04-10T09:51:06Z</time>
      </trkpt>
      <trkpt lat="47.29044" lon="-1.54158">
        <ele>57</ele>
        <time>2022-04-10T09:51:07Z</time>
      </trkpt>
      <trkpt lat="47.29044" lon="-1.54159">
        <ele>57</ele>
        <time>2022-04-10T09:51:08Z</time>
      </trkpt>
      <trkpt lat="47.29043" lon="-1.5416">
        <ele>57</ele>
        <time>2022-04-10T09:51:09Z</time>
      </trkpt>
      <trkpt lat="47.29042" lon="-1.5416">
        <ele>56</ele>
        <time>2022-04-10T09:51:10Z</time>
      </trkpt>
      <trkpt lat="47.29042" lon="-1.54161">
        <ele>56</ele>
        <time>2022-04-10T09:51:11Z</time>
      </trkpt>
      <trkpt lat="47.29041" lon="-1.54162">
        <ele>57</ele>
        <time>2022-04-10T09:51:12Z</time>
      </trkpt>
      <trkpt lat="47.29041" lon="-1.54162">
        <ele>57</ele>
        <time>2022-04-10T09:51:13Z</time>
      </trkpt>
      <trkpt lat="47.29041" lon="-1.54162">
        <ele>57</ele>
        <time>2022-04-10T09:51:14Z</time>
      </trkpt>
      <trkpt lat="47.29039" lon="-1.54164">
        <ele>57</ele>
        <time>2022-04-10T09:51:15Z</time>
      </trkpt>
      <trkpt lat="47.29038" lon="-1.54165">
        <ele>57</ele>
        <time>2022-04-10T09:51:16Z</time>
      </trkpt>
      <trkpt lat="47.29037" lon="-1.54166">
        <ele>57</ele>
        <time>2022-04-10T09:51:17Z</time>
      </trkpt>
      <trkpt lat="47.29036" lon="-1.54167">
        <ele>56</ele>
        <time>2022-04-10T09:51:18Z</time>
      </trkpt>
      <trkpt lat="47.29035" lon="-1.54168">
        <ele>57</ele>
        <time>2022-04-10T09:51:19Z</time>
      </trkpt>
      <trkpt lat="47.29034" lon="-1.54169">
        <ele>57</ele>
        <time>2022-04-10T09:51:20Z</time>
      </trkpt>
      <trkpt lat="47.29033" lon="-1.5417">
        <ele>57</ele>
        <time>2022-04-10T09:51:21Z</time>
      </trkpt>
      <trkpt lat="47.29032" lon="-1.54171">
        <ele>57</ele>
        <time>2022-04-10T09:51:22Z</time>
      </trkpt>
      <trkpt lat="47.29031" lon="-1.54172">
        <ele>57</ele>
        <time>2022-04-10T09:51:23Z</time>
      </trkpt>
      <trkpt lat="47.2903" lon="-1.54173">
        <ele>58</ele>
        <time>2022-04-10T09:51:24Z</time>
      </trkpt>
      <trkpt lat="47.29028" lon="-1.54174">
        <ele>58</ele>
        <time>2022-04-10T09:51:25Z</time>
      </trkpt>
      <trkpt lat="47.29027" lon="-1.54175">
        <ele>58</ele>
        <time>2022-04-10T09:51:26Z</time>
      </trkpt>
      <trkpt lat="47.29026" lon="-1.54177">
        <ele>58</ele>
        <time>2022-04-10T09:51:27Z</time>
      </trkpt>
      <trkpt lat="47.29025" lon="-1.54177">
        <ele>58</ele>
        <time>2022-04-10T09:51:28Z</time>
      </trkpt>
      <trkpt lat="47.29023" lon="-1.54178">
        <ele>58</ele>
        <time>2022-04-10T09:51:29Z</time>
      </trkpt>
      <trkpt lat="47.29023" lon="-1.54179">
        <ele>59</ele>
        <time>2022-04-10T09:51:30Z</time>
      </trkpt>
      <trkpt lat="47.29022" lon="-1.5418">
        <ele>59</ele>
        <time>2022-04-10T09:51:31Z</time>
      </trkpt>
      <trkpt lat="47.29022" lon="-1.5418">
        <ele>59</ele>
        <time>2022-04-10T09:51:32Z</time>
      </trkpt>
      <trkpt lat="47.29022" lon="-1.5418">
        <ele>59</ele>
        <time>2022-04-10T09:51:33Z</time>
      </trkpt>
      <trkpt lat="47.29019" lon="-1.54182">
        <ele>60</ele>
        <time>2022-04-10T09:51:34Z</time>
      </trkpt>
      <trkpt lat="47.29018" lon="-1.54184">
        <ele>59</ele>
        <time>2022-04-10T09:51:35Z</time>
      </trkpt>
      <trkpt lat="47.29017" lon="-1.54186">
        <ele>60</ele>
        <time>2022-04-10T09:51:36Z</time>
      </trkpt>
      <trkpt lat="47.29016" lon="-1.54187">
        <ele>60</ele>
        <time>2022-04-10T09:51:37Z</time>
      </trkpt>
      <trkpt lat="47.29016" lon="-1.54187">
        <ele>60</ele>
        <time>2022-04-10T09:51:38Z</time>
      </trkpt>
      <trkpt lat="47.29016" lon="-1.54187">
        <ele>60</ele>
        <time>2022-04-10T09:51:39Z</time>
      </trkpt>
      <trkpt lat="47.29013" lon="-1.5419">
        <ele>59</ele>
        <time>2022-04-10T09:51:40Z</time>
      </trkpt>
      <trkpt lat="47.29012" lon="-1.54191">
        <ele>59</ele>
        <time>2022-04-10T09:51:41Z</time>
      </trkpt>
      <trkpt lat="47.29012" lon="-1.54192">
        <ele>59</ele>
        <time>2022-04-10T09:51:42Z</time>
      </trkpt>
      <trkpt lat="47.29011" lon="-1.54193">
        <ele>59</ele>
        <time>2022-04-10T09:51:43Z</time>
      </trkpt>
      <trkpt lat="47.29011" lon="-1.54193">
        <ele>59</ele>
        <time>2022-04-10T09:51:44Z</time>
      </trkpt>
      <trkpt lat="47.29011" lon="-1.54193">
        <ele>59</ele>
        <time>2022-04-10T09:51:45Z</time>
      </trkpt>
      <trkpt lat="47.29007" lon="-1.54194">
        <ele>60</ele>
        <time>2022-04-10T09:51:46Z</time>
      </trkpt>
      <trkpt lat="47.29006" lon="-1.54195">
        <ele>60</ele>
        <time>2022-04-10T09:51:47Z</time>
      </trkpt>
      <trkpt lat="47.29005" lon="-1.54196">
        <ele>60</ele>
        <time>2022-04-10T09:51:48Z</time>
      </trkpt>
      <trkpt lat="47.29003" lon="-1.54197">
        <ele>61</ele>
        <time>2022-04-10T09:51:49Z</time>
      </trkpt>
      <trkpt lat="47.29003" lon="-1.54197">
        <ele>61</ele>
        <time>2022-04-10T09:51:50Z</time>
      </trkpt>
      <trkpt lat="47.29003" lon="-1.54197">
        <ele>61</ele>
        <time>2022-04-10T09:51:51Z</time>
      </trkpt>
      <trkpt lat="47.28999" lon="-1.54198">
        <ele>61</ele>
        <time>2022-04-10T09:51:52Z</time>
      </trkpt>
      <trkpt lat="47.28998" lon="-1.54199">
        <ele>61</ele>
        <time>2022-04-10T09:51:53Z</time>
      </trkpt>
      <trkpt lat="47.28997" lon="-1.54199">
        <ele>61</ele>
        <time>2022-04-10T09:51:54Z</time>
      </trkpt>
      <trkpt lat="47.28996" lon="-1.542">
        <ele>60</ele>
        <time>2022-04-10T09:51:55Z</time>
      </trkpt>
      <trkpt lat="47.28994" lon="-1.54201">
        <ele>60</ele>
        <time>2022-04-10T09:51:56Z</time>
      </trkpt>
      <trkpt lat="47.28993" lon="-1.54202">
        <ele>59</ele>
        <time>2022-04-10T09:51:57Z</time>
      </trkpt>
      <trkpt lat="47.28992" lon="-1.54203">
        <ele>60</ele>
        <time>2022-04-10T09:51:58Z</time>
      </trkpt>
      <trkpt lat="47.28991" lon="-1.54204">
        <ele>60</ele>
        <time>2022-04-10T09:51:59Z</time>
      </trkpt>
      <trkpt lat="47.28991" lon="-1.54205">
        <ele>61</ele>
        <time>2022-04-10T09:52:00Z</time>
      </trkpt>
      <trkpt lat="47.28991" lon="-1.54205">
        <ele>61</ele>
        <time>2022-04-10T09:52:01Z</time>
      </trkpt>
      <trkpt lat="47.28991" lon="-1.54205">
        <ele>61</ele>
        <time>2022-04-10T09:52:02Z</time>
      </trkpt>
      <trkpt lat="47.28991" lon="-1.54209">
        <ele>62</ele>
        <time>2022-04-10T09:52:03Z</time>
      </trkpt>
      <trkpt lat="47.28991" lon="-1.5421">
        <ele>62</ele>
        <time>2022-04-10T09:52:04Z</time>
      </trkpt>
      <trkpt lat="47.28991" lon="-1.54211">
        <ele>61</ele>
        <time>2022-04-10T09:52:05Z</time>
      </trkpt>
      <trkpt lat="47.28991" lon="-1.54213">
        <ele>60</ele>
        <time>2022-04-10T09:52:06Z</time>
      </trkpt>
      <trkpt lat="47.28991" lon="-1.54214">
        <ele>59</ele>
        <time>2022-04-10T09:52:07Z</time>
      </trkpt>
      <trkpt lat="47.2899" lon="-1.54214">
        <ele>59</ele>
        <time>2022-04-10T09:52:08Z</time>
      </trkpt>
      <trkpt lat="47.2899" lon="-1.54216">
        <ele>60</ele>
        <time>2022-04-10T09:52:09Z</time>
      </trkpt>
      <trkpt lat="47.2899" lon="-1.54216">
        <ele>60</ele>
        <time>2022-04-10T09:52:10Z</time>
      </trkpt>
      <trkpt lat="47.2899" lon="-1.54216">
        <ele>60</ele>
        <time>2022-04-10T09:52:11Z</time>
      </trkpt>
      <trkpt lat="47.2899" lon="-1.54216">
        <ele>60</ele>
        <time>2022-04-10T09:52:11Z</time>
      </trkpt>
      <trkpt lat="47.2899" lon="-1.54216">
        <ele>60</ele>
        <time>2022-04-10T09:52:11Z</time>
      </trkpt>
      <trkpt lat="47.28992" lon="-1.54225">
        <ele>61</ele>
        <time>2022-04-10T09:53:29Z</time>
      </trkpt>
      <trkpt lat="47.28993" lon="-1.54225">
        <ele>61</ele>
        <time>2022-04-10T09:53:30Z</time>
      </trkpt>
      <trkpt lat="47.28994" lon="-1.54226">
        <ele>61</ele>
        <time>2022-04-10T09:53:31Z</time>
      </trkpt>
      <trkpt lat="47.28995" lon="-1.54228">
        <ele>61</ele>
        <time>2022-04-10T09:53:32Z</time>
      </trkpt>
      <trkpt lat="47.28995" lon="-1.54228">
        <ele>61</ele>
        <time>2022-04-10T09:53:33Z</time>
      </trkpt>
      <trkpt lat="47.28996" lon="-1.54229">
        <ele>61</ele>
        <time>2022-04-10T09:53:34Z</time>
      </trkpt>
      <trkpt lat="47.28996" lon="-1.5423">
        <ele>61</ele>
        <time>2022-04-10T09:53:35Z</time>
      </trkpt>
      <trkpt lat="47.28997" lon="-1.54231">
        <ele>61</ele>
        <time>2022-04-10T09:53:36Z</time>
      </trkpt>
      <trkpt lat="47.28997" lon="-1.54232">
        <ele>60</ele>
        <time>2022-04-10T09:53:37Z</time>
      </trkpt>
      <trkpt lat="47.28999" lon="-1.54233">
        <ele>60</ele>
        <time>2022-04-10T09:53:38Z</time>
      </trkpt>
      <trkpt lat="47.28999" lon="-1.54234">
        <ele>60</ele>
        <time>2022-04-10T09:53:39Z</time>
      </trkpt>
      <trkpt lat="47.28999" lon="-1.54235">
        <ele>60</ele>
        <time>2022-04-10T09:53:40Z</time>
      </trkpt>
      <trkpt lat="47.28999" lon="-1.54237">
        <ele>61</ele>
        <time>2022-04-10T09:53:41Z</time>
      </trkpt>
      <trkpt lat="47.28999" lon="-1.54238">
        <ele>62</ele>
        <time>2022-04-10T09:53:42Z</time>
      </trkpt>
      <trkpt lat="47.29" lon="-1.54239">
        <ele>62</ele>
        <time>2022-04-10T09:53:43Z</time>
      </trkpt>
      <trkpt lat="47.29001" lon="-1.54241">
        <ele>62</ele>
        <time>2022-04-10T09:53:44Z</time>
      </trkpt>
      <trkpt lat="47.29002" lon="-1.54243">
        <ele>61</ele>
        <time>2022-04-10T09:53:45Z</time>
      </trkpt>
      <trkpt lat="47.29002" lon="-1.54245">
        <ele>60</ele>
        <time>2022-04-10T09:53:46Z</time>
      </trkpt>
      <trkpt lat="47.29002" lon="-1.54247">
        <ele>60</ele>
        <time>2022-04-10T09:53:47Z</time>
      </trkpt>
      <trkpt lat="47.29002" lon="-1.54248">
        <ele>59</ele>
        <time>2022-04-10T09:53:48Z</time>
      </trkpt>
      <trkpt lat="47.29002" lon="-1.54251">
        <ele>60</ele>
        <time>2022-04-10T09:53:49Z</time>
      </trkpt>
      <trkpt lat="47.29002" lon="-1.54252">
        <ele>59</ele>
        <time>2022-04-10T09:53:50Z</time>
      </trkpt>
      <trkpt lat="47.29002" lon="-1.54252">
        <ele>60</ele>
        <time>2022-04-10T09:53:51Z</time>
      </trkpt>
      <trkpt lat="47.29003" lon="-1.54254">
        <ele>60</ele>
        <time>2022-04-10T09:53:52Z</time>
      </trkpt>
      <trkpt lat="47.29002" lon="-1.54255">
        <ele>60</ele>
        <time>2022-04-10T09:53:53Z</time>
      </trkpt>
      <trkpt lat="47.29002" lon="-1.54257">
        <ele>61</ele>
        <time>2022-04-10T09:53:54Z</time>
      </trkpt>
      <trkpt lat="47.29002" lon="-1.54259">
        <ele>60</ele>
        <time>2022-04-10T09:53:55Z</time>
      </trkpt>
      <trkpt lat="47.29002" lon="-1.54261">
        <ele>60</ele>
        <time>2022-04-10T09:53:56Z</time>
      </trkpt>
      <trkpt lat="47.29002" lon="-1.54263">
        <ele>60</ele>
        <time>2022-04-10T09:53:57Z</time>
      </trkpt>
      <trkpt lat="47.29002" lon="-1.54265">
        <ele>60</ele>
        <time>2022-04-10T09:53:58Z</time>
      </trkpt>
      <trkpt lat="47.29003" lon="-1.54266">
        <ele>60</ele>
        <time>2022-04-10T09:53:59Z</time>
      </trkpt>
      <trkpt lat="47.29003" lon="-1.54268">
        <ele>59</ele>
        <time>2022-04-10T09:54:00Z</time>
      </trkpt>
      <trkpt lat="47.29002" lon="-1.5427">
        <ele>59</ele>
        <time>2022-04-10T09:54:01Z</time>
      </trkpt>
      <trkpt lat="47.29002" lon="-1.54271">
        <ele>60</ele>
        <time>2022-04-10T09:54:02Z</time>
      </trkpt>
      <trkpt lat="47.29002" lon="-1.54273">
        <ele>60</ele>
        <time>2022-04-10T09:54:03Z</time>
      </trkpt>
      <trkpt lat="47.29002" lon="-1.54274">
        <ele>60</ele>
        <time>2022-04-10T09:54:04Z</time>
      </trkpt>
      <trkpt lat="47.29002" lon="-1.54275">
        <ele>60</ele>
        <time>2022-04-10T09:54:05Z</time>
      </trkpt>
      <trkpt lat="47.29002" lon="-1.54277">
        <ele>60</ele>
        <time>2022-04-10T09:54:06Z</time>
      </trkpt>
      <trkpt lat="47.29002" lon="-1.54279">
        <ele>60</ele>
        <time>2022-04-10T09:54:07Z</time>
      </trkpt>
      <trkpt lat="47.29001" lon="-1.5428">
        <ele>60</ele>
        <time>2022-04-10T09:54:08Z</time>
      </trkpt>
      <trkpt lat="47.29001" lon="-1.5428">
        <ele>60</ele>
        <time>2022-04-10T09:54:09Z</time>
      </trkpt>
      <trkpt lat="47.29001" lon="-1.54282">
        <ele>60</ele>
        <time>2022-04-10T09:54:10Z</time>
      </trkpt>
      <trkpt lat="47.29001" lon="-1.54283">
        <ele>60</ele>
        <time>2022-04-10T09:54:11Z</time>
      </trkpt>
      <trkpt lat="47.29001" lon="-1.54285">
        <ele>61</ele>
        <time>2022-04-10T09:54:12Z</time>
      </trkpt>
      <trkpt lat="47.29001" lon="-1.54286">
        <ele>61</ele>
        <time>2022-04-10T09:54:13Z</time>
      </trkpt>
      <trkpt lat="47.29" lon="-1.54288">
        <ele>61</ele>
        <time>2022-04-10T09:54:14Z</time>
      </trkpt>
      <trkpt lat="47.29" lon="-1.5429">
        <ele>61</ele>
        <time>2022-04-10T09:54:15Z</time>
      </trkpt>
      <trkpt lat="47.29" lon="-1.54291">
        <ele>61</ele>
        <time>2022-04-10T09:54:16Z</time>
      </trkpt>
      <trkpt lat="47.29" lon="-1.54293">
        <ele>61</ele>
        <time>2022-04-10T09:54:17Z</time>
      </trkpt>
      <trkpt lat="47.29" lon="-1.54295">
        <ele>61</ele>
        <time>2022-04-10T09:54:18Z</time>
      </trkpt>
      <trkpt lat="47.29" lon="-1.54297">
        <ele>62</ele>
        <time>2022-04-10T09:54:19Z</time>
      </trkpt>
      <trkpt lat="47.28999" lon="-1.54298">
        <ele>62</ele>
        <time>2022-04-10T09:54:20Z</time>
      </trkpt>
      <trkpt lat="47.28999" lon="-1.54299">
        <ele>62</ele>
        <time>2022-04-10T09:54:21Z</time>
      </trkpt>
      <trkpt lat="47.28999" lon="-1.54301">
        <ele>62</ele>
        <time>2022-04-10T09:54:22Z</time>
      </trkpt>
      <trkpt lat="47.28998" lon="-1.54303">
        <ele>62</ele>
        <time>2022-04-10T09:54:23Z</time>
      </trkpt>
      <trkpt lat="47.28998" lon="-1.54305">
        <ele>62</ele>
        <time>2022-04-10T09:54:24Z</time>
      </trkpt>
      <trkpt lat="47.28998" lon="-1.54307">
        <ele>61</ele>
        <time>2022-04-10T09:54:25Z</time>
      </trkpt>
      <trkpt lat="47.28997" lon="-1.54309">
        <ele>61</ele>
        <time>2022-04-10T09:54:26Z</time>
      </trkpt>
      <trkpt lat="47.28997" lon="-1.54311">
        <ele>61</ele>
        <time>2022-04-10T09:54:27Z</time>
      </trkpt>
      <trkpt lat="47.28997" lon="-1.54312">
        <ele>62</ele>
        <time>2022-04-10T09:54:28Z</time>
      </trkpt>
      <trkpt lat="47.28997" lon="-1.54314">
        <ele>62</ele>
        <time>2022-04-10T09:54:29Z</time>
      </trkpt>
      <trkpt lat="47.28997" lon="-1.54315">
        <ele>62</ele>
        <time>2022-04-10T09:54:30Z</time>
      </trkpt>
      <trkpt lat="47.28997" lon="-1.54316">
        <ele>62</ele>
        <time>2022-04-10T09:54:31Z</time>
      </trkpt>
      <trkpt lat="47.28996" lon="-1.54317">
        <ele>62</ele>
        <time>2022-04-10T09:54:32Z</time>
      </trkpt>
      <trkpt lat="47.28996" lon="-1.54319">
        <ele>62</ele>
        <time>2022-04-10T09:54:33Z</time>
      </trkpt>
      <trkpt lat="47.28995" lon="-1.5432">
        <ele>62</ele>
        <time>2022-04-10T09:54:34Z</time>
      </trkpt>
      <trkpt lat="47.28994" lon="-1.54321">
        <ele>62</ele>
        <time>2022-04-10T09:54:35Z</time>
      </trkpt>
      <trkpt lat="47.28994" lon="-1.54322">
        <ele>61</ele>
        <time>2022-04-10T09:54:36Z</time>
      </trkpt>
      <trkpt lat="47.28994" lon="-1.54323">
        <ele>61</ele>
        <time>2022-04-10T09:54:37Z</time>
      </trkpt>
      <trkpt lat="47.28995" lon="-1.54324">
        <ele>61</ele>
        <time>2022-04-10T09:54:38Z</time>
      </trkpt>
      <trkpt lat="47.28995" lon="-1.54325">
        <ele>61</ele>
        <time>2022-04-10T09:54:39Z</time>
      </trkpt>
      <trkpt lat="47.28996" lon="-1.54326">
        <ele>62</ele>
        <time>2022-04-10T09:54:40Z</time>
      </trkpt>
      <trkpt lat="47.28996" lon="-1.54327">
        <ele>62</ele>
        <time>2022-04-10T09:54:41Z</time>
      </trkpt>
      <trkpt lat="47.28996" lon="-1.54329">
        <ele>62</ele>
        <time>2022-04-10T09:54:42Z</time>
      </trkpt>
      <trkpt lat="47.28996" lon="-1.5433">
        <ele>62</ele>
        <time>2022-04-10T09:54:43Z</time>
      </trkpt>
      <trkpt lat="47.28996" lon="-1.54332">
        <ele>62</ele>
        <time>2022-04-10T09:54:44Z</time>
      </trkpt>
      <trkpt lat="47.28996" lon="-1.54334">
        <ele>62</ele>
        <time>2022-04-10T09:54:45Z</time>
      </trkpt>
      <trkpt lat="47.28996" lon="-1.54335">
        <ele>62</ele>
        <time>2022-04-10T09:54:46Z</time>
      </trkpt>
      <trkpt lat="47.28995" lon="-1.54337">
        <ele>62</ele>
        <time>2022-04-10T09:54:47Z</time>
      </trkpt>
      <trkpt lat="47.28995" lon="-1.54338">
        <ele>62</ele>
        <time>2022-04-10T09:54:48Z</time>
      </trkpt>
      <trkpt lat="47.28995" lon="-1.54339">
        <ele>62</ele>
        <time>2022-04-10T09:54:49Z</time>
      </trkpt>
      <trkpt lat="47.28994" lon="-1.5434">
        <ele>62</ele>
        <time>2022-04-10T09:54:50Z</time>
      </trkpt>
      <trkpt lat="47.28993" lon="-1.54342">
        <ele>61</ele>
        <time>2022-04-10T09:54:51Z</time>
      </trkpt>
      <trkpt lat="47.28993" lon="-1.54344">
        <ele>61</ele>
        <time>2022-04-10T09:54:52Z</time>
      </trkpt>
      <trkpt lat="47.28992" lon="-1.54346">
        <ele>61</ele>
        <time>2022-04-10T09:54:53Z</time>
      </trkpt>
      <trkpt lat="47.28991" lon="-1.54348">
        <ele>61</ele>
        <time>2022-04-10T09:54:54Z</time>
      </trkpt>
      <trkpt lat="47.28991" lon="-1.54349">
        <ele>61</ele>
        <time>2022-04-10T09:54:55Z</time>
      </trkpt>
      <trkpt lat="47.2899" lon="-1.5435">
        <ele>61</ele>
        <time>2022-04-10T09:54:56Z</time>
      </trkpt>
      <trkpt lat="47.28989" lon="-1.54352">
        <ele>61</ele>
        <time>2022-04-10T09:54:57Z</time>
      </trkpt>
      <trkpt lat="47.28989" lon="-1.54353">
        <ele>61</ele>
        <time>2022-04-10T09:54:58Z</time>
      </trkpt>
      <trkpt lat="47.28989" lon="-1.54354">
        <ele>62</ele>
        <time>2022-04-10T09:54:59Z</time>
      </trkpt>
      <trkpt lat="47.28989" lon="-1.54357">
        <ele>62</ele>
        <time>2022-04-10T09:55:00Z</time>
      </trkpt>
      <trkpt lat="47.28988" lon="-1.54358">
        <ele>62</ele>
        <time>2022-04-10T09:55:01Z</time>
      </trkpt>
      <trkpt lat="47.28988" lon="-1.54359">
        <ele>62</ele>
        <time>2022-04-10T09:55:02Z</time>
      </trkpt>
      <trkpt lat="47.28988" lon="-1.54359">
        <ele>62</ele>
        <time>2022-04-10T09:55:03Z</time>
      </trkpt>
      <trkpt lat="47.28988" lon="-1.54359">
        <ele>62</ele>
        <time>2022-04-10T09:55:04Z</time>
      </trkpt>
      <trkpt lat="47.28988" lon="-1.54359">
        <ele>62</ele>
        <time>2022-04-10T09:55:04Z</time>
      </trkpt>
      <trkpt lat="47.28988" lon="-1.54359">
        <ele>62</ele>
        <time>2022-04-10T09:55:04Z</time>
      </trkpt>
      <trkpt lat="47.2899" lon="-1.54368">
        <ele>61</ele>
        <time>2022-04-10T09:58:34Z</time>
      </trkpt>
      <trkpt lat="47.2899" lon="-1.54369">
        <ele>61</ele>
        <time>2022-04-10T09:58:35Z</time>
      </trkpt>
      <trkpt lat="47.28989" lon="-1.5437">
        <ele>62</ele>
        <time>2022-04-10T09:58:36Z</time>
      </trkpt>
      <trkpt lat="47.28989" lon="-1.54371">
        <ele>61</ele>
        <time>2022-04-10T09:58:37Z</time>
      </trkpt>
      <trkpt lat="47.28988" lon="-1.54372">
        <ele>61</ele>
        <time>2022-04-10T09:58:38Z</time>
      </trkpt>
      <trkpt lat="47.28988" lon="-1.54373">
        <ele>61</ele>
        <time>2022-04-10T09:58:39Z</time>
      </trkpt>
      <trkpt lat="47.28988" lon="-1.54374">
        <ele>61</ele>
        <time>2022-04-10T09:58:40Z</time>
      </trkpt>
      <trkpt lat="47.28987" lon="-1.54375">
        <ele>61</ele>
        <time>2022-04-10T09:58:41Z</time>
      </trkpt>
      <trkpt lat="47.28986" lon="-1.54376">
        <ele>62</ele>
        <time>2022-04-10T09:58:42Z</time>
      </trkpt>
      <trkpt lat="47.28986" lon="-1.54377">
        <ele>62</ele>
        <time>2022-04-10T09:58:43Z</time>
      </trkpt>
      <trkpt lat="47.28986" lon="-1.54378">
        <ele>61</ele>
        <time>2022-04-10T09:58:44Z</time>
      </trkpt>
      <trkpt lat="47.28986" lon="-1.54379">
        <ele>61</ele>
        <time>2022-04-10T09:58:45Z</time>
      </trkpt>
      <trkpt lat="47.28986" lon="-1.5438">
        <ele>62</ele>
        <time>2022-04-10T09:58:46Z</time>
      </trkpt>
      <trkpt lat="47.28986" lon="-1.54381">
        <ele>61</ele>
        <time>2022-04-10T09:58:47Z</time>
      </trkpt>
      <trkpt lat="47.28985" lon="-1.54382">
        <ele>62</ele>
        <time>2022-04-10T09:58:48Z</time>
      </trkpt>
      <trkpt lat="47.28985" lon="-1.54381">
        <ele>62</ele>
        <time>2022-04-10T09:58:49Z</time>
      </trkpt>
      <trkpt lat="47.28985" lon="-1.5438">
        <ele>62</ele>
        <time>2022-04-10T09:58:50Z</time>
      </trkpt>
      <trkpt lat="47.28985" lon="-1.54382">
        <ele>62</ele>
        <time>2022-04-10T09:58:51Z</time>
      </trkpt>
      <trkpt lat="47.28985" lon="-1.54383">
        <ele>62</ele>
        <time>2022-04-10T09:58:52Z</time>
      </trkpt>
      <trkpt lat="47.28985" lon="-1.54383">
        <ele>62</ele>
        <time>2022-04-10T09:58:53Z</time>
      </trkpt>
      <trkpt lat="47.28985" lon="-1.54383">
        <ele>62</ele>
        <time>2022-04-10T09:58:54Z</time>
      </trkpt>
      <trkpt lat="47.28985" lon="-1.54383">
        <ele>62</ele>
        <time>2022-04-10T09:58:55Z</time>
      </trkpt>
      <trkpt lat="47.28985" lon="-1.54383">
        <ele>62</ele>
        <time>2022-04-10T09:58:55Z</time>
      </trkpt>
      <trkpt lat="47.28985" lon="-1.54383">
        <ele>62</ele>
        <time>2022-04-10T09:58:55Z</time>
      </trkpt>
      <trkpt lat="47.28984" lon="-1.54405">
        <ele>64</ele>
        <time>2022-04-10T10:00:58Z</time>
      </trkpt>
      <trkpt lat="47.28983" lon="-1.54406">
        <ele>64</ele>
        <time>2022-04-10T10:00:59Z</time>
      </trkpt>
      <trkpt lat="47.28983" lon="-1.54407">
        <ele>65</ele>
        <time>2022-04-10T10:01:00Z</time>
      </trkpt>
      <trkpt lat="47.28982" lon="-1.54407">
        <ele>65</ele>
        <time>2022-04-10T10:01:01Z</time>
      </trkpt>
      <trkpt lat="47.28983" lon="-1.54409">
        <ele>65</ele>
        <time>2022-04-10T10:01:02Z</time>
      </trkpt>
      <trkpt lat="47.28982" lon="-1.54411">
        <ele>65</ele>
        <time>2022-04-10T10:01:03Z</time>
      </trkpt>
      <trkpt lat="47.28982" lon="-1.54412">
        <ele>65</ele>
        <time>2022-04-10T10:01:04Z</time>
      </trkpt>
      <trkpt lat="47.28983" lon="-1.54413">
        <ele>64</ele>
        <time>2022-04-10T10:01:05Z</time>
      </trkpt>
      <trkpt lat="47.28982" lon="-1.54414">
        <ele>64</ele>
        <time>2022-04-10T10:01:06Z</time>
      </trkpt>
      <trkpt lat="47.28982" lon="-1.54415">
        <ele>64</ele>
        <time>2022-04-10T10:01:07Z</time>
      </trkpt>
      <trkpt lat="47.2898" lon="-1.54416">
        <ele>64</ele>
        <time>2022-04-10T10:01:08Z</time>
      </trkpt>
      <trkpt lat="47.2898" lon="-1.54417">
        <ele>64</ele>
        <time>2022-04-10T10:01:09Z</time>
      </trkpt>
      <trkpt lat="47.28979" lon="-1.54418">
        <ele>65</ele>
        <time>2022-04-10T10:01:10Z</time>
      </trkpt>
      <trkpt lat="47.28979" lon="-1.5442">
        <ele>65</ele>
        <time>2022-04-10T10:01:11Z</time>
      </trkpt>
      <trkpt lat="47.28979" lon="-1.54421">
        <ele>64</ele>
        <time>2022-04-10T10:01:12Z</time>
      </trkpt>
      <trkpt lat="47.28979" lon="-1.54422">
        <ele>65</ele>
        <time>2022-04-10T10:01:13Z</time>
      </trkpt>
      <trkpt lat="47.28979" lon="-1.54423">
        <ele>64</ele>
        <time>2022-04-10T10:01:14Z</time>
      </trkpt>
      <trkpt lat="47.28979" lon="-1.54425">
        <ele>64</ele>
        <time>2022-04-10T10:01:15Z</time>
      </trkpt>
      <trkpt lat="47.28978" lon="-1.54426">
        <ele>64</ele>
        <time>2022-04-10T10:01:16Z</time>
      </trkpt>
      <trkpt lat="47.28978" lon="-1.54428">
        <ele>64</ele>
        <time>2022-04-10T10:01:17Z</time>
      </trkpt>
      <trkpt lat="47.28976" lon="-1.54429">
        <ele>64</ele>
        <time>2022-04-10T10:01:18Z</time>
      </trkpt>
      <trkpt lat="47.28976" lon="-1.54431">
        <ele>63</ele>
        <time>2022-04-10T10:01:19Z</time>
      </trkpt>
      <trkpt lat="47.28975" lon="-1.54433">
        <ele>64</ele>
        <time>2022-04-10T10:01:20Z</time>
      </trkpt>
      <trkpt lat="47.28975" lon="-1.54435">
        <ele>64</ele>
        <time>2022-04-10T10:01:21Z</time>
      </trkpt>
      <trkpt lat="47.28974" lon="-1.54437">
        <ele>64</ele>
        <time>2022-04-10T10:01:22Z</time>
      </trkpt>
      <trkpt lat="47.28974" lon="-1.54438">
        <ele>65</ele>
        <time>2022-04-10T10:01:23Z</time>
      </trkpt>
      <trkpt lat="47.28974" lon="-1.54439">
        <ele>65</ele>
        <time>2022-04-10T10:01:24Z</time>
      </trkpt>
      <trkpt lat="47.28974" lon="-1.54441">
        <ele>65</ele>
        <time>2022-04-10T10:01:25Z</time>
      </trkpt>
      <trkpt lat="47.28974" lon="-1.54441">
        <ele>65</ele>
        <time>2022-04-10T10:01:26Z</time>
      </trkpt>
      <trkpt lat="47.28973" lon="-1.54442">
        <ele>65</ele>
        <time>2022-04-10T10:01:27Z</time>
      </trkpt>
      <trkpt lat="47.28973" lon="-1.54443">
        <ele>64</ele>
        <time>2022-04-10T10:01:28Z</time>
      </trkpt>
      <trkpt lat="47.28973" lon="-1.54444">
        <ele>64</ele>
        <time>2022-04-10T10:01:29Z</time>
      </trkpt>
      <trkpt lat="47.28973" lon="-1.54445">
        <ele>65</ele>
        <time>2022-04-10T10:01:30Z</time>
      </trkpt>
      <trkpt lat="47.28973" lon="-1.54447">
        <ele>65</ele>
        <time>2022-04-10T10:01:31Z</time>
      </trkpt>
      <trkpt lat="47.28973" lon="-1.54449">
        <ele>65</ele>
        <time>2022-04-10T10:01:32Z</time>
      </trkpt>
      <trkpt lat="47.28972" lon="-1.5445">
        <ele>65</ele>
        <time>2022-04-10T10:01:33Z</time>
      </trkpt>
      <trkpt lat="47.28972" lon="-1.54451">
        <ele>65</ele>
        <time>2022-04-10T10:01:34Z</time>
      </trkpt>
      <trkpt lat="47.28971" lon="-1.54453">
        <ele>66</ele>
        <time>2022-04-10T10:01:35Z</time>
      </trkpt>
      <trkpt lat="47.2897" lon="-1.54455">
        <ele>66</ele>
        <time>2022-04-10T10:01:36Z</time>
      </trkpt>
      <trkpt lat="47.2897" lon="-1.54456">
        <ele>67</ele>
        <time>2022-04-10T10:01:37Z</time>
      </trkpt>
      <trkpt lat="47.28969" lon="-1.54457">
        <ele>67</ele>
        <time>2022-04-10T10:01:38Z</time>
      </trkpt>
      <trkpt lat="47.28968" lon="-1.54458">
        <ele>67</ele>
        <time>2022-04-10T10:01:39Z</time>
      </trkpt>
      <trkpt lat="47.28968" lon="-1.5446">
        <ele>68</ele>
        <time>2022-04-10T10:01:40Z</time>
      </trkpt>
      <trkpt lat="47.28967" lon="-1.54462">
        <ele>67</ele>
        <time>2022-04-10T10:01:41Z</time>
      </trkpt>
      <trkpt lat="47.28967" lon="-1.54463">
        <ele>67</ele>
        <time>2022-04-10T10:01:42Z</time>
      </trkpt>
      <trkpt lat="47.28967" lon="-1.54464">
        <ele>67</ele>
        <time>2022-04-10T10:01:43Z</time>
      </trkpt>
      <trkpt lat="47.28967" lon="-1.54466">
        <ele>68</ele>
        <time>2022-04-10T10:01:44Z</time>
      </trkpt>
      <trkpt lat="47.28966" lon="-1.54468">
        <ele>68</ele>
        <time>2022-04-10T10:01:45Z</time>
      </trkpt>
      <trkpt lat="47.28965" lon="-1.5447">
        <ele>68</ele>
        <time>2022-04-10T10:01:46Z</time>
      </trkpt>
      <trkpt lat="47.28965" lon="-1.54471">
        <ele>68</ele>
        <time>2022-04-10T10:01:47Z</time>
      </trkpt>
      <trkpt lat="47.28965" lon="-1.54473">
        <ele>68</ele>
        <time>2022-04-10T10:01:48Z</time>
      </trkpt>
      <trkpt lat="47.28965" lon="-1.54474">
        <ele>68</ele>
        <time>2022-04-10T10:01:49Z</time>
      </trkpt>
      <trkpt lat="47.28965" lon="-1.54476">
        <ele>68</ele>
        <time>2022-04-10T10:01:50Z</time>
      </trkpt>
      <trkpt lat="47.28965" lon="-1.54477">
        <ele>68</ele>
        <time>2022-04-10T10:01:51Z</time>
      </trkpt>
      <trkpt lat="47.28965" lon="-1.54479">
        <ele>68</ele>
        <time>2022-04-10T10:01:52Z</time>
      </trkpt>
      <trkpt lat="47.28964" lon="-1.54481">
        <ele>69</ele>
        <time>2022-04-10T10:01:53Z</time>
      </trkpt>
      <trkpt lat="47.28964" lon="-1.54482">
        <ele>69</ele>
        <time>2022-04-10T10:01:54Z</time>
      </trkpt>
      <trkpt lat="47.28964" lon="-1.54483">
        <ele>69</ele>
        <time>2022-04-10T10:01:55Z</time>
      </trkpt>
      <trkpt lat="47.28963" lon="-1.54485">
        <ele>70</ele>
        <time>2022-04-10T10:01:56Z</time>
      </trkpt>
      <trkpt lat="47.28963" lon="-1.54487">
        <ele>70</ele>
        <time>2022-04-10T10:01:57Z</time>
      </trkpt>
      <trkpt lat="47.28963" lon="-1.54488">
        <ele>70</ele>
        <time>2022-04-10T10:01:58Z</time>
      </trkpt>
      <trkpt lat="47.28963" lon="-1.5449">
        <ele>69</ele>
        <time>2022-04-10T10:01:59Z</time>
      </trkpt>
      <trkpt lat="47.28962" lon="-1.54491">
        <ele>69</ele>
        <time>2022-04-10T10:02:00Z</time>
      </trkpt>
      <trkpt lat="47.28962" lon="-1.54492">
        <ele>68</ele>
        <time>2022-04-10T10:02:01Z</time>
      </trkpt>
      <trkpt lat="47.28961" lon="-1.54493">
        <ele>68</ele>
        <time>2022-04-10T10:02:02Z</time>
      </trkpt>
      <trkpt lat="47.2896" lon="-1.54494">
        <ele>69</ele>
        <time>2022-04-10T10:02:03Z</time>
      </trkpt>
      <trkpt lat="47.28959" lon="-1.54495">
        <ele>69</ele>
        <time>2022-04-10T10:02:04Z</time>
      </trkpt>
      <trkpt lat="47.28958" lon="-1.54495">
        <ele>69</ele>
        <time>2022-04-10T10:02:05Z</time>
      </trkpt>
      <trkpt lat="47.28957" lon="-1.54494">
        <ele>69</ele>
        <time>2022-04-10T10:02:06Z</time>
      </trkpt>
      <trkpt lat="47.28957" lon="-1.54494">
        <ele>69</ele>
        <time>2022-04-10T10:02:07Z</time>
      </trkpt>
      <trkpt lat="47.28956" lon="-1.54493">
        <ele>69</ele>
        <time>2022-04-10T10:02:08Z</time>
      </trkpt>
      <trkpt lat="47.28955" lon="-1.54492">
        <ele>69</ele>
        <time>2022-04-10T10:02:09Z</time>
      </trkpt>
      <trkpt lat="47.28954" lon="-1.54492">
        <ele>69</ele>
        <time>2022-04-10T10:02:10Z</time>
      </trkpt>
      <trkpt lat="47.28953" lon="-1.54491">
        <ele>69</ele>
        <time>2022-04-10T10:02:11Z</time>
      </trkpt>
      <trkpt lat="47.28952" lon="-1.54491">
        <ele>69</ele>
        <time>2022-04-10T10:02:12Z</time>
      </trkpt>
      <trkpt lat="47.28951" lon="-1.54491">
        <ele>69</ele>
        <time>2022-04-10T10:02:13Z</time>
      </trkpt>
      <trkpt lat="47.28949" lon="-1.5449">
        <ele>69</ele>
        <time>2022-04-10T10:02:14Z</time>
      </trkpt>
      <trkpt lat="47.28948" lon="-1.54489">
        <ele>69</ele>
        <time>2022-04-10T10:02:15Z</time>
      </trkpt>
      <trkpt lat="47.28947" lon="-1.54487">
        <ele>69</ele>
        <time>2022-04-10T10:02:16Z</time>
      </trkpt>
      <trkpt lat="47.28946" lon="-1.54486">
        <ele>69</ele>
        <time>2022-04-10T10:02:17Z</time>
      </trkpt>
      <trkpt lat="47.28944" lon="-1.54486">
        <ele>69</ele>
        <time>2022-04-10T10:02:18Z</time>
      </trkpt>
      <trkpt lat="47.28943" lon="-1.54486">
        <ele>69</ele>
        <time>2022-04-10T10:02:19Z</time>
      </trkpt>
      <trkpt lat="47.28941" lon="-1.54486">
        <ele>69</ele>
        <time>2022-04-10T10:02:20Z</time>
      </trkpt>
      <trkpt lat="47.28939" lon="-1.54486">
        <ele>69</ele>
        <time>2022-04-10T10:02:21Z</time>
      </trkpt>
      <trkpt lat="47.28938" lon="-1.54486">
        <ele>69</ele>
        <time>2022-04-10T10:02:22Z</time>
      </trkpt>
      <trkpt lat="47.28937" lon="-1.54486">
        <ele>69</ele>
        <time>2022-04-10T10:02:23Z</time>
      </trkpt>
      <trkpt lat="47.28936" lon="-1.54485">
        <ele>68</ele>
        <time>2022-04-10T10:02:24Z</time>
      </trkpt>
      <trkpt lat="47.28935" lon="-1.54485">
        <ele>68</ele>
        <time>2022-04-10T10:02:25Z</time>
      </trkpt>
      <trkpt lat="47.28933" lon="-1.54485">
        <ele>69</ele>
        <time>2022-04-10T10:02:26Z</time>
      </trkpt>
      <trkpt lat="47.28931" lon="-1.54485">
        <ele>68</ele>
        <time>2022-04-10T10:02:27Z</time>
      </trkpt>
      <trkpt lat="47.2893" lon="-1.54486">
        <ele>69</ele>
        <time>2022-04-10T10:02:28Z</time>
      </trkpt>
      <trkpt lat="47.2893" lon="-1.54486">
        <ele>69</ele>
        <time>2022-04-10T10:02:29Z</time>
      </trkpt>
      <trkpt lat="47.28928" lon="-1.54486">
        <ele>69</ele>
        <time>2022-04-10T10:02:30Z</time>
      </trkpt>
      <trkpt lat="47.28928" lon="-1.54487">
        <ele>69</ele>
        <time>2022-04-10T10:02:31Z</time>
      </trkpt>
      <trkpt lat="47.28926" lon="-1.54487">
        <ele>69</ele>
        <time>2022-04-10T10:02:32Z</time>
      </trkpt>
      <trkpt lat="47.28925" lon="-1.54487">
        <ele>68</ele>
        <time>2022-04-10T10:02:33Z</time>
      </trkpt>
      <trkpt lat="47.28923" lon="-1.54486">
        <ele>68</ele>
        <time>2022-04-10T10:02:34Z</time>
      </trkpt>
      <trkpt lat="47.28922" lon="-1.54486">
        <ele>68</ele>
        <time>2022-04-10T10:02:35Z</time>
      </trkpt>
      <trkpt lat="47.28922" lon="-1.54485">
        <ele>68</ele>
        <time>2022-04-10T10:02:36Z</time>
      </trkpt>
      <trkpt lat="47.2892" lon="-1.54486">
        <ele>68</ele>
        <time>2022-04-10T10:02:37Z</time>
      </trkpt>
      <trkpt lat="47.28919" lon="-1.54486">
        <ele>68</ele>
        <time>2022-04-10T10:02:38Z</time>
      </trkpt>
      <trkpt lat="47.28917" lon="-1.54486">
        <ele>67</ele>
        <time>2022-04-10T10:02:39Z</time>
      </trkpt>
      <trkpt lat="47.28917" lon="-1.54486">
        <ele>68</ele>
        <time>2022-04-10T10:02:40Z</time>
      </trkpt>
      <trkpt lat="47.28915" lon="-1.54485">
        <ele>68</ele>
        <time>2022-04-10T10:02:41Z</time>
      </trkpt>
      <trkpt lat="47.28914" lon="-1.54485">
        <ele>67</ele>
        <time>2022-04-10T10:02:42Z</time>
      </trkpt>
      <trkpt lat="47.28913" lon="-1.54485">
        <ele>68</ele>
        <time>2022-04-10T10:02:43Z</time>
      </trkpt>
      <trkpt lat="47.28912" lon="-1.54485">
        <ele>68</ele>
        <time>2022-04-10T10:02:44Z</time>
      </trkpt>
      <trkpt lat="47.2891" lon="-1.54486">
        <ele>68</ele>
        <time>2022-04-10T10:02:45Z</time>
      </trkpt>
      <trkpt lat="47.28909" lon="-1.54485">
        <ele>68</ele>
        <time>2022-04-10T10:02:46Z</time>
      </trkpt>
      <trkpt lat="47.28908" lon="-1.54486">
        <ele>68</ele>
        <time>2022-04-10T10:02:47Z</time>
      </trkpt>
      <trkpt lat="47.28907" lon="-1.54486">
        <ele>68</ele>
        <time>2022-04-10T10:02:48Z</time>
      </trkpt>
      <trkpt lat="47.28906" lon="-1.54486">
        <ele>68</ele>
        <time>2022-04-10T10:02:49Z</time>
      </trkpt>
      <trkpt lat="47.28904" lon="-1.54486">
        <ele>68</ele>
        <time>2022-04-10T10:02:50Z</time>
      </trkpt>
      <trkpt lat="47.28904" lon="-1.54486">
        <ele>68</ele>
        <time>2022-04-10T10:02:51Z</time>
      </trkpt>
      <trkpt lat="47.28902" lon="-1.54486">
        <ele>68</ele>
        <time>2022-04-10T10:02:52Z</time>
      </trkpt>
      <trkpt lat="47.28901" lon="-1.54486">
        <ele>68</ele>
        <time>2022-04-10T10:02:53Z</time>
      </trkpt>
      <trkpt lat="47.28899" lon="-1.54486">
        <ele>68</ele>
        <time>2022-04-10T10:02:54Z</time>
      </trkpt>
      <trkpt lat="47.28898" lon="-1.54486">
        <ele>68</ele>
        <time>2022-04-10T10:02:55Z</time>
      </trkpt>
      <trkpt lat="47.28897" lon="-1.54485">
        <ele>69</ele>
        <time>2022-04-10T10:02:56Z</time>
      </trkpt>
      <trkpt lat="47.28896" lon="-1.54485">
        <ele>69</ele>
        <time>2022-04-10T10:02:57Z</time>
      </trkpt>
      <trkpt lat="47.28895" lon="-1.54484">
        <ele>69</ele>
        <time>2022-04-10T10:02:58Z</time>
      </trkpt>
      <trkpt lat="47.28894" lon="-1.54484">
        <ele>69</ele>
        <time>2022-04-10T10:02:59Z</time>
      </trkpt>
      <trkpt lat="47.28893" lon="-1.54484">
        <ele>69</ele>
        <time>2022-04-10T10:03:00Z</time>
      </trkpt>
      <trkpt lat="47.28891" lon="-1.54484">
        <ele>69</ele>
        <time>2022-04-10T10:03:01Z</time>
      </trkpt>
      <trkpt lat="47.2889" lon="-1.54483">
        <ele>68</ele>
        <time>2022-04-10T10:03:02Z</time>
      </trkpt>
      <trkpt lat="47.28889" lon="-1.54483">
        <ele>69</ele>
        <time>2022-04-10T10:03:03Z</time>
      </trkpt>
      <trkpt lat="47.28888" lon="-1.54483">
        <ele>69</ele>
        <time>2022-04-10T10:03:04Z</time>
      </trkpt>
      <trkpt lat="47.28886" lon="-1.54482">
        <ele>68</ele>
        <time>2022-04-10T10:03:05Z</time>
      </trkpt>
      <trkpt lat="47.28884" lon="-1.54482">
        <ele>68</ele>
        <time>2022-04-10T10:03:06Z</time>
      </trkpt>
      <trkpt lat="47.28883" lon="-1.54482">
        <ele>68</ele>
        <time>2022-04-10T10:03:07Z</time>
      </trkpt>
      <trkpt lat="47.28881" lon="-1.54481">
        <ele>68</ele>
        <time>2022-04-10T10:03:08Z</time>
      </trkpt>
      <trkpt lat="47.2888" lon="-1.5448">
        <ele>68</ele>
        <time>2022-04-10T10:03:09Z</time>
      </trkpt>
      <trkpt lat="47.2888" lon="-1.54479">
        <ele>68</ele>
        <time>2022-04-10T10:03:10Z</time>
      </trkpt>
      <trkpt lat="47.28878" lon="-1.54478">
        <ele>68</ele>
        <time>2022-04-10T10:03:11Z</time>
      </trkpt>
      <trkpt lat="47.28877" lon="-1.54477">
        <ele>68</ele>
        <time>2022-04-10T10:03:12Z</time>
      </trkpt>
      <trkpt lat="47.28876" lon="-1.54477">
        <ele>68</ele>
        <time>2022-04-10T10:03:13Z</time>
      </trkpt>
      <trkpt lat="47.28874" lon="-1.54477">
        <ele>69</ele>
        <time>2022-04-10T10:03:14Z</time>
      </trkpt>
      <trkpt lat="47.28873" lon="-1.54477">
        <ele>69</ele>
        <time>2022-04-10T10:03:15Z</time>
      </trkpt>
      <trkpt lat="47.28872" lon="-1.54477">
        <ele>69</ele>
        <time>2022-04-10T10:03:16Z</time>
      </trkpt>
      <trkpt lat="47.28871" lon="-1.54476">
        <ele>69</ele>
        <time>2022-04-10T10:03:17Z</time>
      </trkpt>
      <trkpt lat="47.2887" lon="-1.54476">
        <ele>69</ele>
        <time>2022-04-10T10:03:18Z</time>
      </trkpt>
      <trkpt lat="47.28869" lon="-1.54476">
        <ele>70</ele>
        <time>2022-04-10T10:03:19Z</time>
      </trkpt>
      <trkpt lat="47.28868" lon="-1.54475">
        <ele>70</ele>
        <time>2022-04-10T10:03:20Z</time>
      </trkpt>
      <trkpt lat="47.28867" lon="-1.54475">
        <ele>71</ele>
        <time>2022-04-10T10:03:21Z</time>
      </trkpt>
      <trkpt lat="47.28867" lon="-1.54474">
        <ele>71</ele>
        <time>2022-04-10T10:03:22Z</time>
      </trkpt>
      <trkpt lat="47.28866" lon="-1.54473">
        <ele>71</ele>
        <time>2022-04-10T10:03:23Z</time>
      </trkpt>
      <trkpt lat="47.28865" lon="-1.54472">
        <ele>71</ele>
        <time>2022-04-10T10:03:24Z</time>
      </trkpt>
      <trkpt lat="47.28864" lon="-1.54472">
        <ele>71</ele>
        <time>2022-04-10T10:03:25Z</time>
      </trkpt>
      <trkpt lat="47.28863" lon="-1.54472">
        <ele>71</ele>
        <time>2022-04-10T10:03:26Z</time>
      </trkpt>
      <trkpt lat="47.28862" lon="-1.54472">
        <ele>71</ele>
        <time>2022-04-10T10:03:27Z</time>
      </trkpt>
      <trkpt lat="47.28861" lon="-1.54471">
        <ele>72</ele>
        <time>2022-04-10T10:03:28Z</time>
      </trkpt>
      <trkpt lat="47.2886" lon="-1.54471">
        <ele>72</ele>
        <time>2022-04-10T10:03:29Z</time>
      </trkpt>
      <trkpt lat="47.28859" lon="-1.5447">
        <ele>72</ele>
        <time>2022-04-10T10:03:30Z</time>
      </trkpt>
      <trkpt lat="47.28858" lon="-1.5447">
        <ele>72</ele>
        <time>2022-04-10T10:03:31Z</time>
      </trkpt>
      <trkpt lat="47.28857" lon="-1.54469">
        <ele>71</ele>
        <time>2022-04-10T10:03:32Z</time>
      </trkpt>
      <trkpt lat="47.28857" lon="-1.54469">
        <ele>71</ele>
        <time>2022-04-10T10:03:33Z</time>
      </trkpt>
      <trkpt lat="47.28856" lon="-1.54469">
        <ele>71</ele>
        <time>2022-04-10T10:03:34Z</time>
      </trkpt>
      <trkpt lat="47.28856" lon="-1.54469">
        <ele>71</ele>
        <time>2022-04-10T10:03:35Z</time>
      </trkpt>
      <trkpt lat="47.28856" lon="-1.54469">
        <ele>71</ele>
        <time>2022-04-10T10:03:36Z</time>
      </trkpt>
      <trkpt lat="47.28855" lon="-1.54468">
        <ele>71</ele>
        <time>2022-04-10T10:03:37Z</time>
      </trkpt>
      <trkpt lat="47.28854" lon="-1.54467">
        <ele>71</ele>
        <time>2022-04-10T10:03:38Z</time>
      </trkpt>
      <trkpt lat="47.28853" lon="-1.54467">
        <ele>71</ele>
        <time>2022-04-10T10:03:39Z</time>
      </trkpt>
      <trkpt lat="47.28853" lon="-1.54467">
        <ele>71</ele>
        <time>2022-04-10T10:03:40Z</time>
      </trkpt>
      <trkpt lat="47.28851" lon="-1.54467">
        <ele>71</ele>
        <time>2022-04-10T10:03:41Z</time>
      </trkpt>
      <trkpt lat="47.2885" lon="-1.54466">
        <ele>71</ele>
        <time>2022-04-10T10:03:42Z</time>
      </trkpt>
      <trkpt lat="47.28849" lon="-1.54466">
        <ele>71</ele>
        <time>2022-04-10T10:03:43Z</time>
      </trkpt>
      <trkpt lat="47.28848" lon="-1.54465">
        <ele>72</ele>
        <time>2022-04-10T10:03:44Z</time>
      </trkpt>
      <trkpt lat="47.28847" lon="-1.54464">
        <ele>72</ele>
        <time>2022-04-10T10:03:45Z</time>
      </trkpt>
      <trkpt lat="47.28846" lon="-1.54464">
        <ele>71</ele>
        <time>2022-04-10T10:03:46Z</time>
      </trkpt>
      <trkpt lat="47.28846" lon="-1.54464">
        <ele>71</ele>
        <time>2022-04-10T10:03:47Z</time>
      </trkpt>
      <trkpt lat="47.28846" lon="-1.54464">
        <ele>71</ele>
        <time>2022-04-10T10:03:48Z</time>
      </trkpt>
      <trkpt lat="47.28843" lon="-1.54464">
        <ele>71</ele>
        <time>2022-04-10T10:03:49Z</time>
      </trkpt>
      <trkpt lat="47.28841" lon="-1.54465">
        <ele>71</ele>
        <time>2022-04-10T10:03:50Z</time>
      </trkpt>
      <trkpt lat="47.2884" lon="-1.54465">
        <ele>70</ele>
        <time>2022-04-10T10:03:51Z</time>
      </trkpt>
      <trkpt lat="47.2884" lon="-1.54465">
        <ele>69</ele>
        <time>2022-04-10T10:03:52Z</time>
      </trkpt>
      <trkpt lat="47.28839" lon="-1.54466">
        <ele>70</ele>
        <time>2022-04-10T10:03:53Z</time>
      </trkpt>
      <trkpt lat="47.28838" lon="-1.54466">
        <ele>69</ele>
        <time>2022-04-10T10:03:54Z</time>
      </trkpt>
      <trkpt lat="47.28838" lon="-1.54466">
        <ele>69</ele>
        <time>2022-04-10T10:03:55Z</time>
      </trkpt>
      <trkpt lat="47.28838" lon="-1.54466">
        <ele>69</ele>
        <time>2022-04-10T10:03:56Z</time>
      </trkpt>
      <trkpt lat="47.28837" lon="-1.5447">
        <ele>70</ele>
        <time>2022-04-10T10:03:57Z</time>
      </trkpt>
      <trkpt lat="47.28836" lon="-1.54472">
        <ele>71</ele>
        <time>2022-04-10T10:03:58Z</time>
      </trkpt>
      <trkpt lat="47.28836" lon="-1.54472">
        <ele>72</ele>
        <time>2022-04-10T10:03:59Z</time>
      </trkpt>
      <trkpt lat="47.28835" lon="-1.54473">
        <ele>71</ele>
        <time>2022-04-10T10:04:00Z</time>
      </trkpt>
      <trkpt lat="47.28833" lon="-1.54474">
        <ele>71</ele>
        <time>2022-04-10T10:04:01Z</time>
      </trkpt>
      <trkpt lat="47.28832" lon="-1.54475">
        <ele>71</ele>
        <time>2022-04-10T10:04:02Z</time>
      </trkpt>
      <trkpt lat="47.28832" lon="-1.54475">
        <ele>71</ele>
        <time>2022-04-10T10:04:03Z</time>
      </trkpt>
      <trkpt lat="47.28832" lon="-1.54475">
        <ele>71</ele>
        <time>2022-04-10T10:04:04Z</time>
      </trkpt>
      <trkpt lat="47.2883" lon="-1.54478">
        <ele>71</ele>
        <time>2022-04-10T10:04:05Z</time>
      </trkpt>
      <trkpt lat="47.2883" lon="-1.5448">
        <ele>72</ele>
        <time>2022-04-10T10:04:06Z</time>
      </trkpt>
      <trkpt lat="47.2883" lon="-1.54481">
        <ele>73</ele>
        <time>2022-04-10T10:04:07Z</time>
      </trkpt>
      <trkpt lat="47.28829" lon="-1.54483">
        <ele>73</ele>
        <time>2022-04-10T10:04:08Z</time>
      </trkpt>
      <trkpt lat="47.28829" lon="-1.54483">
        <ele>73</ele>
        <time>2022-04-10T10:04:09Z</time>
      </trkpt>
      <trkpt lat="47.28828" lon="-1.54486">
        <ele>74</ele>
        <time>2022-04-10T10:04:10Z</time>
      </trkpt>
      <trkpt lat="47.28828" lon="-1.54487">
        <ele>74</ele>
        <time>2022-04-10T10:04:11Z</time>
      </trkpt>
      <trkpt lat="47.28828" lon="-1.54488">
        <ele>74</ele>
        <time>2022-04-10T10:04:12Z</time>
      </trkpt>
      <trkpt lat="47.28828" lon="-1.54488">
        <ele>74</ele>
        <time>2022-04-10T10:04:13Z</time>
      </trkpt>
      <trkpt lat="47.28828" lon="-1.54488">
        <ele>74</ele>
        <time>2022-04-10T10:04:14Z</time>
      </trkpt>
      <trkpt lat="47.28828" lon="-1.54488">
        <ele>74</ele>
        <time>2022-04-10T10:04:15Z</time>
      </trkpt>
      <trkpt lat="47.28828" lon="-1.54488">
        <ele>74</ele>
        <time>2022-04-10T10:04:16Z</time>
      </trkpt>
      <trkpt lat="47.28828" lon="-1.54488">
        <ele>74</ele>
        <time>2022-04-10T10:04:17Z</time>
      </trkpt>
      <trkpt lat="47.28828" lon="-1.54494">
        <ele>73</ele>
        <time>2022-04-10T10:04:18Z</time>
      </trkpt>
      <trkpt lat="47.28828" lon="-1.54496">
        <ele>73</ele>
        <time>2022-04-10T10:04:19Z</time>
      </trkpt>
      <trkpt lat="47.28827" lon="-1.54496">
        <ele>73</ele>
        <time>2022-04-10T10:04:20Z</time>
      </trkpt>
      <trkpt lat="47.28828" lon="-1.54498">
        <ele>72</ele>
        <time>2022-04-10T10:04:21Z</time>
      </trkpt>
      <trkpt lat="47.28827" lon="-1.54499">
        <ele>72</ele>
        <time>2022-04-10T10:04:22Z</time>
      </trkpt>
      <trkpt lat="47.28827" lon="-1.54502">
        <ele>72</ele>
        <time>2022-04-10T10:04:23Z</time>
      </trkpt>
      <trkpt lat="47.28826" lon="-1.54503">
        <ele>71</ele>
        <time>2022-04-10T10:04:24Z</time>
      </trkpt>
      <trkpt lat="47.28825" lon="-1.54504">
        <ele>71</ele>
        <time>2022-04-10T10:04:25Z</time>
      </trkpt>
      <trkpt lat="47.28824" lon="-1.54506">
        <ele>71</ele>
        <time>2022-04-10T10:04:26Z</time>
      </trkpt>
      <trkpt lat="47.28824" lon="-1.54507">
        <ele>70</ele>
        <time>2022-04-10T10:04:27Z</time>
      </trkpt>
      <trkpt lat="47.28823" lon="-1.54508">
        <ele>70</ele>
        <time>2022-04-10T10:04:28Z</time>
      </trkpt>
      <trkpt lat="47.28823" lon="-1.54508">
        <ele>70</ele>
        <time>2022-04-10T10:04:29Z</time>
      </trkpt>
      <trkpt lat="47.28823" lon="-1.54508">
        <ele>70</ele>
        <time>2022-04-10T10:04:30Z</time>
      </trkpt>
      <trkpt lat="47.28821" lon="-1.54514">
        <ele>71</ele>
        <time>2022-04-10T10:04:31Z</time>
      </trkpt>
      <trkpt lat="47.2882" lon="-1.54515">
        <ele>71</ele>
        <time>2022-04-10T10:04:32Z</time>
      </trkpt>
      <trkpt lat="47.2882" lon="-1.54517">
        <ele>71</ele>
        <time>2022-04-10T10:04:33Z</time>
      </trkpt>
      <trkpt lat="47.28819" lon="-1.54519">
        <ele>72</ele>
        <time>2022-04-10T10:04:34Z</time>
      </trkpt>
      <trkpt lat="47.28819" lon="-1.54519">
        <ele>72</ele>
        <time>2022-04-10T10:04:35Z</time>
      </trkpt>
      <trkpt lat="47.28819" lon="-1.54519">
        <ele>72</ele>
        <time>2022-04-10T10:04:36Z</time>
      </trkpt>
      <trkpt lat="47.28819" lon="-1.54519">
        <ele>72</ele>
        <time>2022-04-10T10:04:37Z</time>
      </trkpt>
      <trkpt lat="47.28819" lon="-1.54519">
        <ele>72</ele>
        <time>2022-04-10T10:04:38Z</time>
      </trkpt>
      <trkpt lat="47.28818" lon="-1.54524">
        <ele>73</ele>
        <time>2022-04-10T10:04:39Z</time>
      </trkpt>
      <trkpt lat="47.28818" lon="-1.54526">
        <ele>73</ele>
        <time>2022-04-10T10:04:40Z</time>
      </trkpt>
      <trkpt lat="47.28817" lon="-1.54528">
        <ele>73</ele>
        <time>2022-04-10T10:04:41Z</time>
      </trkpt>
      <trkpt lat="47.28817" lon="-1.5453">
        <ele>74</ele>
        <time>2022-04-10T10:04:42Z</time>
      </trkpt>
      <trkpt lat="47.28817" lon="-1.5453">
        <ele>74</ele>
        <time>2022-04-10T10:04:43Z</time>
      </trkpt>
      <trkpt lat="47.28816" lon="-1.54534">
        <ele>74</ele>
        <time>2022-04-10T10:04:44Z</time>
      </trkpt>
      <trkpt lat="47.28816" lon="-1.54537">
        <ele>74</ele>
        <time>2022-04-10T10:04:45Z</time>
      </trkpt>
      <trkpt lat="47.28815" lon="-1.54539">
        <ele>74</ele>
        <time>2022-04-10T10:04:46Z</time>
      </trkpt>
      <trkpt lat="47.28814" lon="-1.54541">
        <ele>75</ele>
        <time>2022-04-10T10:04:47Z</time>
      </trkpt>
      <trkpt lat="47.28813" lon="-1.54542">
        <ele>75</ele>
        <time>2022-04-10T10:04:48Z</time>
      </trkpt>
      <trkpt lat="47.28813" lon="-1.54545">
        <ele>75</ele>
        <time>2022-04-10T10:04:49Z</time>
      </trkpt>
      <trkpt lat="47.28812" lon="-1.54546">
        <ele>75</ele>
        <time>2022-04-10T10:04:50Z</time>
      </trkpt>
      <trkpt lat="47.28811" lon="-1.54548">
        <ele>74</ele>
        <time>2022-04-10T10:04:51Z</time>
      </trkpt>
      <trkpt lat="47.28811" lon="-1.54548">
        <ele>74</ele>
        <time>2022-04-10T10:04:52Z</time>
      </trkpt>
      <trkpt lat="47.28811" lon="-1.54551">
        <ele>74</ele>
        <time>2022-04-10T10:04:53Z</time>
      </trkpt>
      <trkpt lat="47.2881" lon="-1.54552">
        <ele>74</ele>
        <time>2022-04-10T10:04:54Z</time>
      </trkpt>
      <trkpt lat="47.28809" lon="-1.54554">
        <ele>75</ele>
        <time>2022-04-10T10:04:55Z</time>
      </trkpt>
      <trkpt lat="47.28809" lon="-1.54555">
        <ele>75</ele>
        <time>2022-04-10T10:04:56Z</time>
      </trkpt>
      <trkpt lat="47.28809" lon="-1.54556">
        <ele>75</ele>
        <time>2022-04-10T10:04:57Z</time>
      </trkpt>
      <trkpt lat="47.28809" lon="-1.54557">
        <ele>75</ele>
        <time>2022-04-10T10:04:58Z</time>
      </trkpt>
      <trkpt lat="47.28809" lon="-1.54559">
        <ele>75</ele>
        <time>2022-04-10T10:04:59Z</time>
      </trkpt>
      <trkpt lat="47.28809" lon="-1.54559">
        <ele>75</ele>
        <time>2022-04-10T10:05:00Z</time>
      </trkpt>
      <trkpt lat="47.28809" lon="-1.54559">
        <ele>75</ele>
        <time>2022-04-10T10:05:01Z</time>
      </trkpt>
      <trkpt lat="47.28808" lon="-1.54563">
        <ele>76</ele>
        <time>2022-04-10T10:05:02Z</time>
      </trkpt>
      <trkpt lat="47.28808" lon="-1.54565">
        <ele>76</ele>
        <time>2022-04-10T10:05:03Z</time>
      </trkpt>
      <trkpt lat="47.28807" lon="-1.54567">
        <ele>76</ele>
        <time>2022-04-10T10:05:04Z</time>
      </trkpt>
      <trkpt lat="47.28807" lon="-1.54568">
        <ele>76</ele>
        <time>2022-04-10T10:05:05Z</time>
      </trkpt>
      <trkpt lat="47.28807" lon="-1.5457">
        <ele>76</ele>
        <time>2022-04-10T10:05:06Z</time>
      </trkpt>
      <trkpt lat="47.28807" lon="-1.5457">
        <ele>76</ele>
        <time>2022-04-10T10:05:07Z</time>
      </trkpt>
      <trkpt lat="47.28807" lon="-1.5457">
        <ele>76</ele>
        <time>2022-04-10T10:05:08Z</time>
      </trkpt>
      <trkpt lat="47.28806" lon="-1.54574">
        <ele>76</ele>
        <time>2022-04-10T10:05:09Z</time>
      </trkpt>
      <trkpt lat="47.28805" lon="-1.54575">
        <ele>77</ele>
        <time>2022-04-10T10:05:10Z</time>
      </trkpt>
      <trkpt lat="47.28804" lon="-1.54576">
        <ele>77</ele>
        <time>2022-04-10T10:05:11Z</time>
      </trkpt>
      <trkpt lat="47.28804" lon="-1.54577">
        <ele>77</ele>
        <time>2022-04-10T10:05:12Z</time>
      </trkpt>
      <trkpt lat="47.28804" lon="-1.54577">
        <ele>77</ele>
        <time>2022-04-10T10:05:13Z</time>
      </trkpt>
      <trkpt lat="47.28804" lon="-1.54577">
        <ele>77</ele>
        <time>2022-04-10T10:05:14Z</time>
      </trkpt>
      <trkpt lat="47.28802" lon="-1.54581">
        <ele>78</ele>
        <time>2022-04-10T10:05:15Z</time>
      </trkpt>
      <trkpt lat="47.28802" lon="-1.54582">
        <ele>78</ele>
        <time>2022-04-10T10:05:16Z</time>
      </trkpt>
      <trkpt lat="47.28801" lon="-1.54583">
        <ele>78</ele>
        <time>2022-04-10T10:05:17Z</time>
      </trkpt>
      <trkpt lat="47.28801" lon="-1.54584">
        <ele>78</ele>
        <time>2022-04-10T10:05:18Z</time>
      </trkpt>
      <trkpt lat="47.28801" lon="-1.54584">
        <ele>78</ele>
        <time>2022-04-10T10:05:19Z</time>
      </trkpt>
      <trkpt lat="47.28801" lon="-1.54584">
        <ele>78</ele>
        <time>2022-04-10T10:05:20Z</time>
      </trkpt>
      <trkpt lat="47.28799" lon="-1.54588">
        <ele>77</ele>
        <time>2022-04-10T10:05:21Z</time>
      </trkpt>
      <trkpt lat="47.28798" lon="-1.54589">
        <ele>77</ele>
        <time>2022-04-10T10:05:22Z</time>
      </trkpt>
      <trkpt lat="47.28798" lon="-1.54591">
        <ele>78</ele>
        <time>2022-04-10T10:05:23Z</time>
      </trkpt>
      <trkpt lat="47.28797" lon="-1.54592">
        <ele>78</ele>
        <time>2022-04-10T10:05:24Z</time>
      </trkpt>
      <trkpt lat="47.28795" lon="-1.54593">
        <ele>78</ele>
        <time>2022-04-10T10:05:25Z</time>
      </trkpt>
      <trkpt lat="47.28794" lon="-1.54595">
        <ele>78</ele>
        <time>2022-04-10T10:05:26Z</time>
      </trkpt>
      <trkpt lat="47.28794" lon="-1.54596">
        <ele>77</ele>
        <time>2022-04-10T10:05:27Z</time>
      </trkpt>
      <trkpt lat="47.28793" lon="-1.54597">
        <ele>77</ele>
        <time>2022-04-10T10:05:28Z</time>
      </trkpt>
      <trkpt lat="47.28791" lon="-1.54598">
        <ele>77</ele>
        <time>2022-04-10T10:05:29Z</time>
      </trkpt>
      <trkpt lat="47.2879" lon="-1.54599">
        <ele>77</ele>
        <time>2022-04-10T10:05:30Z</time>
      </trkpt>
      <trkpt lat="47.28789" lon="-1.546">
        <ele>77</ele>
        <time>2022-04-10T10:05:31Z</time>
      </trkpt>
      <trkpt lat="47.28788" lon="-1.54602">
        <ele>77</ele>
        <time>2022-04-10T10:05:32Z</time>
      </trkpt>
      <trkpt lat="47.28788" lon="-1.54603">
        <ele>77</ele>
        <time>2022-04-10T10:05:33Z</time>
      </trkpt>
      <trkpt lat="47.28787" lon="-1.54605">
        <ele>76</ele>
        <time>2022-04-10T10:05:34Z</time>
      </trkpt>
      <trkpt lat="47.28787" lon="-1.54605">
        <ele>76</ele>
        <time>2022-04-10T10:05:35Z</time>
      </trkpt>
      <trkpt lat="47.28787" lon="-1.54605">
        <ele>76</ele>
        <time>2022-04-10T10:05:36Z</time>
      </trkpt>
      <trkpt lat="47.28785" lon="-1.54608">
        <ele>76</ele>
        <time>2022-04-10T10:05:37Z</time>
      </trkpt>
      <trkpt lat="47.28784" lon="-1.5461">
        <ele>76</ele>
        <time>2022-04-10T10:05:38Z</time>
      </trkpt>
      <trkpt lat="47.28783" lon="-1.54611">
        <ele>76</ele>
        <time>2022-04-10T10:05:39Z</time>
      </trkpt>
      <trkpt lat="47.28783" lon="-1.54612">
        <ele>76</ele>
        <time>2022-04-10T10:05:40Z</time>
      </trkpt>
      <trkpt lat="47.28783" lon="-1.54612">
        <ele>76</ele>
        <time>2022-04-10T10:05:41Z</time>
      </trkpt>
      <trkpt lat="47.28783" lon="-1.54612">
        <ele>76</ele>
        <time>2022-04-10T10:05:42Z</time>
      </trkpt>
      <trkpt lat="47.28782" lon="-1.54614">
        <ele>76</ele>
        <time>2022-04-10T10:05:43Z</time>
      </trkpt>
      <trkpt lat="47.28781" lon="-1.54614">
        <ele>75</ele>
        <time>2022-04-10T10:05:44Z</time>
      </trkpt>
      <trkpt lat="47.2878" lon="-1.54615">
        <ele>74</ele>
        <time>2022-04-10T10:05:45Z</time>
      </trkpt>
      <trkpt lat="47.28779" lon="-1.54616">
        <ele>74</ele>
        <time>2022-04-10T10:05:46Z</time>
      </trkpt>
      <trkpt lat="47.28779" lon="-1.54616">
        <ele>74</ele>
        <time>2022-04-10T10:05:47Z</time>
      </trkpt>
      <trkpt lat="47.28779" lon="-1.54616">
        <ele>74</ele>
        <time>2022-04-10T10:05:48Z</time>
      </trkpt>
      <trkpt lat="47.28777" lon="-1.54617">
        <ele>73</ele>
        <time>2022-04-10T10:05:49Z</time>
      </trkpt>
      <trkpt lat="47.28776" lon="-1.54617">
        <ele>73</ele>
        <time>2022-04-10T10:05:50Z</time>
      </trkpt>
      <trkpt lat="47.28775" lon="-1.54618">
        <ele>72</ele>
        <time>2022-04-10T10:05:51Z</time>
      </trkpt>
      <trkpt lat="47.28774" lon="-1.54618">
        <ele>72</ele>
        <time>2022-04-10T10:05:52Z</time>
      </trkpt>
      <trkpt lat="47.28774" lon="-1.54618">
        <ele>72</ele>
        <time>2022-04-10T10:05:53Z</time>
      </trkpt>
      <trkpt lat="47.28773" lon="-1.54619">
        <ele>72</ele>
        <time>2022-04-10T10:05:54Z</time>
      </trkpt>
      <trkpt lat="47.28772" lon="-1.54619">
        <ele>72</ele>
        <time>2022-04-10T10:05:55Z</time>
      </trkpt>
      <trkpt lat="47.2877" lon="-1.54619">
        <ele>72</ele>
        <time>2022-04-10T10:05:56Z</time>
      </trkpt>
      <trkpt lat="47.28769" lon="-1.54618">
        <ele>72</ele>
        <time>2022-04-10T10:05:57Z</time>
      </trkpt>
      <trkpt lat="47.28768" lon="-1.54619">
        <ele>72</ele>
        <time>2022-04-10T10:05:58Z</time>
      </trkpt>
      <trkpt lat="47.28768" lon="-1.54619">
        <ele>72</ele>
        <time>2022-04-10T10:05:59Z</time>
      </trkpt>
      <trkpt lat="47.28768" lon="-1.54619">
        <ele>72</ele>
        <time>2022-04-10T10:06:00Z</time>
      </trkpt>
      <trkpt lat="47.28765" lon="-1.54618">
        <ele>71</ele>
        <time>2022-04-10T10:06:01Z</time>
      </trkpt>
      <trkpt lat="47.28764" lon="-1.54617">
        <ele>71</ele>
        <time>2022-04-10T10:06:02Z</time>
      </trkpt>
      <trkpt lat="47.28763" lon="-1.54616">
        <ele>71</ele>
        <time>2022-04-10T10:06:03Z</time>
      </trkpt>
      <trkpt lat="47.28762" lon="-1.54615">
        <ele>71</ele>
        <time>2022-04-10T10:06:04Z</time>
      </trkpt>
      <trkpt lat="47.28761" lon="-1.54615">
        <ele>71</ele>
        <time>2022-04-10T10:06:05Z</time>
      </trkpt>
      <trkpt lat="47.2876" lon="-1.54615">
        <ele>71</ele>
        <time>2022-04-10T10:06:06Z</time>
      </trkpt>
      <trkpt lat="47.28759" lon="-1.54614">
        <ele>71</ele>
        <time>2022-04-10T10:06:07Z</time>
      </trkpt>
      <trkpt lat="47.28758" lon="-1.54614">
        <ele>71</ele>
        <time>2022-04-10T10:06:08Z</time>
      </trkpt>
      <trkpt lat="47.28756" lon="-1.54613">
        <ele>71</ele>
        <time>2022-04-10T10:06:09Z</time>
      </trkpt>
      <trkpt lat="47.28755" lon="-1.54612">
        <ele>72</ele>
        <time>2022-04-10T10:06:10Z</time>
      </trkpt>
      <trkpt lat="47.28754" lon="-1.54612">
        <ele>73</ele>
        <time>2022-04-10T10:06:11Z</time>
      </trkpt>
      <trkpt lat="47.28753" lon="-1.54612">
        <ele>72</ele>
        <time>2022-04-10T10:06:12Z</time>
      </trkpt>
      <trkpt lat="47.28751" lon="-1.54612">
        <ele>72</ele>
        <time>2022-04-10T10:06:13Z</time>
      </trkpt>
      <trkpt lat="47.2875" lon="-1.54611">
        <ele>72</ele>
        <time>2022-04-10T10:06:14Z</time>
      </trkpt>
      <trkpt lat="47.28749" lon="-1.5461">
        <ele>72</ele>
        <time>2022-04-10T10:06:15Z</time>
      </trkpt>
      <trkpt lat="47.28748" lon="-1.54609">
        <ele>72</ele>
        <time>2022-04-10T10:06:16Z</time>
      </trkpt>
      <trkpt lat="47.28746" lon="-1.54608">
        <ele>71</ele>
        <time>2022-04-10T10:06:17Z</time>
      </trkpt>
      <trkpt lat="47.28746" lon="-1.54608">
        <ele>71</ele>
        <time>2022-04-10T10:06:18Z</time>
      </trkpt>
      <trkpt lat="47.28745" lon="-1.54607">
        <ele>72</ele>
        <time>2022-04-10T10:06:19Z</time>
      </trkpt>
      <trkpt lat="47.28744" lon="-1.54606">
        <ele>72</ele>
        <time>2022-04-10T10:06:20Z</time>
      </trkpt>
      <trkpt lat="47.28743" lon="-1.54606">
        <ele>72</ele>
        <time>2022-04-10T10:06:21Z</time>
      </trkpt>
      <trkpt lat="47.28742" lon="-1.54605">
        <ele>72</ele>
        <time>2022-04-10T10:06:22Z</time>
      </trkpt>
      <trkpt lat="47.28741" lon="-1.54604">
        <ele>72</ele>
        <time>2022-04-10T10:06:23Z</time>
      </trkpt>
      <trkpt lat="47.2874" lon="-1.54603">
        <ele>72</ele>
        <time>2022-04-10T10:06:24Z</time>
      </trkpt>
      <trkpt lat="47.2874" lon="-1.54602">
        <ele>72</ele>
        <time>2022-04-10T10:06:25Z</time>
      </trkpt>
      <trkpt lat="47.28738" lon="-1.54601">
        <ele>72</ele>
        <time>2022-04-10T10:06:26Z</time>
      </trkpt>
      <trkpt lat="47.28737" lon="-1.54601">
        <ele>72</ele>
        <time>2022-04-10T10:06:27Z</time>
      </trkpt>
      <trkpt lat="47.28735" lon="-1.546">
        <ele>72</ele>
        <time>2022-04-10T10:06:28Z</time>
      </trkpt>
      <trkpt lat="47.28734" lon="-1.54599">
        <ele>71</ele>
        <time>2022-04-10T10:06:29Z</time>
      </trkpt>
      <trkpt lat="47.28733" lon="-1.54598">
        <ele>71</ele>
        <time>2022-04-10T10:06:30Z</time>
      </trkpt>
      <trkpt lat="47.28732" lon="-1.54597">
        <ele>72</ele>
        <time>2022-04-10T10:06:31Z</time>
      </trkpt>
      <trkpt lat="47.28732" lon="-1.54596">
        <ele>72</ele>
        <time>2022-04-10T10:06:32Z</time>
      </trkpt>
      <trkpt lat="47.28731" lon="-1.54595">
        <ele>72</ele>
        <time>2022-04-10T10:06:33Z</time>
      </trkpt>
      <trkpt lat="47.2873" lon="-1.54594">
        <ele>72</ele>
        <time>2022-04-10T10:06:34Z</time>
      </trkpt>
      <trkpt lat="47.28729" lon="-1.54594">
        <ele>72</ele>
        <time>2022-04-10T10:06:35Z</time>
      </trkpt>
      <trkpt lat="47.28728" lon="-1.54594">
        <ele>72</ele>
        <time>2022-04-10T10:06:36Z</time>
      </trkpt>
      <trkpt lat="47.28727" lon="-1.54594">
        <ele>71</ele>
        <time>2022-04-10T10:06:37Z</time>
      </trkpt>
      <trkpt lat="47.28725" lon="-1.54593">
        <ele>71</ele>
        <time>2022-04-10T10:06:38Z</time>
      </trkpt>
      <trkpt lat="47.28725" lon="-1.54593">
        <ele>72</ele>
        <time>2022-04-10T10:06:39Z</time>
      </trkpt>
      <trkpt lat="47.28724" lon="-1.54593">
        <ele>71</ele>
        <time>2022-04-10T10:06:40Z</time>
      </trkpt>
      <trkpt lat="47.28724" lon="-1.54593">
        <ele>71</ele>
        <time>2022-04-10T10:06:41Z</time>
      </trkpt>
      <trkpt lat="47.28722" lon="-1.54593">
        <ele>71</ele>
        <time>2022-04-10T10:06:42Z</time>
      </trkpt>
      <trkpt lat="47.28721" lon="-1.54594">
        <ele>71</ele>
        <time>2022-04-10T10:06:43Z</time>
      </trkpt>
      <trkpt lat="47.28721" lon="-1.54596">
        <ele>71</ele>
        <time>2022-04-10T10:06:44Z</time>
      </trkpt>
      <trkpt lat="47.2872" lon="-1.54597">
        <ele>71</ele>
        <time>2022-04-10T10:06:45Z</time>
      </trkpt>
      <trkpt lat="47.28719" lon="-1.54597">
        <ele>70</ele>
        <time>2022-04-10T10:06:46Z</time>
      </trkpt>
      <trkpt lat="47.28719" lon="-1.54598">
        <ele>70</ele>
        <time>2022-04-10T10:06:47Z</time>
      </trkpt>
      <trkpt lat="47.28717" lon="-1.54598">
        <ele>69</ele>
        <time>2022-04-10T10:06:48Z</time>
      </trkpt>
      <trkpt lat="47.28716" lon="-1.54599">
        <ele>68</ele>
        <time>2022-04-10T10:06:49Z</time>
      </trkpt>
      <trkpt lat="47.28716" lon="-1.546">
        <ele>67</ele>
        <time>2022-04-10T10:06:50Z</time>
      </trkpt>
      <trkpt lat="47.28715" lon="-1.54601">
        <ele>67</ele>
        <time>2022-04-10T10:06:51Z</time>
      </trkpt>
      <trkpt lat="47.28715" lon="-1.54601">
        <ele>67</ele>
        <time>2022-04-10T10:06:52Z</time>
      </trkpt>
      <trkpt lat="47.28715" lon="-1.54601">
        <ele>67</ele>
        <time>2022-04-10T10:06:53Z</time>
      </trkpt>
      <trkpt lat="47.28713" lon="-1.54602">
        <ele>67</ele>
        <time>2022-04-10T10:06:54Z</time>
      </trkpt>
      <trkpt lat="47.28712" lon="-1.54602">
        <ele>66</ele>
        <time>2022-04-10T10:06:55Z</time>
      </trkpt>
      <trkpt lat="47.28712" lon="-1.54603">
        <ele>65</ele>
        <time>2022-04-10T10:06:56Z</time>
      </trkpt>
      <trkpt lat="47.28711" lon="-1.54603">
        <ele>65</ele>
        <time>2022-04-10T10:06:57Z</time>
      </trkpt>
      <trkpt lat="47.28711" lon="-1.54603">
        <ele>65</ele>
        <time>2022-04-10T10:06:57Z</time>
      </trkpt>
      <trkpt lat="47.28706" lon="-1.54606">
        <ele>67</ele>
        <time>2022-04-10T10:07:40Z</time>
      </trkpt>
      <trkpt lat="47.28706" lon="-1.54606">
        <ele>67</ele>
        <time>2022-04-10T10:07:41Z</time>
      </trkpt>
      <trkpt lat="47.28703" lon="-1.54606">
        <ele>66</ele>
        <time>2022-04-10T10:07:42Z</time>
      </trkpt>
      <trkpt lat="47.28703" lon="-1.54606">
        <ele>66</ele>
        <time>2022-04-10T10:07:43Z</time>
      </trkpt>
      <trkpt lat="47.28703" lon="-1.54607">
        <ele>66</ele>
        <time>2022-04-10T10:07:44Z</time>
      </trkpt>
      <trkpt lat="47.28702" lon="-1.54607">
        <ele>66</ele>
        <time>2022-04-10T10:07:45Z</time>
      </trkpt>
      <trkpt lat="47.28702" lon="-1.54607">
        <ele>66</ele>
        <time>2022-04-10T10:07:46Z</time>
      </trkpt>
      <trkpt lat="47.28702" lon="-1.54607">
        <ele>66</ele>
        <time>2022-04-10T10:07:47Z</time>
      </trkpt>
      <trkpt lat="47.28702" lon="-1.54607">
        <ele>66</ele>
        <time>2022-04-10T10:07:48Z</time>
      </trkpt>
      <trkpt lat="47.28702" lon="-1.54607">
        <ele>66</ele>
        <time>2022-04-10T10:07:48Z</time>
      </trkpt>
      <trkpt lat="47.28702" lon="-1.54607">
        <ele>66</ele>
        <time>2022-04-10T10:07:50Z</time>
      </trkpt>
      <trkpt lat="47.28699" lon="-1.54608">
        <ele>66</ele>
        <time>2022-04-10T10:07:51Z</time>
      </trkpt>
      <trkpt lat="47.28698" lon="-1.54608">
        <ele>66</ele>
        <time>2022-04-10T10:07:52Z</time>
      </trkpt>
      <trkpt lat="47.28698" lon="-1.54608">
        <ele>66</ele>
        <time>2022-04-10T10:07:53Z</time>
      </trkpt>
      <trkpt lat="47.28698" lon="-1.54608">
        <ele>66</ele>
        <time>2022-04-10T10:07:53Z</time>
      </trkpt>
      <trkpt lat="47.28698" lon="-1.54608">
        <ele>66</ele>
        <time>2022-04-10T10:07:53Z</time>
      </trkpt>
      <trkpt lat="47.28691" lon="-1.54617">
        <ele>68</ele>
        <time>2022-04-10T10:08:56Z</time>
      </trkpt>
      <trkpt lat="47.28692" lon="-1.54618">
        <ele>68</ele>
        <time>2022-04-10T10:08:57Z</time>
      </trkpt>
      <trkpt lat="47.28692" lon="-1.54619">
        <ele>68</ele>
        <time>2022-04-10T10:08:58Z</time>
      </trkpt>
      <trkpt lat="47.28691" lon="-1.5462">
        <ele>68</ele>
        <time>2022-04-10T10:08:59Z</time>
      </trkpt>
      <trkpt lat="47.28691" lon="-1.5462">
        <ele>68</ele>
        <time>2022-04-10T10:08:59Z</time>
      </trkpt>
      <trkpt lat="47.28691" lon="-1.54622">
        <ele>68</ele>
        <time>2022-04-10T10:09:01Z</time>
      </trkpt>
      <trkpt lat="47.28691" lon="-1.54622">
        <ele>68</ele>
        <time>2022-04-10T10:09:01Z</time>
      </trkpt>
      <trkpt lat="47.2869" lon="-1.54624">
        <ele>68</ele>
        <time>2022-04-10T10:09:03Z</time>
      </trkpt>
      <trkpt lat="47.2869" lon="-1.54625">
        <ele>68</ele>
        <time>2022-04-10T10:09:04Z</time>
      </trkpt>
      <trkpt lat="47.2869" lon="-1.54627">
        <ele>69</ele>
        <time>2022-04-10T10:09:05Z</time>
      </trkpt>
      <trkpt lat="47.28689" lon="-1.54628">
        <ele>69</ele>
        <time>2022-04-10T10:09:06Z</time>
      </trkpt>
      <trkpt lat="47.28689" lon="-1.54628">
        <ele>69</ele>
        <time>2022-04-10T10:09:06Z</time>
      </trkpt>
      <trkpt lat="47.28687" lon="-1.5463">
        <ele>69</ele>
        <time>2022-04-10T10:09:08Z</time>
      </trkpt>
      <trkpt lat="47.28686" lon="-1.54632">
        <ele>69</ele>
        <time>2022-04-10T10:09:09Z</time>
      </trkpt>
      <trkpt lat="47.28686" lon="-1.54633">
        <ele>69</ele>
        <time>2022-04-10T10:09:10Z</time>
      </trkpt>
      <trkpt lat="47.28686" lon="-1.54633">
        <ele>69</ele>
        <time>2022-04-10T10:09:10Z</time>
      </trkpt>
      <trkpt lat="47.28685" lon="-1.54636">
        <ele>69</ele>
        <time>2022-04-10T10:09:12Z</time>
      </trkpt>
      <trkpt lat="47.28685" lon="-1.54637">
        <ele>69</ele>
        <time>2022-04-10T10:09:13Z</time>
      </trkpt>
      <trkpt lat="47.28685" lon="-1.54638">
        <ele>69</ele>
        <time>2022-04-10T10:09:14Z</time>
      </trkpt>
      <trkpt lat="47.28684" lon="-1.5464">
        <ele>69</ele>
        <time>2022-04-10T10:09:15Z</time>
      </trkpt>
      <trkpt lat="47.28684" lon="-1.5464">
        <ele>69</ele>
        <time>2022-04-10T10:09:15Z</time>
      </trkpt>
      <trkpt lat="47.28684" lon="-1.54642">
        <ele>70</ele>
        <time>2022-04-10T10:09:17Z</time>
      </trkpt>
      <trkpt lat="47.28683" lon="-1.54643">
        <ele>70</ele>
        <time>2022-04-10T10:09:18Z</time>
      </trkpt>
      <trkpt lat="47.28682" lon="-1.54645">
        <ele>70</ele>
        <time>2022-04-10T10:09:19Z</time>
      </trkpt>
      <trkpt lat="47.28681" lon="-1.54646">
        <ele>70</ele>
        <time>2022-04-10T10:09:20Z</time>
      </trkpt>
      <trkpt lat="47.28681" lon="-1.54648">
        <ele>71</ele>
        <time>2022-04-10T10:09:21Z</time>
      </trkpt>
      <trkpt lat="47.2868" lon="-1.54649">
        <ele>71</ele>
        <time>2022-04-10T10:09:22Z</time>
      </trkpt>
      <trkpt lat="47.2868" lon="-1.5465">
        <ele>71</ele>
        <time>2022-04-10T10:09:23Z</time>
      </trkpt>
      <trkpt lat="47.2868" lon="-1.5465">
        <ele>72</ele>
        <time>2022-04-10T10:09:24Z</time>
      </trkpt>
      <trkpt lat="47.2868" lon="-1.54652">
        <ele>72</ele>
        <time>2022-04-10T10:09:25Z</time>
      </trkpt>
      <trkpt lat="47.28679" lon="-1.54652">
        <ele>72</ele>
        <time>2022-04-10T10:09:26Z</time>
      </trkpt>
      <trkpt lat="47.28679" lon="-1.54652">
        <ele>72</ele>
        <time>2022-04-10T10:09:26Z</time>
      </trkpt>
      <trkpt lat="47.28678" lon="-1.54655">
        <ele>73</ele>
        <time>2022-04-10T10:09:28Z</time>
      </trkpt>
      <trkpt lat="47.28678" lon="-1.54656">
        <ele>74</ele>
        <time>2022-04-10T10:09:29Z</time>
      </trkpt>
      <trkpt lat="47.28677" lon="-1.54657">
        <ele>74</ele>
        <time>2022-04-10T10:09:30Z</time>
      </trkpt>
      <trkpt lat="47.28677" lon="-1.54659">
        <ele>75</ele>
        <time>2022-04-10T10:09:31Z</time>
      </trkpt>
      <trkpt lat="47.28676" lon="-1.5466">
        <ele>75</ele>
        <time>2022-04-10T10:09:32Z</time>
      </trkpt>
      <trkpt lat="47.28676" lon="-1.54662">
        <ele>76</ele>
        <time>2022-04-10T10:09:33Z</time>
      </trkpt>
      <trkpt lat="47.28675" lon="-1.54663">
        <ele>76</ele>
        <time>2022-04-10T10:09:34Z</time>
      </trkpt>
      <trkpt lat="47.28674" lon="-1.54665">
        <ele>76</ele>
        <time>2022-04-10T10:09:35Z</time>
      </trkpt>
      <trkpt lat="47.28674" lon="-1.54666">
        <ele>76</ele>
        <time>2022-04-10T10:09:36Z</time>
      </trkpt>
      <trkpt lat="47.28673" lon="-1.54668">
        <ele>76</ele>
        <time>2022-04-10T10:09:37Z</time>
      </trkpt>
      <trkpt lat="47.28672" lon="-1.54669">
        <ele>75</ele>
        <time>2022-04-10T10:09:38Z</time>
      </trkpt>
      <trkpt lat="47.28672" lon="-1.5467">
        <ele>75</ele>
        <time>2022-04-10T10:09:39Z</time>
      </trkpt>
      <trkpt lat="47.28672" lon="-1.54672">
        <ele>75</ele>
        <time>2022-04-10T10:09:40Z</time>
      </trkpt>
      <trkpt lat="47.28672" lon="-1.54674">
        <ele>75</ele>
        <time>2022-04-10T10:09:41Z</time>
      </trkpt>
      <trkpt lat="47.28671" lon="-1.54675">
        <ele>74</ele>
        <time>2022-04-10T10:09:42Z</time>
      </trkpt>
      <trkpt lat="47.28671" lon="-1.54676">
        <ele>74</ele>
        <time>2022-04-10T10:09:43Z</time>
      </trkpt>
      <trkpt lat="47.28671" lon="-1.54677">
        <ele>74</ele>
        <time>2022-04-10T10:09:44Z</time>
      </trkpt>
      <trkpt lat="47.28671" lon="-1.54678">
        <ele>75</ele>
        <time>2022-04-10T10:09:45Z</time>
      </trkpt>
      <trkpt lat="47.2867" lon="-1.54679">
        <ele>75</ele>
        <time>2022-04-10T10:09:46Z</time>
      </trkpt>
      <trkpt lat="47.2867" lon="-1.54681">
        <ele>76</ele>
        <time>2022-04-10T10:09:47Z</time>
      </trkpt>
      <trkpt lat="47.2867" lon="-1.54682">
        <ele>76</ele>
        <time>2022-04-10T10:09:48Z</time>
      </trkpt>
      <trkpt lat="47.28669" lon="-1.54683">
        <ele>77</ele>
        <time>2022-04-10T10:09:49Z</time>
      </trkpt>
      <trkpt lat="47.28669" lon="-1.54684">
        <ele>77</ele>
        <time>2022-04-10T10:09:50Z</time>
      </trkpt>
      <trkpt lat="47.28669" lon="-1.54685">
        <ele>77</ele>
        <time>2022-04-10T10:09:51Z</time>
      </trkpt>
      <trkpt lat="47.28668" lon="-1.54686">
        <ele>77</ele>
        <time>2022-04-10T10:09:52Z</time>
      </trkpt>
      <trkpt lat="47.28668" lon="-1.54688">
        <ele>77</ele>
        <time>2022-04-10T10:09:53Z</time>
      </trkpt>
      <trkpt lat="47.28667" lon="-1.5469">
        <ele>77</ele>
        <time>2022-04-10T10:09:54Z</time>
      </trkpt>
      <trkpt lat="47.28667" lon="-1.54692">
        <ele>78</ele>
        <time>2022-04-10T10:09:55Z</time>
      </trkpt>
      <trkpt lat="47.28667" lon="-1.54693">
        <ele>78</ele>
        <time>2022-04-10T10:09:56Z</time>
      </trkpt>
      <trkpt lat="47.28666" lon="-1.54695">
        <ele>78</ele>
        <time>2022-04-10T10:09:57Z</time>
      </trkpt>
      <trkpt lat="47.28665" lon="-1.54696">
        <ele>78</ele>
        <time>2022-04-10T10:09:58Z</time>
      </trkpt>
      <trkpt lat="47.28664" lon="-1.54698">
        <ele>78</ele>
        <time>2022-04-10T10:09:59Z</time>
      </trkpt>
      <trkpt lat="47.28664" lon="-1.54701">
        <ele>77</ele>
        <time>2022-04-10T10:10:00Z</time>
      </trkpt>
      <trkpt lat="47.28664" lon="-1.54703">
        <ele>78</ele>
        <time>2022-04-10T10:10:01Z</time>
      </trkpt>
      <trkpt lat="47.28664" lon="-1.54705">
        <ele>77</ele>
        <time>2022-04-10T10:10:02Z</time>
      </trkpt>
      <trkpt lat="47.28664" lon="-1.54707">
        <ele>78</ele>
        <time>2022-04-10T10:10:03Z</time>
      </trkpt>
      <trkpt lat="47.28664" lon="-1.54709">
        <ele>77</ele>
        <time>2022-04-10T10:10:04Z</time>
      </trkpt>
      <trkpt lat="47.28664" lon="-1.54711">
        <ele>77</ele>
        <time>2022-04-10T10:10:05Z</time>
      </trkpt>
      <trkpt lat="47.28664" lon="-1.54713">
        <ele>77</ele>
        <time>2022-04-10T10:10:06Z</time>
      </trkpt>
      <trkpt lat="47.28664" lon="-1.54715">
        <ele>77</ele>
        <time>2022-04-10T10:10:07Z</time>
      </trkpt>
      <trkpt lat="47.28663" lon="-1.54715">
        <ele>77</ele>
        <time>2022-04-10T10:10:08Z</time>
      </trkpt>
      <trkpt lat="47.28663" lon="-1.54715">
        <ele>77</ele>
        <time>2022-04-10T10:10:09Z</time>
      </trkpt>
      <trkpt lat="47.28662" lon="-1.54716">
        <ele>77</ele>
        <time>2022-04-10T10:10:10Z</time>
      </trkpt>
      <trkpt lat="47.28661" lon="-1.54716">
        <ele>77</ele>
        <time>2022-04-10T10:10:11Z</time>
      </trkpt>
      <trkpt lat="47.2866" lon="-1.54717">
        <ele>77</ele>
        <time>2022-04-10T10:10:12Z</time>
      </trkpt>
      <trkpt lat="47.28659" lon="-1.54717">
        <ele>77</ele>
        <time>2022-04-10T10:10:13Z</time>
      </trkpt>
      <trkpt lat="47.28658" lon="-1.54717">
        <ele>77</ele>
        <time>2022-04-10T10:10:14Z</time>
      </trkpt>
      <trkpt lat="47.28657" lon="-1.54717">
        <ele>77</ele>
        <time>2022-04-10T10:10:15Z</time>
      </trkpt>
      <trkpt lat="47.28656" lon="-1.54717">
        <ele>78</ele>
        <time>2022-04-10T10:10:16Z</time>
      </trkpt>
      <trkpt lat="47.28655" lon="-1.54717">
        <ele>78</ele>
        <time>2022-04-10T10:10:17Z</time>
      </trkpt>
      <trkpt lat="47.28653" lon="-1.54717">
        <ele>78</ele>
        <time>2022-04-10T10:10:18Z</time>
      </trkpt>
      <trkpt lat="47.28653" lon="-1.54717">
        <ele>79</ele>
        <time>2022-04-10T10:10:19Z</time>
      </trkpt>
      <trkpt lat="47.28651" lon="-1.54717">
        <ele>79</ele>
        <time>2022-04-10T10:10:20Z</time>
      </trkpt>
      <trkpt lat="47.2865" lon="-1.54717">
        <ele>78</ele>
        <time>2022-04-10T10:10:21Z</time>
      </trkpt>
      <trkpt lat="47.28649" lon="-1.54716">
        <ele>78</ele>
        <time>2022-04-10T10:10:22Z</time>
      </trkpt>
      <trkpt lat="47.28648" lon="-1.54716">
        <ele>78</ele>
        <time>2022-04-10T10:10:23Z</time>
      </trkpt>
      <trkpt lat="47.28648" lon="-1.54715">
        <ele>77</ele>
        <time>2022-04-10T10:10:24Z</time>
      </trkpt>
      <trkpt lat="47.28647" lon="-1.54715">
        <ele>77</ele>
        <time>2022-04-10T10:10:25Z</time>
      </trkpt>
      <trkpt lat="47.28647" lon="-1.54714">
        <ele>77</ele>
        <time>2022-04-10T10:10:26Z</time>
      </trkpt>
      <trkpt lat="47.28645" lon="-1.54714">
        <ele>77</ele>
        <time>2022-04-10T10:10:27Z</time>
      </trkpt>
      <trkpt lat="47.28645" lon="-1.54714">
        <ele>77</ele>
        <time>2022-04-10T10:10:28Z</time>
      </trkpt>
      <trkpt lat="47.28643" lon="-1.54713">
        <ele>77</ele>
        <time>2022-04-10T10:10:29Z</time>
      </trkpt>
      <trkpt lat="47.28642" lon="-1.54713">
        <ele>77</ele>
        <time>2022-04-10T10:10:30Z</time>
      </trkpt>
      <trkpt lat="47.28641" lon="-1.54712">
        <ele>76</ele>
        <time>2022-04-10T10:10:31Z</time>
      </trkpt>
      <trkpt lat="47.2864" lon="-1.54712">
        <ele>76</ele>
        <time>2022-04-10T10:10:32Z</time>
      </trkpt>
      <trkpt lat="47.28639" lon="-1.54711">
        <ele>76</ele>
        <time>2022-04-10T10:10:33Z</time>
      </trkpt>
      <trkpt lat="47.28637" lon="-1.5471">
        <ele>76</ele>
        <time>2022-04-10T10:10:34Z</time>
      </trkpt>
      <trkpt lat="47.28636" lon="-1.54709">
        <ele>77</ele>
        <time>2022-04-10T10:10:35Z</time>
      </trkpt>
      <trkpt lat="47.28635" lon="-1.54709">
        <ele>76</ele>
        <time>2022-04-10T10:10:36Z</time>
      </trkpt>
      <trkpt lat="47.28634" lon="-1.5471">
        <ele>76</ele>
        <time>2022-04-10T10:10:37Z</time>
      </trkpt>
      <trkpt lat="47.28633" lon="-1.5471">
        <ele>76</ele>
        <time>2022-04-10T10:10:38Z</time>
      </trkpt>
      <trkpt lat="47.28632" lon="-1.5471">
        <ele>76</ele>
        <time>2022-04-10T10:10:39Z</time>
      </trkpt>
      <trkpt lat="47.28631" lon="-1.54711">
        <ele>76</ele>
        <time>2022-04-10T10:10:40Z</time>
      </trkpt>
      <trkpt lat="47.2863" lon="-1.54711">
        <ele>77</ele>
        <time>2022-04-10T10:10:41Z</time>
      </trkpt>
      <trkpt lat="47.28629" lon="-1.54712">
        <ele>77</ele>
        <time>2022-04-10T10:10:42Z</time>
      </trkpt>
      <trkpt lat="47.28628" lon="-1.54712">
        <ele>76</ele>
        <time>2022-04-10T10:10:43Z</time>
      </trkpt>
      <trkpt lat="47.28627" lon="-1.54712">
        <ele>76</ele>
        <time>2022-04-10T10:10:44Z</time>
      </trkpt>
      <trkpt lat="47.28627" lon="-1.54712">
        <ele>76</ele>
        <time>2022-04-10T10:10:45Z</time>
      </trkpt>
      <trkpt lat="47.28627" lon="-1.54712">
        <ele>76</ele>
        <time>2022-04-10T10:10:46Z</time>
      </trkpt>
      <trkpt lat="47.28625" lon="-1.54712">
        <ele>75</ele>
        <time>2022-04-10T10:10:47Z</time>
      </trkpt>
      <trkpt lat="47.28623" lon="-1.54711">
        <ele>75</ele>
        <time>2022-04-10T10:10:48Z</time>
      </trkpt>
      <trkpt lat="47.28622" lon="-1.5471">
        <ele>76</ele>
        <time>2022-04-10T10:10:49Z</time>
      </trkpt>
      <trkpt lat="47.28621" lon="-1.54709">
        <ele>76</ele>
        <time>2022-04-10T10:10:50Z</time>
      </trkpt>
      <trkpt lat="47.28619" lon="-1.54708">
        <ele>76</ele>
        <time>2022-04-10T10:10:51Z</time>
      </trkpt>
      <trkpt lat="47.28618" lon="-1.54708">
        <ele>76</ele>
        <time>2022-04-10T10:10:52Z</time>
      </trkpt>
      <trkpt lat="47.28616" lon="-1.54707">
        <ele>75</ele>
        <time>2022-04-10T10:10:53Z</time>
      </trkpt>
      <trkpt lat="47.28615" lon="-1.54705">
        <ele>75</ele>
        <time>2022-04-10T10:10:54Z</time>
      </trkpt>
      <trkpt lat="47.28614" lon="-1.54704">
        <ele>75</ele>
        <time>2022-04-10T10:10:55Z</time>
      </trkpt>
      <trkpt lat="47.28614" lon="-1.54703">
        <ele>75</ele>
        <time>2022-04-10T10:10:56Z</time>
      </trkpt>
      <trkpt lat="47.28613" lon="-1.54702">
        <ele>75</ele>
        <time>2022-04-10T10:10:57Z</time>
      </trkpt>
      <trkpt lat="47.28613" lon="-1.54701">
        <ele>76</ele>
        <time>2022-04-10T10:10:58Z</time>
      </trkpt>
      <trkpt lat="47.28612" lon="-1.54699">
        <ele>76</ele>
        <time>2022-04-10T10:10:59Z</time>
      </trkpt>
      <trkpt lat="47.28611" lon="-1.54699">
        <ele>77</ele>
        <time>2022-04-10T10:11:00Z</time>
      </trkpt>
      <trkpt lat="47.2861" lon="-1.54698">
        <ele>78</ele>
        <time>2022-04-10T10:11:01Z</time>
      </trkpt>
      <trkpt lat="47.2861" lon="-1.54697">
        <ele>78</ele>
        <time>2022-04-10T10:11:02Z</time>
      </trkpt>
      <trkpt lat="47.28608" lon="-1.54696">
        <ele>78</ele>
        <time>2022-04-10T10:11:03Z</time>
      </trkpt>
      <trkpt lat="47.28608" lon="-1.54695">
        <ele>78</ele>
        <time>2022-04-10T10:11:04Z</time>
      </trkpt>
      <trkpt lat="47.28607" lon="-1.54694">
        <ele>79</ele>
        <time>2022-04-10T10:11:05Z</time>
      </trkpt>
      <trkpt lat="47.28606" lon="-1.54693">
        <ele>79</ele>
        <time>2022-04-10T10:11:06Z</time>
      </trkpt>
      <trkpt lat="47.28606" lon="-1.54693">
        <ele>80</ele>
        <time>2022-04-10T10:11:07Z</time>
      </trkpt>
      <trkpt lat="47.28605" lon="-1.54691">
        <ele>81</ele>
        <time>2022-04-10T10:11:08Z</time>
      </trkpt>
      <trkpt lat="47.28604" lon="-1.5469">
        <ele>81</ele>
        <time>2022-04-10T10:11:09Z</time>
      </trkpt>
      <trkpt lat="47.28603" lon="-1.54689">
        <ele>81</ele>
        <time>2022-04-10T10:11:10Z</time>
      </trkpt>
      <trkpt lat="47.28602" lon="-1.54688">
        <ele>82</ele>
        <time>2022-04-10T10:11:11Z</time>
      </trkpt>
      <trkpt lat="47.28602" lon="-1.54688">
        <ele>82</ele>
        <time>2022-04-10T10:11:12Z</time>
      </trkpt>
      <trkpt lat="47.28602" lon="-1.54688">
        <ele>82</ele>
        <time>2022-04-10T10:11:13Z</time>
      </trkpt>
      <trkpt lat="47.28602" lon="-1.54688">
        <ele>82</ele>
        <time>2022-04-10T10:11:14Z</time>
      </trkpt>
      <trkpt lat="47.28599" lon="-1.54685">
        <ele>81</ele>
        <time>2022-04-10T10:11:15Z</time>
      </trkpt>
      <trkpt lat="47.28598" lon="-1.54684">
        <ele>81</ele>
        <time>2022-04-10T10:11:16Z</time>
      </trkpt>
      <trkpt lat="47.28597" lon="-1.54683">
        <ele>81</ele>
        <time>2022-04-10T10:11:17Z</time>
      </trkpt>
      <trkpt lat="47.28595" lon="-1.54683">
        <ele>81</ele>
        <time>2022-04-10T10:11:18Z</time>
      </trkpt>
      <trkpt lat="47.28593" lon="-1.54683">
        <ele>80</ele>
        <time>2022-04-10T10:11:19Z</time>
      </trkpt>
      <trkpt lat="47.28593" lon="-1.54683">
        <ele>80</ele>
        <time>2022-04-10T10:11:20Z</time>
      </trkpt>
      <trkpt lat="47.28592" lon="-1.54683">
        <ele>80</ele>
        <time>2022-04-10T10:11:21Z</time>
      </trkpt>
      <trkpt lat="47.28591" lon="-1.54683">
        <ele>80</ele>
        <time>2022-04-10T10:11:22Z</time>
      </trkpt>
      <trkpt lat="47.2859" lon="-1.54683">
        <ele>79</ele>
        <time>2022-04-10T10:11:23Z</time>
      </trkpt>
      <trkpt lat="47.2859" lon="-1.54683">
        <ele>79</ele>
        <time>2022-04-10T10:11:24Z</time>
      </trkpt>
      <trkpt lat="47.28588" lon="-1.54682">
        <ele>78</ele>
        <time>2022-04-10T10:11:25Z</time>
      </trkpt>
      <trkpt lat="47.28587" lon="-1.54682">
        <ele>77</ele>
        <time>2022-04-10T10:11:26Z</time>
      </trkpt>
      <trkpt lat="47.28587" lon="-1.54681">
        <ele>77</ele>
        <time>2022-04-10T10:11:27Z</time>
      </trkpt>
      <trkpt lat="47.28586" lon="-1.54681">
        <ele>76</ele>
        <time>2022-04-10T10:11:28Z</time>
      </trkpt>
      <trkpt lat="47.28586" lon="-1.54681">
        <ele>76</ele>
        <time>2022-04-10T10:11:28Z</time>
      </trkpt>
      <trkpt lat="47.28582" lon="-1.54682">
        <ele>76</ele>
        <time>2022-04-10T10:11:56Z</time>
      </trkpt>
      <trkpt lat="47.28581" lon="-1.54682">
        <ele>76</ele>
        <time>2022-04-10T10:11:57Z</time>
      </trkpt>
      <trkpt lat="47.2858" lon="-1.54681">
        <ele>76</ele>
        <time>2022-04-10T10:11:58Z</time>
      </trkpt>
      <trkpt lat="47.2858" lon="-1.54681">
        <ele>76</ele>
        <time>2022-04-10T10:11:59Z</time>
      </trkpt>
      <trkpt lat="47.28579" lon="-1.54681">
        <ele>76</ele>
        <time>2022-04-10T10:12:00Z</time>
      </trkpt>
      <trkpt lat="47.28579" lon="-1.54681">
        <ele>76</ele>
        <time>2022-04-10T10:12:01Z</time>
      </trkpt>
      <trkpt lat="47.28578" lon="-1.54681">
        <ele>75</ele>
        <time>2022-04-10T10:12:02Z</time>
      </trkpt>
      <trkpt lat="47.28578" lon="-1.54681">
        <ele>75</ele>
        <time>2022-04-10T10:12:03Z</time>
      </trkpt>
      <trkpt lat="47.28578" lon="-1.54681">
        <ele>75</ele>
        <time>2022-04-10T10:12:04Z</time>
      </trkpt>
      <trkpt lat="47.28577" lon="-1.5468">
        <ele>75</ele>
        <time>2022-04-10T10:12:05Z</time>
      </trkpt>
      <trkpt lat="47.28576" lon="-1.54679">
        <ele>75</ele>
        <time>2022-04-10T10:12:06Z</time>
      </trkpt>
      <trkpt lat="47.28575" lon="-1.54679">
        <ele>74</ele>
        <time>2022-04-10T10:12:07Z</time>
      </trkpt>
      <trkpt lat="47.28574" lon="-1.54679">
        <ele>74</ele>
        <time>2022-04-10T10:12:08Z</time>
      </trkpt>
      <trkpt lat="47.28574" lon="-1.54679">
        <ele>74</ele>
        <time>2022-04-10T10:12:09Z</time>
      </trkpt>
      <trkpt lat="47.28573" lon="-1.54678">
        <ele>74</ele>
        <time>2022-04-10T10:12:10Z</time>
      </trkpt>
      <trkpt lat="47.28573" lon="-1.54678">
        <ele>74</ele>
        <time>2022-04-10T10:12:11Z</time>
      </trkpt>
      <trkpt lat="47.28573" lon="-1.54678">
        <ele>74</ele>
        <time>2022-04-10T10:12:12Z</time>
      </trkpt>
      <trkpt lat="47.28571" lon="-1.54677">
        <ele>73</ele>
        <time>2022-04-10T10:12:13Z</time>
      </trkpt>
      <trkpt lat="47.2857" lon="-1.54676">
        <ele>73</ele>
        <time>2022-04-10T10:12:14Z</time>
      </trkpt>
      <trkpt lat="47.28569" lon="-1.54675">
        <ele>73</ele>
        <time>2022-04-10T10:12:15Z</time>
      </trkpt>
      <trkpt lat="47.28568" lon="-1.54674">
        <ele>73</ele>
        <time>2022-04-10T10:12:16Z</time>
      </trkpt>
      <trkpt lat="47.28568" lon="-1.54673">
        <ele>73</ele>
        <time>2022-04-10T10:12:17Z</time>
      </trkpt>
      <trkpt lat="47.28567" lon="-1.54672">
        <ele>73</ele>
        <time>2022-04-10T10:12:18Z</time>
      </trkpt>
      <trkpt lat="47.28566" lon="-1.54671">
        <ele>73</ele>
        <time>2022-04-10T10:12:19Z</time>
      </trkpt>
      <trkpt lat="47.28565" lon="-1.5467">
        <ele>73</ele>
        <time>2022-04-10T10:12:20Z</time>
      </trkpt>
      <trkpt lat="47.28565" lon="-1.54669">
        <ele>74</ele>
        <time>2022-04-10T10:12:21Z</time>
      </trkpt>
      <trkpt lat="47.28563" lon="-1.54668">
        <ele>74</ele>
        <time>2022-04-10T10:12:22Z</time>
      </trkpt>
      <trkpt lat="47.28563" lon="-1.54667">
        <ele>74</ele>
        <time>2022-04-10T10:12:23Z</time>
      </trkpt>
      <trkpt lat="47.28563" lon="-1.54667">
        <ele>74</ele>
        <time>2022-04-10T10:12:24Z</time>
      </trkpt>
      <trkpt lat="47.28563" lon="-1.54667">
        <ele>74</ele>
        <time>2022-04-10T10:12:25Z</time>
      </trkpt>
      <trkpt lat="47.28562" lon="-1.54666">
        <ele>75</ele>
        <time>2022-04-10T10:12:26Z</time>
      </trkpt>
      <trkpt lat="47.28562" lon="-1.54666">
        <ele>75</ele>
        <time>2022-04-10T10:12:27Z</time>
      </trkpt>
      <trkpt lat="47.28562" lon="-1.54666">
        <ele>75</ele>
        <time>2022-04-10T10:12:28Z</time>
      </trkpt>
      <trkpt lat="47.28561" lon="-1.54664">
        <ele>77</ele>
        <time>2022-04-10T10:12:29Z</time>
      </trkpt>
      <trkpt lat="47.2856" lon="-1.54663">
        <ele>76</ele>
        <time>2022-04-10T10:12:30Z</time>
      </trkpt>
      <trkpt lat="47.2856" lon="-1.54663">
        <ele>76</ele>
        <time>2022-04-10T10:12:31Z</time>
      </trkpt>
      <trkpt lat="47.28558" lon="-1.54662">
        <ele>76</ele>
        <time>2022-04-10T10:12:32Z</time>
      </trkpt>
      <trkpt lat="47.28558" lon="-1.54662">
        <ele>76</ele>
        <time>2022-04-10T10:12:33Z</time>
      </trkpt>
      <trkpt lat="47.28557" lon="-1.54662">
        <ele>76</ele>
        <time>2022-04-10T10:12:34Z</time>
      </trkpt>
      <trkpt lat="47.28556" lon="-1.5466">
        <ele>76</ele>
        <time>2022-04-10T10:12:35Z</time>
      </trkpt>
      <trkpt lat="47.28556" lon="-1.54659">
        <ele>76</ele>
        <time>2022-04-10T10:12:36Z</time>
      </trkpt>
      <trkpt lat="47.28555" lon="-1.54659">
        <ele>76</ele>
        <time>2022-04-10T10:12:37Z</time>
      </trkpt>
      <trkpt lat="47.28555" lon="-1.54657">
        <ele>76</ele>
        <time>2022-04-10T10:12:38Z</time>
      </trkpt>
      <trkpt lat="47.28554" lon="-1.54657">
        <ele>76</ele>
        <time>2022-04-10T10:12:39Z</time>
      </trkpt>
      <trkpt lat="47.28553" lon="-1.54656">
        <ele>77</ele>
        <time>2022-04-10T10:12:40Z</time>
      </trkpt>
      <trkpt lat="47.28552" lon="-1.54655">
        <ele>76</ele>
        <time>2022-04-10T10:12:41Z</time>
      </trkpt>
      <trkpt lat="47.28551" lon="-1.54654">
        <ele>76</ele>
        <time>2022-04-10T10:12:42Z</time>
      </trkpt>
      <trkpt lat="47.2855" lon="-1.54653">
        <ele>76</ele>
        <time>2022-04-10T10:12:43Z</time>
      </trkpt>
      <trkpt lat="47.28549" lon="-1.54652">
        <ele>76</ele>
        <time>2022-04-10T10:12:44Z</time>
      </trkpt>
      <trkpt lat="47.28548" lon="-1.54651">
        <ele>76</ele>
        <time>2022-04-10T10:12:45Z</time>
      </trkpt>
      <trkpt lat="47.28547" lon="-1.54651">
        <ele>77</ele>
        <time>2022-04-10T10:12:46Z</time>
      </trkpt>
      <trkpt lat="47.28546" lon="-1.5465">
        <ele>78</ele>
        <time>2022-04-10T10:12:47Z</time>
      </trkpt>
      <trkpt lat="47.28545" lon="-1.5465">
        <ele>78</ele>
        <time>2022-04-10T10:12:48Z</time>
      </trkpt>
      <trkpt lat="47.28544" lon="-1.54649">
        <ele>78</ele>
        <time>2022-04-10T10:12:49Z</time>
      </trkpt>
      <trkpt lat="47.28542" lon="-1.54648">
        <ele>78</ele>
        <time>2022-04-10T10:12:50Z</time>
      </trkpt>
      <trkpt lat="47.28542" lon="-1.54647">
        <ele>78</ele>
        <time>2022-04-10T10:12:51Z</time>
      </trkpt>
      <trkpt lat="47.28542" lon="-1.54647">
        <ele>78</ele>
        <time>2022-04-10T10:12:52Z</time>
      </trkpt>
      <trkpt lat="47.28541" lon="-1.54646">
        <ele>78</ele>
        <time>2022-04-10T10:12:53Z</time>
      </trkpt>
      <trkpt lat="47.2854" lon="-1.54645">
        <ele>78</ele>
        <time>2022-04-10T10:12:54Z</time>
      </trkpt>
      <trkpt lat="47.28539" lon="-1.54644">
        <ele>77</ele>
        <time>2022-04-10T10:12:55Z</time>
      </trkpt>
      <trkpt lat="47.28539" lon="-1.54644">
        <ele>78</ele>
        <time>2022-04-10T10:12:56Z</time>
      </trkpt>
      <trkpt lat="47.28537" lon="-1.54643">
        <ele>78</ele>
        <time>2022-04-10T10:12:57Z</time>
      </trkpt>
      <trkpt lat="47.28536" lon="-1.54642">
        <ele>78</ele>
        <time>2022-04-10T10:12:58Z</time>
      </trkpt>
      <trkpt lat="47.28535" lon="-1.54641">
        <ele>78</ele>
        <time>2022-04-10T10:12:59Z</time>
      </trkpt>
      <trkpt lat="47.28534" lon="-1.5464">
        <ele>78</ele>
        <time>2022-04-10T10:13:00Z</time>
      </trkpt>
      <trkpt lat="47.28532" lon="-1.5464">
        <ele>78</ele>
        <time>2022-04-10T10:13:01Z</time>
      </trkpt>
      <trkpt lat="47.28531" lon="-1.54639">
        <ele>78</ele>
        <time>2022-04-10T10:13:02Z</time>
      </trkpt>
      <trkpt lat="47.2853" lon="-1.54639">
        <ele>79</ele>
        <time>2022-04-10T10:13:03Z</time>
      </trkpt>
      <trkpt lat="47.28529" lon="-1.54638">
        <ele>78</ele>
        <time>2022-04-10T10:13:04Z</time>
      </trkpt>
      <trkpt lat="47.28528" lon="-1.54637">
        <ele>79</ele>
        <time>2022-04-10T10:13:05Z</time>
      </trkpt>
      <trkpt lat="47.28527" lon="-1.54636">
        <ele>78</ele>
        <time>2022-04-10T10:13:06Z</time>
      </trkpt>
      <trkpt lat="47.28527" lon="-1.54636">
        <ele>78</ele>
        <time>2022-04-10T10:13:07Z</time>
      </trkpt>
      <trkpt lat="47.28527" lon="-1.54636">
        <ele>78</ele>
        <time>2022-04-10T10:13:08Z</time>
      </trkpt>
      <trkpt lat="47.28526" lon="-1.54636">
        <ele>78</ele>
        <time>2022-04-10T10:13:09Z</time>
      </trkpt>
      <trkpt lat="47.28526" lon="-1.54636">
        <ele>78</ele>
        <time>2022-04-10T10:13:10Z</time>
      </trkpt>
      <trkpt lat="47.28526" lon="-1.54636">
        <ele>78</ele>
        <time>2022-04-10T10:13:11Z</time>
      </trkpt>
      <trkpt lat="47.28524" lon="-1.54634">
        <ele>78</ele>
        <time>2022-04-10T10:13:12Z</time>
      </trkpt>
      <trkpt lat="47.28523" lon="-1.54633">
        <ele>79</ele>
        <time>2022-04-10T10:13:13Z</time>
      </trkpt>
      <trkpt lat="47.28522" lon="-1.54632">
        <ele>78</ele>
        <time>2022-04-10T10:13:14Z</time>
      </trkpt>
      <trkpt lat="47.28521" lon="-1.54631">
        <ele>78</ele>
        <time>2022-04-10T10:13:15Z</time>
      </trkpt>
      <trkpt lat="47.2852" lon="-1.54631">
        <ele>79</ele>
        <time>2022-04-10T10:13:16Z</time>
      </trkpt>
      <trkpt lat="47.28518" lon="-1.5463">
        <ele>79</ele>
        <time>2022-04-10T10:13:17Z</time>
      </trkpt>
      <trkpt lat="47.28518" lon="-1.54629">
        <ele>79</ele>
        <time>2022-04-10T10:13:18Z</time>
      </trkpt>
      <trkpt lat="47.28517" lon="-1.54628">
        <ele>79</ele>
        <time>2022-04-10T10:13:19Z</time>
      </trkpt>
      <trkpt lat="47.28516" lon="-1.54627">
        <ele>79</ele>
        <time>2022-04-10T10:13:20Z</time>
      </trkpt>
      <trkpt lat="47.28515" lon="-1.54625">
        <ele>78</ele>
        <time>2022-04-10T10:13:21Z</time>
      </trkpt>
      <trkpt lat="47.28514" lon="-1.54624">
        <ele>79</ele>
        <time>2022-04-10T10:13:22Z</time>
      </trkpt>
      <trkpt lat="47.28513" lon="-1.54624">
        <ele>78</ele>
        <time>2022-04-10T10:13:23Z</time>
      </trkpt>
      <trkpt lat="47.28511" lon="-1.54623">
        <ele>79</ele>
        <time>2022-04-10T10:13:24Z</time>
      </trkpt>
      <trkpt lat="47.2851" lon="-1.54622">
        <ele>79</ele>
        <time>2022-04-10T10:13:25Z</time>
      </trkpt>
      <trkpt lat="47.28509" lon="-1.54622">
        <ele>78</ele>
        <time>2022-04-10T10:13:26Z</time>
      </trkpt>
      <trkpt lat="47.28508" lon="-1.54621">
        <ele>77</ele>
        <time>2022-04-10T10:13:27Z</time>
      </trkpt>
      <trkpt lat="47.28507" lon="-1.5462">
        <ele>77</ele>
        <time>2022-04-10T10:13:28Z</time>
      </trkpt>
      <trkpt lat="47.28507" lon="-1.5462">
        <ele>77</ele>
        <time>2022-04-10T10:13:29Z</time>
      </trkpt>
      <trkpt lat="47.28506" lon="-1.54619">
        <ele>77</ele>
        <time>2022-04-10T10:13:30Z</time>
      </trkpt>
      <trkpt lat="47.28505" lon="-1.54618">
        <ele>77</ele>
        <time>2022-04-10T10:13:31Z</time>
      </trkpt>
      <trkpt lat="47.28503" lon="-1.54617">
        <ele>77</ele>
        <time>2022-04-10T10:13:32Z</time>
      </trkpt>
      <trkpt lat="47.28502" lon="-1.54616">
        <ele>77</ele>
        <time>2022-04-10T10:13:33Z</time>
      </trkpt>
      <trkpt lat="47.28501" lon="-1.54616">
        <ele>77</ele>
        <time>2022-04-10T10:13:34Z</time>
      </trkpt>
      <trkpt lat="47.285" lon="-1.54615">
        <ele>77</ele>
        <time>2022-04-10T10:13:35Z</time>
      </trkpt>
      <trkpt lat="47.28499" lon="-1.54614">
        <ele>77</ele>
        <time>2022-04-10T10:13:36Z</time>
      </trkpt>
      <trkpt lat="47.28499" lon="-1.54613">
        <ele>77</ele>
        <time>2022-04-10T10:13:37Z</time>
      </trkpt>
      <trkpt lat="47.28498" lon="-1.54612">
        <ele>77</ele>
        <time>2022-04-10T10:13:38Z</time>
      </trkpt>
      <trkpt lat="47.28497" lon="-1.54611">
        <ele>77</ele>
        <time>2022-04-10T10:13:39Z</time>
      </trkpt>
      <trkpt lat="47.28496" lon="-1.5461">
        <ele>77</ele>
        <time>2022-04-10T10:13:40Z</time>
      </trkpt>
      <trkpt lat="47.28495" lon="-1.54609">
        <ele>77</ele>
        <time>2022-04-10T10:13:41Z</time>
      </trkpt>
      <trkpt lat="47.28494" lon="-1.54608">
        <ele>77</ele>
        <time>2022-04-10T10:13:42Z</time>
      </trkpt>
      <trkpt lat="47.28493" lon="-1.54607">
        <ele>77</ele>
        <time>2022-04-10T10:13:43Z</time>
      </trkpt>
      <trkpt lat="47.28492" lon="-1.54606">
        <ele>77</ele>
        <time>2022-04-10T10:13:44Z</time>
      </trkpt>
      <trkpt lat="47.28491" lon="-1.54605">
        <ele>77</ele>
        <time>2022-04-10T10:13:45Z</time>
      </trkpt>
      <trkpt lat="47.2849" lon="-1.54605">
        <ele>77</ele>
        <time>2022-04-10T10:13:46Z</time>
      </trkpt>
      <trkpt lat="47.28489" lon="-1.54604">
        <ele>77</ele>
        <time>2022-04-10T10:13:47Z</time>
      </trkpt>
      <trkpt lat="47.28489" lon="-1.54603">
        <ele>77</ele>
        <time>2022-04-10T10:13:48Z</time>
      </trkpt>
      <trkpt lat="47.28487" lon="-1.54602">
        <ele>76</ele>
        <time>2022-04-10T10:13:49Z</time>
      </trkpt>
      <trkpt lat="47.28487" lon="-1.54602">
        <ele>76</ele>
        <time>2022-04-10T10:13:50Z</time>
      </trkpt>
      <trkpt lat="47.28486" lon="-1.54602">
        <ele>76</ele>
        <time>2022-04-10T10:13:51Z</time>
      </trkpt>
      <trkpt lat="47.28485" lon="-1.54601">
        <ele>76</ele>
        <time>2022-04-10T10:13:52Z</time>
      </trkpt>
      <trkpt lat="47.28485" lon="-1.54601">
        <ele>76</ele>
        <time>2022-04-10T10:13:53Z</time>
      </trkpt>
      <trkpt lat="47.28483" lon="-1.546">
        <ele>76</ele>
        <time>2022-04-10T10:13:54Z</time>
      </trkpt>
      <trkpt lat="47.28482" lon="-1.546">
        <ele>76</ele>
        <time>2022-04-10T10:13:55Z</time>
      </trkpt>
      <trkpt lat="47.28481" lon="-1.546">
        <ele>76</ele>
        <time>2022-04-10T10:13:56Z</time>
      </trkpt>
      <trkpt lat="47.2848" lon="-1.54599">
        <ele>77</ele>
        <time>2022-04-10T10:13:57Z</time>
      </trkpt>
      <trkpt lat="47.2848" lon="-1.54599">
        <ele>77</ele>
        <time>2022-04-10T10:13:58Z</time>
      </trkpt>
      <trkpt lat="47.28479" lon="-1.54598">
        <ele>78</ele>
        <time>2022-04-10T10:13:59Z</time>
      </trkpt>
      <trkpt lat="47.28478" lon="-1.54597">
        <ele>78</ele>
        <time>2022-04-10T10:14:00Z</time>
      </trkpt>
      <trkpt lat="47.28477" lon="-1.54596">
        <ele>78</ele>
        <time>2022-04-10T10:14:01Z</time>
      </trkpt>
      <trkpt lat="47.28476" lon="-1.54594">
        <ele>78</ele>
        <time>2022-04-10T10:14:02Z</time>
      </trkpt>
      <trkpt lat="47.28475" lon="-1.54593">
        <ele>78</ele>
        <time>2022-04-10T10:14:03Z</time>
      </trkpt>
      <trkpt lat="47.28474" lon="-1.54592">
        <ele>77</ele>
        <time>2022-04-10T10:14:04Z</time>
      </trkpt>
      <trkpt lat="47.28473" lon="-1.54591">
        <ele>77</ele>
        <time>2022-04-10T10:14:05Z</time>
      </trkpt>
      <trkpt lat="47.28472" lon="-1.54591">
        <ele>77</ele>
        <time>2022-04-10T10:14:06Z</time>
      </trkpt>
      <trkpt lat="47.28471" lon="-1.5459">
        <ele>77</ele>
        <time>2022-04-10T10:14:07Z</time>
      </trkpt>
      <trkpt lat="47.2847" lon="-1.54589">
        <ele>77</ele>
        <time>2022-04-10T10:14:08Z</time>
      </trkpt>
      <trkpt lat="47.28469" lon="-1.54588">
        <ele>77</ele>
        <time>2022-04-10T10:14:09Z</time>
      </trkpt>
      <trkpt lat="47.28468" lon="-1.54587">
        <ele>76</ele>
        <time>2022-04-10T10:14:10Z</time>
      </trkpt>
      <trkpt lat="47.28467" lon="-1.54586">
        <ele>76</ele>
        <time>2022-04-10T10:14:11Z</time>
      </trkpt>
      <trkpt lat="47.28466" lon="-1.54585">
        <ele>76</ele>
        <time>2022-04-10T10:14:12Z</time>
      </trkpt>
      <trkpt lat="47.28465" lon="-1.54584">
        <ele>76</ele>
        <time>2022-04-10T10:14:13Z</time>
      </trkpt>
      <trkpt lat="47.28463" lon="-1.54583">
        <ele>76</ele>
        <time>2022-04-10T10:14:14Z</time>
      </trkpt>
      <trkpt lat="47.28462" lon="-1.54583">
        <ele>75</ele>
        <time>2022-04-10T10:14:15Z</time>
      </trkpt>
      <trkpt lat="47.28462" lon="-1.54582">
        <ele>75</ele>
        <time>2022-04-10T10:14:16Z</time>
      </trkpt>
      <trkpt lat="47.28461" lon="-1.54582">
        <ele>76</ele>
        <time>2022-04-10T10:14:17Z</time>
      </trkpt>
      <trkpt lat="47.2846" lon="-1.54582">
        <ele>76</ele>
        <time>2022-04-10T10:14:18Z</time>
      </trkpt>
      <trkpt lat="47.28459" lon="-1.54581">
        <ele>77</ele>
        <time>2022-04-10T10:14:19Z</time>
      </trkpt>
      <trkpt lat="47.28457" lon="-1.5458">
        <ele>77</ele>
        <time>2022-04-10T10:14:20Z</time>
      </trkpt>
      <trkpt lat="47.28456" lon="-1.54579">
        <ele>77</ele>
        <time>2022-04-10T10:14:21Z</time>
      </trkpt>
      <trkpt lat="47.28455" lon="-1.54578">
        <ele>77</ele>
        <time>2022-04-10T10:14:22Z</time>
      </trkpt>
      <trkpt lat="47.28454" lon="-1.54577">
        <ele>77</ele>
        <time>2022-04-10T10:14:23Z</time>
      </trkpt>
      <trkpt lat="47.28453" lon="-1.54576">
        <ele>77</ele>
        <time>2022-04-10T10:14:24Z</time>
      </trkpt>
      <trkpt lat="47.28452" lon="-1.54575">
        <ele>77</ele>
        <time>2022-04-10T10:14:25Z</time>
      </trkpt>
      <trkpt lat="47.28451" lon="-1.54575">
        <ele>77</ele>
        <time>2022-04-10T10:14:26Z</time>
      </trkpt>
      <trkpt lat="47.2845" lon="-1.54574">
        <ele>77</ele>
        <time>2022-04-10T10:14:27Z</time>
      </trkpt>
      <trkpt lat="47.2845" lon="-1.54573">
        <ele>77</ele>
        <time>2022-04-10T10:14:28Z</time>
      </trkpt>
      <trkpt lat="47.28449" lon="-1.54573">
        <ele>76</ele>
        <time>2022-04-10T10:14:29Z</time>
      </trkpt>
      <trkpt lat="47.28449" lon="-1.54572">
        <ele>76</ele>
        <time>2022-04-10T10:14:30Z</time>
      </trkpt>
      <trkpt lat="47.28448" lon="-1.54571">
        <ele>76</ele>
        <time>2022-04-10T10:14:31Z</time>
      </trkpt>
      <trkpt lat="47.28447" lon="-1.5457">
        <ele>76</ele>
        <time>2022-04-10T10:14:32Z</time>
      </trkpt>
      <trkpt lat="47.28445" lon="-1.54569">
        <ele>76</ele>
        <time>2022-04-10T10:14:33Z</time>
      </trkpt>
      <trkpt lat="47.28444" lon="-1.54568">
        <ele>76</ele>
        <time>2022-04-10T10:14:34Z</time>
      </trkpt>
      <trkpt lat="47.28443" lon="-1.54568">
        <ele>76</ele>
        <time>2022-04-10T10:14:35Z</time>
      </trkpt>
      <trkpt lat="47.28442" lon="-1.54567">
        <ele>76</ele>
        <time>2022-04-10T10:14:36Z</time>
      </trkpt>
      <trkpt lat="47.28442" lon="-1.54566">
        <ele>76</ele>
        <time>2022-04-10T10:14:37Z</time>
      </trkpt>
      <trkpt lat="47.28441" lon="-1.54565">
        <ele>77</ele>
        <time>2022-04-10T10:14:38Z</time>
      </trkpt>
      <trkpt lat="47.2844" lon="-1.54565">
        <ele>77</ele>
        <time>2022-04-10T10:14:39Z</time>
      </trkpt>
      <trkpt lat="47.28439" lon="-1.54564">
        <ele>78</ele>
        <time>2022-04-10T10:14:40Z</time>
      </trkpt>
      <trkpt lat="47.28438" lon="-1.54563">
        <ele>78</ele>
        <time>2022-04-10T10:14:41Z</time>
      </trkpt>
      <trkpt lat="47.28437" lon="-1.54563">
        <ele>78</ele>
        <time>2022-04-10T10:14:42Z</time>
      </trkpt>
      <trkpt lat="47.28436" lon="-1.54562">
        <ele>78</ele>
        <time>2022-04-10T10:14:43Z</time>
      </trkpt>
      <trkpt lat="47.28435" lon="-1.54561">
        <ele>78</ele>
        <time>2022-04-10T10:14:44Z</time>
      </trkpt>
      <trkpt lat="47.28434" lon="-1.5456">
        <ele>78</ele>
        <time>2022-04-10T10:14:45Z</time>
      </trkpt>
      <trkpt lat="47.28433" lon="-1.54559">
        <ele>78</ele>
        <time>2022-04-10T10:14:46Z</time>
      </trkpt>
      <trkpt lat="47.28432" lon="-1.54559">
        <ele>78</ele>
        <time>2022-04-10T10:14:47Z</time>
      </trkpt>
      <trkpt lat="47.28431" lon="-1.54558">
        <ele>78</ele>
        <time>2022-04-10T10:14:48Z</time>
      </trkpt>
      <trkpt lat="47.2843" lon="-1.54557">
        <ele>79</ele>
        <time>2022-04-10T10:14:49Z</time>
      </trkpt>
      <trkpt lat="47.28429" lon="-1.54556">
        <ele>79</ele>
        <time>2022-04-10T10:14:50Z</time>
      </trkpt>
      <trkpt lat="47.28429" lon="-1.54555">
        <ele>79</ele>
        <time>2022-04-10T10:14:51Z</time>
      </trkpt>
      <trkpt lat="47.28428" lon="-1.54553">
        <ele>79</ele>
        <time>2022-04-10T10:14:52Z</time>
      </trkpt>
      <trkpt lat="47.28426" lon="-1.54552">
        <ele>78</ele>
        <time>2022-04-10T10:14:53Z</time>
      </trkpt>
      <trkpt lat="47.28425" lon="-1.54552">
        <ele>78</ele>
        <time>2022-04-10T10:14:54Z</time>
      </trkpt>
      <trkpt lat="47.28424" lon="-1.54551">
        <ele>78</ele>
        <time>2022-04-10T10:14:55Z</time>
      </trkpt>
      <trkpt lat="47.28423" lon="-1.5455">
        <ele>78</ele>
        <time>2022-04-10T10:14:56Z</time>
      </trkpt>
      <trkpt lat="47.28422" lon="-1.5455">
        <ele>78</ele>
        <time>2022-04-10T10:14:57Z</time>
      </trkpt>
      <trkpt lat="47.28421" lon="-1.54549">
        <ele>78</ele>
        <time>2022-04-10T10:14:58Z</time>
      </trkpt>
      <trkpt lat="47.28421" lon="-1.54548">
        <ele>79</ele>
        <time>2022-04-10T10:14:59Z</time>
      </trkpt>
      <trkpt lat="47.2842" lon="-1.54547">
        <ele>80</ele>
        <time>2022-04-10T10:15:00Z</time>
      </trkpt>
      <trkpt lat="47.28418" lon="-1.54547">
        <ele>80</ele>
        <time>2022-04-10T10:15:01Z</time>
      </trkpt>
      <trkpt lat="47.28418" lon="-1.54546">
        <ele>80</ele>
        <time>2022-04-10T10:15:02Z</time>
      </trkpt>
      <trkpt lat="47.28416" lon="-1.54546">
        <ele>80</ele>
        <time>2022-04-10T10:15:03Z</time>
      </trkpt>
      <trkpt lat="47.28415" lon="-1.54545">
        <ele>80</ele>
        <time>2022-04-10T10:15:04Z</time>
      </trkpt>
      <trkpt lat="47.28415" lon="-1.54544">
        <ele>80</ele>
        <time>2022-04-10T10:15:05Z</time>
      </trkpt>
      <trkpt lat="47.28413" lon="-1.54544">
        <ele>80</ele>
        <time>2022-04-10T10:15:06Z</time>
      </trkpt>
      <trkpt lat="47.28413" lon="-1.54543">
        <ele>80</ele>
        <time>2022-04-10T10:15:07Z</time>
      </trkpt>
      <trkpt lat="47.28412" lon="-1.54543">
        <ele>79</ele>
        <time>2022-04-10T10:15:08Z</time>
      </trkpt>
      <trkpt lat="47.28411" lon="-1.54541">
        <ele>79</ele>
        <time>2022-04-10T10:15:09Z</time>
      </trkpt>
      <trkpt lat="47.2841" lon="-1.54541">
        <ele>79</ele>
        <time>2022-04-10T10:15:10Z</time>
      </trkpt>
      <trkpt lat="47.2841" lon="-1.5454">
        <ele>79</ele>
        <time>2022-04-10T10:15:11Z</time>
      </trkpt>
      <trkpt lat="47.28408" lon="-1.54539">
        <ele>79</ele>
        <time>2022-04-10T10:15:12Z</time>
      </trkpt>
      <trkpt lat="47.28408" lon="-1.54538">
        <ele>79</ele>
        <time>2022-04-10T10:15:13Z</time>
      </trkpt>
      <trkpt lat="47.28408" lon="-1.54538">
        <ele>78</ele>
        <time>2022-04-10T10:15:14Z</time>
      </trkpt>
      <trkpt lat="47.28407" lon="-1.54537">
        <ele>78</ele>
        <time>2022-04-10T10:15:15Z</time>
      </trkpt>
      <trkpt lat="47.28406" lon="-1.54536">
        <ele>78</ele>
        <time>2022-04-10T10:15:16Z</time>
      </trkpt>
      <trkpt lat="47.28405" lon="-1.54536">
        <ele>78</ele>
        <time>2022-04-10T10:15:17Z</time>
      </trkpt>
      <trkpt lat="47.28405" lon="-1.54535">
        <ele>77</ele>
        <time>2022-04-10T10:15:18Z</time>
      </trkpt>
      <trkpt lat="47.28404" lon="-1.54534">
        <ele>77</ele>
        <time>2022-04-10T10:15:19Z</time>
      </trkpt>
      <trkpt lat="47.28403" lon="-1.54533">
        <ele>76</ele>
        <time>2022-04-10T10:15:20Z</time>
      </trkpt>
      <trkpt lat="47.28402" lon="-1.54533">
        <ele>76</ele>
        <time>2022-04-10T10:15:21Z</time>
      </trkpt>
      <trkpt lat="47.28401" lon="-1.54532">
        <ele>76</ele>
        <time>2022-04-10T10:15:22Z</time>
      </trkpt>
      <trkpt lat="47.284" lon="-1.54532">
        <ele>75</ele>
        <time>2022-04-10T10:15:23Z</time>
      </trkpt>
      <trkpt lat="47.28399" lon="-1.54531">
        <ele>76</ele>
        <time>2022-04-10T10:15:24Z</time>
      </trkpt>
      <trkpt lat="47.28399" lon="-1.5453">
        <ele>76</ele>
        <time>2022-04-10T10:15:25Z</time>
      </trkpt>
      <trkpt lat="47.28397" lon="-1.54529">
        <ele>75</ele>
        <time>2022-04-10T10:15:26Z</time>
      </trkpt>
      <trkpt lat="47.28396" lon="-1.54528">
        <ele>76</ele>
        <time>2022-04-10T10:15:27Z</time>
      </trkpt>
      <trkpt lat="47.28396" lon="-1.54527">
        <ele>76</ele>
        <time>2022-04-10T10:15:28Z</time>
      </trkpt>
      <trkpt lat="47.28395" lon="-1.54526">
        <ele>76</ele>
        <time>2022-04-10T10:15:29Z</time>
      </trkpt>
      <trkpt lat="47.28394" lon="-1.54525">
        <ele>76</ele>
        <time>2022-04-10T10:15:30Z</time>
      </trkpt>
      <trkpt lat="47.28393" lon="-1.54524">
        <ele>77</ele>
        <time>2022-04-10T10:15:31Z</time>
      </trkpt>
      <trkpt lat="47.28392" lon="-1.54524">
        <ele>77</ele>
        <time>2022-04-10T10:15:32Z</time>
      </trkpt>
      <trkpt lat="47.28391" lon="-1.54523">
        <ele>77</ele>
        <time>2022-04-10T10:15:33Z</time>
      </trkpt>
      <trkpt lat="47.2839" lon="-1.54522">
        <ele>77</ele>
        <time>2022-04-10T10:15:34Z</time>
      </trkpt>
      <trkpt lat="47.28389" lon="-1.54521">
        <ele>76</ele>
        <time>2022-04-10T10:15:35Z</time>
      </trkpt>
      <trkpt lat="47.28388" lon="-1.5452">
        <ele>76</ele>
        <time>2022-04-10T10:15:36Z</time>
      </trkpt>
      <trkpt lat="47.28387" lon="-1.5452">
        <ele>76</ele>
        <time>2022-04-10T10:15:37Z</time>
      </trkpt>
      <trkpt lat="47.28386" lon="-1.54519">
        <ele>76</ele>
        <time>2022-04-10T10:15:38Z</time>
      </trkpt>
      <trkpt lat="47.28385" lon="-1.54518">
        <ele>76</ele>
        <time>2022-04-10T10:15:39Z</time>
      </trkpt>
      <trkpt lat="47.28384" lon="-1.54518">
        <ele>77</ele>
        <time>2022-04-10T10:15:40Z</time>
      </trkpt>
      <trkpt lat="47.28383" lon="-1.54517">
        <ele>77</ele>
        <time>2022-04-10T10:15:41Z</time>
      </trkpt>
      <trkpt lat="47.28383" lon="-1.54517">
        <ele>77</ele>
        <time>2022-04-10T10:15:42Z</time>
      </trkpt>
      <trkpt lat="47.28381" lon="-1.54516">
        <ele>77</ele>
        <time>2022-04-10T10:15:43Z</time>
      </trkpt>
      <trkpt lat="47.28381" lon="-1.54516">
        <ele>77</ele>
        <time>2022-04-10T10:15:44Z</time>
      </trkpt>
      <trkpt lat="47.2838" lon="-1.54515">
        <ele>78</ele>
        <time>2022-04-10T10:15:45Z</time>
      </trkpt>
      <trkpt lat="47.28379" lon="-1.54514">
        <ele>78</ele>
        <time>2022-04-10T10:15:46Z</time>
      </trkpt>
      <trkpt lat="47.28378" lon="-1.54513">
        <ele>78</ele>
        <time>2022-04-10T10:15:47Z</time>
      </trkpt>
      <trkpt lat="47.28377" lon="-1.54512">
        <ele>77</ele>
        <time>2022-04-10T10:15:48Z</time>
      </trkpt>
      <trkpt lat="47.28376" lon="-1.54511">
        <ele>77</ele>
        <time>2022-04-10T10:15:49Z</time>
      </trkpt>
      <trkpt lat="47.28375" lon="-1.54511">
        <ele>77</ele>
        <time>2022-04-10T10:15:50Z</time>
      </trkpt>
      <trkpt lat="47.28375" lon="-1.5451">
        <ele>77</ele>
        <time>2022-04-10T10:15:51Z</time>
      </trkpt>
      <trkpt lat="47.28373" lon="-1.54509">
        <ele>77</ele>
        <time>2022-04-10T10:15:52Z</time>
      </trkpt>
      <trkpt lat="47.28373" lon="-1.54508">
        <ele>77</ele>
        <time>2022-04-10T10:15:53Z</time>
      </trkpt>
      <trkpt lat="47.28372" lon="-1.54507">
        <ele>77</ele>
        <time>2022-04-10T10:15:54Z</time>
      </trkpt>
      <trkpt lat="47.28371" lon="-1.54506">
        <ele>77</ele>
        <time>2022-04-10T10:15:55Z</time>
      </trkpt>
      <trkpt lat="47.28371" lon="-1.54505">
        <ele>78</ele>
        <time>2022-04-10T10:15:56Z</time>
      </trkpt>
      <trkpt lat="47.2837" lon="-1.54505">
        <ele>78</ele>
        <time>2022-04-10T10:15:57Z</time>
      </trkpt>
      <trkpt lat="47.28369" lon="-1.54504">
        <ele>77</ele>
        <time>2022-04-10T10:15:58Z</time>
      </trkpt>
      <trkpt lat="47.28368" lon="-1.54503">
        <ele>77</ele>
        <time>2022-04-10T10:15:59Z</time>
      </trkpt>
      <trkpt lat="47.28368" lon="-1.54503">
        <ele>78</ele>
        <time>2022-04-10T10:16:00Z</time>
      </trkpt>
      <trkpt lat="47.28367" lon="-1.54502">
        <ele>78</ele>
        <time>2022-04-10T10:16:01Z</time>
      </trkpt>
      <trkpt lat="47.28367" lon="-1.54501">
        <ele>78</ele>
        <time>2022-04-10T10:16:02Z</time>
      </trkpt>
      <trkpt lat="47.28366" lon="-1.54501">
        <ele>78</ele>
        <time>2022-04-10T10:16:03Z</time>
      </trkpt>
      <trkpt lat="47.28365" lon="-1.545">
        <ele>78</ele>
        <time>2022-04-10T10:16:04Z</time>
      </trkpt>
      <trkpt lat="47.28365" lon="-1.54499">
        <ele>78</ele>
        <time>2022-04-10T10:16:05Z</time>
      </trkpt>
      <trkpt lat="47.28364" lon="-1.54498">
        <ele>78</ele>
        <time>2022-04-10T10:16:06Z</time>
      </trkpt>
      <trkpt lat="47.28363" lon="-1.54498">
        <ele>77</ele>
        <time>2022-04-10T10:16:07Z</time>
      </trkpt>
      <trkpt lat="47.28363" lon="-1.54496">
        <ele>77</ele>
        <time>2022-04-10T10:16:08Z</time>
      </trkpt>
      <trkpt lat="47.28362" lon="-1.54496">
        <ele>77</ele>
        <time>2022-04-10T10:16:09Z</time>
      </trkpt>
      <trkpt lat="47.2836" lon="-1.54495">
        <ele>77</ele>
        <time>2022-04-10T10:16:10Z</time>
      </trkpt>
      <trkpt lat="47.28359" lon="-1.54495">
        <ele>77</ele>
        <time>2022-04-10T10:16:11Z</time>
      </trkpt>
      <trkpt lat="47.28358" lon="-1.54494">
        <ele>77</ele>
        <time>2022-04-10T10:16:12Z</time>
      </trkpt>
      <trkpt lat="47.28357" lon="-1.54493">
        <ele>77</ele>
        <time>2022-04-10T10:16:13Z</time>
      </trkpt>
      <trkpt lat="47.28356" lon="-1.54492">
        <ele>77</ele>
        <time>2022-04-10T10:16:14Z</time>
      </trkpt>
      <trkpt lat="47.28355" lon="-1.54491">
        <ele>77</ele>
        <time>2022-04-10T10:16:15Z</time>
      </trkpt>
      <trkpt lat="47.28355" lon="-1.54491">
        <ele>78</ele>
        <time>2022-04-10T10:16:16Z</time>
      </trkpt>
      <trkpt lat="47.28354" lon="-1.5449">
        <ele>77</ele>
        <time>2022-04-10T10:16:17Z</time>
      </trkpt>
      <trkpt lat="47.28353" lon="-1.54489">
        <ele>77</ele>
        <time>2022-04-10T10:16:18Z</time>
      </trkpt>
      <trkpt lat="47.28352" lon="-1.54488">
        <ele>77</ele>
        <time>2022-04-10T10:16:19Z</time>
      </trkpt>
      <trkpt lat="47.28351" lon="-1.54487">
        <ele>77</ele>
        <time>2022-04-10T10:16:20Z</time>
      </trkpt>
      <trkpt lat="47.2835" lon="-1.54487">
        <ele>77</ele>
        <time>2022-04-10T10:16:21Z</time>
      </trkpt>
      <trkpt lat="47.28349" lon="-1.54486">
        <ele>77</ele>
        <time>2022-04-10T10:16:22Z</time>
      </trkpt>
      <trkpt lat="47.28349" lon="-1.54485">
        <ele>77</ele>
        <time>2022-04-10T10:16:23Z</time>
      </trkpt>
      <trkpt lat="47.28348" lon="-1.54484">
        <ele>76</ele>
        <time>2022-04-10T10:16:24Z</time>
      </trkpt>
      <trkpt lat="47.28347" lon="-1.54484">
        <ele>75</ele>
        <time>2022-04-10T10:16:25Z</time>
      </trkpt>
      <trkpt lat="47.28346" lon="-1.54484">
        <ele>75</ele>
        <time>2022-04-10T10:16:26Z</time>
      </trkpt>
      <trkpt lat="47.28346" lon="-1.54484">
        <ele>75</ele>
        <time>2022-04-10T10:16:27Z</time>
      </trkpt>
      <trkpt lat="47.28344" lon="-1.54484">
        <ele>76</ele>
        <time>2022-04-10T10:16:28Z</time>
      </trkpt>
      <trkpt lat="47.28342" lon="-1.54485">
        <ele>76</ele>
        <time>2022-04-10T10:16:29Z</time>
      </trkpt>
      <trkpt lat="47.28341" lon="-1.54485">
        <ele>76</ele>
        <time>2022-04-10T10:16:30Z</time>
      </trkpt>
      <trkpt lat="47.28341" lon="-1.54484">
        <ele>75</ele>
        <time>2022-04-10T10:16:31Z</time>
      </trkpt>
      <trkpt lat="47.2834" lon="-1.54484">
        <ele>76</ele>
        <time>2022-04-10T10:16:32Z</time>
      </trkpt>
      <trkpt lat="47.28339" lon="-1.54483">
        <ele>76</ele>
        <time>2022-04-10T10:16:33Z</time>
      </trkpt>
      <trkpt lat="47.28338" lon="-1.54483">
        <ele>76</ele>
        <time>2022-04-10T10:16:34Z</time>
      </trkpt>
      <trkpt lat="47.28337" lon="-1.54484">
        <ele>76</ele>
        <time>2022-04-10T10:16:35Z</time>
      </trkpt>
      <trkpt lat="47.28336" lon="-1.54484">
        <ele>76</ele>
        <time>2022-04-10T10:16:36Z</time>
      </trkpt>
      <trkpt lat="47.28336" lon="-1.54484">
        <ele>76</ele>
        <time>2022-04-10T10:16:37Z</time>
      </trkpt>
      <trkpt lat="47.28336" lon="-1.54485">
        <ele>76</ele>
        <time>2022-04-10T10:16:38Z</time>
      </trkpt>
      <trkpt lat="47.28336" lon="-1.54486">
        <ele>76</ele>
        <time>2022-04-10T10:16:39Z</time>
      </trkpt>
      <trkpt lat="47.28336" lon="-1.54487">
        <ele>76</ele>
        <time>2022-04-10T10:16:40Z</time>
      </trkpt>
      <trkpt lat="47.28335" lon="-1.54489">
        <ele>76</ele>
        <time>2022-04-10T10:16:41Z</time>
      </trkpt>
      <trkpt lat="47.28335" lon="-1.5449">
        <ele>76</ele>
        <time>2022-04-10T10:16:42Z</time>
      </trkpt>
      <trkpt lat="47.28335" lon="-1.54491">
        <ele>76</ele>
        <time>2022-04-10T10:16:43Z</time>
      </trkpt>
      <trkpt lat="47.28335" lon="-1.54493">
        <ele>76</ele>
        <time>2022-04-10T10:16:44Z</time>
      </trkpt>
      <trkpt lat="47.28334" lon="-1.54493">
        <ele>76</ele>
        <time>2022-04-10T10:16:45Z</time>
      </trkpt>
      <trkpt lat="47.28334" lon="-1.54494">
        <ele>76</ele>
        <time>2022-04-10T10:16:46Z</time>
      </trkpt>
      <trkpt lat="47.28333" lon="-1.54495">
        <ele>76</ele>
        <time>2022-04-10T10:16:47Z</time>
      </trkpt>
      <trkpt lat="47.28333" lon="-1.54496">
        <ele>77</ele>
        <time>2022-04-10T10:16:48Z</time>
      </trkpt>
      <trkpt lat="47.28332" lon="-1.54496">
        <ele>76</ele>
        <time>2022-04-10T10:16:49Z</time>
      </trkpt>
      <trkpt lat="47.28332" lon="-1.54498">
        <ele>76</ele>
        <time>2022-04-10T10:16:50Z</time>
      </trkpt>
      <trkpt lat="47.28332" lon="-1.54499">
        <ele>76</ele>
        <time>2022-04-10T10:16:51Z</time>
      </trkpt>
      <trkpt lat="47.28332" lon="-1.545">
        <ele>76</ele>
        <time>2022-04-10T10:16:52Z</time>
      </trkpt>
      <trkpt lat="47.28332" lon="-1.54502">
        <ele>76</ele>
        <time>2022-04-10T10:16:53Z</time>
      </trkpt>
      <trkpt lat="47.28331" lon="-1.54503">
        <ele>76</ele>
        <time>2022-04-10T10:16:54Z</time>
      </trkpt>
      <trkpt lat="47.28331" lon="-1.54504">
        <ele>76</ele>
        <time>2022-04-10T10:16:55Z</time>
      </trkpt>
      <trkpt lat="47.28331" lon="-1.54505">
        <ele>76</ele>
        <time>2022-04-10T10:16:56Z</time>
      </trkpt>
      <trkpt lat="47.2833" lon="-1.54506">
        <ele>76</ele>
        <time>2022-04-10T10:16:57Z</time>
      </trkpt>
      <trkpt lat="47.2833" lon="-1.54508">
        <ele>77</ele>
        <time>2022-04-10T10:16:58Z</time>
      </trkpt>
      <trkpt lat="47.28329" lon="-1.54509">
        <ele>76</ele>
        <time>2022-04-10T10:16:59Z</time>
      </trkpt>
      <trkpt lat="47.28328" lon="-1.5451">
        <ele>76</ele>
        <time>2022-04-10T10:17:00Z</time>
      </trkpt>
      <trkpt lat="47.28328" lon="-1.54511">
        <ele>75</ele>
        <time>2022-04-10T10:17:01Z</time>
      </trkpt>
      <trkpt lat="47.28327" lon="-1.54512">
        <ele>75</ele>
        <time>2022-04-10T10:17:02Z</time>
      </trkpt>
      <trkpt lat="47.28327" lon="-1.54513">
        <ele>75</ele>
        <time>2022-04-10T10:17:03Z</time>
      </trkpt>
      <trkpt lat="47.28327" lon="-1.54515">
        <ele>75</ele>
        <time>2022-04-10T10:17:04Z</time>
      </trkpt>
      <trkpt lat="47.28327" lon="-1.54517">
        <ele>75</ele>
        <time>2022-04-10T10:17:05Z</time>
      </trkpt>
      <trkpt lat="47.28327" lon="-1.54519">
        <ele>74</ele>
        <time>2022-04-10T10:17:06Z</time>
      </trkpt>
      <trkpt lat="47.28327" lon="-1.54521">
        <ele>74</ele>
        <time>2022-04-10T10:17:07Z</time>
      </trkpt>
      <trkpt lat="47.28326" lon="-1.54521">
        <ele>74</ele>
        <time>2022-04-10T10:17:08Z</time>
      </trkpt>
      <trkpt lat="47.28326" lon="-1.5452">
        <ele>75</ele>
        <time>2022-04-10T10:17:09Z</time>
      </trkpt>
      <trkpt lat="47.28327" lon="-1.54521">
        <ele>75</ele>
        <time>2022-04-10T10:17:10Z</time>
      </trkpt>
      <trkpt lat="47.28326" lon="-1.54522">
        <ele>75</ele>
        <time>2022-04-10T10:17:11Z</time>
      </trkpt>
      <trkpt lat="47.28326" lon="-1.54522">
        <ele>76</ele>
        <time>2022-04-10T10:17:12Z</time>
      </trkpt>
      <trkpt lat="47.28326" lon="-1.54522">
        <ele>76</ele>
        <time>2022-04-10T10:17:13Z</time>
      </trkpt>
      <trkpt lat="47.28326" lon="-1.54522">
        <ele>76</ele>
        <time>2022-04-10T10:17:13Z</time>
      </trkpt>
      <trkpt lat="47.28326" lon="-1.54522">
        <ele>76</ele>
        <time>2022-04-10T10:17:13Z</time>
      </trkpt>
      <trkpt lat="47.28322" lon="-1.54526">
        <ele>75</ele>
        <time>2022-04-10T10:17:24Z</time>
      </trkpt>
      <trkpt lat="47.28322" lon="-1.54527">
        <ele>75</ele>
        <time>2022-04-10T10:17:25Z</time>
      </trkpt>
      <trkpt lat="47.28321" lon="-1.54528">
        <ele>75</ele>
        <time>2022-04-10T10:17:26Z</time>
      </trkpt>
      <trkpt lat="47.28321" lon="-1.54529">
        <ele>75</ele>
        <time>2022-04-10T10:17:27Z</time>
      </trkpt>
      <trkpt lat="47.2832" lon="-1.5453">
        <ele>75</ele>
        <time>2022-04-10T10:17:28Z</time>
      </trkpt>
      <trkpt lat="47.2832" lon="-1.54532">
        <ele>75</ele>
        <time>2022-04-10T10:17:29Z</time>
      </trkpt>
      <trkpt lat="47.28319" lon="-1.54533">
        <ele>75</ele>
        <time>2022-04-10T10:17:30Z</time>
      </trkpt>
      <trkpt lat="47.28319" lon="-1.54535">
        <ele>76</ele>
        <time>2022-04-10T10:17:31Z</time>
      </trkpt>
      <trkpt lat="47.28318" lon="-1.54536">
        <ele>76</ele>
        <time>2022-04-10T10:17:32Z</time>
      </trkpt>
      <trkpt lat="47.28317" lon="-1.54537">
        <ele>76</ele>
        <time>2022-04-10T10:17:33Z</time>
      </trkpt>
      <trkpt lat="47.28317" lon="-1.54538">
        <ele>76</ele>
        <time>2022-04-10T10:17:34Z</time>
      </trkpt>
      <trkpt lat="47.28317" lon="-1.5454">
        <ele>77</ele>
        <time>2022-04-10T10:17:35Z</time>
      </trkpt>
      <trkpt lat="47.28317" lon="-1.54542">
        <ele>77</ele>
        <time>2022-04-10T10:17:36Z</time>
      </trkpt>
      <trkpt lat="47.28316" lon="-1.54543">
        <ele>77</ele>
        <time>2022-04-10T10:17:37Z</time>
      </trkpt>
      <trkpt lat="47.28316" lon="-1.54545">
        <ele>77</ele>
        <time>2022-04-10T10:17:38Z</time>
      </trkpt>
      <trkpt lat="47.28315" lon="-1.54547">
        <ele>77</ele>
        <time>2022-04-10T10:17:39Z</time>
      </trkpt>
      <trkpt lat="47.28315" lon="-1.54548">
        <ele>77</ele>
        <time>2022-04-10T10:17:40Z</time>
      </trkpt>
      <trkpt lat="47.28315" lon="-1.54549">
        <ele>77</ele>
        <time>2022-04-10T10:17:41Z</time>
      </trkpt>
      <trkpt lat="47.28315" lon="-1.5455">
        <ele>78</ele>
        <time>2022-04-10T10:17:42Z</time>
      </trkpt>
      <trkpt lat="47.28315" lon="-1.54551">
        <ele>77</ele>
        <time>2022-04-10T10:17:43Z</time>
      </trkpt>
      <trkpt lat="47.28314" lon="-1.54553">
        <ele>78</ele>
        <time>2022-04-10T10:17:44Z</time>
      </trkpt>
      <trkpt lat="47.28314" lon="-1.54555">
        <ele>78</ele>
        <time>2022-04-10T10:17:45Z</time>
      </trkpt>
      <trkpt lat="47.28314" lon="-1.54557">
        <ele>78</ele>
        <time>2022-04-10T10:17:46Z</time>
      </trkpt>
      <trkpt lat="47.28314" lon="-1.54558">
        <ele>78</ele>
        <time>2022-04-10T10:17:47Z</time>
      </trkpt>
      <trkpt lat="47.28314" lon="-1.5456">
        <ele>78</ele>
        <time>2022-04-10T10:17:48Z</time>
      </trkpt>
      <trkpt lat="47.28313" lon="-1.54561">
        <ele>78</ele>
        <time>2022-04-10T10:17:49Z</time>
      </trkpt>
      <trkpt lat="47.28312" lon="-1.54563">
        <ele>78</ele>
        <time>2022-04-10T10:17:50Z</time>
      </trkpt>
      <trkpt lat="47.28311" lon="-1.54565">
        <ele>77</ele>
        <time>2022-04-10T10:17:51Z</time>
      </trkpt>
      <trkpt lat="47.28311" lon="-1.54567">
        <ele>76</ele>
        <time>2022-04-10T10:17:52Z</time>
      </trkpt>
      <trkpt lat="47.2831" lon="-1.54568">
        <ele>76</ele>
        <time>2022-04-10T10:17:53Z</time>
      </trkpt>
      <trkpt lat="47.2831" lon="-1.54569">
        <ele>76</ele>
        <time>2022-04-10T10:17:54Z</time>
      </trkpt>
      <trkpt lat="47.2831" lon="-1.54571">
        <ele>76</ele>
        <time>2022-04-10T10:17:55Z</time>
      </trkpt>
      <trkpt lat="47.2831" lon="-1.54572">
        <ele>76</ele>
        <time>2022-04-10T10:17:56Z</time>
      </trkpt>
      <trkpt lat="47.28309" lon="-1.54574">
        <ele>76</ele>
        <time>2022-04-10T10:17:57Z</time>
      </trkpt>
      <trkpt lat="47.28309" lon="-1.54576">
        <ele>76</ele>
        <time>2022-04-10T10:17:58Z</time>
      </trkpt>
      <trkpt lat="47.28309" lon="-1.54577">
        <ele>76</ele>
        <time>2022-04-10T10:17:59Z</time>
      </trkpt>
      <trkpt lat="47.28309" lon="-1.54579">
        <ele>76</ele>
        <time>2022-04-10T10:18:00Z</time>
      </trkpt>
      <trkpt lat="47.28309" lon="-1.54581">
        <ele>76</ele>
        <time>2022-04-10T10:18:01Z</time>
      </trkpt>
      <trkpt lat="47.28309" lon="-1.54583">
        <ele>76</ele>
        <time>2022-04-10T10:18:02Z</time>
      </trkpt>
      <trkpt lat="47.28308" lon="-1.54585">
        <ele>76</ele>
        <time>2022-04-10T10:18:03Z</time>
      </trkpt>
      <trkpt lat="47.28307" lon="-1.54587">
        <ele>76</ele>
        <time>2022-04-10T10:18:04Z</time>
      </trkpt>
      <trkpt lat="47.28307" lon="-1.54589">
        <ele>76</ele>
        <time>2022-04-10T10:18:05Z</time>
      </trkpt>
      <trkpt lat="47.28307" lon="-1.54591">
        <ele>76</ele>
        <time>2022-04-10T10:18:06Z</time>
      </trkpt>
      <trkpt lat="47.28307" lon="-1.54592">
        <ele>76</ele>
        <time>2022-04-10T10:18:07Z</time>
      </trkpt>
      <trkpt lat="47.28307" lon="-1.54593">
        <ele>76</ele>
        <time>2022-04-10T10:18:08Z</time>
      </trkpt>
      <trkpt lat="47.28307" lon="-1.54594">
        <ele>76</ele>
        <time>2022-04-10T10:18:09Z</time>
      </trkpt>
      <trkpt lat="47.28307" lon="-1.54596">
        <ele>76</ele>
        <time>2022-04-10T10:18:10Z</time>
      </trkpt>
      <trkpt lat="47.28308" lon="-1.54597">
        <ele>77</ele>
        <time>2022-04-10T10:18:11Z</time>
      </trkpt>
      <trkpt lat="47.28308" lon="-1.54599">
        <ele>77</ele>
        <time>2022-04-10T10:18:12Z</time>
      </trkpt>
      <trkpt lat="47.28308" lon="-1.546">
        <ele>77</ele>
        <time>2022-04-10T10:18:13Z</time>
      </trkpt>
      <trkpt lat="47.28307" lon="-1.54602">
        <ele>77</ele>
        <time>2022-04-10T10:18:14Z</time>
      </trkpt>
      <trkpt lat="47.28307" lon="-1.54603">
        <ele>77</ele>
        <time>2022-04-10T10:18:15Z</time>
      </trkpt>
      <trkpt lat="47.28308" lon="-1.54605">
        <ele>77</ele>
        <time>2022-04-10T10:18:16Z</time>
      </trkpt>
      <trkpt lat="47.28308" lon="-1.54606">
        <ele>78</ele>
        <time>2022-04-10T10:18:17Z</time>
      </trkpt>
      <trkpt lat="47.28308" lon="-1.54608">
        <ele>78</ele>
        <time>2022-04-10T10:18:18Z</time>
      </trkpt>
      <trkpt lat="47.28309" lon="-1.54609">
        <ele>78</ele>
        <time>2022-04-10T10:18:19Z</time>
      </trkpt>
      <trkpt lat="47.28309" lon="-1.5461">
        <ele>78</ele>
        <time>2022-04-10T10:18:20Z</time>
      </trkpt>
      <trkpt lat="47.28309" lon="-1.54611">
        <ele>79</ele>
        <time>2022-04-10T10:18:21Z</time>
      </trkpt>
      <trkpt lat="47.28308" lon="-1.54613">
        <ele>79</ele>
        <time>2022-04-10T10:18:22Z</time>
      </trkpt>
      <trkpt lat="47.28307" lon="-1.54615">
        <ele>79</ele>
        <time>2022-04-10T10:18:23Z</time>
      </trkpt>
      <trkpt lat="47.28307" lon="-1.54618">
        <ele>79</ele>
        <time>2022-04-10T10:18:24Z</time>
      </trkpt>
      <trkpt lat="47.28307" lon="-1.54619">
        <ele>79</ele>
        <time>2022-04-10T10:18:25Z</time>
      </trkpt>
      <trkpt lat="47.28306" lon="-1.5462">
        <ele>79</ele>
        <time>2022-04-10T10:18:26Z</time>
      </trkpt>
      <trkpt lat="47.28306" lon="-1.54621">
        <ele>78</ele>
        <time>2022-04-10T10:18:27Z</time>
      </trkpt>
      <trkpt lat="47.28306" lon="-1.54623">
        <ele>78</ele>
        <time>2022-04-10T10:18:28Z</time>
      </trkpt>
      <trkpt lat="47.28305" lon="-1.54624">
        <ele>79</ele>
        <time>2022-04-10T10:18:29Z</time>
      </trkpt>
      <trkpt lat="47.28305" lon="-1.54625">
        <ele>79</ele>
        <time>2022-04-10T10:18:30Z</time>
      </trkpt>
      <trkpt lat="47.28305" lon="-1.54627">
        <ele>79</ele>
        <time>2022-04-10T10:18:31Z</time>
      </trkpt>
      <trkpt lat="47.28305" lon="-1.54628">
        <ele>79</ele>
        <time>2022-04-10T10:18:32Z</time>
      </trkpt>
      <trkpt lat="47.28305" lon="-1.5463">
        <ele>80</ele>
        <time>2022-04-10T10:18:33Z</time>
      </trkpt>
      <trkpt lat="47.28305" lon="-1.54632">
        <ele>81</ele>
        <time>2022-04-10T10:18:34Z</time>
      </trkpt>
      <trkpt lat="47.28305" lon="-1.54634">
        <ele>82</ele>
        <time>2022-04-10T10:18:35Z</time>
      </trkpt>
      <trkpt lat="47.28305" lon="-1.54635">
        <ele>82</ele>
        <time>2022-04-10T10:18:36Z</time>
      </trkpt>
      <trkpt lat="47.28306" lon="-1.54637">
        <ele>82</ele>
        <time>2022-04-10T10:18:37Z</time>
      </trkpt>
      <trkpt lat="47.28306" lon="-1.54638">
        <ele>82</ele>
        <time>2022-04-10T10:18:38Z</time>
      </trkpt>
      <trkpt lat="47.28306" lon="-1.5464">
        <ele>82</ele>
        <time>2022-04-10T10:18:39Z</time>
      </trkpt>
      <trkpt lat="47.28306" lon="-1.54641">
        <ele>82</ele>
        <time>2022-04-10T10:18:40Z</time>
      </trkpt>
      <trkpt lat="47.28305" lon="-1.54643">
        <ele>82</ele>
        <time>2022-04-10T10:18:41Z</time>
      </trkpt>
      <trkpt lat="47.28305" lon="-1.54645">
        <ele>82</ele>
        <time>2022-04-10T10:18:42Z</time>
      </trkpt>
      <trkpt lat="47.28304" lon="-1.54647">
        <ele>82</ele>
        <time>2022-04-10T10:18:43Z</time>
      </trkpt>
      <trkpt lat="47.28304" lon="-1.54649">
        <ele>82</ele>
        <time>2022-04-10T10:18:44Z</time>
      </trkpt>
      <trkpt lat="47.28304" lon="-1.54651">
        <ele>82</ele>
        <time>2022-04-10T10:18:45Z</time>
      </trkpt>
      <trkpt lat="47.28304" lon="-1.54652">
        <ele>82</ele>
        <time>2022-04-10T10:18:46Z</time>
      </trkpt>
      <trkpt lat="47.28304" lon="-1.54654">
        <ele>81</ele>
        <time>2022-04-10T10:18:47Z</time>
      </trkpt>
      <trkpt lat="47.28305" lon="-1.54655">
        <ele>81</ele>
        <time>2022-04-10T10:18:48Z</time>
      </trkpt>
      <trkpt lat="47.28305" lon="-1.54656">
        <ele>82</ele>
        <time>2022-04-10T10:18:49Z</time>
      </trkpt>
      <trkpt lat="47.28305" lon="-1.54658">
        <ele>82</ele>
        <time>2022-04-10T10:18:50Z</time>
      </trkpt>
      <trkpt lat="47.28305" lon="-1.5466">
        <ele>82</ele>
        <time>2022-04-10T10:18:51Z</time>
      </trkpt>
      <trkpt lat="47.28305" lon="-1.54662">
        <ele>83</ele>
        <time>2022-04-10T10:18:52Z</time>
      </trkpt>
      <trkpt lat="47.28305" lon="-1.54663">
        <ele>83</ele>
        <time>2022-04-10T10:18:53Z</time>
      </trkpt>
      <trkpt lat="47.28306" lon="-1.54665">
        <ele>84</ele>
        <time>2022-04-10T10:18:54Z</time>
      </trkpt>
      <trkpt lat="47.28306" lon="-1.54667">
        <ele>83</ele>
        <time>2022-04-10T10:18:55Z</time>
      </trkpt>
      <trkpt lat="47.28306" lon="-1.54669">
        <ele>82</ele>
        <time>2022-04-10T10:18:56Z</time>
      </trkpt>
      <trkpt lat="47.28306" lon="-1.54671">
        <ele>82</ele>
        <time>2022-04-10T10:18:57Z</time>
      </trkpt>
      <trkpt lat="47.28306" lon="-1.54672">
        <ele>82</ele>
        <time>2022-04-10T10:18:58Z</time>
      </trkpt>
      <trkpt lat="47.28307" lon="-1.54674">
        <ele>82</ele>
        <time>2022-04-10T10:18:59Z</time>
      </trkpt>
      <trkpt lat="47.28306" lon="-1.54676">
        <ele>81</ele>
        <time>2022-04-10T10:19:00Z</time>
      </trkpt>
      <trkpt lat="47.28306" lon="-1.54678">
        <ele>81</ele>
        <time>2022-04-10T10:19:01Z</time>
      </trkpt>
      <trkpt lat="47.28306" lon="-1.54679">
        <ele>81</ele>
        <time>2022-04-10T10:19:02Z</time>
      </trkpt>
      <trkpt lat="47.28305" lon="-1.54682">
        <ele>82</ele>
        <time>2022-04-10T10:19:03Z</time>
      </trkpt>
      <trkpt lat="47.28306" lon="-1.54683">
        <ele>82</ele>
        <time>2022-04-10T10:19:04Z</time>
      </trkpt>
      <trkpt lat="47.28306" lon="-1.54685">
        <ele>82</ele>
        <time>2022-04-10T10:19:05Z</time>
      </trkpt>
      <trkpt lat="47.28306" lon="-1.54687">
        <ele>82</ele>
        <time>2022-04-10T10:19:06Z</time>
      </trkpt>
      <trkpt lat="47.28306" lon="-1.54689">
        <ele>82</ele>
        <time>2022-04-10T10:19:07Z</time>
      </trkpt>
      <trkpt lat="47.28306" lon="-1.54691">
        <ele>82</ele>
        <time>2022-04-10T10:19:08Z</time>
      </trkpt>
      <trkpt lat="47.28306" lon="-1.54692">
        <ele>82</ele>
        <time>2022-04-10T10:19:09Z</time>
      </trkpt>
      <trkpt lat="47.28306" lon="-1.54694">
        <ele>82</ele>
        <time>2022-04-10T10:19:10Z</time>
      </trkpt>
      <trkpt lat="47.28307" lon="-1.54696">
        <ele>81</ele>
        <time>2022-04-10T10:19:11Z</time>
      </trkpt>
      <trkpt lat="47.28307" lon="-1.54698">
        <ele>81</ele>
        <time>2022-04-10T10:19:12Z</time>
      </trkpt>
      <trkpt lat="47.28307" lon="-1.54699">
        <ele>81</ele>
        <time>2022-04-10T10:19:13Z</time>
      </trkpt>
      <trkpt lat="47.28307" lon="-1.547">
        <ele>81</ele>
        <time>2022-04-10T10:19:14Z</time>
      </trkpt>
      <trkpt lat="47.28307" lon="-1.54701">
        <ele>81</ele>
        <time>2022-04-10T10:19:15Z</time>
      </trkpt>
      <trkpt lat="47.28307" lon="-1.54703">
        <ele>81</ele>
        <time>2022-04-10T10:19:16Z</time>
      </trkpt>
      <trkpt lat="47.28307" lon="-1.54704">
        <ele>81</ele>
        <time>2022-04-10T10:19:17Z</time>
      </trkpt>
      <trkpt lat="47.28307" lon="-1.54706">
        <ele>81</ele>
        <time>2022-04-10T10:19:18Z</time>
      </trkpt>
      <trkpt lat="47.28307" lon="-1.54708">
        <ele>82</ele>
        <time>2022-04-10T10:19:19Z</time>
      </trkpt>
      <trkpt lat="47.28306" lon="-1.54709">
        <ele>81</ele>
        <time>2022-04-10T10:19:20Z</time>
      </trkpt>
      <trkpt lat="47.28306" lon="-1.54712">
        <ele>81</ele>
        <time>2022-04-10T10:19:21Z</time>
      </trkpt>
      <trkpt lat="47.28306" lon="-1.54713">
        <ele>81</ele>
        <time>2022-04-10T10:19:22Z</time>
      </trkpt>
      <trkpt lat="47.28306" lon="-1.54715">
        <ele>81</ele>
        <time>2022-04-10T10:19:23Z</time>
      </trkpt>
      <trkpt lat="47.28305" lon="-1.54717">
        <ele>81</ele>
        <time>2022-04-10T10:19:24Z</time>
      </trkpt>
      <trkpt lat="47.28305" lon="-1.54719">
        <ele>80</ele>
        <time>2022-04-10T10:19:25Z</time>
      </trkpt>
      <trkpt lat="47.28304" lon="-1.54721">
        <ele>80</ele>
        <time>2022-04-10T10:19:26Z</time>
      </trkpt>
      <trkpt lat="47.28303" lon="-1.54722">
        <ele>80</ele>
        <time>2022-04-10T10:19:27Z</time>
      </trkpt>
      <trkpt lat="47.28302" lon="-1.54724">
        <ele>79</ele>
        <time>2022-04-10T10:19:28Z</time>
      </trkpt>
      <trkpt lat="47.28302" lon="-1.54726">
        <ele>79</ele>
        <time>2022-04-10T10:19:29Z</time>
      </trkpt>
      <trkpt lat="47.28302" lon="-1.54728">
        <ele>79</ele>
        <time>2022-04-10T10:19:30Z</time>
      </trkpt>
      <trkpt lat="47.28302" lon="-1.54729">
        <ele>79</ele>
        <time>2022-04-10T10:19:31Z</time>
      </trkpt>
      <trkpt lat="47.28302" lon="-1.5473">
        <ele>79</ele>
        <time>2022-04-10T10:19:32Z</time>
      </trkpt>
      <trkpt lat="47.28301" lon="-1.54732">
        <ele>79</ele>
        <time>2022-04-10T10:19:33Z</time>
      </trkpt>
      <trkpt lat="47.28301" lon="-1.54734">
        <ele>78</ele>
        <time>2022-04-10T10:19:34Z</time>
      </trkpt>
      <trkpt lat="47.28301" lon="-1.54735">
        <ele>78</ele>
        <time>2022-04-10T10:19:35Z</time>
      </trkpt>
      <trkpt lat="47.28301" lon="-1.54736">
        <ele>78</ele>
        <time>2022-04-10T10:19:36Z</time>
      </trkpt>
      <trkpt lat="47.28301" lon="-1.54738">
        <ele>78</ele>
        <time>2022-04-10T10:19:37Z</time>
      </trkpt>
      <trkpt lat="47.283" lon="-1.54739">
        <ele>78</ele>
        <time>2022-04-10T10:19:38Z</time>
      </trkpt>
      <trkpt lat="47.283" lon="-1.54741">
        <ele>79</ele>
        <time>2022-04-10T10:19:39Z</time>
      </trkpt>
      <trkpt lat="47.283" lon="-1.54743">
        <ele>79</ele>
        <time>2022-04-10T10:19:40Z</time>
      </trkpt>
      <trkpt lat="47.283" lon="-1.54744">
        <ele>79</ele>
        <time>2022-04-10T10:19:41Z</time>
      </trkpt>
      <trkpt lat="47.28299" lon="-1.54745">
        <ele>79</ele>
        <time>2022-04-10T10:19:42Z</time>
      </trkpt>
      <trkpt lat="47.28299" lon="-1.54747">
        <ele>79</ele>
        <time>2022-04-10T10:19:43Z</time>
      </trkpt>
      <trkpt lat="47.283" lon="-1.54748">
        <ele>79</ele>
        <time>2022-04-10T10:19:44Z</time>
      </trkpt>
      <trkpt lat="47.283" lon="-1.5475">
        <ele>80</ele>
        <time>2022-04-10T10:19:45Z</time>
      </trkpt>
      <trkpt lat="47.283" lon="-1.54751">
        <ele>80</ele>
        <time>2022-04-10T10:19:46Z</time>
      </trkpt>
      <trkpt lat="47.283" lon="-1.54753">
        <ele>80</ele>
        <time>2022-04-10T10:19:47Z</time>
      </trkpt>
      <trkpt lat="47.28301" lon="-1.54755">
        <ele>80</ele>
        <time>2022-04-10T10:19:48Z</time>
      </trkpt>
      <trkpt lat="47.28301" lon="-1.54757">
        <ele>80</ele>
        <time>2022-04-10T10:19:49Z</time>
      </trkpt>
      <trkpt lat="47.28301" lon="-1.5476">
        <ele>79</ele>
        <time>2022-04-10T10:19:50Z</time>
      </trkpt>
      <trkpt lat="47.28301" lon="-1.54762">
        <ele>79</ele>
        <time>2022-04-10T10:19:51Z</time>
      </trkpt>
      <trkpt lat="47.28301" lon="-1.54764">
        <ele>79</ele>
        <time>2022-04-10T10:19:52Z</time>
      </trkpt>
      <trkpt lat="47.28301" lon="-1.54765">
        <ele>79</ele>
        <time>2022-04-10T10:19:53Z</time>
      </trkpt>
      <trkpt lat="47.28301" lon="-1.54767">
        <ele>79</ele>
        <time>2022-04-10T10:19:54Z</time>
      </trkpt>
      <trkpt lat="47.28301" lon="-1.54768">
        <ele>79</ele>
        <time>2022-04-10T10:19:55Z</time>
      </trkpt>
      <trkpt lat="47.28301" lon="-1.54769">
        <ele>78</ele>
        <time>2022-04-10T10:19:56Z</time>
      </trkpt>
      <trkpt lat="47.28301" lon="-1.54771">
        <ele>78</ele>
        <time>2022-04-10T10:19:57Z</time>
      </trkpt>
      <trkpt lat="47.28301" lon="-1.54772">
        <ele>79</ele>
        <time>2022-04-10T10:19:58Z</time>
      </trkpt>
      <trkpt lat="47.283" lon="-1.54774">
        <ele>78</ele>
        <time>2022-04-10T10:19:59Z</time>
      </trkpt>
      <trkpt lat="47.283" lon="-1.54776">
        <ele>78</ele>
        <time>2022-04-10T10:20:00Z</time>
      </trkpt>
      <trkpt lat="47.283" lon="-1.54777">
        <ele>78</ele>
        <time>2022-04-10T10:20:01Z</time>
      </trkpt>
      <trkpt lat="47.283" lon="-1.54778">
        <ele>78</ele>
        <time>2022-04-10T10:20:02Z</time>
      </trkpt>
      <trkpt lat="47.283" lon="-1.5478">
        <ele>79</ele>
        <time>2022-04-10T10:20:03Z</time>
      </trkpt>
      <trkpt lat="47.283" lon="-1.54781">
        <ele>79</ele>
        <time>2022-04-10T10:20:04Z</time>
      </trkpt>
      <trkpt lat="47.28299" lon="-1.54783">
        <ele>80</ele>
        <time>2022-04-10T10:20:05Z</time>
      </trkpt>
      <trkpt lat="47.28299" lon="-1.54785">
        <ele>80</ele>
        <time>2022-04-10T10:20:06Z</time>
      </trkpt>
      <trkpt lat="47.283" lon="-1.54787">
        <ele>80</ele>
        <time>2022-04-10T10:20:07Z</time>
      </trkpt>
      <trkpt lat="47.283" lon="-1.54788">
        <ele>81</ele>
        <time>2022-04-10T10:20:08Z</time>
      </trkpt>
      <trkpt lat="47.28299" lon="-1.5479">
        <ele>80</ele>
        <time>2022-04-10T10:20:09Z</time>
      </trkpt>
      <trkpt lat="47.28299" lon="-1.54792">
        <ele>80</ele>
        <time>2022-04-10T10:20:10Z</time>
      </trkpt>
      <trkpt lat="47.28299" lon="-1.54793">
        <ele>79</ele>
        <time>2022-04-10T10:20:11Z</time>
      </trkpt>
      <trkpt lat="47.28299" lon="-1.54795">
        <ele>79</ele>
        <time>2022-04-10T10:20:12Z</time>
      </trkpt>
      <trkpt lat="47.28299" lon="-1.54796">
        <ele>79</ele>
        <time>2022-04-10T10:20:13Z</time>
      </trkpt>
      <trkpt lat="47.28301" lon="-1.54797">
        <ele>79</ele>
        <time>2022-04-10T10:20:14Z</time>
      </trkpt>
      <trkpt lat="47.28301" lon="-1.54798">
        <ele>79</ele>
        <time>2022-04-10T10:20:15Z</time>
      </trkpt>
      <trkpt lat="47.28302" lon="-1.54799">
        <ele>78</ele>
        <time>2022-04-10T10:20:16Z</time>
      </trkpt>
      <trkpt lat="47.28302" lon="-1.54799">
        <ele>78</ele>
        <time>2022-04-10T10:20:17Z</time>
      </trkpt>
      <trkpt lat="47.28303" lon="-1.548">
        <ele>78</ele>
        <time>2022-04-10T10:20:18Z</time>
      </trkpt>
      <trkpt lat="47.28304" lon="-1.54801">
        <ele>77</ele>
        <time>2022-04-10T10:20:19Z</time>
      </trkpt>
      <trkpt lat="47.28304" lon="-1.54802">
        <ele>77</ele>
        <time>2022-04-10T10:20:20Z</time>
      </trkpt>
      <trkpt lat="47.28304" lon="-1.54803">
        <ele>77</ele>
        <time>2022-04-10T10:20:21Z</time>
      </trkpt>
      <trkpt lat="47.28304" lon="-1.54805">
        <ele>77</ele>
        <time>2022-04-10T10:20:22Z</time>
      </trkpt>
      <trkpt lat="47.28304" lon="-1.54805">
        <ele>77</ele>
        <time>2022-04-10T10:20:23Z</time>
      </trkpt>
      <trkpt lat="47.28304" lon="-1.54806">
        <ele>77</ele>
        <time>2022-04-10T10:20:24Z</time>
      </trkpt>
      <trkpt lat="47.28304" lon="-1.54807">
        <ele>77</ele>
        <time>2022-04-10T10:20:25Z</time>
      </trkpt>
      <trkpt lat="47.28304" lon="-1.54808">
        <ele>78</ele>
        <time>2022-04-10T10:20:26Z</time>
      </trkpt>
      <trkpt lat="47.28305" lon="-1.54809">
        <ele>78</ele>
        <time>2022-04-10T10:20:27Z</time>
      </trkpt>
      <trkpt lat="47.28305" lon="-1.5481">
        <ele>77</ele>
        <time>2022-04-10T10:20:28Z</time>
      </trkpt>
      <trkpt lat="47.28306" lon="-1.54811">
        <ele>77</ele>
        <time>2022-04-10T10:20:29Z</time>
      </trkpt>
      <trkpt lat="47.28307" lon="-1.54811">
        <ele>76</ele>
        <time>2022-04-10T10:20:30Z</time>
      </trkpt>
      <trkpt lat="47.28307" lon="-1.54811">
        <ele>76</ele>
        <time>2022-04-10T10:20:31Z</time>
      </trkpt>
      <trkpt lat="47.28307" lon="-1.54811">
        <ele>76</ele>
        <time>2022-04-10T10:20:32Z</time>
      </trkpt>
      <trkpt lat="47.28307" lon="-1.54811">
        <ele>76</ele>
        <time>2022-04-10T10:20:32Z</time>
      </trkpt>
      <trkpt lat="47.28307" lon="-1.54811">
        <ele>76</ele>
        <time>2022-04-10T10:20:32Z</time>
      </trkpt>
      <trkpt lat="47.28309" lon="-1.54817">
        <ele>82</ele>
        <time>2022-04-10T10:21:30Z</time>
      </trkpt>
      <trkpt lat="47.28309" lon="-1.54818">
        <ele>83</ele>
        <time>2022-04-10T10:21:31Z</time>
      </trkpt>
      <trkpt lat="47.2831" lon="-1.54819">
        <ele>83</ele>
        <time>2022-04-10T10:21:32Z</time>
      </trkpt>
      <trkpt lat="47.2831" lon="-1.54819">
        <ele>83</ele>
        <time>2022-04-10T10:21:33Z</time>
      </trkpt>
      <trkpt lat="47.2831" lon="-1.54819">
        <ele>83</ele>
        <time>2022-04-10T10:21:34Z</time>
      </trkpt>
      <trkpt lat="47.2831" lon="-1.54821">
        <ele>84</ele>
        <time>2022-04-10T10:21:35Z</time>
      </trkpt>
      <trkpt lat="47.28309" lon="-1.54822">
        <ele>84</ele>
        <time>2022-04-10T10:21:36Z</time>
      </trkpt>
      <trkpt lat="47.28309" lon="-1.54823">
        <ele>85</ele>
        <time>2022-04-10T10:21:37Z</time>
      </trkpt>
      <trkpt lat="47.28309" lon="-1.54824">
        <ele>86</ele>
        <time>2022-04-10T10:21:38Z</time>
      </trkpt>
      <trkpt lat="47.28309" lon="-1.54826">
        <ele>86</ele>
        <time>2022-04-10T10:21:39Z</time>
      </trkpt>
      <trkpt lat="47.28309" lon="-1.54827">
        <ele>86</ele>
        <time>2022-04-10T10:21:40Z</time>
      </trkpt>
      <trkpt lat="47.28309" lon="-1.54829">
        <ele>86</ele>
        <time>2022-04-10T10:21:41Z</time>
      </trkpt>
      <trkpt lat="47.28308" lon="-1.54832">
        <ele>87</ele>
        <time>2022-04-10T10:21:42Z</time>
      </trkpt>
      <trkpt lat="47.28308" lon="-1.54834">
        <ele>86</ele>
        <time>2022-04-10T10:21:43Z</time>
      </trkpt>
      <trkpt lat="47.28308" lon="-1.54837">
        <ele>86</ele>
        <time>2022-04-10T10:21:44Z</time>
      </trkpt>
      <trkpt lat="47.28307" lon="-1.54838">
        <ele>86</ele>
        <time>2022-04-10T10:21:45Z</time>
      </trkpt>
      <trkpt lat="47.28306" lon="-1.5484">
        <ele>85</ele>
        <time>2022-04-10T10:21:46Z</time>
      </trkpt>
      <trkpt lat="47.28306" lon="-1.54842">
        <ele>85</ele>
        <time>2022-04-10T10:21:47Z</time>
      </trkpt>
      <trkpt lat="47.28306" lon="-1.54844">
        <ele>85</ele>
        <time>2022-04-10T10:21:48Z</time>
      </trkpt>
      <trkpt lat="47.28305" lon="-1.54845">
        <ele>84</ele>
        <time>2022-04-10T10:21:49Z</time>
      </trkpt>
      <trkpt lat="47.28305" lon="-1.54846">
        <ele>84</ele>
        <time>2022-04-10T10:21:50Z</time>
      </trkpt>
      <trkpt lat="47.28306" lon="-1.54847">
        <ele>84</ele>
        <time>2022-04-10T10:21:51Z</time>
      </trkpt>
      <trkpt lat="47.28306" lon="-1.54848">
        <ele>84</ele>
        <time>2022-04-10T10:21:52Z</time>
      </trkpt>
      <trkpt lat="47.28306" lon="-1.54849">
        <ele>83</ele>
        <time>2022-04-10T10:21:53Z</time>
      </trkpt>
      <trkpt lat="47.28307" lon="-1.54851">
        <ele>83</ele>
        <time>2022-04-10T10:21:54Z</time>
      </trkpt>
      <trkpt lat="47.28306" lon="-1.54853">
        <ele>83</ele>
        <time>2022-04-10T10:21:55Z</time>
      </trkpt>
      <trkpt lat="47.28306" lon="-1.54855">
        <ele>83</ele>
        <time>2022-04-10T10:21:56Z</time>
      </trkpt>
      <trkpt lat="47.28306" lon="-1.54856">
        <ele>82</ele>
        <time>2022-04-10T10:21:57Z</time>
      </trkpt>
      <trkpt lat="47.28306" lon="-1.54858">
        <ele>82</ele>
        <time>2022-04-10T10:21:58Z</time>
      </trkpt>
      <trkpt lat="47.28305" lon="-1.54859">
        <ele>82</ele>
        <time>2022-04-10T10:21:59Z</time>
      </trkpt>
      <trkpt lat="47.28305" lon="-1.54861">
        <ele>82</ele>
        <time>2022-04-10T10:22:00Z</time>
      </trkpt>
      <trkpt lat="47.28304" lon="-1.54862">
        <ele>82</ele>
        <time>2022-04-10T10:22:01Z</time>
      </trkpt>
      <trkpt lat="47.28304" lon="-1.54863">
        <ele>81</ele>
        <time>2022-04-10T10:22:02Z</time>
      </trkpt>
      <trkpt lat="47.28304" lon="-1.54865">
        <ele>81</ele>
        <time>2022-04-10T10:22:03Z</time>
      </trkpt>
      <trkpt lat="47.28304" lon="-1.54866">
        <ele>81</ele>
        <time>2022-04-10T10:22:04Z</time>
      </trkpt>
      <trkpt lat="47.28304" lon="-1.54867">
        <ele>80</ele>
        <time>2022-04-10T10:22:05Z</time>
      </trkpt>
      <trkpt lat="47.28303" lon="-1.54869">
        <ele>81</ele>
        <time>2022-04-10T10:22:06Z</time>
      </trkpt>
      <trkpt lat="47.28303" lon="-1.5487">
        <ele>80</ele>
        <time>2022-04-10T10:22:07Z</time>
      </trkpt>
      <trkpt lat="47.28303" lon="-1.54872">
        <ele>81</ele>
        <time>2022-04-10T10:22:08Z</time>
      </trkpt>
      <trkpt lat="47.28304" lon="-1.54873">
        <ele>80</ele>
        <time>2022-04-10T10:22:09Z</time>
      </trkpt>
      <trkpt lat="47.28304" lon="-1.54874">
        <ele>80</ele>
        <time>2022-04-10T10:22:10Z</time>
      </trkpt>
      <trkpt lat="47.28304" lon="-1.54875">
        <ele>81</ele>
        <time>2022-04-10T10:22:11Z</time>
      </trkpt>
      <trkpt lat="47.28304" lon="-1.54876">
        <ele>81</ele>
        <time>2022-04-10T10:22:12Z</time>
      </trkpt>
      <trkpt lat="47.28304" lon="-1.54878">
        <ele>81</ele>
        <time>2022-04-10T10:22:13Z</time>
      </trkpt>
      <trkpt lat="47.28302" lon="-1.5488">
        <ele>81</ele>
        <time>2022-04-10T10:22:14Z</time>
      </trkpt>
      <trkpt lat="47.28303" lon="-1.54881">
        <ele>81</ele>
        <time>2022-04-10T10:22:15Z</time>
      </trkpt>
      <trkpt lat="47.28303" lon="-1.54882">
        <ele>81</ele>
        <time>2022-04-10T10:22:16Z</time>
      </trkpt>
      <trkpt lat="47.28303" lon="-1.54884">
        <ele>81</ele>
        <time>2022-04-10T10:22:17Z</time>
      </trkpt>
      <trkpt lat="47.28303" lon="-1.54885">
        <ele>81</ele>
        <time>2022-04-10T10:22:18Z</time>
      </trkpt>
      <trkpt lat="47.28303" lon="-1.54887">
        <ele>81</ele>
        <time>2022-04-10T10:22:19Z</time>
      </trkpt>
      <trkpt lat="47.28303" lon="-1.54888">
        <ele>81</ele>
        <time>2022-04-10T10:22:20Z</time>
      </trkpt>
      <trkpt lat="47.28303" lon="-1.5489">
        <ele>81</ele>
        <time>2022-04-10T10:22:21Z</time>
      </trkpt>
      <trkpt lat="47.28303" lon="-1.54891">
        <ele>82</ele>
        <time>2022-04-10T10:22:22Z</time>
      </trkpt>
      <trkpt lat="47.28303" lon="-1.54893">
        <ele>82</ele>
        <time>2022-04-10T10:22:23Z</time>
      </trkpt>
      <trkpt lat="47.28304" lon="-1.54895">
        <ele>82</ele>
        <time>2022-04-10T10:22:24Z</time>
      </trkpt>
      <trkpt lat="47.28304" lon="-1.54896">
        <ele>81</ele>
        <time>2022-04-10T10:22:25Z</time>
      </trkpt>
      <trkpt lat="47.28304" lon="-1.54898">
        <ele>81</ele>
        <time>2022-04-10T10:22:26Z</time>
      </trkpt>
      <trkpt lat="47.28304" lon="-1.549">
        <ele>81</ele>
        <time>2022-04-10T10:22:27Z</time>
      </trkpt>
      <trkpt lat="47.28305" lon="-1.54902">
        <ele>80</ele>
        <time>2022-04-10T10:22:28Z</time>
      </trkpt>
      <trkpt lat="47.28305" lon="-1.54904">
        <ele>81</ele>
        <time>2022-04-10T10:22:29Z</time>
      </trkpt>
      <trkpt lat="47.28305" lon="-1.54906">
        <ele>81</ele>
        <time>2022-04-10T10:22:30Z</time>
      </trkpt>
      <trkpt lat="47.28306" lon="-1.54908">
        <ele>80</ele>
        <time>2022-04-10T10:22:31Z</time>
      </trkpt>
      <trkpt lat="47.28306" lon="-1.5491">
        <ele>79</ele>
        <time>2022-04-10T10:22:32Z</time>
      </trkpt>
      <trkpt lat="47.28306" lon="-1.54912">
        <ele>79</ele>
        <time>2022-04-10T10:22:33Z</time>
      </trkpt>
      <trkpt lat="47.28306" lon="-1.54913">
        <ele>79</ele>
        <time>2022-04-10T10:22:34Z</time>
      </trkpt>
      <trkpt lat="47.28307" lon="-1.54915">
        <ele>79</ele>
        <time>2022-04-10T10:22:35Z</time>
      </trkpt>
      <trkpt lat="47.28307" lon="-1.54917">
        <ele>79</ele>
        <time>2022-04-10T10:22:36Z</time>
      </trkpt>
      <trkpt lat="47.28307" lon="-1.54919">
        <ele>79</ele>
        <time>2022-04-10T10:22:37Z</time>
      </trkpt>
      <trkpt lat="47.28307" lon="-1.54921">
        <ele>79</ele>
        <time>2022-04-10T10:22:38Z</time>
      </trkpt>
      <trkpt lat="47.28307" lon="-1.54922">
        <ele>79</ele>
        <time>2022-04-10T10:22:39Z</time>
      </trkpt>
      <trkpt lat="47.28308" lon="-1.54924">
        <ele>79</ele>
        <time>2022-04-10T10:22:40Z</time>
      </trkpt>
      <trkpt lat="47.28308" lon="-1.54926">
        <ele>79</ele>
        <time>2022-04-10T10:22:41Z</time>
      </trkpt>
      <trkpt lat="47.28309" lon="-1.54927">
        <ele>79</ele>
        <time>2022-04-10T10:22:42Z</time>
      </trkpt>
      <trkpt lat="47.28309" lon="-1.54929">
        <ele>79</ele>
        <time>2022-04-10T10:22:43Z</time>
      </trkpt>
      <trkpt lat="47.2831" lon="-1.5493">
        <ele>79</ele>
        <time>2022-04-10T10:22:44Z</time>
      </trkpt>
      <trkpt lat="47.2831" lon="-1.54932">
        <ele>79</ele>
        <time>2022-04-10T10:22:45Z</time>
      </trkpt>
      <trkpt lat="47.28311" lon="-1.54933">
        <ele>79</ele>
        <time>2022-04-10T10:22:46Z</time>
      </trkpt>
      <trkpt lat="47.28312" lon="-1.54934">
        <ele>78</ele>
        <time>2022-04-10T10:22:47Z</time>
      </trkpt>
      <trkpt lat="47.28312" lon="-1.54934">
        <ele>78</ele>
        <time>2022-04-10T10:22:48Z</time>
      </trkpt>
      <trkpt lat="47.28313" lon="-1.54935">
        <ele>78</ele>
        <time>2022-04-10T10:22:49Z</time>
      </trkpt>
      <trkpt lat="47.28313" lon="-1.54936">
        <ele>77</ele>
        <time>2022-04-10T10:22:50Z</time>
      </trkpt>
      <trkpt lat="47.28315" lon="-1.54937">
        <ele>77</ele>
        <time>2022-04-10T10:22:51Z</time>
      </trkpt>
      <trkpt lat="47.28315" lon="-1.54937">
        <ele>77</ele>
        <time>2022-04-10T10:22:52Z</time>
      </trkpt>
      <trkpt lat="47.28316" lon="-1.54938">
        <ele>77</ele>
        <time>2022-04-10T10:22:53Z</time>
      </trkpt>
      <trkpt lat="47.28317" lon="-1.54938">
        <ele>77</ele>
        <time>2022-04-10T10:22:54Z</time>
      </trkpt>
      <trkpt lat="47.28318" lon="-1.54939">
        <ele>77</ele>
        <time>2022-04-10T10:22:55Z</time>
      </trkpt>
      <trkpt lat="47.28318" lon="-1.54939">
        <ele>77</ele>
        <time>2022-04-10T10:22:56Z</time>
      </trkpt>
      <trkpt lat="47.28317" lon="-1.54939">
        <ele>77</ele>
        <time>2022-04-10T10:22:57Z</time>
      </trkpt>
      <trkpt lat="47.28318" lon="-1.54939">
        <ele>76</ele>
        <time>2022-04-10T10:22:58Z</time>
      </trkpt>
      <trkpt lat="47.28318" lon="-1.54938">
        <ele>76</ele>
        <time>2022-04-10T10:22:59Z</time>
      </trkpt>
      <trkpt lat="47.28318" lon="-1.54938">
        <ele>75</ele>
        <time>2022-04-10T10:23:00Z</time>
      </trkpt>
      <trkpt lat="47.28318" lon="-1.54938">
        <ele>75</ele>
        <time>2022-04-10T10:23:01Z</time>
      </trkpt>
      <trkpt lat="47.28318" lon="-1.54938">
        <ele>75</ele>
        <time>2022-04-10T10:23:02Z</time>
      </trkpt>
      <trkpt lat="47.28318" lon="-1.54938">
        <ele>75</ele>
        <time>2022-04-10T10:23:02Z</time>
      </trkpt>
      <trkpt lat="47.28322" lon="-1.54942">
        <ele>76</ele>
        <time>2022-04-10T10:23:25Z</time>
      </trkpt>
      <trkpt lat="47.28322" lon="-1.54944">
        <ele>77</ele>
        <time>2022-04-10T10:23:26Z</time>
      </trkpt>
      <trkpt lat="47.28322" lon="-1.54945">
        <ele>78</ele>
        <time>2022-04-10T10:23:27Z</time>
      </trkpt>
      <trkpt lat="47.28323" lon="-1.54947">
        <ele>78</ele>
        <time>2022-04-10T10:23:28Z</time>
      </trkpt>
      <trkpt lat="47.28323" lon="-1.54948">
        <ele>79</ele>
        <time>2022-04-10T10:23:29Z</time>
      </trkpt>
      <trkpt lat="47.28323" lon="-1.5495">
        <ele>79</ele>
        <time>2022-04-10T10:23:30Z</time>
      </trkpt>
      <trkpt lat="47.28323" lon="-1.54952">
        <ele>79</ele>
        <time>2022-04-10T10:23:31Z</time>
      </trkpt>
      <trkpt lat="47.28323" lon="-1.54953">
        <ele>79</ele>
        <time>2022-04-10T10:23:32Z</time>
      </trkpt>
      <trkpt lat="47.28323" lon="-1.54955">
        <ele>79</ele>
        <time>2022-04-10T10:23:33Z</time>
      </trkpt>
      <trkpt lat="47.28324" lon="-1.54956">
        <ele>79</ele>
        <time>2022-04-10T10:23:34Z</time>
      </trkpt>
      <trkpt lat="47.28324" lon="-1.54958">
        <ele>79</ele>
        <time>2022-04-10T10:23:35Z</time>
      </trkpt>
      <trkpt lat="47.28324" lon="-1.54959">
        <ele>80</ele>
        <time>2022-04-10T10:23:36Z</time>
      </trkpt>
      <trkpt lat="47.28324" lon="-1.54961">
        <ele>80</ele>
        <time>2022-04-10T10:23:37Z</time>
      </trkpt>
      <trkpt lat="47.28324" lon="-1.54963">
        <ele>80</ele>
        <time>2022-04-10T10:23:38Z</time>
      </trkpt>
      <trkpt lat="47.28324" lon="-1.54965">
        <ele>80</ele>
        <time>2022-04-10T10:23:39Z</time>
      </trkpt>
      <trkpt lat="47.28324" lon="-1.54967">
        <ele>81</ele>
        <time>2022-04-10T10:23:40Z</time>
      </trkpt>
      <trkpt lat="47.28324" lon="-1.54968">
        <ele>81</ele>
        <time>2022-04-10T10:23:41Z</time>
      </trkpt>
      <trkpt lat="47.28324" lon="-1.5497">
        <ele>81</ele>
        <time>2022-04-10T10:23:42Z</time>
      </trkpt>
      <trkpt lat="47.28323" lon="-1.54972">
        <ele>81</ele>
        <time>2022-04-10T10:23:43Z</time>
      </trkpt>
      <trkpt lat="47.28323" lon="-1.54973">
        <ele>81</ele>
        <time>2022-04-10T10:23:44Z</time>
      </trkpt>
      <trkpt lat="47.28322" lon="-1.54974">
        <ele>81</ele>
        <time>2022-04-10T10:23:45Z</time>
      </trkpt>
      <trkpt lat="47.28321" lon="-1.54974">
        <ele>82</ele>
        <time>2022-04-10T10:23:46Z</time>
      </trkpt>
      <trkpt lat="47.2832" lon="-1.54975">
        <ele>82</ele>
        <time>2022-04-10T10:23:47Z</time>
      </trkpt>
      <trkpt lat="47.28319" lon="-1.54976">
        <ele>81</ele>
        <time>2022-04-10T10:23:48Z</time>
      </trkpt>
      <trkpt lat="47.28318" lon="-1.54977">
        <ele>81</ele>
        <time>2022-04-10T10:23:49Z</time>
      </trkpt>
      <trkpt lat="47.28317" lon="-1.54978">
        <ele>81</ele>
        <time>2022-04-10T10:23:50Z</time>
      </trkpt>
      <trkpt lat="47.28315" lon="-1.54979">
        <ele>81</ele>
        <time>2022-04-10T10:23:51Z</time>
      </trkpt>
      <trkpt lat="47.28314" lon="-1.5498">
        <ele>81</ele>
        <time>2022-04-10T10:23:52Z</time>
      </trkpt>
      <trkpt lat="47.28313" lon="-1.54981">
        <ele>81</ele>
        <time>2022-04-10T10:23:53Z</time>
      </trkpt>
      <trkpt lat="47.28312" lon="-1.54982">
        <ele>81</ele>
        <time>2022-04-10T10:23:54Z</time>
      </trkpt>
      <trkpt lat="47.28312" lon="-1.54983">
        <ele>81</ele>
        <time>2022-04-10T10:23:55Z</time>
      </trkpt>
      <trkpt lat="47.28311" lon="-1.54985">
        <ele>80</ele>
        <time>2022-04-10T10:23:56Z</time>
      </trkpt>
      <trkpt lat="47.2831" lon="-1.54986">
        <ele>80</ele>
        <time>2022-04-10T10:23:57Z</time>
      </trkpt>
      <trkpt lat="47.28309" lon="-1.54988">
        <ele>80</ele>
        <time>2022-04-10T10:23:58Z</time>
      </trkpt>
      <trkpt lat="47.28309" lon="-1.54989">
        <ele>80</ele>
        <time>2022-04-10T10:23:59Z</time>
      </trkpt>
      <trkpt lat="47.28308" lon="-1.5499">
        <ele>81</ele>
        <time>2022-04-10T10:24:00Z</time>
      </trkpt>
      <trkpt lat="47.28307" lon="-1.54992">
        <ele>81</ele>
        <time>2022-04-10T10:24:01Z</time>
      </trkpt>
      <trkpt lat="47.28307" lon="-1.54993">
        <ele>81</ele>
        <time>2022-04-10T10:24:02Z</time>
      </trkpt>
      <trkpt lat="47.28306" lon="-1.54994">
        <ele>81</ele>
        <time>2022-04-10T10:24:03Z</time>
      </trkpt>
      <trkpt lat="47.28306" lon="-1.54995">
        <ele>82</ele>
        <time>2022-04-10T10:24:04Z</time>
      </trkpt>
      <trkpt lat="47.28305" lon="-1.54996">
        <ele>82</ele>
        <time>2022-04-10T10:24:05Z</time>
      </trkpt>
      <trkpt lat="47.28305" lon="-1.54998">
        <ele>82</ele>
        <time>2022-04-10T10:24:06Z</time>
      </trkpt>
      <trkpt lat="47.28305" lon="-1.54999">
        <ele>81</ele>
        <time>2022-04-10T10:24:07Z</time>
      </trkpt>
      <trkpt lat="47.28304" lon="-1.55">
        <ele>81</ele>
        <time>2022-04-10T10:24:08Z</time>
      </trkpt>
      <trkpt lat="47.28304" lon="-1.55002">
        <ele>82</ele>
        <time>2022-04-10T10:24:09Z</time>
      </trkpt>
      <trkpt lat="47.28304" lon="-1.55003">
        <ele>81</ele>
        <time>2022-04-10T10:24:10Z</time>
      </trkpt>
      <trkpt lat="47.28303" lon="-1.55004">
        <ele>82</ele>
        <time>2022-04-10T10:24:11Z</time>
      </trkpt>
      <trkpt lat="47.28303" lon="-1.55005">
        <ele>82</ele>
        <time>2022-04-10T10:24:12Z</time>
      </trkpt>
      <trkpt lat="47.28303" lon="-1.55006">
        <ele>82</ele>
        <time>2022-04-10T10:24:13Z</time>
      </trkpt>
      <trkpt lat="47.28303" lon="-1.55006">
        <ele>83</ele>
        <time>2022-04-10T10:24:14Z</time>
      </trkpt>
      <trkpt lat="47.28303" lon="-1.55006">
        <ele>83</ele>
        <time>2022-04-10T10:24:15Z</time>
      </trkpt>
      <trkpt lat="47.28303" lon="-1.55006">
        <ele>83</ele>
        <time>2022-04-10T10:24:16Z</time>
      </trkpt>
      <trkpt lat="47.28303" lon="-1.55006">
        <ele>83</ele>
        <time>2022-04-10T10:24:17Z</time>
      </trkpt>
      <trkpt lat="47.28303" lon="-1.55006">
        <ele>83</ele>
        <time>2022-04-10T10:24:17Z</time>
      </trkpt>
      <trkpt lat="47.28303" lon="-1.55006">
        <ele>83</ele>
        <time>2022-04-10T10:24:17Z</time>
      </trkpt>
      <trkpt lat="47.28299" lon="-1.55009">
        <ele>86</ele>
        <time>2022-04-10T10:24:25Z</time>
      </trkpt>
      <trkpt lat="47.28297" lon="-1.55009">
        <ele>86</ele>
        <time>2022-04-10T10:24:26Z</time>
      </trkpt>
      <trkpt lat="47.28296" lon="-1.55008">
        <ele>86</ele>
        <time>2022-04-10T10:24:27Z</time>
      </trkpt>
      <trkpt lat="47.28294" lon="-1.55008">
        <ele>86</ele>
        <time>2022-04-10T10:24:28Z</time>
      </trkpt>
      <trkpt lat="47.28293" lon="-1.55007">
        <ele>86</ele>
        <time>2022-04-10T10:24:29Z</time>
      </trkpt>
      <trkpt lat="47.28293" lon="-1.55007">
        <ele>87</ele>
        <time>2022-04-10T10:24:30Z</time>
      </trkpt>
      <trkpt lat="47.28291" lon="-1.55006">
        <ele>87</ele>
        <time>2022-04-10T10:24:31Z</time>
      </trkpt>
      <trkpt lat="47.28291" lon="-1.55005">
        <ele>87</ele>
        <time>2022-04-10T10:24:32Z</time>
      </trkpt>
      <trkpt lat="47.2829" lon="-1.55003">
        <ele>87</ele>
        <time>2022-04-10T10:24:33Z</time>
      </trkpt>
      <trkpt lat="47.28289" lon="-1.55002">
        <ele>88</ele>
        <time>2022-04-10T10:24:34Z</time>
      </trkpt>
      <trkpt lat="47.28288" lon="-1.55001">
        <ele>88</ele>
        <time>2022-04-10T10:24:35Z</time>
      </trkpt>
      <trkpt lat="47.28288" lon="-1.55">
        <ele>88</ele>
        <time>2022-04-10T10:24:36Z</time>
      </trkpt>
      <trkpt lat="47.28286" lon="-1.54998">
        <ele>87</ele>
        <time>2022-04-10T10:24:37Z</time>
      </trkpt>
      <trkpt lat="47.28286" lon="-1.54997">
        <ele>88</ele>
        <time>2022-04-10T10:24:38Z</time>
      </trkpt>
      <trkpt lat="47.28285" lon="-1.54996">
        <ele>88</ele>
        <time>2022-04-10T10:24:39Z</time>
      </trkpt>
      <trkpt lat="47.28284" lon="-1.54995">
        <ele>88</ele>
        <time>2022-04-10T10:24:40Z</time>
      </trkpt>
      <trkpt lat="47.28283" lon="-1.54993">
        <ele>88</ele>
        <time>2022-04-10T10:24:41Z</time>
      </trkpt>
      <trkpt lat="47.28283" lon="-1.54992">
        <ele>88</ele>
        <time>2022-04-10T10:24:42Z</time>
      </trkpt>
      <trkpt lat="47.28282" lon="-1.5499">
        <ele>88</ele>
        <time>2022-04-10T10:24:43Z</time>
      </trkpt>
      <trkpt lat="47.28281" lon="-1.54989">
        <ele>88</ele>
        <time>2022-04-10T10:24:44Z</time>
      </trkpt>
      <trkpt lat="47.28281" lon="-1.54987">
        <ele>87</ele>
        <time>2022-04-10T10:24:45Z</time>
      </trkpt>
      <trkpt lat="47.2828" lon="-1.54986">
        <ele>87</ele>
        <time>2022-04-10T10:24:46Z</time>
      </trkpt>
      <trkpt lat="47.28279" lon="-1.54986">
        <ele>86</ele>
        <time>2022-04-10T10:24:47Z</time>
      </trkpt>
      <trkpt lat="47.28278" lon="-1.54985">
        <ele>86</ele>
        <time>2022-04-10T10:24:48Z</time>
      </trkpt>
      <trkpt lat="47.28276" lon="-1.54984">
        <ele>86</ele>
        <time>2022-04-10T10:24:49Z</time>
      </trkpt>
      <trkpt lat="47.28275" lon="-1.54984">
        <ele>86</ele>
        <time>2022-04-10T10:24:50Z</time>
      </trkpt>
      <trkpt lat="47.28274" lon="-1.54984">
        <ele>86</ele>
        <time>2022-04-10T10:24:51Z</time>
      </trkpt>
      <trkpt lat="47.28273" lon="-1.54983">
        <ele>85</ele>
        <time>2022-04-10T10:24:52Z</time>
      </trkpt>
      <trkpt lat="47.28272" lon="-1.54983">
        <ele>85</ele>
        <time>2022-04-10T10:24:53Z</time>
      </trkpt>
      <trkpt lat="47.2827" lon="-1.54983">
        <ele>84</ele>
        <time>2022-04-10T10:24:54Z</time>
      </trkpt>
      <trkpt lat="47.28269" lon="-1.54983">
        <ele>85</ele>
        <time>2022-04-10T10:24:55Z</time>
      </trkpt>
      <trkpt lat="47.28268" lon="-1.54982">
        <ele>85</ele>
        <time>2022-04-10T10:24:56Z</time>
      </trkpt>
      <trkpt lat="47.28267" lon="-1.54982">
        <ele>85</ele>
        <time>2022-04-10T10:24:57Z</time>
      </trkpt>
      <trkpt lat="47.28265" lon="-1.54982">
        <ele>85</ele>
        <time>2022-04-10T10:24:58Z</time>
      </trkpt>
      <trkpt lat="47.28264" lon="-1.54982">
        <ele>85</ele>
        <time>2022-04-10T10:24:59Z</time>
      </trkpt>
      <trkpt lat="47.28263" lon="-1.54982">
        <ele>85</ele>
        <time>2022-04-10T10:25:00Z</time>
      </trkpt>
      <trkpt lat="47.28262" lon="-1.54981">
        <ele>85</ele>
        <time>2022-04-10T10:25:01Z</time>
      </trkpt>
      <trkpt lat="47.2826" lon="-1.54982">
        <ele>85</ele>
        <time>2022-04-10T10:25:02Z</time>
      </trkpt>
      <trkpt lat="47.28259" lon="-1.54982">
        <ele>85</ele>
        <time>2022-04-10T10:25:03Z</time>
      </trkpt>
      <trkpt lat="47.28257" lon="-1.54982">
        <ele>85</ele>
        <time>2022-04-10T10:25:04Z</time>
      </trkpt>
      <trkpt lat="47.28256" lon="-1.54982">
        <ele>85</ele>
        <time>2022-04-10T10:25:05Z</time>
      </trkpt>
      <trkpt lat="47.28255" lon="-1.54982">
        <ele>85</ele>
        <time>2022-04-10T10:25:06Z</time>
      </trkpt>
      <trkpt lat="47.28254" lon="-1.54982">
        <ele>85</ele>
        <time>2022-04-10T10:25:07Z</time>
      </trkpt>
      <trkpt lat="47.28253" lon="-1.54981">
        <ele>85</ele>
        <time>2022-04-10T10:25:08Z</time>
      </trkpt>
      <trkpt lat="47.28252" lon="-1.54981">
        <ele>85</ele>
        <time>2022-04-10T10:25:09Z</time>
      </trkpt>
      <trkpt lat="47.28251" lon="-1.54981">
        <ele>85</ele>
        <time>2022-04-10T10:25:10Z</time>
      </trkpt>
      <trkpt lat="47.28251" lon="-1.54981">
        <ele>85</ele>
        <time>2022-04-10T10:25:11Z</time>
      </trkpt>
      <trkpt lat="47.28249" lon="-1.54981">
        <ele>85</ele>
        <time>2022-04-10T10:25:12Z</time>
      </trkpt>
      <trkpt lat="47.28248" lon="-1.54981">
        <ele>85</ele>
        <time>2022-04-10T10:25:13Z</time>
      </trkpt>
      <trkpt lat="47.28247" lon="-1.54981">
        <ele>85</ele>
        <time>2022-04-10T10:25:14Z</time>
      </trkpt>
      <trkpt lat="47.28246" lon="-1.5498">
        <ele>85</ele>
        <time>2022-04-10T10:25:15Z</time>
      </trkpt>
      <trkpt lat="47.28245" lon="-1.5498">
        <ele>85</ele>
        <time>2022-04-10T10:25:16Z</time>
      </trkpt>
      <trkpt lat="47.28244" lon="-1.54979">
        <ele>85</ele>
        <time>2022-04-10T10:25:17Z</time>
      </trkpt>
      <trkpt lat="47.28243" lon="-1.5498">
        <ele>85</ele>
        <time>2022-04-10T10:25:18Z</time>
      </trkpt>
      <trkpt lat="47.28241" lon="-1.5498">
        <ele>85</ele>
        <time>2022-04-10T10:25:19Z</time>
      </trkpt>
      <trkpt lat="47.2824" lon="-1.54979">
        <ele>85</ele>
        <time>2022-04-10T10:25:20Z</time>
      </trkpt>
      <trkpt lat="47.28239" lon="-1.54978">
        <ele>85</ele>
        <time>2022-04-10T10:25:21Z</time>
      </trkpt>
      <trkpt lat="47.28237" lon="-1.54978">
        <ele>85</ele>
        <time>2022-04-10T10:25:22Z</time>
      </trkpt>
      <trkpt lat="47.28236" lon="-1.54977">
        <ele>85</ele>
        <time>2022-04-10T10:25:23Z</time>
      </trkpt>
      <trkpt lat="47.28234" lon="-1.54977">
        <ele>85</ele>
        <time>2022-04-10T10:25:24Z</time>
      </trkpt>
      <trkpt lat="47.28233" lon="-1.54977">
        <ele>85</ele>
        <time>2022-04-10T10:25:25Z</time>
      </trkpt>
      <trkpt lat="47.28231" lon="-1.54977">
        <ele>85</ele>
        <time>2022-04-10T10:25:26Z</time>
      </trkpt>
      <trkpt lat="47.2823" lon="-1.54977">
        <ele>85</ele>
        <time>2022-04-10T10:25:27Z</time>
      </trkpt>
      <trkpt lat="47.28228" lon="-1.54978">
        <ele>85</ele>
        <time>2022-04-10T10:25:28Z</time>
      </trkpt>
      <trkpt lat="47.28227" lon="-1.54977">
        <ele>85</ele>
        <time>2022-04-10T10:25:29Z</time>
      </trkpt>
      <trkpt lat="47.28226" lon="-1.54977">
        <ele>85</ele>
        <time>2022-04-10T10:25:30Z</time>
      </trkpt>
      <trkpt lat="47.28224" lon="-1.54977">
        <ele>85</ele>
        <time>2022-04-10T10:25:31Z</time>
      </trkpt>
      <trkpt lat="47.28223" lon="-1.54977">
        <ele>85</ele>
        <time>2022-04-10T10:25:32Z</time>
      </trkpt>
      <trkpt lat="47.28222" lon="-1.54976">
        <ele>85</ele>
        <time>2022-04-10T10:25:33Z</time>
      </trkpt>
      <trkpt lat="47.28221" lon="-1.54976">
        <ele>86</ele>
        <time>2022-04-10T10:25:34Z</time>
      </trkpt>
      <trkpt lat="47.2822" lon="-1.54976">
        <ele>86</ele>
        <time>2022-04-10T10:25:35Z</time>
      </trkpt>
      <trkpt lat="47.28219" lon="-1.54975">
        <ele>86</ele>
        <time>2022-04-10T10:25:36Z</time>
      </trkpt>
      <trkpt lat="47.28218" lon="-1.54975">
        <ele>86</ele>
        <time>2022-04-10T10:25:37Z</time>
      </trkpt>
      <trkpt lat="47.28218" lon="-1.54974">
        <ele>87</ele>
        <time>2022-04-10T10:25:38Z</time>
      </trkpt>
      <trkpt lat="47.28217" lon="-1.54973">
        <ele>87</ele>
        <time>2022-04-10T10:25:39Z</time>
      </trkpt>
      <trkpt lat="47.28215" lon="-1.54973">
        <ele>86</ele>
        <time>2022-04-10T10:25:40Z</time>
      </trkpt>
      <trkpt lat="47.28214" lon="-1.54973">
        <ele>86</ele>
        <time>2022-04-10T10:25:41Z</time>
      </trkpt>
      <trkpt lat="47.28213" lon="-1.54973">
        <ele>87</ele>
        <time>2022-04-10T10:25:42Z</time>
      </trkpt>
      <trkpt lat="47.28212" lon="-1.54973">
        <ele>87</ele>
        <time>2022-04-10T10:25:43Z</time>
      </trkpt>
      <trkpt lat="47.2821" lon="-1.54973">
        <ele>87</ele>
        <time>2022-04-10T10:25:44Z</time>
      </trkpt>
      <trkpt lat="47.28209" lon="-1.54973">
        <ele>86</ele>
        <time>2022-04-10T10:25:45Z</time>
      </trkpt>
      <trkpt lat="47.28208" lon="-1.54974">
        <ele>86</ele>
        <time>2022-04-10T10:25:46Z</time>
      </trkpt>
      <trkpt lat="47.28207" lon="-1.54973">
        <ele>87</ele>
        <time>2022-04-10T10:25:47Z</time>
      </trkpt>
      <trkpt lat="47.28207" lon="-1.54973">
        <ele>88</ele>
        <time>2022-04-10T10:25:48Z</time>
      </trkpt>
      <trkpt lat="47.28206" lon="-1.54972">
        <ele>88</ele>
        <time>2022-04-10T10:25:49Z</time>
      </trkpt>
      <trkpt lat="47.28205" lon="-1.54972">
        <ele>88</ele>
        <time>2022-04-10T10:25:50Z</time>
      </trkpt>
      <trkpt lat="47.28204" lon="-1.54972">
        <ele>88</ele>
        <time>2022-04-10T10:25:51Z</time>
      </trkpt>
      <trkpt lat="47.28203" lon="-1.54971">
        <ele>88</ele>
        <time>2022-04-10T10:25:52Z</time>
      </trkpt>
      <trkpt lat="47.28202" lon="-1.54971">
        <ele>88</ele>
        <time>2022-04-10T10:25:53Z</time>
      </trkpt>
      <trkpt lat="47.28201" lon="-1.5497">
        <ele>89</ele>
        <time>2022-04-10T10:25:54Z</time>
      </trkpt>
      <trkpt lat="47.28199" lon="-1.5497">
        <ele>89</ele>
        <time>2022-04-10T10:25:55Z</time>
      </trkpt>
      <trkpt lat="47.28198" lon="-1.5497">
        <ele>89</ele>
        <time>2022-04-10T10:25:56Z</time>
      </trkpt>
      <trkpt lat="47.28197" lon="-1.5497">
        <ele>88</ele>
        <time>2022-04-10T10:25:57Z</time>
      </trkpt>
      <trkpt lat="47.28195" lon="-1.54969">
        <ele>88</ele>
        <time>2022-04-10T10:25:58Z</time>
      </trkpt>
      <trkpt lat="47.28194" lon="-1.54969">
        <ele>88</ele>
        <time>2022-04-10T10:25:59Z</time>
      </trkpt>
      <trkpt lat="47.28193" lon="-1.54969">
        <ele>88</ele>
        <time>2022-04-10T10:26:00Z</time>
      </trkpt>
      <trkpt lat="47.28191" lon="-1.54969">
        <ele>88</ele>
        <time>2022-04-10T10:26:01Z</time>
      </trkpt>
      <trkpt lat="47.2819" lon="-1.54969">
        <ele>87</ele>
        <time>2022-04-10T10:26:02Z</time>
      </trkpt>
      <trkpt lat="47.28189" lon="-1.54969">
        <ele>87</ele>
        <time>2022-04-10T10:26:03Z</time>
      </trkpt>
      <trkpt lat="47.28188" lon="-1.5497">
        <ele>87</ele>
        <time>2022-04-10T10:26:04Z</time>
      </trkpt>
      <trkpt lat="47.28186" lon="-1.5497">
        <ele>87</ele>
        <time>2022-04-10T10:26:05Z</time>
      </trkpt>
      <trkpt lat="47.28185" lon="-1.5497">
        <ele>86</ele>
        <time>2022-04-10T10:26:06Z</time>
      </trkpt>
      <trkpt lat="47.28184" lon="-1.5497">
        <ele>85</ele>
        <time>2022-04-10T10:26:07Z</time>
      </trkpt>
      <trkpt lat="47.28183" lon="-1.5497">
        <ele>85</ele>
        <time>2022-04-10T10:26:08Z</time>
      </trkpt>
      <trkpt lat="47.28182" lon="-1.54969">
        <ele>85</ele>
        <time>2022-04-10T10:26:09Z</time>
      </trkpt>
      <trkpt lat="47.28181" lon="-1.54969">
        <ele>85</ele>
        <time>2022-04-10T10:26:10Z</time>
      </trkpt>
      <trkpt lat="47.2818" lon="-1.54968">
        <ele>85</ele>
        <time>2022-04-10T10:26:11Z</time>
      </trkpt>
      <trkpt lat="47.28178" lon="-1.54968">
        <ele>85</ele>
        <time>2022-04-10T10:26:12Z</time>
      </trkpt>
      <trkpt lat="47.28177" lon="-1.54968">
        <ele>85</ele>
        <time>2022-04-10T10:26:13Z</time>
      </trkpt>
      <trkpt lat="47.28176" lon="-1.54968">
        <ele>84</ele>
        <time>2022-04-10T10:26:14Z</time>
      </trkpt>
      <trkpt lat="47.28175" lon="-1.54968">
        <ele>84</ele>
        <time>2022-04-10T10:26:15Z</time>
      </trkpt>
      <trkpt lat="47.28173" lon="-1.54967">
        <ele>84</ele>
        <time>2022-04-10T10:26:16Z</time>
      </trkpt>
      <trkpt lat="47.28172" lon="-1.54967">
        <ele>84</ele>
        <time>2022-04-10T10:26:17Z</time>
      </trkpt>
      <trkpt lat="47.28171" lon="-1.54966">
        <ele>83</ele>
        <time>2022-04-10T10:26:18Z</time>
      </trkpt>
      <trkpt lat="47.2817" lon="-1.54966">
        <ele>83</ele>
        <time>2022-04-10T10:26:19Z</time>
      </trkpt>
      <trkpt lat="47.28169" lon="-1.54966">
        <ele>83</ele>
        <time>2022-04-10T10:26:20Z</time>
      </trkpt>
      <trkpt lat="47.28168" lon="-1.54966">
        <ele>83</ele>
        <time>2022-04-10T10:26:21Z</time>
      </trkpt>
      <trkpt lat="47.28167" lon="-1.54965">
        <ele>83</ele>
        <time>2022-04-10T10:26:22Z</time>
      </trkpt>
      <trkpt lat="47.28166" lon="-1.54965">
        <ele>83</ele>
        <time>2022-04-10T10:26:23Z</time>
      </trkpt>
      <trkpt lat="47.28165" lon="-1.54964">
        <ele>83</ele>
        <time>2022-04-10T10:26:24Z</time>
      </trkpt>
      <trkpt lat="47.28164" lon="-1.54964">
        <ele>84</ele>
        <time>2022-04-10T10:26:25Z</time>
      </trkpt>
      <trkpt lat="47.28162" lon="-1.54964">
        <ele>84</ele>
        <time>2022-04-10T10:26:26Z</time>
      </trkpt>
      <trkpt lat="47.28161" lon="-1.54964">
        <ele>84</ele>
        <time>2022-04-10T10:26:27Z</time>
      </trkpt>
      <trkpt lat="47.2816" lon="-1.54964">
        <ele>84</ele>
        <time>2022-04-10T10:26:28Z</time>
      </trkpt>
      <trkpt lat="47.28158" lon="-1.54964">
        <ele>84</ele>
        <time>2022-04-10T10:26:29Z</time>
      </trkpt>
      <trkpt lat="47.28157" lon="-1.54963">
        <ele>84</ele>
        <time>2022-04-10T10:26:30Z</time>
      </trkpt>
      <trkpt lat="47.28156" lon="-1.54963">
        <ele>84</ele>
        <time>2022-04-10T10:26:31Z</time>
      </trkpt>
      <trkpt lat="47.28155" lon="-1.54962">
        <ele>84</ele>
        <time>2022-04-10T10:26:32Z</time>
      </trkpt>
      <trkpt lat="47.28153" lon="-1.54962">
        <ele>84</ele>
        <time>2022-04-10T10:26:33Z</time>
      </trkpt>
      <trkpt lat="47.28152" lon="-1.54962">
        <ele>84</ele>
        <time>2022-04-10T10:26:34Z</time>
      </trkpt>
      <trkpt lat="47.28151" lon="-1.54962">
        <ele>84</ele>
        <time>2022-04-10T10:26:35Z</time>
      </trkpt>
      <trkpt lat="47.2815" lon="-1.54962">
        <ele>84</ele>
        <time>2022-04-10T10:26:36Z</time>
      </trkpt>
      <trkpt lat="47.28149" lon="-1.54961">
        <ele>84</ele>
        <time>2022-04-10T10:26:37Z</time>
      </trkpt>
      <trkpt lat="47.28148" lon="-1.5496">
        <ele>84</ele>
        <time>2022-04-10T10:26:38Z</time>
      </trkpt>
      <trkpt lat="47.28146" lon="-1.5496">
        <ele>84</ele>
        <time>2022-04-10T10:26:40Z</time>
      </trkpt>
      <trkpt lat="47.28145" lon="-1.5496">
        <ele>84</ele>
        <time>2022-04-10T10:26:41Z</time>
      </trkpt>
      <trkpt lat="47.28144" lon="-1.5496">
        <ele>84</ele>
        <time>2022-04-10T10:26:42Z</time>
      </trkpt>
      <trkpt lat="47.28143" lon="-1.54959">
        <ele>85</ele>
        <time>2022-04-10T10:26:43Z</time>
      </trkpt>
      <trkpt lat="47.28142" lon="-1.5496">
        <ele>85</ele>
        <time>2022-04-10T10:26:44Z</time>
      </trkpt>
      <trkpt lat="47.28141" lon="-1.54959">
        <ele>85</ele>
        <time>2022-04-10T10:26:45Z</time>
      </trkpt>
      <trkpt lat="47.2814" lon="-1.54959">
        <ele>85</ele>
        <time>2022-04-10T10:26:46Z</time>
      </trkpt>
      <trkpt lat="47.28139" lon="-1.54959">
        <ele>85</ele>
        <time>2022-04-10T10:26:47Z</time>
      </trkpt>
      <trkpt lat="47.28137" lon="-1.54958">
        <ele>85</ele>
        <time>2022-04-10T10:26:48Z</time>
      </trkpt>
      <trkpt lat="47.28136" lon="-1.54958">
        <ele>86</ele>
        <time>2022-04-10T10:26:49Z</time>
      </trkpt>
      <trkpt lat="47.28135" lon="-1.54958">
        <ele>86</ele>
        <time>2022-04-10T10:26:50Z</time>
      </trkpt>
      <trkpt lat="47.28134" lon="-1.54958">
        <ele>85</ele>
        <time>2022-04-10T10:26:51Z</time>
      </trkpt>
      <trkpt lat="47.28133" lon="-1.54958">
        <ele>85</ele>
        <time>2022-04-10T10:26:52Z</time>
      </trkpt>
      <trkpt lat="47.28132" lon="-1.54958">
        <ele>84</ele>
        <time>2022-04-10T10:26:53Z</time>
      </trkpt>
      <trkpt lat="47.2813" lon="-1.54958">
        <ele>83</ele>
        <time>2022-04-10T10:26:54Z</time>
      </trkpt>
      <trkpt lat="47.28129" lon="-1.54958">
        <ele>83</ele>
        <time>2022-04-10T10:26:55Z</time>
      </trkpt>
      <trkpt lat="47.28128" lon="-1.54957">
        <ele>83</ele>
        <time>2022-04-10T10:26:56Z</time>
      </trkpt>
      <trkpt lat="47.28127" lon="-1.54957">
        <ele>83</ele>
        <time>2022-04-10T10:26:57Z</time>
      </trkpt>
      <trkpt lat="47.28126" lon="-1.54956">
        <ele>83</ele>
        <time>2022-04-10T10:26:58Z</time>
      </trkpt>
      <trkpt lat="47.28125" lon="-1.54956">
        <ele>83</ele>
        <time>2022-04-10T10:26:59Z</time>
      </trkpt>
      <trkpt lat="47.28124" lon="-1.54956">
        <ele>83</ele>
        <time>2022-04-10T10:27:00Z</time>
      </trkpt>
      <trkpt lat="47.28122" lon="-1.54956">
        <ele>83</ele>
        <time>2022-04-10T10:27:01Z</time>
      </trkpt>
      <trkpt lat="47.28122" lon="-1.54956">
        <ele>83</ele>
        <time>2022-04-10T10:27:02Z</time>
      </trkpt>
      <trkpt lat="47.2812" lon="-1.54956">
        <ele>82</ele>
        <time>2022-04-10T10:27:03Z</time>
      </trkpt>
      <trkpt lat="47.2812" lon="-1.54955">
        <ele>83</ele>
        <time>2022-04-10T10:27:04Z</time>
      </trkpt>
      <trkpt lat="47.28119" lon="-1.54955">
        <ele>84</ele>
        <time>2022-04-10T10:27:05Z</time>
      </trkpt>
      <trkpt lat="47.28117" lon="-1.54955">
        <ele>84</ele>
        <time>2022-04-10T10:27:06Z</time>
      </trkpt>
      <trkpt lat="47.28116" lon="-1.54956">
        <ele>84</ele>
        <time>2022-04-10T10:27:07Z</time>
      </trkpt>
      <trkpt lat="47.28115" lon="-1.54956">
        <ele>84</ele>
        <time>2022-04-10T10:27:08Z</time>
      </trkpt>
      <trkpt lat="47.28114" lon="-1.54957">
        <ele>83</ele>
        <time>2022-04-10T10:27:09Z</time>
      </trkpt>
      <trkpt lat="47.28114" lon="-1.54957">
        <ele>83</ele>
        <time>2022-04-10T10:27:10Z</time>
      </trkpt>
      <trkpt lat="47.28112" lon="-1.54958">
        <ele>83</ele>
        <time>2022-04-10T10:27:11Z</time>
      </trkpt>
      <trkpt lat="47.28112" lon="-1.54959">
        <ele>83</ele>
        <time>2022-04-10T10:27:12Z</time>
      </trkpt>
      <trkpt lat="47.28111" lon="-1.54961">
        <ele>83</ele>
        <time>2022-04-10T10:27:13Z</time>
      </trkpt>
      <trkpt lat="47.28111" lon="-1.54962">
        <ele>84</ele>
        <time>2022-04-10T10:27:14Z</time>
      </trkpt>
      <trkpt lat="47.2811" lon="-1.54963">
        <ele>84</ele>
        <time>2022-04-10T10:27:15Z</time>
      </trkpt>
      <trkpt lat="47.2811" lon="-1.54964">
        <ele>85</ele>
        <time>2022-04-10T10:27:16Z</time>
      </trkpt>
      <trkpt lat="47.28109" lon="-1.54965">
        <ele>85</ele>
        <time>2022-04-10T10:27:17Z</time>
      </trkpt>
      <trkpt lat="47.28108" lon="-1.54967">
        <ele>85</ele>
        <time>2022-04-10T10:27:18Z</time>
      </trkpt>
      <trkpt lat="47.28107" lon="-1.54968">
        <ele>85</ele>
        <time>2022-04-10T10:27:19Z</time>
      </trkpt>
      <trkpt lat="47.28106" lon="-1.54969">
        <ele>85</ele>
        <time>2022-04-10T10:27:20Z</time>
      </trkpt>
      <trkpt lat="47.28106" lon="-1.5497">
        <ele>84</ele>
        <time>2022-04-10T10:27:21Z</time>
      </trkpt>
      <trkpt lat="47.28105" lon="-1.54972">
        <ele>84</ele>
        <time>2022-04-10T10:27:22Z</time>
      </trkpt>
      <trkpt lat="47.28104" lon="-1.54974">
        <ele>83</ele>
        <time>2022-04-10T10:27:23Z</time>
      </trkpt>
      <trkpt lat="47.28103" lon="-1.54975">
        <ele>82</ele>
        <time>2022-04-10T10:27:24Z</time>
      </trkpt>
      <trkpt lat="47.28103" lon="-1.54976">
        <ele>83</ele>
        <time>2022-04-10T10:27:25Z</time>
      </trkpt>
      <trkpt lat="47.28102" lon="-1.54978">
        <ele>83</ele>
        <time>2022-04-10T10:27:26Z</time>
      </trkpt>
      <trkpt lat="47.28101" lon="-1.54979">
        <ele>83</ele>
        <time>2022-04-10T10:27:27Z</time>
      </trkpt>
      <trkpt lat="47.28101" lon="-1.5498">
        <ele>82</ele>
        <time>2022-04-10T10:27:28Z</time>
      </trkpt>
      <trkpt lat="47.281" lon="-1.54981">
        <ele>82</ele>
        <time>2022-04-10T10:27:29Z</time>
      </trkpt>
      <trkpt lat="47.28099" lon="-1.54983">
        <ele>83</ele>
        <time>2022-04-10T10:27:30Z</time>
      </trkpt>
      <trkpt lat="47.28099" lon="-1.54984">
        <ele>83</ele>
        <time>2022-04-10T10:27:31Z</time>
      </trkpt>
      <trkpt lat="47.28098" lon="-1.54986">
        <ele>82</ele>
        <time>2022-04-10T10:27:32Z</time>
      </trkpt>
      <trkpt lat="47.28098" lon="-1.54987">
        <ele>82</ele>
        <time>2022-04-10T10:27:33Z</time>
      </trkpt>
      <trkpt lat="47.28097" lon="-1.54988">
        <ele>82</ele>
        <time>2022-04-10T10:27:34Z</time>
      </trkpt>
      <trkpt lat="47.28096" lon="-1.54989">
        <ele>83</ele>
        <time>2022-04-10T10:27:35Z</time>
      </trkpt>
      <trkpt lat="47.28095" lon="-1.54989">
        <ele>83</ele>
        <time>2022-04-10T10:27:36Z</time>
      </trkpt>
      <trkpt lat="47.28095" lon="-1.54991">
        <ele>83</ele>
        <time>2022-04-10T10:27:37Z</time>
      </trkpt>
      <trkpt lat="47.28095" lon="-1.54992">
        <ele>82</ele>
        <time>2022-04-10T10:27:38Z</time>
      </trkpt>
      <trkpt lat="47.28094" lon="-1.54993">
        <ele>82</ele>
        <time>2022-04-10T10:27:39Z</time>
      </trkpt>
      <trkpt lat="47.28094" lon="-1.54993">
        <ele>82</ele>
        <time>2022-04-10T10:27:40Z</time>
      </trkpt>
      <trkpt lat="47.28094" lon="-1.54993">
        <ele>82</ele>
        <time>2022-04-10T10:27:41Z</time>
      </trkpt>
      <trkpt lat="47.28092" lon="-1.54996">
        <ele>81</ele>
        <time>2022-04-10T10:27:42Z</time>
      </trkpt>
      <trkpt lat="47.28091" lon="-1.54997">
        <ele>82</ele>
        <time>2022-04-10T10:27:43Z</time>
      </trkpt>
      <trkpt lat="47.2809" lon="-1.54998">
        <ele>82</ele>
        <time>2022-04-10T10:27:44Z</time>
      </trkpt>
      <trkpt lat="47.28089" lon="-1.54999">
        <ele>82</ele>
        <time>2022-04-10T10:27:45Z</time>
      </trkpt>
      <trkpt lat="47.28088" lon="-1.55001">
        <ele>82</ele>
        <time>2022-04-10T10:27:46Z</time>
      </trkpt>
      <trkpt lat="47.28087" lon="-1.55002">
        <ele>82</ele>
        <time>2022-04-10T10:27:47Z</time>
      </trkpt>
      <trkpt lat="47.28086" lon="-1.55003">
        <ele>82</ele>
        <time>2022-04-10T10:27:48Z</time>
      </trkpt>
      <trkpt lat="47.28084" lon="-1.55004">
        <ele>83</ele>
        <time>2022-04-10T10:27:49Z</time>
      </trkpt>
      <trkpt lat="47.28083" lon="-1.55005">
        <ele>83</ele>
        <time>2022-04-10T10:27:50Z</time>
      </trkpt>
      <trkpt lat="47.28082" lon="-1.55006">
        <ele>83</ele>
        <time>2022-04-10T10:27:51Z</time>
      </trkpt>
      <trkpt lat="47.28081" lon="-1.55007">
        <ele>83</ele>
        <time>2022-04-10T10:27:52Z</time>
      </trkpt>
      <trkpt lat="47.2808" lon="-1.55008">
        <ele>83</ele>
        <time>2022-04-10T10:27:53Z</time>
      </trkpt>
      <trkpt lat="47.2808" lon="-1.55008">
        <ele>83</ele>
        <time>2022-04-10T10:27:54Z</time>
      </trkpt>
      <trkpt lat="47.28079" lon="-1.55009">
        <ele>83</ele>
        <time>2022-04-10T10:27:55Z</time>
      </trkpt>
      <trkpt lat="47.28077" lon="-1.55009">
        <ele>83</ele>
        <time>2022-04-10T10:27:56Z</time>
      </trkpt>
      <trkpt lat="47.28076" lon="-1.5501">
        <ele>83</ele>
        <time>2022-04-10T10:27:57Z</time>
      </trkpt>
      <trkpt lat="47.28075" lon="-1.5501">
        <ele>83</ele>
        <time>2022-04-10T10:27:58Z</time>
      </trkpt>
      <trkpt lat="47.28074" lon="-1.55011">
        <ele>83</ele>
        <time>2022-04-10T10:27:59Z</time>
      </trkpt>
      <trkpt lat="47.28073" lon="-1.55012">
        <ele>82</ele>
        <time>2022-04-10T10:28:00Z</time>
      </trkpt>
      <trkpt lat="47.28072" lon="-1.55012">
        <ele>82</ele>
        <time>2022-04-10T10:28:01Z</time>
      </trkpt>
      <trkpt lat="47.28072" lon="-1.55013">
        <ele>83</ele>
        <time>2022-04-10T10:28:02Z</time>
      </trkpt>
      <trkpt lat="47.2807" lon="-1.55013">
        <ele>83</ele>
        <time>2022-04-10T10:28:03Z</time>
      </trkpt>
      <trkpt lat="47.28069" lon="-1.55014">
        <ele>83</ele>
        <time>2022-04-10T10:28:04Z</time>
      </trkpt>
      <trkpt lat="47.28069" lon="-1.55015">
        <ele>82</ele>
        <time>2022-04-10T10:28:05Z</time>
      </trkpt>
      <trkpt lat="47.28068" lon="-1.55017">
        <ele>82</ele>
        <time>2022-04-10T10:28:06Z</time>
      </trkpt>
      <trkpt lat="47.28067" lon="-1.55018">
        <ele>82</ele>
        <time>2022-04-10T10:28:07Z</time>
      </trkpt>
      <trkpt lat="47.28067" lon="-1.55018">
        <ele>82</ele>
        <time>2022-04-10T10:28:08Z</time>
      </trkpt>
      <trkpt lat="47.28067" lon="-1.55018">
        <ele>82</ele>
        <time>2022-04-10T10:28:09Z</time>
      </trkpt>
      <trkpt lat="47.28066" lon="-1.55021">
        <ele>82</ele>
        <time>2022-04-10T10:28:10Z</time>
      </trkpt>
      <trkpt lat="47.28066" lon="-1.55022">
        <ele>82</ele>
        <time>2022-04-10T10:28:11Z</time>
      </trkpt>
      <trkpt lat="47.28066" lon="-1.55023">
        <ele>81</ele>
        <time>2022-04-10T10:28:12Z</time>
      </trkpt>
      <trkpt lat="47.28066" lon="-1.55024">
        <ele>81</ele>
        <time>2022-04-10T10:28:13Z</time>
      </trkpt>
      <trkpt lat="47.28066" lon="-1.55024">
        <ele>81</ele>
        <time>2022-04-10T10:28:14Z</time>
      </trkpt>
      <trkpt lat="47.28066" lon="-1.55024">
        <ele>81</ele>
        <time>2022-04-10T10:28:15Z</time>
      </trkpt>
      <trkpt lat="47.28065" lon="-1.55027">
        <ele>81</ele>
        <time>2022-04-10T10:28:16Z</time>
      </trkpt>
      <trkpt lat="47.28065" lon="-1.55028">
        <ele>81</ele>
        <time>2022-04-10T10:28:17Z</time>
      </trkpt>
      <trkpt lat="47.28064" lon="-1.55029">
        <ele>81</ele>
        <time>2022-04-10T10:28:18Z</time>
      </trkpt>
      <trkpt lat="47.28064" lon="-1.5503">
        <ele>82</ele>
        <time>2022-04-10T10:28:19Z</time>
      </trkpt>
      <trkpt lat="47.28064" lon="-1.5503">
        <ele>82</ele>
        <time>2022-04-10T10:28:20Z</time>
      </trkpt>
      <trkpt lat="47.28064" lon="-1.5503">
        <ele>82</ele>
        <time>2022-04-10T10:28:21Z</time>
      </trkpt>
      <trkpt lat="47.28065" lon="-1.55034">
        <ele>82</ele>
        <time>2022-04-10T10:28:22Z</time>
      </trkpt>
      <trkpt lat="47.28064" lon="-1.55035">
        <ele>82</ele>
        <time>2022-04-10T10:28:23Z</time>
      </trkpt>
      <trkpt lat="47.28064" lon="-1.55036">
        <ele>82</ele>
        <time>2022-04-10T10:28:24Z</time>
      </trkpt>
      <trkpt lat="47.28064" lon="-1.55037">
        <ele>83</ele>
        <time>2022-04-10T10:28:25Z</time>
      </trkpt>
      <trkpt lat="47.28064" lon="-1.55037">
        <ele>83</ele>
        <time>2022-04-10T10:28:26Z</time>
      </trkpt>
      <trkpt lat="47.28064" lon="-1.55037">
        <ele>83</ele>
        <time>2022-04-10T10:28:27Z</time>
      </trkpt>
      <trkpt lat="47.28064" lon="-1.55037">
        <ele>83</ele>
        <time>2022-04-10T10:28:28Z</time>
      </trkpt>
      <trkpt lat="47.28064" lon="-1.55037">
        <ele>83</ele>
        <time>2022-04-10T10:28:29Z</time>
      </trkpt>
      <trkpt lat="47.28064" lon="-1.55037">
        <ele>83</ele>
        <time>2022-04-10T10:28:30Z</time>
      </trkpt>
      <trkpt lat="47.28062" lon="-1.55042">
        <ele>84</ele>
        <time>2022-04-10T10:28:31Z</time>
      </trkpt>
      <trkpt lat="47.28062" lon="-1.55043">
        <ele>84</ele>
        <time>2022-04-10T10:28:32Z</time>
      </trkpt>
      <trkpt lat="47.28062" lon="-1.55045">
        <ele>84</ele>
        <time>2022-04-10T10:28:33Z</time>
      </trkpt>
      <trkpt lat="47.28063" lon="-1.55047">
        <ele>84</ele>
        <time>2022-04-10T10:28:34Z</time>
      </trkpt>
      <trkpt lat="47.28063" lon="-1.55049">
        <ele>85</ele>
        <time>2022-04-10T10:28:35Z</time>
      </trkpt>
      <trkpt lat="47.28063" lon="-1.55051">
        <ele>85</ele>
        <time>2022-04-10T10:28:36Z</time>
      </trkpt>
      <trkpt lat="47.28063" lon="-1.55051">
        <ele>85</ele>
        <time>2022-04-10T10:28:37Z</time>
      </trkpt>
      <trkpt lat="47.28063" lon="-1.55051">
        <ele>85</ele>
        <time>2022-04-10T10:28:38Z</time>
      </trkpt>
      <trkpt lat="47.28062" lon="-1.55056">
        <ele>87</ele>
        <time>2022-04-10T10:28:39Z</time>
      </trkpt>
      <trkpt lat="47.28062" lon="-1.55057">
        <ele>87</ele>
        <time>2022-04-10T10:28:40Z</time>
      </trkpt>
      <trkpt lat="47.28062" lon="-1.55059">
        <ele>87</ele>
        <time>2022-04-10T10:28:41Z</time>
      </trkpt>
      <trkpt lat="47.28062" lon="-1.55061">
        <ele>87</ele>
        <time>2022-04-10T10:28:42Z</time>
      </trkpt>
      <trkpt lat="47.28062" lon="-1.55061">
        <ele>87</ele>
        <time>2022-04-10T10:28:43Z</time>
      </trkpt>
      <trkpt lat="47.28062" lon="-1.55061">
        <ele>87</ele>
        <time>2022-04-10T10:28:44Z</time>
      </trkpt>
      <trkpt lat="47.28062" lon="-1.55064">
        <ele>88</ele>
        <time>2022-04-10T10:28:45Z</time>
      </trkpt>
      <trkpt lat="47.28062" lon="-1.55066">
        <ele>89</ele>
        <time>2022-04-10T10:28:46Z</time>
      </trkpt>
      <trkpt lat="47.28061" lon="-1.55068">
        <ele>88</ele>
        <time>2022-04-10T10:28:47Z</time>
      </trkpt>
      <trkpt lat="47.28061" lon="-1.55069">
        <ele>89</ele>
        <time>2022-04-10T10:28:48Z</time>
      </trkpt>
      <trkpt lat="47.28061" lon="-1.55069">
        <ele>89</ele>
        <time>2022-04-10T10:28:49Z</time>
      </trkpt>
      <trkpt lat="47.28061" lon="-1.55069">
        <ele>89</ele>
        <time>2022-04-10T10:28:50Z</time>
      </trkpt>
      <trkpt lat="47.2806" lon="-1.55073">
        <ele>90</ele>
        <time>2022-04-10T10:28:51Z</time>
      </trkpt>
      <trkpt lat="47.2806" lon="-1.55075">
        <ele>90</ele>
        <time>2022-04-10T10:28:52Z</time>
      </trkpt>
      <trkpt lat="47.2806" lon="-1.55077">
        <ele>89</ele>
        <time>2022-04-10T10:28:53Z</time>
      </trkpt>
      <trkpt lat="47.28059" lon="-1.55079">
        <ele>88</ele>
        <time>2022-04-10T10:28:54Z</time>
      </trkpt>
      <trkpt lat="47.28059" lon="-1.55081">
        <ele>88</ele>
        <time>2022-04-10T10:28:55Z</time>
      </trkpt>
      <trkpt lat="47.28058" lon="-1.55084">
        <ele>88</ele>
        <time>2022-04-10T10:28:56Z</time>
      </trkpt>
      <trkpt lat="47.28058" lon="-1.55086">
        <ele>88</ele>
        <time>2022-04-10T10:28:57Z</time>
      </trkpt>
      <trkpt lat="47.28057" lon="-1.55087">
        <ele>88</ele>
        <time>2022-04-10T10:28:58Z</time>
      </trkpt>
      <trkpt lat="47.28056" lon="-1.55089">
        <ele>88</ele>
        <time>2022-04-10T10:28:59Z</time>
      </trkpt>
      <trkpt lat="47.28056" lon="-1.55091">
        <ele>87</ele>
        <time>2022-04-10T10:29:00Z</time>
      </trkpt>
      <trkpt lat="47.28055" lon="-1.55093">
        <ele>87</ele>
        <time>2022-04-10T10:29:01Z</time>
      </trkpt>
      <trkpt lat="47.28054" lon="-1.55094">
        <ele>87</ele>
        <time>2022-04-10T10:29:02Z</time>
      </trkpt>
      <trkpt lat="47.28054" lon="-1.55096">
        <ele>88</ele>
        <time>2022-04-10T10:29:03Z</time>
      </trkpt>
      <trkpt lat="47.28054" lon="-1.55097">
        <ele>87</ele>
        <time>2022-04-10T10:29:04Z</time>
      </trkpt>
      <trkpt lat="47.28053" lon="-1.55099">
        <ele>88</ele>
        <time>2022-04-10T10:29:05Z</time>
      </trkpt>
      <trkpt lat="47.28052" lon="-1.551">
        <ele>88</ele>
        <time>2022-04-10T10:29:06Z</time>
      </trkpt>
      <trkpt lat="47.28051" lon="-1.55101">
        <ele>88</ele>
        <time>2022-04-10T10:29:07Z</time>
      </trkpt>
      <trkpt lat="47.28051" lon="-1.55101">
        <ele>89</ele>
        <time>2022-04-10T10:29:08Z</time>
      </trkpt>
      <trkpt lat="47.28051" lon="-1.55103">
        <ele>89</ele>
        <time>2022-04-10T10:29:09Z</time>
      </trkpt>
      <trkpt lat="47.2805" lon="-1.55103">
        <ele>89</ele>
        <time>2022-04-10T10:29:10Z</time>
      </trkpt>
      <trkpt lat="47.28049" lon="-1.55103">
        <ele>89</ele>
        <time>2022-04-10T10:29:11Z</time>
      </trkpt>
      <trkpt lat="47.28048" lon="-1.55104">
        <ele>89</ele>
        <time>2022-04-10T10:29:12Z</time>
      </trkpt>
      <trkpt lat="47.28048" lon="-1.55104">
        <ele>89</ele>
        <time>2022-04-10T10:29:13Z</time>
      </trkpt>
      <trkpt lat="47.28047" lon="-1.55104">
        <ele>89</ele>
        <time>2022-04-10T10:29:14Z</time>
      </trkpt>
      <trkpt lat="47.28046" lon="-1.55103">
        <ele>89</ele>
        <time>2022-04-10T10:29:15Z</time>
      </trkpt>
      <trkpt lat="47.28046" lon="-1.55103">
        <ele>90</ele>
        <time>2022-04-10T10:29:16Z</time>
      </trkpt>
      <trkpt lat="47.28045" lon="-1.55103">
        <ele>90</ele>
        <time>2022-04-10T10:29:17Z</time>
      </trkpt>
      <trkpt lat="47.28044" lon="-1.55102">
        <ele>89</ele>
        <time>2022-04-10T10:29:18Z</time>
      </trkpt>
      <trkpt lat="47.28043" lon="-1.55103">
        <ele>89</ele>
        <time>2022-04-10T10:29:19Z</time>
      </trkpt>
      <trkpt lat="47.28042" lon="-1.55103">
        <ele>89</ele>
        <time>2022-04-10T10:29:20Z</time>
      </trkpt>
      <trkpt lat="47.28042" lon="-1.55103">
        <ele>89</ele>
        <time>2022-04-10T10:29:21Z</time>
      </trkpt>
      <trkpt lat="47.28041" lon="-1.55103">
        <ele>88</ele>
        <time>2022-04-10T10:29:22Z</time>
      </trkpt>
      <trkpt lat="47.28041" lon="-1.55103">
        <ele>88</ele>
        <time>2022-04-10T10:29:23Z</time>
      </trkpt>
      <trkpt lat="47.28038" lon="-1.55103">
        <ele>89</ele>
        <time>2022-04-10T10:29:24Z</time>
      </trkpt>
      <trkpt lat="47.28038" lon="-1.55104">
        <ele>88</ele>
        <time>2022-04-10T10:29:25Z</time>
      </trkpt>
      <trkpt lat="47.28037" lon="-1.55104">
        <ele>88</ele>
        <time>2022-04-10T10:29:26Z</time>
      </trkpt>
      <trkpt lat="47.28035" lon="-1.55104">
        <ele>88</ele>
        <time>2022-04-10T10:29:27Z</time>
      </trkpt>
      <trkpt lat="47.28035" lon="-1.55104">
        <ele>87</ele>
        <time>2022-04-10T10:29:28Z</time>
      </trkpt>
      <trkpt lat="47.28033" lon="-1.55104">
        <ele>88</ele>
        <time>2022-04-10T10:29:29Z</time>
      </trkpt>
      <trkpt lat="47.28032" lon="-1.55104">
        <ele>88</ele>
        <time>2022-04-10T10:29:30Z</time>
      </trkpt>
      <trkpt lat="47.2803" lon="-1.55103">
        <ele>89</ele>
        <time>2022-04-10T10:29:31Z</time>
      </trkpt>
      <trkpt lat="47.2803" lon="-1.55104">
        <ele>88</ele>
        <time>2022-04-10T10:29:32Z</time>
      </trkpt>
      <trkpt lat="47.28029" lon="-1.55104">
        <ele>89</ele>
        <time>2022-04-10T10:29:33Z</time>
      </trkpt>
      <trkpt lat="47.28028" lon="-1.55103">
        <ele>89</ele>
        <time>2022-04-10T10:29:34Z</time>
      </trkpt>
      <trkpt lat="47.28026" lon="-1.55103">
        <ele>89</ele>
        <time>2022-04-10T10:29:35Z</time>
      </trkpt>
      <trkpt lat="47.28025" lon="-1.55102">
        <ele>89</ele>
        <time>2022-04-10T10:29:36Z</time>
      </trkpt>
      <trkpt lat="47.28024" lon="-1.55101">
        <ele>90</ele>
        <time>2022-04-10T10:29:37Z</time>
      </trkpt>
      <trkpt lat="47.28023" lon="-1.551">
        <ele>89</ele>
        <time>2022-04-10T10:29:38Z</time>
      </trkpt>
      <trkpt lat="47.28022" lon="-1.551">
        <ele>89</ele>
        <time>2022-04-10T10:29:39Z</time>
      </trkpt>
      <trkpt lat="47.28021" lon="-1.551">
        <ele>89</ele>
        <time>2022-04-10T10:29:40Z</time>
      </trkpt>
      <trkpt lat="47.28019" lon="-1.55101">
        <ele>88</ele>
        <time>2022-04-10T10:29:41Z</time>
      </trkpt>
      <trkpt lat="47.28018" lon="-1.55101">
        <ele>87</ele>
        <time>2022-04-10T10:29:42Z</time>
      </trkpt>
      <trkpt lat="47.28017" lon="-1.55102">
        <ele>87</ele>
        <time>2022-04-10T10:29:43Z</time>
      </trkpt>
      <trkpt lat="47.28016" lon="-1.55103">
        <ele>87</ele>
        <time>2022-04-10T10:29:44Z</time>
      </trkpt>
      <trkpt lat="47.28015" lon="-1.55103">
        <ele>87</ele>
        <time>2022-04-10T10:29:45Z</time>
      </trkpt>
      <trkpt lat="47.28014" lon="-1.55103">
        <ele>86</ele>
        <time>2022-04-10T10:29:46Z</time>
      </trkpt>
      <trkpt lat="47.28013" lon="-1.55103">
        <ele>86</ele>
        <time>2022-04-10T10:29:47Z</time>
      </trkpt>
      <trkpt lat="47.28011" lon="-1.55103">
        <ele>86</ele>
        <time>2022-04-10T10:29:48Z</time>
      </trkpt>
      <trkpt lat="47.2801" lon="-1.55104">
        <ele>86</ele>
        <time>2022-04-10T10:29:49Z</time>
      </trkpt>
      <trkpt lat="47.28009" lon="-1.55104">
        <ele>86</ele>
        <time>2022-04-10T10:29:50Z</time>
      </trkpt>
      <trkpt lat="47.28008" lon="-1.55104">
        <ele>86</ele>
        <time>2022-04-10T10:29:51Z</time>
      </trkpt>
      <trkpt lat="47.28006" lon="-1.55105">
        <ele>86</ele>
        <time>2022-04-10T10:29:52Z</time>
      </trkpt>
      <trkpt lat="47.28005" lon="-1.55105">
        <ele>85</ele>
        <time>2022-04-10T10:29:53Z</time>
      </trkpt>
      <trkpt lat="47.28004" lon="-1.55105">
        <ele>85</ele>
        <time>2022-04-10T10:29:54Z</time>
      </trkpt>
      <trkpt lat="47.28003" lon="-1.55105">
        <ele>85</ele>
        <time>2022-04-10T10:29:55Z</time>
      </trkpt>
      <trkpt lat="47.28001" lon="-1.55105">
        <ele>84</ele>
        <time>2022-04-10T10:29:56Z</time>
      </trkpt>
      <trkpt lat="47.28" lon="-1.55106">
        <ele>84</ele>
        <time>2022-04-10T10:29:57Z</time>
      </trkpt>
      <trkpt lat="47.27999" lon="-1.55105">
        <ele>84</ele>
        <time>2022-04-10T10:29:58Z</time>
      </trkpt>
      <trkpt lat="47.27998" lon="-1.55105">
        <ele>85</ele>
        <time>2022-04-10T10:29:59Z</time>
      </trkpt>
      <trkpt lat="47.27997" lon="-1.55105">
        <ele>85</ele>
        <time>2022-04-10T10:30:00Z</time>
      </trkpt>
      <trkpt lat="47.27996" lon="-1.55105">
        <ele>86</ele>
        <time>2022-04-10T10:30:01Z</time>
      </trkpt>
      <trkpt lat="47.27995" lon="-1.55105">
        <ele>86</ele>
        <time>2022-04-10T10:30:02Z</time>
      </trkpt>
      <trkpt lat="47.27995" lon="-1.55105">
        <ele>86</ele>
        <time>2022-04-10T10:30:03Z</time>
      </trkpt>
      <trkpt lat="47.27993" lon="-1.55104">
        <ele>87</ele>
        <time>2022-04-10T10:30:04Z</time>
      </trkpt>
      <trkpt lat="47.27992" lon="-1.55103">
        <ele>87</ele>
        <time>2022-04-10T10:30:05Z</time>
      </trkpt>
      <trkpt lat="47.27991" lon="-1.55102">
        <ele>88</ele>
        <time>2022-04-10T10:30:06Z</time>
      </trkpt>
      <trkpt lat="47.2799" lon="-1.55102">
        <ele>88</ele>
        <time>2022-04-10T10:30:07Z</time>
      </trkpt>
      <trkpt lat="47.27988" lon="-1.55102">
        <ele>89</ele>
        <time>2022-04-10T10:30:08Z</time>
      </trkpt>
      <trkpt lat="47.27987" lon="-1.55102">
        <ele>88</ele>
        <time>2022-04-10T10:30:09Z</time>
      </trkpt>
      <trkpt lat="47.27986" lon="-1.55103">
        <ele>88</ele>
        <time>2022-04-10T10:30:10Z</time>
      </trkpt>
      <trkpt lat="47.27985" lon="-1.55104">
        <ele>89</ele>
        <time>2022-04-10T10:30:11Z</time>
      </trkpt>
      <trkpt lat="47.27984" lon="-1.55104">
        <ele>89</ele>
        <time>2022-04-10T10:30:12Z</time>
      </trkpt>
      <trkpt lat="47.27983" lon="-1.55105">
        <ele>89</ele>
        <time>2022-04-10T10:30:13Z</time>
      </trkpt>
      <trkpt lat="47.27982" lon="-1.55105">
        <ele>89</ele>
        <time>2022-04-10T10:30:14Z</time>
      </trkpt>
      <trkpt lat="47.27981" lon="-1.55107">
        <ele>89</ele>
        <time>2022-04-10T10:30:15Z</time>
      </trkpt>
      <trkpt lat="47.27979" lon="-1.55107">
        <ele>88</ele>
        <time>2022-04-10T10:30:16Z</time>
      </trkpt>
      <trkpt lat="47.27978" lon="-1.55108">
        <ele>89</ele>
        <time>2022-04-10T10:30:17Z</time>
      </trkpt>
      <trkpt lat="47.27977" lon="-1.55109">
        <ele>89</ele>
        <time>2022-04-10T10:30:18Z</time>
      </trkpt>
      <trkpt lat="47.27976" lon="-1.5511">
        <ele>88</ele>
        <time>2022-04-10T10:30:19Z</time>
      </trkpt>
      <trkpt lat="47.27974" lon="-1.55111">
        <ele>87</ele>
        <time>2022-04-10T10:30:20Z</time>
      </trkpt>
      <trkpt lat="47.27973" lon="-1.55112">
        <ele>88</ele>
        <time>2022-04-10T10:30:21Z</time>
      </trkpt>
      <trkpt lat="47.27972" lon="-1.55112">
        <ele>87</ele>
        <time>2022-04-10T10:30:22Z</time>
      </trkpt>
      <trkpt lat="47.27971" lon="-1.55112">
        <ele>87</ele>
        <time>2022-04-10T10:30:23Z</time>
      </trkpt>
      <trkpt lat="47.27971" lon="-1.55113">
        <ele>86</ele>
        <time>2022-04-10T10:30:24Z</time>
      </trkpt>
      <trkpt lat="47.2797" lon="-1.55114">
        <ele>86</ele>
        <time>2022-04-10T10:30:25Z</time>
      </trkpt>
      <trkpt lat="47.27969" lon="-1.55115">
        <ele>86</ele>
        <time>2022-04-10T10:30:26Z</time>
      </trkpt>
      <trkpt lat="47.27968" lon="-1.55115">
        <ele>86</ele>
        <time>2022-04-10T10:30:27Z</time>
      </trkpt>
      <trkpt lat="47.27967" lon="-1.55116">
        <ele>86</ele>
        <time>2022-04-10T10:30:28Z</time>
      </trkpt>
      <trkpt lat="47.27966" lon="-1.55117">
        <ele>86</ele>
        <time>2022-04-10T10:30:29Z</time>
      </trkpt>
      <trkpt lat="47.27964" lon="-1.55118">
        <ele>86</ele>
        <time>2022-04-10T10:30:30Z</time>
      </trkpt>
      <trkpt lat="47.27964" lon="-1.55118">
        <ele>86</ele>
        <time>2022-04-10T10:30:31Z</time>
      </trkpt>
      <trkpt lat="47.27963" lon="-1.55119">
        <ele>86</ele>
        <time>2022-04-10T10:30:32Z</time>
      </trkpt>
      <trkpt lat="47.27962" lon="-1.55119">
        <ele>86</ele>
        <time>2022-04-10T10:30:33Z</time>
      </trkpt>
      <trkpt lat="47.27961" lon="-1.55119">
        <ele>86</ele>
        <time>2022-04-10T10:30:34Z</time>
      </trkpt>
      <trkpt lat="47.2796" lon="-1.5512">
        <ele>86</ele>
        <time>2022-04-10T10:30:35Z</time>
      </trkpt>
      <trkpt lat="47.27959" lon="-1.55121">
        <ele>86</ele>
        <time>2022-04-10T10:30:36Z</time>
      </trkpt>
      <trkpt lat="47.27958" lon="-1.55122">
        <ele>86</ele>
        <time>2022-04-10T10:30:37Z</time>
      </trkpt>
      <trkpt lat="47.27956" lon="-1.55122">
        <ele>86</ele>
        <time>2022-04-10T10:30:38Z</time>
      </trkpt>
      <trkpt lat="47.27956" lon="-1.55123">
        <ele>86</ele>
        <time>2022-04-10T10:30:39Z</time>
      </trkpt>
      <trkpt lat="47.27955" lon="-1.55124">
        <ele>86</ele>
        <time>2022-04-10T10:30:40Z</time>
      </trkpt>
      <trkpt lat="47.27953" lon="-1.55124">
        <ele>86</ele>
        <time>2022-04-10T10:30:41Z</time>
      </trkpt>
      <trkpt lat="47.27952" lon="-1.55125">
        <ele>86</ele>
        <time>2022-04-10T10:30:42Z</time>
      </trkpt>
      <trkpt lat="47.27951" lon="-1.55125">
        <ele>86</ele>
        <time>2022-04-10T10:30:43Z</time>
      </trkpt>
      <trkpt lat="47.2795" lon="-1.55126">
        <ele>86</ele>
        <time>2022-04-10T10:30:44Z</time>
      </trkpt>
      <trkpt lat="47.27949" lon="-1.55126">
        <ele>86</ele>
        <time>2022-04-10T10:30:45Z</time>
      </trkpt>
      <trkpt lat="47.27948" lon="-1.55127">
        <ele>86</ele>
        <time>2022-04-10T10:30:46Z</time>
      </trkpt>
      <trkpt lat="47.27948" lon="-1.55129">
        <ele>85</ele>
        <time>2022-04-10T10:30:47Z</time>
      </trkpt>
      <trkpt lat="47.27947" lon="-1.55129">
        <ele>85</ele>
        <time>2022-04-10T10:30:48Z</time>
      </trkpt>
      <trkpt lat="47.27945" lon="-1.5513">
        <ele>85</ele>
        <time>2022-04-10T10:30:49Z</time>
      </trkpt>
      <trkpt lat="47.27945" lon="-1.55131">
        <ele>84</ele>
        <time>2022-04-10T10:30:50Z</time>
      </trkpt>
      <trkpt lat="47.27944" lon="-1.55132">
        <ele>84</ele>
        <time>2022-04-10T10:30:51Z</time>
      </trkpt>
      <trkpt lat="47.27944" lon="-1.55132">
        <ele>84</ele>
        <time>2022-04-10T10:30:52Z</time>
      </trkpt>
      <trkpt lat="47.27943" lon="-1.55132">
        <ele>84</ele>
        <time>2022-04-10T10:30:53Z</time>
      </trkpt>
      <trkpt lat="47.27943" lon="-1.55133">
        <ele>84</ele>
        <time>2022-04-10T10:30:54Z</time>
      </trkpt>
      <trkpt lat="47.27942" lon="-1.55133">
        <ele>85</ele>
        <time>2022-04-10T10:30:55Z</time>
      </trkpt>
      <trkpt lat="47.27942" lon="-1.55133">
        <ele>85</ele>
        <time>2022-04-10T10:30:56Z</time>
      </trkpt>
      <trkpt lat="47.27941" lon="-1.55133">
        <ele>84</ele>
        <time>2022-04-10T10:30:57Z</time>
      </trkpt>
      <trkpt lat="47.27941" lon="-1.55132">
        <ele>84</ele>
        <time>2022-04-10T10:30:58Z</time>
      </trkpt>
      <trkpt lat="47.27941" lon="-1.55132">
        <ele>85</ele>
        <time>2022-04-10T10:30:59Z</time>
      </trkpt>
      <trkpt lat="47.27941" lon="-1.55132">
        <ele>85</ele>
        <time>2022-04-10T10:31:00Z</time>
      </trkpt>
      <trkpt lat="47.27941" lon="-1.55132">
        <ele>85</ele>
        <time>2022-04-10T10:31:01Z</time>
      </trkpt>
      <trkpt lat="47.27941" lon="-1.55132">
        <ele>85</ele>
        <time>2022-04-10T10:31:01Z</time>
      </trkpt>
      <trkpt lat="47.27941" lon="-1.55132">
        <ele>85</ele>
        <time>2022-04-10T10:31:01Z</time>
      </trkpt>
      <trkpt lat="47.27933" lon="-1.55137">
        <ele>86</ele>
        <time>2022-04-10T10:31:39Z</time>
      </trkpt>
      <trkpt lat="47.27932" lon="-1.55137">
        <ele>86</ele>
        <time>2022-04-10T10:31:40Z</time>
      </trkpt>
      <trkpt lat="47.27931" lon="-1.55138">
        <ele>85</ele>
        <time>2022-04-10T10:31:41Z</time>
      </trkpt>
      <trkpt lat="47.27931" lon="-1.55139">
        <ele>85</ele>
        <time>2022-04-10T10:31:42Z</time>
      </trkpt>
      <trkpt lat="47.27931" lon="-1.5514">
        <ele>85</ele>
        <time>2022-04-10T10:31:43Z</time>
      </trkpt>
      <trkpt lat="47.2793" lon="-1.55141">
        <ele>85</ele>
        <time>2022-04-10T10:31:44Z</time>
      </trkpt>
      <trkpt lat="47.27929" lon="-1.55143">
        <ele>85</ele>
        <time>2022-04-10T10:31:45Z</time>
      </trkpt>
      <trkpt lat="47.27929" lon="-1.55144">
        <ele>85</ele>
        <time>2022-04-10T10:31:46Z</time>
      </trkpt>
      <trkpt lat="47.27929" lon="-1.55145">
        <ele>85</ele>
        <time>2022-04-10T10:31:47Z</time>
      </trkpt>
      <trkpt lat="47.27928" lon="-1.55145">
        <ele>85</ele>
        <time>2022-04-10T10:31:48Z</time>
      </trkpt>
      <trkpt lat="47.27927" lon="-1.55146">
        <ele>85</ele>
        <time>2022-04-10T10:31:49Z</time>
      </trkpt>
      <trkpt lat="47.27926" lon="-1.55147">
        <ele>85</ele>
        <time>2022-04-10T10:31:50Z</time>
      </trkpt>
      <trkpt lat="47.27926" lon="-1.55148">
        <ele>86</ele>
        <time>2022-04-10T10:31:51Z</time>
      </trkpt>
      <trkpt lat="47.27924" lon="-1.55148">
        <ele>86</ele>
        <time>2022-04-10T10:31:52Z</time>
      </trkpt>
      <trkpt lat="47.27923" lon="-1.55149">
        <ele>86</ele>
        <time>2022-04-10T10:31:53Z</time>
      </trkpt>
      <trkpt lat="47.27922" lon="-1.55149">
        <ele>86</ele>
        <time>2022-04-10T10:31:54Z</time>
      </trkpt>
      <trkpt lat="47.27921" lon="-1.5515">
        <ele>86</ele>
        <time>2022-04-10T10:31:55Z</time>
      </trkpt>
      <trkpt lat="47.2792" lon="-1.55151">
        <ele>86</ele>
        <time>2022-04-10T10:31:56Z</time>
      </trkpt>
      <trkpt lat="47.27919" lon="-1.55152">
        <ele>86</ele>
        <time>2022-04-10T10:31:57Z</time>
      </trkpt>
      <trkpt lat="47.27918" lon="-1.55153">
        <ele>86</ele>
        <time>2022-04-10T10:31:58Z</time>
      </trkpt>
      <trkpt lat="47.27917" lon="-1.55154">
        <ele>86</ele>
        <time>2022-04-10T10:31:59Z</time>
      </trkpt>
      <trkpt lat="47.27916" lon="-1.55155">
        <ele>86</ele>
        <time>2022-04-10T10:32:00Z</time>
      </trkpt>
      <trkpt lat="47.27915" lon="-1.55156">
        <ele>86</ele>
        <time>2022-04-10T10:32:01Z</time>
      </trkpt>
      <trkpt lat="47.27914" lon="-1.55157">
        <ele>86</ele>
        <time>2022-04-10T10:32:02Z</time>
      </trkpt>
      <trkpt lat="47.27913" lon="-1.55158">
        <ele>86</ele>
        <time>2022-04-10T10:32:03Z</time>
      </trkpt>
      <trkpt lat="47.27912" lon="-1.55158">
        <ele>86</ele>
        <time>2022-04-10T10:32:04Z</time>
      </trkpt>
      <trkpt lat="47.27911" lon="-1.55159">
        <ele>86</ele>
        <time>2022-04-10T10:32:05Z</time>
      </trkpt>
      <trkpt lat="47.27911" lon="-1.55159">
        <ele>87</ele>
        <time>2022-04-10T10:32:06Z</time>
      </trkpt>
      <trkpt lat="47.27911" lon="-1.55159">
        <ele>87</ele>
        <time>2022-04-10T10:32:07Z</time>
      </trkpt>
      <trkpt lat="47.27911" lon="-1.5516">
        <ele>87</ele>
        <time>2022-04-10T10:32:08Z</time>
      </trkpt>
      <trkpt lat="47.27911" lon="-1.5516">
        <ele>87</ele>
        <time>2022-04-10T10:32:09Z</time>
      </trkpt>
      <trkpt lat="47.27911" lon="-1.5516">
        <ele>87</ele>
        <time>2022-04-10T10:32:10Z</time>
      </trkpt>
      <trkpt lat="47.27911" lon="-1.5516">
        <ele>87</ele>
        <time>2022-04-10T10:32:11Z</time>
      </trkpt>
      <trkpt lat="47.27909" lon="-1.55163">
        <ele>87</ele>
        <time>2022-04-10T10:32:12Z</time>
      </trkpt>
      <trkpt lat="47.27908" lon="-1.55163">
        <ele>87</ele>
        <time>2022-04-10T10:32:13Z</time>
      </trkpt>
      <trkpt lat="47.27908" lon="-1.55163">
        <ele>87</ele>
        <time>2022-04-10T10:32:14Z</time>
      </trkpt>
      <trkpt lat="47.27907" lon="-1.55163">
        <ele>87</ele>
        <time>2022-04-10T10:32:15Z</time>
      </trkpt>
      <trkpt lat="47.27907" lon="-1.55164">
        <ele>88</ele>
        <time>2022-04-10T10:32:16Z</time>
      </trkpt>
      <trkpt lat="47.27906" lon="-1.55165">
        <ele>88</ele>
        <time>2022-04-10T10:32:17Z</time>
      </trkpt>
      <trkpt lat="47.27906" lon="-1.55166">
        <ele>88</ele>
        <time>2022-04-10T10:32:18Z</time>
      </trkpt>
      <trkpt lat="47.27905" lon="-1.55167">
        <ele>88</ele>
        <time>2022-04-10T10:32:19Z</time>
      </trkpt>
      <trkpt lat="47.27905" lon="-1.55167">
        <ele>88</ele>
        <time>2022-04-10T10:32:20Z</time>
      </trkpt>
      <trkpt lat="47.27903" lon="-1.55168">
        <ele>88</ele>
        <time>2022-04-10T10:32:21Z</time>
      </trkpt>
      <trkpt lat="47.27903" lon="-1.55169">
        <ele>89</ele>
        <time>2022-04-10T10:32:22Z</time>
      </trkpt>
      <trkpt lat="47.27902" lon="-1.5517">
        <ele>89</ele>
        <time>2022-04-10T10:32:23Z</time>
      </trkpt>
      <trkpt lat="47.279" lon="-1.55171">
        <ele>90</ele>
        <time>2022-04-10T10:32:24Z</time>
      </trkpt>
      <trkpt lat="47.279" lon="-1.55171">
        <ele>91</ele>
        <time>2022-04-10T10:32:25Z</time>
      </trkpt>
      <trkpt lat="47.27899" lon="-1.55172">
        <ele>91</ele>
        <time>2022-04-10T10:32:26Z</time>
      </trkpt>
      <trkpt lat="47.27897" lon="-1.55172">
        <ele>91</ele>
        <time>2022-04-10T10:32:27Z</time>
      </trkpt>
      <trkpt lat="47.27896" lon="-1.55173">
        <ele>91</ele>
        <time>2022-04-10T10:32:28Z</time>
      </trkpt>
      <trkpt lat="47.27895" lon="-1.55173">
        <ele>91</ele>
        <time>2022-04-10T10:32:29Z</time>
      </trkpt>
      <trkpt lat="47.27894" lon="-1.55174">
        <ele>91</ele>
        <time>2022-04-10T10:32:30Z</time>
      </trkpt>
      <trkpt lat="47.27893" lon="-1.55174">
        <ele>91</ele>
        <time>2022-04-10T10:32:31Z</time>
      </trkpt>
      <trkpt lat="47.27892" lon="-1.55175">
        <ele>90</ele>
        <time>2022-04-10T10:32:32Z</time>
      </trkpt>
      <trkpt lat="47.27891" lon="-1.55175">
        <ele>90</ele>
        <time>2022-04-10T10:32:33Z</time>
      </trkpt>
      <trkpt lat="47.2789" lon="-1.55175">
        <ele>90</ele>
        <time>2022-04-10T10:32:34Z</time>
      </trkpt>
      <trkpt lat="47.27889" lon="-1.55175">
        <ele>90</ele>
        <time>2022-04-10T10:32:35Z</time>
      </trkpt>
      <trkpt lat="47.27888" lon="-1.55176">
        <ele>90</ele>
        <time>2022-04-10T10:32:36Z</time>
      </trkpt>
      <trkpt lat="47.27887" lon="-1.55176">
        <ele>89</ele>
        <time>2022-04-10T10:32:37Z</time>
      </trkpt>
      <trkpt lat="47.27885" lon="-1.55177">
        <ele>89</ele>
        <time>2022-04-10T10:32:38Z</time>
      </trkpt>
      <trkpt lat="47.27884" lon="-1.55178">
        <ele>89</ele>
        <time>2022-04-10T10:32:39Z</time>
      </trkpt>
      <trkpt lat="47.27883" lon="-1.55178">
        <ele>90</ele>
        <time>2022-04-10T10:32:40Z</time>
      </trkpt>
      <trkpt lat="47.27882" lon="-1.55179">
        <ele>89</ele>
        <time>2022-04-10T10:32:41Z</time>
      </trkpt>
      <trkpt lat="47.27881" lon="-1.5518">
        <ele>89</ele>
        <time>2022-04-10T10:32:42Z</time>
      </trkpt>
      <trkpt lat="47.2788" lon="-1.55181">
        <ele>89</ele>
        <time>2022-04-10T10:32:43Z</time>
      </trkpt>
      <trkpt lat="47.27879" lon="-1.55182">
        <ele>89</ele>
        <time>2022-04-10T10:32:44Z</time>
      </trkpt>
      <trkpt lat="47.27878" lon="-1.55182">
        <ele>89</ele>
        <time>2022-04-10T10:32:45Z</time>
      </trkpt>
      <trkpt lat="47.27877" lon="-1.55183">
        <ele>89</ele>
        <time>2022-04-10T10:32:46Z</time>
      </trkpt>
      <trkpt lat="47.27876" lon="-1.55184">
        <ele>89</ele>
        <time>2022-04-10T10:32:47Z</time>
      </trkpt>
      <trkpt lat="47.27874" lon="-1.55184">
        <ele>89</ele>
        <time>2022-04-10T10:32:48Z</time>
      </trkpt>
      <trkpt lat="47.27873" lon="-1.55185">
        <ele>89</ele>
        <time>2022-04-10T10:32:49Z</time>
      </trkpt>
      <trkpt lat="47.27872" lon="-1.55186">
        <ele>89</ele>
        <time>2022-04-10T10:32:50Z</time>
      </trkpt>
      <trkpt lat="47.27871" lon="-1.55187">
        <ele>89</ele>
        <time>2022-04-10T10:32:51Z</time>
      </trkpt>
      <trkpt lat="47.2787" lon="-1.55188">
        <ele>89</ele>
        <time>2022-04-10T10:32:52Z</time>
      </trkpt>
      <trkpt lat="47.27869" lon="-1.55189">
        <ele>89</ele>
        <time>2022-04-10T10:32:53Z</time>
      </trkpt>
      <trkpt lat="47.27868" lon="-1.5519">
        <ele>89</ele>
        <time>2022-04-10T10:32:54Z</time>
      </trkpt>
      <trkpt lat="47.27868" lon="-1.55191">
        <ele>89</ele>
        <time>2022-04-10T10:32:55Z</time>
      </trkpt>
      <trkpt lat="47.27866" lon="-1.55192">
        <ele>89</ele>
        <time>2022-04-10T10:32:56Z</time>
      </trkpt>
      <trkpt lat="47.27866" lon="-1.55192">
        <ele>89</ele>
        <time>2022-04-10T10:32:57Z</time>
      </trkpt>
      <trkpt lat="47.27865" lon="-1.55193">
        <ele>89</ele>
        <time>2022-04-10T10:32:58Z</time>
      </trkpt>
      <trkpt lat="47.27863" lon="-1.55194">
        <ele>89</ele>
        <time>2022-04-10T10:32:59Z</time>
      </trkpt>
      <trkpt lat="47.27862" lon="-1.55195">
        <ele>89</ele>
        <time>2022-04-10T10:33:00Z</time>
      </trkpt>
      <trkpt lat="47.27861" lon="-1.55196">
        <ele>89</ele>
        <time>2022-04-10T10:33:01Z</time>
      </trkpt>
      <trkpt lat="47.2786" lon="-1.55196">
        <ele>89</ele>
        <time>2022-04-10T10:33:02Z</time>
      </trkpt>
      <trkpt lat="47.2786" lon="-1.55197">
        <ele>89</ele>
        <time>2022-04-10T10:33:03Z</time>
      </trkpt>
      <trkpt lat="47.27858" lon="-1.55198">
        <ele>90</ele>
        <time>2022-04-10T10:33:04Z</time>
      </trkpt>
      <trkpt lat="47.27857" lon="-1.55199">
        <ele>90</ele>
        <time>2022-04-10T10:33:05Z</time>
      </trkpt>
      <trkpt lat="47.27856" lon="-1.55199">
        <ele>90</ele>
        <time>2022-04-10T10:33:06Z</time>
      </trkpt>
      <trkpt lat="47.27855" lon="-1.552">
        <ele>91</ele>
        <time>2022-04-10T10:33:07Z</time>
      </trkpt>
      <trkpt lat="47.27854" lon="-1.55201">
        <ele>91</ele>
        <time>2022-04-10T10:33:08Z</time>
      </trkpt>
      <trkpt lat="47.27853" lon="-1.55202">
        <ele>91</ele>
        <time>2022-04-10T10:33:09Z</time>
      </trkpt>
      <trkpt lat="47.27852" lon="-1.55202">
        <ele>91</ele>
        <time>2022-04-10T10:33:10Z</time>
      </trkpt>
      <trkpt lat="47.27852" lon="-1.55203">
        <ele>91</ele>
        <time>2022-04-10T10:33:11Z</time>
      </trkpt>
      <trkpt lat="47.2785" lon="-1.55204">
        <ele>91</ele>
        <time>2022-04-10T10:33:12Z</time>
      </trkpt>
      <trkpt lat="47.2785" lon="-1.55204">
        <ele>91</ele>
        <time>2022-04-10T10:33:13Z</time>
      </trkpt>
      <trkpt lat="47.27848" lon="-1.55205">
        <ele>91</ele>
        <time>2022-04-10T10:33:14Z</time>
      </trkpt>
      <trkpt lat="47.27848" lon="-1.55206">
        <ele>91</ele>
        <time>2022-04-10T10:33:15Z</time>
      </trkpt>
      <trkpt lat="47.27847" lon="-1.55207">
        <ele>91</ele>
        <time>2022-04-10T10:33:16Z</time>
      </trkpt>
      <trkpt lat="47.27845" lon="-1.55208">
        <ele>90</ele>
        <time>2022-04-10T10:33:17Z</time>
      </trkpt>
      <trkpt lat="47.27844" lon="-1.55208">
        <ele>90</ele>
        <time>2022-04-10T10:33:18Z</time>
      </trkpt>
      <trkpt lat="47.27843" lon="-1.55209">
        <ele>90</ele>
        <time>2022-04-10T10:33:19Z</time>
      </trkpt>
      <trkpt lat="47.27842" lon="-1.5521">
        <ele>90</ele>
        <time>2022-04-10T10:33:20Z</time>
      </trkpt>
      <trkpt lat="47.2784" lon="-1.55211">
        <ele>90</ele>
        <time>2022-04-10T10:33:21Z</time>
      </trkpt>
      <trkpt lat="47.27839" lon="-1.55212">
        <ele>90</ele>
        <time>2022-04-10T10:33:22Z</time>
      </trkpt>
      <trkpt lat="47.27839" lon="-1.55213">
        <ele>90</ele>
        <time>2022-04-10T10:33:23Z</time>
      </trkpt>
      <trkpt lat="47.27838" lon="-1.55213">
        <ele>90</ele>
        <time>2022-04-10T10:33:24Z</time>
      </trkpt>
      <trkpt lat="47.27837" lon="-1.55214">
        <ele>91</ele>
        <time>2022-04-10T10:33:25Z</time>
      </trkpt>
      <trkpt lat="47.27835" lon="-1.55214">
        <ele>90</ele>
        <time>2022-04-10T10:33:26Z</time>
      </trkpt>
      <trkpt lat="47.27834" lon="-1.55215">
        <ele>91</ele>
        <time>2022-04-10T10:33:27Z</time>
      </trkpt>
      <trkpt lat="47.27834" lon="-1.55215">
        <ele>91</ele>
        <time>2022-04-10T10:33:28Z</time>
      </trkpt>
      <trkpt lat="47.27833" lon="-1.55216">
        <ele>91</ele>
        <time>2022-04-10T10:33:29Z</time>
      </trkpt>
      <trkpt lat="47.27832" lon="-1.55217">
        <ele>91</ele>
        <time>2022-04-10T10:33:30Z</time>
      </trkpt>
      <trkpt lat="47.27831" lon="-1.55217">
        <ele>91</ele>
        <time>2022-04-10T10:33:31Z</time>
      </trkpt>
      <trkpt lat="47.2783" lon="-1.55218">
        <ele>92</ele>
        <time>2022-04-10T10:33:32Z</time>
      </trkpt>
      <trkpt lat="47.27829" lon="-1.55219">
        <ele>92</ele>
        <time>2022-04-10T10:33:33Z</time>
      </trkpt>
      <trkpt lat="47.27828" lon="-1.5522">
        <ele>92</ele>
        <time>2022-04-10T10:33:34Z</time>
      </trkpt>
      <trkpt lat="47.27828" lon="-1.5522">
        <ele>92</ele>
        <time>2022-04-10T10:33:35Z</time>
      </trkpt>
      <trkpt lat="47.27826" lon="-1.55221">
        <ele>93</ele>
        <time>2022-04-10T10:33:36Z</time>
      </trkpt>
      <trkpt lat="47.27825" lon="-1.55222">
        <ele>93</ele>
        <time>2022-04-10T10:33:37Z</time>
      </trkpt>
      <trkpt lat="47.27824" lon="-1.55222">
        <ele>94</ele>
        <time>2022-04-10T10:33:38Z</time>
      </trkpt>
      <trkpt lat="47.27824" lon="-1.55223">
        <ele>94</ele>
        <time>2022-04-10T10:33:39Z</time>
      </trkpt>
      <trkpt lat="47.27823" lon="-1.55224">
        <ele>94</ele>
        <time>2022-04-10T10:33:40Z</time>
      </trkpt>
      <trkpt lat="47.27822" lon="-1.55224">
        <ele>94</ele>
        <time>2022-04-10T10:33:41Z</time>
      </trkpt>
      <trkpt lat="47.27821" lon="-1.55225">
        <ele>94</ele>
        <time>2022-04-10T10:33:42Z</time>
      </trkpt>
      <trkpt lat="47.2782" lon="-1.55226">
        <ele>94</ele>
        <time>2022-04-10T10:33:43Z</time>
      </trkpt>
      <trkpt lat="47.27819" lon="-1.55227">
        <ele>94</ele>
        <time>2022-04-10T10:33:44Z</time>
      </trkpt>
      <trkpt lat="47.27818" lon="-1.55228">
        <ele>94</ele>
        <time>2022-04-10T10:33:45Z</time>
      </trkpt>
      <trkpt lat="47.27817" lon="-1.55229">
        <ele>95</ele>
        <time>2022-04-10T10:33:46Z</time>
      </trkpt>
      <trkpt lat="47.27816" lon="-1.55229">
        <ele>95</ele>
        <time>2022-04-10T10:33:47Z</time>
      </trkpt>
      <trkpt lat="47.27815" lon="-1.5523">
        <ele>95</ele>
        <time>2022-04-10T10:33:48Z</time>
      </trkpt>
      <trkpt lat="47.27814" lon="-1.55229">
        <ele>96</ele>
        <time>2022-04-10T10:33:49Z</time>
      </trkpt>
      <trkpt lat="47.27813" lon="-1.5523">
        <ele>96</ele>
        <time>2022-04-10T10:33:50Z</time>
      </trkpt>
      <trkpt lat="47.27812" lon="-1.55231">
        <ele>96</ele>
        <time>2022-04-10T10:33:51Z</time>
      </trkpt>
      <trkpt lat="47.27811" lon="-1.55232">
        <ele>96</ele>
        <time>2022-04-10T10:33:52Z</time>
      </trkpt>
      <trkpt lat="47.2781" lon="-1.55232">
        <ele>96</ele>
        <time>2022-04-10T10:33:53Z</time>
      </trkpt>
      <trkpt lat="47.27809" lon="-1.55233">
        <ele>95</ele>
        <time>2022-04-10T10:33:54Z</time>
      </trkpt>
      <trkpt lat="47.27807" lon="-1.55234">
        <ele>95</ele>
        <time>2022-04-10T10:33:55Z</time>
      </trkpt>
      <trkpt lat="47.27806" lon="-1.55235">
        <ele>95</ele>
        <time>2022-04-10T10:33:56Z</time>
      </trkpt>
      <trkpt lat="47.27805" lon="-1.55236">
        <ele>95</ele>
        <time>2022-04-10T10:33:57Z</time>
      </trkpt>
      <trkpt lat="47.27803" lon="-1.55236">
        <ele>95</ele>
        <time>2022-04-10T10:33:58Z</time>
      </trkpt>
      <trkpt lat="47.27802" lon="-1.55237">
        <ele>95</ele>
        <time>2022-04-10T10:33:59Z</time>
      </trkpt>
      <trkpt lat="47.27801" lon="-1.55237">
        <ele>95</ele>
        <time>2022-04-10T10:34:00Z</time>
      </trkpt>
      <trkpt lat="47.278" lon="-1.55238">
        <ele>95</ele>
        <time>2022-04-10T10:34:01Z</time>
      </trkpt>
      <trkpt lat="47.27799" lon="-1.55239">
        <ele>95</ele>
        <time>2022-04-10T10:34:02Z</time>
      </trkpt>
      <trkpt lat="47.27798" lon="-1.5524">
        <ele>95</ele>
        <time>2022-04-10T10:34:03Z</time>
      </trkpt>
      <trkpt lat="47.27797" lon="-1.5524">
        <ele>95</ele>
        <time>2022-04-10T10:34:04Z</time>
      </trkpt>
      <trkpt lat="47.27795" lon="-1.55241">
        <ele>94</ele>
        <time>2022-04-10T10:34:05Z</time>
      </trkpt>
      <trkpt lat="47.27795" lon="-1.55242">
        <ele>94</ele>
        <time>2022-04-10T10:34:06Z</time>
      </trkpt>
      <trkpt lat="47.27794" lon="-1.55243">
        <ele>93</ele>
        <time>2022-04-10T10:34:07Z</time>
      </trkpt>
      <trkpt lat="47.27792" lon="-1.55244">
        <ele>94</ele>
        <time>2022-04-10T10:34:08Z</time>
      </trkpt>
      <trkpt lat="47.27791" lon="-1.55244">
        <ele>94</ele>
        <time>2022-04-10T10:34:09Z</time>
      </trkpt>
      <trkpt lat="47.2779" lon="-1.55245">
        <ele>93</ele>
        <time>2022-04-10T10:34:10Z</time>
      </trkpt>
      <trkpt lat="47.27789" lon="-1.55245">
        <ele>93</ele>
        <time>2022-04-10T10:34:11Z</time>
      </trkpt>
      <trkpt lat="47.27788" lon="-1.55245">
        <ele>93</ele>
        <time>2022-04-10T10:34:12Z</time>
      </trkpt>
      <trkpt lat="47.27787" lon="-1.55245">
        <ele>93</ele>
        <time>2022-04-10T10:34:13Z</time>
      </trkpt>
      <trkpt lat="47.27786" lon="-1.55246">
        <ele>93</ele>
        <time>2022-04-10T10:34:14Z</time>
      </trkpt>
      <trkpt lat="47.27785" lon="-1.55247">
        <ele>94</ele>
        <time>2022-04-10T10:34:15Z</time>
      </trkpt>
      <trkpt lat="47.27784" lon="-1.55247">
        <ele>94</ele>
        <time>2022-04-10T10:34:16Z</time>
      </trkpt>
      <trkpt lat="47.27783" lon="-1.55248">
        <ele>94</ele>
        <time>2022-04-10T10:34:17Z</time>
      </trkpt>
      <trkpt lat="47.27782" lon="-1.55247">
        <ele>94</ele>
        <time>2022-04-10T10:34:18Z</time>
      </trkpt>
      <trkpt lat="47.27781" lon="-1.55248">
        <ele>94</ele>
        <time>2022-04-10T10:34:19Z</time>
      </trkpt>
      <trkpt lat="47.2778" lon="-1.55248">
        <ele>94</ele>
        <time>2022-04-10T10:34:20Z</time>
      </trkpt>
      <trkpt lat="47.27779" lon="-1.55249">
        <ele>95</ele>
        <time>2022-04-10T10:34:21Z</time>
      </trkpt>
      <trkpt lat="47.27778" lon="-1.5525">
        <ele>95</ele>
        <time>2022-04-10T10:34:22Z</time>
      </trkpt>
      <trkpt lat="47.27777" lon="-1.55251">
        <ele>94</ele>
        <time>2022-04-10T10:34:23Z</time>
      </trkpt>
      <trkpt lat="47.27776" lon="-1.55251">
        <ele>94</ele>
        <time>2022-04-10T10:34:24Z</time>
      </trkpt>
      <trkpt lat="47.27774" lon="-1.55252">
        <ele>94</ele>
        <time>2022-04-10T10:34:25Z</time>
      </trkpt>
      <trkpt lat="47.27773" lon="-1.55253">
        <ele>95</ele>
        <time>2022-04-10T10:34:26Z</time>
      </trkpt>
      <trkpt lat="47.27772" lon="-1.55253">
        <ele>95</ele>
        <time>2022-04-10T10:34:27Z</time>
      </trkpt>
      <trkpt lat="47.27771" lon="-1.55255">
        <ele>95</ele>
        <time>2022-04-10T10:34:28Z</time>
      </trkpt>
      <trkpt lat="47.2777" lon="-1.55255">
        <ele>95</ele>
        <time>2022-04-10T10:34:29Z</time>
      </trkpt>
      <trkpt lat="47.27769" lon="-1.55256">
        <ele>95</ele>
        <time>2022-04-10T10:34:30Z</time>
      </trkpt>
      <trkpt lat="47.27768" lon="-1.55257">
        <ele>95</ele>
        <time>2022-04-10T10:34:31Z</time>
      </trkpt>
      <trkpt lat="47.27766" lon="-1.55258">
        <ele>95</ele>
        <time>2022-04-10T10:34:32Z</time>
      </trkpt>
      <trkpt lat="47.27765" lon="-1.55259">
        <ele>94</ele>
        <time>2022-04-10T10:34:33Z</time>
      </trkpt>
      <trkpt lat="47.27764" lon="-1.5526">
        <ele>94</ele>
        <time>2022-04-10T10:34:34Z</time>
      </trkpt>
      <trkpt lat="47.27762" lon="-1.5526">
        <ele>94</ele>
        <time>2022-04-10T10:34:35Z</time>
      </trkpt>
      <trkpt lat="47.27762" lon="-1.55261">
        <ele>94</ele>
        <time>2022-04-10T10:34:36Z</time>
      </trkpt>
      <trkpt lat="47.2776" lon="-1.55261">
        <ele>95</ele>
        <time>2022-04-10T10:34:37Z</time>
      </trkpt>
      <trkpt lat="47.27759" lon="-1.55262">
        <ele>95</ele>
        <time>2022-04-10T10:34:38Z</time>
      </trkpt>
      <trkpt lat="47.27758" lon="-1.55262">
        <ele>94</ele>
        <time>2022-04-10T10:34:39Z</time>
      </trkpt>
      <trkpt lat="47.27756" lon="-1.55262">
        <ele>93</ele>
        <time>2022-04-10T10:34:40Z</time>
      </trkpt>
      <trkpt lat="47.27755" lon="-1.55262">
        <ele>92</ele>
        <time>2022-04-10T10:34:41Z</time>
      </trkpt>
      <trkpt lat="47.27753" lon="-1.55262">
        <ele>92</ele>
        <time>2022-04-10T10:34:42Z</time>
      </trkpt>
      <trkpt lat="47.27752" lon="-1.55261">
        <ele>92</ele>
        <time>2022-04-10T10:34:43Z</time>
      </trkpt>
      <trkpt lat="47.27751" lon="-1.55261">
        <ele>92</ele>
        <time>2022-04-10T10:34:44Z</time>
      </trkpt>
      <trkpt lat="47.2775" lon="-1.5526">
        <ele>92</ele>
        <time>2022-04-10T10:34:45Z</time>
      </trkpt>
      <trkpt lat="47.27748" lon="-1.55259">
        <ele>93</ele>
        <time>2022-04-10T10:34:46Z</time>
      </trkpt>
      <trkpt lat="47.27747" lon="-1.55259">
        <ele>93</ele>
        <time>2022-04-10T10:34:47Z</time>
      </trkpt>
      <trkpt lat="47.27746" lon="-1.55258">
        <ele>93</ele>
        <time>2022-04-10T10:34:48Z</time>
      </trkpt>
      <trkpt lat="47.27745" lon="-1.55257">
        <ele>93</ele>
        <time>2022-04-10T10:34:49Z</time>
      </trkpt>
      <trkpt lat="47.27744" lon="-1.55255">
        <ele>93</ele>
        <time>2022-04-10T10:34:50Z</time>
      </trkpt>
      <trkpt lat="47.27743" lon="-1.55255">
        <ele>93</ele>
        <time>2022-04-10T10:34:51Z</time>
      </trkpt>
      <trkpt lat="47.27742" lon="-1.55254">
        <ele>93</ele>
        <time>2022-04-10T10:34:52Z</time>
      </trkpt>
      <trkpt lat="47.27741" lon="-1.55253">
        <ele>93</ele>
        <time>2022-04-10T10:34:53Z</time>
      </trkpt>
      <trkpt lat="47.2774" lon="-1.55253">
        <ele>93</ele>
        <time>2022-04-10T10:34:54Z</time>
      </trkpt>
      <trkpt lat="47.27739" lon="-1.55252">
        <ele>93</ele>
        <time>2022-04-10T10:34:55Z</time>
      </trkpt>
      <trkpt lat="47.27738" lon="-1.55251">
        <ele>93</ele>
        <time>2022-04-10T10:34:56Z</time>
      </trkpt>
      <trkpt lat="47.27737" lon="-1.5525">
        <ele>93</ele>
        <time>2022-04-10T10:34:57Z</time>
      </trkpt>
      <trkpt lat="47.27736" lon="-1.55248">
        <ele>93</ele>
        <time>2022-04-10T10:34:58Z</time>
      </trkpt>
      <trkpt lat="47.27735" lon="-1.55248">
        <ele>93</ele>
        <time>2022-04-10T10:34:59Z</time>
      </trkpt>
      <trkpt lat="47.27734" lon="-1.55247">
        <ele>93</ele>
        <time>2022-04-10T10:35:00Z</time>
      </trkpt>
      <trkpt lat="47.27733" lon="-1.55246">
        <ele>92</ele>
        <time>2022-04-10T10:35:01Z</time>
      </trkpt>
      <trkpt lat="47.27732" lon="-1.55245">
        <ele>92</ele>
        <time>2022-04-10T10:35:02Z</time>
      </trkpt>
      <trkpt lat="47.27731" lon="-1.55244">
        <ele>92</ele>
        <time>2022-04-10T10:35:03Z</time>
      </trkpt>
      <trkpt lat="47.2773" lon="-1.55243">
        <ele>92</ele>
        <time>2022-04-10T10:35:04Z</time>
      </trkpt>
      <trkpt lat="47.27729" lon="-1.55242">
        <ele>92</ele>
        <time>2022-04-10T10:35:05Z</time>
      </trkpt>
      <trkpt lat="47.27728" lon="-1.5524">
        <ele>92</ele>
        <time>2022-04-10T10:35:06Z</time>
      </trkpt>
      <trkpt lat="47.27727" lon="-1.55239">
        <ele>93</ele>
        <time>2022-04-10T10:35:07Z</time>
      </trkpt>
      <trkpt lat="47.27726" lon="-1.55238">
        <ele>93</ele>
        <time>2022-04-10T10:35:08Z</time>
      </trkpt>
      <trkpt lat="47.27725" lon="-1.55237">
        <ele>93</ele>
        <time>2022-04-10T10:35:09Z</time>
      </trkpt>
      <trkpt lat="47.27725" lon="-1.55236">
        <ele>93</ele>
        <time>2022-04-10T10:35:10Z</time>
      </trkpt>
      <trkpt lat="47.27723" lon="-1.55235">
        <ele>92</ele>
        <time>2022-04-10T10:35:11Z</time>
      </trkpt>
      <trkpt lat="47.27723" lon="-1.55234">
        <ele>92</ele>
        <time>2022-04-10T10:35:12Z</time>
      </trkpt>
      <trkpt lat="47.27721" lon="-1.55233">
        <ele>92</ele>
        <time>2022-04-10T10:35:13Z</time>
      </trkpt>
      <trkpt lat="47.2772" lon="-1.55232">
        <ele>92</ele>
        <time>2022-04-10T10:35:14Z</time>
      </trkpt>
      <trkpt lat="47.2772" lon="-1.5523">
        <ele>91</ele>
        <time>2022-04-10T10:35:15Z</time>
      </trkpt>
      <trkpt lat="47.27718" lon="-1.5523">
        <ele>91</ele>
        <time>2022-04-10T10:35:16Z</time>
      </trkpt>
      <trkpt lat="47.27718" lon="-1.55229">
        <ele>92</ele>
        <time>2022-04-10T10:35:17Z</time>
      </trkpt>
      <trkpt lat="47.27716" lon="-1.55228">
        <ele>91</ele>
        <time>2022-04-10T10:35:18Z</time>
      </trkpt>
      <trkpt lat="47.27716" lon="-1.55227">
        <ele>92</ele>
        <time>2022-04-10T10:35:19Z</time>
      </trkpt>
      <trkpt lat="47.27715" lon="-1.55226">
        <ele>92</ele>
        <time>2022-04-10T10:35:20Z</time>
      </trkpt>
      <trkpt lat="47.27714" lon="-1.55224">
        <ele>92</ele>
        <time>2022-04-10T10:35:21Z</time>
      </trkpt>
      <trkpt lat="47.27713" lon="-1.55224">
        <ele>91</ele>
        <time>2022-04-10T10:35:22Z</time>
      </trkpt>
      <trkpt lat="47.27712" lon="-1.55223">
        <ele>91</ele>
        <time>2022-04-10T10:35:23Z</time>
      </trkpt>
      <trkpt lat="47.27711" lon="-1.55222">
        <ele>92</ele>
        <time>2022-04-10T10:35:24Z</time>
      </trkpt>
      <trkpt lat="47.2771" lon="-1.5522">
        <ele>92</ele>
        <time>2022-04-10T10:35:25Z</time>
      </trkpt>
      <trkpt lat="47.27709" lon="-1.55219">
        <ele>92</ele>
        <time>2022-04-10T10:35:26Z</time>
      </trkpt>
      <trkpt lat="47.27708" lon="-1.55218">
        <ele>92</ele>
        <time>2022-04-10T10:35:27Z</time>
      </trkpt>
      <trkpt lat="47.27707" lon="-1.55217">
        <ele>91</ele>
        <time>2022-04-10T10:35:28Z</time>
      </trkpt>
      <trkpt lat="47.27706" lon="-1.55216">
        <ele>91</ele>
        <time>2022-04-10T10:35:29Z</time>
      </trkpt>
      <trkpt lat="47.27705" lon="-1.55215">
        <ele>91</ele>
        <time>2022-04-10T10:35:30Z</time>
      </trkpt>
      <trkpt lat="47.27705" lon="-1.55214">
        <ele>91</ele>
        <time>2022-04-10T10:35:31Z</time>
      </trkpt>
      <trkpt lat="47.27704" lon="-1.55212">
        <ele>91</ele>
        <time>2022-04-10T10:35:32Z</time>
      </trkpt>
      <trkpt lat="47.27703" lon="-1.55211">
        <ele>91</ele>
        <time>2022-04-10T10:35:33Z</time>
      </trkpt>
      <trkpt lat="47.27702" lon="-1.5521">
        <ele>91</ele>
        <time>2022-04-10T10:35:34Z</time>
      </trkpt>
      <trkpt lat="47.27701" lon="-1.55209">
        <ele>91</ele>
        <time>2022-04-10T10:35:35Z</time>
      </trkpt>
      <trkpt lat="47.277" lon="-1.55208">
        <ele>91</ele>
        <time>2022-04-10T10:35:36Z</time>
      </trkpt>
      <trkpt lat="47.277" lon="-1.55207">
        <ele>91</ele>
        <time>2022-04-10T10:35:37Z</time>
      </trkpt>
      <trkpt lat="47.27699" lon="-1.55206">
        <ele>92</ele>
        <time>2022-04-10T10:35:38Z</time>
      </trkpt>
      <trkpt lat="47.27698" lon="-1.55205">
        <ele>92</ele>
        <time>2022-04-10T10:35:39Z</time>
      </trkpt>
      <trkpt lat="47.27697" lon="-1.55204">
        <ele>91</ele>
        <time>2022-04-10T10:35:40Z</time>
      </trkpt>
      <trkpt lat="47.27696" lon="-1.55203">
        <ele>91</ele>
        <time>2022-04-10T10:35:41Z</time>
      </trkpt>
      <trkpt lat="47.27695" lon="-1.55202">
        <ele>91</ele>
        <time>2022-04-10T10:35:42Z</time>
      </trkpt>
      <trkpt lat="47.27694" lon="-1.552">
        <ele>91</ele>
        <time>2022-04-10T10:35:43Z</time>
      </trkpt>
      <trkpt lat="47.27694" lon="-1.55199">
        <ele>91</ele>
        <time>2022-04-10T10:35:44Z</time>
      </trkpt>
      <trkpt lat="47.27692" lon="-1.55198">
        <ele>90</ele>
        <time>2022-04-10T10:35:45Z</time>
      </trkpt>
      <trkpt lat="47.27692" lon="-1.55196">
        <ele>91</ele>
        <time>2022-04-10T10:35:46Z</time>
      </trkpt>
      <trkpt lat="47.27691" lon="-1.55195">
        <ele>91</ele>
        <time>2022-04-10T10:35:47Z</time>
      </trkpt>
      <trkpt lat="47.2769" lon="-1.55194">
        <ele>91</ele>
        <time>2022-04-10T10:35:48Z</time>
      </trkpt>
      <trkpt lat="47.27689" lon="-1.55193">
        <ele>91</ele>
        <time>2022-04-10T10:35:49Z</time>
      </trkpt>
      <trkpt lat="47.27688" lon="-1.55192">
        <ele>91</ele>
        <time>2022-04-10T10:35:50Z</time>
      </trkpt>
      <trkpt lat="47.27688" lon="-1.55191">
        <ele>91</ele>
        <time>2022-04-10T10:35:51Z</time>
      </trkpt>
      <trkpt lat="47.27687" lon="-1.5519">
        <ele>91</ele>
        <time>2022-04-10T10:35:52Z</time>
      </trkpt>
      <trkpt lat="47.27686" lon="-1.55189">
        <ele>91</ele>
        <time>2022-04-10T10:35:53Z</time>
      </trkpt>
      <trkpt lat="47.27685" lon="-1.55188">
        <ele>92</ele>
        <time>2022-04-10T10:35:54Z</time>
      </trkpt>
      <trkpt lat="47.27684" lon="-1.55187">
        <ele>91</ele>
        <time>2022-04-10T10:35:55Z</time>
      </trkpt>
      <trkpt lat="47.27683" lon="-1.55186">
        <ele>91</ele>
        <time>2022-04-10T10:35:56Z</time>
      </trkpt>
      <trkpt lat="47.27682" lon="-1.55185">
        <ele>91</ele>
        <time>2022-04-10T10:35:57Z</time>
      </trkpt>
      <trkpt lat="47.27681" lon="-1.55184">
        <ele>91</ele>
        <time>2022-04-10T10:35:58Z</time>
      </trkpt>
      <trkpt lat="47.2768" lon="-1.55184">
        <ele>92</ele>
        <time>2022-04-10T10:35:59Z</time>
      </trkpt>
      <trkpt lat="47.27679" lon="-1.55183">
        <ele>93</ele>
        <time>2022-04-10T10:36:00Z</time>
      </trkpt>
      <trkpt lat="47.27678" lon="-1.55182">
        <ele>93</ele>
        <time>2022-04-10T10:36:01Z</time>
      </trkpt>
      <trkpt lat="47.27677" lon="-1.5518">
        <ele>93</ele>
        <time>2022-04-10T10:36:02Z</time>
      </trkpt>
      <trkpt lat="47.27676" lon="-1.55179">
        <ele>93</ele>
        <time>2022-04-10T10:36:03Z</time>
      </trkpt>
      <trkpt lat="47.27676" lon="-1.55177">
        <ele>93</ele>
        <time>2022-04-10T10:36:04Z</time>
      </trkpt>
      <trkpt lat="47.27675" lon="-1.55176">
        <ele>92</ele>
        <time>2022-04-10T10:36:05Z</time>
      </trkpt>
      <trkpt lat="47.27675" lon="-1.55174">
        <ele>92</ele>
        <time>2022-04-10T10:36:06Z</time>
      </trkpt>
      <trkpt lat="47.27674" lon="-1.55173">
        <ele>92</ele>
        <time>2022-04-10T10:36:07Z</time>
      </trkpt>
      <trkpt lat="47.27673" lon="-1.55172">
        <ele>92</ele>
        <time>2022-04-10T10:36:08Z</time>
      </trkpt>
      <trkpt lat="47.27673" lon="-1.55171">
        <ele>91</ele>
        <time>2022-04-10T10:36:09Z</time>
      </trkpt>
      <trkpt lat="47.27673" lon="-1.55169">
        <ele>91</ele>
        <time>2022-04-10T10:36:10Z</time>
      </trkpt>
      <trkpt lat="47.27672" lon="-1.55168">
        <ele>91</ele>
        <time>2022-04-10T10:36:11Z</time>
      </trkpt>
      <trkpt lat="47.27671" lon="-1.55167">
        <ele>91</ele>
        <time>2022-04-10T10:36:12Z</time>
      </trkpt>
      <trkpt lat="47.27671" lon="-1.55166">
        <ele>91</ele>
        <time>2022-04-10T10:36:13Z</time>
      </trkpt>
      <trkpt lat="47.2767" lon="-1.55165">
        <ele>91</ele>
        <time>2022-04-10T10:36:14Z</time>
      </trkpt>
      <trkpt lat="47.27669" lon="-1.55164">
        <ele>91</ele>
        <time>2022-04-10T10:36:15Z</time>
      </trkpt>
      <trkpt lat="47.27668" lon="-1.55163">
        <ele>92</ele>
        <time>2022-04-10T10:36:16Z</time>
      </trkpt>
      <trkpt lat="47.27667" lon="-1.55162">
        <ele>92</ele>
        <time>2022-04-10T10:36:17Z</time>
      </trkpt>
      <trkpt lat="47.27666" lon="-1.55161">
        <ele>92</ele>
        <time>2022-04-10T10:36:18Z</time>
      </trkpt>
      <trkpt lat="47.27665" lon="-1.5516">
        <ele>92</ele>
        <time>2022-04-10T10:36:19Z</time>
      </trkpt>
      <trkpt lat="47.27665" lon="-1.55158">
        <ele>92</ele>
        <time>2022-04-10T10:36:20Z</time>
      </trkpt>
      <trkpt lat="47.27664" lon="-1.55157">
        <ele>92</ele>
        <time>2022-04-10T10:36:21Z</time>
      </trkpt>
      <trkpt lat="47.27663" lon="-1.55157">
        <ele>92</ele>
        <time>2022-04-10T10:36:22Z</time>
      </trkpt>
      <trkpt lat="47.27662" lon="-1.55155">
        <ele>92</ele>
        <time>2022-04-10T10:36:23Z</time>
      </trkpt>
      <trkpt lat="47.27661" lon="-1.55154">
        <ele>92</ele>
        <time>2022-04-10T10:36:24Z</time>
      </trkpt>
      <trkpt lat="47.2766" lon="-1.55153">
        <ele>92</ele>
        <time>2022-04-10T10:36:25Z</time>
      </trkpt>
      <trkpt lat="47.2766" lon="-1.55152">
        <ele>93</ele>
        <time>2022-04-10T10:36:26Z</time>
      </trkpt>
      <trkpt lat="47.27659" lon="-1.5515">
        <ele>93</ele>
        <time>2022-04-10T10:36:27Z</time>
      </trkpt>
      <trkpt lat="47.27659" lon="-1.55149">
        <ele>92</ele>
        <time>2022-04-10T10:36:28Z</time>
      </trkpt>
      <trkpt lat="47.27658" lon="-1.55146">
        <ele>93</ele>
        <time>2022-04-10T10:36:29Z</time>
      </trkpt>
      <trkpt lat="47.27657" lon="-1.55144">
        <ele>93</ele>
        <time>2022-04-10T10:36:30Z</time>
      </trkpt>
      <trkpt lat="47.27657" lon="-1.55143">
        <ele>93</ele>
        <time>2022-04-10T10:36:31Z</time>
      </trkpt>
      <trkpt lat="47.27657" lon="-1.55143">
        <ele>93</ele>
        <time>2022-04-10T10:36:32Z</time>
      </trkpt>
      <trkpt lat="47.27655" lon="-1.55142">
        <ele>92</ele>
        <time>2022-04-10T10:36:33Z</time>
      </trkpt>
      <trkpt lat="47.27654" lon="-1.55141">
        <ele>93</ele>
        <time>2022-04-10T10:36:34Z</time>
      </trkpt>
      <trkpt lat="47.27654" lon="-1.55141">
        <ele>93</ele>
        <time>2022-04-10T10:36:35Z</time>
      </trkpt>
      <trkpt lat="47.27653" lon="-1.5514">
        <ele>93</ele>
        <time>2022-04-10T10:36:36Z</time>
      </trkpt>
      <trkpt lat="47.27652" lon="-1.55139">
        <ele>92</ele>
        <time>2022-04-10T10:36:37Z</time>
      </trkpt>
      <trkpt lat="47.27651" lon="-1.55139">
        <ele>92</ele>
        <time>2022-04-10T10:36:38Z</time>
      </trkpt>
      <trkpt lat="47.2765" lon="-1.55138">
        <ele>92</ele>
        <time>2022-04-10T10:36:39Z</time>
      </trkpt>
      <trkpt lat="47.27649" lon="-1.55137">
        <ele>92</ele>
        <time>2022-04-10T10:36:40Z</time>
      </trkpt>
      <trkpt lat="47.27648" lon="-1.55136">
        <ele>92</ele>
        <time>2022-04-10T10:36:41Z</time>
      </trkpt>
      <trkpt lat="47.27648" lon="-1.55135">
        <ele>92</ele>
        <time>2022-04-10T10:36:42Z</time>
      </trkpt>
      <trkpt lat="47.27647" lon="-1.55133">
        <ele>92</ele>
        <time>2022-04-10T10:36:43Z</time>
      </trkpt>
      <trkpt lat="47.27647" lon="-1.55132">
        <ele>91</ele>
        <time>2022-04-10T10:36:44Z</time>
      </trkpt>
      <trkpt lat="47.27646" lon="-1.55131">
        <ele>91</ele>
        <time>2022-04-10T10:36:45Z</time>
      </trkpt>
      <trkpt lat="47.27645" lon="-1.55129">
        <ele>90</ele>
        <time>2022-04-10T10:36:46Z</time>
      </trkpt>
      <trkpt lat="47.27644" lon="-1.55128">
        <ele>90</ele>
        <time>2022-04-10T10:36:47Z</time>
      </trkpt>
      <trkpt lat="47.27643" lon="-1.55127">
        <ele>90</ele>
        <time>2022-04-10T10:36:48Z</time>
      </trkpt>
      <trkpt lat="47.27642" lon="-1.55126">
        <ele>90</ele>
        <time>2022-04-10T10:36:49Z</time>
      </trkpt>
      <trkpt lat="47.27642" lon="-1.55124">
        <ele>89</ele>
        <time>2022-04-10T10:36:50Z</time>
      </trkpt>
      <trkpt lat="47.27641" lon="-1.55123">
        <ele>89</ele>
        <time>2022-04-10T10:36:51Z</time>
      </trkpt>
      <trkpt lat="47.2764" lon="-1.55121">
        <ele>89</ele>
        <time>2022-04-10T10:36:52Z</time>
      </trkpt>
      <trkpt lat="47.27639" lon="-1.5512">
        <ele>89</ele>
        <time>2022-04-10T10:36:53Z</time>
      </trkpt>
      <trkpt lat="47.27638" lon="-1.55119">
        <ele>90</ele>
        <time>2022-04-10T10:36:54Z</time>
      </trkpt>
      <trkpt lat="47.27636" lon="-1.55118">
        <ele>90</ele>
        <time>2022-04-10T10:36:55Z</time>
      </trkpt>
      <trkpt lat="47.27635" lon="-1.55118">
        <ele>90</ele>
        <time>2022-04-10T10:36:56Z</time>
      </trkpt>
      <trkpt lat="47.27634" lon="-1.55117">
        <ele>90</ele>
        <time>2022-04-10T10:36:57Z</time>
      </trkpt>
      <trkpt lat="47.27633" lon="-1.55116">
        <ele>90</ele>
        <time>2022-04-10T10:36:58Z</time>
      </trkpt>
      <trkpt lat="47.27632" lon="-1.55114">
        <ele>90</ele>
        <time>2022-04-10T10:36:59Z</time>
      </trkpt>
      <trkpt lat="47.27631" lon="-1.55113">
        <ele>91</ele>
        <time>2022-04-10T10:37:00Z</time>
      </trkpt>
      <trkpt lat="47.2763" lon="-1.55112">
        <ele>90</ele>
        <time>2022-04-10T10:37:01Z</time>
      </trkpt>
      <trkpt lat="47.27628" lon="-1.55111">
        <ele>90</ele>
        <time>2022-04-10T10:37:02Z</time>
      </trkpt>
      <trkpt lat="47.27628" lon="-1.5511">
        <ele>90</ele>
        <time>2022-04-10T10:37:03Z</time>
      </trkpt>
      <trkpt lat="47.27626" lon="-1.55109">
        <ele>90</ele>
        <time>2022-04-10T10:37:04Z</time>
      </trkpt>
      <trkpt lat="47.27626" lon="-1.55108">
        <ele>90</ele>
        <time>2022-04-10T10:37:05Z</time>
      </trkpt>
      <trkpt lat="47.27625" lon="-1.55107">
        <ele>90</ele>
        <time>2022-04-10T10:37:06Z</time>
      </trkpt>
      <trkpt lat="47.27623" lon="-1.55106">
        <ele>91</ele>
        <time>2022-04-10T10:37:07Z</time>
      </trkpt>
      <trkpt lat="47.27623" lon="-1.55104">
        <ele>91</ele>
        <time>2022-04-10T10:37:08Z</time>
      </trkpt>
      <trkpt lat="47.27622" lon="-1.55103">
        <ele>91</ele>
        <time>2022-04-10T10:37:09Z</time>
      </trkpt>
      <trkpt lat="47.2762" lon="-1.55102">
        <ele>91</ele>
        <time>2022-04-10T10:37:10Z</time>
      </trkpt>
      <trkpt lat="47.2762" lon="-1.55101">
        <ele>91</ele>
        <time>2022-04-10T10:37:11Z</time>
      </trkpt>
      <trkpt lat="47.27619" lon="-1.551">
        <ele>91</ele>
        <time>2022-04-10T10:37:12Z</time>
      </trkpt>
      <trkpt lat="47.27618" lon="-1.55099">
        <ele>90</ele>
        <time>2022-04-10T10:37:13Z</time>
      </trkpt>
      <trkpt lat="47.27617" lon="-1.55098">
        <ele>90</ele>
        <time>2022-04-10T10:37:14Z</time>
      </trkpt>
      <trkpt lat="47.27616" lon="-1.55097">
        <ele>90</ele>
        <time>2022-04-10T10:37:15Z</time>
      </trkpt>
      <trkpt lat="47.27615" lon="-1.55096">
        <ele>90</ele>
        <time>2022-04-10T10:37:16Z</time>
      </trkpt>
      <trkpt lat="47.27614" lon="-1.55095">
        <ele>90</ele>
        <time>2022-04-10T10:37:17Z</time>
      </trkpt>
      <trkpt lat="47.27613" lon="-1.55094">
        <ele>89</ele>
        <time>2022-04-10T10:37:18Z</time>
      </trkpt>
      <trkpt lat="47.27612" lon="-1.55093">
        <ele>89</ele>
        <time>2022-04-10T10:37:19Z</time>
      </trkpt>
      <trkpt lat="47.27611" lon="-1.55092">
        <ele>88</ele>
        <time>2022-04-10T10:37:20Z</time>
      </trkpt>
      <trkpt lat="47.2761" lon="-1.5509">
        <ele>88</ele>
        <time>2022-04-10T10:37:21Z</time>
      </trkpt>
      <trkpt lat="47.2761" lon="-1.55089">
        <ele>88</ele>
        <time>2022-04-10T10:37:22Z</time>
      </trkpt>
      <trkpt lat="47.27609" lon="-1.55089">
        <ele>89</ele>
        <time>2022-04-10T10:37:23Z</time>
      </trkpt>
      <trkpt lat="47.27608" lon="-1.55088">
        <ele>89</ele>
        <time>2022-04-10T10:37:24Z</time>
      </trkpt>
      <trkpt lat="47.27607" lon="-1.55087">
        <ele>89</ele>
        <time>2022-04-10T10:37:25Z</time>
      </trkpt>
      <trkpt lat="47.27606" lon="-1.55086">
        <ele>90</ele>
        <time>2022-04-10T10:37:26Z</time>
      </trkpt>
      <trkpt lat="47.27605" lon="-1.55085">
        <ele>89</ele>
        <time>2022-04-10T10:37:27Z</time>
      </trkpt>
      <trkpt lat="47.27604" lon="-1.55084">
        <ele>90</ele>
        <time>2022-04-10T10:37:28Z</time>
      </trkpt>
      <trkpt lat="47.27603" lon="-1.55083">
        <ele>90</ele>
        <time>2022-04-10T10:37:29Z</time>
      </trkpt>
      <trkpt lat="47.27602" lon="-1.55082">
        <ele>89</ele>
        <time>2022-04-10T10:37:30Z</time>
      </trkpt>
      <trkpt lat="47.27601" lon="-1.55081">
        <ele>90</ele>
        <time>2022-04-10T10:37:31Z</time>
      </trkpt>
      <trkpt lat="47.276" lon="-1.5508">
        <ele>90</ele>
        <time>2022-04-10T10:37:32Z</time>
      </trkpt>
      <trkpt lat="47.27599" lon="-1.55078">
        <ele>90</ele>
        <time>2022-04-10T10:37:33Z</time>
      </trkpt>
      <trkpt lat="47.27598" lon="-1.55077">
        <ele>89</ele>
        <time>2022-04-10T10:37:34Z</time>
      </trkpt>
      <trkpt lat="47.27597" lon="-1.55076">
        <ele>89</ele>
        <time>2022-04-10T10:37:35Z</time>
      </trkpt>
      <trkpt lat="47.27596" lon="-1.55075">
        <ele>89</ele>
        <time>2022-04-10T10:37:36Z</time>
      </trkpt>
      <trkpt lat="47.27596" lon="-1.55074">
        <ele>90</ele>
        <time>2022-04-10T10:37:37Z</time>
      </trkpt>
      <trkpt lat="47.27594" lon="-1.55073">
        <ele>90</ele>
        <time>2022-04-10T10:37:38Z</time>
      </trkpt>
      <trkpt lat="47.27594" lon="-1.55072">
        <ele>90</ele>
        <time>2022-04-10T10:37:39Z</time>
      </trkpt>
      <trkpt lat="47.27593" lon="-1.55072">
        <ele>90</ele>
        <time>2022-04-10T10:37:40Z</time>
      </trkpt>
      <trkpt lat="47.27591" lon="-1.55071">
        <ele>90</ele>
        <time>2022-04-10T10:37:41Z</time>
      </trkpt>
      <trkpt lat="47.2759" lon="-1.55069">
        <ele>89</ele>
        <time>2022-04-10T10:37:42Z</time>
      </trkpt>
      <trkpt lat="47.27589" lon="-1.55069">
        <ele>89</ele>
        <time>2022-04-10T10:37:43Z</time>
      </trkpt>
      <trkpt lat="47.27588" lon="-1.55068">
        <ele>89</ele>
        <time>2022-04-10T10:37:44Z</time>
      </trkpt>
      <trkpt lat="47.27587" lon="-1.55067">
        <ele>88</ele>
        <time>2022-04-10T10:37:45Z</time>
      </trkpt>
      <trkpt lat="47.27586" lon="-1.55067">
        <ele>88</ele>
        <time>2022-04-10T10:37:46Z</time>
      </trkpt>
      <trkpt lat="47.27585" lon="-1.55066">
        <ele>88</ele>
        <time>2022-04-10T10:37:47Z</time>
      </trkpt>
      <trkpt lat="47.27584" lon="-1.55065">
        <ele>89</ele>
        <time>2022-04-10T10:37:48Z</time>
      </trkpt>
      <trkpt lat="47.27583" lon="-1.55064">
        <ele>89</ele>
        <time>2022-04-10T10:37:49Z</time>
      </trkpt>
      <trkpt lat="47.27581" lon="-1.55063">
        <ele>89</ele>
        <time>2022-04-10T10:37:50Z</time>
      </trkpt>
      <trkpt lat="47.2758" lon="-1.55063">
        <ele>89</ele>
        <time>2022-04-10T10:37:51Z</time>
      </trkpt>
      <trkpt lat="47.27578" lon="-1.55062">
        <ele>89</ele>
        <time>2022-04-10T10:37:52Z</time>
      </trkpt>
      <trkpt lat="47.27577" lon="-1.55061">
        <ele>89</ele>
        <time>2022-04-10T10:37:53Z</time>
      </trkpt>
      <trkpt lat="47.27576" lon="-1.5506">
        <ele>89</ele>
        <time>2022-04-10T10:37:54Z</time>
      </trkpt>
      <trkpt lat="47.27575" lon="-1.55059">
        <ele>89</ele>
        <time>2022-04-10T10:37:55Z</time>
      </trkpt>
      <trkpt lat="47.27575" lon="-1.55059">
        <ele>89</ele>
        <time>2022-04-10T10:37:56Z</time>
      </trkpt>
      <trkpt lat="47.27573" lon="-1.55058">
        <ele>89</ele>
        <time>2022-04-10T10:37:57Z</time>
      </trkpt>
      <trkpt lat="47.27573" lon="-1.55057">
        <ele>89</ele>
        <time>2022-04-10T10:37:58Z</time>
      </trkpt>
      <trkpt lat="47.27572" lon="-1.55056">
        <ele>89</ele>
        <time>2022-04-10T10:37:59Z</time>
      </trkpt>
      <trkpt lat="47.2757" lon="-1.55055">
        <ele>89</ele>
        <time>2022-04-10T10:38:00Z</time>
      </trkpt>
      <trkpt lat="47.2757" lon="-1.55053">
        <ele>89</ele>
        <time>2022-04-10T10:38:01Z</time>
      </trkpt>
      <trkpt lat="47.27568" lon="-1.55052">
        <ele>89</ele>
        <time>2022-04-10T10:38:02Z</time>
      </trkpt>
      <trkpt lat="47.27568" lon="-1.55051">
        <ele>89</ele>
        <time>2022-04-10T10:38:03Z</time>
      </trkpt>
      <trkpt lat="47.27567" lon="-1.5505">
        <ele>89</ele>
        <time>2022-04-10T10:38:04Z</time>
      </trkpt>
      <trkpt lat="47.27566" lon="-1.55049">
        <ele>88</ele>
        <time>2022-04-10T10:38:05Z</time>
      </trkpt>
      <trkpt lat="47.27565" lon="-1.55048">
        <ele>88</ele>
        <time>2022-04-10T10:38:06Z</time>
      </trkpt>
      <trkpt lat="47.27564" lon="-1.55046">
        <ele>87</ele>
        <time>2022-04-10T10:38:07Z</time>
      </trkpt>
      <trkpt lat="47.27563" lon="-1.55045">
        <ele>87</ele>
        <time>2022-04-10T10:38:08Z</time>
      </trkpt>
      <trkpt lat="47.27562" lon="-1.55045">
        <ele>87</ele>
        <time>2022-04-10T10:38:09Z</time>
      </trkpt>
      <trkpt lat="47.27561" lon="-1.55044">
        <ele>87</ele>
        <time>2022-04-10T10:38:10Z</time>
      </trkpt>
      <trkpt lat="47.2756" lon="-1.55044">
        <ele>87</ele>
        <time>2022-04-10T10:38:11Z</time>
      </trkpt>
      <trkpt lat="47.2756" lon="-1.55043">
        <ele>88</ele>
        <time>2022-04-10T10:38:12Z</time>
      </trkpt>
      <trkpt lat="47.27559" lon="-1.55041">
        <ele>88</ele>
        <time>2022-04-10T10:38:13Z</time>
      </trkpt>
      <trkpt lat="47.27558" lon="-1.55041">
        <ele>88</ele>
        <time>2022-04-10T10:38:14Z</time>
      </trkpt>
      <trkpt lat="47.27557" lon="-1.55039">
        <ele>88</ele>
        <time>2022-04-10T10:38:15Z</time>
      </trkpt>
      <trkpt lat="47.27556" lon="-1.55038">
        <ele>87</ele>
        <time>2022-04-10T10:38:16Z</time>
      </trkpt>
      <trkpt lat="47.27555" lon="-1.55037">
        <ele>87</ele>
        <time>2022-04-10T10:38:17Z</time>
      </trkpt>
      <trkpt lat="47.27553" lon="-1.55036">
        <ele>87</ele>
        <time>2022-04-10T10:38:18Z</time>
      </trkpt>
      <trkpt lat="47.27552" lon="-1.55036">
        <ele>88</ele>
        <time>2022-04-10T10:38:19Z</time>
      </trkpt>
      <trkpt lat="47.27552" lon="-1.55035">
        <ele>88</ele>
        <time>2022-04-10T10:38:20Z</time>
      </trkpt>
      <trkpt lat="47.27551" lon="-1.55034">
        <ele>88</ele>
        <time>2022-04-10T10:38:21Z</time>
      </trkpt>
      <trkpt lat="47.2755" lon="-1.55033">
        <ele>88</ele>
        <time>2022-04-10T10:38:22Z</time>
      </trkpt>
      <trkpt lat="47.2755" lon="-1.55032">
        <ele>88</ele>
        <time>2022-04-10T10:38:23Z</time>
      </trkpt>
      <trkpt lat="47.27549" lon="-1.55031">
        <ele>89</ele>
        <time>2022-04-10T10:38:24Z</time>
      </trkpt>
      <trkpt lat="47.27548" lon="-1.5503">
        <ele>89</ele>
        <time>2022-04-10T10:38:25Z</time>
      </trkpt>
      <trkpt lat="47.27548" lon="-1.55029">
        <ele>90</ele>
        <time>2022-04-10T10:38:26Z</time>
      </trkpt>
      <trkpt lat="47.27547" lon="-1.55029">
        <ele>91</ele>
        <time>2022-04-10T10:38:27Z</time>
      </trkpt>
      <trkpt lat="47.27546" lon="-1.55028">
        <ele>91</ele>
        <time>2022-04-10T10:38:28Z</time>
      </trkpt>
      <trkpt lat="47.27545" lon="-1.55027">
        <ele>92</ele>
        <time>2022-04-10T10:38:29Z</time>
      </trkpt>
      <trkpt lat="47.27544" lon="-1.55026">
        <ele>92</ele>
        <time>2022-04-10T10:38:30Z</time>
      </trkpt>
      <trkpt lat="47.27544" lon="-1.55025">
        <ele>92</ele>
        <time>2022-04-10T10:38:31Z</time>
      </trkpt>
      <trkpt lat="47.27543" lon="-1.55024">
        <ele>93</ele>
        <time>2022-04-10T10:38:32Z</time>
      </trkpt>
      <trkpt lat="47.27543" lon="-1.55023">
        <ele>93</ele>
        <time>2022-04-10T10:38:33Z</time>
      </trkpt>
      <trkpt lat="47.27542" lon="-1.55022">
        <ele>93</ele>
        <time>2022-04-10T10:38:34Z</time>
      </trkpt>
      <trkpt lat="47.27541" lon="-1.55022">
        <ele>93</ele>
        <time>2022-04-10T10:38:35Z</time>
      </trkpt>
      <trkpt lat="47.27541" lon="-1.55021">
        <ele>93</ele>
        <time>2022-04-10T10:38:36Z</time>
      </trkpt>
      <trkpt lat="47.2754" lon="-1.5502">
        <ele>94</ele>
        <time>2022-04-10T10:38:37Z</time>
      </trkpt>
      <trkpt lat="47.2754" lon="-1.55018">
        <ele>94</ele>
        <time>2022-04-10T10:38:38Z</time>
      </trkpt>
      <trkpt lat="47.27539" lon="-1.55017">
        <ele>94</ele>
        <time>2022-04-10T10:38:39Z</time>
      </trkpt>
      <trkpt lat="47.27538" lon="-1.55016">
        <ele>94</ele>
        <time>2022-04-10T10:38:40Z</time>
      </trkpt>
      <trkpt lat="47.27536" lon="-1.55015">
        <ele>94</ele>
        <time>2022-04-10T10:38:41Z</time>
      </trkpt>
      <trkpt lat="47.27535" lon="-1.55014">
        <ele>94</ele>
        <time>2022-04-10T10:38:42Z</time>
      </trkpt>
      <trkpt lat="47.27534" lon="-1.55013">
        <ele>95</ele>
        <time>2022-04-10T10:38:43Z</time>
      </trkpt>
      <trkpt lat="47.27533" lon="-1.55012">
        <ele>95</ele>
        <time>2022-04-10T10:38:44Z</time>
      </trkpt>
      <trkpt lat="47.27532" lon="-1.55011">
        <ele>95</ele>
        <time>2022-04-10T10:38:45Z</time>
      </trkpt>
      <trkpt lat="47.27531" lon="-1.5501">
        <ele>95</ele>
        <time>2022-04-10T10:38:46Z</time>
      </trkpt>
      <trkpt lat="47.27531" lon="-1.55008">
        <ele>95</ele>
        <time>2022-04-10T10:38:47Z</time>
      </trkpt>
      <trkpt lat="47.2753" lon="-1.55008">
        <ele>95</ele>
        <time>2022-04-10T10:38:48Z</time>
      </trkpt>
      <trkpt lat="47.27529" lon="-1.55007">
        <ele>95</ele>
        <time>2022-04-10T10:38:49Z</time>
      </trkpt>
      <trkpt lat="47.27528" lon="-1.55006">
        <ele>95</ele>
        <time>2022-04-10T10:38:50Z</time>
      </trkpt>
      <trkpt lat="47.27527" lon="-1.55004">
        <ele>95</ele>
        <time>2022-04-10T10:38:51Z</time>
      </trkpt>
      <trkpt lat="47.27527" lon="-1.55002">
        <ele>94</ele>
        <time>2022-04-10T10:38:52Z</time>
      </trkpt>
      <trkpt lat="47.27526" lon="-1.55001">
        <ele>93</ele>
        <time>2022-04-10T10:38:53Z</time>
      </trkpt>
      <trkpt lat="47.27525" lon="-1.55">
        <ele>93</ele>
        <time>2022-04-10T10:38:54Z</time>
      </trkpt>
      <trkpt lat="47.27524" lon="-1.54999">
        <ele>93</ele>
        <time>2022-04-10T10:38:55Z</time>
      </trkpt>
      <trkpt lat="47.27523" lon="-1.54998">
        <ele>93</ele>
        <time>2022-04-10T10:38:56Z</time>
      </trkpt>
      <trkpt lat="47.27522" lon="-1.54998">
        <ele>92</ele>
        <time>2022-04-10T10:38:57Z</time>
      </trkpt>
      <trkpt lat="47.27521" lon="-1.54997">
        <ele>92</ele>
        <time>2022-04-10T10:38:58Z</time>
      </trkpt>
      <trkpt lat="47.2752" lon="-1.54997">
        <ele>92</ele>
        <time>2022-04-10T10:38:59Z</time>
      </trkpt>
      <trkpt lat="47.27519" lon="-1.54998">
        <ele>91</ele>
        <time>2022-04-10T10:39:00Z</time>
      </trkpt>
      <trkpt lat="47.27518" lon="-1.54999">
        <ele>92</ele>
        <time>2022-04-10T10:39:01Z</time>
      </trkpt>
      <trkpt lat="47.27517" lon="-1.55">
        <ele>91</ele>
        <time>2022-04-10T10:39:02Z</time>
      </trkpt>
      <trkpt lat="47.27516" lon="-1.55002">
        <ele>91</ele>
        <time>2022-04-10T10:39:03Z</time>
      </trkpt>
      <trkpt lat="47.27515" lon="-1.55004">
        <ele>91</ele>
        <time>2022-04-10T10:39:04Z</time>
      </trkpt>
      <trkpt lat="47.27514" lon="-1.55005">
        <ele>90</ele>
        <time>2022-04-10T10:39:05Z</time>
      </trkpt>
      <trkpt lat="47.27513" lon="-1.55006">
        <ele>90</ele>
        <time>2022-04-10T10:39:06Z</time>
      </trkpt>
      <trkpt lat="47.27512" lon="-1.55008">
        <ele>89</ele>
        <time>2022-04-10T10:39:07Z</time>
      </trkpt>
      <trkpt lat="47.27511" lon="-1.55009">
        <ele>89</ele>
        <time>2022-04-10T10:39:08Z</time>
      </trkpt>
      <trkpt lat="47.27511" lon="-1.5501">
        <ele>89</ele>
        <time>2022-04-10T10:39:09Z</time>
      </trkpt>
      <trkpt lat="47.27511" lon="-1.55011">
        <ele>89</ele>
        <time>2022-04-10T10:39:10Z</time>
      </trkpt>
      <trkpt lat="47.2751" lon="-1.55013">
        <ele>89</ele>
        <time>2022-04-10T10:39:11Z</time>
      </trkpt>
      <trkpt lat="47.2751" lon="-1.55015">
        <ele>89</ele>
        <time>2022-04-10T10:39:12Z</time>
      </trkpt>
      <trkpt lat="47.27509" lon="-1.55016">
        <ele>89</ele>
        <time>2022-04-10T10:39:13Z</time>
      </trkpt>
      <trkpt lat="47.27509" lon="-1.55017">
        <ele>89</ele>
        <time>2022-04-10T10:39:14Z</time>
      </trkpt>
      <trkpt lat="47.27508" lon="-1.55018">
        <ele>89</ele>
        <time>2022-04-10T10:39:15Z</time>
      </trkpt>
      <trkpt lat="47.27507" lon="-1.5502">
        <ele>89</ele>
        <time>2022-04-10T10:39:16Z</time>
      </trkpt>
      <trkpt lat="47.27507" lon="-1.55021">
        <ele>89</ele>
        <time>2022-04-10T10:39:17Z</time>
      </trkpt>
      <trkpt lat="47.27506" lon="-1.55023">
        <ele>89</ele>
        <time>2022-04-10T10:39:18Z</time>
      </trkpt>
      <trkpt lat="47.27506" lon="-1.55024">
        <ele>90</ele>
        <time>2022-04-10T10:39:19Z</time>
      </trkpt>
      <trkpt lat="47.27505" lon="-1.55025">
        <ele>90</ele>
        <time>2022-04-10T10:39:20Z</time>
      </trkpt>
      <trkpt lat="47.27504" lon="-1.55027">
        <ele>90</ele>
        <time>2022-04-10T10:39:21Z</time>
      </trkpt>
      <trkpt lat="47.27503" lon="-1.55028">
        <ele>90</ele>
        <time>2022-04-10T10:39:22Z</time>
      </trkpt>
      <trkpt lat="47.27502" lon="-1.55029">
        <ele>90</ele>
        <time>2022-04-10T10:39:23Z</time>
      </trkpt>
      <trkpt lat="47.27502" lon="-1.55031">
        <ele>90</ele>
        <time>2022-04-10T10:39:24Z</time>
      </trkpt>
      <trkpt lat="47.27501" lon="-1.55032">
        <ele>90</ele>
        <time>2022-04-10T10:39:25Z</time>
      </trkpt>
      <trkpt lat="47.27501" lon="-1.55033">
        <ele>89</ele>
        <time>2022-04-10T10:39:26Z</time>
      </trkpt>
      <trkpt lat="47.275" lon="-1.55034">
        <ele>89</ele>
        <time>2022-04-10T10:39:27Z</time>
      </trkpt>
      <trkpt lat="47.27499" lon="-1.55036">
        <ele>89</ele>
        <time>2022-04-10T10:39:28Z</time>
      </trkpt>
      <trkpt lat="47.27499" lon="-1.55038">
        <ele>89</ele>
        <time>2022-04-10T10:39:29Z</time>
      </trkpt>
      <trkpt lat="47.27498" lon="-1.55039">
        <ele>89</ele>
        <time>2022-04-10T10:39:30Z</time>
      </trkpt>
      <trkpt lat="47.27498" lon="-1.55041">
        <ele>89</ele>
        <time>2022-04-10T10:39:31Z</time>
      </trkpt>
      <trkpt lat="47.27498" lon="-1.55042">
        <ele>89</ele>
        <time>2022-04-10T10:39:32Z</time>
      </trkpt>
      <trkpt lat="47.27497" lon="-1.55043">
        <ele>89</ele>
        <time>2022-04-10T10:39:33Z</time>
      </trkpt>
      <trkpt lat="47.27496" lon="-1.55044">
        <ele>89</ele>
        <time>2022-04-10T10:39:34Z</time>
      </trkpt>
      <trkpt lat="47.27496" lon="-1.55045">
        <ele>89</ele>
        <time>2022-04-10T10:39:35Z</time>
      </trkpt>
      <trkpt lat="47.27496" lon="-1.55047">
        <ele>89</ele>
        <time>2022-04-10T10:39:36Z</time>
      </trkpt>
      <trkpt lat="47.27496" lon="-1.55048">
        <ele>89</ele>
        <time>2022-04-10T10:39:37Z</time>
      </trkpt>
      <trkpt lat="47.27495" lon="-1.55049">
        <ele>89</ele>
        <time>2022-04-10T10:39:38Z</time>
      </trkpt>
      <trkpt lat="47.27495" lon="-1.55051">
        <ele>89</ele>
        <time>2022-04-10T10:39:39Z</time>
      </trkpt>
      <trkpt lat="47.27494" lon="-1.55052">
        <ele>89</ele>
        <time>2022-04-10T10:39:40Z</time>
      </trkpt>
      <trkpt lat="47.27493" lon="-1.55054">
        <ele>90</ele>
        <time>2022-04-10T10:39:41Z</time>
      </trkpt>
      <trkpt lat="47.27493" lon="-1.55055">
        <ele>90</ele>
        <time>2022-04-10T10:39:42Z</time>
      </trkpt>
      <trkpt lat="47.27493" lon="-1.55056">
        <ele>90</ele>
        <time>2022-04-10T10:39:43Z</time>
      </trkpt>
      <trkpt lat="47.27492" lon="-1.55057">
        <ele>90</ele>
        <time>2022-04-10T10:39:44Z</time>
      </trkpt>
      <trkpt lat="47.27491" lon="-1.55059">
        <ele>91</ele>
        <time>2022-04-10T10:39:45Z</time>
      </trkpt>
      <trkpt lat="47.2749" lon="-1.5506">
        <ele>92</ele>
        <time>2022-04-10T10:39:46Z</time>
      </trkpt>
      <trkpt lat="47.2749" lon="-1.55061">
        <ele>92</ele>
        <time>2022-04-10T10:39:47Z</time>
      </trkpt>
      <trkpt lat="47.27489" lon="-1.55063">
        <ele>91</ele>
        <time>2022-04-10T10:39:48Z</time>
      </trkpt>
      <trkpt lat="47.27488" lon="-1.55064">
        <ele>91</ele>
        <time>2022-04-10T10:39:49Z</time>
      </trkpt>
      <trkpt lat="47.27488" lon="-1.55066">
        <ele>91</ele>
        <time>2022-04-10T10:39:50Z</time>
      </trkpt>
      <trkpt lat="47.27488" lon="-1.55067">
        <ele>91</ele>
        <time>2022-04-10T10:39:51Z</time>
      </trkpt>
      <trkpt lat="47.27487" lon="-1.55069">
        <ele>91</ele>
        <time>2022-04-10T10:39:52Z</time>
      </trkpt>
      <trkpt lat="47.27487" lon="-1.5507">
        <ele>91</ele>
        <time>2022-04-10T10:39:53Z</time>
      </trkpt>
      <trkpt lat="47.27486" lon="-1.55071">
        <ele>91</ele>
        <time>2022-04-10T10:39:54Z</time>
      </trkpt>
      <trkpt lat="47.27486" lon="-1.55073">
        <ele>91</ele>
        <time>2022-04-10T10:39:55Z</time>
      </trkpt>
      <trkpt lat="47.27485" lon="-1.55075">
        <ele>91</ele>
        <time>2022-04-10T10:39:56Z</time>
      </trkpt>
      <trkpt lat="47.27485" lon="-1.55077">
        <ele>91</ele>
        <time>2022-04-10T10:39:57Z</time>
      </trkpt>
      <trkpt lat="47.27484" lon="-1.55078">
        <ele>91</ele>
        <time>2022-04-10T10:39:58Z</time>
      </trkpt>
      <trkpt lat="47.27483" lon="-1.5508">
        <ele>90</ele>
        <time>2022-04-10T10:39:59Z</time>
      </trkpt>
      <trkpt lat="47.27482" lon="-1.55082">
        <ele>90</ele>
        <time>2022-04-10T10:40:00Z</time>
      </trkpt>
      <trkpt lat="47.27482" lon="-1.55083">
        <ele>90</ele>
        <time>2022-04-10T10:40:01Z</time>
      </trkpt>
      <trkpt lat="47.27482" lon="-1.55085">
        <ele>90</ele>
        <time>2022-04-10T10:40:02Z</time>
      </trkpt>
      <trkpt lat="47.27481" lon="-1.55086">
        <ele>90</ele>
        <time>2022-04-10T10:40:03Z</time>
      </trkpt>
      <trkpt lat="47.27481" lon="-1.55087">
        <ele>90</ele>
        <time>2022-04-10T10:40:04Z</time>
      </trkpt>
      <trkpt lat="47.2748" lon="-1.55089">
        <ele>90</ele>
        <time>2022-04-10T10:40:05Z</time>
      </trkpt>
      <trkpt lat="47.2748" lon="-1.5509">
        <ele>90</ele>
        <time>2022-04-10T10:40:06Z</time>
      </trkpt>
      <trkpt lat="47.27479" lon="-1.55092">
        <ele>90</ele>
        <time>2022-04-10T10:40:07Z</time>
      </trkpt>
      <trkpt lat="47.27479" lon="-1.55093">
        <ele>89</ele>
        <time>2022-04-10T10:40:08Z</time>
      </trkpt>
      <trkpt lat="47.27479" lon="-1.55095">
        <ele>89</ele>
        <time>2022-04-10T10:40:09Z</time>
      </trkpt>
      <trkpt lat="47.27478" lon="-1.55096">
        <ele>89</ele>
        <time>2022-04-10T10:40:10Z</time>
      </trkpt>
      <trkpt lat="47.27478" lon="-1.55098">
        <ele>90</ele>
        <time>2022-04-10T10:40:11Z</time>
      </trkpt>
      <trkpt lat="47.27477" lon="-1.55099">
        <ele>90</ele>
        <time>2022-04-10T10:40:12Z</time>
      </trkpt>
      <trkpt lat="47.27476" lon="-1.55101">
        <ele>89</ele>
        <time>2022-04-10T10:40:13Z</time>
      </trkpt>
      <trkpt lat="47.27475" lon="-1.55102">
        <ele>90</ele>
        <time>2022-04-10T10:40:14Z</time>
      </trkpt>
      <trkpt lat="47.27474" lon="-1.55103">
        <ele>90</ele>
        <time>2022-04-10T10:40:15Z</time>
      </trkpt>
      <trkpt lat="47.27473" lon="-1.55105">
        <ele>91</ele>
        <time>2022-04-10T10:40:16Z</time>
      </trkpt>
      <trkpt lat="47.27472" lon="-1.55106">
        <ele>91</ele>
        <time>2022-04-10T10:40:17Z</time>
      </trkpt>
      <trkpt lat="47.27471" lon="-1.55107">
        <ele>92</ele>
        <time>2022-04-10T10:40:18Z</time>
      </trkpt>
      <trkpt lat="47.2747" lon="-1.55108">
        <ele>92</ele>
        <time>2022-04-10T10:40:19Z</time>
      </trkpt>
      <trkpt lat="47.27469" lon="-1.55109">
        <ele>92</ele>
        <time>2022-04-10T10:40:20Z</time>
      </trkpt>
      <trkpt lat="47.27469" lon="-1.5511">
        <ele>93</ele>
        <time>2022-04-10T10:40:21Z</time>
      </trkpt>
      <trkpt lat="47.27468" lon="-1.55111">
        <ele>93</ele>
        <time>2022-04-10T10:40:22Z</time>
      </trkpt>
      <trkpt lat="47.27467" lon="-1.55112">
        <ele>94</ele>
        <time>2022-04-10T10:40:23Z</time>
      </trkpt>
      <trkpt lat="47.27467" lon="-1.55113">
        <ele>93</ele>
        <time>2022-04-10T10:40:24Z</time>
      </trkpt>
      <trkpt lat="47.27467" lon="-1.55114">
        <ele>93</ele>
        <time>2022-04-10T10:40:25Z</time>
      </trkpt>
      <trkpt lat="47.27467" lon="-1.55114">
        <ele>93</ele>
        <time>2022-04-10T10:40:26Z</time>
      </trkpt>
      <trkpt lat="47.27467" lon="-1.55114">
        <ele>93</ele>
        <time>2022-04-10T10:40:27Z</time>
      </trkpt>
      <trkpt lat="47.27466" lon="-1.55116">
        <ele>94</ele>
        <time>2022-04-10T10:40:28Z</time>
      </trkpt>
      <trkpt lat="47.27465" lon="-1.55118">
        <ele>95</ele>
        <time>2022-04-10T10:40:29Z</time>
      </trkpt>
      <trkpt lat="47.27465" lon="-1.5512">
        <ele>95</ele>
        <time>2022-04-10T10:40:30Z</time>
      </trkpt>
      <trkpt lat="47.27465" lon="-1.55121">
        <ele>95</ele>
        <time>2022-04-10T10:40:31Z</time>
      </trkpt>
      <trkpt lat="47.27464" lon="-1.55122">
        <ele>95</ele>
        <time>2022-04-10T10:40:32Z</time>
      </trkpt>
      <trkpt lat="47.27464" lon="-1.55124">
        <ele>95</ele>
        <time>2022-04-10T10:40:33Z</time>
      </trkpt>
      <trkpt lat="47.27464" lon="-1.55125">
        <ele>95</ele>
        <time>2022-04-10T10:40:34Z</time>
      </trkpt>
      <trkpt lat="47.27464" lon="-1.55127">
        <ele>95</ele>
        <time>2022-04-10T10:40:35Z</time>
      </trkpt>
      <trkpt lat="47.27463" lon="-1.55128">
        <ele>95</ele>
        <time>2022-04-10T10:40:36Z</time>
      </trkpt>
      <trkpt lat="47.27462" lon="-1.5513">
        <ele>96</ele>
        <time>2022-04-10T10:40:37Z</time>
      </trkpt>
      <trkpt lat="47.27462" lon="-1.55132">
        <ele>96</ele>
        <time>2022-04-10T10:40:38Z</time>
      </trkpt>
      <trkpt lat="47.27461" lon="-1.55133">
        <ele>96</ele>
        <time>2022-04-10T10:40:39Z</time>
      </trkpt>
      <trkpt lat="47.27461" lon="-1.55134">
        <ele>95</ele>
        <time>2022-04-10T10:40:40Z</time>
      </trkpt>
      <trkpt lat="47.2746" lon="-1.55136">
        <ele>95</ele>
        <time>2022-04-10T10:40:41Z</time>
      </trkpt>
      <trkpt lat="47.2746" lon="-1.55138">
        <ele>95</ele>
        <time>2022-04-10T10:40:42Z</time>
      </trkpt>
      <trkpt lat="47.27459" lon="-1.55139">
        <ele>94</ele>
        <time>2022-04-10T10:40:43Z</time>
      </trkpt>
      <trkpt lat="47.27459" lon="-1.55141">
        <ele>95</ele>
        <time>2022-04-10T10:40:44Z</time>
      </trkpt>
      <trkpt lat="47.27458" lon="-1.55142">
        <ele>94</ele>
        <time>2022-04-10T10:40:45Z</time>
      </trkpt>
      <trkpt lat="47.27457" lon="-1.55143">
        <ele>94</ele>
        <time>2022-04-10T10:40:46Z</time>
      </trkpt>
      <trkpt lat="47.27456" lon="-1.55145">
        <ele>94</ele>
        <time>2022-04-10T10:40:47Z</time>
      </trkpt>
      <trkpt lat="47.27456" lon="-1.55147">
        <ele>93</ele>
        <time>2022-04-10T10:40:48Z</time>
      </trkpt>
      <trkpt lat="47.27455" lon="-1.55149">
        <ele>93</ele>
        <time>2022-04-10T10:40:49Z</time>
      </trkpt>
      <trkpt lat="47.27455" lon="-1.55149">
        <ele>93</ele>
        <time>2022-04-10T10:40:50Z</time>
      </trkpt>
      <trkpt lat="47.27455" lon="-1.55149">
        <ele>93</ele>
        <time>2022-04-10T10:40:51Z</time>
      </trkpt>
      <trkpt lat="47.27455" lon="-1.55154">
        <ele>92</ele>
        <time>2022-04-10T10:40:52Z</time>
      </trkpt>
      <trkpt lat="47.27455" lon="-1.55156">
        <ele>92</ele>
        <time>2022-04-10T10:40:53Z</time>
      </trkpt>
      <trkpt lat="47.27454" lon="-1.55158">
        <ele>92</ele>
        <time>2022-04-10T10:40:54Z</time>
      </trkpt>
      <trkpt lat="47.27454" lon="-1.5516">
        <ele>92</ele>
        <time>2022-04-10T10:40:55Z</time>
      </trkpt>
      <trkpt lat="47.27454" lon="-1.55162">
        <ele>92</ele>
        <time>2022-04-10T10:40:56Z</time>
      </trkpt>
      <trkpt lat="47.27454" lon="-1.55163">
        <ele>92</ele>
        <time>2022-04-10T10:40:57Z</time>
      </trkpt>
      <trkpt lat="47.27454" lon="-1.55164">
        <ele>92</ele>
        <time>2022-04-10T10:40:58Z</time>
      </trkpt>
      <trkpt lat="47.27454" lon="-1.55164">
        <ele>92</ele>
        <time>2022-04-10T10:40:59Z</time>
      </trkpt>
      <trkpt lat="47.27454" lon="-1.55164">
        <ele>92</ele>
        <time>2022-04-10T10:41:00Z</time>
      </trkpt>
      <trkpt lat="47.27455" lon="-1.55167">
        <ele>93</ele>
        <time>2022-04-10T10:41:01Z</time>
      </trkpt>
      <trkpt lat="47.27456" lon="-1.55167">
        <ele>93</ele>
        <time>2022-04-10T10:41:02Z</time>
      </trkpt>
      <trkpt lat="47.27456" lon="-1.55167">
        <ele>93</ele>
        <time>2022-04-10T10:41:03Z</time>
      </trkpt>
      <trkpt lat="47.27457" lon="-1.55168">
        <ele>93</ele>
        <time>2022-04-10T10:41:04Z</time>
      </trkpt>
      <trkpt lat="47.27457" lon="-1.55168">
        <ele>93</ele>
        <time>2022-04-10T10:41:04Z</time>
      </trkpt>
      <trkpt lat="47.27457" lon="-1.55168">
        <ele>93</ele>
        <time>2022-04-10T10:41:04Z</time>
      </trkpt>
      <trkpt lat="47.27454" lon="-1.55175">
        <ele>88</ele>
        <time>2022-04-10T10:41:23Z</time>
      </trkpt>
      <trkpt lat="47.27454" lon="-1.55178">
        <ele>88</ele>
        <time>2022-04-10T10:41:24Z</time>
      </trkpt>
      <trkpt lat="47.27454" lon="-1.55178">
        <ele>88</ele>
        <time>2022-04-10T10:41:25Z</time>
      </trkpt>
      <trkpt lat="47.27454" lon="-1.55179">
        <ele>88</ele>
        <time>2022-04-10T10:41:26Z</time>
      </trkpt>
      <trkpt lat="47.27453" lon="-1.5518">
        <ele>88</ele>
        <time>2022-04-10T10:41:27Z</time>
      </trkpt>
      <trkpt lat="47.27453" lon="-1.5518">
        <ele>89</ele>
        <time>2022-04-10T10:41:28Z</time>
      </trkpt>
      <trkpt lat="47.27453" lon="-1.5518">
        <ele>89</ele>
        <time>2022-04-10T10:41:29Z</time>
      </trkpt>
      <trkpt lat="47.27453" lon="-1.5518">
        <ele>89</ele>
        <time>2022-04-10T10:41:30Z</time>
      </trkpt>
      <trkpt lat="47.27452" lon="-1.55183">
        <ele>89</ele>
        <time>2022-04-10T10:41:31Z</time>
      </trkpt>
      <trkpt lat="47.27451" lon="-1.55184">
        <ele>89</ele>
        <time>2022-04-10T10:41:32Z</time>
      </trkpt>
      <trkpt lat="47.27451" lon="-1.55185">
        <ele>89</ele>
        <time>2022-04-10T10:41:33Z</time>
      </trkpt>
      <trkpt lat="47.2745" lon="-1.55186">
        <ele>89</ele>
        <time>2022-04-10T10:41:34Z</time>
      </trkpt>
      <trkpt lat="47.2745" lon="-1.55188">
        <ele>89</ele>
        <time>2022-04-10T10:41:35Z</time>
      </trkpt>
      <trkpt lat="47.27449" lon="-1.55188">
        <ele>89</ele>
        <time>2022-04-10T10:41:36Z</time>
      </trkpt>
      <trkpt lat="47.27448" lon="-1.5519">
        <ele>88</ele>
        <time>2022-04-10T10:41:37Z</time>
      </trkpt>
      <trkpt lat="47.27448" lon="-1.55192">
        <ele>88</ele>
        <time>2022-04-10T10:41:38Z</time>
      </trkpt>
      <trkpt lat="47.27447" lon="-1.55194">
        <ele>88</ele>
        <time>2022-04-10T10:41:39Z</time>
      </trkpt>
      <trkpt lat="47.27446" lon="-1.55195">
        <ele>88</ele>
        <time>2022-04-10T10:41:40Z</time>
      </trkpt>
      <trkpt lat="47.27446" lon="-1.55196">
        <ele>88</ele>
        <time>2022-04-10T10:41:41Z</time>
      </trkpt>
      <trkpt lat="47.27445" lon="-1.55198">
        <ele>88</ele>
        <time>2022-04-10T10:41:42Z</time>
      </trkpt>
      <trkpt lat="47.27445" lon="-1.55199">
        <ele>88</ele>
        <time>2022-04-10T10:41:43Z</time>
      </trkpt>
      <trkpt lat="47.27444" lon="-1.552">
        <ele>88</ele>
        <time>2022-04-10T10:41:44Z</time>
      </trkpt>
      <trkpt lat="47.27444" lon="-1.55202">
        <ele>88</ele>
        <time>2022-04-10T10:41:45Z</time>
      </trkpt>
      <trkpt lat="47.27443" lon="-1.55203">
        <ele>88</ele>
        <time>2022-04-10T10:41:46Z</time>
      </trkpt>
      <trkpt lat="47.27443" lon="-1.55204">
        <ele>88</ele>
        <time>2022-04-10T10:41:47Z</time>
      </trkpt>
      <trkpt lat="47.27443" lon="-1.55205">
        <ele>88</ele>
        <time>2022-04-10T10:41:48Z</time>
      </trkpt>
      <trkpt lat="47.27442" lon="-1.55205">
        <ele>89</ele>
        <time>2022-04-10T10:41:49Z</time>
      </trkpt>
      <trkpt lat="47.27442" lon="-1.55206">
        <ele>89</ele>
        <time>2022-04-10T10:41:50Z</time>
      </trkpt>
      <trkpt lat="47.27441" lon="-1.55207">
        <ele>89</ele>
        <time>2022-04-10T10:41:51Z</time>
      </trkpt>
      <trkpt lat="47.27441" lon="-1.55208">
        <ele>89</ele>
        <time>2022-04-10T10:41:52Z</time>
      </trkpt>
      <trkpt lat="47.27442" lon="-1.55209">
        <ele>89</ele>
        <time>2022-04-10T10:41:53Z</time>
      </trkpt>
      <trkpt lat="47.27442" lon="-1.5521">
        <ele>89</ele>
        <time>2022-04-10T10:41:54Z</time>
      </trkpt>
      <trkpt lat="47.27441" lon="-1.55211">
        <ele>89</ele>
        <time>2022-04-10T10:41:55Z</time>
      </trkpt>
      <trkpt lat="47.27442" lon="-1.55213">
        <ele>89</ele>
        <time>2022-04-10T10:41:56Z</time>
      </trkpt>
      <trkpt lat="47.27442" lon="-1.55214">
        <ele>89</ele>
        <time>2022-04-10T10:41:57Z</time>
      </trkpt>
      <trkpt lat="47.27442" lon="-1.55215">
        <ele>90</ele>
        <time>2022-04-10T10:41:58Z</time>
      </trkpt>
      <trkpt lat="47.27442" lon="-1.55216">
        <ele>90</ele>
        <time>2022-04-10T10:41:59Z</time>
      </trkpt>
      <trkpt lat="47.27442" lon="-1.55217">
        <ele>90</ele>
        <time>2022-04-10T10:42:00Z</time>
      </trkpt>
      <trkpt lat="47.27443" lon="-1.55218">
        <ele>90</ele>
        <time>2022-04-10T10:42:01Z</time>
      </trkpt>
      <trkpt lat="47.27443" lon="-1.55218">
        <ele>90</ele>
        <time>2022-04-10T10:42:02Z</time>
      </trkpt>
      <trkpt lat="47.27443" lon="-1.55221">
        <ele>90</ele>
        <time>2022-04-10T10:42:03Z</time>
      </trkpt>
      <trkpt lat="47.27444" lon="-1.55222">
        <ele>90</ele>
        <time>2022-04-10T10:42:04Z</time>
      </trkpt>
      <trkpt lat="47.27444" lon="-1.55224">
        <ele>91</ele>
        <time>2022-04-10T10:42:05Z</time>
      </trkpt>
      <trkpt lat="47.27444" lon="-1.55225">
        <ele>90</ele>
        <time>2022-04-10T10:42:06Z</time>
      </trkpt>
      <trkpt lat="47.27445" lon="-1.55227">
        <ele>91</ele>
        <time>2022-04-10T10:42:07Z</time>
      </trkpt>
      <trkpt lat="47.27445" lon="-1.55229">
        <ele>91</ele>
        <time>2022-04-10T10:42:08Z</time>
      </trkpt>
      <trkpt lat="47.27446" lon="-1.55231">
        <ele>91</ele>
        <time>2022-04-10T10:42:09Z</time>
      </trkpt>
      <trkpt lat="47.27446" lon="-1.55233">
        <ele>91</ele>
        <time>2022-04-10T10:42:10Z</time>
      </trkpt>
      <trkpt lat="47.27446" lon="-1.55236">
        <ele>91</ele>
        <time>2022-04-10T10:42:11Z</time>
      </trkpt>
      <trkpt lat="47.27446" lon="-1.55238">
        <ele>91</ele>
        <time>2022-04-10T10:42:12Z</time>
      </trkpt>
      <trkpt lat="47.27446" lon="-1.55241">
        <ele>92</ele>
        <time>2022-04-10T10:42:13Z</time>
      </trkpt>
      <trkpt lat="47.27445" lon="-1.55243">
        <ele>92</ele>
        <time>2022-04-10T10:42:14Z</time>
      </trkpt>
      <trkpt lat="47.27445" lon="-1.55245">
        <ele>93</ele>
        <time>2022-04-10T10:42:15Z</time>
      </trkpt>
      <trkpt lat="47.27445" lon="-1.55246">
        <ele>93</ele>
        <time>2022-04-10T10:42:16Z</time>
      </trkpt>
      <trkpt lat="47.27444" lon="-1.55248">
        <ele>94</ele>
        <time>2022-04-10T10:42:17Z</time>
      </trkpt>
      <trkpt lat="47.27444" lon="-1.5525">
        <ele>95</ele>
        <time>2022-04-10T10:42:18Z</time>
      </trkpt>
      <trkpt lat="47.27444" lon="-1.55252">
        <ele>94</ele>
        <time>2022-04-10T10:42:19Z</time>
      </trkpt>
      <trkpt lat="47.27444" lon="-1.55254">
        <ele>94</ele>
        <time>2022-04-10T10:42:20Z</time>
      </trkpt>
      <trkpt lat="47.27443" lon="-1.55256">
        <ele>95</ele>
        <time>2022-04-10T10:42:21Z</time>
      </trkpt>
      <trkpt lat="47.27443" lon="-1.55258">
        <ele>95</ele>
        <time>2022-04-10T10:42:22Z</time>
      </trkpt>
      <trkpt lat="47.27443" lon="-1.5526">
        <ele>95</ele>
        <time>2022-04-10T10:42:23Z</time>
      </trkpt>
      <trkpt lat="47.27443" lon="-1.55262">
        <ele>95</ele>
        <time>2022-04-10T10:42:24Z</time>
      </trkpt>
      <trkpt lat="47.27444" lon="-1.55264">
        <ele>96</ele>
        <time>2022-04-10T10:42:25Z</time>
      </trkpt>
      <trkpt lat="47.27445" lon="-1.55266">
        <ele>96</ele>
        <time>2022-04-10T10:42:26Z</time>
      </trkpt>
      <trkpt lat="47.27444" lon="-1.55268">
        <ele>97</ele>
        <time>2022-04-10T10:42:27Z</time>
      </trkpt>
      <trkpt lat="47.27444" lon="-1.5527">
        <ele>97</ele>
        <time>2022-04-10T10:42:28Z</time>
      </trkpt>
      <trkpt lat="47.27445" lon="-1.55272">
        <ele>97</ele>
        <time>2022-04-10T10:42:29Z</time>
      </trkpt>
      <trkpt lat="47.27445" lon="-1.55274">
        <ele>97</ele>
        <time>2022-04-10T10:42:30Z</time>
      </trkpt>
      <trkpt lat="47.27445" lon="-1.55276">
        <ele>97</ele>
        <time>2022-04-10T10:42:31Z</time>
      </trkpt>
      <trkpt lat="47.27445" lon="-1.55278">
        <ele>97</ele>
        <time>2022-04-10T10:42:32Z</time>
      </trkpt>
      <trkpt lat="47.27445" lon="-1.55279">
        <ele>97</ele>
        <time>2022-04-10T10:42:33Z</time>
      </trkpt>
      <trkpt lat="47.27445" lon="-1.5528">
        <ele>97</ele>
        <time>2022-04-10T10:42:34Z</time>
      </trkpt>
      <trkpt lat="47.27446" lon="-1.55282">
        <ele>97</ele>
        <time>2022-04-10T10:42:35Z</time>
      </trkpt>
      <trkpt lat="47.27446" lon="-1.55283">
        <ele>98</ele>
        <time>2022-04-10T10:42:36Z</time>
      </trkpt>
      <trkpt lat="47.27446" lon="-1.55284">
        <ele>98</ele>
        <time>2022-04-10T10:42:37Z</time>
      </trkpt>
      <trkpt lat="47.27446" lon="-1.55287">
        <ele>97</ele>
        <time>2022-04-10T10:42:38Z</time>
      </trkpt>
      <trkpt lat="47.27445" lon="-1.55289">
        <ele>97</ele>
        <time>2022-04-10T10:42:39Z</time>
      </trkpt>
      <trkpt lat="47.27444" lon="-1.55291">
        <ele>97</ele>
        <time>2022-04-10T10:42:40Z</time>
      </trkpt>
      <trkpt lat="47.27443" lon="-1.55293">
        <ele>97</ele>
        <time>2022-04-10T10:42:41Z</time>
      </trkpt>
      <trkpt lat="47.27443" lon="-1.55295">
        <ele>96</ele>
        <time>2022-04-10T10:42:42Z</time>
      </trkpt>
      <trkpt lat="47.27442" lon="-1.55297">
        <ele>96</ele>
        <time>2022-04-10T10:42:43Z</time>
      </trkpt>
      <trkpt lat="47.27441" lon="-1.55298">
        <ele>96</ele>
        <time>2022-04-10T10:42:44Z</time>
      </trkpt>
      <trkpt lat="47.27441" lon="-1.553">
        <ele>97</ele>
        <time>2022-04-10T10:42:45Z</time>
      </trkpt>
      <trkpt lat="47.2744" lon="-1.55302">
        <ele>96</ele>
        <time>2022-04-10T10:42:46Z</time>
      </trkpt>
      <trkpt lat="47.2744" lon="-1.55303">
        <ele>97</ele>
        <time>2022-04-10T10:42:47Z</time>
      </trkpt>
      <trkpt lat="47.2744" lon="-1.55305">
        <ele>97</ele>
        <time>2022-04-10T10:42:48Z</time>
      </trkpt>
      <trkpt lat="47.2744" lon="-1.55306">
        <ele>97</ele>
        <time>2022-04-10T10:42:49Z</time>
      </trkpt>
      <trkpt lat="47.27439" lon="-1.55307">
        <ele>98</ele>
        <time>2022-04-10T10:42:50Z</time>
      </trkpt>
      <trkpt lat="47.27439" lon="-1.55309">
        <ele>98</ele>
        <time>2022-04-10T10:42:51Z</time>
      </trkpt>
      <trkpt lat="47.27438" lon="-1.55311">
        <ele>98</ele>
        <time>2022-04-10T10:42:52Z</time>
      </trkpt>
      <trkpt lat="47.27437" lon="-1.55313">
        <ele>98</ele>
        <time>2022-04-10T10:42:53Z</time>
      </trkpt>
      <trkpt lat="47.27436" lon="-1.55315">
        <ele>97</ele>
        <time>2022-04-10T10:42:54Z</time>
      </trkpt>
      <trkpt lat="47.27436" lon="-1.55317">
        <ele>97</ele>
        <time>2022-04-10T10:42:55Z</time>
      </trkpt>
      <trkpt lat="47.27436" lon="-1.55319">
        <ele>97</ele>
        <time>2022-04-10T10:42:56Z</time>
      </trkpt>
      <trkpt lat="47.27435" lon="-1.5532">
        <ele>97</ele>
        <time>2022-04-10T10:42:57Z</time>
      </trkpt>
      <trkpt lat="47.27434" lon="-1.55321">
        <ele>97</ele>
        <time>2022-04-10T10:42:58Z</time>
      </trkpt>
      <trkpt lat="47.27433" lon="-1.55322">
        <ele>97</ele>
        <time>2022-04-10T10:42:59Z</time>
      </trkpt>
      <trkpt lat="47.27432" lon="-1.55324">
        <ele>97</ele>
        <time>2022-04-10T10:43:00Z</time>
      </trkpt>
      <trkpt lat="47.27431" lon="-1.55325">
        <ele>96</ele>
        <time>2022-04-10T10:43:01Z</time>
      </trkpt>
      <trkpt lat="47.2743" lon="-1.55326">
        <ele>96</ele>
        <time>2022-04-10T10:43:02Z</time>
      </trkpt>
      <trkpt lat="47.27429" lon="-1.55328">
        <ele>96</ele>
        <time>2022-04-10T10:43:03Z</time>
      </trkpt>
      <trkpt lat="47.27428" lon="-1.55329">
        <ele>96</ele>
        <time>2022-04-10T10:43:04Z</time>
      </trkpt>
      <trkpt lat="47.27428" lon="-1.55331">
        <ele>96</ele>
        <time>2022-04-10T10:43:05Z</time>
      </trkpt>
      <trkpt lat="47.27427" lon="-1.55332">
        <ele>96</ele>
        <time>2022-04-10T10:43:06Z</time>
      </trkpt>
      <trkpt lat="47.27427" lon="-1.55333">
        <ele>95</ele>
        <time>2022-04-10T10:43:07Z</time>
      </trkpt>
      <trkpt lat="47.27427" lon="-1.55335">
        <ele>95</ele>
        <time>2022-04-10T10:43:08Z</time>
      </trkpt>
      <trkpt lat="47.27427" lon="-1.55337">
        <ele>94</ele>
        <time>2022-04-10T10:43:09Z</time>
      </trkpt>
      <trkpt lat="47.27426" lon="-1.55339">
        <ele>94</ele>
        <time>2022-04-10T10:43:10Z</time>
      </trkpt>
      <trkpt lat="47.27426" lon="-1.55341">
        <ele>94</ele>
        <time>2022-04-10T10:43:11Z</time>
      </trkpt>
      <trkpt lat="47.27426" lon="-1.55343">
        <ele>94</ele>
        <time>2022-04-10T10:43:12Z</time>
      </trkpt>
      <trkpt lat="47.27426" lon="-1.55345">
        <ele>94</ele>
        <time>2022-04-10T10:43:13Z</time>
      </trkpt>
      <trkpt lat="47.27425" lon="-1.55346">
        <ele>94</ele>
        <time>2022-04-10T10:43:14Z</time>
      </trkpt>
      <trkpt lat="47.27425" lon="-1.55348">
        <ele>94</ele>
        <time>2022-04-10T10:43:15Z</time>
      </trkpt>
      <trkpt lat="47.27424" lon="-1.5535">
        <ele>95</ele>
        <time>2022-04-10T10:43:16Z</time>
      </trkpt>
      <trkpt lat="47.27424" lon="-1.55352">
        <ele>95</ele>
        <time>2022-04-10T10:43:17Z</time>
      </trkpt>
      <trkpt lat="47.27424" lon="-1.55353">
        <ele>95</ele>
        <time>2022-04-10T10:43:18Z</time>
      </trkpt>
      <trkpt lat="47.27423" lon="-1.55355">
        <ele>95</ele>
        <time>2022-04-10T10:43:19Z</time>
      </trkpt>
      <trkpt lat="47.27422" lon="-1.55357">
        <ele>95</ele>
        <time>2022-04-10T10:43:20Z</time>
      </trkpt>
      <trkpt lat="47.27422" lon="-1.55359">
        <ele>95</ele>
        <time>2022-04-10T10:43:21Z</time>
      </trkpt>
      <trkpt lat="47.27421" lon="-1.5536">
        <ele>95</ele>
        <time>2022-04-10T10:43:22Z</time>
      </trkpt>
      <trkpt lat="47.2742" lon="-1.55362">
        <ele>94</ele>
        <time>2022-04-10T10:43:23Z</time>
      </trkpt>
      <trkpt lat="47.2742" lon="-1.55364">
        <ele>93</ele>
        <time>2022-04-10T10:43:24Z</time>
      </trkpt>
      <trkpt lat="47.27419" lon="-1.55365">
        <ele>93</ele>
        <time>2022-04-10T10:43:25Z</time>
      </trkpt>
      <trkpt lat="47.27419" lon="-1.55367">
        <ele>93</ele>
        <time>2022-04-10T10:43:26Z</time>
      </trkpt>
      <trkpt lat="47.27419" lon="-1.55368">
        <ele>93</ele>
        <time>2022-04-10T10:43:27Z</time>
      </trkpt>
      <trkpt lat="47.27419" lon="-1.5537">
        <ele>93</ele>
        <time>2022-04-10T10:43:28Z</time>
      </trkpt>
      <trkpt lat="47.27419" lon="-1.55371">
        <ele>93</ele>
        <time>2022-04-10T10:43:29Z</time>
      </trkpt>
      <trkpt lat="47.27419" lon="-1.55373">
        <ele>93</ele>
        <time>2022-04-10T10:43:30Z</time>
      </trkpt>
      <trkpt lat="47.27418" lon="-1.55373">
        <ele>93</ele>
        <time>2022-04-10T10:43:31Z</time>
      </trkpt>
      <trkpt lat="47.27418" lon="-1.55375">
        <ele>93</ele>
        <time>2022-04-10T10:43:32Z</time>
      </trkpt>
      <trkpt lat="47.27418" lon="-1.55376">
        <ele>93</ele>
        <time>2022-04-10T10:43:33Z</time>
      </trkpt>
      <trkpt lat="47.27418" lon="-1.55377">
        <ele>93</ele>
        <time>2022-04-10T10:43:34Z</time>
      </trkpt>
      <trkpt lat="47.27417" lon="-1.55379">
        <ele>93</ele>
        <time>2022-04-10T10:43:35Z</time>
      </trkpt>
      <trkpt lat="47.27417" lon="-1.55381">
        <ele>93</ele>
        <time>2022-04-10T10:43:36Z</time>
      </trkpt>
      <trkpt lat="47.27417" lon="-1.55383">
        <ele>92</ele>
        <time>2022-04-10T10:43:37Z</time>
      </trkpt>
      <trkpt lat="47.27416" lon="-1.55384">
        <ele>93</ele>
        <time>2022-04-10T10:43:38Z</time>
      </trkpt>
      <trkpt lat="47.27416" lon="-1.55386">
        <ele>92</ele>
        <time>2022-04-10T10:43:39Z</time>
      </trkpt>
      <trkpt lat="47.27415" lon="-1.55388">
        <ele>93</ele>
        <time>2022-04-10T10:43:40Z</time>
      </trkpt>
      <trkpt lat="47.27414" lon="-1.55389">
        <ele>92</ele>
        <time>2022-04-10T10:43:41Z</time>
      </trkpt>
      <trkpt lat="47.27414" lon="-1.55391">
        <ele>92</ele>
        <time>2022-04-10T10:43:42Z</time>
      </trkpt>
      <trkpt lat="47.27413" lon="-1.55393">
        <ele>92</ele>
        <time>2022-04-10T10:43:43Z</time>
      </trkpt>
      <trkpt lat="47.27412" lon="-1.55395">
        <ele>92</ele>
        <time>2022-04-10T10:43:44Z</time>
      </trkpt>
      <trkpt lat="47.27412" lon="-1.55396">
        <ele>91</ele>
        <time>2022-04-10T10:43:45Z</time>
      </trkpt>
      <trkpt lat="47.27411" lon="-1.55398">
        <ele>91</ele>
        <time>2022-04-10T10:43:46Z</time>
      </trkpt>
      <trkpt lat="47.27411" lon="-1.55399">
        <ele>91</ele>
        <time>2022-04-10T10:43:47Z</time>
      </trkpt>
      <trkpt lat="47.2741" lon="-1.55401">
        <ele>91</ele>
        <time>2022-04-10T10:43:48Z</time>
      </trkpt>
      <trkpt lat="47.2741" lon="-1.55403">
        <ele>91</ele>
        <time>2022-04-10T10:43:49Z</time>
      </trkpt>
      <trkpt lat="47.2741" lon="-1.55404">
        <ele>91</ele>
        <time>2022-04-10T10:43:50Z</time>
      </trkpt>
      <trkpt lat="47.27409" lon="-1.55405">
        <ele>91</ele>
        <time>2022-04-10T10:43:51Z</time>
      </trkpt>
      <trkpt lat="47.2741" lon="-1.55406">
        <ele>91</ele>
        <time>2022-04-10T10:43:52Z</time>
      </trkpt>
      <trkpt lat="47.27411" lon="-1.55407">
        <ele>91</ele>
        <time>2022-04-10T10:43:53Z</time>
      </trkpt>
      <trkpt lat="47.27411" lon="-1.55409">
        <ele>91</ele>
        <time>2022-04-10T10:43:54Z</time>
      </trkpt>
      <trkpt lat="47.27411" lon="-1.55409">
        <ele>91</ele>
        <time>2022-04-10T10:43:55Z</time>
      </trkpt>
      <trkpt lat="47.27411" lon="-1.55409">
        <ele>91</ele>
        <time>2022-04-10T10:43:56Z</time>
      </trkpt>
      <trkpt lat="47.27411" lon="-1.55409">
        <ele>91</ele>
        <time>2022-04-10T10:43:57Z</time>
      </trkpt>
      <trkpt lat="47.27411" lon="-1.55409">
        <ele>91</ele>
        <time>2022-04-10T10:43:57Z</time>
      </trkpt>
      <trkpt lat="47.27411" lon="-1.55409">
        <ele>91</ele>
        <time>2022-04-10T10:43:57Z</time>
      </trkpt>
      <trkpt lat="47.27411" lon="-1.55422">
        <ele>87</ele>
        <time>2022-04-10T10:45:45Z</time>
      </trkpt>
      <trkpt lat="47.27411" lon="-1.55424">
        <ele>87</ele>
        <time>2022-04-10T10:45:46Z</time>
      </trkpt>
      <trkpt lat="47.27411" lon="-1.55425">
        <ele>87</ele>
        <time>2022-04-10T10:45:47Z</time>
      </trkpt>
      <trkpt lat="47.27411" lon="-1.55427">
        <ele>87</ele>
        <time>2022-04-10T10:45:48Z</time>
      </trkpt>
      <trkpt lat="47.2741" lon="-1.55428">
        <ele>87</ele>
        <time>2022-04-10T10:45:49Z</time>
      </trkpt>
      <trkpt lat="47.2741" lon="-1.5543">
        <ele>87</ele>
        <time>2022-04-10T10:45:50Z</time>
      </trkpt>
      <trkpt lat="47.27409" lon="-1.55431">
        <ele>87</ele>
        <time>2022-04-10T10:45:51Z</time>
      </trkpt>
      <trkpt lat="47.27409" lon="-1.55433">
        <ele>87</ele>
        <time>2022-04-10T10:45:52Z</time>
      </trkpt>
      <trkpt lat="47.27409" lon="-1.55434">
        <ele>88</ele>
        <time>2022-04-10T10:45:53Z</time>
      </trkpt>
      <trkpt lat="47.27409" lon="-1.55436">
        <ele>88</ele>
        <time>2022-04-10T10:45:54Z</time>
      </trkpt>
      <trkpt lat="47.27408" lon="-1.55437">
        <ele>88</ele>
        <time>2022-04-10T10:45:55Z</time>
      </trkpt>
      <trkpt lat="47.27408" lon="-1.55439">
        <ele>87</ele>
        <time>2022-04-10T10:45:56Z</time>
      </trkpt>
      <trkpt lat="47.27408" lon="-1.55441">
        <ele>87</ele>
        <time>2022-04-10T10:45:57Z</time>
      </trkpt>
      <trkpt lat="47.27408" lon="-1.55442">
        <ele>87</ele>
        <time>2022-04-10T10:45:58Z</time>
      </trkpt>
      <trkpt lat="47.27407" lon="-1.55444">
        <ele>87</ele>
        <time>2022-04-10T10:45:59Z</time>
      </trkpt>
      <trkpt lat="47.27407" lon="-1.55446">
        <ele>87</ele>
        <time>2022-04-10T10:46:00Z</time>
      </trkpt>
      <trkpt lat="47.27407" lon="-1.55448">
        <ele>87</ele>
        <time>2022-04-10T10:46:01Z</time>
      </trkpt>
      <trkpt lat="47.27407" lon="-1.55449">
        <ele>87</ele>
        <time>2022-04-10T10:46:02Z</time>
      </trkpt>
      <trkpt lat="47.27406" lon="-1.5545">
        <ele>88</ele>
        <time>2022-04-10T10:46:03Z</time>
      </trkpt>
      <trkpt lat="47.27406" lon="-1.55451">
        <ele>88</ele>
        <time>2022-04-10T10:46:04Z</time>
      </trkpt>
      <trkpt lat="47.27406" lon="-1.55453">
        <ele>88</ele>
        <time>2022-04-10T10:46:05Z</time>
      </trkpt>
      <trkpt lat="47.27405" lon="-1.55454">
        <ele>88</ele>
        <time>2022-04-10T10:46:06Z</time>
      </trkpt>
      <trkpt lat="47.27405" lon="-1.55455">
        <ele>88</ele>
        <time>2022-04-10T10:46:07Z</time>
      </trkpt>
      <trkpt lat="47.27405" lon="-1.55457">
        <ele>88</ele>
        <time>2022-04-10T10:46:08Z</time>
      </trkpt>
      <trkpt lat="47.27405" lon="-1.55458">
        <ele>88</ele>
        <time>2022-04-10T10:46:09Z</time>
      </trkpt>
      <trkpt lat="47.27405" lon="-1.5546">
        <ele>88</ele>
        <time>2022-04-10T10:46:10Z</time>
      </trkpt>
      <trkpt lat="47.27405" lon="-1.55461">
        <ele>88</ele>
        <time>2022-04-10T10:46:11Z</time>
      </trkpt>
      <trkpt lat="47.27404" lon="-1.55463">
        <ele>89</ele>
        <time>2022-04-10T10:46:12Z</time>
      </trkpt>
      <trkpt lat="47.27405" lon="-1.55464">
        <ele>89</ele>
        <time>2022-04-10T10:46:13Z</time>
      </trkpt>
      <trkpt lat="47.27405" lon="-1.55466">
        <ele>89</ele>
        <time>2022-04-10T10:46:14Z</time>
      </trkpt>
      <trkpt lat="47.27405" lon="-1.55467">
        <ele>89</ele>
        <time>2022-04-10T10:46:15Z</time>
      </trkpt>
      <trkpt lat="47.27405" lon="-1.55469">
        <ele>89</ele>
        <time>2022-04-10T10:46:16Z</time>
      </trkpt>
      <trkpt lat="47.27405" lon="-1.55471">
        <ele>89</ele>
        <time>2022-04-10T10:46:17Z</time>
      </trkpt>
      <trkpt lat="47.27405" lon="-1.55472">
        <ele>89</ele>
        <time>2022-04-10T10:46:18Z</time>
      </trkpt>
      <trkpt lat="47.27405" lon="-1.55473">
        <ele>89</ele>
        <time>2022-04-10T10:46:19Z</time>
      </trkpt>
      <trkpt lat="47.27405" lon="-1.55475">
        <ele>90</ele>
        <time>2022-04-10T10:46:20Z</time>
      </trkpt>
      <trkpt lat="47.27405" lon="-1.55477">
        <ele>89</ele>
        <time>2022-04-10T10:46:21Z</time>
      </trkpt>
      <trkpt lat="47.27405" lon="-1.55479">
        <ele>89</ele>
        <time>2022-04-10T10:46:22Z</time>
      </trkpt>
      <trkpt lat="47.27405" lon="-1.5548">
        <ele>89</ele>
        <time>2022-04-10T10:46:23Z</time>
      </trkpt>
      <trkpt lat="47.27405" lon="-1.55482">
        <ele>89</ele>
        <time>2022-04-10T10:46:24Z</time>
      </trkpt>
      <trkpt lat="47.27404" lon="-1.55483">
        <ele>89</ele>
        <time>2022-04-10T10:46:25Z</time>
      </trkpt>
      <trkpt lat="47.27404" lon="-1.55485">
        <ele>89</ele>
        <time>2022-04-10T10:46:26Z</time>
      </trkpt>
      <trkpt lat="47.27404" lon="-1.55486">
        <ele>89</ele>
        <time>2022-04-10T10:46:27Z</time>
      </trkpt>
      <trkpt lat="47.27403" lon="-1.55488">
        <ele>89</ele>
        <time>2022-04-10T10:46:28Z</time>
      </trkpt>
      <trkpt lat="47.27403" lon="-1.5549">
        <ele>89</ele>
        <time>2022-04-10T10:46:29Z</time>
      </trkpt>
      <trkpt lat="47.27403" lon="-1.55491">
        <ele>89</ele>
        <time>2022-04-10T10:46:30Z</time>
      </trkpt>
      <trkpt lat="47.27403" lon="-1.55493">
        <ele>89</ele>
        <time>2022-04-10T10:46:31Z</time>
      </trkpt>
      <trkpt lat="47.27403" lon="-1.55494">
        <ele>88</ele>
        <time>2022-04-10T10:46:32Z</time>
      </trkpt>
      <trkpt lat="47.27403" lon="-1.55496">
        <ele>88</ele>
        <time>2022-04-10T10:46:33Z</time>
      </trkpt>
      <trkpt lat="47.27403" lon="-1.55498">
        <ele>88</ele>
        <time>2022-04-10T10:46:34Z</time>
      </trkpt>
      <trkpt lat="47.27403" lon="-1.555">
        <ele>88</ele>
        <time>2022-04-10T10:46:35Z</time>
      </trkpt>
      <trkpt lat="47.27402" lon="-1.55502">
        <ele>88</ele>
        <time>2022-04-10T10:46:36Z</time>
      </trkpt>
      <trkpt lat="47.27402" lon="-1.55503">
        <ele>87</ele>
        <time>2022-04-10T10:46:37Z</time>
      </trkpt>
      <trkpt lat="47.27402" lon="-1.55505">
        <ele>87</ele>
        <time>2022-04-10T10:46:38Z</time>
      </trkpt>
      <trkpt lat="47.27402" lon="-1.55507">
        <ele>87</ele>
        <time>2022-04-10T10:46:39Z</time>
      </trkpt>
      <trkpt lat="47.27402" lon="-1.55509">
        <ele>87</ele>
        <time>2022-04-10T10:46:40Z</time>
      </trkpt>
      <trkpt lat="47.27403" lon="-1.55511">
        <ele>87</ele>
        <time>2022-04-10T10:46:41Z</time>
      </trkpt>
      <trkpt lat="47.27403" lon="-1.55512">
        <ele>87</ele>
        <time>2022-04-10T10:46:42Z</time>
      </trkpt>
      <trkpt lat="47.27403" lon="-1.55513">
        <ele>87</ele>
        <time>2022-04-10T10:46:43Z</time>
      </trkpt>
      <trkpt lat="47.27403" lon="-1.55515">
        <ele>87</ele>
        <time>2022-04-10T10:46:44Z</time>
      </trkpt>
      <trkpt lat="47.27404" lon="-1.55517">
        <ele>87</ele>
        <time>2022-04-10T10:46:45Z</time>
      </trkpt>
      <trkpt lat="47.27404" lon="-1.55518">
        <ele>87</ele>
        <time>2022-04-10T10:46:46Z</time>
      </trkpt>
      <trkpt lat="47.27404" lon="-1.5552">
        <ele>86</ele>
        <time>2022-04-10T10:46:47Z</time>
      </trkpt>
      <trkpt lat="47.27404" lon="-1.55521">
        <ele>87</ele>
        <time>2022-04-10T10:46:48Z</time>
      </trkpt>
      <trkpt lat="47.27404" lon="-1.55522">
        <ele>87</ele>
        <time>2022-04-10T10:46:49Z</time>
      </trkpt>
      <trkpt lat="47.27404" lon="-1.55523">
        <ele>87</ele>
        <time>2022-04-10T10:46:50Z</time>
      </trkpt>
      <trkpt lat="47.27404" lon="-1.55524">
        <ele>87</ele>
        <time>2022-04-10T10:46:51Z</time>
      </trkpt>
      <trkpt lat="47.27403" lon="-1.55525">
        <ele>87</ele>
        <time>2022-04-10T10:46:52Z</time>
      </trkpt>
      <trkpt lat="47.27404" lon="-1.55526">
        <ele>87</ele>
        <time>2022-04-10T10:46:53Z</time>
      </trkpt>
      <trkpt lat="47.27404" lon="-1.55527">
        <ele>86</ele>
        <time>2022-04-10T10:46:54Z</time>
      </trkpt>
      <trkpt lat="47.27404" lon="-1.55528">
        <ele>86</ele>
        <time>2022-04-10T10:46:55Z</time>
      </trkpt>
      <trkpt lat="47.27404" lon="-1.55529">
        <ele>86</ele>
        <time>2022-04-10T10:46:56Z</time>
      </trkpt>
      <trkpt lat="47.27404" lon="-1.5553">
        <ele>86</ele>
        <time>2022-04-10T10:46:57Z</time>
      </trkpt>
      <trkpt lat="47.27404" lon="-1.55531">
        <ele>87</ele>
        <time>2022-04-10T10:46:58Z</time>
      </trkpt>
      <trkpt lat="47.27404" lon="-1.55532">
        <ele>87</ele>
        <time>2022-04-10T10:46:59Z</time>
      </trkpt>
      <trkpt lat="47.27404" lon="-1.55534">
        <ele>87</ele>
        <time>2022-04-10T10:47:00Z</time>
      </trkpt>
      <trkpt lat="47.27403" lon="-1.55534">
        <ele>88</ele>
        <time>2022-04-10T10:47:01Z</time>
      </trkpt>
      <trkpt lat="47.27403" lon="-1.55534">
        <ele>88</ele>
        <time>2022-04-10T10:47:02Z</time>
      </trkpt>
      <trkpt lat="47.27403" lon="-1.55534">
        <ele>88</ele>
        <time>2022-04-10T10:47:03Z</time>
      </trkpt>
      <trkpt lat="47.27404" lon="-1.55538">
        <ele>88</ele>
        <time>2022-04-10T10:47:04Z</time>
      </trkpt>
      <trkpt lat="47.27404" lon="-1.55539">
        <ele>88</ele>
        <time>2022-04-10T10:47:05Z</time>
      </trkpt>
      <trkpt lat="47.27404" lon="-1.5554">
        <ele>88</ele>
        <time>2022-04-10T10:47:06Z</time>
      </trkpt>
      <trkpt lat="47.27404" lon="-1.55541">
        <ele>88</ele>
        <time>2022-04-10T10:47:07Z</time>
      </trkpt>
      <trkpt lat="47.27404" lon="-1.55541">
        <ele>88</ele>
        <time>2022-04-10T10:47:08Z</time>
      </trkpt>
      <trkpt lat="47.27404" lon="-1.55541">
        <ele>89</ele>
        <time>2022-04-10T10:47:09Z</time>
      </trkpt>
      <trkpt lat="47.27404" lon="-1.55543">
        <ele>89</ele>
        <time>2022-04-10T10:47:10Z</time>
      </trkpt>
      <trkpt lat="47.27404" lon="-1.55544">
        <ele>88</ele>
        <time>2022-04-10T10:47:11Z</time>
      </trkpt>
      <trkpt lat="47.27404" lon="-1.55544">
        <ele>88</ele>
        <time>2022-04-10T10:47:12Z</time>
      </trkpt>
      <trkpt lat="47.27404" lon="-1.55544">
        <ele>88</ele>
        <time>2022-04-10T10:47:13Z</time>
      </trkpt>
      <trkpt lat="47.27404" lon="-1.55547">
        <ele>88</ele>
        <time>2022-04-10T10:47:14Z</time>
      </trkpt>
      <trkpt lat="47.27404" lon="-1.55547">
        <ele>88</ele>
        <time>2022-04-10T10:47:15Z</time>
      </trkpt>
      <trkpt lat="47.27405" lon="-1.55548">
        <ele>87</ele>
        <time>2022-04-10T10:47:16Z</time>
      </trkpt>
      <trkpt lat="47.27406" lon="-1.5555">
        <ele>87</ele>
        <time>2022-04-10T10:47:17Z</time>
      </trkpt>
      <trkpt lat="47.27406" lon="-1.5555">
        <ele>88</ele>
        <time>2022-04-10T10:47:18Z</time>
      </trkpt>
      <trkpt lat="47.27407" lon="-1.55549">
        <ele>88</ele>
        <time>2022-04-10T10:47:19Z</time>
      </trkpt>
      <trkpt lat="47.27407" lon="-1.5555">
        <ele>87</ele>
        <time>2022-04-10T10:47:20Z</time>
      </trkpt>
      <trkpt lat="47.27407" lon="-1.55549">
        <ele>86</ele>
        <time>2022-04-10T10:47:21Z</time>
      </trkpt>
      <trkpt lat="47.27408" lon="-1.5555">
        <ele>86</ele>
        <time>2022-04-10T10:47:22Z</time>
      </trkpt>
      <trkpt lat="47.27408" lon="-1.5555">
        <ele>86</ele>
        <time>2022-04-10T10:47:23Z</time>
      </trkpt>
      <trkpt lat="47.27408" lon="-1.55551">
        <ele>86</ele>
        <time>2022-04-10T10:47:24Z</time>
      </trkpt>
      <trkpt lat="47.27408" lon="-1.5555">
        <ele>85</ele>
        <time>2022-04-10T10:47:25Z</time>
      </trkpt>
      <trkpt lat="47.27408" lon="-1.5555">
        <ele>85</ele>
        <time>2022-04-10T10:47:26Z</time>
      </trkpt>
      <trkpt lat="47.27408" lon="-1.5555">
        <ele>85</ele>
        <time>2022-04-10T10:47:27Z</time>
      </trkpt>
      <trkpt lat="47.27408" lon="-1.55551">
        <ele>86</ele>
        <time>2022-04-10T10:47:28Z</time>
      </trkpt>
      <trkpt lat="47.27408" lon="-1.5555">
        <ele>86</ele>
        <time>2022-04-10T10:47:29Z</time>
      </trkpt>
      <trkpt lat="47.27409" lon="-1.5555">
        <ele>85</ele>
        <time>2022-04-10T10:47:30Z</time>
      </trkpt>
      <trkpt lat="47.27409" lon="-1.5555">
        <ele>85</ele>
        <time>2022-04-10T10:47:31Z</time>
      </trkpt>
      <trkpt lat="47.27409" lon="-1.5555">
        <ele>85</ele>
        <time>2022-04-10T10:47:32Z</time>
      </trkpt>
      <trkpt lat="47.2741" lon="-1.5555">
        <ele>85</ele>
        <time>2022-04-10T10:47:33Z</time>
      </trkpt>
      <trkpt lat="47.2741" lon="-1.5555">
        <ele>85</ele>
        <time>2022-04-10T10:47:34Z</time>
      </trkpt>
      <trkpt lat="47.2741" lon="-1.5555">
        <ele>85</ele>
        <time>2022-04-10T10:47:34Z</time>
      </trkpt>
      <trkpt lat="47.2741" lon="-1.5555">
        <ele>85</ele>
        <time>2022-04-10T10:47:34Z</time>
      </trkpt>
    </trkseg>
  </trk>
</gpx>